<?xml version="1.0" encoding="UTF-8"?>
<gpx version="1.1" creator="2bulu-scraper" xmlns="http://www.topografix.com/GPX/1/1">
  <metadata><name>:51古蔺斧头山龙爪环线</name><desc>source: 2bulu.com trackId=88403062; exported 2026-09-01T14:53:41.863Z</desc>
    <bounds minlat="28.132734" minlon="105.740513" maxlat="28.167095" maxlon="105.813735"/>
    <link href="https://www.2bulu.com/track/t-8Fct%252F4VZtSLp%252FR2KBg5Tzw%253D%253D.htm"><text>2bulu 源页面</text></link>
  </metadata>
  <wpt lat="28.143511" lon="105.740565"><ele>1246</ele><name>起点</name></wpt>
  <wpt lat="28.14346" lon="105.741621"><ele>1256</ele><name></name></wpt>
  <wpt lat="28.143466" lon="105.741666"><ele>1257</ele><name></name></wpt>
  <wpt lat="28.145336" lon="105.74753"><ele>1351</ele><name></name></wpt>
  <wpt lat="28.145373" lon="105.747531"><ele>1351</ele><name></name></wpt>
  <wpt lat="28.145745" lon="105.74818"><ele>1370</ele><name>丛林</name></wpt>
  <wpt lat="28.146162" lon="105.748625"><ele>1389</ele><name></name></wpt>
  <wpt lat="28.146189" lon="105.74861"><ele>1391</ele><name></name></wpt>
  <wpt lat="28.146355" lon="105.748614"><ele>1391</ele><name></name></wpt>
  <wpt lat="28.146407" lon="105.748613"><ele>1394</ele><name>大百合</name></wpt>
  <wpt lat="28.146436" lon="105.748719"><ele>1395</ele><name></name></wpt>
  <wpt lat="28.146884" lon="105.749714"><ele>1424</ele><name></name></wpt>
  <wpt lat="28.146966" lon="105.749711"><ele>1426</ele><name></name></wpt>
  <wpt lat="28.149372" lon="105.751001"><ele>1568</ele><name>半山</name></wpt>
  <wpt lat="28.149971" lon="105.752457"><ele>1671</ele><name></name></wpt>
  <wpt lat="28.149972" lon="105.752447"><ele>1674</ele><name></name></wpt>
  <wpt lat="28.149982" lon="105.75247"><ele>1675</ele><name></name></wpt>
  <wpt lat="28.150165" lon="105.753175"><ele>1725</ele><name>分叉口，往右行</name></wpt>
  <wpt lat="28.146609" lon="105.757881"><ele>1675</ele><name></name></wpt>
  <wpt lat="28.146563" lon="105.757893"><ele>1674</ele><name></name></wpt>
  <wpt lat="28.146547" lon="105.757894"><ele>1674</ele><name></name></wpt>
  <wpt lat="28.144942" lon="105.758978"><ele>1688</ele><name></name></wpt>
  <wpt lat="28.14491" lon="105.75899"><ele>1688</ele><name></name></wpt>
  <wpt lat="28.144761" lon="105.759068"><ele>1693</ele><name></name></wpt>
  <wpt lat="28.143819" lon="105.759188"><ele>1726</ele><name></name></wpt>
  <wpt lat="28.143309" lon="105.758821"><ele>1752</ele><name></name></wpt>
  <wpt lat="28.141018" lon="105.758784"><ele>1786</ele><name></name></wpt>
  <wpt lat="28.140944" lon="105.758724"><ele>1785</ele><name></name></wpt>
  <wpt lat="28.138891" lon="105.761239"><ele>1786</ele><name></name></wpt>
  <wpt lat="28.138704" lon="105.76198"><ele>1825</ele><name></name></wpt>
  <wpt lat="28.13306" lon="105.772961"><ele>1564</ele><name></name></wpt>
  <wpt lat="28.133067" lon="105.77298"><ele>1562</ele><name></name></wpt>
  <wpt lat="28.133351" lon="105.777968"><ele>1557</ele><name></name></wpt>
  <wpt lat="28.133395" lon="105.777954"><ele>1557</ele><name></name></wpt>
  <wpt lat="28.133433" lon="105.777918"><ele>1557</ele><name></name></wpt>
  <wpt lat="28.134239" lon="105.77911"><ele>1548</ele><name></name></wpt>
  <wpt lat="28.134699" lon="105.78914"><ele>1558</ele><name></name></wpt>
  <wpt lat="28.134752" lon="105.789201"><ele>1560</ele><name></name></wpt>
  <wpt lat="28.134896" lon="105.789805"><ele>1579</ele><name></name></wpt>
  <wpt lat="28.134898" lon="105.789801"><ele>1577</ele><name>红龙湖</name></wpt>
  <wpt lat="28.136418" lon="105.792163"><ele>1545</ele><name>龙爪方向</name></wpt>
  <wpt lat="28.136734" lon="105.792733"><ele>1544</ele><name></name></wpt>
  <wpt lat="28.137178" lon="105.793411"><ele>1539</ele><name></name></wpt>
  <wpt lat="28.136713" lon="105.793601"><ele>1554</ele><name></name></wpt>
  <wpt lat="28.137195" lon="105.795484"><ele>1502</ele><name></name></wpt>
  <wpt lat="28.140692" lon="105.794473"><ele>1224</ele><name></name></wpt>
  <wpt lat="28.140703" lon="105.794474"><ele>1222</ele><name></name></wpt>
  <wpt lat="28.140688" lon="105.794476"><ele>1224</ele><name></name></wpt>
  <wpt lat="28.140691" lon="105.794489"><ele>1219</ele><name></name></wpt>
  <wpt lat="28.140695" lon="105.79448"><ele>1218</ele><name></name></wpt>
  <wpt lat="28.140697" lon="105.794464"><ele>1219</ele><name></name></wpt>
  <wpt lat="28.141019" lon="105.79607"><ele>1222</ele><name></name></wpt>
  <wpt lat="28.141695" lon="105.798898"><ele>1201</ele><name></name></wpt>
  <wpt lat="28.144046" lon="105.804283"><ele>1179</ele><name></name></wpt>
  <wpt lat="28.14593" lon="105.808667"><ele>1162</ele><name></name></wpt>
  <wpt lat="28.145952" lon="105.809727"><ele>1169</ele><name></name></wpt>
  <wpt lat="28.146213" lon="105.809928"><ele>1179</ele><name></name></wpt>
  <wpt lat="28.146473" lon="105.809672"><ele>1179</ele><name></name></wpt>
  <wpt lat="28.152952" lon="105.811684"><ele>1167</ele><name></name></wpt>
  <wpt lat="28.155804" lon="105.813614"><ele>1152</ele><name>龙爪水库</name></wpt>
  <wpt lat="28.158879" lon="105.811852"><ele>1181</ele><name>野果</name></wpt>
  <wpt lat="28.162035" lon="105.811694"><ele>1158</ele><name></name></wpt>
  <wpt lat="28.162175" lon="105.811632"><ele>1159</ele><name></name></wpt>
  <wpt lat="28.161701" lon="105.777038"><ele>1261</ele><name></name></wpt>
  <wpt lat="28.162312" lon="105.774068"><ele>1294</ele><name></name></wpt>
  <wpt lat="28.162231" lon="105.774022"><ele>1297</ele><name></name></wpt>
  <wpt lat="28.160224" lon="105.769863"><ele>1335</ele><name></name></wpt>
  <wpt lat="28.158592" lon="105.75734"><ele>1651</ele><name></name></wpt>
  <wpt lat="28.158598" lon="105.75733"><ele>1649</ele><name></name></wpt>
  <wpt lat="28.154431" lon="105.754136"><ele>1692</ele><name></name></wpt>
  <wpt lat="28.152172" lon="105.753387"><ele>1719</ele><name></name></wpt>
  <wpt lat="28.149005" lon="105.750634"><ele>1542</ele><name></name></wpt>
  <wpt lat="28.148906" lon="105.75056"><ele>1532</ele><name></name></wpt>
  <wpt lat="28.146512" lon="105.748657"><ele>1403</ele><name></name></wpt>
  <trk><name>:51古蔺斧头山龙爪环线</name>
      <trkseg>
        <trkpt lat="28.143504" lon="105.740578"><ele>1246.854</ele><time>2026-08-15T16:48:52.000Z</time></trkpt>
        <trkpt lat="28.143452" lon="105.740588"><ele>1247.0526</ele><time>2026-08-15T16:49:26.000Z</time></trkpt>
        <trkpt lat="28.143425" lon="105.740582"><ele>1247.2478</ele><time>2026-08-15T16:49:28.000Z</time></trkpt>
        <trkpt lat="28.143423" lon="105.740581"><ele>1246.6493</ele><time>2026-08-15T16:49:30.000Z</time></trkpt>
        <trkpt lat="28.143418" lon="105.740579"><ele>1246.1371</ele><time>2026-08-15T16:49:32.000Z</time></trkpt>
        <trkpt lat="28.143397" lon="105.740573"><ele>1246.1869</ele><time>2026-08-15T16:49:34.000Z</time></trkpt>
        <trkpt lat="28.143369" lon="105.740572"><ele>1247.2988</ele><time>2026-08-15T16:49:36.000Z</time></trkpt>
        <trkpt lat="28.143352" lon="105.740581"><ele>1245.7124</ele><time>2026-08-15T16:49:38.000Z</time></trkpt>
        <trkpt lat="28.143341" lon="105.740596"><ele>1246.5952</ele><time>2026-08-15T16:49:40.000Z</time></trkpt>
        <trkpt lat="28.143338" lon="105.740611"><ele>1246.5168</ele><time>2026-08-15T16:49:42.000Z</time></trkpt>
        <trkpt lat="28.143338" lon="105.740621"><ele>1246.7385</ele><time>2026-08-15T16:49:44.000Z</time></trkpt>
        <trkpt lat="28.143342" lon="105.740625"><ele>1246.7445</ele><time>2026-08-15T16:49:46.000Z</time></trkpt>
        <trkpt lat="28.143351" lon="105.740647"><ele>1250.6112</ele><time>2026-08-15T16:50:27.000Z</time></trkpt>
        <trkpt lat="28.143356" lon="105.740671"><ele>1251.7228</ele><time>2026-08-15T16:50:32.000Z</time></trkpt>
        <trkpt lat="28.14336" lon="105.740689"><ele>1250.528</ele><time>2026-08-15T16:50:34.000Z</time></trkpt>
        <trkpt lat="28.143361" lon="105.740689"><ele>1251.1676</ele><time>2026-08-15T16:50:36.000Z</time></trkpt>
        <trkpt lat="28.143377" lon="105.740706"><ele>1250.1139</ele><time>2026-08-15T16:50:40.000Z</time></trkpt>
        <trkpt lat="28.143389" lon="105.740723"><ele>1250.1366</ele><time>2026-08-15T16:50:42.000Z</time></trkpt>
        <trkpt lat="28.1434" lon="105.740742"><ele>1249.8271</ele><time>2026-08-15T16:50:44.000Z</time></trkpt>
        <trkpt lat="28.143409" lon="105.740762"><ele>1250.1826</ele><time>2026-08-15T16:50:46.000Z</time></trkpt>
        <trkpt lat="28.143416" lon="105.740782"><ele>1250.5758</ele><time>2026-08-15T16:50:48.000Z</time></trkpt>
        <trkpt lat="28.14342" lon="105.740798"><ele>1251.4729</ele><time>2026-08-15T16:50:50.000Z</time></trkpt>
        <trkpt lat="28.143423" lon="105.740813"><ele>1251.4921</ele><time>2026-08-15T16:50:52.000Z</time></trkpt>
        <trkpt lat="28.143426" lon="105.740825"><ele>1251.6996</ele><time>2026-08-15T16:50:54.000Z</time></trkpt>
        <trkpt lat="28.14343" lon="105.740839"><ele>1252.1788</ele><time>2026-08-15T16:50:56.000Z</time></trkpt>
        <trkpt lat="28.143433" lon="105.740855"><ele>1251.9518</ele><time>2026-08-15T16:50:58.000Z</time></trkpt>
        <trkpt lat="28.143436" lon="105.740873"><ele>1251.5382</ele><time>2026-08-15T16:51:00.000Z</time></trkpt>
        <trkpt lat="28.14344" lon="105.740892"><ele>1251.5099</ele><time>2026-08-15T16:51:02.000Z</time></trkpt>
        <trkpt lat="28.143445" lon="105.740913"><ele>1250.2448</ele><time>2026-08-15T16:51:04.000Z</time></trkpt>
        <trkpt lat="28.14345" lon="105.74093"><ele>1249.9657</ele><time>2026-08-15T16:51:06.000Z</time></trkpt>
        <trkpt lat="28.143455" lon="105.740949"><ele>1250.8105</ele><time>2026-08-15T16:51:08.000Z</time></trkpt>
        <trkpt lat="28.14346" lon="105.740971"><ele>1250.0519</ele><time>2026-08-15T16:51:10.000Z</time></trkpt>
        <trkpt lat="28.143463" lon="105.740985"><ele>1250.1313</ele><time>2026-08-15T16:51:12.000Z</time></trkpt>
        <trkpt lat="28.143465" lon="105.740997"><ele>1250.3307</ele><time>2026-08-15T16:51:14.000Z</time></trkpt>
        <trkpt lat="28.143466" lon="105.74101"><ele>1249.923</ele><time>2026-08-15T16:51:16.000Z</time></trkpt>
        <trkpt lat="28.143468" lon="105.741026"><ele>1250.4165</ele><time>2026-08-15T16:51:18.000Z</time></trkpt>
        <trkpt lat="28.143473" lon="105.741046"><ele>1250.8966</ele><time>2026-08-15T16:51:20.000Z</time></trkpt>
        <trkpt lat="28.143476" lon="105.741067"><ele>1250.8307</ele><time>2026-08-15T16:51:22.000Z</time></trkpt>
        <trkpt lat="28.143481" lon="105.74109"><ele>1251.5052</ele><time>2026-08-15T16:51:24.000Z</time></trkpt>
        <trkpt lat="28.143483" lon="105.741112"><ele>1251.4182</ele><time>2026-08-15T16:51:26.000Z</time></trkpt>
        <trkpt lat="28.143482" lon="105.741134"><ele>1251.8396</ele><time>2026-08-15T16:51:28.000Z</time></trkpt>
        <trkpt lat="28.143479" lon="105.741151"><ele>1251.8604</ele><time>2026-08-15T16:51:30.000Z</time></trkpt>
        <trkpt lat="28.143474" lon="105.741168"><ele>1252.5099</ele><time>2026-08-15T16:51:32.000Z</time></trkpt>
        <trkpt lat="28.143469" lon="105.741188"><ele>1254.2253</ele><time>2026-08-15T16:51:34.000Z</time></trkpt>
        <trkpt lat="28.143465" lon="105.741208"><ele>1253.7286</ele><time>2026-08-15T16:51:36.000Z</time></trkpt>
        <trkpt lat="28.143463" lon="105.741233"><ele>1253.5485</ele><time>2026-08-15T16:51:38.000Z</time></trkpt>
        <trkpt lat="28.143462" lon="105.741256"><ele>1253.1151</ele><time>2026-08-15T16:51:40.000Z</time></trkpt>
        <trkpt lat="28.143462" lon="105.741274"><ele>1253.5372</ele><time>2026-08-15T16:51:42.000Z</time></trkpt>
        <trkpt lat="28.14346" lon="105.741301"><ele>1253.7211</ele><time>2026-08-15T16:51:45.000Z</time></trkpt>
        <trkpt lat="28.143459" lon="105.741318"><ele>1254.2195</ele><time>2026-08-15T16:51:47.000Z</time></trkpt>
        <trkpt lat="28.143459" lon="105.741341"><ele>1254.2943</ele><time>2026-08-15T16:51:49.000Z</time></trkpt>
        <trkpt lat="28.143461" lon="105.741361"><ele>1253.4175</ele><time>2026-08-15T16:51:51.000Z</time></trkpt>
        <trkpt lat="28.143462" lon="105.741381"><ele>1252.5725</ele><time>2026-08-15T16:51:53.000Z</time></trkpt>
        <trkpt lat="28.143463" lon="105.741398"><ele>1253.4474</ele><time>2026-08-15T16:51:55.000Z</time></trkpt>
        <trkpt lat="28.143464" lon="105.741415"><ele>1253.3153</ele><time>2026-08-15T16:51:57.000Z</time></trkpt>
        <trkpt lat="28.143465" lon="105.741437"><ele>1254.4225</ele><time>2026-08-15T16:51:59.000Z</time></trkpt>
        <trkpt lat="28.143465" lon="105.741461"><ele>1254.3964</ele><time>2026-08-15T16:52:01.000Z</time></trkpt>
        <trkpt lat="28.143467" lon="105.741485"><ele>1253.882</ele><time>2026-08-15T16:52:03.000Z</time></trkpt>
        <trkpt lat="28.143469" lon="105.741505"><ele>1254.4194</ele><time>2026-08-15T16:52:05.000Z</time></trkpt>
        <trkpt lat="28.14347" lon="105.741522"><ele>1255.1709</ele><time>2026-08-15T16:52:07.000Z</time></trkpt>
        <trkpt lat="28.14347" lon="105.741537"><ele>1255.9513</ele><time>2026-08-15T16:52:09.000Z</time></trkpt>
        <trkpt lat="28.143469" lon="105.741554"><ele>1255.8301</ele><time>2026-08-15T16:52:11.000Z</time></trkpt>
        <trkpt lat="28.143466" lon="105.741572"><ele>1256.2683</ele><time>2026-08-15T16:52:13.000Z</time></trkpt>
        <trkpt lat="28.143464" lon="105.741589"><ele>1256.758</ele><time>2026-08-15T16:52:15.000Z</time></trkpt>
        <trkpt lat="28.143462" lon="105.74161"><ele>1255.9391</ele><time>2026-08-15T16:52:17.000Z</time></trkpt>
        <trkpt lat="28.143463" lon="105.74163"><ele>1256.2372</ele><time>2026-08-15T16:52:19.000Z</time></trkpt>
        <trkpt lat="28.143464" lon="105.741647"><ele>1256.4197</ele><time>2026-08-15T16:52:21.000Z</time></trkpt>
        <trkpt lat="28.143465" lon="105.741652"><ele>1257.3301</ele><time>2026-08-15T16:52:23.000Z</time></trkpt>
        <trkpt lat="28.143465" lon="105.741665"><ele>1257.289</ele><time>2026-08-15T16:52:27.000Z</time></trkpt>
        <trkpt lat="28.143466" lon="105.741695"><ele>1257.2762</ele><time>2026-08-15T16:52:29.000Z</time></trkpt>
        <trkpt lat="28.143466" lon="105.741697"><ele>1258.0253</ele><time>2026-08-15T16:52:31.000Z</time></trkpt>
        <trkpt lat="28.143467" lon="105.741702"><ele>1257.8872</ele><time>2026-08-15T16:52:33.000Z</time></trkpt>
        <trkpt lat="28.143476" lon="105.741759"><ele>1258.0664</ele><time>2026-08-15T16:52:37.000Z</time></trkpt>
        <trkpt lat="28.14348" lon="105.741789"><ele>1258.942</ele><time>2026-08-15T16:52:39.000Z</time></trkpt>
        <trkpt lat="28.143482" lon="105.74182"><ele>1259.3745</ele><time>2026-08-15T16:52:41.000Z</time></trkpt>
        <trkpt lat="28.143483" lon="105.741845"><ele>1258.7097</ele><time>2026-08-15T16:52:43.000Z</time></trkpt>
        <trkpt lat="28.143483" lon="105.741862"><ele>1258.6433</ele><time>2026-08-15T16:52:45.000Z</time></trkpt>
        <trkpt lat="28.14348" lon="105.741885"><ele>1258.6276</ele><time>2026-08-15T16:52:47.000Z</time></trkpt>
        <trkpt lat="28.143475" lon="105.741913"><ele>1258.0776</ele><time>2026-08-15T16:52:49.000Z</time></trkpt>
        <trkpt lat="28.143469" lon="105.741943"><ele>1258.4454</ele><time>2026-08-15T16:52:51.000Z</time></trkpt>
        <trkpt lat="28.143467" lon="105.741964"><ele>1257.837</ele><time>2026-08-15T16:52:53.000Z</time></trkpt>
        <trkpt lat="28.143466" lon="105.741983"><ele>1258.0085</ele><time>2026-08-15T16:52:55.000Z</time></trkpt>
        <trkpt lat="28.143465" lon="105.742"><ele>1258.4539</ele><time>2026-08-15T16:52:57.000Z</time></trkpt>
        <trkpt lat="28.143463" lon="105.74202"><ele>1259.6775</ele><time>2026-08-15T16:52:59.000Z</time></trkpt>
        <trkpt lat="28.143461" lon="105.742041"><ele>1260.232</ele><time>2026-08-15T16:53:01.000Z</time></trkpt>
        <trkpt lat="28.143458" lon="105.742066"><ele>1260.436</ele><time>2026-08-15T16:53:03.000Z</time></trkpt>
        <trkpt lat="28.143456" lon="105.742089"><ele>1259.898</ele><time>2026-08-15T16:53:05.000Z</time></trkpt>
        <trkpt lat="28.143456" lon="105.742113"><ele>1260.6244</ele><time>2026-08-15T16:53:07.000Z</time></trkpt>
        <trkpt lat="28.143456" lon="105.742138"><ele>1261.1035</ele><time>2026-08-15T16:53:09.000Z</time></trkpt>
        <trkpt lat="28.143458" lon="105.742162"><ele>1261.875</ele><time>2026-08-15T16:53:11.000Z</time></trkpt>
        <trkpt lat="28.143459" lon="105.742188"><ele>1262.5347</ele><time>2026-08-15T16:53:13.000Z</time></trkpt>
        <trkpt lat="28.143461" lon="105.742209"><ele>1263.2511</ele><time>2026-08-15T16:53:15.000Z</time></trkpt>
        <trkpt lat="28.143462" lon="105.742232"><ele>1263.0193</ele><time>2026-08-15T16:53:17.000Z</time></trkpt>
        <trkpt lat="28.143464" lon="105.742257"><ele>1263.5024</ele><time>2026-08-15T16:53:19.000Z</time></trkpt>
        <trkpt lat="28.143466" lon="105.742279"><ele>1262.9023</ele><time>2026-08-15T16:53:21.000Z</time></trkpt>
        <trkpt lat="28.143467" lon="105.742305"><ele>1263.3265</ele><time>2026-08-15T16:53:23.000Z</time></trkpt>
        <trkpt lat="28.143468" lon="105.74233"><ele>1263.2202</ele><time>2026-08-15T16:53:25.000Z</time></trkpt>
        <trkpt lat="28.14347" lon="105.742354"><ele>1262.6826</ele><time>2026-08-15T16:53:27.000Z</time></trkpt>
        <trkpt lat="28.143472" lon="105.742381"><ele>1262.5029</ele><time>2026-08-15T16:53:29.000Z</time></trkpt>
        <trkpt lat="28.143475" lon="105.742403"><ele>1263.3464</ele><time>2026-08-15T16:53:31.000Z</time></trkpt>
        <trkpt lat="28.143478" lon="105.742427"><ele>1263.4005</ele><time>2026-08-15T16:53:33.000Z</time></trkpt>
        <trkpt lat="28.143479" lon="105.742451"><ele>1264.6134</ele><time>2026-08-15T16:53:35.000Z</time></trkpt>
        <trkpt lat="28.143479" lon="105.742474"><ele>1265.0977</ele><time>2026-08-15T16:53:37.000Z</time></trkpt>
        <trkpt lat="28.143478" lon="105.742499"><ele>1265.4496</ele><time>2026-08-15T16:53:39.000Z</time></trkpt>
        <trkpt lat="28.143477" lon="105.742521"><ele>1266.5437</ele><time>2026-08-15T16:53:41.000Z</time></trkpt>
        <trkpt lat="28.143478" lon="105.742544"><ele>1266.7454</ele><time>2026-08-15T16:53:43.000Z</time></trkpt>
        <trkpt lat="28.143481" lon="105.742566"><ele>1266.996</ele><time>2026-08-15T16:53:45.000Z</time></trkpt>
        <trkpt lat="28.143485" lon="105.742586"><ele>1267.3257</ele><time>2026-08-15T16:53:47.000Z</time></trkpt>
        <trkpt lat="28.143489" lon="105.742606"><ele>1267.872</ele><time>2026-08-15T16:53:49.000Z</time></trkpt>
        <trkpt lat="28.143493" lon="105.742623"><ele>1267.528</ele><time>2026-08-15T16:53:51.000Z</time></trkpt>
        <trkpt lat="28.143496" lon="105.742638"><ele>1267.4452</ele><time>2026-08-15T16:53:53.000Z</time></trkpt>
        <trkpt lat="28.143499" lon="105.742656"><ele>1267.6698</ele><time>2026-08-15T16:53:55.000Z</time></trkpt>
        <trkpt lat="28.1435" lon="105.742678"><ele>1268.0391</ele><time>2026-08-15T16:53:57.000Z</time></trkpt>
        <trkpt lat="28.143497" lon="105.742698"><ele>1268.4937</ele><time>2026-08-15T16:53:59.000Z</time></trkpt>
        <trkpt lat="28.143492" lon="105.742724"><ele>1268.6487</ele><time>2026-08-15T16:54:01.000Z</time></trkpt>
        <trkpt lat="28.143489" lon="105.742755"><ele>1269.4321</ele><time>2026-08-15T16:54:03.000Z</time></trkpt>
        <trkpt lat="28.14349" lon="105.742783"><ele>1269.6829</ele><time>2026-08-15T16:54:05.000Z</time></trkpt>
        <trkpt lat="28.143495" lon="105.742808"><ele>1269.4348</ele><time>2026-08-15T16:54:07.000Z</time></trkpt>
        <trkpt lat="28.1435" lon="105.742831"><ele>1269.848</ele><time>2026-08-15T16:54:09.000Z</time></trkpt>
        <trkpt lat="28.143507" lon="105.742854"><ele>1270.3905</ele><time>2026-08-15T16:54:11.000Z</time></trkpt>
        <trkpt lat="28.143513" lon="105.742874"><ele>1271.0945</ele><time>2026-08-15T16:54:13.000Z</time></trkpt>
        <trkpt lat="28.143519" lon="105.742895"><ele>1271.6829</ele><time>2026-08-15T16:54:15.000Z</time></trkpt>
        <trkpt lat="28.143524" lon="105.742914"><ele>1271.2532</ele><time>2026-08-15T16:54:17.000Z</time></trkpt>
        <trkpt lat="28.14353" lon="105.742933"><ele>1271.0869</ele><time>2026-08-15T16:54:19.000Z</time></trkpt>
        <trkpt lat="28.143536" lon="105.742956"><ele>1271.3782</ele><time>2026-08-15T16:54:21.000Z</time></trkpt>
        <trkpt lat="28.14354" lon="105.742977"><ele>1270.2749</ele><time>2026-08-15T16:54:23.000Z</time></trkpt>
        <trkpt lat="28.143546" lon="105.742996"><ele>1270.2919</ele><time>2026-08-15T16:54:25.000Z</time></trkpt>
        <trkpt lat="28.14355" lon="105.743018"><ele>1271.1755</ele><time>2026-08-15T16:54:27.000Z</time></trkpt>
        <trkpt lat="28.143554" lon="105.743046"><ele>1269.9487</ele><time>2026-08-15T16:54:29.000Z</time></trkpt>
        <trkpt lat="28.14356" lon="105.743069"><ele>1270.7167</ele><time>2026-08-15T16:54:31.000Z</time></trkpt>
        <trkpt lat="28.143567" lon="105.743086"><ele>1271.2063</ele><time>2026-08-15T16:54:33.000Z</time></trkpt>
        <trkpt lat="28.143578" lon="105.743104"><ele>1270.7786</ele><time>2026-08-15T16:54:35.000Z</time></trkpt>
        <trkpt lat="28.143591" lon="105.743119"><ele>1270.9253</ele><time>2026-08-15T16:54:37.000Z</time></trkpt>
        <trkpt lat="28.143602" lon="105.743136"><ele>1270.3086</ele><time>2026-08-15T16:54:39.000Z</time></trkpt>
        <trkpt lat="28.143614" lon="105.743151"><ele>1270.4421</ele><time>2026-08-15T16:54:41.000Z</time></trkpt>
        <trkpt lat="28.143625" lon="105.743167"><ele>1270.8816</ele><time>2026-08-15T16:54:43.000Z</time></trkpt>
        <trkpt lat="28.143635" lon="105.743181"><ele>1271.1118</ele><time>2026-08-15T16:54:45.000Z</time></trkpt>
        <trkpt lat="28.143647" lon="105.743195"><ele>1271.6316</ele><time>2026-08-15T16:54:47.000Z</time></trkpt>
        <trkpt lat="28.143657" lon="105.743206"><ele>1272.0774</ele><time>2026-08-15T16:54:49.000Z</time></trkpt>
        <trkpt lat="28.143669" lon="105.74322"><ele>1271.6704</ele><time>2026-08-15T16:54:51.000Z</time></trkpt>
        <trkpt lat="28.143678" lon="105.743235"><ele>1271.8792</ele><time>2026-08-15T16:54:53.000Z</time></trkpt>
        <trkpt lat="28.143689" lon="105.743251"><ele>1272.5413</ele><time>2026-08-15T16:54:55.000Z</time></trkpt>
        <trkpt lat="28.143698" lon="105.743263"><ele>1273.325</ele><time>2026-08-15T16:54:57.000Z</time></trkpt>
        <trkpt lat="28.143707" lon="105.743277"><ele>1274.0962</ele><time>2026-08-15T16:54:59.000Z</time></trkpt>
        <trkpt lat="28.143719" lon="105.743295"><ele>1274.2505</ele><time>2026-08-15T16:55:01.000Z</time></trkpt>
        <trkpt lat="28.143727" lon="105.743312"><ele>1275.0851</ele><time>2026-08-15T16:55:03.000Z</time></trkpt>
        <trkpt lat="28.143734" lon="105.743329"><ele>1275.8328</ele><time>2026-08-15T16:55:05.000Z</time></trkpt>
        <trkpt lat="28.143741" lon="105.743348"><ele>1276.5573</ele><time>2026-08-15T16:55:07.000Z</time></trkpt>
        <trkpt lat="28.143749" lon="105.743365"><ele>1277.4265</ele><time>2026-08-15T16:55:09.000Z</time></trkpt>
        <trkpt lat="28.143757" lon="105.743379"><ele>1277.5825</ele><time>2026-08-15T16:55:11.000Z</time></trkpt>
        <trkpt lat="28.143766" lon="105.743394"><ele>1278.167</ele><time>2026-08-15T16:55:13.000Z</time></trkpt>
        <trkpt lat="28.143776" lon="105.743409"><ele>1278.4828</ele><time>2026-08-15T16:55:15.000Z</time></trkpt>
        <trkpt lat="28.143784" lon="105.743424"><ele>1279.199</ele><time>2026-08-15T16:55:17.000Z</time></trkpt>
        <trkpt lat="28.143792" lon="105.743439"><ele>1279.4941</ele><time>2026-08-15T16:55:19.000Z</time></trkpt>
        <trkpt lat="28.143799" lon="105.743455"><ele>1280.0128</ele><time>2026-08-15T16:55:21.000Z</time></trkpt>
        <trkpt lat="28.143805" lon="105.743466"><ele>1280.0745</ele><time>2026-08-15T16:55:23.000Z</time></trkpt>
        <trkpt lat="28.143813" lon="105.743482"><ele>1279.6049</ele><time>2026-08-15T16:55:25.000Z</time></trkpt>
        <trkpt lat="28.143822" lon="105.743495"><ele>1280.033</ele><time>2026-08-15T16:55:27.000Z</time></trkpt>
        <trkpt lat="28.143831" lon="105.743506"><ele>1280.4203</ele><time>2026-08-15T16:55:29.000Z</time></trkpt>
        <trkpt lat="28.143841" lon="105.743518"><ele>1280.6636</ele><time>2026-08-15T16:55:31.000Z</time></trkpt>
        <trkpt lat="28.143853" lon="105.743533"><ele>1281.0421</ele><time>2026-08-15T16:55:33.000Z</time></trkpt>
        <trkpt lat="28.143866" lon="105.743548"><ele>1281.492</ele><time>2026-08-15T16:55:35.000Z</time></trkpt>
        <trkpt lat="28.143881" lon="105.743562"><ele>1281.6459</ele><time>2026-08-15T16:55:37.000Z</time></trkpt>
        <trkpt lat="28.143898" lon="105.743576"><ele>1281.3336</ele><time>2026-08-15T16:55:39.000Z</time></trkpt>
        <trkpt lat="28.143917" lon="105.743592"><ele>1282.116</ele><time>2026-08-15T16:55:41.000Z</time></trkpt>
        <trkpt lat="28.143932" lon="105.743606"><ele>1282.6766</ele><time>2026-08-15T16:55:43.000Z</time></trkpt>
        <trkpt lat="28.143945" lon="105.743624"><ele>1283.3007</ele><time>2026-08-15T16:55:45.000Z</time></trkpt>
        <trkpt lat="28.143956" lon="105.743643"><ele>1284.2888</ele><time>2026-08-15T16:55:47.000Z</time></trkpt>
        <trkpt lat="28.143966" lon="105.743659"><ele>1284.5096</ele><time>2026-08-15T16:55:49.000Z</time></trkpt>
        <trkpt lat="28.143976" lon="105.743674"><ele>1284.0096</ele><time>2026-08-15T16:55:51.000Z</time></trkpt>
        <trkpt lat="28.14399" lon="105.743694"><ele>1284.6438</ele><time>2026-08-15T16:55:53.000Z</time></trkpt>
        <trkpt lat="28.144003" lon="105.743712"><ele>1285.5317</ele><time>2026-08-15T16:55:55.000Z</time></trkpt>
        <trkpt lat="28.144016" lon="105.743731"><ele>1285.7985</ele><time>2026-08-15T16:55:57.000Z</time></trkpt>
        <trkpt lat="28.144028" lon="105.743752"><ele>1286.6925</ele><time>2026-08-15T16:55:59.000Z</time></trkpt>
        <trkpt lat="28.144042" lon="105.743773"><ele>1287.2571</ele><time>2026-08-15T16:56:01.000Z</time></trkpt>
        <trkpt lat="28.144054" lon="105.743795"><ele>1289.1932</ele><time>2026-08-15T16:56:04.000Z</time></trkpt>
        <trkpt lat="28.144065" lon="105.74382"><ele>1288.9543</ele><time>2026-08-15T16:56:06.000Z</time></trkpt>
        <trkpt lat="28.144072" lon="105.743842"><ele>1289.5719</ele><time>2026-08-15T16:56:08.000Z</time></trkpt>
        <trkpt lat="28.144078" lon="105.743863"><ele>1289.5387</ele><time>2026-08-15T16:56:10.000Z</time></trkpt>
        <trkpt lat="28.144084" lon="105.743887"><ele>1290.1758</ele><time>2026-08-15T16:56:12.000Z</time></trkpt>
        <trkpt lat="28.144092" lon="105.74391"><ele>1290.7379</ele><time>2026-08-15T16:56:14.000Z</time></trkpt>
        <trkpt lat="28.144101" lon="105.743935"><ele>1290.8015</ele><time>2026-08-15T16:56:16.000Z</time></trkpt>
        <trkpt lat="28.14411" lon="105.743957"><ele>1290.729</ele><time>2026-08-15T16:56:18.000Z</time></trkpt>
        <trkpt lat="28.144122" lon="105.743974"><ele>1291.3293</ele><time>2026-08-15T16:56:20.000Z</time></trkpt>
        <trkpt lat="28.144133" lon="105.743991"><ele>1291.6157</ele><time>2026-08-15T16:56:22.000Z</time></trkpt>
        <trkpt lat="28.144146" lon="105.744011"><ele>1291.1259</ele><time>2026-08-15T16:56:24.000Z</time></trkpt>
        <trkpt lat="28.144158" lon="105.74403"><ele>1291.0835</ele><time>2026-08-15T16:56:26.000Z</time></trkpt>
        <trkpt lat="28.14417" lon="105.744051"><ele>1291.4749</ele><time>2026-08-15T16:56:28.000Z</time></trkpt>
        <trkpt lat="28.144182" lon="105.744074"><ele>1291.607</ele><time>2026-08-15T16:56:30.000Z</time></trkpt>
        <trkpt lat="28.144194" lon="105.744099"><ele>1292.0505</ele><time>2026-08-15T16:56:32.000Z</time></trkpt>
        <trkpt lat="28.144204" lon="105.744123"><ele>1291.5763</ele><time>2026-08-15T16:56:34.000Z</time></trkpt>
        <trkpt lat="28.144214" lon="105.744149"><ele>1291.2574</ele><time>2026-08-15T16:56:36.000Z</time></trkpt>
        <trkpt lat="28.144221" lon="105.74417"><ele>1291.0874</ele><time>2026-08-15T16:56:38.000Z</time></trkpt>
        <trkpt lat="28.144228" lon="105.744191"><ele>1290.1697</ele><time>2026-08-15T16:56:40.000Z</time></trkpt>
        <trkpt lat="28.144234" lon="105.744214"><ele>1290.3741</ele><time>2026-08-15T16:56:42.000Z</time></trkpt>
        <trkpt lat="28.144241" lon="105.74424"><ele>1290.9647</ele><time>2026-08-15T16:56:44.000Z</time></trkpt>
        <trkpt lat="28.144248" lon="105.744269"><ele>1290.7562</ele><time>2026-08-15T16:56:46.000Z</time></trkpt>
        <trkpt lat="28.144254" lon="105.744295"><ele>1291.436</ele><time>2026-08-15T16:56:48.000Z</time></trkpt>
        <trkpt lat="28.14426" lon="105.744323"><ele>1292.082</ele><time>2026-08-15T16:56:49.000Z</time></trkpt>
        <trkpt lat="28.144265" lon="105.744347"><ele>1292.44</ele><time>2026-08-15T16:56:51.000Z</time></trkpt>
        <trkpt lat="28.144269" lon="105.744365"><ele>1293.4003</ele><time>2026-08-15T16:56:53.000Z</time></trkpt>
        <trkpt lat="28.144275" lon="105.744387"><ele>1294.334</ele><time>2026-08-15T16:56:55.000Z</time></trkpt>
        <trkpt lat="28.144281" lon="105.744407"><ele>1294.3966</ele><time>2026-08-15T16:56:57.000Z</time></trkpt>
        <trkpt lat="28.144288" lon="105.744427"><ele>1294.964</ele><time>2026-08-15T16:56:59.000Z</time></trkpt>
        <trkpt lat="28.144297" lon="105.744443"><ele>1295.3876</ele><time>2026-08-15T16:57:01.000Z</time></trkpt>
        <trkpt lat="28.144307" lon="105.744459"><ele>1296.1361</ele><time>2026-08-15T16:57:03.000Z</time></trkpt>
        <trkpt lat="28.144316" lon="105.744473"><ele>1296.0758</ele><time>2026-08-15T16:57:05.000Z</time></trkpt>
        <trkpt lat="28.144326" lon="105.74449"><ele>1296.5344</ele><time>2026-08-15T16:57:07.000Z</time></trkpt>
        <trkpt lat="28.144336" lon="105.744504"><ele>1296.2177</ele><time>2026-08-15T16:57:09.000Z</time></trkpt>
        <trkpt lat="28.144348" lon="105.744525"><ele>1298.1533</ele><time>2026-08-15T16:57:11.000Z</time></trkpt>
        <trkpt lat="28.144356" lon="105.744542"><ele>1297.64</ele><time>2026-08-15T16:57:13.000Z</time></trkpt>
        <trkpt lat="28.144362" lon="105.744551"><ele>1297.1581</ele><time>2026-08-15T16:57:16.000Z</time></trkpt>
        <trkpt lat="28.144373" lon="105.744564"><ele>1297.2238</ele><time>2026-08-15T16:57:18.000Z</time></trkpt>
        <trkpt lat="28.144383" lon="105.744577"><ele>1297.1576</ele><time>2026-08-15T16:57:20.000Z</time></trkpt>
        <trkpt lat="28.144395" lon="105.744595"><ele>1297.376</ele><time>2026-08-15T16:57:22.000Z</time></trkpt>
        <trkpt lat="28.144406" lon="105.744616"><ele>1296.6307</ele><time>2026-08-15T16:57:24.000Z</time></trkpt>
        <trkpt lat="28.144415" lon="105.744635"><ele>1297.1709</ele><time>2026-08-15T16:57:26.000Z</time></trkpt>
        <trkpt lat="28.144422" lon="105.744652"><ele>1296.9412</ele><time>2026-08-15T16:57:28.000Z</time></trkpt>
        <trkpt lat="28.144424" lon="105.744667"><ele>1296.3291</ele><time>2026-08-15T16:57:30.000Z</time></trkpt>
        <trkpt lat="28.144426" lon="105.744687"><ele>1297.0044</ele><time>2026-08-15T16:57:32.000Z</time></trkpt>
        <trkpt lat="28.144426" lon="105.744705"><ele>1296.9205</ele><time>2026-08-15T16:57:34.000Z</time></trkpt>
        <trkpt lat="28.144426" lon="105.744726"><ele>1296.9016</ele><time>2026-08-15T16:57:36.000Z</time></trkpt>
        <trkpt lat="28.144425" lon="105.744741"><ele>1297.2303</ele><time>2026-08-15T16:57:38.000Z</time></trkpt>
        <trkpt lat="28.144426" lon="105.744757"><ele>1296.6654</ele><time>2026-08-15T16:57:40.000Z</time></trkpt>
        <trkpt lat="28.144431" lon="105.744773"><ele>1297.3889</ele><time>2026-08-15T16:57:42.000Z</time></trkpt>
        <trkpt lat="28.144436" lon="105.744787"><ele>1297.741</ele><time>2026-08-15T16:57:44.000Z</time></trkpt>
        <trkpt lat="28.144443" lon="105.744803"><ele>1297.9888</ele><time>2026-08-15T16:57:46.000Z</time></trkpt>
        <trkpt lat="28.144449" lon="105.744819"><ele>1298.2747</ele><time>2026-08-15T16:57:48.000Z</time></trkpt>
        <trkpt lat="28.144457" lon="105.744841"><ele>1298.6908</ele><time>2026-08-15T16:57:50.000Z</time></trkpt>
        <trkpt lat="28.144465" lon="105.744859"><ele>1299.4879</ele><time>2026-08-15T16:57:52.000Z</time></trkpt>
        <trkpt lat="28.144475" lon="105.744876"><ele>1299.2068</ele><time>2026-08-15T16:57:54.000Z</time></trkpt>
        <trkpt lat="28.144485" lon="105.744891"><ele>1299.9652</ele><time>2026-08-15T16:57:56.000Z</time></trkpt>
        <trkpt lat="28.144495" lon="105.744905"><ele>1299.9762</ele><time>2026-08-15T16:57:58.000Z</time></trkpt>
        <trkpt lat="28.144504" lon="105.744917"><ele>1300.0839</ele><time>2026-08-15T16:58:00.000Z</time></trkpt>
        <trkpt lat="28.144513" lon="105.744925"><ele>1299.835</ele><time>2026-08-15T16:58:02.000Z</time></trkpt>
        <trkpt lat="28.144525" lon="105.744934"><ele>1300.9867</ele><time>2026-08-15T16:58:04.000Z</time></trkpt>
        <trkpt lat="28.144535" lon="105.744945"><ele>1301.0284</ele><time>2026-08-15T16:58:06.000Z</time></trkpt>
        <trkpt lat="28.144543" lon="105.744957"><ele>1300.5614</ele><time>2026-08-15T16:58:08.000Z</time></trkpt>
        <trkpt lat="28.144552" lon="105.744973"><ele>1300.7329</ele><time>2026-08-15T16:58:10.000Z</time></trkpt>
        <trkpt lat="28.14456" lon="105.744992"><ele>1300.3175</ele><time>2026-08-15T16:58:12.000Z</time></trkpt>
        <trkpt lat="28.144565" lon="105.745011"><ele>1300.5016</ele><time>2026-08-15T16:58:14.000Z</time></trkpt>
        <trkpt lat="28.14457" lon="105.745033"><ele>1301.2048</ele><time>2026-08-15T16:58:16.000Z</time></trkpt>
        <trkpt lat="28.144576" lon="105.745053"><ele>1302.416</ele><time>2026-08-15T16:58:18.000Z</time></trkpt>
        <trkpt lat="28.144585" lon="105.745073"><ele>1303.175</ele><time>2026-08-15T16:58:20.000Z</time></trkpt>
        <trkpt lat="28.144598" lon="105.745094"><ele>1303.679</ele><time>2026-08-15T16:58:22.000Z</time></trkpt>
        <trkpt lat="28.144612" lon="105.745113"><ele>1304.1758</ele><time>2026-08-15T16:58:24.000Z</time></trkpt>
        <trkpt lat="28.144626" lon="105.745136"><ele>1304.4933</ele><time>2026-08-15T16:58:26.000Z</time></trkpt>
        <trkpt lat="28.144637" lon="105.74516"><ele>1304.8041</ele><time>2026-08-15T16:58:28.000Z</time></trkpt>
        <trkpt lat="28.144648" lon="105.745182"><ele>1306.0369</ele><time>2026-08-15T16:58:30.000Z</time></trkpt>
        <trkpt lat="28.14466" lon="105.745205"><ele>1306.8369</ele><time>2026-08-15T16:58:32.000Z</time></trkpt>
        <trkpt lat="28.14467" lon="105.745224"><ele>1307.3973</ele><time>2026-08-15T16:58:34.000Z</time></trkpt>
        <trkpt lat="28.14468" lon="105.745239"><ele>1306.7887</ele><time>2026-08-15T16:58:36.000Z</time></trkpt>
        <trkpt lat="28.144692" lon="105.745255"><ele>1307.5446</ele><time>2026-08-15T16:58:38.000Z</time></trkpt>
        <trkpt lat="28.144702" lon="105.745272"><ele>1307.292</ele><time>2026-08-15T16:58:40.000Z</time></trkpt>
        <trkpt lat="28.144713" lon="105.74529"><ele>1307.7556</ele><time>2026-08-15T16:58:42.000Z</time></trkpt>
        <trkpt lat="28.144721" lon="105.745306"><ele>1308.0703</ele><time>2026-08-15T16:58:44.000Z</time></trkpt>
        <trkpt lat="28.144729" lon="105.745325"><ele>1308.2281</ele><time>2026-08-15T16:58:46.000Z</time></trkpt>
        <trkpt lat="28.144734" lon="105.745346"><ele>1308.4316</ele><time>2026-08-15T16:58:48.000Z</time></trkpt>
        <trkpt lat="28.144741" lon="105.745368"><ele>1308.9143</ele><time>2026-08-15T16:58:50.000Z</time></trkpt>
        <trkpt lat="28.144747" lon="105.745385"><ele>1309.1589</ele><time>2026-08-15T16:58:52.000Z</time></trkpt>
        <trkpt lat="28.144757" lon="105.745401"><ele>1309.1794</ele><time>2026-08-15T16:58:54.000Z</time></trkpt>
        <trkpt lat="28.144769" lon="105.745417"><ele>1308.8148</ele><time>2026-08-15T16:58:56.000Z</time></trkpt>
        <trkpt lat="28.144779" lon="105.745433"><ele>1309.95</ele><time>2026-08-15T16:58:58.000Z</time></trkpt>
        <trkpt lat="28.144789" lon="105.745449"><ele>1310.3027</ele><time>2026-08-15T16:59:00.000Z</time></trkpt>
        <trkpt lat="28.144795" lon="105.745469"><ele>1310.7198</ele><time>2026-08-15T16:59:02.000Z</time></trkpt>
        <trkpt lat="28.144798" lon="105.745488"><ele>1311.0614</ele><time>2026-08-15T16:59:04.000Z</time></trkpt>
        <trkpt lat="28.144801" lon="105.745514"><ele>1311.6353</ele><time>2026-08-15T16:59:06.000Z</time></trkpt>
        <trkpt lat="28.144803" lon="105.745542"><ele>1313.0571</ele><time>2026-08-15T16:59:08.000Z</time></trkpt>
        <trkpt lat="28.144806" lon="105.745567"><ele>1313.594</ele><time>2026-08-15T16:59:10.000Z</time></trkpt>
        <trkpt lat="28.144808" lon="105.745592"><ele>1313.9952</ele><time>2026-08-15T16:59:12.000Z</time></trkpt>
        <trkpt lat="28.144811" lon="105.745615"><ele>1314.4075</ele><time>2026-08-15T16:59:14.000Z</time></trkpt>
        <trkpt lat="28.144813" lon="105.745635"><ele>1315.5088</ele><time>2026-08-15T16:59:16.000Z</time></trkpt>
        <trkpt lat="28.144816" lon="105.745653"><ele>1315.6978</ele><time>2026-08-15T16:59:18.000Z</time></trkpt>
        <trkpt lat="28.144817" lon="105.745672"><ele>1315.9753</ele><time>2026-08-15T16:59:20.000Z</time></trkpt>
        <trkpt lat="28.144817" lon="105.74569"><ele>1316.0472</ele><time>2026-08-15T16:59:22.000Z</time></trkpt>
        <trkpt lat="28.144817" lon="105.745704"><ele>1315.8071</ele><time>2026-08-15T16:59:24.000Z</time></trkpt>
        <trkpt lat="28.144817" lon="105.74572"><ele>1315.9183</ele><time>2026-08-15T16:59:26.000Z</time></trkpt>
        <trkpt lat="28.144817" lon="105.745733"><ele>1316.4558</ele><time>2026-08-15T16:59:28.000Z</time></trkpt>
        <trkpt lat="28.14482" lon="105.74575"><ele>1317.6885</ele><time>2026-08-15T16:59:30.000Z</time></trkpt>
        <trkpt lat="28.144824" lon="105.745765"><ele>1317.7329</ele><time>2026-08-15T16:59:32.000Z</time></trkpt>
        <trkpt lat="28.144826" lon="105.745783"><ele>1317.5345</ele><time>2026-08-15T16:59:34.000Z</time></trkpt>
        <trkpt lat="28.144827" lon="105.745798"><ele>1317.3785</ele><time>2026-08-15T16:59:36.000Z</time></trkpt>
        <trkpt lat="28.144829" lon="105.745814"><ele>1317.2865</ele><time>2026-08-15T16:59:38.000Z</time></trkpt>
        <trkpt lat="28.144832" lon="105.745831"><ele>1316.9651</ele><time>2026-08-15T16:59:40.000Z</time></trkpt>
        <trkpt lat="28.144834" lon="105.745851"><ele>1316.953</ele><time>2026-08-15T16:59:42.000Z</time></trkpt>
        <trkpt lat="28.144835" lon="105.745871"><ele>1317.3401</ele><time>2026-08-15T16:59:44.000Z</time></trkpt>
        <trkpt lat="28.144834" lon="105.745894"><ele>1317.5491</ele><time>2026-08-15T16:59:46.000Z</time></trkpt>
        <trkpt lat="28.144832" lon="105.745922"><ele>1318.0688</ele><time>2026-08-15T16:59:48.000Z</time></trkpt>
        <trkpt lat="28.144829" lon="105.745952"><ele>1319.52</ele><time>2026-08-15T16:59:50.000Z</time></trkpt>
        <trkpt lat="28.144829" lon="105.745978"><ele>1319.7421</ele><time>2026-08-15T16:59:52.000Z</time></trkpt>
        <trkpt lat="28.14483" lon="105.746001"><ele>1319.8428</ele><time>2026-08-15T16:59:54.000Z</time></trkpt>
        <trkpt lat="28.144834" lon="105.746017"><ele>1320.5852</ele><time>2026-08-15T16:59:56.000Z</time></trkpt>
        <trkpt lat="28.144838" lon="105.74603"><ele>1320.1729</ele><time>2026-08-15T16:59:58.000Z</time></trkpt>
        <trkpt lat="28.144844" lon="105.746041"><ele>1320.4281</ele><time>2026-08-15T17:00:00.000Z</time></trkpt>
        <trkpt lat="28.144851" lon="105.746049"><ele>1321.0243</ele><time>2026-08-15T17:00:02.000Z</time></trkpt>
        <trkpt lat="28.14486" lon="105.746053"><ele>1321.5776</ele><time>2026-08-15T17:00:04.000Z</time></trkpt>
        <trkpt lat="28.144864" lon="105.746063"><ele>1321.2648</ele><time>2026-08-15T17:00:08.000Z</time></trkpt>
        <trkpt lat="28.144874" lon="105.746089"><ele>1320.4067</ele><time>2026-08-15T17:00:14.000Z</time></trkpt>
        <trkpt lat="28.144874" lon="105.746089"><ele>1320.9473</ele><time>2026-08-15T17:00:16.000Z</time></trkpt>
        <trkpt lat="28.144881" lon="105.746123"><ele>1321.272</ele><time>2026-08-15T17:00:18.000Z</time></trkpt>
        <trkpt lat="28.14488" lon="105.746125"><ele>1321.8213</ele><time>2026-08-15T17:00:20.000Z</time></trkpt>
        <trkpt lat="28.144879" lon="105.746129"><ele>1322.246</ele><time>2026-08-15T17:00:22.000Z</time></trkpt>
        <trkpt lat="28.144867" lon="105.74617"><ele>1323.3962</ele><time>2026-08-15T17:00:26.000Z</time></trkpt>
        <trkpt lat="28.144865" lon="105.746191"><ele>1323.4047</ele><time>2026-08-15T17:00:28.000Z</time></trkpt>
        <trkpt lat="28.144867" lon="105.746213"><ele>1323.8358</ele><time>2026-08-15T17:00:30.000Z</time></trkpt>
        <trkpt lat="28.144871" lon="105.746231"><ele>1323.8126</ele><time>2026-08-15T17:00:32.000Z</time></trkpt>
        <trkpt lat="28.144876" lon="105.746246"><ele>1324.5077</ele><time>2026-08-15T17:00:34.000Z</time></trkpt>
        <trkpt lat="28.14488" lon="105.746257"><ele>1324.0549</ele><time>2026-08-15T17:00:36.000Z</time></trkpt>
        <trkpt lat="28.144885" lon="105.746269"><ele>1323.7966</ele><time>2026-08-15T17:00:38.000Z</time></trkpt>
        <trkpt lat="28.144891" lon="105.74628"><ele>1323.8529</ele><time>2026-08-15T17:00:40.000Z</time></trkpt>
        <trkpt lat="28.144896" lon="105.746292"><ele>1323.6603</ele><time>2026-08-15T17:00:42.000Z</time></trkpt>
        <trkpt lat="28.1449" lon="105.746305"><ele>1324.4216</ele><time>2026-08-15T17:00:44.000Z</time></trkpt>
        <trkpt lat="28.144903" lon="105.746319"><ele>1324.0673</ele><time>2026-08-15T17:00:46.000Z</time></trkpt>
        <trkpt lat="28.14491" lon="105.746335"><ele>1324.566</ele><time>2026-08-15T17:00:48.000Z</time></trkpt>
        <trkpt lat="28.144915" lon="105.746348"><ele>1325.3594</ele><time>2026-08-15T17:00:50.000Z</time></trkpt>
        <trkpt lat="28.144919" lon="105.746359"><ele>1325.4896</ele><time>2026-08-15T17:00:52.000Z</time></trkpt>
        <trkpt lat="28.144923" lon="105.746376"><ele>1326.3231</ele><time>2026-08-15T17:00:54.000Z</time></trkpt>
        <trkpt lat="28.144926" lon="105.746396"><ele>1327.2161</ele><time>2026-08-15T17:00:56.000Z</time></trkpt>
        <trkpt lat="28.144929" lon="105.746416"><ele>1327.2695</ele><time>2026-08-15T17:00:58.000Z</time></trkpt>
        <trkpt lat="28.144932" lon="105.746434"><ele>1326.7258</ele><time>2026-08-15T17:01:00.000Z</time></trkpt>
        <trkpt lat="28.144935" lon="105.746448"><ele>1327.2563</ele><time>2026-08-15T17:01:02.000Z</time></trkpt>
        <trkpt lat="28.144939" lon="105.746456"><ele>1327.6338</ele><time>2026-08-15T17:01:04.000Z</time></trkpt>
        <trkpt lat="28.144943" lon="105.746465"><ele>1327.691</ele><time>2026-08-15T17:01:06.000Z</time></trkpt>
        <trkpt lat="28.144951" lon="105.746476"><ele>1328.8539</ele><time>2026-08-15T17:01:08.000Z</time></trkpt>
        <trkpt lat="28.144959" lon="105.746489"><ele>1329.7427</ele><time>2026-08-15T17:01:10.000Z</time></trkpt>
        <trkpt lat="28.144965" lon="105.7465"><ele>1330.3545</ele><time>2026-08-15T17:01:12.000Z</time></trkpt>
        <trkpt lat="28.144971" lon="105.746514"><ele>1329.5282</ele><time>2026-08-15T17:01:14.000Z</time></trkpt>
        <trkpt lat="28.144975" lon="105.74653"><ele>1330.2777</ele><time>2026-08-15T17:01:16.000Z</time></trkpt>
        <trkpt lat="28.144977" lon="105.746547"><ele>1330.1147</ele><time>2026-08-15T17:01:18.000Z</time></trkpt>
        <trkpt lat="28.144979" lon="105.746566"><ele>1330.839</ele><time>2026-08-15T17:01:20.000Z</time></trkpt>
        <trkpt lat="28.14498" lon="105.746583"><ele>1331.1553</ele><time>2026-08-15T17:01:22.000Z</time></trkpt>
        <trkpt lat="28.144983" lon="105.7466"><ele>1331.7524</ele><time>2026-08-15T17:01:24.000Z</time></trkpt>
        <trkpt lat="28.144989" lon="105.746614"><ele>1332.068</ele><time>2026-08-15T17:01:26.000Z</time></trkpt>
        <trkpt lat="28.144998" lon="105.746626"><ele>1332.0704</ele><time>2026-08-15T17:01:28.000Z</time></trkpt>
        <trkpt lat="28.145007" lon="105.746636"><ele>1332.2976</ele><time>2026-08-15T17:01:30.000Z</time></trkpt>
        <trkpt lat="28.145013" lon="105.746645"><ele>1332.804</ele><time>2026-08-15T17:01:32.000Z</time></trkpt>
        <trkpt lat="28.145018" lon="105.746658"><ele>1333.4198</ele><time>2026-08-15T17:01:34.000Z</time></trkpt>
        <trkpt lat="28.145021" lon="105.746672"><ele>1333.1477</ele><time>2026-08-15T17:01:36.000Z</time></trkpt>
        <trkpt lat="28.145024" lon="105.746687"><ele>1333.934</ele><time>2026-08-15T17:01:38.000Z</time></trkpt>
        <trkpt lat="28.145029" lon="105.746703"><ele>1334.5094</ele><time>2026-08-15T17:01:40.000Z</time></trkpt>
        <trkpt lat="28.145033" lon="105.746718"><ele>1335.3909</ele><time>2026-08-15T17:01:42.000Z</time></trkpt>
        <trkpt lat="28.145036" lon="105.746729"><ele>1336.0676</ele><time>2026-08-15T17:01:44.000Z</time></trkpt>
        <trkpt lat="28.145036" lon="105.746737"><ele>1335.7593</ele><time>2026-08-15T17:01:46.000Z</time></trkpt>
        <trkpt lat="28.145035" lon="105.746758"><ele>1335.9236</ele><time>2026-08-15T17:01:50.000Z</time></trkpt>
        <trkpt lat="28.145033" lon="105.746763"><ele>1336.2463</ele><time>2026-08-15T17:01:52.000Z</time></trkpt>
        <trkpt lat="28.14503" lon="105.74678"><ele>1336.2612</ele><time>2026-08-15T17:01:54.000Z</time></trkpt>
        <trkpt lat="28.145031" lon="105.746791"><ele>1337.3616</ele><time>2026-08-15T17:02:00.000Z</time></trkpt>
        <trkpt lat="28.145035" lon="105.746803"><ele>1337.0237</ele><time>2026-08-15T17:02:02.000Z</time></trkpt>
        <trkpt lat="28.14504" lon="105.746822"><ele>1337.1292</ele><time>2026-08-15T17:02:04.000Z</time></trkpt>
        <trkpt lat="28.145044" lon="105.746842"><ele>1336.8896</ele><time>2026-08-15T17:02:06.000Z</time></trkpt>
        <trkpt lat="28.145047" lon="105.74686"><ele>1337.604</ele><time>2026-08-15T17:02:08.000Z</time></trkpt>
        <trkpt lat="28.14505" lon="105.746876"><ele>1337.6937</ele><time>2026-08-15T17:02:10.000Z</time></trkpt>
        <trkpt lat="28.145053" lon="105.746888"><ele>1338.2344</ele><time>2026-08-15T17:02:12.000Z</time></trkpt>
        <trkpt lat="28.145057" lon="105.7469"><ele>1337.3046</ele><time>2026-08-15T17:02:14.000Z</time></trkpt>
        <trkpt lat="28.145061" lon="105.746918"><ele>1338.5219</ele><time>2026-08-15T17:02:16.000Z</time></trkpt>
        <trkpt lat="28.145063" lon="105.746934"><ele>1338.5491</ele><time>2026-08-15T17:02:18.000Z</time></trkpt>
        <trkpt lat="28.145066" lon="105.746947"><ele>1338.9448</ele><time>2026-08-15T17:02:20.000Z</time></trkpt>
        <trkpt lat="28.145068" lon="105.746959"><ele>1339.9183</ele><time>2026-08-15T17:02:22.000Z</time></trkpt>
        <trkpt lat="28.14507" lon="105.746971"><ele>1341.0797</ele><time>2026-08-15T17:02:24.000Z</time></trkpt>
        <trkpt lat="28.145076" lon="105.74698"><ele>1341.765</ele><time>2026-08-15T17:02:26.000Z</time></trkpt>
        <trkpt lat="28.145083" lon="105.746988"><ele>1341.9872</ele><time>2026-08-15T17:02:36.000Z</time></trkpt>
        <trkpt lat="28.145093" lon="105.747003"><ele>1342.4296</ele><time>2026-08-15T17:02:40.000Z</time></trkpt>
        <trkpt lat="28.145102" lon="105.747016"><ele>1342.8506</ele><time>2026-08-15T17:02:42.000Z</time></trkpt>
        <trkpt lat="28.145102" lon="105.747017"><ele>1342.1208</ele><time>2026-08-15T17:02:44.000Z</time></trkpt>
        <trkpt lat="28.14513" lon="105.747073"><ele>1342.7988</ele><time>2026-08-15T17:02:53.000Z</time></trkpt>
        <trkpt lat="28.145139" lon="105.747093"><ele>1343.1598</ele><time>2026-08-15T17:02:55.000Z</time></trkpt>
        <trkpt lat="28.145146" lon="105.747108"><ele>1344.0056</ele><time>2026-08-15T17:02:57.000Z</time></trkpt>
        <trkpt lat="28.145152" lon="105.747119"><ele>1344.1422</ele><time>2026-08-15T17:02:59.000Z</time></trkpt>
        <trkpt lat="28.145157" lon="105.747133"><ele>1344.3524</ele><time>2026-08-15T17:03:01.000Z</time></trkpt>
        <trkpt lat="28.145161" lon="105.747144"><ele>1345.2885</ele><time>2026-08-15T17:03:03.000Z</time></trkpt>
        <trkpt lat="28.145165" lon="105.747152"><ele>1345.1818</ele><time>2026-08-15T17:03:05.000Z</time></trkpt>
        <trkpt lat="28.145177" lon="105.747158"><ele>1345.7621</ele><time>2026-08-15T17:03:09.000Z</time></trkpt>
        <trkpt lat="28.145191" lon="105.747167"><ele>1346.1068</ele><time>2026-08-15T17:03:11.000Z</time></trkpt>
        <trkpt lat="28.145191" lon="105.747168"><ele>1346.4542</ele><time>2026-08-15T17:03:15.000Z</time></trkpt>
        <trkpt lat="28.145191" lon="105.747209"><ele>1346.8992</ele><time>2026-08-15T17:03:17.000Z</time></trkpt>
        <trkpt lat="28.145191" lon="105.747212"><ele>1346.1096</ele><time>2026-08-15T17:03:19.000Z</time></trkpt>
        <trkpt lat="28.145191" lon="105.747213"><ele>1346.5759</ele><time>2026-08-15T17:03:21.000Z</time></trkpt>
        <trkpt lat="28.145211" lon="105.747242"><ele>1346.1313</ele><time>2026-08-15T17:03:31.000Z</time></trkpt>
        <trkpt lat="28.145218" lon="105.747253"><ele>1345.8267</ele><time>2026-08-15T17:03:33.000Z</time></trkpt>
        <trkpt lat="28.145218" lon="105.747254"><ele>1346.2823</ele><time>2026-08-15T17:03:35.000Z</time></trkpt>
        <trkpt lat="28.145224" lon="105.747273"><ele>1347.924</ele><time>2026-08-15T17:03:43.000Z</time></trkpt>
        <trkpt lat="28.145229" lon="105.747285"><ele>1349.3549</ele><time>2026-08-15T17:03:47.000Z</time></trkpt>
        <trkpt lat="28.145231" lon="105.747288"><ele>1350.39</ele><time>2026-08-15T17:03:49.000Z</time></trkpt>
        <trkpt lat="28.145238" lon="105.747308"><ele>1351.4557</ele><time>2026-08-15T17:03:55.000Z</time></trkpt>
        <trkpt lat="28.14524" lon="105.747321"><ele>1350.7985</ele><time>2026-08-15T17:03:59.000Z</time></trkpt>
        <trkpt lat="28.145243" lon="105.747336"><ele>1350.2875</ele><time>2026-08-15T17:04:01.000Z</time></trkpt>
        <trkpt lat="28.145245" lon="105.747343"><ele>1350.8143</ele><time>2026-08-15T17:04:05.000Z</time></trkpt>
        <trkpt lat="28.145251" lon="105.747358"><ele>1351.2472</ele><time>2026-08-15T17:04:07.000Z</time></trkpt>
        <trkpt lat="28.14526" lon="105.747378"><ele>1351.5745</ele><time>2026-08-15T17:04:09.000Z</time></trkpt>
        <trkpt lat="28.145269" lon="105.747399"><ele>1351.3511</ele><time>2026-08-15T17:04:11.000Z</time></trkpt>
        <trkpt lat="28.145277" lon="105.747419"><ele>1351.0266</ele><time>2026-08-15T17:04:13.000Z</time></trkpt>
        <trkpt lat="28.145286" lon="105.747438"><ele>1350.4819</ele><time>2026-08-15T17:04:15.000Z</time></trkpt>
        <trkpt lat="28.145296" lon="105.747458"><ele>1350.71</ele><time>2026-08-15T17:04:17.000Z</time></trkpt>
        <trkpt lat="28.145306" lon="105.747477"><ele>1350.7812</ele><time>2026-08-15T17:04:19.000Z</time></trkpt>
        <trkpt lat="28.145316" lon="105.747495"><ele>1351.0791</ele><time>2026-08-15T17:04:21.000Z</time></trkpt>
        <trkpt lat="28.145325" lon="105.74751"><ele>1351.1696</ele><time>2026-08-15T17:04:23.000Z</time></trkpt>
        <trkpt lat="28.145332" lon="105.747521"><ele>1351.1185</ele><time>2026-08-15T17:04:25.000Z</time></trkpt>
        <trkpt lat="28.145342" lon="105.747528"><ele>1350.9628</ele><time>2026-08-15T17:04:27.000Z</time></trkpt>
        <trkpt lat="28.145354" lon="105.747533"><ele>1350.932</ele><time>2026-08-15T17:04:29.000Z</time></trkpt>
        <trkpt lat="28.14537" lon="105.747538"><ele>1351.0413</ele><time>2026-08-15T17:04:31.000Z</time></trkpt>
        <trkpt lat="28.145382" lon="105.747544"><ele>1350.7803</ele><time>2026-08-15T17:04:33.000Z</time></trkpt>
        <trkpt lat="28.145391" lon="105.747551"><ele>1351.8834</ele><time>2026-08-15T17:04:35.000Z</time></trkpt>
        <trkpt lat="28.1454" lon="105.747561"><ele>1352.656</ele><time>2026-08-15T17:04:37.000Z</time></trkpt>
        <trkpt lat="28.145407" lon="105.747569"><ele>1352.1654</ele><time>2026-08-15T17:04:39.000Z</time></trkpt>
        <trkpt lat="28.145414" lon="105.747576"><ele>1350.9945</ele><time>2026-08-15T17:04:41.000Z</time></trkpt>
        <trkpt lat="28.145422" lon="105.747584"><ele>1350.5704</ele><time>2026-08-15T17:04:43.000Z</time></trkpt>
        <trkpt lat="28.145427" lon="105.747596"><ele>1351.379</ele><time>2026-08-15T17:04:45.000Z</time></trkpt>
        <trkpt lat="28.145431" lon="105.74761"><ele>1351.3374</ele><time>2026-08-15T17:04:47.000Z</time></trkpt>
        <trkpt lat="28.145435" lon="105.747626"><ele>1351.0502</ele><time>2026-08-15T17:04:49.000Z</time></trkpt>
        <trkpt lat="28.145439" lon="105.747637"><ele>1352.2938</ele><time>2026-08-15T17:04:51.000Z</time></trkpt>
        <trkpt lat="28.145442" lon="105.747648"><ele>1353.4391</ele><time>2026-08-15T17:04:55.000Z</time></trkpt>
        <trkpt lat="28.145451" lon="105.747677"><ele>1355.1741</ele><time>2026-08-15T17:04:59.000Z</time></trkpt>
        <trkpt lat="28.145451" lon="105.747677"><ele>1354.9813</ele><time>2026-08-15T17:05:01.000Z</time></trkpt>
        <trkpt lat="28.145455" lon="105.747684"><ele>1355.2725</ele><time>2026-08-15T17:05:05.000Z</time></trkpt>
        <trkpt lat="28.145463" lon="105.747713"><ele>1356.6384</ele><time>2026-08-15T17:05:09.000Z</time></trkpt>
        <trkpt lat="28.145465" lon="105.747729"><ele>1356.9802</ele><time>2026-08-15T17:05:11.000Z</time></trkpt>
        <trkpt lat="28.145463" lon="105.747748"><ele>1357.9187</ele><time>2026-08-15T17:05:13.000Z</time></trkpt>
        <trkpt lat="28.145463" lon="105.747764"><ele>1357.9912</ele><time>2026-08-15T17:05:15.000Z</time></trkpt>
        <trkpt lat="28.145467" lon="105.747767"><ele>1357.3331</ele><time>2026-08-15T17:05:17.000Z</time></trkpt>
        <trkpt lat="28.145483" lon="105.747769"><ele>1355.5051</ele><time>2026-08-15T17:05:21.000Z</time></trkpt>
        <trkpt lat="28.145497" lon="105.74777"><ele>1354.7766</ele><time>2026-08-15T17:05:23.000Z</time></trkpt>
        <trkpt lat="28.145498" lon="105.747769"><ele>1355.4265</ele><time>2026-08-15T17:05:25.000Z</time></trkpt>
        <trkpt lat="28.145473" lon="105.747806"><ele>1359.2201</ele><time>2026-08-15T17:05:39.000Z</time></trkpt>
        <trkpt lat="28.14547" lon="105.747814"><ele>1359.2522</ele><time>2026-08-15T17:05:41.000Z</time></trkpt>
        <trkpt lat="28.145471" lon="105.74782"><ele>1359.4467</ele><time>2026-08-15T17:05:43.000Z</time></trkpt>
        <trkpt lat="28.145467" lon="105.747847"><ele>1360.47</ele><time>2026-08-15T17:05:53.000Z</time></trkpt>
        <trkpt lat="28.145464" lon="105.747864"><ele>1360.4471</ele><time>2026-08-15T17:05:55.000Z</time></trkpt>
        <trkpt lat="28.145463" lon="105.747865"><ele>1360.4529</ele><time>2026-08-15T17:05:57.000Z</time></trkpt>
        <trkpt lat="28.145454" lon="105.747882"><ele>1359.0648</ele><time>2026-08-15T17:06:03.000Z</time></trkpt>
        <trkpt lat="28.14545" lon="105.747896"><ele>1358.685</ele><time>2026-08-15T17:06:05.000Z</time></trkpt>
        <trkpt lat="28.145451" lon="105.747908"><ele>1359.877</ele><time>2026-08-15T17:06:07.000Z</time></trkpt>
        <trkpt lat="28.145453" lon="105.74792"><ele>1360.1283</ele><time>2026-08-15T17:06:09.000Z</time></trkpt>
        <trkpt lat="28.14546" lon="105.747934"><ele>1360.7946</ele><time>2026-08-15T17:06:11.000Z</time></trkpt>
        <trkpt lat="28.145471" lon="105.747946"><ele>1360.2473</ele><time>2026-08-15T17:06:13.000Z</time></trkpt>
        <trkpt lat="28.145481" lon="105.747954"><ele>1360.2238</ele><time>2026-08-15T17:06:15.000Z</time></trkpt>
        <trkpt lat="28.145491" lon="105.747963"><ele>1359.9908</ele><time>2026-08-15T17:06:17.000Z</time></trkpt>
        <trkpt lat="28.145501" lon="105.747973"><ele>1360.4423</ele><time>2026-08-15T17:06:19.000Z</time></trkpt>
        <trkpt lat="28.145505" lon="105.747981"><ele>1359.7545</ele><time>2026-08-15T17:06:21.000Z</time></trkpt>
        <trkpt lat="28.145511" lon="105.747998"><ele>1359.5469</ele><time>2026-08-15T17:06:25.000Z</time></trkpt>
        <trkpt lat="28.145514" lon="105.748009"><ele>1361.3383</ele><time>2026-08-15T17:06:31.000Z</time></trkpt>
        <trkpt lat="28.14552" lon="105.748029"><ele>1362.2147</ele><time>2026-08-15T17:06:33.000Z</time></trkpt>
        <trkpt lat="28.145521" lon="105.74803"><ele>1362.2147</ele><time>2026-08-15T17:06:35.000Z</time></trkpt>
        <trkpt lat="28.145528" lon="105.748042"><ele>1363.9087</ele><time>2026-08-15T17:06:43.000Z</time></trkpt>
        <trkpt lat="28.145541" lon="105.74806"><ele>1365.805</ele><time>2026-08-15T17:06:51.000Z</time></trkpt>
        <trkpt lat="28.145541" lon="105.748062"><ele>1364.7673</ele><time>2026-08-15T17:06:53.000Z</time></trkpt>
        <trkpt lat="28.145552" lon="105.748071"><ele>1364.7692</ele><time>2026-08-15T17:06:55.000Z</time></trkpt>
        <trkpt lat="28.145568" lon="105.748087"><ele>1364.261</ele><time>2026-08-15T17:07:05.000Z</time></trkpt>
        <trkpt lat="28.145584" lon="105.748103"><ele>1364.4624</ele><time>2026-08-15T17:07:07.000Z</time></trkpt>
        <trkpt lat="28.145585" lon="105.748104"><ele>1364.8632</ele><time>2026-08-15T17:07:09.000Z</time></trkpt>
        <trkpt lat="28.145596" lon="105.74811"><ele>1366.805</ele><time>2026-08-15T17:07:13.000Z</time></trkpt>
        <trkpt lat="28.145622" lon="105.748128"><ele>1367.596</ele><time>2026-08-15T17:07:17.000Z</time></trkpt>
        <trkpt lat="28.145634" lon="105.748137"><ele>1368.6718</ele><time>2026-08-15T17:07:19.000Z</time></trkpt>
        <trkpt lat="28.145644" lon="105.748145"><ele>1369.2048</ele><time>2026-08-15T17:07:21.000Z</time></trkpt>
        <trkpt lat="28.145653" lon="105.748149"><ele>1368.8668</ele><time>2026-08-15T17:07:23.000Z</time></trkpt>
        <trkpt lat="28.145665" lon="105.748149"><ele>1367.9344</ele><time>2026-08-15T17:07:27.000Z</time></trkpt>
        <trkpt lat="28.145676" lon="105.748147"><ele>1368.1958</ele><time>2026-08-15T17:07:31.000Z</time></trkpt>
        <trkpt lat="28.145682" lon="105.748146"><ele>1367.5944</ele><time>2026-08-15T17:07:33.000Z</time></trkpt>
        <trkpt lat="28.145693" lon="105.748151"><ele>1368.8029</ele><time>2026-08-15T17:07:37.000Z</time></trkpt>
        <trkpt lat="28.145707" lon="105.74816"><ele>1369.5111</ele><time>2026-08-15T17:07:41.000Z</time></trkpt>
        <trkpt lat="28.145725" lon="105.748171"><ele>1369.5242</ele><time>2026-08-15T17:07:43.000Z</time></trkpt>
        <trkpt lat="28.145726" lon="105.748172"><ele>1369.852</ele><time>2026-08-15T17:07:45.000Z</time></trkpt>
        <trkpt lat="28.145739" lon="105.748178"><ele>1369.1364</ele><time>2026-08-15T17:07:49.000Z</time></trkpt>
        <trkpt lat="28.145763" lon="105.748188"><ele>1371.8027</ele><time>2026-08-15T17:07:53.000Z</time></trkpt>
        <trkpt lat="28.145771" lon="105.748191"><ele>1371.5676</ele><time>2026-08-15T17:07:55.000Z</time></trkpt>
        <trkpt lat="28.145777" lon="105.748197"><ele>1372.1023</ele><time>2026-08-15T17:07:57.000Z</time></trkpt>
        <trkpt lat="28.145792" lon="105.748213"><ele>1373.0697</ele><time>2026-08-15T17:08:01.000Z</time></trkpt>
        <trkpt lat="28.1458" lon="105.748224"><ele>1374.0138</ele><time>2026-08-15T17:08:03.000Z</time></trkpt>
        <trkpt lat="28.145808" lon="105.748237"><ele>1374.5249</ele><time>2026-08-15T17:08:05.000Z</time></trkpt>
        <trkpt lat="28.145814" lon="105.748251"><ele>1375.7098</ele><time>2026-08-15T17:08:07.000Z</time></trkpt>
        <trkpt lat="28.145819" lon="105.748265"><ele>1376.2616</ele><time>2026-08-15T17:08:09.000Z</time></trkpt>
        <trkpt lat="28.145825" lon="105.748277"><ele>1376.8451</ele><time>2026-08-15T17:08:11.000Z</time></trkpt>
        <trkpt lat="28.145831" lon="105.748289"><ele>1376.5531</ele><time>2026-08-15T17:08:13.000Z</time></trkpt>
        <trkpt lat="28.145837" lon="105.748298"><ele>1376.3616</ele><time>2026-08-15T17:08:15.000Z</time></trkpt>
        <trkpt lat="28.145844" lon="105.748307"><ele>1377.0602</ele><time>2026-08-15T17:08:17.000Z</time></trkpt>
        <trkpt lat="28.145854" lon="105.74832"><ele>1377.3195</ele><time>2026-08-15T17:08:21.000Z</time></trkpt>
        <trkpt lat="28.145859" lon="105.748329"><ele>1377.333</ele><time>2026-08-15T17:08:23.000Z</time></trkpt>
        <trkpt lat="28.145866" lon="105.748341"><ele>1377.6587</ele><time>2026-08-15T17:08:25.000Z</time></trkpt>
        <trkpt lat="28.145871" lon="105.748353"><ele>1378.5358</ele><time>2026-08-15T17:08:27.000Z</time></trkpt>
        <trkpt lat="28.145875" lon="105.748365"><ele>1378.7814</ele><time>2026-08-15T17:08:29.000Z</time></trkpt>
        <trkpt lat="28.145877" lon="105.748373"><ele>1379.1942</ele><time>2026-08-15T17:08:31.000Z</time></trkpt>
        <trkpt lat="28.145882" lon="105.748392"><ele>1379.4506</ele><time>2026-08-15T17:08:35.000Z</time></trkpt>
        <trkpt lat="28.145885" lon="105.748403"><ele>1380.0056</ele><time>2026-08-15T17:08:37.000Z</time></trkpt>
        <trkpt lat="28.145888" lon="105.748415"><ele>1380.0549</ele><time>2026-08-15T17:08:39.000Z</time></trkpt>
        <trkpt lat="28.145892" lon="105.748427"><ele>1379.7496</ele><time>2026-08-15T17:08:41.000Z</time></trkpt>
        <trkpt lat="28.145898" lon="105.748432"><ele>1379.9471</ele><time>2026-08-15T17:08:43.000Z</time></trkpt>
        <trkpt lat="28.145908" lon="105.748432"><ele>1380.8586</ele><time>2026-08-15T17:08:47.000Z</time></trkpt>
        <trkpt lat="28.145931" lon="105.748431"><ele>1380.9845</ele><time>2026-08-15T17:08:49.000Z</time></trkpt>
        <trkpt lat="28.145932" lon="105.748431"><ele>1381.2124</ele><time>2026-08-15T17:08:51.000Z</time></trkpt>
        <trkpt lat="28.145948" lon="105.748432"><ele>1382.0964</ele><time>2026-08-15T17:08:55.000Z</time></trkpt>
        <trkpt lat="28.145974" lon="105.748434"><ele>1383.6686</ele><time>2026-08-15T17:08:59.000Z</time></trkpt>
        <trkpt lat="28.145974" lon="105.748434"><ele>1383.7231</ele><time>2026-08-15T17:09:01.000Z</time></trkpt>
        <trkpt lat="28.145977" lon="105.748437"><ele>1383.4641</ele><time>2026-08-15T17:09:03.000Z</time></trkpt>
        <trkpt lat="28.146006" lon="105.748466"><ele>1384.5437</ele><time>2026-08-15T17:09:09.000Z</time></trkpt>
        <trkpt lat="28.146018" lon="105.748477"><ele>1384.6523</ele><time>2026-08-15T17:09:11.000Z</time></trkpt>
        <trkpt lat="28.146029" lon="105.748487"><ele>1384.3523</ele><time>2026-08-15T17:09:13.000Z</time></trkpt>
        <trkpt lat="28.146039" lon="105.748497"><ele>1384.0706</ele><time>2026-08-15T17:09:15.000Z</time></trkpt>
        <trkpt lat="28.146047" lon="105.748509"><ele>1383.944</ele><time>2026-08-15T17:09:17.000Z</time></trkpt>
        <trkpt lat="28.146053" lon="105.748522"><ele>1384.5541</ele><time>2026-08-15T17:09:19.000Z</time></trkpt>
        <trkpt lat="28.146058" lon="105.748532"><ele>1384.4744</ele><time>2026-08-15T17:09:21.000Z</time></trkpt>
        <trkpt lat="28.146061" lon="105.74854"><ele>1384.6018</ele><time>2026-08-15T17:09:23.000Z</time></trkpt>
        <trkpt lat="28.146065" lon="105.748557"><ele>1386.352</ele><time>2026-08-15T17:09:27.000Z</time></trkpt>
        <trkpt lat="28.146067" lon="105.74857"><ele>1385.9326</ele><time>2026-08-15T17:09:31.000Z</time></trkpt>
        <trkpt lat="28.146071" lon="105.748578"><ele>1386.2242</ele><time>2026-08-15T17:09:33.000Z</time></trkpt>
        <trkpt lat="28.146081" lon="105.748593"><ele>1386.3435</ele><time>2026-08-15T17:09:35.000Z</time></trkpt>
        <trkpt lat="28.146089" lon="105.748598"><ele>1386.7944</ele><time>2026-08-15T17:09:41.000Z</time></trkpt>
        <trkpt lat="28.1461" lon="105.748604"><ele>1386.8809</ele><time>2026-08-15T17:09:43.000Z</time></trkpt>
        <trkpt lat="28.146114" lon="105.74861"><ele>1386.5514</ele><time>2026-08-15T17:09:45.000Z</time></trkpt>
        <trkpt lat="28.146127" lon="105.748616"><ele>1386.7292</ele><time>2026-08-15T17:09:47.000Z</time></trkpt>
        <trkpt lat="28.146135" lon="105.748619"><ele>1386.5953</ele><time>2026-08-15T17:09:49.000Z</time></trkpt>
        <trkpt lat="28.146145" lon="105.748621"><ele>1386.7374</ele><time>2026-08-15T17:09:51.000Z</time></trkpt>
        <trkpt lat="28.146163" lon="105.748623"><ele>1389.2772</ele><time>2026-08-15T17:09:55.000Z</time></trkpt>
        <trkpt lat="28.14617" lon="105.748622"><ele>1388.3085</ele><time>2026-08-15T17:09:57.000Z</time></trkpt>
        <trkpt lat="28.146176" lon="105.74862"><ele>1388.7809</ele><time>2026-08-15T17:09:59.000Z</time></trkpt>
        <trkpt lat="28.146195" lon="105.748615"><ele>1390.7192</ele><time>2026-08-15T17:10:15.000Z</time></trkpt>
        <trkpt lat="28.1462" lon="105.748616"><ele>1390.5106</ele><time>2026-08-15T17:10:19.000Z</time></trkpt>
        <trkpt lat="28.146242" lon="105.748621"><ele>1390.8959</ele><time>2026-08-15T17:10:33.000Z</time></trkpt>
        <trkpt lat="28.146259" lon="105.748623"><ele>1391.232</ele><time>2026-08-15T17:10:35.000Z</time></trkpt>
        <trkpt lat="28.14626" lon="105.748623"><ele>1392.3396</ele><time>2026-08-15T17:10:37.000Z</time></trkpt>
        <trkpt lat="28.146279" lon="105.748628"><ele>1392.0125</ele><time>2026-08-15T17:10:43.000Z</time></trkpt>
        <trkpt lat="28.146293" lon="105.748626"><ele>1391.9084</ele><time>2026-08-15T17:10:47.000Z</time></trkpt>
        <trkpt lat="28.146307" lon="105.748623"><ele>1392.1011</ele><time>2026-08-15T17:10:49.000Z</time></trkpt>
        <trkpt lat="28.14631" lon="105.748622"><ele>1391.9999</ele><time>2026-08-15T17:10:53.000Z</time></trkpt>
        <trkpt lat="28.146332" lon="105.748618"><ele>1391.7208</ele><time>2026-08-15T17:10:57.000Z</time></trkpt>
        <trkpt lat="28.14635" lon="105.748616"><ele>1391.221</ele><time>2026-08-15T17:10:59.000Z</time></trkpt>
        <trkpt lat="28.146351" lon="105.748615"><ele>1391.3516</ele><time>2026-08-15T17:11:01.000Z</time></trkpt>
        <trkpt lat="28.146364" lon="105.74861"><ele>1393.184</ele><time>2026-08-15T17:11:07.000Z</time></trkpt>
        <trkpt lat="28.146378" lon="105.748608"><ele>1392.7637</ele><time>2026-08-15T17:11:09.000Z</time></trkpt>
        <trkpt lat="28.14639" lon="105.748609"><ele>1393.2811</ele><time>2026-08-15T17:11:11.000Z</time></trkpt>
        <trkpt lat="28.146402" lon="105.748611"><ele>1394.2745</ele><time>2026-08-15T17:11:13.000Z</time></trkpt>
        <trkpt lat="28.146411" lon="105.748615"><ele>1393.9066</ele><time>2026-08-15T17:11:15.000Z</time></trkpt>
        <trkpt lat="28.146414" lon="105.748622"><ele>1394.2299</ele><time>2026-08-15T17:11:17.000Z</time></trkpt>
        <trkpt lat="28.146419" lon="105.748639"><ele>1393.7198</ele><time>2026-08-15T17:11:21.000Z</time></trkpt>
        <trkpt lat="28.146423" lon="105.748653"><ele>1393.9084</ele><time>2026-08-15T17:11:23.000Z</time></trkpt>
        <trkpt lat="28.146424" lon="105.748658"><ele>1393.5869</ele><time>2026-08-15T17:11:27.000Z</time></trkpt>
        <trkpt lat="28.146429" lon="105.74869"><ele>1394.1835</ele><time>2026-08-15T17:11:31.000Z</time></trkpt>
        <trkpt lat="28.146432" lon="105.748706"><ele>1394.3463</ele><time>2026-08-15T17:11:33.000Z</time></trkpt>
        <trkpt lat="28.146435" lon="105.748718"><ele>1394.994</ele><time>2026-08-15T17:11:35.000Z</time></trkpt>
        <trkpt lat="28.146433" lon="105.748725"><ele>1395.5284</ele><time>2026-08-15T17:11:37.000Z</time></trkpt>
        <trkpt lat="28.146429" lon="105.748747"><ele>1395.5222</ele><time>2026-08-15T17:11:43.000Z</time></trkpt>
        <trkpt lat="28.146428" lon="105.748755"><ele>1395.4246</ele><time>2026-08-15T17:11:45.000Z</time></trkpt>
        <trkpt lat="28.14643" lon="105.748764"><ele>1395.2076</ele><time>2026-08-15T17:11:47.000Z</time></trkpt>
        <trkpt lat="28.146438" lon="105.748785"><ele>1395.5955</ele><time>2026-08-15T17:11:51.000Z</time></trkpt>
        <trkpt lat="28.146444" lon="105.748793"><ele>1395.8289</ele><time>2026-08-15T17:11:53.000Z</time></trkpt>
        <trkpt lat="28.146449" lon="105.748804"><ele>1396.2747</ele><time>2026-08-15T17:11:55.000Z</time></trkpt>
        <trkpt lat="28.146455" lon="105.748822"><ele>1396.9149</ele><time>2026-08-15T17:11:59.000Z</time></trkpt>
        <trkpt lat="28.146457" lon="105.748832"><ele>1398.3042</ele><time>2026-08-15T17:12:01.000Z</time></trkpt>
        <trkpt lat="28.146461" lon="105.748842"><ele>1398.9708</ele><time>2026-08-15T17:12:03.000Z</time></trkpt>
        <trkpt lat="28.14647" lon="105.748853"><ele>1400.1317</ele><time>2026-08-15T17:12:07.000Z</time></trkpt>
        <trkpt lat="28.146477" lon="105.748862"><ele>1401.3575</ele><time>2026-08-15T17:12:13.000Z</time></trkpt>
        <trkpt lat="28.14648" lon="105.748869"><ele>1400.8839</ele><time>2026-08-15T17:12:17.000Z</time></trkpt>
        <trkpt lat="28.146489" lon="105.748885"><ele>1399.3232</ele><time>2026-08-15T17:12:21.000Z</time></trkpt>
        <trkpt lat="28.146499" lon="105.748902"><ele>1399.8832</ele><time>2026-08-15T17:12:23.000Z</time></trkpt>
        <trkpt lat="28.1465" lon="105.748903"><ele>1399.3785</ele><time>2026-08-15T17:12:25.000Z</time></trkpt>
        <trkpt lat="28.146506" lon="105.748913"><ele>1399.6368</ele><time>2026-08-15T17:12:29.000Z</time></trkpt>
        <trkpt lat="28.146518" lon="105.748945"><ele>1399.8937</ele><time>2026-08-15T17:12:33.000Z</time></trkpt>
        <trkpt lat="28.146522" lon="105.748958"><ele>1398.2472</ele><time>2026-08-15T17:12:35.000Z</time></trkpt>
        <trkpt lat="28.146526" lon="105.748966"><ele>1397.1599</ele><time>2026-08-15T17:12:37.000Z</time></trkpt>
        <trkpt lat="28.146532" lon="105.748973"><ele>1398.08</ele><time>2026-08-15T17:12:39.000Z</time></trkpt>
        <trkpt lat="28.146542" lon="105.748989"><ele>1399.0465</ele><time>2026-08-15T17:12:43.000Z</time></trkpt>
        <trkpt lat="28.146545" lon="105.748996"><ele>1399.196</ele><time>2026-08-15T17:12:45.000Z</time></trkpt>
        <trkpt lat="28.146546" lon="105.749004"><ele>1399.9637</ele><time>2026-08-15T17:12:47.000Z</time></trkpt>
        <trkpt lat="28.146558" lon="105.749023"><ele>1401.0447</ele><time>2026-08-15T17:12:53.000Z</time></trkpt>
        <trkpt lat="28.146567" lon="105.749037"><ele>1402.1244</ele><time>2026-08-15T17:12:55.000Z</time></trkpt>
        <trkpt lat="28.146567" lon="105.749037"><ele>1403.0226</ele><time>2026-08-15T17:12:57.000Z</time></trkpt>
        <trkpt lat="28.146552" lon="105.749059"><ele>1403.4553</ele><time>2026-08-15T17:13:05.000Z</time></trkpt>
        <trkpt lat="28.146549" lon="105.749066"><ele>1403.5194</ele><time>2026-08-15T17:13:07.000Z</time></trkpt>
        <trkpt lat="28.14655" lon="105.749068"><ele>1404.0581</ele><time>2026-08-15T17:13:09.000Z</time></trkpt>
        <trkpt lat="28.14656" lon="105.749094"><ele>1404.6334</ele><time>2026-08-15T17:13:15.000Z</time></trkpt>
        <trkpt lat="28.146562" lon="105.749101"><ele>1405.3501</ele><time>2026-08-15T17:13:17.000Z</time></trkpt>
        <trkpt lat="28.146564" lon="105.749115"><ele>1405.222</ele><time>2026-08-15T17:13:19.000Z</time></trkpt>
        <trkpt lat="28.146564" lon="105.74913"><ele>1403.9244</ele><time>2026-08-15T17:13:28.000Z</time></trkpt>
        <trkpt lat="28.146566" lon="105.749138"><ele>1403.5701</ele><time>2026-08-15T17:13:30.000Z</time></trkpt>
        <trkpt lat="28.146565" lon="105.749149"><ele>1406.3271</ele><time>2026-08-15T17:13:36.000Z</time></trkpt>
        <trkpt lat="28.146567" lon="105.749166"><ele>1406.5436</ele><time>2026-08-15T17:13:40.000Z</time></trkpt>
        <trkpt lat="28.14657" lon="105.749196"><ele>1407.2118</ele><time>2026-08-15T17:13:42.000Z</time></trkpt>
        <trkpt lat="28.14657" lon="105.749198"><ele>1407.8541</ele><time>2026-08-15T17:13:44.000Z</time></trkpt>
        <trkpt lat="28.146571" lon="105.749201"><ele>1409.2362</ele><time>2026-08-15T17:13:46.000Z</time></trkpt>
        <trkpt lat="28.14658" lon="105.749244"><ele>1410.6149</ele><time>2026-08-15T17:13:52.000Z</time></trkpt>
        <trkpt lat="28.146583" lon="105.74925"><ele>1409.6425</ele><time>2026-08-15T17:13:54.000Z</time></trkpt>
        <trkpt lat="28.146585" lon="105.749254"><ele>1410.0804</ele><time>2026-08-15T17:13:56.000Z</time></trkpt>
        <trkpt lat="28.146611" lon="105.749315"><ele>1413.4762</ele><time>2026-08-15T17:14:15.000Z</time></trkpt>
        <trkpt lat="28.146598" lon="105.74939"><ele>1413.9385</ele><time>2026-08-15T17:14:30.000Z</time></trkpt>
        <trkpt lat="28.146612" lon="105.749412"><ele>1416.1053</ele><time>2026-08-15T17:14:45.000Z</time></trkpt>
        <trkpt lat="28.146628" lon="105.749438"><ele>1417.5049</ele><time>2026-08-15T17:14:48.000Z</time></trkpt>
        <trkpt lat="28.146628" lon="105.749438"><ele>1416.2491</ele><time>2026-08-15T17:14:50.000Z</time></trkpt>
        <trkpt lat="28.146629" lon="105.74944"><ele>1416.1788</ele><time>2026-08-15T17:14:52.000Z</time></trkpt>
        <trkpt lat="28.146632" lon="105.74948"><ele>1416.234</ele><time>2026-08-15T17:15:00.000Z</time></trkpt>
        <trkpt lat="28.146632" lon="105.749497"><ele>1416.0276</ele><time>2026-08-15T17:15:02.000Z</time></trkpt>
        <trkpt lat="28.146633" lon="105.749497"><ele>1415.6038</ele><time>2026-08-15T17:15:04.000Z</time></trkpt>
        <trkpt lat="28.146658" lon="105.749509"><ele>1417.276</ele><time>2026-08-15T17:15:18.000Z</time></trkpt>
        <trkpt lat="28.146659" lon="105.749511"><ele>1417.2838</ele><time>2026-08-15T17:15:20.000Z</time></trkpt>
        <trkpt lat="28.14666" lon="105.749519"><ele>1417.2307</ele><time>2026-08-15T17:15:22.000Z</time></trkpt>
        <trkpt lat="28.146667" lon="105.749548"><ele>1418.2731</ele><time>2026-08-15T17:15:28.000Z</time></trkpt>
        <trkpt lat="28.146669" lon="105.749556"><ele>1419.1232</ele><time>2026-08-15T17:15:30.000Z</time></trkpt>
        <trkpt lat="28.14667" lon="105.749563"><ele>1419.7677</ele><time>2026-08-15T17:15:32.000Z</time></trkpt>
        <trkpt lat="28.146676" lon="105.749588"><ele>1420.5529</ele><time>2026-08-15T17:15:38.000Z</time></trkpt>
        <trkpt lat="28.146681" lon="105.749594"><ele>1420.1486</ele><time>2026-08-15T17:15:40.000Z</time></trkpt>
        <trkpt lat="28.146689" lon="105.749609"><ele>1420.0143</ele><time>2026-08-15T17:15:42.000Z</time></trkpt>
        <trkpt lat="28.146694" lon="105.749623"><ele>1421.2373</ele><time>2026-08-15T17:15:48.000Z</time></trkpt>
        <trkpt lat="28.146693" lon="105.749635"><ele>1421.8654</ele><time>2026-08-15T17:15:50.000Z</time></trkpt>
        <trkpt lat="28.146696" lon="105.749647"><ele>1422.785</ele><time>2026-08-15T17:15:52.000Z</time></trkpt>
        <trkpt lat="28.1467" lon="105.749656"><ele>1423.2455</ele><time>2026-08-15T17:15:54.000Z</time></trkpt>
        <trkpt lat="28.146705" lon="105.749668"><ele>1421.4679</ele><time>2026-08-15T17:15:58.000Z</time></trkpt>
        <trkpt lat="28.146713" lon="105.749682"><ele>1422.2415</ele><time>2026-08-15T17:16:04.000Z</time></trkpt>
        <trkpt lat="28.146716" lon="105.749684"><ele>1421.2513</ele><time>2026-08-15T17:16:06.000Z</time></trkpt>
        <trkpt lat="28.146731" lon="105.749689"><ele>1421.3384</ele><time>2026-08-15T17:16:12.000Z</time></trkpt>
        <trkpt lat="28.146747" lon="105.749691"><ele>1422.7224</ele><time>2026-08-15T17:16:16.000Z</time></trkpt>
        <trkpt lat="28.146752" lon="105.749694"><ele>1422.9861</ele><time>2026-08-15T17:16:18.000Z</time></trkpt>
        <trkpt lat="28.146765" lon="105.749695"><ele>1421.7227</ele><time>2026-08-15T17:16:22.000Z</time></trkpt>
        <trkpt lat="28.14678" lon="105.749692"><ele>1421.5112</ele><time>2026-08-15T17:16:28.000Z</time></trkpt>
        <trkpt lat="28.146787" lon="105.74969"><ele>1421.8229</ele><time>2026-08-15T17:16:30.000Z</time></trkpt>
        <trkpt lat="28.146794" lon="105.749691"><ele>1422.3391</ele><time>2026-08-15T17:16:32.000Z</time></trkpt>
        <trkpt lat="28.146878" lon="105.749702"><ele>1422.8048</ele><time>2026-08-15T17:16:49.000Z</time></trkpt>
        <trkpt lat="28.146913" lon="105.749708"><ele>1425.7416</ele><time>2026-08-15T17:17:04.000Z</time></trkpt>
        <trkpt lat="28.146982" lon="105.749715"><ele>1425.831</ele><time>2026-08-15T17:17:19.000Z</time></trkpt>
        <trkpt lat="28.146985" lon="105.749714"><ele>1428.1613</ele><time>2026-08-15T17:17:23.000Z</time></trkpt>
        <trkpt lat="28.147009" lon="105.749701"><ele>1427.6228</ele><time>2026-08-15T17:17:25.000Z</time></trkpt>
        <trkpt lat="28.147011" lon="105.7497"><ele>1427.3859</ele><time>2026-08-15T17:17:27.000Z</time></trkpt>
        <trkpt lat="28.147013" lon="105.7497"><ele>1426.5543</ele><time>2026-08-15T17:17:29.000Z</time></trkpt>
        <trkpt lat="28.147058" lon="105.749697"><ele>1426.3817</ele><time>2026-08-15T17:17:35.000Z</time></trkpt>
        <trkpt lat="28.147058" lon="105.749697"><ele>1426.0242</ele><time>2026-08-15T17:17:37.000Z</time></trkpt>
        <trkpt lat="28.14706" lon="105.749699"><ele>1426.3901</ele><time>2026-08-15T17:17:39.000Z</time></trkpt>
        <trkpt lat="28.147086" lon="105.749729"><ele>1424.8746</ele><time>2026-08-15T17:17:45.000Z</time></trkpt>
        <trkpt lat="28.147102" lon="105.749749"><ele>1424.149</ele><time>2026-08-15T17:17:47.000Z</time></trkpt>
        <trkpt lat="28.147103" lon="105.749751"><ele>1424.607</ele><time>2026-08-15T17:17:49.000Z</time></trkpt>
        <trkpt lat="28.147106" lon="105.749754"><ele>1425.8479</ele><time>2026-08-15T17:17:51.000Z</time></trkpt>
        <trkpt lat="28.147129" lon="105.749769"><ele>1427.63</ele><time>2026-08-15T17:17:55.000Z</time></trkpt>
        <trkpt lat="28.147143" lon="105.749775"><ele>1428.0889</ele><time>2026-08-15T17:17:57.000Z</time></trkpt>
        <trkpt lat="28.14716" lon="105.749781"><ele>1427.9108</ele><time>2026-08-15T17:17:59.000Z</time></trkpt>
        <trkpt lat="28.147174" lon="105.749789"><ele>1428.0554</ele><time>2026-08-15T17:18:01.000Z</time></trkpt>
        <trkpt lat="28.147183" lon="105.749798"><ele>1428.6213</ele><time>2026-08-15T17:18:03.000Z</time></trkpt>
        <trkpt lat="28.147191" lon="105.749807"><ele>1428.3937</ele><time>2026-08-15T17:18:05.000Z</time></trkpt>
        <trkpt lat="28.1472" lon="105.749814"><ele>1428.6464</ele><time>2026-08-15T17:18:07.000Z</time></trkpt>
        <trkpt lat="28.147205" lon="105.74982"><ele>1428.5078</ele><time>2026-08-15T17:18:09.000Z</time></trkpt>
        <trkpt lat="28.147217" lon="105.749832"><ele>1429.0443</ele><time>2026-08-15T17:18:13.000Z</time></trkpt>
        <trkpt lat="28.147226" lon="105.749835"><ele>1430.052</ele><time>2026-08-15T17:18:15.000Z</time></trkpt>
        <trkpt lat="28.147237" lon="105.749838"><ele>1429.6771</ele><time>2026-08-15T17:18:17.000Z</time></trkpt>
        <trkpt lat="28.147247" lon="105.749843"><ele>1430.3519</ele><time>2026-08-15T17:18:19.000Z</time></trkpt>
        <trkpt lat="28.147254" lon="105.749851"><ele>1430.9647</ele><time>2026-08-15T17:18:21.000Z</time></trkpt>
        <trkpt lat="28.14726" lon="105.749863"><ele>1431.3475</ele><time>2026-08-15T17:18:23.000Z</time></trkpt>
        <trkpt lat="28.147264" lon="105.749875"><ele>1430.5243</ele><time>2026-08-15T17:18:25.000Z</time></trkpt>
        <trkpt lat="28.147269" lon="105.749886"><ele>1430.9783</ele><time>2026-08-15T17:18:27.000Z</time></trkpt>
        <trkpt lat="28.147276" lon="105.749892"><ele>1431.632</ele><time>2026-08-15T17:18:29.000Z</time></trkpt>
        <trkpt lat="28.147286" lon="105.749895"><ele>1432.4253</ele><time>2026-08-15T17:18:31.000Z</time></trkpt>
        <trkpt lat="28.147297" lon="105.749896"><ele>1433.2367</ele><time>2026-08-15T17:18:33.000Z</time></trkpt>
        <trkpt lat="28.147316" lon="105.749896"><ele>1434.2924</ele><time>2026-08-15T17:18:35.000Z</time></trkpt>
        <trkpt lat="28.147337" lon="105.749894"><ele>1435.1398</ele><time>2026-08-15T17:18:37.000Z</time></trkpt>
        <trkpt lat="28.147351" lon="105.749893"><ele>1436.09</ele><time>2026-08-15T17:18:39.000Z</time></trkpt>
        <trkpt lat="28.147363" lon="105.749896"><ele>1435.9076</ele><time>2026-08-15T17:18:41.000Z</time></trkpt>
        <trkpt lat="28.147378" lon="105.749907"><ele>1435.811</ele><time>2026-08-15T17:18:43.000Z</time></trkpt>
        <trkpt lat="28.147395" lon="105.749921"><ele>1437.2826</ele><time>2026-08-15T17:18:45.000Z</time></trkpt>
        <trkpt lat="28.147413" lon="105.749937"><ele>1437.0793</ele><time>2026-08-15T17:18:47.000Z</time></trkpt>
        <trkpt lat="28.147427" lon="105.749949"><ele>1437.1554</ele><time>2026-08-15T17:18:49.000Z</time></trkpt>
        <trkpt lat="28.147441" lon="105.749951"><ele>1437.4823</ele><time>2026-08-15T17:18:51.000Z</time></trkpt>
        <trkpt lat="28.147459" lon="105.749949"><ele>1440.3391</ele><time>2026-08-15T17:18:53.000Z</time></trkpt>
        <trkpt lat="28.147477" lon="105.749945"><ele>1442.5986</ele><time>2026-08-15T17:18:55.000Z</time></trkpt>
        <trkpt lat="28.147492" lon="105.74994"><ele>1443.5719</ele><time>2026-08-15T17:18:57.000Z</time></trkpt>
        <trkpt lat="28.147502" lon="105.749934"><ele>1444.5903</ele><time>2026-08-15T17:18:59.000Z</time></trkpt>
        <trkpt lat="28.147515" lon="105.749928"><ele>1445.5841</ele><time>2026-08-15T17:19:01.000Z</time></trkpt>
        <trkpt lat="28.147535" lon="105.749921"><ele>1446.9144</ele><time>2026-08-15T17:19:05.000Z</time></trkpt>
        <trkpt lat="28.147545" lon="105.749922"><ele>1448.1956</ele><time>2026-08-15T17:19:07.000Z</time></trkpt>
        <trkpt lat="28.14755" lon="105.749931"><ele>1448.8492</ele><time>2026-08-15T17:19:09.000Z</time></trkpt>
        <trkpt lat="28.14756" lon="105.749957"><ele>1450.343</ele><time>2026-08-15T17:19:11.000Z</time></trkpt>
        <trkpt lat="28.14757" lon="105.749981"><ele>1451.6392</ele><time>2026-08-15T17:19:13.000Z</time></trkpt>
        <trkpt lat="28.147581" lon="105.750001"><ele>1452.1227</ele><time>2026-08-15T17:19:15.000Z</time></trkpt>
        <trkpt lat="28.147588" lon="105.750017"><ele>1452.2346</ele><time>2026-08-15T17:19:17.000Z</time></trkpt>
        <trkpt lat="28.147593" lon="105.750032"><ele>1452.2938</ele><time>2026-08-15T17:19:19.000Z</time></trkpt>
        <trkpt lat="28.147599" lon="105.750041"><ele>1452.377</ele><time>2026-08-15T17:19:21.000Z</time></trkpt>
        <trkpt lat="28.147605" lon="105.750044"><ele>1453.029</ele><time>2026-08-15T17:19:23.000Z</time></trkpt>
        <trkpt lat="28.147617" lon="105.750052"><ele>1453.4463</ele><time>2026-08-15T17:19:25.000Z</time></trkpt>
        <trkpt lat="28.147627" lon="105.750061"><ele>1453.0205</ele><time>2026-08-15T17:19:27.000Z</time></trkpt>
        <trkpt lat="28.147628" lon="105.750068"><ele>1452.5408</ele><time>2026-08-15T17:19:29.000Z</time></trkpt>
        <trkpt lat="28.147629" lon="105.750093"><ele>1453.1545</ele><time>2026-08-15T17:19:33.000Z</time></trkpt>
        <trkpt lat="28.14763" lon="105.750102"><ele>1452.2842</ele><time>2026-08-15T17:19:35.000Z</time></trkpt>
        <trkpt lat="28.147632" lon="105.750108"><ele>1452.2401</ele><time>2026-08-15T17:19:37.000Z</time></trkpt>
        <trkpt lat="28.147643" lon="105.750133"><ele>1453.462</ele><time>2026-08-15T17:19:41.000Z</time></trkpt>
        <trkpt lat="28.147644" lon="105.750141"><ele>1454.1824</ele><time>2026-08-15T17:19:43.000Z</time></trkpt>
        <trkpt lat="28.147645" lon="105.750144"><ele>1454.8516</ele><time>2026-08-15T17:19:45.000Z</time></trkpt>
        <trkpt lat="28.14766" lon="105.750156"><ele>1452.0997</ele><time>2026-08-15T17:20:32.000Z</time></trkpt>
        <trkpt lat="28.14768" lon="105.75017"><ele>1451.0361</ele><time>2026-08-15T17:20:34.000Z</time></trkpt>
        <trkpt lat="28.147682" lon="105.750171"><ele>1450.9187</ele><time>2026-08-15T17:20:36.000Z</time></trkpt>
        <trkpt lat="28.147688" lon="105.750175"><ele>1450.1016</ele><time>2026-08-15T17:20:40.000Z</time></trkpt>
        <trkpt lat="28.147728" lon="105.750205"><ele>1451.8989</ele><time>2026-08-15T17:20:44.000Z</time></trkpt>
        <trkpt lat="28.147728" lon="105.750206"><ele>1450.9834</ele><time>2026-08-15T17:20:46.000Z</time></trkpt>
        <trkpt lat="28.147731" lon="105.750209"><ele>1451.829</ele><time>2026-08-15T17:20:48.000Z</time></trkpt>
        <trkpt lat="28.147757" lon="105.750242"><ele>1452.2433</ele><time>2026-08-15T17:20:54.000Z</time></trkpt>
        <trkpt lat="28.147763" lon="105.750244"><ele>1452.9641</ele><time>2026-08-15T17:20:56.000Z</time></trkpt>
        <trkpt lat="28.147775" lon="105.75025"><ele>1453.1708</ele><time>2026-08-15T17:20:58.000Z</time></trkpt>
        <trkpt lat="28.147784" lon="105.750259"><ele>1454.2097</ele><time>2026-08-15T17:21:02.000Z</time></trkpt>
        <trkpt lat="28.147789" lon="105.750267"><ele>1454.1124</ele><time>2026-08-15T17:21:04.000Z</time></trkpt>
        <trkpt lat="28.147792" lon="105.750279"><ele>1453.1503</ele><time>2026-08-15T17:21:06.000Z</time></trkpt>
        <trkpt lat="28.147797" lon="105.750298"><ele>1451.6757</ele><time>2026-08-15T17:21:08.000Z</time></trkpt>
        <trkpt lat="28.147801" lon="105.750315"><ele>1450.8566</ele><time>2026-08-15T17:21:10.000Z</time></trkpt>
        <trkpt lat="28.147805" lon="105.750332"><ele>1449.272</ele><time>2026-08-15T17:21:12.000Z</time></trkpt>
        <trkpt lat="28.147807" lon="105.750345"><ele>1448.7267</ele><time>2026-08-15T17:21:14.000Z</time></trkpt>
        <trkpt lat="28.147809" lon="105.750351"><ele>1448.3915</ele><time>2026-08-15T17:21:16.000Z</time></trkpt>
        <trkpt lat="28.147819" lon="105.750361"><ele>1446.5577</ele><time>2026-08-15T17:21:22.000Z</time></trkpt>
        <trkpt lat="28.147835" lon="105.750379"><ele>1447.3214</ele><time>2026-08-15T17:21:26.000Z</time></trkpt>
        <trkpt lat="28.147835" lon="105.750379"><ele>1446.9634</ele><time>2026-08-15T17:21:28.000Z</time></trkpt>
        <trkpt lat="28.147845" lon="105.750386"><ele>1448.2285</ele><time>2026-08-15T17:21:34.000Z</time></trkpt>
        <trkpt lat="28.147863" lon="105.750399"><ele>1450.0917</ele><time>2026-08-15T17:21:46.000Z</time></trkpt>
        <trkpt lat="28.147867" lon="105.750401"><ele>1452.6852</ele><time>2026-08-15T17:21:48.000Z</time></trkpt>
        <trkpt lat="28.147867" lon="105.75041"><ele>1453.2789</ele><time>2026-08-15T17:21:50.000Z</time></trkpt>
        <trkpt lat="28.14787" lon="105.750434"><ele>1453.1859</ele><time>2026-08-15T17:21:58.000Z</time></trkpt>
        <trkpt lat="28.147872" lon="105.750448"><ele>1453.5687</ele><time>2026-08-15T17:22:00.000Z</time></trkpt>
        <trkpt lat="28.147872" lon="105.750449"><ele>1454.0006</ele><time>2026-08-15T17:22:02.000Z</time></trkpt>
        <trkpt lat="28.147884" lon="105.750472"><ele>1455.2378</ele><time>2026-08-15T17:22:06.000Z</time></trkpt>
        <trkpt lat="28.147892" lon="105.750485"><ele>1455.8018</ele><time>2026-08-15T17:22:08.000Z</time></trkpt>
        <trkpt lat="28.147891" lon="105.750494"><ele>1455.8018</ele><time>2026-08-15T17:22:10.000Z</time></trkpt>
        <trkpt lat="28.147889" lon="105.750511"><ele>1456.4331</ele><time>2026-08-15T17:22:12.000Z</time></trkpt>
        <trkpt lat="28.147889" lon="105.750526"><ele>1456.963</ele><time>2026-08-15T17:22:14.000Z</time></trkpt>
        <trkpt lat="28.147892" lon="105.750527"><ele>1457.1901</ele><time>2026-08-15T17:22:16.000Z</time></trkpt>
        <trkpt lat="28.147913" lon="105.750539"><ele>1457.1544</ele><time>2026-08-15T17:22:22.000Z</time></trkpt>
        <trkpt lat="28.147927" lon="105.750547"><ele>1456.6372</ele><time>2026-08-15T17:22:24.000Z</time></trkpt>
        <trkpt lat="28.147927" lon="105.750548"><ele>1456.4012</ele><time>2026-08-15T17:22:26.000Z</time></trkpt>
        <trkpt lat="28.147936" lon="105.750567"><ele>1453.5985</ele><time>2026-08-15T17:22:32.000Z</time></trkpt>
        <trkpt lat="28.147946" lon="105.750589"><ele>1454.1655</ele><time>2026-08-15T17:22:34.000Z</time></trkpt>
        <trkpt lat="28.147946" lon="105.750591"><ele>1455.1659</ele><time>2026-08-15T17:22:36.000Z</time></trkpt>
        <trkpt lat="28.147955" lon="105.75061"><ele>1463.9221</ele><time>2026-08-15T17:23:00.000Z</time></trkpt>
        <trkpt lat="28.147964" lon="105.750623"><ele>1463.8599</ele><time>2026-08-15T17:23:04.000Z</time></trkpt>
        <trkpt lat="28.147967" lon="105.750624"><ele>1463.5674</ele><time>2026-08-15T17:23:06.000Z</time></trkpt>
        <trkpt lat="28.147981" lon="105.750631"><ele>1463.9128</ele><time>2026-08-15T17:23:10.000Z</time></trkpt>
        <trkpt lat="28.147983" lon="105.750628"><ele>1467.1238</ele><time>2026-08-15T17:23:14.000Z</time></trkpt>
        <trkpt lat="28.147953" lon="105.750671"><ele>1466.5558</ele><time>2026-08-15T17:23:20.000Z</time></trkpt>
        <trkpt lat="28.147953" lon="105.750671"><ele>1466.9791</ele><time>2026-08-15T17:23:22.000Z</time></trkpt>
        <trkpt lat="28.147954" lon="105.750672"><ele>1467.8247</ele><time>2026-08-15T17:23:24.000Z</time></trkpt>
        <trkpt lat="28.147975" lon="105.750699"><ele>1475.7046</ele><time>2026-08-15T17:23:40.000Z</time></trkpt>
        <trkpt lat="28.147988" lon="105.750714"><ele>1475.7501</ele><time>2026-08-15T17:23:42.000Z</time></trkpt>
        <trkpt lat="28.147989" lon="105.750715"><ele>1475.0344</ele><time>2026-08-15T17:23:44.000Z</time></trkpt>
        <trkpt lat="28.148022" lon="105.75075"><ele>1471.2816</ele><time>2026-08-15T17:23:47.000Z</time></trkpt>
        <trkpt lat="28.148022" lon="105.75075"><ele>1471.0546</ele><time>2026-08-15T17:23:49.000Z</time></trkpt>
        <trkpt lat="28.148022" lon="105.75075"><ele>1471.6294</ele><time>2026-08-15T17:23:51.000Z</time></trkpt>
        <trkpt lat="28.148052" lon="105.750772"><ele>1478.3251</ele><time>2026-08-15T17:24:13.000Z</time></trkpt>
        <trkpt lat="28.148056" lon="105.750776"><ele>1479.071</ele><time>2026-08-15T17:24:15.000Z</time></trkpt>
        <trkpt lat="28.148059" lon="105.750782"><ele>1478.0048</ele><time>2026-08-15T17:24:17.000Z</time></trkpt>
        <trkpt lat="28.148064" lon="105.750807"><ele>1475.8209</ele><time>2026-08-15T17:24:25.000Z</time></trkpt>
        <trkpt lat="28.14807" lon="105.750833"><ele>1474.6766</ele><time>2026-08-15T17:24:27.000Z</time></trkpt>
        <trkpt lat="28.14807" lon="105.750834"><ele>1475.715</ele><time>2026-08-15T17:24:29.000Z</time></trkpt>
        <trkpt lat="28.148076" lon="105.750843"><ele>1476.6931</ele><time>2026-08-15T17:24:33.000Z</time></trkpt>
        <trkpt lat="28.148088" lon="105.750864"><ele>1477.8873</ele><time>2026-08-15T17:24:37.000Z</time></trkpt>
        <trkpt lat="28.148088" lon="105.750864"><ele>1479.538</ele><time>2026-08-15T17:24:39.000Z</time></trkpt>
        <trkpt lat="28.148109" lon="105.750849"><ele>1482.3983</ele><time>2026-08-15T17:24:47.000Z</time></trkpt>
        <trkpt lat="28.148125" lon="105.750838"><ele>1483.1136</ele><time>2026-08-15T17:24:49.000Z</time></trkpt>
        <trkpt lat="28.148126" lon="105.750837"><ele>1482.8665</ele><time>2026-08-15T17:24:51.000Z</time></trkpt>
        <trkpt lat="28.148134" lon="105.75084"><ele>1483.3467</ele><time>2026-08-15T17:24:55.000Z</time></trkpt>
        <trkpt lat="28.148163" lon="105.750851"><ele>1484.6549</ele><time>2026-08-15T17:24:59.000Z</time></trkpt>
        <trkpt lat="28.148163" lon="105.750851"><ele>1484.4136</ele><time>2026-08-15T17:25:01.000Z</time></trkpt>
        <trkpt lat="28.148164" lon="105.750853"><ele>1484.6401</ele><time>2026-08-15T17:25:03.000Z</time></trkpt>
        <trkpt lat="28.148193" lon="105.750907"><ele>1486.8143</ele><time>2026-08-15T17:25:09.000Z</time></trkpt>
        <trkpt lat="28.148193" lon="105.750907"><ele>1486.5145</ele><time>2026-08-15T17:25:11.000Z</time></trkpt>
        <trkpt lat="28.148197" lon="105.750904"><ele>1486.102</ele><time>2026-08-15T17:25:13.000Z</time></trkpt>
        <trkpt lat="28.148217" lon="105.750884"><ele>1486.4952</ele><time>2026-08-15T17:25:17.000Z</time></trkpt>
        <trkpt lat="28.148225" lon="105.750876"><ele>1486.6758</ele><time>2026-08-15T17:25:19.000Z</time></trkpt>
        <trkpt lat="28.148233" lon="105.75087"><ele>1486.8862</ele><time>2026-08-15T17:25:21.000Z</time></trkpt>
        <trkpt lat="28.148243" lon="105.750856"><ele>1488.6503</ele><time>2026-08-15T17:25:25.000Z</time></trkpt>
        <trkpt lat="28.148249" lon="105.750853"><ele>1488.1853</ele><time>2026-08-15T17:25:29.000Z</time></trkpt>
        <trkpt lat="28.148257" lon="105.750849"><ele>1490.0387</ele><time>2026-08-15T17:25:35.000Z</time></trkpt>
        <trkpt lat="28.148273" lon="105.750845"><ele>1490.6542</ele><time>2026-08-15T17:25:41.000Z</time></trkpt>
        <trkpt lat="28.148287" lon="105.750841"><ele>1490.8809</ele><time>2026-08-15T17:25:43.000Z</time></trkpt>
        <trkpt lat="28.148287" lon="105.750841"><ele>1491.9536</ele><time>2026-08-15T17:25:45.000Z</time></trkpt>
        <trkpt lat="28.148302" lon="105.750862"><ele>1492.35</ele><time>2026-08-15T17:25:55.000Z</time></trkpt>
        <trkpt lat="28.148315" lon="105.750811"><ele>1492.0498</ele><time>2026-08-15T17:26:17.000Z</time></trkpt>
        <trkpt lat="28.14832" lon="105.750795"><ele>1491.9963</ele><time>2026-08-15T17:26:19.000Z</time></trkpt>
        <trkpt lat="28.14832" lon="105.750794"><ele>1491.4069</ele><time>2026-08-15T17:26:21.000Z</time></trkpt>
        <trkpt lat="28.148327" lon="105.750778"><ele>1491.3633</ele><time>2026-08-15T17:26:27.000Z</time></trkpt>
        <trkpt lat="28.148334" lon="105.750761"><ele>1490.229</ele><time>2026-08-15T17:26:31.000Z</time></trkpt>
        <trkpt lat="28.148335" lon="105.750753"><ele>1490.3613</ele><time>2026-08-15T17:26:33.000Z</time></trkpt>
        <trkpt lat="28.148342" lon="105.75074"><ele>1490.7164</ele><time>2026-08-15T17:26:35.000Z</time></trkpt>
        <trkpt lat="28.148348" lon="105.750731"><ele>1493.1559</ele><time>2026-08-15T17:26:57.000Z</time></trkpt>
        <trkpt lat="28.14836" lon="105.750714"><ele>1493.9897</ele><time>2026-08-15T17:26:59.000Z</time></trkpt>
        <trkpt lat="28.148361" lon="105.750714"><ele>1492.6293</ele><time>2026-08-15T17:27:01.000Z</time></trkpt>
        <trkpt lat="28.148375" lon="105.750711"><ele>1490.6974</ele><time>2026-08-15T17:27:09.000Z</time></trkpt>
        <trkpt lat="28.14839" lon="105.750708"><ele>1490.7141</ele><time>2026-08-15T17:27:15.000Z</time></trkpt>
        <trkpt lat="28.148396" lon="105.75071"><ele>1491.6115</ele><time>2026-08-15T17:27:17.000Z</time></trkpt>
        <trkpt lat="28.14841" lon="105.750715"><ele>1491.6393</ele><time>2026-08-15T17:27:21.000Z</time></trkpt>
        <trkpt lat="28.148424" lon="105.750717"><ele>1492.4683</ele><time>2026-08-15T17:27:25.000Z</time></trkpt>
        <trkpt lat="28.148428" lon="105.750718"><ele>1492.5011</ele><time>2026-08-15T17:27:27.000Z</time></trkpt>
        <trkpt lat="28.148439" lon="105.750728"><ele>1492.7617</ele><time>2026-08-15T17:27:31.000Z</time></trkpt>
        <trkpt lat="28.148449" lon="105.750736"><ele>1491.0109</ele><time>2026-08-15T17:27:37.000Z</time></trkpt>
        <trkpt lat="28.148453" lon="105.750739"><ele>1491.4932</ele><time>2026-08-15T17:27:39.000Z</time></trkpt>
        <trkpt lat="28.148461" lon="105.750737"><ele>1493.0067</ele><time>2026-08-15T17:27:45.000Z</time></trkpt>
        <trkpt lat="28.148484" lon="105.750728"><ele>1494.5537</ele><time>2026-08-15T17:28:01.000Z</time></trkpt>
        <trkpt lat="28.148495" lon="105.750751"><ele>1493.2352</ele><time>2026-08-15T17:28:09.000Z</time></trkpt>
        <trkpt lat="28.148497" lon="105.750752"><ele>1494.1138</ele><time>2026-08-15T17:28:11.000Z</time></trkpt>
        <trkpt lat="28.148503" lon="105.750751"><ele>1494.6392</ele><time>2026-08-15T17:28:13.000Z</time></trkpt>
        <trkpt lat="28.148532" lon="105.750742"><ele>1495.3318</ele><time>2026-08-15T17:28:17.000Z</time></trkpt>
        <trkpt lat="28.14854" lon="105.750739"><ele>1496.2102</ele><time>2026-08-15T17:28:19.000Z</time></trkpt>
        <trkpt lat="28.148548" lon="105.750739"><ele>1496.138</ele><time>2026-08-15T17:28:21.000Z</time></trkpt>
        <trkpt lat="28.148571" lon="105.750736"><ele>1499.5577</ele><time>2026-08-15T17:28:29.000Z</time></trkpt>
        <trkpt lat="28.148599" lon="105.750732"><ele>1500.8485</ele><time>2026-08-15T17:28:31.000Z</time></trkpt>
        <trkpt lat="28.148601" lon="105.750731"><ele>1500.495</ele><time>2026-08-15T17:28:33.000Z</time></trkpt>
        <trkpt lat="28.148603" lon="105.750731"><ele>1499.7948</ele><time>2026-08-15T17:28:35.000Z</time></trkpt>
        <trkpt lat="28.14863" lon="105.750732"><ele>1502.563</ele><time>2026-08-15T17:28:43.000Z</time></trkpt>
        <trkpt lat="28.148637" lon="105.750733"><ele>1502.735</ele><time>2026-08-15T17:28:45.000Z</time></trkpt>
        <trkpt lat="28.148643" lon="105.750734"><ele>1504.4633</ele><time>2026-08-15T17:28:47.000Z</time></trkpt>
        <trkpt lat="28.148661" lon="105.750733"><ele>1506.8535</ele><time>2026-08-15T17:28:57.000Z</time></trkpt>
        <trkpt lat="28.148671" lon="105.75073"><ele>1507.3397</ele><time>2026-08-15T17:29:01.000Z</time></trkpt>
        <trkpt lat="28.148673" lon="105.750726"><ele>1508.1897</ele><time>2026-08-15T17:29:03.000Z</time></trkpt>
        <trkpt lat="28.148687" lon="105.750707"><ele>1510.6704</ele><time>2026-08-15T17:29:11.000Z</time></trkpt>
        <trkpt lat="28.148688" lon="105.750703"><ele>1511.1058</ele><time>2026-08-15T17:29:13.000Z</time></trkpt>
        <trkpt lat="28.148694" lon="105.750691"><ele>1512.1346</ele><time>2026-08-15T17:29:19.000Z</time></trkpt>
        <trkpt lat="28.148703" lon="105.750672"><ele>1511.4882</ele><time>2026-08-15T17:29:27.000Z</time></trkpt>
        <trkpt lat="28.148704" lon="105.750669"><ele>1512.8239</ele><time>2026-08-15T17:29:29.000Z</time></trkpt>
        <trkpt lat="28.148715" lon="105.750664"><ele>1513.8326</ele><time>2026-08-15T17:29:33.000Z</time></trkpt>
        <trkpt lat="28.14873" lon="105.750657"><ele>1512.5331</ele><time>2026-08-15T17:29:39.000Z</time></trkpt>
        <trkpt lat="28.148737" lon="105.750655"><ele>1512.4868</ele><time>2026-08-15T17:29:41.000Z</time></trkpt>
        <trkpt lat="28.148745" lon="105.750652"><ele>1511.6538</ele><time>2026-08-15T17:29:43.000Z</time></trkpt>
        <trkpt lat="28.148762" lon="105.750641"><ele>1514.5447</ele><time>2026-08-15T17:29:47.000Z</time></trkpt>
        <trkpt lat="28.148767" lon="105.750638"><ele>1515.7849</ele><time>2026-08-15T17:29:49.000Z</time></trkpt>
        <trkpt lat="28.148773" lon="105.750629"><ele>1515.1288</ele><time>2026-08-15T17:29:51.000Z</time></trkpt>
        <trkpt lat="28.148787" lon="105.750608"><ele>1515.9347</ele><time>2026-08-15T17:29:55.000Z</time></trkpt>
        <trkpt lat="28.148788" lon="105.750606"><ele>1516.5916</ele><time>2026-08-15T17:29:57.000Z</time></trkpt>
        <trkpt lat="28.148791" lon="105.750602"><ele>1516.8901</ele><time>2026-08-15T17:29:59.000Z</time></trkpt>
        <trkpt lat="28.148806" lon="105.75058"><ele>1517.0609</ele><time>2026-08-15T17:30:07.000Z</time></trkpt>
        <trkpt lat="28.148809" lon="105.750574"><ele>1517.5067</ele><time>2026-08-15T17:30:09.000Z</time></trkpt>
        <trkpt lat="28.14882" lon="105.750559"><ele>1517.7299</ele><time>2026-08-15T17:30:11.000Z</time></trkpt>
        <trkpt lat="28.148828" lon="105.750544"><ele>1517.945</ele><time>2026-08-15T17:30:19.000Z</time></trkpt>
        <trkpt lat="28.14884" lon="105.750538"><ele>1518.8553</ele><time>2026-08-15T17:30:21.000Z</time></trkpt>
        <trkpt lat="28.148865" lon="105.750532"><ele>1521.2361</ele><time>2026-08-15T17:30:31.000Z</time></trkpt>
        <trkpt lat="28.148868" lon="105.750532"><ele>1520.607</ele><time>2026-08-15T17:30:33.000Z</time></trkpt>
        <trkpt lat="28.148871" lon="105.750539"><ele>1520.3187</ele><time>2026-08-15T17:30:35.000Z</time></trkpt>
        <trkpt lat="28.148874" lon="105.750565"><ele>1520.2391</ele><time>2026-08-15T17:30:43.000Z</time></trkpt>
        <trkpt lat="28.148876" lon="105.750584"><ele>1521.2827</ele><time>2026-08-15T17:30:45.000Z</time></trkpt>
        <trkpt lat="28.148877" lon="105.750585"><ele>1521.4498</ele><time>2026-08-15T17:30:47.000Z</time></trkpt>
        <trkpt lat="28.148881" lon="105.750598"><ele>1522.3606</ele><time>2026-08-15T17:30:53.000Z</time></trkpt>
        <trkpt lat="28.148888" lon="105.750623"><ele>1523.7054</ele><time>2026-08-15T17:30:57.000Z</time></trkpt>
        <trkpt lat="28.148888" lon="105.750623"><ele>1524.3777</ele><time>2026-08-15T17:30:59.000Z</time></trkpt>
        <trkpt lat="28.148908" lon="105.750624"><ele>1524.936</ele><time>2026-08-15T17:31:05.000Z</time></trkpt>
        <trkpt lat="28.14891" lon="105.750654"><ele>1525.6084</ele><time>2026-08-15T17:31:11.000Z</time></trkpt>
        <trkpt lat="28.148911" lon="105.750669"><ele>1525.4122</ele><time>2026-08-15T17:31:13.000Z</time></trkpt>
        <trkpt lat="28.148911" lon="105.75067"><ele>1525.9731</ele><time>2026-08-15T17:31:15.000Z</time></trkpt>
        <trkpt lat="28.148912" lon="105.750701"><ele>1525.3452</ele><time>2026-08-15T17:31:21.000Z</time></trkpt>
        <trkpt lat="28.148914" lon="105.750717"><ele>1525.8896</ele><time>2026-08-15T17:31:23.000Z</time></trkpt>
        <trkpt lat="28.148915" lon="105.750727"><ele>1526.0623</ele><time>2026-08-15T17:31:25.000Z</time></trkpt>
        <trkpt lat="28.148914" lon="105.750736"><ele>1526.5964</ele><time>2026-08-15T17:31:27.000Z</time></trkpt>
        <trkpt lat="28.148918" lon="105.75075"><ele>1527.9574</ele><time>2026-08-15T17:31:35.000Z</time></trkpt>
        <trkpt lat="28.148926" lon="105.750769"><ele>1529.0117</ele><time>2026-08-15T17:31:49.000Z</time></trkpt>
        <trkpt lat="28.148934" lon="105.750791"><ele>1528.9994</ele><time>2026-08-15T17:31:51.000Z</time></trkpt>
        <trkpt lat="28.148935" lon="105.750792"><ele>1529.0278</ele><time>2026-08-15T17:31:53.000Z</time></trkpt>
        <trkpt lat="28.148932" lon="105.750806"><ele>1529.225</ele><time>2026-08-15T17:31:59.000Z</time></trkpt>
        <trkpt lat="28.148924" lon="105.750842"><ele>1529.1895</ele><time>2026-08-15T17:32:01.000Z</time></trkpt>
        <trkpt lat="28.148952" lon="105.750911"><ele>1532.2877</ele><time>2026-08-15T17:32:17.000Z</time></trkpt>
        <trkpt lat="28.148969" lon="105.750953"><ele>1533.556</ele><time>2026-08-15T17:32:33.000Z</time></trkpt>
        <trkpt lat="28.148952" lon="105.750965"><ele>1533.9305</ele><time>2026-08-15T17:32:49.000Z</time></trkpt>
        <trkpt lat="28.148972" lon="105.75097"><ele>1535.8739</ele><time>2026-08-15T17:33:05.000Z</time></trkpt>
        <trkpt lat="28.148992" lon="105.750978"><ele>1536.8765</ele><time>2026-08-15T17:33:18.000Z</time></trkpt>
        <trkpt lat="28.148992" lon="105.750978"><ele>1536.8765</ele><time>2026-08-15T17:33:20.000Z</time></trkpt>
        <trkpt lat="28.148999" lon="105.750988"><ele>1538.5582</ele><time>2026-08-15T17:33:36.000Z</time></trkpt>
        <trkpt lat="28.149011" lon="105.751006"><ele>1540.4558</ele><time>2026-08-15T17:33:44.000Z</time></trkpt>
        <trkpt lat="28.149034" lon="105.750955"><ele>1542.5815</ele><time>2026-08-15T17:34:04.000Z</time></trkpt>
        <trkpt lat="28.149044" lon="105.750923"><ele>1541.1973</ele><time>2026-08-15T17:34:15.000Z</time></trkpt>
        <trkpt lat="28.149044" lon="105.750917"><ele>1541.9656</ele><time>2026-08-15T17:34:17.000Z</time></trkpt>
        <trkpt lat="28.149045" lon="105.750917"><ele>1542.011</ele><time>2026-08-15T17:34:19.000Z</time></trkpt>
        <trkpt lat="28.149076" lon="105.750914"><ele>1542.0376</ele><time>2026-08-15T17:34:31.000Z</time></trkpt>
        <trkpt lat="28.149083" lon="105.750913"><ele>1541.6123</ele><time>2026-08-15T17:34:33.000Z</time></trkpt>
        <trkpt lat="28.149089" lon="105.750913"><ele>1542.5187</ele><time>2026-08-15T17:34:35.000Z</time></trkpt>
        <trkpt lat="28.149109" lon="105.750906"><ele>1543.6431</ele><time>2026-08-15T17:34:41.000Z</time></trkpt>
        <trkpt lat="28.149113" lon="105.750902"><ele>1544.0679</ele><time>2026-08-15T17:34:43.000Z</time></trkpt>
        <trkpt lat="28.149116" lon="105.750895"><ele>1543.622</ele><time>2026-08-15T17:34:45.000Z</time></trkpt>
        <trkpt lat="28.149135" lon="105.750859"><ele>1546.6364</ele><time>2026-08-15T17:35:00.000Z</time></trkpt>
        <trkpt lat="28.149159" lon="105.750809"><ele>1546.8099</ele><time>2026-08-15T17:35:15.000Z</time></trkpt>
        <trkpt lat="28.149204" lon="105.750728"><ele>1549.7408</ele><time>2026-08-15T17:35:31.000Z</time></trkpt>
        <trkpt lat="28.149232" lon="105.750678"><ele>1551.7651</ele><time>2026-08-15T17:35:47.000Z</time></trkpt>
        <trkpt lat="28.149283" lon="105.750684"><ele>1551.2948</ele><time>2026-08-15T17:36:03.000Z</time></trkpt>
        <trkpt lat="28.149318" lon="105.750689"><ele>1555.0332</ele><time>2026-08-15T17:36:19.000Z</time></trkpt>
        <trkpt lat="28.149338" lon="105.750741"><ele>1555.3813</ele><time>2026-08-15T17:36:35.000Z</time></trkpt>
        <trkpt lat="28.149339" lon="105.750747"><ele>1555.8257</ele><time>2026-08-15T17:36:37.000Z</time></trkpt>
        <trkpt lat="28.149339" lon="105.750747"><ele>1555.6211</ele><time>2026-08-15T17:36:39.000Z</time></trkpt>
        <trkpt lat="28.149353" lon="105.750773"><ele>1555.8434</ele><time>2026-08-15T17:36:53.000Z</time></trkpt>
        <trkpt lat="28.149353" lon="105.750778"><ele>1556.0505</ele><time>2026-08-15T17:36:57.000Z</time></trkpt>
        <trkpt lat="28.149355" lon="105.750781"><ele>1555.7964</ele><time>2026-08-15T17:36:59.000Z</time></trkpt>
        <trkpt lat="28.149369" lon="105.750803"><ele>1559.6228</ele><time>2026-08-15T17:37:15.000Z</time></trkpt>
        <trkpt lat="28.149372" lon="105.750809"><ele>1560.761</ele><time>2026-08-15T17:37:17.000Z</time></trkpt>
        <trkpt lat="28.149373" lon="105.750815"><ele>1561.3118</ele><time>2026-08-15T17:37:19.000Z</time></trkpt>
        <trkpt lat="28.149374" lon="105.750839"><ele>1561.8501</ele><time>2026-08-15T17:37:25.000Z</time></trkpt>
        <trkpt lat="28.149374" lon="105.750843"><ele>1562.8983</ele><time>2026-08-15T17:37:27.000Z</time></trkpt>
        <trkpt lat="28.149373" lon="105.750854"><ele>1562.8184</ele><time>2026-08-15T17:37:31.000Z</time></trkpt>
        <trkpt lat="28.149368" lon="105.75088"><ele>1563.2708</ele><time>2026-08-15T17:37:41.000Z</time></trkpt>
        <trkpt lat="28.149367" lon="105.750894"><ele>1562.3228</ele><time>2026-08-15T17:37:43.000Z</time></trkpt>
        <trkpt lat="28.149367" lon="105.750914"><ele>1562.6772</ele><time>2026-08-15T17:37:45.000Z</time></trkpt>
        <trkpt lat="28.149367" lon="105.750915"><ele>1562.701</ele><time>2026-08-15T17:37:47.000Z</time></trkpt>
        <trkpt lat="28.149363" lon="105.750927"><ele>1564.3082</ele><time>2026-08-15T17:37:53.000Z</time></trkpt>
        <trkpt lat="28.14936" lon="105.750947"><ele>1564.3037</ele><time>2026-08-15T17:37:59.000Z</time></trkpt>
        <trkpt lat="28.149361" lon="105.750951"><ele>1564.2131</ele><time>2026-08-15T17:38:01.000Z</time></trkpt>
        <trkpt lat="28.149361" lon="105.750962"><ele>1564.8528</ele><time>2026-08-15T17:38:15.000Z</time></trkpt>
        <trkpt lat="28.149361" lon="105.750986"><ele>1565.6832</ele><time>2026-08-15T17:38:27.000Z</time></trkpt>
        <trkpt lat="28.149361" lon="105.750986"><ele>1567.7736</ele><time>2026-08-15T17:38:31.000Z</time></trkpt>
        <trkpt lat="28.149366" lon="105.750998"><ele>1566.9054</ele><time>2026-08-15T17:38:37.000Z</time></trkpt>
        <trkpt lat="28.149375" lon="105.75102"><ele>1568.108</ele><time>2026-08-15T17:38:49.000Z</time></trkpt>
        <trkpt lat="28.149376" lon="105.751025"><ele>1568.0583</ele><time>2026-08-15T17:38:51.000Z</time></trkpt>
        <trkpt lat="28.149375" lon="105.75103"><ele>1568.6617</ele><time>2026-08-15T17:38:55.000Z</time></trkpt>
        <trkpt lat="28.149375" lon="105.751064"><ele>1571.5148</ele><time>2026-08-15T17:39:31.000Z</time></trkpt>
        <trkpt lat="28.149376" lon="105.751091"><ele>1571.1681</ele><time>2026-08-15T17:39:33.000Z</time></trkpt>
        <trkpt lat="28.149376" lon="105.751093"><ele>1569.7942</ele><time>2026-08-15T17:39:35.000Z</time></trkpt>
        <trkpt lat="28.149379" lon="105.7511"><ele>1570.415</ele><time>2026-08-15T17:39:39.000Z</time></trkpt>
        <trkpt lat="28.149392" lon="105.751124"><ele>1570.1862</ele><time>2026-08-15T17:39:51.000Z</time></trkpt>
        <trkpt lat="28.149395" lon="105.751125"><ele>1570.9801</ele><time>2026-08-15T17:39:53.000Z</time></trkpt>
        <trkpt lat="28.1494" lon="105.751122"><ele>1571.709</ele><time>2026-08-15T17:39:55.000Z</time></trkpt>
        <trkpt lat="28.149422" lon="105.751109"><ele>1575.473</ele><time>2026-08-15T17:40:16.000Z</time></trkpt>
        <trkpt lat="28.149443" lon="105.751144"><ele>1574.9792</ele><time>2026-08-15T17:40:24.000Z</time></trkpt>
        <trkpt lat="28.149443" lon="105.751144"><ele>1575.1019</ele><time>2026-08-15T17:40:26.000Z</time></trkpt>
        <trkpt lat="28.149443" lon="105.751144"><ele>1575.1041</ele><time>2026-08-15T17:40:28.000Z</time></trkpt>
        <trkpt lat="28.149445" lon="105.751184"><ele>1581.5955</ele><time>2026-08-15T17:41:08.000Z</time></trkpt>
        <trkpt lat="28.149446" lon="105.751188"><ele>1582.0737</ele><time>2026-08-15T17:41:10.000Z</time></trkpt>
        <trkpt lat="28.149448" lon="105.751195"><ele>1581.9601</ele><time>2026-08-15T17:41:12.000Z</time></trkpt>
        <trkpt lat="28.149459" lon="105.75123"><ele>1581.7671</ele><time>2026-08-15T17:41:39.000Z</time></trkpt>
        <trkpt lat="28.149462" lon="105.751232"><ele>1583.3182</ele><time>2026-08-15T17:41:41.000Z</time></trkpt>
        <trkpt lat="28.149462" lon="105.751233"><ele>1584.5917</ele><time>2026-08-15T17:41:43.000Z</time></trkpt>
        <trkpt lat="28.149485" lon="105.751278"><ele>1591.1097</ele><time>2026-08-15T17:42:21.000Z</time></trkpt>
        <trkpt lat="28.149487" lon="105.751283"><ele>1590.6898</ele><time>2026-08-15T17:42:23.000Z</time></trkpt>
        <trkpt lat="28.14949" lon="105.751289"><ele>1590.63</ele><time>2026-08-15T17:42:25.000Z</time></trkpt>
        <trkpt lat="28.149495" lon="105.75131"><ele>1593.5148</ele><time>2026-08-15T17:42:43.000Z</time></trkpt>
        <trkpt lat="28.149495" lon="105.751317"><ele>1594.0598</ele><time>2026-08-15T17:42:47.000Z</time></trkpt>
        <trkpt lat="28.149498" lon="105.75132"><ele>1594.4655</ele><time>2026-08-15T17:42:49.000Z</time></trkpt>
        <trkpt lat="28.149515" lon="105.751338"><ele>1595.316</ele><time>2026-08-15T17:43:16.000Z</time></trkpt>
        <trkpt lat="28.14952" lon="105.751345"><ele>1596.5573</ele><time>2026-08-15T17:43:24.000Z</time></trkpt>
        <trkpt lat="28.14952" lon="105.751351"><ele>1597.5527</ele><time>2026-08-15T17:43:26.000Z</time></trkpt>
        <trkpt lat="28.14952" lon="105.751372"><ele>1599.0853</ele><time>2026-08-15T17:43:32.000Z</time></trkpt>
        <trkpt lat="28.149521" lon="105.75138"><ele>1599.2045</ele><time>2026-08-15T17:43:36.000Z</time></trkpt>
        <trkpt lat="28.149524" lon="105.751397"><ele>1598.8861</ele><time>2026-08-15T17:43:38.000Z</time></trkpt>
        <trkpt lat="28.149525" lon="105.751408"><ele>1598.6218</ele><time>2026-08-15T17:43:46.000Z</time></trkpt>
        <trkpt lat="28.149531" lon="105.751417"><ele>1598.255</ele><time>2026-08-15T17:43:52.000Z</time></trkpt>
        <trkpt lat="28.149542" lon="105.751431"><ele>1601.1484</ele><time>2026-08-15T17:43:59.000Z</time></trkpt>
        <trkpt lat="28.149546" lon="105.751436"><ele>1602.1819</ele><time>2026-08-15T17:44:01.000Z</time></trkpt>
        <trkpt lat="28.149544" lon="105.751439"><ele>1603.1084</ele><time>2026-08-15T17:44:05.000Z</time></trkpt>
        <trkpt lat="28.149529" lon="105.751464"><ele>1606.7572</ele><time>2026-08-15T17:44:21.000Z</time></trkpt>
        <trkpt lat="28.149526" lon="105.751464"><ele>1606.425</ele><time>2026-08-15T17:44:23.000Z</time></trkpt>
        <trkpt lat="28.149525" lon="105.751463"><ele>1608.2719</ele><time>2026-08-15T17:44:25.000Z</time></trkpt>
        <trkpt lat="28.149546" lon="105.751498"><ele>1608.2742</ele><time>2026-08-15T17:44:40.000Z</time></trkpt>
        <trkpt lat="28.149563" lon="105.751526"><ele>1608.3973</ele><time>2026-08-15T17:44:42.000Z</time></trkpt>
        <trkpt lat="28.149565" lon="105.751528"><ele>1608.4633</ele><time>2026-08-15T17:44:44.000Z</time></trkpt>
        <trkpt lat="28.149565" lon="105.751532"><ele>1608.9211</ele><time>2026-08-15T17:44:46.000Z</time></trkpt>
        <trkpt lat="28.149568" lon="105.751574"><ele>1609.0723</ele><time>2026-08-15T17:44:50.000Z</time></trkpt>
        <trkpt lat="28.149567" lon="105.751606"><ele>1608.1797</ele><time>2026-08-15T17:44:52.000Z</time></trkpt>
        <trkpt lat="28.149563" lon="105.751635"><ele>1608.4294</ele><time>2026-08-15T17:44:54.000Z</time></trkpt>
        <trkpt lat="28.149567" lon="105.75165"><ele>1608.7897</ele><time>2026-08-15T17:44:56.000Z</time></trkpt>
        <trkpt lat="28.14957" lon="105.751653"><ele>1608.5918</ele><time>2026-08-15T17:44:58.000Z</time></trkpt>
        <trkpt lat="28.149583" lon="105.751666"><ele>1607.3242</ele><time>2026-08-15T17:45:02.000Z</time></trkpt>
        <trkpt lat="28.149618" lon="105.751644"><ele>1606.9395</ele><time>2026-08-15T17:45:06.000Z</time></trkpt>
        <trkpt lat="28.149618" lon="105.751645"><ele>1606.6569</ele><time>2026-08-15T17:45:08.000Z</time></trkpt>
        <trkpt lat="28.149619" lon="105.751649"><ele>1606.9333</ele><time>2026-08-15T17:45:10.000Z</time></trkpt>
        <trkpt lat="28.149629" lon="105.751691"><ele>1606.8682</ele><time>2026-08-15T17:45:14.000Z</time></trkpt>
        <trkpt lat="28.149629" lon="105.751712"><ele>1605.9335</ele><time>2026-08-15T17:45:16.000Z</time></trkpt>
        <trkpt lat="28.149627" lon="105.751728"><ele>1606.9731</ele><time>2026-08-15T17:45:18.000Z</time></trkpt>
        <trkpt lat="28.149629" lon="105.751729"><ele>1606.913</ele><time>2026-08-15T17:45:20.000Z</time></trkpt>
        <trkpt lat="28.149598" lon="105.751708"><ele>1611.2712</ele><time>2026-08-15T17:45:34.000Z</time></trkpt>
        <trkpt lat="28.149596" lon="105.751706"><ele>1611.838</ele><time>2026-08-15T17:45:36.000Z</time></trkpt>
        <trkpt lat="28.149584" lon="105.751707"><ele>1613.1742</ele><time>2026-08-15T17:45:38.000Z</time></trkpt>
        <trkpt lat="28.149567" lon="105.751709"><ele>1614.6207</ele><time>2026-08-15T17:45:48.000Z</time></trkpt>
        <trkpt lat="28.149598" lon="105.751753"><ele>1620.7128</ele><time>2026-08-15T17:46:00.000Z</time></trkpt>
        <trkpt lat="28.149605" lon="105.751763"><ele>1621.6459</ele><time>2026-08-15T17:46:02.000Z</time></trkpt>
        <trkpt lat="28.149605" lon="105.751763"><ele>1621.1646</ele><time>2026-08-15T17:46:04.000Z</time></trkpt>
        <trkpt lat="28.149623" lon="105.751784"><ele>1622.2152</ele><time>2026-08-15T17:46:12.000Z</time></trkpt>
        <trkpt lat="28.149624" lon="105.751791"><ele>1621.1875</ele><time>2026-08-15T17:46:14.000Z</time></trkpt>
        <trkpt lat="28.149629" lon="105.751804"><ele>1621.3431</ele><time>2026-08-15T17:46:16.000Z</time></trkpt>
        <trkpt lat="28.149636" lon="105.751806"><ele>1622.421</ele><time>2026-08-15T17:46:29.000Z</time></trkpt>
        <trkpt lat="28.149659" lon="105.75181"><ele>1623.8843</ele><time>2026-08-15T17:46:31.000Z</time></trkpt>
        <trkpt lat="28.149659" lon="105.75181"><ele>1624.4852</ele><time>2026-08-15T17:46:33.000Z</time></trkpt>
        <trkpt lat="28.149657" lon="105.751843"><ele>1627.7546</ele><time>2026-08-15T17:46:41.000Z</time></trkpt>
        <trkpt lat="28.149659" lon="105.751845"><ele>1628.3243</ele><time>2026-08-15T17:46:43.000Z</time></trkpt>
        <trkpt lat="28.14968" lon="105.751864"><ele>1628.589</ele><time>2026-08-15T17:46:45.000Z</time></trkpt>
        <trkpt lat="28.149681" lon="105.751865"><ele>1629.3254</ele><time>2026-08-15T17:46:47.000Z</time></trkpt>
        <trkpt lat="28.149682" lon="105.751869"><ele>1629.9542</ele><time>2026-08-15T17:46:51.000Z</time></trkpt>
        <trkpt lat="28.149686" lon="105.751899"><ele>1631.0806</ele><time>2026-08-15T17:47:05.000Z</time></trkpt>
        <trkpt lat="28.149685" lon="105.751907"><ele>1630.2556</ele><time>2026-08-15T17:47:07.000Z</time></trkpt>
        <trkpt lat="28.149683" lon="105.751912"><ele>1630.8895</ele><time>2026-08-15T17:47:09.000Z</time></trkpt>
        <trkpt lat="28.149674" lon="105.751938"><ele>1630.8219</ele><time>2026-08-15T17:47:15.000Z</time></trkpt>
        <trkpt lat="28.149674" lon="105.751938"><ele>1630.9056</ele><time>2026-08-15T17:47:17.000Z</time></trkpt>
        <trkpt lat="28.149693" lon="105.751948"><ele>1630.718</ele><time>2026-08-15T17:47:19.000Z</time></trkpt>
        <trkpt lat="28.149705" lon="105.751955"><ele>1628.8912</ele><time>2026-08-15T17:47:27.000Z</time></trkpt>
        <trkpt lat="28.149711" lon="105.751955"><ele>1628.7141</ele><time>2026-08-15T17:47:29.000Z</time></trkpt>
        <trkpt lat="28.149722" lon="105.751962"><ele>1631.3319</ele><time>2026-08-15T17:47:35.000Z</time></trkpt>
        <trkpt lat="28.149737" lon="105.751976"><ele>1634.2677</ele><time>2026-08-15T17:47:41.000Z</time></trkpt>
        <trkpt lat="28.149741" lon="105.751983"><ele>1635.3925</ele><time>2026-08-15T17:47:43.000Z</time></trkpt>
        <trkpt lat="28.149747" lon="105.751984"><ele>1636.1594</ele><time>2026-08-15T17:47:45.000Z</time></trkpt>
        <trkpt lat="28.149772" lon="105.751993"><ele>1642.935</ele><time>2026-08-15T17:47:55.000Z</time></trkpt>
        <trkpt lat="28.149794" lon="105.752"><ele>1642.6459</ele><time>2026-08-15T17:47:57.000Z</time></trkpt>
        <trkpt lat="28.149795" lon="105.752001"><ele>1642.165</ele><time>2026-08-15T17:47:59.000Z</time></trkpt>
        <trkpt lat="28.149805" lon="105.75201"><ele>1642.0336</ele><time>2026-08-15T17:48:03.000Z</time></trkpt>
        <trkpt lat="28.149831" lon="105.752035"><ele>1643.2247</ele><time>2026-08-15T17:48:07.000Z</time></trkpt>
        <trkpt lat="28.14984" lon="105.752046"><ele>1644.3584</ele><time>2026-08-15T17:48:09.000Z</time></trkpt>
        <trkpt lat="28.149848" lon="105.752059"><ele>1645.0808</ele><time>2026-08-15T17:48:11.000Z</time></trkpt>
        <trkpt lat="28.14985" lon="105.75207"><ele>1645.873</ele><time>2026-08-15T17:48:13.000Z</time></trkpt>
        <trkpt lat="28.14985" lon="105.752086"><ele>1644.811</ele><time>2026-08-15T17:48:15.000Z</time></trkpt>
        <trkpt lat="28.149852" lon="105.752099"><ele>1645.0839</ele><time>2026-08-15T17:48:17.000Z</time></trkpt>
        <trkpt lat="28.149855" lon="105.752101"><ele>1645.571</ele><time>2026-08-15T17:48:19.000Z</time></trkpt>
        <trkpt lat="28.149874" lon="105.752111"><ele>1647.6172</ele><time>2026-08-15T17:48:25.000Z</time></trkpt>
        <trkpt lat="28.149884" lon="105.752119"><ele>1648.666</ele><time>2026-08-15T17:48:29.000Z</time></trkpt>
        <trkpt lat="28.149884" lon="105.752124"><ele>1648.3737</ele><time>2026-08-15T17:48:31.000Z</time></trkpt>
        <trkpt lat="28.149879" lon="105.752151"><ele>1649.1897</ele><time>2026-08-15T17:48:37.000Z</time></trkpt>
        <trkpt lat="28.149874" lon="105.752174"><ele>1649.5249</ele><time>2026-08-15T17:48:39.000Z</time></trkpt>
        <trkpt lat="28.149874" lon="105.752175"><ele>1649.008</ele><time>2026-08-15T17:48:41.000Z</time></trkpt>
        <trkpt lat="28.149844" lon="105.752135"><ele>1651.995</ele><time>2026-08-15T17:48:47.000Z</time></trkpt>
        <trkpt lat="28.149832" lon="105.752122"><ele>1652.2273</ele><time>2026-08-15T17:48:49.000Z</time></trkpt>
        <trkpt lat="28.149823" lon="105.752117"><ele>1652.0017</ele><time>2026-08-15T17:48:51.000Z</time></trkpt>
        <trkpt lat="28.149823" lon="105.752115"><ele>1652.7048</ele><time>2026-08-15T17:48:53.000Z</time></trkpt>
        <trkpt lat="28.149817" lon="105.752158"><ele>1652.1001</ele><time>2026-08-15T17:49:05.000Z</time></trkpt>
        <trkpt lat="28.149817" lon="105.75216"><ele>1652.4379</ele><time>2026-08-15T17:49:07.000Z</time></trkpt>
        <trkpt lat="28.149817" lon="105.752167"><ele>1652.5848</ele><time>2026-08-15T17:49:09.000Z</time></trkpt>
        <trkpt lat="28.149825" lon="105.752188"><ele>1651.7161</ele><time>2026-08-15T17:49:17.000Z</time></trkpt>
        <trkpt lat="28.149833" lon="105.752207"><ele>1651.4824</ele><time>2026-08-15T17:49:19.000Z</time></trkpt>
        <trkpt lat="28.149834" lon="105.752208"><ele>1652.3062</ele><time>2026-08-15T17:49:21.000Z</time></trkpt>
        <trkpt lat="28.149847" lon="105.752226"><ele>1653.1292</ele><time>2026-08-15T17:49:27.000Z</time></trkpt>
        <trkpt lat="28.149857" lon="105.752241"><ele>1653.2972</ele><time>2026-08-15T17:49:29.000Z</time></trkpt>
        <trkpt lat="28.149863" lon="105.752252"><ele>1654.4865</ele><time>2026-08-15T17:49:31.000Z</time></trkpt>
        <trkpt lat="28.149866" lon="105.752258"><ele>1655.0394</ele><time>2026-08-15T17:49:33.000Z</time></trkpt>
        <trkpt lat="28.149874" lon="105.75227"><ele>1656.7291</ele><time>2026-08-15T17:49:39.000Z</time></trkpt>
        <trkpt lat="28.149889" lon="105.752293"><ele>1658.4664</ele><time>2026-08-15T17:49:43.000Z</time></trkpt>
        <trkpt lat="28.149889" lon="105.752293"><ele>1659.091</ele><time>2026-08-15T17:49:45.000Z</time></trkpt>
        <trkpt lat="28.149896" lon="105.752294"><ele>1659.5104</ele><time>2026-08-15T17:49:51.000Z</time></trkpt>
        <trkpt lat="28.149923" lon="105.752299"><ele>1665.925</ele><time>2026-08-15T17:50:01.000Z</time></trkpt>
        <trkpt lat="28.149925" lon="105.752303"><ele>1666.0726</ele><time>2026-08-15T17:50:03.000Z</time></trkpt>
        <trkpt lat="28.149936" lon="105.752324"><ele>1665.4397</ele><time>2026-08-15T17:50:05.000Z</time></trkpt>
        <trkpt lat="28.149938" lon="105.752329"><ele>1667.2172</ele><time>2026-08-15T17:50:17.000Z</time></trkpt>
        <trkpt lat="28.149942" lon="105.752333"><ele>1666.4846</ele><time>2026-08-15T17:50:19.000Z</time></trkpt>
        <trkpt lat="28.149959" lon="105.752348"><ele>1668.8931</ele><time>2026-08-15T17:50:27.000Z</time></trkpt>
        <trkpt lat="28.149958" lon="105.752349"><ele>1669.0634</ele><time>2026-08-15T17:50:29.000Z</time></trkpt>
        <trkpt lat="28.149957" lon="105.752367"><ele>1668.4287</ele><time>2026-08-15T17:50:37.000Z</time></trkpt>
        <trkpt lat="28.149959" lon="105.752407"><ele>1666.1997</ele><time>2026-08-15T17:50:54.000Z</time></trkpt>
        <trkpt lat="28.14996" lon="105.752421"><ele>1665.6049</ele><time>2026-08-15T17:50:56.000Z</time></trkpt>
        <trkpt lat="28.14996" lon="105.752422"><ele>1665.35</ele><time>2026-08-15T17:50:58.000Z</time></trkpt>
        <trkpt lat="28.149965" lon="105.752445"><ele>1665.2169</ele><time>2026-08-15T17:51:06.000Z</time></trkpt>
        <trkpt lat="28.149969" lon="105.752453"><ele>1665.9071</ele><time>2026-08-15T17:51:08.000Z</time></trkpt>
        <trkpt lat="28.149983" lon="105.75246"><ele>1666.9574</ele><time>2026-08-15T17:51:10.000Z</time></trkpt>
        <trkpt lat="28.149991" lon="105.752466"><ele>1676.8688</ele><time>2026-08-15T17:53:05.000Z</time></trkpt>
        <trkpt lat="28.149995" lon="105.752466"><ele>1677.7168</ele><time>2026-08-15T17:53:07.000Z</time></trkpt>
        <trkpt lat="28.150023" lon="105.752462"><ele>1678.9604</ele><time>2026-08-15T17:53:09.000Z</time></trkpt>
        <trkpt lat="28.150024" lon="105.75246"><ele>1680.5964</ele><time>2026-08-15T17:53:11.000Z</time></trkpt>
        <trkpt lat="28.14998" lon="105.75251"><ele>1681.0298</ele><time>2026-08-15T17:53:20.000Z</time></trkpt>
        <trkpt lat="28.14998" lon="105.75251"><ele>1681.1843</ele><time>2026-08-15T17:53:22.000Z</time></trkpt>
        <trkpt lat="28.149982" lon="105.752511"><ele>1681.1705</ele><time>2026-08-15T17:53:24.000Z</time></trkpt>
        <trkpt lat="28.150012" lon="105.752526"><ele>1681.8457</ele><time>2026-08-15T17:53:29.000Z</time></trkpt>
        <trkpt lat="28.150012" lon="105.752526"><ele>1682.4355</ele><time>2026-08-15T17:53:31.000Z</time></trkpt>
        <trkpt lat="28.150012" lon="105.752527"><ele>1683.5902</ele><time>2026-08-15T17:53:34.000Z</time></trkpt>
        <trkpt lat="28.149996" lon="105.752557"><ele>1683.2854</ele><time>2026-08-15T17:53:42.000Z</time></trkpt>
        <trkpt lat="28.149989" lon="105.75257"><ele>1682.9589</ele><time>2026-08-15T17:53:44.000Z</time></trkpt>
        <trkpt lat="28.149989" lon="105.752571"><ele>1683.1747</ele><time>2026-08-15T17:53:46.000Z</time></trkpt>
        <trkpt lat="28.14999" lon="105.752596"><ele>1683.9222</ele><time>2026-08-15T17:53:56.000Z</time></trkpt>
        <trkpt lat="28.149988" lon="105.752605"><ele>1686.3181</ele><time>2026-08-15T17:54:00.000Z</time></trkpt>
        <trkpt lat="28.149985" lon="105.752609"><ele>1687.6426</ele><time>2026-08-15T17:54:02.000Z</time></trkpt>
        <trkpt lat="28.149973" lon="105.752624"><ele>1689.5188</ele><time>2026-08-15T17:54:08.000Z</time></trkpt>
        <trkpt lat="28.149998" lon="105.752639"><ele>1690.6461</ele><time>2026-08-15T17:54:18.000Z</time></trkpt>
        <trkpt lat="28.149991" lon="105.752659"><ele>1690.5693</ele><time>2026-08-15T17:54:20.000Z</time></trkpt>
        <trkpt lat="28.149991" lon="105.75266"><ele>1691.1353</ele><time>2026-08-15T17:54:22.000Z</time></trkpt>
        <trkpt lat="28.149993" lon="105.752685"><ele>1692.1891</ele><time>2026-08-15T17:54:39.000Z</time></trkpt>
        <trkpt lat="28.149985" lon="105.752745"><ele>1694.9581</ele><time>2026-08-15T17:54:54.000Z</time></trkpt>
        <trkpt lat="28.149974" lon="105.752774"><ele>1698.9202</ele><time>2026-08-15T17:55:09.000Z</time></trkpt>
        <trkpt lat="28.149965" lon="105.752804"><ele>1700.1807</ele><time>2026-08-15T17:55:24.000Z</time></trkpt>
        <trkpt lat="28.149958" lon="105.752856"><ele>1704.5935</ele><time>2026-08-15T17:55:40.000Z</time></trkpt>
        <trkpt lat="28.149959" lon="105.752856"><ele>1705.6824</ele><time>2026-08-15T17:55:45.000Z</time></trkpt>
        <trkpt lat="28.149982" lon="105.752871"><ele>1706.2695</ele><time>2026-08-15T17:55:47.000Z</time></trkpt>
        <trkpt lat="28.149982" lon="105.752872"><ele>1707.7865</ele><time>2026-08-15T17:55:51.000Z</time></trkpt>
        <trkpt lat="28.14998" lon="105.752875"><ele>1707.8427</ele><time>2026-08-15T17:55:53.000Z</time></trkpt>
        <trkpt lat="28.149961" lon="105.7529"><ele>1709.5803</ele><time>2026-08-15T17:56:05.000Z</time></trkpt>
        <trkpt lat="28.149961" lon="105.7529"><ele>1710.9197</ele><time>2026-08-15T17:56:07.000Z</time></trkpt>
        <trkpt lat="28.149973" lon="105.752916"><ele>1709.0286</ele><time>2026-08-15T17:56:09.000Z</time></trkpt>
        <trkpt lat="28.149959" lon="105.752939"><ele>1708.7664</ele><time>2026-08-15T17:56:19.000Z</time></trkpt>
        <trkpt lat="28.149959" lon="105.752939"><ele>1708.0232</ele><time>2026-08-15T17:56:21.000Z</time></trkpt>
        <trkpt lat="28.149985" lon="105.752963"><ele>1711.2845</ele><time>2026-08-15T17:56:29.000Z</time></trkpt>
        <trkpt lat="28.149997" lon="105.752974"><ele>1711.5892</ele><time>2026-08-15T17:56:31.000Z</time></trkpt>
        <trkpt lat="28.149998" lon="105.752975"><ele>1711.7108</ele><time>2026-08-15T17:56:33.000Z</time></trkpt>
        <trkpt lat="28.150021" lon="105.752989"><ele>1711.4988</ele><time>2026-08-15T17:56:37.000Z</time></trkpt>
        <trkpt lat="28.150041" lon="105.753"><ele>1711.3613</ele><time>2026-08-15T17:56:39.000Z</time></trkpt>
        <trkpt lat="28.150059" lon="105.753011"><ele>1711.1514</ele><time>2026-08-15T17:56:41.000Z</time></trkpt>
        <trkpt lat="28.150074" lon="105.753019"><ele>1711.2114</ele><time>2026-08-15T17:56:43.000Z</time></trkpt>
        <trkpt lat="28.150086" lon="105.753028"><ele>1710.8978</ele><time>2026-08-15T17:56:45.000Z</time></trkpt>
        <trkpt lat="28.150092" lon="105.753036"><ele>1711.1685</ele><time>2026-08-15T17:56:47.000Z</time></trkpt>
        <trkpt lat="28.150093" lon="105.753042"><ele>1710.8444</ele><time>2026-08-15T17:56:49.000Z</time></trkpt>
        <trkpt lat="28.150099" lon="105.753063"><ele>1712.6082</ele><time>2026-08-15T17:56:57.000Z</time></trkpt>
        <trkpt lat="28.1501" lon="105.75307"><ele>1712.6262</ele><time>2026-08-15T17:57:01.000Z</time></trkpt>
        <trkpt lat="28.150101" lon="105.753075"><ele>1712.5918</ele><time>2026-08-15T17:57:07.000Z</time></trkpt>
        <trkpt lat="28.150104" lon="105.753097"><ele>1713.7628</ele><time>2026-08-15T17:57:17.000Z</time></trkpt>
        <trkpt lat="28.150101" lon="105.753101"><ele>1713.5853</ele><time>2026-08-15T17:57:19.000Z</time></trkpt>
        <trkpt lat="28.150088" lon="105.753129"><ele>1714.4098</ele><time>2026-08-15T17:57:21.000Z</time></trkpt>
        <trkpt lat="28.150082" lon="105.753143"><ele>1714.5093</ele><time>2026-08-15T17:57:36.000Z</time></trkpt>
        <trkpt lat="28.150135" lon="105.75317"><ele>1719.1584</ele><time>2026-08-15T17:57:52.000Z</time></trkpt>
        <trkpt lat="28.150174" lon="105.753177"><ele>1726.445</ele><time>2026-08-15T17:58:08.000Z</time></trkpt>
        <trkpt lat="28.150194" lon="105.753181"><ele>1727.3701</ele><time>2026-08-15T17:58:24.000Z</time></trkpt>
        <trkpt lat="28.150178" lon="105.753189"><ele>1726.334</ele><time>2026-08-15T17:58:39.000Z</time></trkpt>
        <trkpt lat="28.150153" lon="105.753213"><ele>1720.0621</ele><time>2026-08-15T18:02:56.000Z</time></trkpt>
        <trkpt lat="28.150163" lon="105.753206"><ele>1719.9474</ele><time>2026-08-15T18:03:06.000Z</time></trkpt>
        <trkpt lat="28.150164" lon="105.753211"><ele>1720.8353</ele><time>2026-08-15T18:03:15.000Z</time></trkpt>
        <trkpt lat="28.150161" lon="105.753179"><ele>1723.0217</ele><time>2026-08-15T18:03:39.000Z</time></trkpt>
        <trkpt lat="28.15013" lon="105.753198"><ele>1723.6656</ele><time>2026-08-15T18:04:02.000Z</time></trkpt>
        <trkpt lat="28.15013" lon="105.753198"><ele>1723.201</ele><time>2026-08-15T18:04:04.000Z</time></trkpt>
        <trkpt lat="28.150129" lon="105.753201"><ele>1723.2925</ele><time>2026-08-15T18:04:06.000Z</time></trkpt>
        <trkpt lat="28.15011" lon="105.753231"><ele>1723.941</ele><time>2026-08-15T18:04:10.000Z</time></trkpt>
        <trkpt lat="28.1501" lon="105.753251"><ele>1725.0891</ele><time>2026-08-15T18:04:12.000Z</time></trkpt>
        <trkpt lat="28.150092" lon="105.753272"><ele>1724.7764</ele><time>2026-08-15T18:04:14.000Z</time></trkpt>
        <trkpt lat="28.150085" lon="105.753293"><ele>1724.8307</ele><time>2026-08-15T18:04:16.000Z</time></trkpt>
        <trkpt lat="28.15008" lon="105.753309"><ele>1724.8513</ele><time>2026-08-15T18:04:18.000Z</time></trkpt>
        <trkpt lat="28.150077" lon="105.753316"><ele>1725.4128</ele><time>2026-08-15T18:04:20.000Z</time></trkpt>
        <trkpt lat="28.150074" lon="105.75333"><ele>1725.9607</ele><time>2026-08-15T18:04:24.000Z</time></trkpt>
        <trkpt lat="28.15007" lon="105.753345"><ele>1725.5936</ele><time>2026-08-15T18:04:26.000Z</time></trkpt>
        <trkpt lat="28.150067" lon="105.753348"><ele>1726.1288</ele><time>2026-08-15T18:04:30.000Z</time></trkpt>
        <trkpt lat="28.150056" lon="105.753356"><ele>1725.0205</ele><time>2026-08-15T18:04:32.000Z</time></trkpt>
        <trkpt lat="28.150042" lon="105.753367"><ele>1724.6805</ele><time>2026-08-15T18:04:34.000Z</time></trkpt>
        <trkpt lat="28.150031" lon="105.753376"><ele>1725.002</ele><time>2026-08-15T18:04:36.000Z</time></trkpt>
        <trkpt lat="28.15003" lon="105.753375"><ele>1725.002</ele><time>2026-08-15T18:04:38.000Z</time></trkpt>
        <trkpt lat="28.150013" lon="105.75335"><ele>1725.1371</ele><time>2026-08-15T18:04:46.000Z</time></trkpt>
        <trkpt lat="28.150012" lon="105.753345"><ele>1725.1371</ele><time>2026-08-15T18:04:48.000Z</time></trkpt>
        <trkpt lat="28.150012" lon="105.753342"><ele>1724.8796</ele><time>2026-08-15T18:04:50.000Z</time></trkpt>
        <trkpt lat="28.15001" lon="105.753387"><ele>1726.7947</ele><time>2026-08-15T18:05:12.000Z</time></trkpt>
        <trkpt lat="28.150007" lon="105.75339"><ele>1726.6189</ele><time>2026-08-15T18:05:14.000Z</time></trkpt>
        <trkpt lat="28.150002" lon="105.753392"><ele>1726.2483</ele><time>2026-08-15T18:05:16.000Z</time></trkpt>
        <trkpt lat="28.149972" lon="105.753403"><ele>1724.581</ele><time>2026-08-15T18:05:20.000Z</time></trkpt>
        <trkpt lat="28.149959" lon="105.753412"><ele>1723.9093</ele><time>2026-08-15T18:05:22.000Z</time></trkpt>
        <trkpt lat="28.149949" lon="105.753427"><ele>1723.9222</ele><time>2026-08-15T18:05:24.000Z</time></trkpt>
        <trkpt lat="28.149937" lon="105.75345"><ele>1725.4664</ele><time>2026-08-15T18:05:26.000Z</time></trkpt>
        <trkpt lat="28.149924" lon="105.753473"><ele>1725.9557</ele><time>2026-08-15T18:05:28.000Z</time></trkpt>
        <trkpt lat="28.149914" lon="105.753491"><ele>1725.32</ele><time>2026-08-15T18:05:30.000Z</time></trkpt>
        <trkpt lat="28.149907" lon="105.753499"><ele>1724.8514</ele><time>2026-08-15T18:05:32.000Z</time></trkpt>
        <trkpt lat="28.149906" lon="105.753503"><ele>1724.5013</ele><time>2026-08-15T18:05:34.000Z</time></trkpt>
        <trkpt lat="28.149898" lon="105.753529"><ele>1725.9003</ele><time>2026-08-15T18:05:38.000Z</time></trkpt>
        <trkpt lat="28.149897" lon="105.753532"><ele>1725.5957</ele><time>2026-08-15T18:05:42.000Z</time></trkpt>
        <trkpt lat="28.149889" lon="105.753547"><ele>1725.5094</ele><time>2026-08-15T18:05:44.000Z</time></trkpt>
        <trkpt lat="28.149871" lon="105.753573"><ele>1725.0637</ele><time>2026-08-15T18:05:46.000Z</time></trkpt>
        <trkpt lat="28.149849" lon="105.753599"><ele>1725.7429</ele><time>2026-08-15T18:05:48.000Z</time></trkpt>
        <trkpt lat="28.149826" lon="105.753619"><ele>1726.3993</ele><time>2026-08-15T18:05:50.000Z</time></trkpt>
        <trkpt lat="28.149805" lon="105.753632"><ele>1725.7307</ele><time>2026-08-15T18:05:52.000Z</time></trkpt>
        <trkpt lat="28.149786" lon="105.753638"><ele>1725.2811</ele><time>2026-08-15T18:05:54.000Z</time></trkpt>
        <trkpt lat="28.149765" lon="105.753642"><ele>1725.5702</ele><time>2026-08-15T18:05:56.000Z</time></trkpt>
        <trkpt lat="28.149738" lon="105.753646"><ele>1725.103</ele><time>2026-08-15T18:05:58.000Z</time></trkpt>
        <trkpt lat="28.149717" lon="105.753646"><ele>1724.0781</ele><time>2026-08-15T18:06:00.000Z</time></trkpt>
        <trkpt lat="28.149697" lon="105.753646"><ele>1722.7007</ele><time>2026-08-15T18:06:02.000Z</time></trkpt>
        <trkpt lat="28.149679" lon="105.753645"><ele>1722.0038</ele><time>2026-08-15T18:06:04.000Z</time></trkpt>
        <trkpt lat="28.149661" lon="105.753647"><ele>1721.607</ele><time>2026-08-15T18:06:06.000Z</time></trkpt>
        <trkpt lat="28.149637" lon="105.75365"><ele>1722.4137</ele><time>2026-08-15T18:06:08.000Z</time></trkpt>
        <trkpt lat="28.149611" lon="105.753657"><ele>1722.5205</ele><time>2026-08-15T18:06:10.000Z</time></trkpt>
        <trkpt lat="28.149583" lon="105.753666"><ele>1723.778</ele><time>2026-08-15T18:06:12.000Z</time></trkpt>
        <trkpt lat="28.14956" lon="105.753677"><ele>1723.76</ele><time>2026-08-15T18:06:14.000Z</time></trkpt>
        <trkpt lat="28.149536" lon="105.753692"><ele>1723.3539</ele><time>2026-08-15T18:06:16.000Z</time></trkpt>
        <trkpt lat="28.14951" lon="105.75371"><ele>1723.8868</ele><time>2026-08-15T18:06:18.000Z</time></trkpt>
        <trkpt lat="28.149486" lon="105.753727"><ele>1723.3282</ele><time>2026-08-15T18:06:20.000Z</time></trkpt>
        <trkpt lat="28.149457" lon="105.753747"><ele>1722.7015</ele><time>2026-08-15T18:06:22.000Z</time></trkpt>
        <trkpt lat="28.149433" lon="105.753763"><ele>1722.5398</ele><time>2026-08-15T18:06:24.000Z</time></trkpt>
        <trkpt lat="28.149411" lon="105.753777"><ele>1722.3365</ele><time>2026-08-15T18:06:26.000Z</time></trkpt>
        <trkpt lat="28.149389" lon="105.75379"><ele>1722.5078</ele><time>2026-08-15T18:06:28.000Z</time></trkpt>
        <trkpt lat="28.149371" lon="105.7538"><ele>1721.9567</ele><time>2026-08-15T18:06:30.000Z</time></trkpt>
        <trkpt lat="28.149352" lon="105.753812"><ele>1722.0387</ele><time>2026-08-15T18:06:32.000Z</time></trkpt>
        <trkpt lat="28.149329" lon="105.753825"><ele>1722.4834</ele><time>2026-08-15T18:06:34.000Z</time></trkpt>
        <trkpt lat="28.149308" lon="105.753838"><ele>1721.9275</ele><time>2026-08-15T18:06:36.000Z</time></trkpt>
        <trkpt lat="28.149286" lon="105.753852"><ele>1720.9141</ele><time>2026-08-15T18:06:38.000Z</time></trkpt>
        <trkpt lat="28.149269" lon="105.753865"><ele>1721.1573</ele><time>2026-08-15T18:06:40.000Z</time></trkpt>
        <trkpt lat="28.149249" lon="105.753881"><ele>1720.8572</ele><time>2026-08-15T18:06:42.000Z</time></trkpt>
        <trkpt lat="28.14923" lon="105.753897"><ele>1721.0117</ele><time>2026-08-15T18:06:44.000Z</time></trkpt>
        <trkpt lat="28.149211" lon="105.75391"><ele>1720.7083</ele><time>2026-08-15T18:06:46.000Z</time></trkpt>
        <trkpt lat="28.149191" lon="105.75392"><ele>1720.2422</ele><time>2026-08-15T18:06:48.000Z</time></trkpt>
        <trkpt lat="28.149168" lon="105.753927"><ele>1719.9285</ele><time>2026-08-15T18:06:50.000Z</time></trkpt>
        <trkpt lat="28.149142" lon="105.753933"><ele>1720.3591</ele><time>2026-08-15T18:06:52.000Z</time></trkpt>
        <trkpt lat="28.149116" lon="105.753937"><ele>1720.0304</ele><time>2026-08-15T18:06:54.000Z</time></trkpt>
        <trkpt lat="28.149094" lon="105.75394"><ele>1720.6204</ele><time>2026-08-15T18:06:56.000Z</time></trkpt>
        <trkpt lat="28.149066" lon="105.753942"><ele>1721.1249</ele><time>2026-08-15T18:06:58.000Z</time></trkpt>
        <trkpt lat="28.149044" lon="105.753946"><ele>1720.0264</ele><time>2026-08-15T18:07:00.000Z</time></trkpt>
        <trkpt lat="28.149021" lon="105.753956"><ele>1720.0184</ele><time>2026-08-15T18:07:02.000Z</time></trkpt>
        <trkpt lat="28.148999" lon="105.753972"><ele>1719.6781</ele><time>2026-08-15T18:07:04.000Z</time></trkpt>
        <trkpt lat="28.148981" lon="105.753992"><ele>1719.754</ele><time>2026-08-15T18:07:06.000Z</time></trkpt>
        <trkpt lat="28.148964" lon="105.754018"><ele>1719.1483</ele><time>2026-08-15T18:07:08.000Z</time></trkpt>
        <trkpt lat="28.148953" lon="105.754042"><ele>1719.2216</ele><time>2026-08-15T18:07:10.000Z</time></trkpt>
        <trkpt lat="28.148944" lon="105.754069"><ele>1718.7822</ele><time>2026-08-15T18:07:12.000Z</time></trkpt>
        <trkpt lat="28.148935" lon="105.754092"><ele>1718.9789</ele><time>2026-08-15T18:07:14.000Z</time></trkpt>
        <trkpt lat="28.148926" lon="105.75411"><ele>1717.161</ele><time>2026-08-15T18:07:16.000Z</time></trkpt>
        <trkpt lat="28.148917" lon="105.75412"><ele>1717.0997</ele><time>2026-08-15T18:07:18.000Z</time></trkpt>
        <trkpt lat="28.148903" lon="105.75413"><ele>1716.0956</ele><time>2026-08-15T18:07:20.000Z</time></trkpt>
        <trkpt lat="28.148881" lon="105.75415"><ele>1717.4038</ele><time>2026-08-15T18:07:22.000Z</time></trkpt>
        <trkpt lat="28.148859" lon="105.754175"><ele>1718.3737</ele><time>2026-08-15T18:07:24.000Z</time></trkpt>
        <trkpt lat="28.148844" lon="105.754202"><ele>1718.354</ele><time>2026-08-15T18:07:26.000Z</time></trkpt>
        <trkpt lat="28.148837" lon="105.754223"><ele>1718.3676</ele><time>2026-08-15T18:07:28.000Z</time></trkpt>
        <trkpt lat="28.148832" lon="105.754249"><ele>1718.7406</ele><time>2026-08-15T18:07:30.000Z</time></trkpt>
        <trkpt lat="28.148834" lon="105.754276"><ele>1719.2266</ele><time>2026-08-15T18:07:32.000Z</time></trkpt>
        <trkpt lat="28.14884" lon="105.754297"><ele>1720.1061</ele><time>2026-08-15T18:07:34.000Z</time></trkpt>
        <trkpt lat="28.148842" lon="105.754322"><ele>1720.2198</ele><time>2026-08-15T18:07:36.000Z</time></trkpt>
        <trkpt lat="28.148841" lon="105.754347"><ele>1719.7618</ele><time>2026-08-15T18:07:38.000Z</time></trkpt>
        <trkpt lat="28.148835" lon="105.754373"><ele>1719.7151</ele><time>2026-08-15T18:07:40.000Z</time></trkpt>
        <trkpt lat="28.148825" lon="105.754398"><ele>1719.367</ele><time>2026-08-15T18:07:42.000Z</time></trkpt>
        <trkpt lat="28.148814" lon="105.754417"><ele>1718.2748</ele><time>2026-08-15T18:07:44.000Z</time></trkpt>
        <trkpt lat="28.148801" lon="105.754437"><ele>1718.582</ele><time>2026-08-15T18:07:46.000Z</time></trkpt>
        <trkpt lat="28.148788" lon="105.754457"><ele>1719.0403</ele><time>2026-08-15T18:07:48.000Z</time></trkpt>
        <trkpt lat="28.148781" lon="105.754475"><ele>1720.3152</ele><time>2026-08-15T18:07:50.000Z</time></trkpt>
        <trkpt lat="28.148775" lon="105.754496"><ele>1721.4264</ele><time>2026-08-15T18:07:52.000Z</time></trkpt>
        <trkpt lat="28.14877" lon="105.754524"><ele>1721.7101</ele><time>2026-08-15T18:07:54.000Z</time></trkpt>
        <trkpt lat="28.148763" lon="105.754549"><ele>1720.8362</ele><time>2026-08-15T18:07:56.000Z</time></trkpt>
        <trkpt lat="28.148757" lon="105.754572"><ele>1721.7445</ele><time>2026-08-15T18:07:58.000Z</time></trkpt>
        <trkpt lat="28.148753" lon="105.75459"><ele>1721.3242</ele><time>2026-08-15T18:08:00.000Z</time></trkpt>
        <trkpt lat="28.148749" lon="105.754604"><ele>1721.0884</ele><time>2026-08-15T18:08:02.000Z</time></trkpt>
        <trkpt lat="28.148742" lon="105.75462"><ele>1720.6195</ele><time>2026-08-15T18:08:04.000Z</time></trkpt>
        <trkpt lat="28.148731" lon="105.75464"><ele>1719.6718</ele><time>2026-08-15T18:08:06.000Z</time></trkpt>
        <trkpt lat="28.148722" lon="105.754659"><ele>1719.7316</ele><time>2026-08-15T18:08:08.000Z</time></trkpt>
        <trkpt lat="28.148712" lon="105.754682"><ele>1719.4749</ele><time>2026-08-15T18:08:10.000Z</time></trkpt>
        <trkpt lat="28.1487" lon="105.754708"><ele>1720.2588</ele><time>2026-08-15T18:08:12.000Z</time></trkpt>
        <trkpt lat="28.148691" lon="105.754732"><ele>1720.1967</ele><time>2026-08-15T18:08:14.000Z</time></trkpt>
        <trkpt lat="28.148681" lon="105.754755"><ele>1720.0062</ele><time>2026-08-15T18:08:16.000Z</time></trkpt>
        <trkpt lat="28.148669" lon="105.754782"><ele>1719.5078</ele><time>2026-08-15T18:08:18.000Z</time></trkpt>
        <trkpt lat="28.148654" lon="105.754813"><ele>1719.6072</ele><time>2026-08-15T18:08:20.000Z</time></trkpt>
        <trkpt lat="28.148639" lon="105.754838"><ele>1718.5961</ele><time>2026-08-15T18:08:22.000Z</time></trkpt>
        <trkpt lat="28.148624" lon="105.754856"><ele>1718.0643</ele><time>2026-08-15T18:08:24.000Z</time></trkpt>
        <trkpt lat="28.14861" lon="105.754868"><ele>1717.3148</ele><time>2026-08-15T18:08:26.000Z</time></trkpt>
        <trkpt lat="28.148595" lon="105.754879"><ele>1717.6251</ele><time>2026-08-15T18:08:28.000Z</time></trkpt>
        <trkpt lat="28.148577" lon="105.754892"><ele>1718.5156</ele><time>2026-08-15T18:08:30.000Z</time></trkpt>
        <trkpt lat="28.148564" lon="105.754902"><ele>1717.7726</ele><time>2026-08-15T18:08:32.000Z</time></trkpt>
        <trkpt lat="28.148549" lon="105.754915"><ele>1717.9333</ele><time>2026-08-15T18:08:34.000Z</time></trkpt>
        <trkpt lat="28.148535" lon="105.754931"><ele>1718.2362</ele><time>2026-08-15T18:08:36.000Z</time></trkpt>
        <trkpt lat="28.148521" lon="105.754953"><ele>1718.6816</ele><time>2026-08-15T18:08:38.000Z</time></trkpt>
        <trkpt lat="28.148507" lon="105.754976"><ele>1719.4224</ele><time>2026-08-15T18:08:40.000Z</time></trkpt>
        <trkpt lat="28.148495" lon="105.754998"><ele>1718.7952</ele><time>2026-08-15T18:08:42.000Z</time></trkpt>
        <trkpt lat="28.148486" lon="105.75502"><ele>1718.1266</ele><time>2026-08-15T18:08:44.000Z</time></trkpt>
        <trkpt lat="28.148476" lon="105.755046"><ele>1717.9808</ele><time>2026-08-15T18:08:46.000Z</time></trkpt>
        <trkpt lat="28.148463" lon="105.755073"><ele>1718.7012</ele><time>2026-08-15T18:08:48.000Z</time></trkpt>
        <trkpt lat="28.148447" lon="105.755103"><ele>1719.0248</ele><time>2026-08-15T18:08:50.000Z</time></trkpt>
        <trkpt lat="28.14843" lon="105.755131"><ele>1718.47</ele><time>2026-08-15T18:08:52.000Z</time></trkpt>
        <trkpt lat="28.148417" lon="105.755151"><ele>1718.5386</ele><time>2026-08-15T18:08:54.000Z</time></trkpt>
        <trkpt lat="28.148405" lon="105.755164"><ele>1718.4214</ele><time>2026-08-15T18:08:56.000Z</time></trkpt>
        <trkpt lat="28.148391" lon="105.755181"><ele>1719.5162</ele><time>2026-08-15T18:08:58.000Z</time></trkpt>
        <trkpt lat="28.148376" lon="105.755201"><ele>1719.8352</ele><time>2026-08-15T18:09:00.000Z</time></trkpt>
        <trkpt lat="28.148362" lon="105.75522"><ele>1720.0522</ele><time>2026-08-15T18:09:02.000Z</time></trkpt>
        <trkpt lat="28.148353" lon="105.755236"><ele>1718.9968</ele><time>2026-08-15T18:09:04.000Z</time></trkpt>
        <trkpt lat="28.148351" lon="105.755248"><ele>1718.4115</ele><time>2026-08-15T18:09:06.000Z</time></trkpt>
        <trkpt lat="28.14835" lon="105.755263"><ele>1718.1042</ele><time>2026-08-15T18:09:08.000Z</time></trkpt>
        <trkpt lat="28.148349" lon="105.755276"><ele>1717.7109</ele><time>2026-08-15T18:09:10.000Z</time></trkpt>
        <trkpt lat="28.148345" lon="105.755287"><ele>1716.8942</ele><time>2026-08-15T18:09:12.000Z</time></trkpt>
        <trkpt lat="28.148338" lon="105.755298"><ele>1717.1932</ele><time>2026-08-15T18:09:14.000Z</time></trkpt>
        <trkpt lat="28.148333" lon="105.755305"><ele>1716.8486</ele><time>2026-08-15T18:09:16.000Z</time></trkpt>
        <trkpt lat="28.148323" lon="105.755315"><ele>1716.4883</ele><time>2026-08-15T18:09:18.000Z</time></trkpt>
        <trkpt lat="28.148312" lon="105.755324"><ele>1716.2914</ele><time>2026-08-15T18:09:20.000Z</time></trkpt>
        <trkpt lat="28.148299" lon="105.755335"><ele>1716.0333</ele><time>2026-08-15T18:09:22.000Z</time></trkpt>
        <trkpt lat="28.148286" lon="105.755344"><ele>1715.3035</ele><time>2026-08-15T18:09:24.000Z</time></trkpt>
        <trkpt lat="28.148274" lon="105.755356"><ele>1714.8242</ele><time>2026-08-15T18:09:26.000Z</time></trkpt>
        <trkpt lat="28.148263" lon="105.75537"><ele>1714.4893</ele><time>2026-08-15T18:09:28.000Z</time></trkpt>
        <trkpt lat="28.148253" lon="105.755386"><ele>1714.3031</ele><time>2026-08-15T18:09:30.000Z</time></trkpt>
        <trkpt lat="28.148243" lon="105.755407"><ele>1713.947</ele><time>2026-08-15T18:09:32.000Z</time></trkpt>
        <trkpt lat="28.14823" lon="105.755432"><ele>1712.2887</ele><time>2026-08-15T18:09:34.000Z</time></trkpt>
        <trkpt lat="28.148217" lon="105.755453"><ele>1711.4485</ele><time>2026-08-15T18:09:36.000Z</time></trkpt>
        <trkpt lat="28.148208" lon="105.75547"><ele>1710.4738</ele><time>2026-08-15T18:09:38.000Z</time></trkpt>
        <trkpt lat="28.148198" lon="105.755491"><ele>1710.1986</ele><time>2026-08-15T18:09:40.000Z</time></trkpt>
        <trkpt lat="28.148187" lon="105.755515"><ele>1709.9944</ele><time>2026-08-15T18:09:42.000Z</time></trkpt>
        <trkpt lat="28.148174" lon="105.755538"><ele>1709.7603</ele><time>2026-08-15T18:09:44.000Z</time></trkpt>
        <trkpt lat="28.148161" lon="105.755554"><ele>1710.6766</ele><time>2026-08-15T18:09:46.000Z</time></trkpt>
        <trkpt lat="28.148151" lon="105.755566"><ele>1710.2535</ele><time>2026-08-15T18:09:48.000Z</time></trkpt>
        <trkpt lat="28.148136" lon="105.755585"><ele>1710.3584</ele><time>2026-08-15T18:09:50.000Z</time></trkpt>
        <trkpt lat="28.148121" lon="105.755608"><ele>1711.1118</ele><time>2026-08-15T18:09:52.000Z</time></trkpt>
        <trkpt lat="28.148113" lon="105.755631"><ele>1712.3627</ele><time>2026-08-15T18:09:54.000Z</time></trkpt>
        <trkpt lat="28.148106" lon="105.755657"><ele>1712.7927</ele><time>2026-08-15T18:09:56.000Z</time></trkpt>
        <trkpt lat="28.148102" lon="105.755685"><ele>1712.6459</ele><time>2026-08-15T18:09:58.000Z</time></trkpt>
        <trkpt lat="28.1481" lon="105.755716"><ele>1713.0186</ele><time>2026-08-15T18:10:00.000Z</time></trkpt>
        <trkpt lat="28.148099" lon="105.755741"><ele>1714.1442</ele><time>2026-08-15T18:10:02.000Z</time></trkpt>
        <trkpt lat="28.148095" lon="105.755763"><ele>1714.508</ele><time>2026-08-15T18:10:04.000Z</time></trkpt>
        <trkpt lat="28.14809" lon="105.755782"><ele>1713.1212</ele><time>2026-08-15T18:10:06.000Z</time></trkpt>
        <trkpt lat="28.148082" lon="105.755801"><ele>1713.3729</ele><time>2026-08-15T18:10:08.000Z</time></trkpt>
        <trkpt lat="28.14807" lon="105.755818"><ele>1711.5881</ele><time>2026-08-15T18:10:10.000Z</time></trkpt>
        <trkpt lat="28.148059" lon="105.755832"><ele>1710.9875</ele><time>2026-08-15T18:10:12.000Z</time></trkpt>
        <trkpt lat="28.148043" lon="105.755846"><ele>1709.736</ele><time>2026-08-15T18:10:14.000Z</time></trkpt>
        <trkpt lat="28.148029" lon="105.755858"><ele>1709.6921</ele><time>2026-08-15T18:10:16.000Z</time></trkpt>
        <trkpt lat="28.148015" lon="105.755873"><ele>1710.0289</ele><time>2026-08-15T18:10:18.000Z</time></trkpt>
        <trkpt lat="28.148002" lon="105.755891"><ele>1709.8812</ele><time>2026-08-15T18:10:20.000Z</time></trkpt>
        <trkpt lat="28.147988" lon="105.755913"><ele>1711.1805</ele><time>2026-08-15T18:10:22.000Z</time></trkpt>
        <trkpt lat="28.147978" lon="105.755929"><ele>1711.6547</ele><time>2026-08-15T18:10:24.000Z</time></trkpt>
        <trkpt lat="28.147965" lon="105.755945"><ele>1711.1644</ele><time>2026-08-15T18:10:26.000Z</time></trkpt>
        <trkpt lat="28.147954" lon="105.755959"><ele>1711.3387</ele><time>2026-08-15T18:10:28.000Z</time></trkpt>
        <trkpt lat="28.147943" lon="105.755973"><ele>1710.464</ele><time>2026-08-15T18:10:30.000Z</time></trkpt>
        <trkpt lat="28.147932" lon="105.755988"><ele>1710.7053</ele><time>2026-08-15T18:10:32.000Z</time></trkpt>
        <trkpt lat="28.14792" lon="105.756004"><ele>1710.894</ele><time>2026-08-15T18:10:34.000Z</time></trkpt>
        <trkpt lat="28.147907" lon="105.756019"><ele>1709.9731</ele><time>2026-08-15T18:10:36.000Z</time></trkpt>
        <trkpt lat="28.147894" lon="105.756035"><ele>1709.9589</ele><time>2026-08-15T18:10:38.000Z</time></trkpt>
        <trkpt lat="28.147874" lon="105.756051"><ele>1710.1556</ele><time>2026-08-15T18:10:40.000Z</time></trkpt>
        <trkpt lat="28.147852" lon="105.756066"><ele>1710.5378</ele><time>2026-08-15T18:10:42.000Z</time></trkpt>
        <trkpt lat="28.14784" lon="105.756076"><ele>1710.4442</ele><time>2026-08-15T18:10:44.000Z</time></trkpt>
        <trkpt lat="28.147833" lon="105.756085"><ele>1710.1073</ele><time>2026-08-15T18:10:46.000Z</time></trkpt>
        <trkpt lat="28.147827" lon="105.756095"><ele>1709.7667</ele><time>2026-08-15T18:10:48.000Z</time></trkpt>
        <trkpt lat="28.147814" lon="105.756116"><ele>1709.6215</ele><time>2026-08-15T18:10:50.000Z</time></trkpt>
        <trkpt lat="28.147801" lon="105.756136"><ele>1708.7953</ele><time>2026-08-15T18:10:52.000Z</time></trkpt>
        <trkpt lat="28.14779" lon="105.756155"><ele>1708.7328</ele><time>2026-08-15T18:10:54.000Z</time></trkpt>
        <trkpt lat="28.147778" lon="105.756172"><ele>1709.291</ele><time>2026-08-15T18:10:56.000Z</time></trkpt>
        <trkpt lat="28.147764" lon="105.756192"><ele>1709.101</ele><time>2026-08-15T18:10:58.000Z</time></trkpt>
        <trkpt lat="28.147753" lon="105.756209"><ele>1708.5394</ele><time>2026-08-15T18:11:00.000Z</time></trkpt>
        <trkpt lat="28.147746" lon="105.756221"><ele>1708.157</ele><time>2026-08-15T18:11:02.000Z</time></trkpt>
        <trkpt lat="28.14774" lon="105.756232"><ele>1707.535</ele><time>2026-08-15T18:11:04.000Z</time></trkpt>
        <trkpt lat="28.147737" lon="105.756241"><ele>1707.5522</ele><time>2026-08-15T18:11:06.000Z</time></trkpt>
        <trkpt lat="28.147728" lon="105.756263"><ele>1707.9364</ele><time>2026-08-15T18:11:10.000Z</time></trkpt>
        <trkpt lat="28.147725" lon="105.756271"><ele>1707.6238</ele><time>2026-08-15T18:11:12.000Z</time></trkpt>
        <trkpt lat="28.147723" lon="105.756277"><ele>1707.464</ele><time>2026-08-15T18:11:14.000Z</time></trkpt>
        <trkpt lat="28.147713" lon="105.756297"><ele>1708.4353</ele><time>2026-08-15T18:11:20.000Z</time></trkpt>
        <trkpt lat="28.147696" lon="105.75633"><ele>1707.7981</ele><time>2026-08-15T18:11:22.000Z</time></trkpt>
        <trkpt lat="28.147695" lon="105.756332"><ele>1707.5681</ele><time>2026-08-15T18:11:24.000Z</time></trkpt>
        <trkpt lat="28.147691" lon="105.756337"><ele>1706.8438</ele><time>2026-08-15T18:11:26.000Z</time></trkpt>
        <trkpt lat="28.14765" lon="105.756377"><ele>1705.4141</ele><time>2026-08-15T18:11:30.000Z</time></trkpt>
        <trkpt lat="28.147636" lon="105.756383"><ele>1705.0289</ele><time>2026-08-15T18:11:32.000Z</time></trkpt>
        <trkpt lat="28.147623" lon="105.756384"><ele>1704.8306</ele><time>2026-08-15T18:11:34.000Z</time></trkpt>
        <trkpt lat="28.147613" lon="105.756385"><ele>1704.609</ele><time>2026-08-15T18:11:36.000Z</time></trkpt>
        <trkpt lat="28.147602" lon="105.756388"><ele>1703.1239</ele><time>2026-08-15T18:11:38.000Z</time></trkpt>
        <trkpt lat="28.147584" lon="105.756392"><ele>1701.846</ele><time>2026-08-15T18:11:40.000Z</time></trkpt>
        <trkpt lat="28.147567" lon="105.756396"><ele>1701.752</ele><time>2026-08-15T18:11:42.000Z</time></trkpt>
        <trkpt lat="28.147552" lon="105.756402"><ele>1702.3158</ele><time>2026-08-15T18:11:44.000Z</time></trkpt>
        <trkpt lat="28.147538" lon="105.75641"><ele>1702.4707</ele><time>2026-08-15T18:11:46.000Z</time></trkpt>
        <trkpt lat="28.147523" lon="105.756423"><ele>1701.5612</ele><time>2026-08-15T18:11:48.000Z</time></trkpt>
        <trkpt lat="28.147505" lon="105.756445"><ele>1701.7251</ele><time>2026-08-15T18:11:50.000Z</time></trkpt>
        <trkpt lat="28.147494" lon="105.756464"><ele>1703.093</ele><time>2026-08-15T18:11:52.000Z</time></trkpt>
        <trkpt lat="28.147489" lon="105.756479"><ele>1703.6974</ele><time>2026-08-15T18:11:54.000Z</time></trkpt>
        <trkpt lat="28.147485" lon="105.756497"><ele>1704.4155</ele><time>2026-08-15T18:11:56.000Z</time></trkpt>
        <trkpt lat="28.14748" lon="105.756512"><ele>1702.3176</ele><time>2026-08-15T18:11:58.000Z</time></trkpt>
        <trkpt lat="28.147473" lon="105.756519"><ele>1701.8368</ele><time>2026-08-15T18:12:00.000Z</time></trkpt>
        <trkpt lat="28.147462" lon="105.756526"><ele>1702.0956</ele><time>2026-08-15T18:12:04.000Z</time></trkpt>
        <trkpt lat="28.147452" lon="105.756532"><ele>1702.0804</ele><time>2026-08-15T18:12:06.000Z</time></trkpt>
        <trkpt lat="28.147436" lon="105.756543"><ele>1700.6274</ele><time>2026-08-15T18:12:08.000Z</time></trkpt>
        <trkpt lat="28.147425" lon="105.75656"><ele>1700.3344</ele><time>2026-08-15T18:12:10.000Z</time></trkpt>
        <trkpt lat="28.147418" lon="105.756578"><ele>1700.2805</ele><time>2026-08-15T18:12:12.000Z</time></trkpt>
        <trkpt lat="28.147412" lon="105.756589"><ele>1701.3914</ele><time>2026-08-15T18:12:14.000Z</time></trkpt>
        <trkpt lat="28.147404" lon="105.756599"><ele>1701.2389</ele><time>2026-08-15T18:12:16.000Z</time></trkpt>
        <trkpt lat="28.14739" lon="105.756609"><ele>1701.2269</ele><time>2026-08-15T18:12:18.000Z</time></trkpt>
        <trkpt lat="28.147376" lon="105.756618"><ele>1701.6094</ele><time>2026-08-15T18:12:20.000Z</time></trkpt>
        <trkpt lat="28.147357" lon="105.756631"><ele>1702.2494</ele><time>2026-08-15T18:12:22.000Z</time></trkpt>
        <trkpt lat="28.14734" lon="105.756643"><ele>1702.4604</ele><time>2026-08-15T18:12:24.000Z</time></trkpt>
        <trkpt lat="28.147325" lon="105.756657"><ele>1703.2285</ele><time>2026-08-15T18:12:26.000Z</time></trkpt>
        <trkpt lat="28.147312" lon="105.756672"><ele>1703.4213</ele><time>2026-08-15T18:12:28.000Z</time></trkpt>
        <trkpt lat="28.147302" lon="105.756688"><ele>1702.9504</ele><time>2026-08-15T18:12:30.000Z</time></trkpt>
        <trkpt lat="28.147294" lon="105.756705"><ele>1701.4122</ele><time>2026-08-15T18:12:32.000Z</time></trkpt>
        <trkpt lat="28.147283" lon="105.756721"><ele>1700.9028</ele><time>2026-08-15T18:12:34.000Z</time></trkpt>
        <trkpt lat="28.147271" lon="105.756737"><ele>1700.6324</ele><time>2026-08-15T18:12:36.000Z</time></trkpt>
        <trkpt lat="28.147259" lon="105.75675"><ele>1700.643</ele><time>2026-08-15T18:12:38.000Z</time></trkpt>
        <trkpt lat="28.147248" lon="105.756761"><ele>1700.2131</ele><time>2026-08-15T18:12:40.000Z</time></trkpt>
        <trkpt lat="28.147239" lon="105.756772"><ele>1700.2544</ele><time>2026-08-15T18:12:42.000Z</time></trkpt>
        <trkpt lat="28.147238" lon="105.756779"><ele>1699.488</ele><time>2026-08-15T18:12:44.000Z</time></trkpt>
        <trkpt lat="28.14723" lon="105.756795"><ele>1701.055</ele><time>2026-08-15T18:12:50.000Z</time></trkpt>
        <trkpt lat="28.147223" lon="105.756807"><ele>1700.966</ele><time>2026-08-15T18:12:52.000Z</time></trkpt>
        <trkpt lat="28.147223" lon="105.756808"><ele>1698.3949</ele><time>2026-08-15T18:12:54.000Z</time></trkpt>
        <trkpt lat="28.147219" lon="105.756838"><ele>1697.9395</ele><time>2026-08-15T18:13:00.000Z</time></trkpt>
        <trkpt lat="28.147214" lon="105.756856"><ele>1697.9769</ele><time>2026-08-15T18:13:02.000Z</time></trkpt>
        <trkpt lat="28.147207" lon="105.756877"><ele>1697.6296</ele><time>2026-08-15T18:13:04.000Z</time></trkpt>
        <trkpt lat="28.147199" lon="105.756891"><ele>1696.4916</ele><time>2026-08-15T18:13:06.000Z</time></trkpt>
        <trkpt lat="28.147191" lon="105.756907"><ele>1696.458</ele><time>2026-08-15T18:13:08.000Z</time></trkpt>
        <trkpt lat="28.147179" lon="105.756925"><ele>1696.183</ele><time>2026-08-15T18:13:10.000Z</time></trkpt>
        <trkpt lat="28.147169" lon="105.756944"><ele>1696.0436</ele><time>2026-08-15T18:13:12.000Z</time></trkpt>
        <trkpt lat="28.147159" lon="105.756961"><ele>1695.6398</ele><time>2026-08-15T18:13:14.000Z</time></trkpt>
        <trkpt lat="28.147151" lon="105.756977"><ele>1695.6299</ele><time>2026-08-15T18:13:16.000Z</time></trkpt>
        <trkpt lat="28.147146" lon="105.756993"><ele>1695.0826</ele><time>2026-08-15T18:13:18.000Z</time></trkpt>
        <trkpt lat="28.14714" lon="105.757011"><ele>1694.8059</ele><time>2026-08-15T18:13:20.000Z</time></trkpt>
        <trkpt lat="28.147137" lon="105.757021"><ele>1694.805</ele><time>2026-08-15T18:13:22.000Z</time></trkpt>
        <trkpt lat="28.147134" lon="105.757034"><ele>1694.3419</ele><time>2026-08-15T18:13:24.000Z</time></trkpt>
        <trkpt lat="28.14713" lon="105.757053"><ele>1694.2919</ele><time>2026-08-15T18:13:26.000Z</time></trkpt>
        <trkpt lat="28.147129" lon="105.757066"><ele>1693.9805</ele><time>2026-08-15T18:13:28.000Z</time></trkpt>
        <trkpt lat="28.147129" lon="105.757075"><ele>1694.9232</ele><time>2026-08-15T18:13:30.000Z</time></trkpt>
        <trkpt lat="28.147126" lon="105.757089"><ele>1693.5193</ele><time>2026-08-15T18:13:34.000Z</time></trkpt>
        <trkpt lat="28.147125" lon="105.757109"><ele>1692.3907</ele><time>2026-08-15T18:13:38.000Z</time></trkpt>
        <trkpt lat="28.147124" lon="105.757142"><ele>1692.0502</ele><time>2026-08-15T18:13:40.000Z</time></trkpt>
        <trkpt lat="28.147123" lon="105.757144"><ele>1690.1903</ele><time>2026-08-15T18:13:42.000Z</time></trkpt>
        <trkpt lat="28.147119" lon="105.757149"><ele>1689.7286</ele><time>2026-08-15T18:13:44.000Z</time></trkpt>
        <trkpt lat="28.147088" lon="105.75719"><ele>1688.309</ele><time>2026-08-15T18:13:48.000Z</time></trkpt>
        <trkpt lat="28.147074" lon="105.757208"><ele>1687.9053</ele><time>2026-08-15T18:13:50.000Z</time></trkpt>
        <trkpt lat="28.147066" lon="105.757223"><ele>1687.2982</ele><time>2026-08-15T18:13:52.000Z</time></trkpt>
        <trkpt lat="28.147061" lon="105.757236"><ele>1686.8401</ele><time>2026-08-15T18:13:54.000Z</time></trkpt>
        <trkpt lat="28.147056" lon="105.757247"><ele>1686.8375</ele><time>2026-08-15T18:13:56.000Z</time></trkpt>
        <trkpt lat="28.147051" lon="105.757261"><ele>1686.7074</ele><time>2026-08-15T18:13:58.000Z</time></trkpt>
        <trkpt lat="28.147043" lon="105.757283"><ele>1686.7765</ele><time>2026-08-15T18:14:00.000Z</time></trkpt>
        <trkpt lat="28.147039" lon="105.757299"><ele>1686.2921</ele><time>2026-08-15T18:14:02.000Z</time></trkpt>
        <trkpt lat="28.147038" lon="105.757308"><ele>1685.0596</ele><time>2026-08-15T18:14:04.000Z</time></trkpt>
        <trkpt lat="28.147036" lon="105.75732"><ele>1684.0596</ele><time>2026-08-15T18:14:06.000Z</time></trkpt>
        <trkpt lat="28.147035" lon="105.757332"><ele>1684.2252</ele><time>2026-08-15T18:14:08.000Z</time></trkpt>
        <trkpt lat="28.147033" lon="105.757349"><ele>1684.4263</ele><time>2026-08-15T18:14:10.000Z</time></trkpt>
        <trkpt lat="28.14703" lon="105.757362"><ele>1684.6248</ele><time>2026-08-15T18:14:12.000Z</time></trkpt>
        <trkpt lat="28.147026" lon="105.757379"><ele>1684.6433</ele><time>2026-08-15T18:14:14.000Z</time></trkpt>
        <trkpt lat="28.14702" lon="105.757399"><ele>1685.195</ele><time>2026-08-15T18:14:16.000Z</time></trkpt>
        <trkpt lat="28.147014" lon="105.75742"><ele>1685.3137</ele><time>2026-08-15T18:14:18.000Z</time></trkpt>
        <trkpt lat="28.147011" lon="105.757437"><ele>1684.1222</ele><time>2026-08-15T18:14:20.000Z</time></trkpt>
        <trkpt lat="28.147008" lon="105.757458"><ele>1684.4756</ele><time>2026-08-15T18:14:22.000Z</time></trkpt>
        <trkpt lat="28.147004" lon="105.757479"><ele>1684.9817</ele><time>2026-08-15T18:14:24.000Z</time></trkpt>
        <trkpt lat="28.147" lon="105.757494"><ele>1684.2556</ele><time>2026-08-15T18:14:26.000Z</time></trkpt>
        <trkpt lat="28.146997" lon="105.757501"><ele>1681.5543</ele><time>2026-08-15T18:14:28.000Z</time></trkpt>
        <trkpt lat="28.14699" lon="105.757515"><ele>1681.288</ele><time>2026-08-15T18:14:32.000Z</time></trkpt>
        <trkpt lat="28.146981" lon="105.757535"><ele>1681.4557</ele><time>2026-08-15T18:14:34.000Z</time></trkpt>
        <trkpt lat="28.14698" lon="105.757536"><ele>1681.1431</ele><time>2026-08-15T18:14:36.000Z</time></trkpt>
        <trkpt lat="28.14697" lon="105.757551"><ele>1680.9226</ele><time>2026-08-15T18:14:40.000Z</time></trkpt>
        <trkpt lat="28.146959" lon="105.757568"><ele>1679.9078</ele><time>2026-08-15T18:14:42.000Z</time></trkpt>
        <trkpt lat="28.146949" lon="105.757586"><ele>1678.9406</ele><time>2026-08-15T18:14:44.000Z</time></trkpt>
        <trkpt lat="28.146938" lon="105.757606"><ele>1679.2579</ele><time>2026-08-15T18:14:46.000Z</time></trkpt>
        <trkpt lat="28.146923" lon="105.75763"><ele>1679.4485</ele><time>2026-08-15T18:14:48.000Z</time></trkpt>
        <trkpt lat="28.146911" lon="105.757646"><ele>1678.5762</ele><time>2026-08-15T18:14:50.000Z</time></trkpt>
        <trkpt lat="28.146903" lon="105.757657"><ele>1678.4452</ele><time>2026-08-15T18:14:52.000Z</time></trkpt>
        <trkpt lat="28.146897" lon="105.757665"><ele>1678.18</ele><time>2026-08-15T18:14:54.000Z</time></trkpt>
        <trkpt lat="28.146892" lon="105.757672"><ele>1677.5144</ele><time>2026-08-15T18:14:56.000Z</time></trkpt>
        <trkpt lat="28.14688" lon="105.757684"><ele>1675.7612</ele><time>2026-08-15T18:15:00.000Z</time></trkpt>
        <trkpt lat="28.14687" lon="105.757694"><ele>1674.9978</ele><time>2026-08-15T18:15:02.000Z</time></trkpt>
        <trkpt lat="28.146869" lon="105.757695"><ele>1675.6182</ele><time>2026-08-15T18:15:04.000Z</time></trkpt>
        <trkpt lat="28.146852" lon="105.757702"><ele>1675.4486</ele><time>2026-08-15T18:15:08.000Z</time></trkpt>
        <trkpt lat="28.146837" lon="105.757711"><ele>1674.5449</ele><time>2026-08-15T18:15:10.000Z</time></trkpt>
        <trkpt lat="28.146823" lon="105.757722"><ele>1674.5929</ele><time>2026-08-15T18:15:12.000Z</time></trkpt>
        <trkpt lat="28.14681" lon="105.757737"><ele>1675.0089</ele><time>2026-08-15T18:15:14.000Z</time></trkpt>
        <trkpt lat="28.146801" lon="105.75775"><ele>1674.3538</ele><time>2026-08-15T18:15:16.000Z</time></trkpt>
        <trkpt lat="28.146789" lon="105.757766"><ele>1674.4419</ele><time>2026-08-15T18:15:18.000Z</time></trkpt>
        <trkpt lat="28.146781" lon="105.757774"><ele>1673.946</ele><time>2026-08-15T18:15:20.000Z</time></trkpt>
        <trkpt lat="28.146773" lon="105.757777"><ele>1673.4612</ele><time>2026-08-15T18:15:22.000Z</time></trkpt>
        <trkpt lat="28.146745" lon="105.757788"><ele>1673.5432</ele><time>2026-08-15T18:15:26.000Z</time></trkpt>
        <trkpt lat="28.146745" lon="105.757788"><ele>1673.3718</ele><time>2026-08-15T18:15:28.000Z</time></trkpt>
        <trkpt lat="28.146742" lon="105.757789"><ele>1673.4072</ele><time>2026-08-15T18:15:30.000Z</time></trkpt>
        <trkpt lat="28.146705" lon="105.7578"><ele>1673.4292</ele><time>2026-08-15T18:15:36.000Z</time></trkpt>
        <trkpt lat="28.146705" lon="105.7578"><ele>1672.5775</ele><time>2026-08-15T18:15:38.000Z</time></trkpt>
        <trkpt lat="28.146703" lon="105.7578"><ele>1672.0142</ele><time>2026-08-15T18:15:40.000Z</time></trkpt>
        <trkpt lat="28.146672" lon="105.757812"><ele>1672.1165</ele><time>2026-08-15T18:15:48.000Z</time></trkpt>
        <trkpt lat="28.146653" lon="105.75782"><ele>1672.1924</ele><time>2026-08-15T18:15:50.000Z</time></trkpt>
        <trkpt lat="28.146653" lon="105.757821"><ele>1672.785</ele><time>2026-08-15T18:15:52.000Z</time></trkpt>
        <trkpt lat="28.146646" lon="105.757832"><ele>1671.8545</ele><time>2026-08-15T18:15:56.000Z</time></trkpt>
        <trkpt lat="28.146628" lon="105.757859"><ele>1673.7997</ele><time>2026-08-15T18:16:00.000Z</time></trkpt>
        <trkpt lat="28.14662" lon="105.757869"><ele>1673.1146</ele><time>2026-08-15T18:16:02.000Z</time></trkpt>
        <trkpt lat="28.146614" lon="105.75788"><ele>1672.9711</ele><time>2026-08-15T18:16:04.000Z</time></trkpt>
        <trkpt lat="28.146609" lon="105.757881"><ele>1673.2812</ele><time>2026-08-15T18:16:06.000Z</time></trkpt>
        <trkpt lat="28.146593" lon="105.757888"><ele>1673.1427</ele><time>2026-08-15T18:16:14.000Z</time></trkpt>
        <trkpt lat="28.146574" lon="105.757897"><ele>1673.3578</ele><time>2026-08-15T18:16:16.000Z</time></trkpt>
        <trkpt lat="28.146574" lon="105.757896"><ele>1673.708</ele><time>2026-08-15T18:16:18.000Z</time></trkpt>
        <trkpt lat="28.146568" lon="105.7579"><ele>1674.47</ele><time>2026-08-15T18:16:26.000Z</time></trkpt>
        <trkpt lat="28.146546" lon="105.757912"><ele>1676.8082</ele><time>2026-08-15T18:16:50.000Z</time></trkpt>
        <trkpt lat="28.146544" lon="105.757913"><ele>1676.7222</ele><time>2026-08-15T18:16:52.000Z</time></trkpt>
        <trkpt lat="28.14654" lon="105.757916"><ele>1676.2908</ele><time>2026-08-15T18:17:00.000Z</time></trkpt>
        <trkpt lat="28.14652" lon="105.757932"><ele>1676.7015</ele><time>2026-08-15T18:17:07.000Z</time></trkpt>
        <trkpt lat="28.146517" lon="105.757932"><ele>1676.9446</ele><time>2026-08-15T18:17:09.000Z</time></trkpt>
        <trkpt lat="28.146513" lon="105.757933"><ele>1675.7651</ele><time>2026-08-15T18:17:19.000Z</time></trkpt>
        <trkpt lat="28.146485" lon="105.757935"><ele>1675.3196</ele><time>2026-08-15T18:17:27.000Z</time></trkpt>
        <trkpt lat="28.146476" lon="105.757935"><ele>1675.8252</ele><time>2026-08-15T18:17:29.000Z</time></trkpt>
        <trkpt lat="28.146476" lon="105.757935"><ele>1675.5958</ele><time>2026-08-15T18:17:31.000Z</time></trkpt>
        <trkpt lat="28.146484" lon="105.757972"><ele>1678.0137</ele><time>2026-08-15T18:17:47.000Z</time></trkpt>
        <trkpt lat="28.146485" lon="105.757973"><ele>1677.2682</ele><time>2026-08-15T18:17:49.000Z</time></trkpt>
        <trkpt lat="28.146486" lon="105.757973"><ele>1677.2682</ele><time>2026-08-15T18:17:51.000Z</time></trkpt>
        <trkpt lat="28.146453" lon="105.757978"><ele>1677.2134</ele><time>2026-08-15T18:18:25.000Z</time></trkpt>
        <trkpt lat="28.146452" lon="105.757978"><ele>1676.9869</ele><time>2026-08-15T18:18:27.000Z</time></trkpt>
        <trkpt lat="28.146449" lon="105.757978"><ele>1677.0624</ele><time>2026-08-15T18:18:29.000Z</time></trkpt>
        <trkpt lat="28.146414" lon="105.757976"><ele>1677.2948</ele><time>2026-08-15T18:18:35.000Z</time></trkpt>
        <trkpt lat="28.146413" lon="105.757976"><ele>1677.8057</ele><time>2026-08-15T18:18:37.000Z</time></trkpt>
        <trkpt lat="28.146412" lon="105.757977"><ele>1678.1963</ele><time>2026-08-15T18:18:39.000Z</time></trkpt>
        <trkpt lat="28.14637" lon="105.758002"><ele>1677.7114</ele><time>2026-08-15T18:18:44.000Z</time></trkpt>
        <trkpt lat="28.14637" lon="105.758002"><ele>1677.555</ele><time>2026-08-15T18:18:46.000Z</time></trkpt>
        <trkpt lat="28.146368" lon="105.758004"><ele>1677.1501</ele><time>2026-08-15T18:18:48.000Z</time></trkpt>
        <trkpt lat="28.146332" lon="105.758033"><ele>1676.7987</ele><time>2026-08-15T18:18:55.000Z</time></trkpt>
        <trkpt lat="28.146318" lon="105.758044"><ele>1677.5498</ele><time>2026-08-15T18:18:57.000Z</time></trkpt>
        <trkpt lat="28.146304" lon="105.758055"><ele>1677.4913</ele><time>2026-08-15T18:18:59.000Z</time></trkpt>
        <trkpt lat="28.14629" lon="105.758065"><ele>1678.2651</ele><time>2026-08-15T18:19:01.000Z</time></trkpt>
        <trkpt lat="28.146277" lon="105.758072"><ele>1679.0743</ele><time>2026-08-15T18:19:03.000Z</time></trkpt>
        <trkpt lat="28.146266" lon="105.758077"><ele>1679.1764</ele><time>2026-08-15T18:19:05.000Z</time></trkpt>
        <trkpt lat="28.146257" lon="105.75808"><ele>1679.3303</ele><time>2026-08-15T18:19:07.000Z</time></trkpt>
        <trkpt lat="28.146246" lon="105.758082"><ele>1679.9703</ele><time>2026-08-15T18:19:09.000Z</time></trkpt>
        <trkpt lat="28.146244" lon="105.758089"><ele>1680.8319</ele><time>2026-08-15T18:19:13.000Z</time></trkpt>
        <trkpt lat="28.146225" lon="105.758113"><ele>1681.4874</ele><time>2026-08-15T18:19:35.000Z</time></trkpt>
        <trkpt lat="28.146208" lon="105.758132"><ele>1680.3447</ele><time>2026-08-15T18:19:37.000Z</time></trkpt>
        <trkpt lat="28.146206" lon="105.758133"><ele>1680.6125</ele><time>2026-08-15T18:19:39.000Z</time></trkpt>
        <trkpt lat="28.146191" lon="105.758143"><ele>1679.9092</ele><time>2026-08-15T18:19:43.000Z</time></trkpt>
        <trkpt lat="28.146171" lon="105.75816"><ele>1680.3434</ele><time>2026-08-15T18:19:45.000Z</time></trkpt>
        <trkpt lat="28.146152" lon="105.758181"><ele>1681.1093</ele><time>2026-08-15T18:19:47.000Z</time></trkpt>
        <trkpt lat="28.146136" lon="105.758201"><ele>1682.5079</ele><time>2026-08-15T18:19:49.000Z</time></trkpt>
        <trkpt lat="28.146119" lon="105.758222"><ele>1683.5869</ele><time>2026-08-15T18:19:51.000Z</time></trkpt>
        <trkpt lat="28.146107" lon="105.758237"><ele>1683.6584</ele><time>2026-08-15T18:19:53.000Z</time></trkpt>
        <trkpt lat="28.146092" lon="105.758253"><ele>1682.4502</ele><time>2026-08-15T18:19:55.000Z</time></trkpt>
        <trkpt lat="28.146078" lon="105.758267"><ele>1682.4443</ele><time>2026-08-15T18:19:57.000Z</time></trkpt>
        <trkpt lat="28.146064" lon="105.758281"><ele>1682.9022</ele><time>2026-08-15T18:19:59.000Z</time></trkpt>
        <trkpt lat="28.146046" lon="105.758297"><ele>1683.1827</ele><time>2026-08-15T18:20:01.000Z</time></trkpt>
        <trkpt lat="28.14603" lon="105.758313"><ele>1683.5254</ele><time>2026-08-15T18:20:03.000Z</time></trkpt>
        <trkpt lat="28.146015" lon="105.758327"><ele>1683.7201</ele><time>2026-08-15T18:20:05.000Z</time></trkpt>
        <trkpt lat="28.146003" lon="105.758337"><ele>1683.4637</ele><time>2026-08-15T18:20:07.000Z</time></trkpt>
        <trkpt lat="28.145989" lon="105.758343"><ele>1683.7754</ele><time>2026-08-15T18:20:09.000Z</time></trkpt>
        <trkpt lat="28.145971" lon="105.758348"><ele>1683.9283</ele><time>2026-08-15T18:20:11.000Z</time></trkpt>
        <trkpt lat="28.145959" lon="105.758348"><ele>1684.4065</ele><time>2026-08-15T18:20:13.000Z</time></trkpt>
        <trkpt lat="28.145947" lon="105.75835"><ele>1684.5798</ele><time>2026-08-15T18:20:15.000Z</time></trkpt>
        <trkpt lat="28.145936" lon="105.758352"><ele>1684.7799</ele><time>2026-08-15T18:20:17.000Z</time></trkpt>
        <trkpt lat="28.145924" lon="105.758358"><ele>1683.988</ele><time>2026-08-15T18:20:19.000Z</time></trkpt>
        <trkpt lat="28.145912" lon="105.758367"><ele>1683.7389</ele><time>2026-08-15T18:20:21.000Z</time></trkpt>
        <trkpt lat="28.145898" lon="105.758381"><ele>1684.661</ele><time>2026-08-15T18:20:23.000Z</time></trkpt>
        <trkpt lat="28.145881" lon="105.758393"><ele>1685.8123</ele><time>2026-08-15T18:20:25.000Z</time></trkpt>
        <trkpt lat="28.145866" lon="105.7584"><ele>1685.2756</ele><time>2026-08-15T18:20:27.000Z</time></trkpt>
        <trkpt lat="28.145849" lon="105.758405"><ele>1683.7076</ele><time>2026-08-15T18:20:29.000Z</time></trkpt>
        <trkpt lat="28.145831" lon="105.758404"><ele>1684.0586</ele><time>2026-08-15T18:20:31.000Z</time></trkpt>
        <trkpt lat="28.145817" lon="105.758402"><ele>1684.328</ele><time>2026-08-15T18:20:33.000Z</time></trkpt>
        <trkpt lat="28.145803" lon="105.758396"><ele>1684.7034</ele><time>2026-08-15T18:20:35.000Z</time></trkpt>
        <trkpt lat="28.145794" lon="105.758387"><ele>1684.2806</ele><time>2026-08-15T18:20:37.000Z</time></trkpt>
        <trkpt lat="28.145784" lon="105.758378"><ele>1683.5132</ele><time>2026-08-15T18:20:39.000Z</time></trkpt>
        <trkpt lat="28.145771" lon="105.758371"><ele>1682.967</ele><time>2026-08-15T18:20:41.000Z</time></trkpt>
        <trkpt lat="28.145761" lon="105.75837"><ele>1683.0891</ele><time>2026-08-15T18:20:43.000Z</time></trkpt>
        <trkpt lat="28.145746" lon="105.758372"><ele>1683.3026</ele><time>2026-08-15T18:20:45.000Z</time></trkpt>
        <trkpt lat="28.14573" lon="105.758378"><ele>1684.5222</ele><time>2026-08-15T18:20:46.000Z</time></trkpt>
        <trkpt lat="28.14572" lon="105.758381"><ele>1684.8818</ele><time>2026-08-15T18:20:48.000Z</time></trkpt>
        <trkpt lat="28.145714" lon="105.75838"><ele>1685.2186</ele><time>2026-08-15T18:20:50.000Z</time></trkpt>
        <trkpt lat="28.145705" lon="105.758387"><ele>1685.8018</ele><time>2026-08-15T18:21:07.000Z</time></trkpt>
        <trkpt lat="28.145682" lon="105.758404"><ele>1687.0801</ele><time>2026-08-15T18:21:11.000Z</time></trkpt>
        <trkpt lat="28.145682" lon="105.758404"><ele>1686.7533</ele><time>2026-08-15T18:21:13.000Z</time></trkpt>
        <trkpt lat="28.145679" lon="105.758408"><ele>1686.7241</ele><time>2026-08-15T18:21:17.000Z</time></trkpt>
        <trkpt lat="28.145654" lon="105.758435"><ele>1688.7566</ele><time>2026-08-15T18:21:23.000Z</time></trkpt>
        <trkpt lat="28.145654" lon="105.758436"><ele>1689.7957</ele><time>2026-08-15T18:21:25.000Z</time></trkpt>
        <trkpt lat="28.145653" lon="105.758437"><ele>1688.6428</ele><time>2026-08-15T18:21:27.000Z</time></trkpt>
        <trkpt lat="28.145627" lon="105.758452"><ele>1689.5231</ele><time>2026-08-15T18:21:35.000Z</time></trkpt>
        <trkpt lat="28.145614" lon="105.758458"><ele>1688.708</ele><time>2026-08-15T18:21:37.000Z</time></trkpt>
        <trkpt lat="28.145613" lon="105.758458"><ele>1688.9032</ele><time>2026-08-15T18:21:39.000Z</time></trkpt>
        <trkpt lat="28.145589" lon="105.75846"><ele>1688.5226</ele><time>2026-08-15T18:21:43.000Z</time></trkpt>
        <trkpt lat="28.145564" lon="105.758462"><ele>1689.0112</ele><time>2026-08-15T18:21:45.000Z</time></trkpt>
        <trkpt lat="28.145542" lon="105.758465"><ele>1688.5925</ele><time>2026-08-15T18:21:47.000Z</time></trkpt>
        <trkpt lat="28.145523" lon="105.758471"><ele>1688.3085</ele><time>2026-08-15T18:21:49.000Z</time></trkpt>
        <trkpt lat="28.145507" lon="105.75848"><ele>1687.4585</ele><time>2026-08-15T18:21:51.000Z</time></trkpt>
        <trkpt lat="28.145498" lon="105.75849"><ele>1687.7656</ele><time>2026-08-15T18:21:53.000Z</time></trkpt>
        <trkpt lat="28.145492" lon="105.7585"><ele>1687.5527</ele><time>2026-08-15T18:21:55.000Z</time></trkpt>
        <trkpt lat="28.145488" lon="105.758512"><ele>1687.1361</ele><time>2026-08-15T18:21:57.000Z</time></trkpt>
        <trkpt lat="28.14548" lon="105.758533"><ele>1686.6747</ele><time>2026-08-15T18:21:59.000Z</time></trkpt>
        <trkpt lat="28.145473" lon="105.758554"><ele>1686.931</ele><time>2026-08-15T18:22:01.000Z</time></trkpt>
        <trkpt lat="28.145467" lon="105.758572"><ele>1686.794</ele><time>2026-08-15T18:22:03.000Z</time></trkpt>
        <trkpt lat="28.145464" lon="105.758589"><ele>1686.4354</ele><time>2026-08-15T18:22:05.000Z</time></trkpt>
        <trkpt lat="28.145462" lon="105.758602"><ele>1686.4579</ele><time>2026-08-15T18:22:07.000Z</time></trkpt>
        <trkpt lat="28.145463" lon="105.758614"><ele>1686.0936</ele><time>2026-08-15T18:22:09.000Z</time></trkpt>
        <trkpt lat="28.145464" lon="105.758627"><ele>1686.1819</ele><time>2026-08-15T18:22:11.000Z</time></trkpt>
        <trkpt lat="28.145461" lon="105.758635"><ele>1686.35</ele><time>2026-08-15T18:22:13.000Z</time></trkpt>
        <trkpt lat="28.145449" lon="105.758656"><ele>1685.6879</ele><time>2026-08-15T18:22:17.000Z</time></trkpt>
        <trkpt lat="28.145441" lon="105.758666"><ele>1684.9469</ele><time>2026-08-15T18:22:19.000Z</time></trkpt>
        <trkpt lat="28.14543" lon="105.758676"><ele>1684.2915</ele><time>2026-08-15T18:22:21.000Z</time></trkpt>
        <trkpt lat="28.145417" lon="105.758686"><ele>1684.142</ele><time>2026-08-15T18:22:23.000Z</time></trkpt>
        <trkpt lat="28.145403" lon="105.758696"><ele>1683.8239</ele><time>2026-08-15T18:22:25.000Z</time></trkpt>
        <trkpt lat="28.145391" lon="105.758707"><ele>1683.8756</ele><time>2026-08-15T18:22:27.000Z</time></trkpt>
        <trkpt lat="28.145378" lon="105.758719"><ele>1684.2958</ele><time>2026-08-15T18:22:29.000Z</time></trkpt>
        <trkpt lat="28.145366" lon="105.758726"><ele>1684.1617</ele><time>2026-08-15T18:22:31.000Z</time></trkpt>
        <trkpt lat="28.145352" lon="105.758731"><ele>1683.3959</ele><time>2026-08-15T18:22:33.000Z</time></trkpt>
        <trkpt lat="28.145335" lon="105.758738"><ele>1684.0574</ele><time>2026-08-15T18:22:35.000Z</time></trkpt>
        <trkpt lat="28.14532" lon="105.758747"><ele>1684.7397</ele><time>2026-08-15T18:22:37.000Z</time></trkpt>
        <trkpt lat="28.145305" lon="105.758758"><ele>1685.0499</ele><time>2026-08-15T18:22:39.000Z</time></trkpt>
        <trkpt lat="28.145293" lon="105.758768"><ele>1684.5166</ele><time>2026-08-15T18:22:41.000Z</time></trkpt>
        <trkpt lat="28.145282" lon="105.758779"><ele>1684.9275</ele><time>2026-08-15T18:22:43.000Z</time></trkpt>
        <trkpt lat="28.145273" lon="105.758791"><ele>1685.747</ele><time>2026-08-15T18:22:45.000Z</time></trkpt>
        <trkpt lat="28.145262" lon="105.758801"><ele>1686.2429</ele><time>2026-08-15T18:22:47.000Z</time></trkpt>
        <trkpt lat="28.145254" lon="105.758809"><ele>1685.981</ele><time>2026-08-15T18:22:49.000Z</time></trkpt>
        <trkpt lat="28.145248" lon="105.758814"><ele>1686.0612</ele><time>2026-08-15T18:22:53.000Z</time></trkpt>
        <trkpt lat="28.145234" lon="105.758824"><ele>1685.3279</ele><time>2026-08-15T18:22:55.000Z</time></trkpt>
        <trkpt lat="28.145224" lon="105.758832"><ele>1684.7151</ele><time>2026-08-15T18:23:03.000Z</time></trkpt>
        <trkpt lat="28.145208" lon="105.758843"><ele>1684.681</ele><time>2026-08-15T18:23:05.000Z</time></trkpt>
        <trkpt lat="28.145207" lon="105.758844"><ele>1684.7151</ele><time>2026-08-15T18:23:07.000Z</time></trkpt>
        <trkpt lat="28.145191" lon="105.758855"><ele>1685.2577</ele><time>2026-08-15T18:23:11.000Z</time></trkpt>
        <trkpt lat="28.145173" lon="105.758866"><ele>1684.5911</ele><time>2026-08-15T18:23:13.000Z</time></trkpt>
        <trkpt lat="28.145154" lon="105.758874"><ele>1684.9108</ele><time>2026-08-15T18:23:15.000Z</time></trkpt>
        <trkpt lat="28.145138" lon="105.758885"><ele>1684.0442</ele><time>2026-08-15T18:23:17.000Z</time></trkpt>
        <trkpt lat="28.145124" lon="105.758897"><ele>1684.6289</ele><time>2026-08-15T18:23:19.000Z</time></trkpt>
        <trkpt lat="28.145113" lon="105.758906"><ele>1683.8348</ele><time>2026-08-15T18:23:21.000Z</time></trkpt>
        <trkpt lat="28.145105" lon="105.758912"><ele>1683.6781</ele><time>2026-08-15T18:23:23.000Z</time></trkpt>
        <trkpt lat="28.145098" lon="105.758919"><ele>1683.9325</ele><time>2026-08-15T18:23:25.000Z</time></trkpt>
        <trkpt lat="28.145083" lon="105.758937"><ele>1684.4854</ele><time>2026-08-15T18:23:29.000Z</time></trkpt>
        <trkpt lat="28.145079" lon="105.758945"><ele>1684.4807</ele><time>2026-08-15T18:23:31.000Z</time></trkpt>
        <trkpt lat="28.145073" lon="105.758953"><ele>1684.3234</ele><time>2026-08-15T18:23:33.000Z</time></trkpt>
        <trkpt lat="28.145058" lon="105.758965"><ele>1686.1</ele><time>2026-08-15T18:23:37.000Z</time></trkpt>
        <trkpt lat="28.145051" lon="105.758968"><ele>1686.0209</ele><time>2026-08-15T18:23:39.000Z</time></trkpt>
        <trkpt lat="28.145043" lon="105.758971"><ele>1685.9813</ele><time>2026-08-15T18:23:41.000Z</time></trkpt>
        <trkpt lat="28.145029" lon="105.758977"><ele>1686.4988</ele><time>2026-08-15T18:23:45.000Z</time></trkpt>
        <trkpt lat="28.14502" lon="105.758978"><ele>1686.5541</ele><time>2026-08-15T18:23:47.000Z</time></trkpt>
        <trkpt lat="28.14501" lon="105.75898"><ele>1686.2935</ele><time>2026-08-15T18:23:49.000Z</time></trkpt>
        <trkpt lat="28.144994" lon="105.758981"><ele>1686.6569</ele><time>2026-08-15T18:23:53.000Z</time></trkpt>
        <trkpt lat="28.144982" lon="105.758981"><ele>1686.7722</ele><time>2026-08-15T18:23:55.000Z</time></trkpt>
        <trkpt lat="28.144972" lon="105.758983"><ele>1686.9777</ele><time>2026-08-15T18:23:57.000Z</time></trkpt>
        <trkpt lat="28.144963" lon="105.758984"><ele>1687.5945</ele><time>2026-08-15T18:23:59.000Z</time></trkpt>
        <trkpt lat="28.144946" lon="105.758987"><ele>1688.0851</ele><time>2026-08-15T18:24:03.000Z</time></trkpt>
        <trkpt lat="28.144943" lon="105.758984"><ele>1688.6118</ele><time>2026-08-15T18:24:05.000Z</time></trkpt>
        <trkpt lat="28.144935" lon="105.758985"><ele>1688.4923</ele><time>2026-08-15T18:24:17.000Z</time></trkpt>
        <trkpt lat="28.14491" lon="105.758989"><ele>1688.3491</ele><time>2026-08-15T18:24:21.000Z</time></trkpt>
        <trkpt lat="28.14491" lon="105.758989"><ele>1689.525</ele><time>2026-08-15T18:24:23.000Z</time></trkpt>
        <trkpt lat="28.144902" lon="105.758991"><ele>1690.7162</ele><time>2026-08-15T18:24:27.000Z</time></trkpt>
        <trkpt lat="28.144867" lon="105.759"><ele>1689.845</ele><time>2026-08-15T18:24:37.000Z</time></trkpt>
        <trkpt lat="28.144859" lon="105.759002"><ele>1689.9304</ele><time>2026-08-15T18:24:39.000Z</time></trkpt>
        <trkpt lat="28.144847" lon="105.759004"><ele>1690.1555</ele><time>2026-08-15T18:24:41.000Z</time></trkpt>
        <trkpt lat="28.144822" lon="105.759008"><ele>1690.1382</ele><time>2026-08-15T18:24:43.000Z</time></trkpt>
        <trkpt lat="28.144822" lon="105.75901"><ele>1690.1415</ele><time>2026-08-15T18:24:45.000Z</time></trkpt>
        <trkpt lat="28.144818" lon="105.759014"><ele>1689.6097</ele><time>2026-08-15T18:24:47.000Z</time></trkpt>
        <trkpt lat="28.144789" lon="105.759044"><ele>1688.4132</ele><time>2026-08-15T18:24:51.000Z</time></trkpt>
        <trkpt lat="28.144775" lon="105.759058"><ele>1689.5643</ele><time>2026-08-15T18:24:53.000Z</time></trkpt>
        <trkpt lat="28.144763" lon="105.759069"><ele>1692.7067</ele><time>2026-08-15T18:24:55.000Z</time></trkpt>
        <trkpt lat="28.144763" lon="105.759069"><ele>1692.6454</ele><time>2026-08-15T18:24:57.000Z</time></trkpt>
        <trkpt lat="28.144767" lon="105.759096"><ele>1692.5005</ele><time>2026-08-15T18:25:13.000Z</time></trkpt>
        <trkpt lat="28.144763" lon="105.759115"><ele>1691.0773</ele><time>2026-08-15T18:25:31.000Z</time></trkpt>
        <trkpt lat="28.144759" lon="105.759133"><ele>1690.9404</ele><time>2026-08-15T18:25:33.000Z</time></trkpt>
        <trkpt lat="28.144759" lon="105.759133"><ele>1691.702</ele><time>2026-08-15T18:25:35.000Z</time></trkpt>
        <trkpt lat="28.144737" lon="105.759138"><ele>1689.9075</ele><time>2026-08-15T18:25:41.000Z</time></trkpt>
        <trkpt lat="28.144726" lon="105.759141"><ele>1689.6006</ele><time>2026-08-15T18:25:51.000Z</time></trkpt>
        <trkpt lat="28.144721" lon="105.759142"><ele>1689.1432</ele><time>2026-08-15T18:25:53.000Z</time></trkpt>
        <trkpt lat="28.144719" lon="105.75915"><ele>1687.2172</ele><time>2026-08-15T18:25:59.000Z</time></trkpt>
        <trkpt lat="28.144706" lon="105.75918"><ele>1685.9476</ele><time>2026-08-15T18:26:15.000Z</time></trkpt>
        <trkpt lat="28.144703" lon="105.759185"><ele>1686.1553</ele><time>2026-08-15T18:26:17.000Z</time></trkpt>
        <trkpt lat="28.144698" lon="105.759188"><ele>1686.2833</ele><time>2026-08-15T18:26:19.000Z</time></trkpt>
        <trkpt lat="28.144655" lon="105.759212"><ele>1689.4113</ele><time>2026-08-15T18:26:27.000Z</time></trkpt>
        <trkpt lat="28.144655" lon="105.759212"><ele>1688.907</ele><time>2026-08-15T18:26:29.000Z</time></trkpt>
        <trkpt lat="28.144655" lon="105.759212"><ele>1688.8608</ele><time>2026-08-15T18:26:31.000Z</time></trkpt>
        <trkpt lat="28.144648" lon="105.759176"><ele>1691.7427</ele><time>2026-08-15T18:26:47.000Z</time></trkpt>
        <trkpt lat="28.14465" lon="105.759172"><ele>1692.2993</ele><time>2026-08-15T18:26:49.000Z</time></trkpt>
        <trkpt lat="28.144653" lon="105.759165"><ele>1693.0468</ele><time>2026-08-15T18:26:51.000Z</time></trkpt>
        <trkpt lat="28.144683" lon="105.7591"><ele>1696.4738</ele><time>2026-08-15T18:27:01.000Z</time></trkpt>
        <trkpt lat="28.144683" lon="105.7591"><ele>1695.9753</ele><time>2026-08-15T18:27:03.000Z</time></trkpt>
        <trkpt lat="28.144685" lon="105.759102"><ele>1695.897</ele><time>2026-08-15T18:27:04.000Z</time></trkpt>
        <trkpt lat="28.144722" lon="105.759125"><ele>1696.0209</ele><time>2026-08-15T18:27:11.000Z</time></trkpt>
        <trkpt lat="28.144722" lon="105.759125"><ele>1695.7167</ele><time>2026-08-15T18:27:13.000Z</time></trkpt>
        <trkpt lat="28.144732" lon="105.759155"><ele>1695.5583</ele><time>2026-08-15T18:27:16.000Z</time></trkpt>
        <trkpt lat="28.144733" lon="105.759156"><ele>1695.5938</ele><time>2026-08-15T18:27:18.000Z</time></trkpt>
        <trkpt lat="28.144736" lon="105.759158"><ele>1695.1676</ele><time>2026-08-15T18:27:20.000Z</time></trkpt>
        <trkpt lat="28.144767" lon="105.759178"><ele>1696.6305</ele><time>2026-08-15T18:27:26.000Z</time></trkpt>
        <trkpt lat="28.144768" lon="105.759183"><ele>1695.4537</ele><time>2026-08-15T18:27:28.000Z</time></trkpt>
        <trkpt lat="28.144769" lon="105.759183"><ele>1695.3038</ele><time>2026-08-15T18:27:30.000Z</time></trkpt>
        <trkpt lat="28.144736" lon="105.75918"><ele>1694.971</ele><time>2026-08-15T18:27:34.000Z</time></trkpt>
        <trkpt lat="28.144708" lon="105.759179"><ele>1693.9814</ele><time>2026-08-15T18:27:36.000Z</time></trkpt>
        <trkpt lat="28.144677" lon="105.759177"><ele>1693.6273</ele><time>2026-08-15T18:27:38.000Z</time></trkpt>
        <trkpt lat="28.144655" lon="105.75918"><ele>1693.1603</ele><time>2026-08-15T18:27:40.000Z</time></trkpt>
        <trkpt lat="28.144647" lon="105.759185"><ele>1692.47</ele><time>2026-08-15T18:27:42.000Z</time></trkpt>
        <trkpt lat="28.144638" lon="105.759188"><ele>1692.1761</ele><time>2026-08-15T18:27:44.000Z</time></trkpt>
        <trkpt lat="28.144624" lon="105.75919"><ele>1692.3055</ele><time>2026-08-15T18:27:46.000Z</time></trkpt>
        <trkpt lat="28.144612" lon="105.759191"><ele>1692.694</ele><time>2026-08-15T18:27:48.000Z</time></trkpt>
        <trkpt lat="28.144602" lon="105.759191"><ele>1693.2738</ele><time>2026-08-15T18:27:50.000Z</time></trkpt>
        <trkpt lat="28.144593" lon="105.759187"><ele>1694.0387</ele><time>2026-08-15T18:27:54.000Z</time></trkpt>
        <trkpt lat="28.144583" lon="105.759174"><ele>1692.581</ele><time>2026-08-15T18:28:10.000Z</time></trkpt>
        <trkpt lat="28.144574" lon="105.759158"><ele>1692.1915</ele><time>2026-08-15T18:28:12.000Z</time></trkpt>
        <trkpt lat="28.144546" lon="105.759127"><ele>1693.1481</ele><time>2026-08-15T18:28:27.000Z</time></trkpt>
        <trkpt lat="28.144538" lon="105.759124"><ele>1694.6616</ele><time>2026-08-15T18:28:42.000Z</time></trkpt>
        <trkpt lat="28.144535" lon="105.759121"><ele>1695.0938</ele><time>2026-08-15T18:28:57.000Z</time></trkpt>
        <trkpt lat="28.144522" lon="105.759102"><ele>1696.744</ele><time>2026-08-15T18:29:12.000Z</time></trkpt>
        <trkpt lat="28.144514" lon="105.759097"><ele>1697.0197</ele><time>2026-08-15T18:29:22.000Z</time></trkpt>
        <trkpt lat="28.144511" lon="105.759095"><ele>1697.7704</ele><time>2026-08-15T18:29:24.000Z</time></trkpt>
        <trkpt lat="28.144489" lon="105.759089"><ele>1698.633</ele><time>2026-08-15T18:29:57.000Z</time></trkpt>
        <trkpt lat="28.14447" lon="105.759084"><ele>1698.7175</ele><time>2026-08-15T18:29:59.000Z</time></trkpt>
        <trkpt lat="28.144469" lon="105.759083"><ele>1698.982</ele><time>2026-08-15T18:30:01.000Z</time></trkpt>
        <trkpt lat="28.144459" lon="105.759074"><ele>1698.9181</ele><time>2026-08-15T18:30:05.000Z</time></trkpt>
        <trkpt lat="28.144417" lon="105.759051"><ele>1700.0885</ele><time>2026-08-15T18:30:22.000Z</time></trkpt>
        <trkpt lat="28.144372" lon="105.759028"><ele>1703.2142</ele><time>2026-08-15T18:30:35.000Z</time></trkpt>
        <trkpt lat="28.144372" lon="105.759028"><ele>1704.4663</ele><time>2026-08-15T18:30:37.000Z</time></trkpt>
        <trkpt lat="28.144369" lon="105.759028"><ele>1704.9683</ele><time>2026-08-15T18:30:39.000Z</time></trkpt>
        <trkpt lat="28.144342" lon="105.759034"><ele>1706.8049</ele><time>2026-08-15T18:30:51.000Z</time></trkpt>
        <trkpt lat="28.144336" lon="105.759038"><ele>1707.2528</ele><time>2026-08-15T18:30:53.000Z</time></trkpt>
        <trkpt lat="28.144319" lon="105.75905"><ele>1708.1387</ele><time>2026-08-15T18:30:55.000Z</time></trkpt>
        <trkpt lat="28.144316" lon="105.759053"><ele>1709.4431</ele><time>2026-08-15T18:30:59.000Z</time></trkpt>
        <trkpt lat="28.144309" lon="105.759058"><ele>1709.1572</ele><time>2026-08-15T18:31:01.000Z</time></trkpt>
        <trkpt lat="28.144277" lon="105.759078"><ele>1708.5453</ele><time>2026-08-15T18:31:05.000Z</time></trkpt>
        <trkpt lat="28.144262" lon="105.759088"><ele>1708.2642</ele><time>2026-08-15T18:31:07.000Z</time></trkpt>
        <trkpt lat="28.144249" lon="105.759096"><ele>1708.8088</ele><time>2026-08-15T18:31:09.000Z</time></trkpt>
        <trkpt lat="28.144237" lon="105.759106"><ele>1708.3229</ele><time>2026-08-15T18:31:11.000Z</time></trkpt>
        <trkpt lat="28.14423" lon="105.759115"><ele>1709.3457</ele><time>2026-08-15T18:31:13.000Z</time></trkpt>
        <trkpt lat="28.14422" lon="105.759126"><ele>1709.7018</ele><time>2026-08-15T18:31:15.000Z</time></trkpt>
        <trkpt lat="28.144211" lon="105.759139"><ele>1710.1918</ele><time>2026-08-15T18:31:17.000Z</time></trkpt>
        <trkpt lat="28.144206" lon="105.759146"><ele>1711.0876</ele><time>2026-08-15T18:31:19.000Z</time></trkpt>
        <trkpt lat="28.144197" lon="105.759159"><ele>1710.9839</ele><time>2026-08-15T18:31:21.000Z</time></trkpt>
        <trkpt lat="28.14419" lon="105.759168"><ele>1712.9178</ele><time>2026-08-15T18:31:23.000Z</time></trkpt>
        <trkpt lat="28.144185" lon="105.759178"><ele>1713.2299</ele><time>2026-08-15T18:31:25.000Z</time></trkpt>
        <trkpt lat="28.144179" lon="105.759179"><ele>1713.2743</ele><time>2026-08-15T18:31:27.000Z</time></trkpt>
        <trkpt lat="28.144154" lon="105.759181"><ele>1713.4113</ele><time>2026-08-15T18:31:35.000Z</time></trkpt>
        <trkpt lat="28.144154" lon="105.759159"><ele>1713.1224</ele><time>2026-08-15T18:31:37.000Z</time></trkpt>
        <trkpt lat="28.144154" lon="105.759159"><ele>1712.8768</ele><time>2026-08-15T18:31:41.000Z</time></trkpt>
        <trkpt lat="28.144117" lon="105.759154"><ele>1712.3193</ele><time>2026-08-15T18:31:45.000Z</time></trkpt>
        <trkpt lat="28.1441" lon="105.759155"><ele>1712.5632</ele><time>2026-08-15T18:31:47.000Z</time></trkpt>
        <trkpt lat="28.144079" lon="105.759157"><ele>1712.6752</ele><time>2026-08-15T18:31:49.000Z</time></trkpt>
        <trkpt lat="28.144061" lon="105.759161"><ele>1712.3894</ele><time>2026-08-15T18:31:51.000Z</time></trkpt>
        <trkpt lat="28.144048" lon="105.759164"><ele>1712.1897</ele><time>2026-08-15T18:31:53.000Z</time></trkpt>
        <trkpt lat="28.14404" lon="105.759166"><ele>1712.0908</ele><time>2026-08-15T18:31:55.000Z</time></trkpt>
        <trkpt lat="28.14403" lon="105.759173"><ele>1713.2645</ele><time>2026-08-15T18:32:01.000Z</time></trkpt>
        <trkpt lat="28.144008" lon="105.759181"><ele>1716.9713</ele><time>2026-08-15T18:32:22.000Z</time></trkpt>
        <trkpt lat="28.143972" lon="105.75919"><ele>1719.7289</ele><time>2026-08-15T18:32:37.000Z</time></trkpt>
        <trkpt lat="28.14396" lon="105.759193"><ele>1719.2258</ele><time>2026-08-15T18:32:39.000Z</time></trkpt>
        <trkpt lat="28.143959" lon="105.759193"><ele>1719.4988</ele><time>2026-08-15T18:32:41.000Z</time></trkpt>
        <trkpt lat="28.143929" lon="105.759169"><ele>1719.4615</ele><time>2026-08-15T18:32:47.000Z</time></trkpt>
        <trkpt lat="28.14391" lon="105.759162"><ele>1719.7128</ele><time>2026-08-15T18:32:49.000Z</time></trkpt>
        <trkpt lat="28.143898" lon="105.759164"><ele>1720.5985</ele><time>2026-08-15T18:32:51.000Z</time></trkpt>
        <trkpt lat="28.143888" lon="105.759172"><ele>1721.3903</ele><time>2026-08-15T18:32:53.000Z</time></trkpt>
        <trkpt lat="28.143876" lon="105.759183"><ele>1722.4626</ele><time>2026-08-15T18:32:55.000Z</time></trkpt>
        <trkpt lat="28.143867" lon="105.759193"><ele>1722.8091</ele><time>2026-08-15T18:32:57.000Z</time></trkpt>
        <trkpt lat="28.143862" lon="105.759191"><ele>1723.4954</ele><time>2026-08-15T18:32:59.000Z</time></trkpt>
        <trkpt lat="28.143849" lon="105.759181"><ele>1723.2744</ele><time>2026-08-15T18:33:05.000Z</time></trkpt>
        <trkpt lat="28.143832" lon="105.759167"><ele>1723.5543</ele><time>2026-08-15T18:33:07.000Z</time></trkpt>
        <trkpt lat="28.143832" lon="105.759167"><ele>1723.8585</ele><time>2026-08-15T18:33:09.000Z</time></trkpt>
        <trkpt lat="28.143827" lon="105.759186"><ele>1725.2523</ele><time>2026-08-15T18:33:15.000Z</time></trkpt>
        <trkpt lat="28.143819" lon="105.759213"><ele>1726.9181</ele><time>2026-08-15T18:33:37.000Z</time></trkpt>
        <trkpt lat="28.143815" lon="105.759229"><ele>1726.9946</ele><time>2026-08-15T18:33:39.000Z</time></trkpt>
        <trkpt lat="28.143814" lon="105.75923"><ele>1726.3782</ele><time>2026-08-15T18:33:41.000Z</time></trkpt>
        <trkpt lat="28.143802" lon="105.759238"><ele>1727.2279</ele><time>2026-08-15T18:33:49.000Z</time></trkpt>
        <trkpt lat="28.143788" lon="105.759249"><ele>1726.5243</ele><time>2026-08-15T18:33:55.000Z</time></trkpt>
        <trkpt lat="28.143788" lon="105.759249"><ele>1725.9506</ele><time>2026-08-15T18:33:57.000Z</time></trkpt>
        <trkpt lat="28.143782" lon="105.759261"><ele>1726.4241</ele><time>2026-08-15T18:34:01.000Z</time></trkpt>
        <trkpt lat="28.143769" lon="105.75929"><ele>1727.9105</ele><time>2026-08-15T18:34:05.000Z</time></trkpt>
        <trkpt lat="28.143769" lon="105.75929"><ele>1728.7693</ele><time>2026-08-15T18:34:07.000Z</time></trkpt>
        <trkpt lat="28.143768" lon="105.759293"><ele>1729.8699</ele><time>2026-08-15T18:34:09.000Z</time></trkpt>
        <trkpt lat="28.143764" lon="105.759325"><ele>1729.6042</ele><time>2026-08-15T18:34:13.000Z</time></trkpt>
        <trkpt lat="28.143764" lon="105.759339"><ele>1730.4385</ele><time>2026-08-15T18:34:15.000Z</time></trkpt>
        <trkpt lat="28.143765" lon="105.75934"><ele>1731.0842</ele><time>2026-08-15T18:34:17.000Z</time></trkpt>
        <trkpt lat="28.143724" lon="105.759329"><ele>1731.9076</ele><time>2026-08-15T18:34:27.000Z</time></trkpt>
        <trkpt lat="28.143724" lon="105.759329"><ele>1733.3618</ele><time>2026-08-15T18:34:29.000Z</time></trkpt>
        <trkpt lat="28.143723" lon="105.759331"><ele>1734.4519</ele><time>2026-08-15T18:34:31.000Z</time></trkpt>
        <trkpt lat="28.143715" lon="105.759371"><ele>1732.3761</ele><time>2026-08-15T18:34:37.000Z</time></trkpt>
        <trkpt lat="28.143714" lon="105.759377"><ele>1732.6376</ele><time>2026-08-15T18:34:39.000Z</time></trkpt>
        <trkpt lat="28.143715" lon="105.759377"><ele>1732.3047</ele><time>2026-08-15T18:34:41.000Z</time></trkpt>
        <trkpt lat="28.143761" lon="105.759383"><ele>1734.7689</ele><time>2026-08-15T18:34:47.000Z</time></trkpt>
        <trkpt lat="28.143761" lon="105.759383"><ele>1735.3999</ele><time>2026-08-15T18:34:49.000Z</time></trkpt>
        <trkpt lat="28.143756" lon="105.759385"><ele>1734.747</ele><time>2026-08-15T18:34:51.000Z</time></trkpt>
        <trkpt lat="28.143714" lon="105.759408"><ele>1735.8983</ele><time>2026-08-15T18:34:53.000Z</time></trkpt>
        <trkpt lat="28.143711" lon="105.759409"><ele>1735.1757</ele><time>2026-08-15T18:34:55.000Z</time></trkpt>
        <trkpt lat="28.143708" lon="105.75941"><ele>1735.6755</ele><time>2026-08-15T18:34:57.000Z</time></trkpt>
        <trkpt lat="28.143682" lon="105.759414"><ele>1736.4069</ele><time>2026-08-15T18:35:01.000Z</time></trkpt>
        <trkpt lat="28.143668" lon="105.759416"><ele>1736.2021</ele><time>2026-08-15T18:35:03.000Z</time></trkpt>
        <trkpt lat="28.143655" lon="105.759419"><ele>1736.4918</ele><time>2026-08-15T18:35:05.000Z</time></trkpt>
        <trkpt lat="28.143646" lon="105.759422"><ele>1736.366</ele><time>2026-08-15T18:35:07.000Z</time></trkpt>
        <trkpt lat="28.143637" lon="105.759422"><ele>1737.3</ele><time>2026-08-15T18:35:11.000Z</time></trkpt>
        <trkpt lat="28.143626" lon="105.759426"><ele>1740.443</ele><time>2026-08-15T18:35:17.000Z</time></trkpt>
        <trkpt lat="28.143619" lon="105.759433"><ele>1740.645</ele><time>2026-08-15T18:35:25.000Z</time></trkpt>
        <trkpt lat="28.143606" lon="105.759445"><ele>1740.628</ele><time>2026-08-15T18:35:29.000Z</time></trkpt>
        <trkpt lat="28.143593" lon="105.759457"><ele>1741.3094</ele><time>2026-08-15T18:35:31.000Z</time></trkpt>
        <trkpt lat="28.143577" lon="105.759461"><ele>1741.2472</ele><time>2026-08-15T18:35:47.000Z</time></trkpt>
        <trkpt lat="28.143525" lon="105.759473"><ele>1743.5461</ele><time>2026-08-15T18:36:02.000Z</time></trkpt>
        <trkpt lat="28.143508" lon="105.759477"><ele>1743.8303</ele><time>2026-08-15T18:36:17.000Z</time></trkpt>
        <trkpt lat="28.143517" lon="105.75942"><ele>1742.8063</ele><time>2026-08-15T18:36:25.000Z</time></trkpt>
        <trkpt lat="28.143517" lon="105.75942"><ele>1743.0746</ele><time>2026-08-15T18:36:27.000Z</time></trkpt>
        <trkpt lat="28.143517" lon="105.759418"><ele>1743.1235</ele><time>2026-08-15T18:36:29.000Z</time></trkpt>
        <trkpt lat="28.143509" lon="105.759385"><ele>1744.1228</ele><time>2026-08-15T18:36:37.000Z</time></trkpt>
        <trkpt lat="28.14351" lon="105.759383"><ele>1744.1472</ele><time>2026-08-15T18:36:39.000Z</time></trkpt>
        <trkpt lat="28.143513" lon="105.75938"><ele>1744.8726</ele><time>2026-08-15T18:36:41.000Z</time></trkpt>
        <trkpt lat="28.143537" lon="105.75936"><ele>1747.3445</ele><time>2026-08-15T18:36:49.000Z</time></trkpt>
        <trkpt lat="28.143542" lon="105.759358"><ele>1748.2764</ele><time>2026-08-15T18:36:51.000Z</time></trkpt>
        <trkpt lat="28.143547" lon="105.759355"><ele>1748.7358</ele><time>2026-08-15T18:36:53.000Z</time></trkpt>
        <trkpt lat="28.143565" lon="105.759344"><ele>1747.9989</ele><time>2026-08-15T18:36:59.000Z</time></trkpt>
        <trkpt lat="28.143544" lon="105.75932"><ele>1746.6832</ele><time>2026-08-15T18:37:07.000Z</time></trkpt>
        <trkpt lat="28.14353" lon="105.759303"><ele>1746.4459</ele><time>2026-08-15T18:37:09.000Z</time></trkpt>
        <trkpt lat="28.143529" lon="105.759301"><ele>1746.929</ele><time>2026-08-15T18:37:11.000Z</time></trkpt>
        <trkpt lat="28.143527" lon="105.759291"><ele>1747.3376</ele><time>2026-08-15T18:37:15.000Z</time></trkpt>
        <trkpt lat="28.143525" lon="105.759262"><ele>1746.9346</ele><time>2026-08-15T18:37:19.000Z</time></trkpt>
        <trkpt lat="28.143524" lon="105.759243"><ele>1746.8405</ele><time>2026-08-15T18:37:22.000Z</time></trkpt>
        <trkpt lat="28.143521" lon="105.759233"><ele>1746.4742</ele><time>2026-08-15T18:37:24.000Z</time></trkpt>
        <trkpt lat="28.143517" lon="105.759223"><ele>1747.1407</ele><time>2026-08-15T18:37:26.000Z</time></trkpt>
        <trkpt lat="28.143514" lon="105.759211"><ele>1747.3938</ele><time>2026-08-15T18:37:28.000Z</time></trkpt>
        <trkpt lat="28.143512" lon="105.759198"><ele>1747.1296</ele><time>2026-08-15T18:37:32.000Z</time></trkpt>
        <trkpt lat="28.143508" lon="105.759183"><ele>1748.0188</ele><time>2026-08-15T18:37:35.000Z</time></trkpt>
        <trkpt lat="28.143506" lon="105.759173"><ele>1749.3938</ele><time>2026-08-15T18:37:39.000Z</time></trkpt>
        <trkpt lat="28.143503" lon="105.759163"><ele>1749.8385</ele><time>2026-08-15T18:37:43.000Z</time></trkpt>
        <trkpt lat="28.143496" lon="105.759139"><ele>1750.1399</ele><time>2026-08-15T18:37:47.000Z</time></trkpt>
        <trkpt lat="28.143496" lon="105.759139"><ele>1749.9766</ele><time>2026-08-15T18:37:49.000Z</time></trkpt>
        <trkpt lat="28.143494" lon="105.75913"><ele>1750.1122</ele><time>2026-08-15T18:37:53.000Z</time></trkpt>
        <trkpt lat="28.143484" lon="105.759095"><ele>1751.6134</ele><time>2026-08-15T18:37:57.000Z</time></trkpt>
        <trkpt lat="28.143484" lon="105.759094"><ele>1751.9294</ele><time>2026-08-15T18:37:59.000Z</time></trkpt>
        <trkpt lat="28.143483" lon="105.759092"><ele>1753.2072</ele><time>2026-08-15T18:38:01.000Z</time></trkpt>
        <trkpt lat="28.143473" lon="105.759051"><ele>1753.1246</ele><time>2026-08-15T18:38:07.000Z</time></trkpt>
        <trkpt lat="28.143473" lon="105.759051"><ele>1747.093</ele><time>2026-08-15T18:38:10.000Z</time></trkpt>
        <trkpt lat="28.143472" lon="105.75905"><ele>1747.9055</ele><time>2026-08-15T18:38:12.000Z</time></trkpt>
        <trkpt lat="28.143453" lon="105.759012"><ele>1753.2517</ele><time>2026-08-15T18:38:16.000Z</time></trkpt>
        <trkpt lat="28.143443" lon="105.758991"><ele>1753.3187</ele><time>2026-08-15T18:38:18.000Z</time></trkpt>
        <trkpt lat="28.143436" lon="105.758969"><ele>1752.4614</ele><time>2026-08-15T18:38:20.000Z</time></trkpt>
        <trkpt lat="28.14343" lon="105.758947"><ele>1751.8627</ele><time>2026-08-15T18:38:22.000Z</time></trkpt>
        <trkpt lat="28.143425" lon="105.758931"><ele>1751.3353</ele><time>2026-08-15T18:38:24.000Z</time></trkpt>
        <trkpt lat="28.14342" lon="105.758916"><ele>1752.0156</ele><time>2026-08-15T18:38:26.000Z</time></trkpt>
        <trkpt lat="28.143415" lon="105.758901"><ele>1752.478</ele><time>2026-08-15T18:38:28.000Z</time></trkpt>
        <trkpt lat="28.143411" lon="105.758887"><ele>1752.242</ele><time>2026-08-15T18:38:30.000Z</time></trkpt>
        <trkpt lat="28.143407" lon="105.758876"><ele>1752.0764</ele><time>2026-08-15T18:38:32.000Z</time></trkpt>
        <trkpt lat="28.143403" lon="105.758866"><ele>1752.7125</ele><time>2026-08-15T18:38:34.000Z</time></trkpt>
        <trkpt lat="28.143395" lon="105.758854"><ele>1752.4978</ele><time>2026-08-15T18:38:36.000Z</time></trkpt>
        <trkpt lat="28.143383" lon="105.758839"><ele>1752.4827</ele><time>2026-08-15T18:38:38.000Z</time></trkpt>
        <trkpt lat="28.143373" lon="105.758828"><ele>1752.487</ele><time>2026-08-15T18:38:40.000Z</time></trkpt>
        <trkpt lat="28.143367" lon="105.758825"><ele>1752.8263</ele><time>2026-08-15T18:38:42.000Z</time></trkpt>
        <trkpt lat="28.143355" lon="105.758823"><ele>1753.0433</ele><time>2026-08-15T18:38:46.000Z</time></trkpt>
        <trkpt lat="28.14334" lon="105.75882"><ele>1753.0623</ele><time>2026-08-15T18:38:50.000Z</time></trkpt>
        <trkpt lat="28.143333" lon="105.75882"><ele>1752.7639</ele><time>2026-08-15T18:38:52.000Z</time></trkpt>
        <trkpt lat="28.143322" lon="105.758821"><ele>1752.0602</ele><time>2026-08-15T18:38:56.000Z</time></trkpt>
        <trkpt lat="28.143309" lon="105.75882"><ele>1752.1078</ele><time>2026-08-15T18:39:00.000Z</time></trkpt>
        <trkpt lat="28.143301" lon="105.758816"><ele>1751.9691</ele><time>2026-08-15T18:39:04.000Z</time></trkpt>
        <trkpt lat="28.143287" lon="105.75881"><ele>1751.7246</ele><time>2026-08-15T18:39:08.000Z</time></trkpt>
        <trkpt lat="28.143281" lon="105.758808"><ele>1751.7202</ele><time>2026-08-15T18:39:10.000Z</time></trkpt>
        <trkpt lat="28.143273" lon="105.758804"><ele>1752.3588</ele><time>2026-08-15T18:39:12.000Z</time></trkpt>
        <trkpt lat="28.143255" lon="105.7588"><ele>1752.2396</ele><time>2026-08-15T18:39:18.000Z</time></trkpt>
        <trkpt lat="28.143233" lon="105.758795"><ele>1752.437</ele><time>2026-08-15T18:39:20.000Z</time></trkpt>
        <trkpt lat="28.143231" lon="105.758794"><ele>1753.177</ele><time>2026-08-15T18:39:22.000Z</time></trkpt>
        <trkpt lat="28.143219" lon="105.758787"><ele>1753.428</ele><time>2026-08-15T18:39:26.000Z</time></trkpt>
        <trkpt lat="28.143197" lon="105.758775"><ele>1754.771</ele><time>2026-08-15T18:39:30.000Z</time></trkpt>
        <trkpt lat="28.143197" lon="105.758775"><ele>1754.7189</ele><time>2026-08-15T18:39:32.000Z</time></trkpt>
        <trkpt lat="28.143188" lon="105.758775"><ele>1754.9434</ele><time>2026-08-15T18:39:38.000Z</time></trkpt>
        <trkpt lat="28.143168" lon="105.75878"><ele>1754.4034</ele><time>2026-08-15T18:39:44.000Z</time></trkpt>
        <trkpt lat="28.143147" lon="105.758786"><ele>1755.324</ele><time>2026-08-15T18:39:46.000Z</time></trkpt>
        <trkpt lat="28.143146" lon="105.758785"><ele>1755.0225</ele><time>2026-08-15T18:39:48.000Z</time></trkpt>
        <trkpt lat="28.143131" lon="105.758782"><ele>1755.9796</ele><time>2026-08-15T18:39:52.000Z</time></trkpt>
        <trkpt lat="28.143108" lon="105.758781"><ele>1755.924</ele><time>2026-08-15T18:40:00.000Z</time></trkpt>
        <trkpt lat="28.143088" lon="105.758781"><ele>1755.7631</ele><time>2026-08-15T18:40:02.000Z</time></trkpt>
        <trkpt lat="28.143086" lon="105.758781"><ele>1755.7897</ele><time>2026-08-15T18:40:04.000Z</time></trkpt>
        <trkpt lat="28.14307" lon="105.758787"><ele>1756.5695</ele><time>2026-08-15T18:40:12.000Z</time></trkpt>
        <trkpt lat="28.143055" lon="105.758793"><ele>1757.2859</ele><time>2026-08-15T18:40:16.000Z</time></trkpt>
        <trkpt lat="28.14305" lon="105.758794"><ele>1756.5425</ele><time>2026-08-15T18:40:18.000Z</time></trkpt>
        <trkpt lat="28.143039" lon="105.758797"><ele>1757.0094</ele><time>2026-08-15T18:40:22.000Z</time></trkpt>
        <trkpt lat="28.143021" lon="105.758802"><ele>1758.6426</ele><time>2026-08-15T18:40:30.000Z</time></trkpt>
        <trkpt lat="28.143015" lon="105.758801"><ele>1760.5243</ele><time>2026-08-15T18:40:32.000Z</time></trkpt>
        <trkpt lat="28.142975" lon="105.758797"><ele>1763.9485</ele><time>2026-08-15T18:40:41.000Z</time></trkpt>
        <trkpt lat="28.14296" lon="105.758796"><ele>1764.6273</ele><time>2026-08-15T18:40:43.000Z</time></trkpt>
        <trkpt lat="28.142959" lon="105.758796"><ele>1765.3959</ele><time>2026-08-15T18:40:45.000Z</time></trkpt>
        <trkpt lat="28.142939" lon="105.758799"><ele>1766.9349</ele><time>2026-08-15T18:40:49.000Z</time></trkpt>
        <trkpt lat="28.14292" lon="105.758801"><ele>1767.1698</ele><time>2026-08-15T18:40:51.000Z</time></trkpt>
        <trkpt lat="28.142902" lon="105.758803"><ele>1767.7689</ele><time>2026-08-15T18:40:53.000Z</time></trkpt>
        <trkpt lat="28.142885" lon="105.758804"><ele>1768.6958</ele><time>2026-08-15T18:40:55.000Z</time></trkpt>
        <trkpt lat="28.142871" lon="105.758803"><ele>1768.035</ele><time>2026-08-15T18:40:57.000Z</time></trkpt>
        <trkpt lat="28.142855" lon="105.758798"><ele>1767.9718</ele><time>2026-08-15T18:40:59.000Z</time></trkpt>
        <trkpt lat="28.142839" lon="105.758792"><ele>1768.1066</ele><time>2026-08-15T18:41:01.000Z</time></trkpt>
        <trkpt lat="28.142827" lon="105.758787"><ele>1768.6642</ele><time>2026-08-15T18:41:03.000Z</time></trkpt>
        <trkpt lat="28.142815" lon="105.758782"><ele>1768.8823</ele><time>2026-08-15T18:41:05.000Z</time></trkpt>
        <trkpt lat="28.142803" lon="105.758776"><ele>1767.7777</ele><time>2026-08-15T18:41:07.000Z</time></trkpt>
        <trkpt lat="28.142792" lon="105.75877"><ele>1767.1097</ele><time>2026-08-15T18:41:09.000Z</time></trkpt>
        <trkpt lat="28.142778" lon="105.758763"><ele>1765.7738</ele><time>2026-08-15T18:41:11.000Z</time></trkpt>
        <trkpt lat="28.142757" lon="105.758752"><ele>1766.6504</ele><time>2026-08-15T18:41:13.000Z</time></trkpt>
        <trkpt lat="28.142738" lon="105.758743"><ele>1766.752</ele><time>2026-08-15T18:41:15.000Z</time></trkpt>
        <trkpt lat="28.142722" lon="105.758738"><ele>1766.8672</ele><time>2026-08-15T18:41:17.000Z</time></trkpt>
        <trkpt lat="28.142709" lon="105.758734"><ele>1766.669</ele><time>2026-08-15T18:41:19.000Z</time></trkpt>
        <trkpt lat="28.142695" lon="105.758731"><ele>1767.2521</ele><time>2026-08-15T18:41:21.000Z</time></trkpt>
        <trkpt lat="28.142683" lon="105.758727"><ele>1767.554</ele><time>2026-08-15T18:41:23.000Z</time></trkpt>
        <trkpt lat="28.142669" lon="105.758721"><ele>1768.2048</ele><time>2026-08-15T18:41:25.000Z</time></trkpt>
        <trkpt lat="28.142658" lon="105.758716"><ele>1768.2888</ele><time>2026-08-15T18:41:27.000Z</time></trkpt>
        <trkpt lat="28.142647" lon="105.758709"><ele>1767.9452</ele><time>2026-08-15T18:41:29.000Z</time></trkpt>
        <trkpt lat="28.142637" lon="105.758702"><ele>1767.6569</ele><time>2026-08-15T18:41:31.000Z</time></trkpt>
        <trkpt lat="28.142628" lon="105.758695"><ele>1767.7902</ele><time>2026-08-15T18:41:33.000Z</time></trkpt>
        <trkpt lat="28.142621" lon="105.758689"><ele>1768.0204</ele><time>2026-08-15T18:41:35.000Z</time></trkpt>
        <trkpt lat="28.142611" lon="105.758679"><ele>1767.9327</ele><time>2026-08-15T18:41:37.000Z</time></trkpt>
        <trkpt lat="28.1426" lon="105.758668"><ele>1766.866</ele><time>2026-08-15T18:41:39.000Z</time></trkpt>
        <trkpt lat="28.142595" lon="105.758658"><ele>1767.1713</ele><time>2026-08-15T18:41:41.000Z</time></trkpt>
        <trkpt lat="28.14259" lon="105.75865"><ele>1768.3892</ele><time>2026-08-15T18:41:47.000Z</time></trkpt>
        <trkpt lat="28.142581" lon="105.758634"><ele>1769.7017</ele><time>2026-08-15T18:41:53.000Z</time></trkpt>
        <trkpt lat="28.14258" lon="105.758627"><ele>1769.0684</ele><time>2026-08-15T18:41:57.000Z</time></trkpt>
        <trkpt lat="28.142573" lon="105.758619"><ele>1767.9218</ele><time>2026-08-15T18:42:03.000Z</time></trkpt>
        <trkpt lat="28.142557" lon="105.758599"><ele>1769.5798</ele><time>2026-08-15T18:42:07.000Z</time></trkpt>
        <trkpt lat="28.142557" lon="105.758599"><ele>1769.911</ele><time>2026-08-15T18:42:09.000Z</time></trkpt>
        <trkpt lat="28.142544" lon="105.758594"><ele>1770.2955</ele><time>2026-08-15T18:42:13.000Z</time></trkpt>
        <trkpt lat="28.142517" lon="105.758587"><ele>1772.2395</ele><time>2026-08-15T18:42:17.000Z</time></trkpt>
        <trkpt lat="28.142509" lon="105.758588"><ele>1773.853</ele><time>2026-08-15T18:42:19.000Z</time></trkpt>
        <trkpt lat="28.142503" lon="105.758593"><ele>1774.9852</ele><time>2026-08-15T18:42:21.000Z</time></trkpt>
        <trkpt lat="28.142489" lon="105.758608"><ele>1775.7504</ele><time>2026-08-15T18:42:25.000Z</time></trkpt>
        <trkpt lat="28.142485" lon="105.758615"><ele>1775.6134</ele><time>2026-08-15T18:42:27.000Z</time></trkpt>
        <trkpt lat="28.142482" lon="105.758625"><ele>1775.4966</ele><time>2026-08-15T18:42:29.000Z</time></trkpt>
        <trkpt lat="28.142478" lon="105.758639"><ele>1775.7496</ele><time>2026-08-15T18:42:31.000Z</time></trkpt>
        <trkpt lat="28.142474" lon="105.758653"><ele>1776.5112</ele><time>2026-08-15T18:42:33.000Z</time></trkpt>
        <trkpt lat="28.14247" lon="105.758667"><ele>1776.634</ele><time>2026-08-15T18:42:35.000Z</time></trkpt>
        <trkpt lat="28.142462" lon="105.758675"><ele>1777.4568</ele><time>2026-08-15T18:42:37.000Z</time></trkpt>
        <trkpt lat="28.142411" lon="105.758726"><ele>1776.8859</ele><time>2026-08-15T18:42:49.000Z</time></trkpt>
        <trkpt lat="28.142406" lon="105.75873"><ele>1776.5323</ele><time>2026-08-15T18:42:51.000Z</time></trkpt>
        <trkpt lat="28.142399" lon="105.758736"><ele>1776.9608</ele><time>2026-08-15T18:42:53.000Z</time></trkpt>
        <trkpt lat="28.142381" lon="105.75875"><ele>1775.5881</ele><time>2026-08-15T18:43:01.000Z</time></trkpt>
        <trkpt lat="28.142377" lon="105.758753"><ele>1775.05</ele><time>2026-08-15T18:43:03.000Z</time></trkpt>
        <trkpt lat="28.142363" lon="105.758762"><ele>1775.3109</ele><time>2026-08-15T18:43:05.000Z</time></trkpt>
        <trkpt lat="28.142347" lon="105.758772"><ele>1774.7634</ele><time>2026-08-15T18:43:07.000Z</time></trkpt>
        <trkpt lat="28.142345" lon="105.758772"><ele>1775.4176</ele><time>2026-08-15T18:43:09.000Z</time></trkpt>
        <trkpt lat="28.142323" lon="105.758778"><ele>1775.4735</ele><time>2026-08-15T18:43:15.000Z</time></trkpt>
        <trkpt lat="28.142312" lon="105.758781"><ele>1775.1436</ele><time>2026-08-15T18:43:17.000Z</time></trkpt>
        <trkpt lat="28.1423" lon="105.758786"><ele>1774.9314</ele><time>2026-08-15T18:43:19.000Z</time></trkpt>
        <trkpt lat="28.142286" lon="105.758791"><ele>1774.1704</ele><time>2026-08-15T18:43:21.000Z</time></trkpt>
        <trkpt lat="28.142279" lon="105.758794"><ele>1774.0985</ele><time>2026-08-15T18:43:23.000Z</time></trkpt>
        <trkpt lat="28.142269" lon="105.758803"><ele>1774.7627</ele><time>2026-08-15T18:43:37.000Z</time></trkpt>
        <trkpt lat="28.142254" lon="105.758816"><ele>1775.1646</ele><time>2026-08-15T18:43:39.000Z</time></trkpt>
        <trkpt lat="28.142252" lon="105.758816"><ele>1775.8901</ele><time>2026-08-15T18:43:41.000Z</time></trkpt>
        <trkpt lat="28.142213" lon="105.758831"><ele>1776.9717</ele><time>2026-08-15T18:43:44.000Z</time></trkpt>
        <trkpt lat="28.142213" lon="105.758831"><ele>1777.2411</ele><time>2026-08-15T18:43:46.000Z</time></trkpt>
        <trkpt lat="28.14221" lon="105.758831"><ele>1777.2244</ele><time>2026-08-15T18:43:48.000Z</time></trkpt>
        <trkpt lat="28.142177" lon="105.758837"><ele>1778.9121</ele><time>2026-08-15T18:43:52.000Z</time></trkpt>
        <trkpt lat="28.142161" lon="105.758838"><ele>1778.694</ele><time>2026-08-15T18:43:54.000Z</time></trkpt>
        <trkpt lat="28.142146" lon="105.758837"><ele>1778.2546</ele><time>2026-08-15T18:43:56.000Z</time></trkpt>
        <trkpt lat="28.142133" lon="105.758838"><ele>1778.8351</ele><time>2026-08-15T18:43:58.000Z</time></trkpt>
        <trkpt lat="28.14212" lon="105.758839"><ele>1778.8041</ele><time>2026-08-15T18:44:00.000Z</time></trkpt>
        <trkpt lat="28.142106" lon="105.75884"><ele>1779.0167</ele><time>2026-08-15T18:44:02.000Z</time></trkpt>
        <trkpt lat="28.142093" lon="105.758841"><ele>1779.309</ele><time>2026-08-15T18:44:04.000Z</time></trkpt>
        <trkpt lat="28.142081" lon="105.758841"><ele>1779.7025</ele><time>2026-08-15T18:44:06.000Z</time></trkpt>
        <trkpt lat="28.142065" lon="105.758841"><ele>1780.3274</ele><time>2026-08-15T18:44:08.000Z</time></trkpt>
        <trkpt lat="28.142047" lon="105.758842"><ele>1780.3762</ele><time>2026-08-15T18:44:10.000Z</time></trkpt>
        <trkpt lat="28.142027" lon="105.758843"><ele>1780.486</ele><time>2026-08-15T18:44:12.000Z</time></trkpt>
        <trkpt lat="28.142009" lon="105.758843"><ele>1780.2488</ele><time>2026-08-15T18:44:14.000Z</time></trkpt>
        <trkpt lat="28.141991" lon="105.758844"><ele>1780.2466</ele><time>2026-08-15T18:44:16.000Z</time></trkpt>
        <trkpt lat="28.141976" lon="105.758842"><ele>1779.7701</ele><time>2026-08-15T18:44:18.000Z</time></trkpt>
        <trkpt lat="28.14196" lon="105.758841"><ele>1779.7627</ele><time>2026-08-15T18:44:20.000Z</time></trkpt>
        <trkpt lat="28.141947" lon="105.758839"><ele>1779.1506</ele><time>2026-08-15T18:44:22.000Z</time></trkpt>
        <trkpt lat="28.141934" lon="105.758835"><ele>1778.7437</ele><time>2026-08-15T18:44:24.000Z</time></trkpt>
        <trkpt lat="28.141918" lon="105.758827"><ele>1778.279</ele><time>2026-08-15T18:44:26.000Z</time></trkpt>
        <trkpt lat="28.141904" lon="105.758818"><ele>1777.6129</ele><time>2026-08-15T18:44:28.000Z</time></trkpt>
        <trkpt lat="28.141892" lon="105.758809"><ele>1777.1516</ele><time>2026-08-15T18:44:30.000Z</time></trkpt>
        <trkpt lat="28.141883" lon="105.758803"><ele>1776.3982</ele><time>2026-08-15T18:44:32.000Z</time></trkpt>
        <trkpt lat="28.141873" lon="105.758797"><ele>1775.5432</ele><time>2026-08-15T18:44:34.000Z</time></trkpt>
        <trkpt lat="28.14186" lon="105.75879"><ele>1775.7755</ele><time>2026-08-15T18:44:36.000Z</time></trkpt>
        <trkpt lat="28.141847" lon="105.758786"><ele>1776.2535</ele><time>2026-08-15T18:44:38.000Z</time></trkpt>
        <trkpt lat="28.141831" lon="105.758782"><ele>1776.0831</ele><time>2026-08-15T18:44:40.000Z</time></trkpt>
        <trkpt lat="28.141814" lon="105.758782"><ele>1775.8524</ele><time>2026-08-15T18:44:42.000Z</time></trkpt>
        <trkpt lat="28.141793" lon="105.758781"><ele>1775.5868</ele><time>2026-08-15T18:44:44.000Z</time></trkpt>
        <trkpt lat="28.14178" lon="105.758783"><ele>1775.6002</ele><time>2026-08-15T18:44:46.000Z</time></trkpt>
        <trkpt lat="28.141767" lon="105.758784"><ele>1774.9906</ele><time>2026-08-15T18:44:48.000Z</time></trkpt>
        <trkpt lat="28.141756" lon="105.758787"><ele>1775.1432</ele><time>2026-08-15T18:44:50.000Z</time></trkpt>
        <trkpt lat="28.141749" lon="105.75879"><ele>1775.5022</ele><time>2026-08-15T18:44:52.000Z</time></trkpt>
        <trkpt lat="28.141729" lon="105.758796"><ele>1776.1</ele><time>2026-08-15T18:44:56.000Z</time></trkpt>
        <trkpt lat="28.141719" lon="105.758796"><ele>1776.6836</ele><time>2026-08-15T18:44:58.000Z</time></trkpt>
        <trkpt lat="28.141706" lon="105.758796"><ele>1776.7461</ele><time>2026-08-15T18:45:00.000Z</time></trkpt>
        <trkpt lat="28.141698" lon="105.758798"><ele>1777.3083</ele><time>2026-08-15T18:45:02.000Z</time></trkpt>
        <trkpt lat="28.141688" lon="105.7588"><ele>1777.7621</ele><time>2026-08-15T18:45:04.000Z</time></trkpt>
        <trkpt lat="28.141663" lon="105.758806"><ele>1779.5662</ele><time>2026-08-15T18:45:08.000Z</time></trkpt>
        <trkpt lat="28.141649" lon="105.758809"><ele>1779.3392</ele><time>2026-08-15T18:45:10.000Z</time></trkpt>
        <trkpt lat="28.141634" lon="105.75881"><ele>1779.8802</ele><time>2026-08-15T18:45:12.000Z</time></trkpt>
        <trkpt lat="28.141619" lon="105.758809"><ele>1780.2025</ele><time>2026-08-15T18:45:14.000Z</time></trkpt>
        <trkpt lat="28.1416" lon="105.758809"><ele>1780.4802</ele><time>2026-08-15T18:45:16.000Z</time></trkpt>
        <trkpt lat="28.141583" lon="105.758811"><ele>1780.7212</ele><time>2026-08-15T18:45:18.000Z</time></trkpt>
        <trkpt lat="28.141571" lon="105.758813"><ele>1781.5876</ele><time>2026-08-15T18:45:20.000Z</time></trkpt>
        <trkpt lat="28.141557" lon="105.758815"><ele>1782.4895</ele><time>2026-08-15T18:45:22.000Z</time></trkpt>
        <trkpt lat="28.141544" lon="105.758817"><ele>1782.6063</ele><time>2026-08-15T18:45:24.000Z</time></trkpt>
        <trkpt lat="28.141531" lon="105.758818"><ele>1783.2521</ele><time>2026-08-15T18:45:26.000Z</time></trkpt>
        <trkpt lat="28.141514" lon="105.758817"><ele>1783.827</ele><time>2026-08-15T18:45:28.000Z</time></trkpt>
        <trkpt lat="28.141502" lon="105.758816"><ele>1783.27</ele><time>2026-08-15T18:45:30.000Z</time></trkpt>
        <trkpt lat="28.141491" lon="105.758815"><ele>1783.1289</ele><time>2026-08-15T18:45:32.000Z</time></trkpt>
        <trkpt lat="28.14148" lon="105.758813"><ele>1783.2003</ele><time>2026-08-15T18:45:34.000Z</time></trkpt>
        <trkpt lat="28.141469" lon="105.758811"><ele>1783.2556</ele><time>2026-08-15T18:45:36.000Z</time></trkpt>
        <trkpt lat="28.141457" lon="105.758809"><ele>1782.216</ele><time>2026-08-15T18:45:38.000Z</time></trkpt>
        <trkpt lat="28.141441" lon="105.758805"><ele>1782.0006</ele><time>2026-08-15T18:45:40.000Z</time></trkpt>
        <trkpt lat="28.141425" lon="105.758802"><ele>1782.3536</ele><time>2026-08-15T18:45:42.000Z</time></trkpt>
        <trkpt lat="28.141404" lon="105.758798"><ele>1781.9725</ele><time>2026-08-15T18:45:44.000Z</time></trkpt>
        <trkpt lat="28.141386" lon="105.758796"><ele>1781.756</ele><time>2026-08-15T18:45:46.000Z</time></trkpt>
        <trkpt lat="28.141366" lon="105.758793"><ele>1781.572</ele><time>2026-08-15T18:45:48.000Z</time></trkpt>
        <trkpt lat="28.141347" lon="105.758793"><ele>1781.9192</ele><time>2026-08-15T18:45:50.000Z</time></trkpt>
        <trkpt lat="28.141328" lon="105.758796"><ele>1781.9365</ele><time>2026-08-15T18:45:52.000Z</time></trkpt>
        <trkpt lat="28.14131" lon="105.758798"><ele>1782.0817</ele><time>2026-08-15T18:45:54.000Z</time></trkpt>
        <trkpt lat="28.141292" lon="105.758801"><ele>1781.5881</ele><time>2026-08-15T18:45:56.000Z</time></trkpt>
        <trkpt lat="28.14128" lon="105.758802"><ele>1781.8221</ele><time>2026-08-15T18:45:58.000Z</time></trkpt>
        <trkpt lat="28.141264" lon="105.758801"><ele>1782.1083</ele><time>2026-08-15T18:46:00.000Z</time></trkpt>
        <trkpt lat="28.141253" lon="105.758801"><ele>1782.1202</ele><time>2026-08-15T18:46:02.000Z</time></trkpt>
        <trkpt lat="28.141243" lon="105.758802"><ele>1781.5195</ele><time>2026-08-15T18:46:04.000Z</time></trkpt>
        <trkpt lat="28.141229" lon="105.758804"><ele>1782.2389</ele><time>2026-08-15T18:46:06.000Z</time></trkpt>
        <trkpt lat="28.141214" lon="105.758806"><ele>1782.4281</ele><time>2026-08-15T18:46:08.000Z</time></trkpt>
        <trkpt lat="28.141198" lon="105.758808"><ele>1783.5468</ele><time>2026-08-15T18:46:10.000Z</time></trkpt>
        <trkpt lat="28.141179" lon="105.758809"><ele>1783.8407</ele><time>2026-08-15T18:46:12.000Z</time></trkpt>
        <trkpt lat="28.14116" lon="105.758809"><ele>1784.1788</ele><time>2026-08-15T18:46:14.000Z</time></trkpt>
        <trkpt lat="28.141141" lon="105.758807"><ele>1785.4598</ele><time>2026-08-15T18:46:16.000Z</time></trkpt>
        <trkpt lat="28.14112" lon="105.758804"><ele>1784.9861</ele><time>2026-08-15T18:46:18.000Z</time></trkpt>
        <trkpt lat="28.141099" lon="105.758799"><ele>1784.6721</ele><time>2026-08-15T18:46:20.000Z</time></trkpt>
        <trkpt lat="28.141081" lon="105.758794"><ele>1785.1051</ele><time>2026-08-15T18:46:22.000Z</time></trkpt>
        <trkpt lat="28.141064" lon="105.75879"><ele>1785.7909</ele><time>2026-08-15T18:46:24.000Z</time></trkpt>
        <trkpt lat="28.141044" lon="105.758787"><ele>1785.4321</ele><time>2026-08-15T18:46:26.000Z</time></trkpt>
        <trkpt lat="28.141025" lon="105.758782"><ele>1785.9495</ele><time>2026-08-15T18:46:28.000Z</time></trkpt>
        <trkpt lat="28.141009" lon="105.758776"><ele>1785.8954</ele><time>2026-08-15T18:46:30.000Z</time></trkpt>
        <trkpt lat="28.140993" lon="105.758768"><ele>1784.9838</ele><time>2026-08-15T18:46:32.000Z</time></trkpt>
        <trkpt lat="28.140979" lon="105.758759"><ele>1784.7852</ele><time>2026-08-15T18:46:34.000Z</time></trkpt>
        <trkpt lat="28.140965" lon="105.758747"><ele>1784.5765</ele><time>2026-08-15T18:46:36.000Z</time></trkpt>
        <trkpt lat="28.140949" lon="105.758735"><ele>1784.5558</ele><time>2026-08-15T18:46:38.000Z</time></trkpt>
        <trkpt lat="28.140932" lon="105.758727"><ele>1785.1771</ele><time>2026-08-15T18:46:40.000Z</time></trkpt>
        <trkpt lat="28.140917" lon="105.758719"><ele>1786.3124</ele><time>2026-08-15T18:46:42.000Z</time></trkpt>
        <trkpt lat="28.140899" lon="105.758709"><ele>1785.0813</ele><time>2026-08-15T18:46:44.000Z</time></trkpt>
        <trkpt lat="28.140886" lon="105.758702"><ele>1784.4321</ele><time>2026-08-15T18:46:46.000Z</time></trkpt>
        <trkpt lat="28.14087" lon="105.758694"><ele>1784.3512</ele><time>2026-08-15T18:46:48.000Z</time></trkpt>
        <trkpt lat="28.140855" lon="105.758687"><ele>1784.1632</ele><time>2026-08-15T18:46:50.000Z</time></trkpt>
        <trkpt lat="28.14084" lon="105.758681"><ele>1784.9684</ele><time>2026-08-15T18:46:52.000Z</time></trkpt>
        <trkpt lat="28.140827" lon="105.758678"><ele>1785.1626</ele><time>2026-08-15T18:46:54.000Z</time></trkpt>
        <trkpt lat="28.140816" lon="105.758674"><ele>1784.6744</ele><time>2026-08-15T18:46:56.000Z</time></trkpt>
        <trkpt lat="28.140805" lon="105.758671"><ele>1784.1437</ele><time>2026-08-15T18:46:58.000Z</time></trkpt>
        <trkpt lat="28.140793" lon="105.758672"><ele>1784.6597</ele><time>2026-08-15T18:47:00.000Z</time></trkpt>
        <trkpt lat="28.140782" lon="105.758673"><ele>1785.88</ele><time>2026-08-15T18:47:02.000Z</time></trkpt>
        <trkpt lat="28.14077" lon="105.758676"><ele>1786.2095</ele><time>2026-08-15T18:47:04.000Z</time></trkpt>
        <trkpt lat="28.140758" lon="105.758678"><ele>1786.8126</ele><time>2026-08-15T18:47:06.000Z</time></trkpt>
        <trkpt lat="28.140746" lon="105.758678"><ele>1786.9015</ele><time>2026-08-15T18:47:08.000Z</time></trkpt>
        <trkpt lat="28.140741" lon="105.758674"><ele>1787.4069</ele><time>2026-08-15T18:47:10.000Z</time></trkpt>
        <trkpt lat="28.140721" lon="105.758658"><ele>1789.3667</ele><time>2026-08-15T18:47:14.000Z</time></trkpt>
        <trkpt lat="28.140711" lon="105.75865"><ele>1790.2074</ele><time>2026-08-15T18:47:16.000Z</time></trkpt>
        <trkpt lat="28.140699" lon="105.758642"><ele>1790.6855</ele><time>2026-08-15T18:47:18.000Z</time></trkpt>
        <trkpt lat="28.140683" lon="105.758632"><ele>1791.1328</ele><time>2026-08-15T18:47:20.000Z</time></trkpt>
        <trkpt lat="28.140665" lon="105.758622"><ele>1790.8075</ele><time>2026-08-15T18:47:22.000Z</time></trkpt>
        <trkpt lat="28.140648" lon="105.758618"><ele>1790.5831</ele><time>2026-08-15T18:47:24.000Z</time></trkpt>
        <trkpt lat="28.140631" lon="105.758616"><ele>1790.8358</ele><time>2026-08-15T18:47:26.000Z</time></trkpt>
        <trkpt lat="28.140615" lon="105.758616"><ele>1790.4573</ele><time>2026-08-15T18:47:28.000Z</time></trkpt>
        <trkpt lat="28.140595" lon="105.758618"><ele>1790.1198</ele><time>2026-08-15T18:47:30.000Z</time></trkpt>
        <trkpt lat="28.140578" lon="105.758621"><ele>1790.6449</ele><time>2026-08-15T18:47:32.000Z</time></trkpt>
        <trkpt lat="28.140562" lon="105.758622"><ele>1789.8633</ele><time>2026-08-15T18:47:34.000Z</time></trkpt>
        <trkpt lat="28.140544" lon="105.758625"><ele>1789.4</ele><time>2026-08-15T18:47:36.000Z</time></trkpt>
        <trkpt lat="28.140531" lon="105.75863"><ele>1789.0746</ele><time>2026-08-15T18:47:38.000Z</time></trkpt>
        <trkpt lat="28.140524" lon="105.758637"><ele>1788.019</ele><time>2026-08-15T18:47:40.000Z</time></trkpt>
        <trkpt lat="28.140522" lon="105.758647"><ele>1787.8566</ele><time>2026-08-15T18:47:42.000Z</time></trkpt>
        <trkpt lat="28.140518" lon="105.758672"><ele>1786.289</ele><time>2026-08-15T18:47:46.000Z</time></trkpt>
        <trkpt lat="28.140515" lon="105.75868"><ele>1785.2736</ele><time>2026-08-15T18:47:48.000Z</time></trkpt>
        <trkpt lat="28.140507" lon="105.758692"><ele>1785.2842</ele><time>2026-08-15T18:47:50.000Z</time></trkpt>
        <trkpt lat="28.140498" lon="105.758702"><ele>1785.1493</ele><time>2026-08-15T18:47:52.000Z</time></trkpt>
        <trkpt lat="28.140486" lon="105.758714"><ele>1785.0026</ele><time>2026-08-15T18:47:54.000Z</time></trkpt>
        <trkpt lat="28.140477" lon="105.758725"><ele>1784.6215</ele><time>2026-08-15T18:47:56.000Z</time></trkpt>
        <trkpt lat="28.140471" lon="105.758735"><ele>1783.56</ele><time>2026-08-15T18:47:58.000Z</time></trkpt>
        <trkpt lat="28.140466" lon="105.758747"><ele>1782.6354</ele><time>2026-08-15T18:48:00.000Z</time></trkpt>
        <trkpt lat="28.140462" lon="105.758758"><ele>1782.4468</ele><time>2026-08-15T18:48:02.000Z</time></trkpt>
        <trkpt lat="28.140461" lon="105.758766"><ele>1781.904</ele><time>2026-08-15T18:48:04.000Z</time></trkpt>
        <trkpt lat="28.140456" lon="105.75878"><ele>1781.7467</ele><time>2026-08-15T18:48:08.000Z</time></trkpt>
        <trkpt lat="28.140449" lon="105.758791"><ele>1782.1984</ele><time>2026-08-15T18:48:12.000Z</time></trkpt>
        <trkpt lat="28.140445" lon="105.758796"><ele>1782.5292</ele><time>2026-08-15T18:48:14.000Z</time></trkpt>
        <trkpt lat="28.140429" lon="105.758814"><ele>1782.4865</ele><time>2026-08-15T18:48:18.000Z</time></trkpt>
        <trkpt lat="28.140422" lon="105.758821"><ele>1782.1322</ele><time>2026-08-15T18:48:20.000Z</time></trkpt>
        <trkpt lat="28.140413" lon="105.758833"><ele>1782.5302</ele><time>2026-08-15T18:48:22.000Z</time></trkpt>
        <trkpt lat="28.140405" lon="105.758844"><ele>1782.6407</ele><time>2026-08-15T18:48:24.000Z</time></trkpt>
        <trkpt lat="28.140399" lon="105.758857"><ele>1782.5892</ele><time>2026-08-15T18:48:26.000Z</time></trkpt>
        <trkpt lat="28.140394" lon="105.758871"><ele>1782.6483</ele><time>2026-08-15T18:48:28.000Z</time></trkpt>
        <trkpt lat="28.14039" lon="105.758882"><ele>1782.1559</ele><time>2026-08-15T18:48:30.000Z</time></trkpt>
        <trkpt lat="28.140385" lon="105.758889"><ele>1781.943</ele><time>2026-08-15T18:48:32.000Z</time></trkpt>
        <trkpt lat="28.140375" lon="105.758907"><ele>1780.7421</ele><time>2026-08-15T18:48:36.000Z</time></trkpt>
        <trkpt lat="28.14037" lon="105.758912"><ele>1780.9232</ele><time>2026-08-15T18:48:38.000Z</time></trkpt>
        <trkpt lat="28.140364" lon="105.758917"><ele>1780.4868</ele><time>2026-08-15T18:48:40.000Z</time></trkpt>
        <trkpt lat="28.140343" lon="105.758933"><ele>1778.8497</ele><time>2026-08-15T18:48:44.000Z</time></trkpt>
        <trkpt lat="28.140343" lon="105.758933"><ele>1778.8784</ele><time>2026-08-15T18:48:46.000Z</time></trkpt>
        <trkpt lat="28.140337" lon="105.758946"><ele>1778.2806</ele><time>2026-08-15T18:48:50.000Z</time></trkpt>
        <trkpt lat="28.140322" lon="105.758977"><ele>1777.6725</ele><time>2026-08-15T18:48:54.000Z</time></trkpt>
        <trkpt lat="28.140314" lon="105.758986"><ele>1778.2792</ele><time>2026-08-15T18:48:56.000Z</time></trkpt>
        <trkpt lat="28.140294" lon="105.759006"><ele>1778.7119</ele><time>2026-08-15T18:49:11.000Z</time></trkpt>
        <trkpt lat="28.140292" lon="105.759009"><ele>1777.8054</ele><time>2026-08-15T18:49:26.000Z</time></trkpt>
        <trkpt lat="28.140283" lon="105.759018"><ele>1777.5255</ele><time>2026-08-15T18:49:35.000Z</time></trkpt>
        <trkpt lat="28.140274" lon="105.759031"><ele>1776.7029</ele><time>2026-08-15T18:49:39.000Z</time></trkpt>
        <trkpt lat="28.140264" lon="105.759043"><ele>1776.2828</ele><time>2026-08-15T18:49:41.000Z</time></trkpt>
        <trkpt lat="28.140263" lon="105.759044"><ele>1777.0044</ele><time>2026-08-15T18:49:43.000Z</time></trkpt>
        <trkpt lat="28.140252" lon="105.759059"><ele>1777.4529</ele><time>2026-08-15T18:49:47.000Z</time></trkpt>
        <trkpt lat="28.140236" lon="105.759076"><ele>1778.0775</ele><time>2026-08-15T18:49:49.000Z</time></trkpt>
        <trkpt lat="28.140216" lon="105.759098"><ele>1778.1577</ele><time>2026-08-15T18:49:51.000Z</time></trkpt>
        <trkpt lat="28.140202" lon="105.759116"><ele>1778.6262</ele><time>2026-08-15T18:49:53.000Z</time></trkpt>
        <trkpt lat="28.140192" lon="105.75913"><ele>1778.4225</ele><time>2026-08-15T18:49:55.000Z</time></trkpt>
        <trkpt lat="28.140183" lon="105.759144"><ele>1778.5438</ele><time>2026-08-15T18:49:57.000Z</time></trkpt>
        <trkpt lat="28.140174" lon="105.75916"><ele>1777.8977</ele><time>2026-08-15T18:49:59.000Z</time></trkpt>
        <trkpt lat="28.140165" lon="105.759175"><ele>1778.2272</ele><time>2026-08-15T18:50:01.000Z</time></trkpt>
        <trkpt lat="28.140157" lon="105.759188"><ele>1778.6833</ele><time>2026-08-15T18:50:03.000Z</time></trkpt>
        <trkpt lat="28.140149" lon="105.759199"><ele>1779.1388</ele><time>2026-08-15T18:50:05.000Z</time></trkpt>
        <trkpt lat="28.140141" lon="105.75921"><ele>1778.3881</ele><time>2026-08-15T18:50:07.000Z</time></trkpt>
        <trkpt lat="28.140135" lon="105.759221"><ele>1777.6421</ele><time>2026-08-15T18:50:09.000Z</time></trkpt>
        <trkpt lat="28.140128" lon="105.759231"><ele>1776.3956</ele><time>2026-08-15T18:50:11.000Z</time></trkpt>
        <trkpt lat="28.140122" lon="105.759241"><ele>1774.3689</ele><time>2026-08-15T18:50:13.000Z</time></trkpt>
        <trkpt lat="28.140116" lon="105.75925"><ele>1772.6356</ele><time>2026-08-15T18:50:15.000Z</time></trkpt>
        <trkpt lat="28.140108" lon="105.759261"><ele>1772.1576</ele><time>2026-08-15T18:50:17.000Z</time></trkpt>
        <trkpt lat="28.140099" lon="105.759273"><ele>1771.0481</ele><time>2026-08-15T18:50:19.000Z</time></trkpt>
        <trkpt lat="28.140092" lon="105.759285"><ele>1770.3402</ele><time>2026-08-15T18:50:21.000Z</time></trkpt>
        <trkpt lat="28.140082" lon="105.759302"><ele>1770.4744</ele><time>2026-08-15T18:50:23.000Z</time></trkpt>
        <trkpt lat="28.14007" lon="105.759319"><ele>1770.0121</ele><time>2026-08-15T18:50:25.000Z</time></trkpt>
        <trkpt lat="28.140062" lon="105.759331"><ele>1768.4072</ele><time>2026-08-15T18:50:27.000Z</time></trkpt>
        <trkpt lat="28.140053" lon="105.759344"><ele>1768.6268</ele><time>2026-08-15T18:50:29.000Z</time></trkpt>
        <trkpt lat="28.140043" lon="105.759357"><ele>1768.9299</ele><time>2026-08-15T18:50:31.000Z</time></trkpt>
        <trkpt lat="28.140034" lon="105.759369"><ele>1768.2183</ele><time>2026-08-15T18:50:33.000Z</time></trkpt>
        <trkpt lat="28.140022" lon="105.759382"><ele>1766.8298</ele><time>2026-08-15T18:50:35.000Z</time></trkpt>
        <trkpt lat="28.140008" lon="105.759394"><ele>1766.9795</ele><time>2026-08-15T18:50:37.000Z</time></trkpt>
        <trkpt lat="28.139997" lon="105.759403"><ele>1767.3893</ele><time>2026-08-15T18:50:39.000Z</time></trkpt>
        <trkpt lat="28.13999" lon="105.759409"><ele>1767.3079</ele><time>2026-08-15T18:50:41.000Z</time></trkpt>
        <trkpt lat="28.139982" lon="105.759419"><ele>1766.217</ele><time>2026-08-15T18:50:43.000Z</time></trkpt>
        <trkpt lat="28.139976" lon="105.75943"><ele>1765.413</ele><time>2026-08-15T18:50:45.000Z</time></trkpt>
        <trkpt lat="28.13997" lon="105.759443"><ele>1764.1741</ele><time>2026-08-15T18:50:47.000Z</time></trkpt>
        <trkpt lat="28.139961" lon="105.75946"><ele>1762.4888</ele><time>2026-08-15T18:50:49.000Z</time></trkpt>
        <trkpt lat="28.139949" lon="105.759479"><ele>1761.4258</ele><time>2026-08-15T18:50:51.000Z</time></trkpt>
        <trkpt lat="28.139937" lon="105.759501"><ele>1760.5416</ele><time>2026-08-15T18:50:53.000Z</time></trkpt>
        <trkpt lat="28.139927" lon="105.759526"><ele>1761.1256</ele><time>2026-08-15T18:50:55.000Z</time></trkpt>
        <trkpt lat="28.139919" lon="105.759547"><ele>1760.7056</ele><time>2026-08-15T18:50:57.000Z</time></trkpt>
        <trkpt lat="28.139916" lon="105.759563"><ele>1758.8732</ele><time>2026-08-15T18:50:59.000Z</time></trkpt>
        <trkpt lat="28.139913" lon="105.759575"><ele>1758.9858</ele><time>2026-08-15T18:51:01.000Z</time></trkpt>
        <trkpt lat="28.139912" lon="105.759586"><ele>1759.3513</ele><time>2026-08-15T18:51:03.000Z</time></trkpt>
        <trkpt lat="28.139911" lon="105.759598"><ele>1759.551</ele><time>2026-08-15T18:51:09.000Z</time></trkpt>
        <trkpt lat="28.139915" lon="105.75961"><ele>1758.7483</ele><time>2026-08-15T18:51:13.000Z</time></trkpt>
        <trkpt lat="28.139926" lon="105.75965"><ele>1758.4773</ele><time>2026-08-15T18:51:15.000Z</time></trkpt>
        <trkpt lat="28.139927" lon="105.759653"><ele>1758.3357</ele><time>2026-08-15T18:51:17.000Z</time></trkpt>
        <trkpt lat="28.139927" lon="105.759653"><ele>1757.7379</ele><time>2026-08-15T18:51:19.000Z</time></trkpt>
        <trkpt lat="28.139919" lon="105.759697"><ele>1754.5659</ele><time>2026-08-15T18:51:25.000Z</time></trkpt>
        <trkpt lat="28.13992" lon="105.759697"><ele>1755.0012</ele><time>2026-08-15T18:51:27.000Z</time></trkpt>
        <trkpt lat="28.13992" lon="105.759701"><ele>1754.671</ele><time>2026-08-15T18:51:29.000Z</time></trkpt>
        <trkpt lat="28.139925" lon="105.75974"><ele>1754.5442</ele><time>2026-08-15T18:51:35.000Z</time></trkpt>
        <trkpt lat="28.139924" lon="105.75975"><ele>1754.2528</ele><time>2026-08-15T18:51:37.000Z</time></trkpt>
        <trkpt lat="28.139921" lon="105.759759"><ele>1755.0787</ele><time>2026-08-15T18:51:39.000Z</time></trkpt>
        <trkpt lat="28.139919" lon="105.75978"><ele>1755.328</ele><time>2026-08-15T18:51:51.000Z</time></trkpt>
        <trkpt lat="28.139919" lon="105.759802"><ele>1753.7632</ele><time>2026-08-15T18:51:53.000Z</time></trkpt>
        <trkpt lat="28.13992" lon="105.759822"><ele>1751.8152</ele><time>2026-08-15T18:51:55.000Z</time></trkpt>
        <trkpt lat="28.13992" lon="105.759824"><ele>1750.8035</ele><time>2026-08-15T18:51:57.000Z</time></trkpt>
        <trkpt lat="28.139916" lon="105.759851"><ele>1748.0686</ele><time>2026-08-15T18:52:01.000Z</time></trkpt>
        <trkpt lat="28.139911" lon="105.759885"><ele>1747.6145</ele><time>2026-08-15T18:52:03.000Z</time></trkpt>
        <trkpt lat="28.139903" lon="105.759919"><ele>1747.6937</ele><time>2026-08-15T18:52:05.000Z</time></trkpt>
        <trkpt lat="28.139894" lon="105.759949"><ele>1746.4724</ele><time>2026-08-15T18:52:07.000Z</time></trkpt>
        <trkpt lat="28.139885" lon="105.759977"><ele>1747.0752</ele><time>2026-08-15T18:52:09.000Z</time></trkpt>
        <trkpt lat="28.139875" lon="105.760002"><ele>1747.3086</ele><time>2026-08-15T18:52:11.000Z</time></trkpt>
        <trkpt lat="28.139864" lon="105.760027"><ele>1746.649</ele><time>2026-08-15T18:52:13.000Z</time></trkpt>
        <trkpt lat="28.139852" lon="105.760053"><ele>1747.6371</ele><time>2026-08-15T18:52:15.000Z</time></trkpt>
        <trkpt lat="28.13984" lon="105.760078"><ele>1747.6013</ele><time>2026-08-15T18:52:17.000Z</time></trkpt>
        <trkpt lat="28.13983" lon="105.7601"><ele>1746.7692</ele><time>2026-08-15T18:52:19.000Z</time></trkpt>
        <trkpt lat="28.139817" lon="105.760121"><ele>1746.9095</ele><time>2026-08-15T18:52:21.000Z</time></trkpt>
        <trkpt lat="28.139805" lon="105.760138"><ele>1746.4917</ele><time>2026-08-15T18:52:23.000Z</time></trkpt>
        <trkpt lat="28.139793" lon="105.760155"><ele>1746.4058</ele><time>2026-08-15T18:52:25.000Z</time></trkpt>
        <trkpt lat="28.139779" lon="105.760172"><ele>1746.2638</ele><time>2026-08-15T18:52:27.000Z</time></trkpt>
        <trkpt lat="28.139766" lon="105.760188"><ele>1745.5052</ele><time>2026-08-15T18:52:29.000Z</time></trkpt>
        <trkpt lat="28.13975" lon="105.760204"><ele>1744.4569</ele><time>2026-08-15T18:52:31.000Z</time></trkpt>
        <trkpt lat="28.139734" lon="105.760218"><ele>1744.1155</ele><time>2026-08-15T18:52:33.000Z</time></trkpt>
        <trkpt lat="28.139722" lon="105.76023"><ele>1743.8927</ele><time>2026-08-15T18:52:35.000Z</time></trkpt>
        <trkpt lat="28.139712" lon="105.760242"><ele>1744.3287</ele><time>2026-08-15T18:52:37.000Z</time></trkpt>
        <trkpt lat="28.139702" lon="105.760257"><ele>1743.8053</ele><time>2026-08-15T18:52:39.000Z</time></trkpt>
        <trkpt lat="28.139692" lon="105.76027"><ele>1743.8058</ele><time>2026-08-15T18:52:41.000Z</time></trkpt>
        <trkpt lat="28.139681" lon="105.760284"><ele>1744.1545</ele><time>2026-08-15T18:52:43.000Z</time></trkpt>
        <trkpt lat="28.139671" lon="105.760298"><ele>1744.8763</ele><time>2026-08-15T18:52:45.000Z</time></trkpt>
        <trkpt lat="28.139659" lon="105.760317"><ele>1744.8674</ele><time>2026-08-15T18:52:47.000Z</time></trkpt>
        <trkpt lat="28.139646" lon="105.760337"><ele>1744.6915</ele><time>2026-08-15T18:52:49.000Z</time></trkpt>
        <trkpt lat="28.139635" lon="105.760353"><ele>1744.0134</ele><time>2026-08-15T18:52:51.000Z</time></trkpt>
        <trkpt lat="28.139625" lon="105.76037"><ele>1743.4116</ele><time>2026-08-15T18:52:53.000Z</time></trkpt>
        <trkpt lat="28.139615" lon="105.760385"><ele>1743.0839</ele><time>2026-08-15T18:52:55.000Z</time></trkpt>
        <trkpt lat="28.139607" lon="105.760396"><ele>1743.4966</ele><time>2026-08-15T18:52:57.000Z</time></trkpt>
        <trkpt lat="28.139602" lon="105.760408"><ele>1742.9043</ele><time>2026-08-15T18:52:59.000Z</time></trkpt>
        <trkpt lat="28.139597" lon="105.760419"><ele>1742.0852</ele><time>2026-08-15T18:53:01.000Z</time></trkpt>
        <trkpt lat="28.139592" lon="105.760429"><ele>1741.9479</ele><time>2026-08-15T18:53:03.000Z</time></trkpt>
        <trkpt lat="28.139585" lon="105.760447"><ele>1741.6075</ele><time>2026-08-15T18:53:05.000Z</time></trkpt>
        <trkpt lat="28.139578" lon="105.760462"><ele>1741.4987</ele><time>2026-08-15T18:53:07.000Z</time></trkpt>
        <trkpt lat="28.13957" lon="105.760478"><ele>1741.6036</ele><time>2026-08-15T18:53:09.000Z</time></trkpt>
        <trkpt lat="28.13956" lon="105.760498"><ele>1740.5524</ele><time>2026-08-15T18:53:11.000Z</time></trkpt>
        <trkpt lat="28.139549" lon="105.76052"><ele>1741.5844</ele><time>2026-08-15T18:53:13.000Z</time></trkpt>
        <trkpt lat="28.139538" lon="105.760544"><ele>1740.8403</ele><time>2026-08-15T18:53:15.000Z</time></trkpt>
        <trkpt lat="28.139526" lon="105.760569"><ele>1740.5294</ele><time>2026-08-15T18:53:17.000Z</time></trkpt>
        <trkpt lat="28.139514" lon="105.760592"><ele>1740.8881</ele><time>2026-08-15T18:53:19.000Z</time></trkpt>
        <trkpt lat="28.139507" lon="105.760608"><ele>1740.6876</ele><time>2026-08-15T18:53:21.000Z</time></trkpt>
        <trkpt lat="28.1395" lon="105.760623"><ele>1740.1764</ele><time>2026-08-15T18:53:23.000Z</time></trkpt>
        <trkpt lat="28.139494" lon="105.760638"><ele>1739.1069</ele><time>2026-08-15T18:53:25.000Z</time></trkpt>
        <trkpt lat="28.139491" lon="105.760652"><ele>1738.5459</ele><time>2026-08-15T18:53:27.000Z</time></trkpt>
        <trkpt lat="28.139487" lon="105.760666"><ele>1737.6855</ele><time>2026-08-15T18:53:29.000Z</time></trkpt>
        <trkpt lat="28.139482" lon="105.760679"><ele>1738.8557</ele><time>2026-08-15T18:53:31.000Z</time></trkpt>
        <trkpt lat="28.139478" lon="105.760693"><ele>1738.9347</ele><time>2026-08-15T18:53:33.000Z</time></trkpt>
        <trkpt lat="28.139476" lon="105.760708"><ele>1739.1125</ele><time>2026-08-15T18:53:35.000Z</time></trkpt>
        <trkpt lat="28.139476" lon="105.760724"><ele>1738.9283</ele><time>2026-08-15T18:53:37.000Z</time></trkpt>
        <trkpt lat="28.139477" lon="105.760737"><ele>1739.3871</ele><time>2026-08-15T18:53:39.000Z</time></trkpt>
        <trkpt lat="28.139478" lon="105.760748"><ele>1740.57</ele><time>2026-08-15T18:53:41.000Z</time></trkpt>
        <trkpt lat="28.139479" lon="105.760759"><ele>1741.1293</ele><time>2026-08-15T18:53:43.000Z</time></trkpt>
        <trkpt lat="28.13948" lon="105.760773"><ele>1740.4752</ele><time>2026-08-15T18:53:45.000Z</time></trkpt>
        <trkpt lat="28.139481" lon="105.760785"><ele>1740.6262</ele><time>2026-08-15T18:53:47.000Z</time></trkpt>
        <trkpt lat="28.139479" lon="105.760796"><ele>1740.3265</ele><time>2026-08-15T18:53:49.000Z</time></trkpt>
        <trkpt lat="28.139474" lon="105.760815"><ele>1741.1406</ele><time>2026-08-15T18:53:53.000Z</time></trkpt>
        <trkpt lat="28.139469" lon="105.760826"><ele>1741.2513</ele><time>2026-08-15T18:53:55.000Z</time></trkpt>
        <trkpt lat="28.139463" lon="105.760839"><ele>1741.935</ele><time>2026-08-15T18:53:57.000Z</time></trkpt>
        <trkpt lat="28.139455" lon="105.760854"><ele>1741.5552</ele><time>2026-08-15T18:53:59.000Z</time></trkpt>
        <trkpt lat="28.139448" lon="105.760871"><ele>1743.7499</ele><time>2026-08-15T18:54:01.000Z</time></trkpt>
        <trkpt lat="28.139439" lon="105.760889"><ele>1744.1597</ele><time>2026-08-15T18:54:03.000Z</time></trkpt>
        <trkpt lat="28.139432" lon="105.760902"><ele>1744.4999</ele><time>2026-08-15T18:54:05.000Z</time></trkpt>
        <trkpt lat="28.139424" lon="105.760921"><ele>1744.8229</ele><time>2026-08-15T18:54:07.000Z</time></trkpt>
        <trkpt lat="28.139418" lon="105.760938"><ele>1745.3584</ele><time>2026-08-15T18:54:09.000Z</time></trkpt>
        <trkpt lat="28.139413" lon="105.760948"><ele>1745.3004</ele><time>2026-08-15T18:54:11.000Z</time></trkpt>
        <trkpt lat="28.139409" lon="105.760957"><ele>1745.1935</ele><time>2026-08-15T18:54:13.000Z</time></trkpt>
        <trkpt lat="28.139403" lon="105.760974"><ele>1745.5448</ele><time>2026-08-15T18:54:17.000Z</time></trkpt>
        <trkpt lat="28.139404" lon="105.760981"><ele>1746.1781</ele><time>2026-08-15T18:54:21.000Z</time></trkpt>
        <trkpt lat="28.139401" lon="105.760988"><ele>1744.5079</ele><time>2026-08-15T18:54:37.000Z</time></trkpt>
        <trkpt lat="28.139391" lon="105.761005"><ele>1744.539</ele><time>2026-08-15T18:54:41.000Z</time></trkpt>
        <trkpt lat="28.139389" lon="105.761012"><ele>1743.9316</ele><time>2026-08-15T18:54:47.000Z</time></trkpt>
        <trkpt lat="28.139385" lon="105.76102"><ele>1743.9568</ele><time>2026-08-15T18:54:49.000Z</time></trkpt>
        <trkpt lat="28.139378" lon="105.761047"><ele>1745.1184</ele><time>2026-08-15T18:54:53.000Z</time></trkpt>
        <trkpt lat="28.139374" lon="105.761063"><ele>1744.6581</ele><time>2026-08-15T18:54:55.000Z</time></trkpt>
        <trkpt lat="28.139373" lon="105.761064"><ele>1745.1946</ele><time>2026-08-15T18:54:57.000Z</time></trkpt>
        <trkpt lat="28.139361" lon="105.761085"><ele>1746.6182</ele><time>2026-08-15T18:55:15.000Z</time></trkpt>
        <trkpt lat="28.139355" lon="105.761092"><ele>1747.7109</ele><time>2026-08-15T18:55:19.000Z</time></trkpt>
        <trkpt lat="28.13935" lon="105.761094"><ele>1747.7559</ele><time>2026-08-15T18:55:21.000Z</time></trkpt>
        <trkpt lat="28.139342" lon="105.76111"><ele>1749.3923</ele><time>2026-08-15T18:55:48.000Z</time></trkpt>
        <trkpt lat="28.139329" lon="105.761135"><ele>1748.8643</ele><time>2026-08-15T18:56:17.000Z</time></trkpt>
        <trkpt lat="28.139332" lon="105.761135"><ele>1749.0527</ele><time>2026-08-15T18:56:19.000Z</time></trkpt>
        <trkpt lat="28.139296" lon="105.761146"><ele>1750.4009</ele><time>2026-08-15T18:57:28.000Z</time></trkpt>
        <trkpt lat="28.139283" lon="105.761151"><ele>1758.158</ele><time>2026-08-15T18:57:43.000Z</time></trkpt>
        <trkpt lat="28.139264" lon="105.761159"><ele>1757.3215</ele><time>2026-08-15T18:57:58.000Z</time></trkpt>
        <trkpt lat="28.139237" lon="105.761176"><ele>1757.02</ele><time>2026-08-15T18:58:13.000Z</time></trkpt>
        <trkpt lat="28.139226" lon="105.761184"><ele>1756.0085</ele><time>2026-08-15T18:58:15.000Z</time></trkpt>
        <trkpt lat="28.139225" lon="105.761184"><ele>1756.3981</ele><time>2026-08-15T18:58:17.000Z</time></trkpt>
        <trkpt lat="28.139204" lon="105.761176"><ele>1757.156</ele><time>2026-08-15T18:58:29.000Z</time></trkpt>
        <trkpt lat="28.139194" lon="105.761168"><ele>1757.0444</ele><time>2026-08-15T18:58:33.000Z</time></trkpt>
        <trkpt lat="28.139189" lon="105.761163"><ele>1757.3851</ele><time>2026-08-15T18:58:35.000Z</time></trkpt>
        <trkpt lat="28.139156" lon="105.761149"><ele>1764.2272</ele><time>2026-08-15T18:59:02.000Z</time></trkpt>
        <trkpt lat="28.139143" lon="105.761149"><ele>1765.8622</ele><time>2026-08-15T18:59:17.000Z</time></trkpt>
        <trkpt lat="28.139113" lon="105.761146"><ele>1765.2864</ele><time>2026-08-15T18:59:32.000Z</time></trkpt>
        <trkpt lat="28.139077" lon="105.761155"><ele>1767.7236</ele><time>2026-08-15T18:59:47.000Z</time></trkpt>
        <trkpt lat="28.139026" lon="105.761168"><ele>1769.505</ele><time>2026-08-15T19:00:02.000Z</time></trkpt>
        <trkpt lat="28.139021" lon="105.761169"><ele>1768.7142</ele><time>2026-08-15T19:00:14.000Z</time></trkpt>
        <trkpt lat="28.139018" lon="105.761169"><ele>1769.055</ele><time>2026-08-15T19:00:16.000Z</time></trkpt>
        <trkpt lat="28.138992" lon="105.761172"><ele>1771.224</ele><time>2026-08-15T19:00:28.000Z</time></trkpt>
        <trkpt lat="28.138985" lon="105.761172"><ele>1772.4414</ele><time>2026-08-15T19:00:30.000Z</time></trkpt>
        <trkpt lat="28.138977" lon="105.761175"><ele>1772.569</ele><time>2026-08-15T19:00:32.000Z</time></trkpt>
        <trkpt lat="28.138966" lon="105.761187"><ele>1771.9362</ele><time>2026-08-15T19:00:36.000Z</time></trkpt>
        <trkpt lat="28.138955" lon="105.761199"><ele>1771.1503</ele><time>2026-08-15T19:00:40.000Z</time></trkpt>
        <trkpt lat="28.13895" lon="105.761202"><ele>1771.2932</ele><time>2026-08-15T19:00:42.000Z</time></trkpt>
        <trkpt lat="28.138939" lon="105.761202"><ele>1776.0018</ele><time>2026-08-15T19:00:48.000Z</time></trkpt>
        <trkpt lat="28.138921" lon="105.761202"><ele>1778.3986</ele><time>2026-08-15T19:01:00.000Z</time></trkpt>
        <trkpt lat="28.13892" lon="105.761204"><ele>1778.186</ele><time>2026-08-15T19:01:02.000Z</time></trkpt>
        <trkpt lat="28.13891" lon="105.761217"><ele>1777.2678</ele><time>2026-08-15T19:01:22.000Z</time></trkpt>
        <trkpt lat="28.138893" lon="105.761233"><ele>1782.7042</ele><time>2026-08-15T19:01:38.000Z</time></trkpt>
        <trkpt lat="28.13889" lon="105.761239"><ele>1783.095</ele><time>2026-08-15T19:01:40.000Z</time></trkpt>
        <trkpt lat="28.138887" lon="105.761244"><ele>1783.0431</ele><time>2026-08-15T19:01:42.000Z</time></trkpt>
        <trkpt lat="28.138876" lon="105.761264"><ele>1786.4796</ele><time>2026-08-15T19:03:18.000Z</time></trkpt>
        <trkpt lat="28.138873" lon="105.761268"><ele>1785.7607</ele><time>2026-08-15T19:03:20.000Z</time></trkpt>
        <trkpt lat="28.138869" lon="105.761275"><ele>1786.2078</ele><time>2026-08-15T19:03:22.000Z</time></trkpt>
        <trkpt lat="28.138866" lon="105.761295"><ele>1787.0511</ele><time>2026-08-15T19:03:26.000Z</time></trkpt>
        <trkpt lat="28.138864" lon="105.761295"><ele>1786.6921</ele><time>2026-08-15T19:03:30.000Z</time></trkpt>
        <trkpt lat="28.138843" lon="105.761297"><ele>1788.073</ele><time>2026-08-15T19:03:58.000Z</time></trkpt>
        <trkpt lat="28.138833" lon="105.761299"><ele>1789.8257</ele><time>2026-08-15T19:04:02.000Z</time></trkpt>
        <trkpt lat="28.138828" lon="105.761304"><ele>1789.6025</ele><time>2026-08-15T19:04:04.000Z</time></trkpt>
        <trkpt lat="28.138817" lon="105.761318"><ele>1791.0521</ele><time>2026-08-15T19:04:10.000Z</time></trkpt>
        <trkpt lat="28.138811" lon="105.761324"><ele>1792.8246</ele><time>2026-08-15T19:04:18.000Z</time></trkpt>
        <trkpt lat="28.138799" lon="105.761335"><ele>1793.2019</ele><time>2026-08-15T19:04:27.000Z</time></trkpt>
        <trkpt lat="28.138795" lon="105.76134"><ele>1792.8401</ele><time>2026-08-15T19:04:29.000Z</time></trkpt>
        <trkpt lat="28.138783" lon="105.76135"><ele>1793.7604</ele><time>2026-08-15T19:04:33.000Z</time></trkpt>
        <trkpt lat="28.138767" lon="105.761364"><ele>1793.5967</ele><time>2026-08-15T19:04:35.000Z</time></trkpt>
        <trkpt lat="28.138767" lon="105.761365"><ele>1793.6039</ele><time>2026-08-15T19:04:37.000Z</time></trkpt>
        <trkpt lat="28.138775" lon="105.761389"><ele>1797.755</ele><time>2026-08-15T19:04:57.000Z</time></trkpt>
        <trkpt lat="28.138743" lon="105.761439"><ele>1799.1598</ele><time>2026-08-15T19:05:14.000Z</time></trkpt>
        <trkpt lat="28.138742" lon="105.761438"><ele>1802.2642</ele><time>2026-08-15T19:05:29.000Z</time></trkpt>
        <trkpt lat="28.138741" lon="105.761439"><ele>1804.5144</ele><time>2026-08-15T19:05:34.000Z</time></trkpt>
        <trkpt lat="28.138724" lon="105.761468"><ele>1804.2609</ele><time>2026-08-15T19:05:56.000Z</time></trkpt>
        <trkpt lat="28.13872" lon="105.761471"><ele>1803.7157</ele><time>2026-08-15T19:05:58.000Z</time></trkpt>
        <trkpt lat="28.138719" lon="105.761475"><ele>1803.4884</ele><time>2026-08-15T19:06:00.000Z</time></trkpt>
        <trkpt lat="28.138707" lon="105.761503"><ele>1808.3708</ele><time>2026-08-15T19:06:43.000Z</time></trkpt>
        <trkpt lat="28.138703" lon="105.761511"><ele>1808.6252</ele><time>2026-08-15T19:06:45.000Z</time></trkpt>
        <trkpt lat="28.138702" lon="105.761516"><ele>1809.4255</ele><time>2026-08-15T19:06:47.000Z</time></trkpt>
        <trkpt lat="28.138695" lon="105.761535"><ele>1811.8402</ele><time>2026-08-15T19:07:05.000Z</time></trkpt>
        <trkpt lat="28.138691" lon="105.761542"><ele>1811.2726</ele><time>2026-08-15T19:07:07.000Z</time></trkpt>
        <trkpt lat="28.138689" lon="105.761547"><ele>1811.3344</ele><time>2026-08-15T19:07:09.000Z</time></trkpt>
        <trkpt lat="28.138682" lon="105.761568"><ele>1814.0303</ele><time>2026-08-15T19:07:17.000Z</time></trkpt>
        <trkpt lat="28.138676" lon="105.761583"><ele>1814.3068</ele><time>2026-08-15T19:07:19.000Z</time></trkpt>
        <trkpt lat="28.138676" lon="105.761584"><ele>1814.7976</ele><time>2026-08-15T19:07:21.000Z</time></trkpt>
        <trkpt lat="28.138658" lon="105.761593"><ele>1814.4388</ele><time>2026-08-15T19:07:27.000Z</time></trkpt>
        <trkpt lat="28.138645" lon="105.7616"><ele>1813.8687</ele><time>2026-08-15T19:07:29.000Z</time></trkpt>
        <trkpt lat="28.138644" lon="105.761601"><ele>1813.4933</ele><time>2026-08-15T19:07:31.000Z</time></trkpt>
        <trkpt lat="28.138615" lon="105.761614"><ele>1813.0289</ele><time>2026-08-15T19:07:35.000Z</time></trkpt>
        <trkpt lat="28.138615" lon="105.761614"><ele>1814.0629</ele><time>2026-08-15T19:07:37.000Z</time></trkpt>
        <trkpt lat="28.138615" lon="105.761614"><ele>1815.0886</ele><time>2026-08-15T19:07:39.000Z</time></trkpt>
        <trkpt lat="28.138582" lon="105.761613"><ele>1819.1825</ele><time>2026-08-15T19:08:11.000Z</time></trkpt>
        <trkpt lat="28.138575" lon="105.761614"><ele>1819.1763</ele><time>2026-08-15T19:08:13.000Z</time></trkpt>
        <trkpt lat="28.138572" lon="105.761614"><ele>1820.5358</ele><time>2026-08-15T19:08:15.000Z</time></trkpt>
        <trkpt lat="28.138554" lon="105.761621"><ele>1819.8159</ele><time>2026-08-15T19:08:29.000Z</time></trkpt>
        <trkpt lat="28.138519" lon="105.761636"><ele>1824.8715</ele><time>2026-08-15T19:09:04.000Z</time></trkpt>
        <trkpt lat="28.138521" lon="105.761674"><ele>1829.6764</ele><time>2026-08-15T19:09:19.000Z</time></trkpt>
        <trkpt lat="28.138526" lon="105.761697"><ele>1829.5403</ele><time>2026-08-15T19:09:34.000Z</time></trkpt>
        <trkpt lat="28.138533" lon="105.761739"><ele>1827.846</ele><time>2026-08-15T19:09:47.000Z</time></trkpt>
        <trkpt lat="28.138535" lon="105.761754"><ele>1827.0001</ele><time>2026-08-15T19:09:49.000Z</time></trkpt>
        <trkpt lat="28.138536" lon="105.761755"><ele>1826.9468</ele><time>2026-08-15T19:09:51.000Z</time></trkpt>
        <trkpt lat="28.138544" lon="105.761775"><ele>1826.1991</ele><time>2026-08-15T19:09:55.000Z</time></trkpt>
        <trkpt lat="28.138554" lon="105.761797"><ele>1826.6307</ele><time>2026-08-15T19:09:57.000Z</time></trkpt>
        <trkpt lat="28.138567" lon="105.761819"><ele>1825.851</ele><time>2026-08-15T19:09:59.000Z</time></trkpt>
        <trkpt lat="28.138578" lon="105.761836"><ele>1826.6318</ele><time>2026-08-15T19:10:01.000Z</time></trkpt>
        <trkpt lat="28.138586" lon="105.761847"><ele>1826.4652</ele><time>2026-08-15T19:10:03.000Z</time></trkpt>
        <trkpt lat="28.138591" lon="105.761856"><ele>1826.8162</ele><time>2026-08-15T19:10:05.000Z</time></trkpt>
        <trkpt lat="28.138599" lon="105.761867"><ele>1826.2208</ele><time>2026-08-15T19:10:19.000Z</time></trkpt>
        <trkpt lat="28.138609" lon="105.76188"><ele>1825.1976</ele><time>2026-08-15T19:10:23.000Z</time></trkpt>
        <trkpt lat="28.138622" lon="105.761896"><ele>1825.3876</ele><time>2026-08-15T19:10:25.000Z</time></trkpt>
        <trkpt lat="28.138623" lon="105.761897"><ele>1825.3624</ele><time>2026-08-15T19:10:27.000Z</time></trkpt>
        <trkpt lat="28.138635" lon="105.761914"><ele>1824.2468</ele><time>2026-08-15T19:10:33.000Z</time></trkpt>
        <trkpt lat="28.138643" lon="105.761921"><ele>1823.6002</ele><time>2026-08-15T19:10:35.000Z</time></trkpt>
        <trkpt lat="28.138644" lon="105.76193"><ele>1823.438</ele><time>2026-08-15T19:10:37.000Z</time></trkpt>
        <trkpt lat="28.138651" lon="105.761934"><ele>1825.53</ele><time>2026-08-15T19:12:15.000Z</time></trkpt>
        <trkpt lat="28.138668" lon="105.761945"><ele>1823.8231</ele><time>2026-08-15T19:13:37.000Z</time></trkpt>
        <trkpt lat="28.138671" lon="105.76195"><ele>1824.1399</ele><time>2026-08-15T19:13:39.000Z</time></trkpt>
        <trkpt lat="28.138676" lon="105.761955"><ele>1824.2223</ele><time>2026-08-15T19:13:45.000Z</time></trkpt>
        <trkpt lat="28.138695" lon="105.761982"><ele>1825.6382</ele><time>2026-08-15T19:14:05.000Z</time></trkpt>
        <trkpt lat="28.138695" lon="105.761982"><ele>1825.2278</ele><time>2026-08-15T19:14:07.000Z</time></trkpt>
        <trkpt lat="28.138696" lon="105.761982"><ele>1824.8086</ele><time>2026-08-15T19:14:09.000Z</time></trkpt>
        <trkpt lat="28.138729" lon="105.761985"><ele>1824.519</ele><time>2026-08-15T19:14:52.000Z</time></trkpt>
        <trkpt lat="28.138732" lon="105.761987"><ele>1825.0276</ele><time>2026-08-15T19:15:07.000Z</time></trkpt>
        <trkpt lat="28.138736" lon="105.761991"><ele>1825.4225</ele><time>2026-08-15T19:15:09.000Z</time></trkpt>
        <trkpt lat="28.138757" lon="105.76201"><ele>1824.1805</ele><time>2026-08-15T19:15:17.000Z</time></trkpt>
        <trkpt lat="28.138773" lon="105.762024"><ele>1824.5768</ele><time>2026-08-15T19:15:19.000Z</time></trkpt>
        <trkpt lat="28.138775" lon="105.762025"><ele>1824.351</ele><time>2026-08-15T19:15:21.000Z</time></trkpt>
        <trkpt lat="28.138792" lon="105.762034"><ele>1824.5193</ele><time>2026-08-15T19:15:25.000Z</time></trkpt>
        <trkpt lat="28.138809" lon="105.762047"><ele>1823.3246</ele><time>2026-08-15T19:15:27.000Z</time></trkpt>
        <trkpt lat="28.138824" lon="105.762066"><ele>1823.8499</ele><time>2026-08-15T19:15:29.000Z</time></trkpt>
        <trkpt lat="28.138832" lon="105.762086"><ele>1823.9554</ele><time>2026-08-15T19:15:31.000Z</time></trkpt>
        <trkpt lat="28.138839" lon="105.762103"><ele>1823.5571</ele><time>2026-08-15T19:15:33.000Z</time></trkpt>
        <trkpt lat="28.138844" lon="105.762121"><ele>1823.5486</ele><time>2026-08-15T19:15:35.000Z</time></trkpt>
        <trkpt lat="28.138849" lon="105.762138"><ele>1824.2888</ele><time>2026-08-15T19:15:37.000Z</time></trkpt>
        <trkpt lat="28.138854" lon="105.762155"><ele>1824.4247</ele><time>2026-08-15T19:15:39.000Z</time></trkpt>
        <trkpt lat="28.138858" lon="105.762167"><ele>1824.2605</ele><time>2026-08-15T19:15:41.000Z</time></trkpt>
        <trkpt lat="28.138862" lon="105.762173"><ele>1823.6956</ele><time>2026-08-15T19:15:43.000Z</time></trkpt>
        <trkpt lat="28.138862" lon="105.76219"><ele>1823.5083</ele><time>2026-08-15T19:15:49.000Z</time></trkpt>
        <trkpt lat="28.138856" lon="105.762201"><ele>1823.2334</ele><time>2026-08-15T19:15:53.000Z</time></trkpt>
        <trkpt lat="28.138845" lon="105.762219"><ele>1823.0853</ele><time>2026-08-15T19:15:55.000Z</time></trkpt>
        <trkpt lat="28.138846" lon="105.76222"><ele>1822.4436</ele><time>2026-08-15T19:15:57.000Z</time></trkpt>
        <trkpt lat="28.138851" lon="105.762238"><ele>1823.5665</ele><time>2026-08-15T19:16:01.000Z</time></trkpt>
        <trkpt lat="28.138855" lon="105.762251"><ele>1822.3584</ele><time>2026-08-15T19:16:03.000Z</time></trkpt>
        <trkpt lat="28.138862" lon="105.762265"><ele>1821.0669</ele><time>2026-08-15T19:16:05.000Z</time></trkpt>
        <trkpt lat="28.138871" lon="105.762275"><ele>1820.5823</ele><time>2026-08-15T19:16:07.000Z</time></trkpt>
        <trkpt lat="28.138885" lon="105.762285"><ele>1820.047</ele><time>2026-08-15T19:16:09.000Z</time></trkpt>
        <trkpt lat="28.138901" lon="105.762294"><ele>1819.3888</ele><time>2026-08-15T19:16:11.000Z</time></trkpt>
        <trkpt lat="28.138913" lon="105.762299"><ele>1819.3583</ele><time>2026-08-15T19:16:13.000Z</time></trkpt>
        <trkpt lat="28.138918" lon="105.762299"><ele>1820.0377</ele><time>2026-08-15T19:16:15.000Z</time></trkpt>
        <trkpt lat="28.13894" lon="105.7623"><ele>1820.6488</ele><time>2026-08-15T19:16:19.000Z</time></trkpt>
        <trkpt lat="28.138945" lon="105.762302"><ele>1819.9604</ele><time>2026-08-15T19:16:21.000Z</time></trkpt>
        <trkpt lat="28.138953" lon="105.762309"><ele>1819.7013</ele><time>2026-08-15T19:16:23.000Z</time></trkpt>
        <trkpt lat="28.138967" lon="105.762323"><ele>1818.5063</ele><time>2026-08-15T19:16:27.000Z</time></trkpt>
        <trkpt lat="28.138973" lon="105.762329"><ele>1819.1885</ele><time>2026-08-15T19:16:29.000Z</time></trkpt>
        <trkpt lat="28.138978" lon="105.762335"><ele>1818.4458</ele><time>2026-08-15T19:16:31.000Z</time></trkpt>
        <trkpt lat="28.138993" lon="105.762353"><ele>1818.1146</ele><time>2026-08-15T19:16:35.000Z</time></trkpt>
        <trkpt lat="28.138998" lon="105.762362"><ele>1817.2567</ele><time>2026-08-15T19:16:37.000Z</time></trkpt>
        <trkpt lat="28.139005" lon="105.762375"><ele>1817.0796</ele><time>2026-08-15T19:16:39.000Z</time></trkpt>
        <trkpt lat="28.139011" lon="105.762389"><ele>1816.8092</ele><time>2026-08-15T19:16:41.000Z</time></trkpt>
        <trkpt lat="28.139015" lon="105.762401"><ele>1816.627</ele><time>2026-08-15T19:16:43.000Z</time></trkpt>
        <trkpt lat="28.139018" lon="105.762416"><ele>1816.6252</ele><time>2026-08-15T19:16:45.000Z</time></trkpt>
        <trkpt lat="28.139021" lon="105.762428"><ele>1816.7803</ele><time>2026-08-15T19:16:47.000Z</time></trkpt>
        <trkpt lat="28.139025" lon="105.762444"><ele>1817.1354</ele><time>2026-08-15T19:16:49.000Z</time></trkpt>
        <trkpt lat="28.13903" lon="105.762457"><ele>1816.5732</ele><time>2026-08-15T19:16:51.000Z</time></trkpt>
        <trkpt lat="28.139039" lon="105.762472"><ele>1816.0171</ele><time>2026-08-15T19:16:53.000Z</time></trkpt>
        <trkpt lat="28.139049" lon="105.762492"><ele>1816.3876</ele><time>2026-08-15T19:16:55.000Z</time></trkpt>
        <trkpt lat="28.139058" lon="105.762512"><ele>1815.3965</ele><time>2026-08-15T19:16:57.000Z</time></trkpt>
        <trkpt lat="28.139065" lon="105.76253"><ele>1814.226</ele><time>2026-08-15T19:16:59.000Z</time></trkpt>
        <trkpt lat="28.139071" lon="105.762545"><ele>1813.9288</ele><time>2026-08-15T19:17:01.000Z</time></trkpt>
        <trkpt lat="28.139077" lon="105.76256"><ele>1813.8767</ele><time>2026-08-15T19:17:03.000Z</time></trkpt>
        <trkpt lat="28.139083" lon="105.762575"><ele>1813.8932</ele><time>2026-08-15T19:17:05.000Z</time></trkpt>
        <trkpt lat="28.139086" lon="105.762587"><ele>1813.3967</ele><time>2026-08-15T19:17:07.000Z</time></trkpt>
        <trkpt lat="28.139085" lon="105.762598"><ele>1813.5459</ele><time>2026-08-15T19:17:09.000Z</time></trkpt>
        <trkpt lat="28.139081" lon="105.762611"><ele>1813.3132</ele><time>2026-08-15T19:17:11.000Z</time></trkpt>
        <trkpt lat="28.139075" lon="105.762626"><ele>1813.0798</ele><time>2026-08-15T19:17:13.000Z</time></trkpt>
        <trkpt lat="28.139071" lon="105.762643"><ele>1813.4135</ele><time>2026-08-15T19:17:15.000Z</time></trkpt>
        <trkpt lat="28.139069" lon="105.76266"><ele>1812.5265</ele><time>2026-08-15T19:17:17.000Z</time></trkpt>
        <trkpt lat="28.139067" lon="105.762676"><ele>1812.0424</ele><time>2026-08-15T19:17:19.000Z</time></trkpt>
        <trkpt lat="28.139063" lon="105.762691"><ele>1811.8594</ele><time>2026-08-15T19:17:21.000Z</time></trkpt>
        <trkpt lat="28.13906" lon="105.762707"><ele>1810.9807</ele><time>2026-08-15T19:17:23.000Z</time></trkpt>
        <trkpt lat="28.139062" lon="105.762716"><ele>1811.6001</ele><time>2026-08-15T19:17:25.000Z</time></trkpt>
        <trkpt lat="28.139068" lon="105.762725"><ele>1810.1821</ele><time>2026-08-15T19:17:27.000Z</time></trkpt>
        <trkpt lat="28.139078" lon="105.762742"><ele>1809.033</ele><time>2026-08-15T19:17:31.000Z</time></trkpt>
        <trkpt lat="28.13908" lon="105.76275"><ele>1808.701</ele><time>2026-08-15T19:17:33.000Z</time></trkpt>
        <trkpt lat="28.139078" lon="105.762759"><ele>1808.0055</ele><time>2026-08-15T19:17:35.000Z</time></trkpt>
        <trkpt lat="28.13907" lon="105.762794"><ele>1807.9412</ele><time>2026-08-15T19:17:39.000Z</time></trkpt>
        <trkpt lat="28.139064" lon="105.762813"><ele>1808.4828</ele><time>2026-08-15T19:17:41.000Z</time></trkpt>
        <trkpt lat="28.139064" lon="105.762825"><ele>1808.3735</ele><time>2026-08-15T19:17:43.000Z</time></trkpt>
        <trkpt lat="28.139065" lon="105.762839"><ele>1808.6357</ele><time>2026-08-15T19:17:45.000Z</time></trkpt>
        <trkpt lat="28.139064" lon="105.762853"><ele>1809.1714</ele><time>2026-08-15T19:17:47.000Z</time></trkpt>
        <trkpt lat="28.139062" lon="105.762863"><ele>1809.4828</ele><time>2026-08-15T19:17:49.000Z</time></trkpt>
        <trkpt lat="28.139064" lon="105.762884"><ele>1808.9124</ele><time>2026-08-15T19:17:53.000Z</time></trkpt>
        <trkpt lat="28.139067" lon="105.762896"><ele>1807.3555</ele><time>2026-08-15T19:17:55.000Z</time></trkpt>
        <trkpt lat="28.139069" lon="105.762908"><ele>1806.4324</ele><time>2026-08-15T19:17:57.000Z</time></trkpt>
        <trkpt lat="28.139071" lon="105.762921"><ele>1804.9124</ele><time>2026-08-15T19:18:01.000Z</time></trkpt>
        <trkpt lat="28.139073" lon="105.762938"><ele>1804.9169</ele><time>2026-08-15T19:18:03.000Z</time></trkpt>
        <trkpt lat="28.139072" lon="105.762954"><ele>1804.574</ele><time>2026-08-15T19:18:05.000Z</time></trkpt>
        <trkpt lat="28.139069" lon="105.762964"><ele>1803.8441</ele><time>2026-08-15T19:18:07.000Z</time></trkpt>
        <trkpt lat="28.139063" lon="105.762975"><ele>1803.4712</ele><time>2026-08-15T19:18:09.000Z</time></trkpt>
        <trkpt lat="28.139057" lon="105.762983"><ele>1803.1182</ele><time>2026-08-15T19:18:11.000Z</time></trkpt>
        <trkpt lat="28.139053" lon="105.762996"><ele>1802.8904</ele><time>2026-08-15T19:18:15.000Z</time></trkpt>
        <trkpt lat="28.139054" lon="105.763006"><ele>1803.2948</ele><time>2026-08-15T19:18:19.000Z</time></trkpt>
        <trkpt lat="28.139053" lon="105.763023"><ele>1802.6464</ele><time>2026-08-15T19:18:23.000Z</time></trkpt>
        <trkpt lat="28.139051" lon="105.763031"><ele>1802.3385</ele><time>2026-08-15T19:18:25.000Z</time></trkpt>
        <trkpt lat="28.139043" lon="105.763045"><ele>1801.593</ele><time>2026-08-15T19:18:29.000Z</time></trkpt>
        <trkpt lat="28.139031" lon="105.763066"><ele>1800.9636</ele><time>2026-08-15T19:18:31.000Z</time></trkpt>
        <trkpt lat="28.13903" lon="105.763068"><ele>1800.3685</ele><time>2026-08-15T19:18:33.000Z</time></trkpt>
        <trkpt lat="28.139016" lon="105.763087"><ele>1801.518</ele><time>2026-08-15T19:18:38.000Z</time></trkpt>
        <trkpt lat="28.139006" lon="105.763102"><ele>1801.4203</ele><time>2026-08-15T19:18:40.000Z</time></trkpt>
        <trkpt lat="28.139" lon="105.763114"><ele>1800.4987</ele><time>2026-08-15T19:18:42.000Z</time></trkpt>
        <trkpt lat="28.139" lon="105.763114"><ele>1799.3121</ele><time>2026-08-15T19:18:44.000Z</time></trkpt>
        <trkpt lat="28.139038" lon="105.76314"><ele>1799.4495</ele><time>2026-08-15T19:18:50.000Z</time></trkpt>
        <trkpt lat="28.139038" lon="105.76314"><ele>1799.825</ele><time>2026-08-15T19:18:52.000Z</time></trkpt>
        <trkpt lat="28.139037" lon="105.763141"><ele>1799.7494</ele><time>2026-08-15T19:18:54.000Z</time></trkpt>
        <trkpt lat="28.139015" lon="105.763168"><ele>1801.0295</ele><time>2026-08-15T19:19:02.000Z</time></trkpt>
        <trkpt lat="28.139015" lon="105.763168"><ele>1800.3325</ele><time>2026-08-15T19:19:04.000Z</time></trkpt>
        <trkpt lat="28.139015" lon="105.763169"><ele>1799.7496</ele><time>2026-08-15T19:19:06.000Z</time></trkpt>
        <trkpt lat="28.138994" lon="105.763198"><ele>1796.2236</ele><time>2026-08-15T19:19:16.000Z</time></trkpt>
        <trkpt lat="28.138991" lon="105.763203"><ele>1796.1447</ele><time>2026-08-15T19:19:18.000Z</time></trkpt>
        <trkpt lat="28.138988" lon="105.763208"><ele>1795.8633</ele><time>2026-08-15T19:19:20.000Z</time></trkpt>
        <trkpt lat="28.138966" lon="105.763246"><ele>1794.1306</ele><time>2026-08-15T19:19:36.000Z</time></trkpt>
        <trkpt lat="28.138962" lon="105.763251"><ele>1793.4049</ele><time>2026-08-15T19:19:38.000Z</time></trkpt>
        <trkpt lat="28.138961" lon="105.763257"><ele>1794.7778</ele><time>2026-08-15T19:19:40.000Z</time></trkpt>
        <trkpt lat="28.138956" lon="105.763287"><ele>1794.8812</ele><time>2026-08-15T19:19:48.000Z</time></trkpt>
        <trkpt lat="28.138952" lon="105.763303"><ele>1795.1582</ele><time>2026-08-15T19:19:50.000Z</time></trkpt>
        <trkpt lat="28.138952" lon="105.763304"><ele>1795.9928</ele><time>2026-08-15T19:19:52.000Z</time></trkpt>
        <trkpt lat="28.138944" lon="105.763332"><ele>1794.9387</ele><time>2026-08-15T19:19:58.000Z</time></trkpt>
        <trkpt lat="28.138942" lon="105.763347"><ele>1794.8124</ele><time>2026-08-15T19:20:00.000Z</time></trkpt>
        <trkpt lat="28.138939" lon="105.763368"><ele>1794.101</ele><time>2026-08-15T19:20:02.000Z</time></trkpt>
        <trkpt lat="28.138939" lon="105.763386"><ele>1793.7135</ele><time>2026-08-15T19:20:04.000Z</time></trkpt>
        <trkpt lat="28.13894" lon="105.763406"><ele>1793.4639</ele><time>2026-08-15T19:20:06.000Z</time></trkpt>
        <trkpt lat="28.13894" lon="105.763427"><ele>1792.7284</ele><time>2026-08-15T19:20:08.000Z</time></trkpt>
        <trkpt lat="28.138941" lon="105.763451"><ele>1793.3818</ele><time>2026-08-15T19:20:10.000Z</time></trkpt>
        <trkpt lat="28.138938" lon="105.763479"><ele>1793.2107</ele><time>2026-08-15T19:20:12.000Z</time></trkpt>
        <trkpt lat="28.138934" lon="105.763504"><ele>1793.7831</ele><time>2026-08-15T19:20:14.000Z</time></trkpt>
        <trkpt lat="28.13893" lon="105.763525"><ele>1792.6953</ele><time>2026-08-15T19:20:16.000Z</time></trkpt>
        <trkpt lat="28.138926" lon="105.763547"><ele>1791.477</ele><time>2026-08-15T19:20:18.000Z</time></trkpt>
        <trkpt lat="28.138924" lon="105.763567"><ele>1790.7642</ele><time>2026-08-15T19:20:20.000Z</time></trkpt>
        <trkpt lat="28.138924" lon="105.763592"><ele>1791.0779</ele><time>2026-08-15T19:20:22.000Z</time></trkpt>
        <trkpt lat="28.138924" lon="105.763619"><ele>1790.7919</ele><time>2026-08-15T19:20:24.000Z</time></trkpt>
        <trkpt lat="28.138922" lon="105.76365"><ele>1790.9167</ele><time>2026-08-15T19:20:26.000Z</time></trkpt>
        <trkpt lat="28.138918" lon="105.763678"><ele>1791.567</ele><time>2026-08-15T19:20:28.000Z</time></trkpt>
        <trkpt lat="28.138912" lon="105.763698"><ele>1791.4789</ele><time>2026-08-15T19:20:30.000Z</time></trkpt>
        <trkpt lat="28.138907" lon="105.763718"><ele>1791.529</ele><time>2026-08-15T19:20:32.000Z</time></trkpt>
        <trkpt lat="28.1389" lon="105.763736"><ele>1792.1609</ele><time>2026-08-15T19:20:34.000Z</time></trkpt>
        <trkpt lat="28.138891" lon="105.763752"><ele>1792.4916</ele><time>2026-08-15T19:20:36.000Z</time></trkpt>
        <trkpt lat="28.138881" lon="105.763758"><ele>1791.5283</ele><time>2026-08-15T19:20:38.000Z</time></trkpt>
        <trkpt lat="28.138875" lon="105.763763"><ele>1790.2761</ele><time>2026-08-15T19:20:40.000Z</time></trkpt>
        <trkpt lat="28.138864" lon="105.763778"><ele>1790.0245</ele><time>2026-08-15T19:20:44.000Z</time></trkpt>
        <trkpt lat="28.138863" lon="105.763788"><ele>1790.7115</ele><time>2026-08-15T19:20:46.000Z</time></trkpt>
        <trkpt lat="28.138864" lon="105.763807"><ele>1789.8352</ele><time>2026-08-15T19:20:48.000Z</time></trkpt>
        <trkpt lat="28.138867" lon="105.763826"><ele>1788.7474</ele><time>2026-08-15T19:20:50.000Z</time></trkpt>
        <trkpt lat="28.138868" lon="105.763843"><ele>1787.9369</ele><time>2026-08-15T19:20:52.000Z</time></trkpt>
        <trkpt lat="28.138864" lon="105.763854"><ele>1787.2444</ele><time>2026-08-15T19:20:54.000Z</time></trkpt>
        <trkpt lat="28.138856" lon="105.763868"><ele>1786.3273</ele><time>2026-08-15T19:20:56.000Z</time></trkpt>
        <trkpt lat="28.138847" lon="105.763885"><ele>1786.2506</ele><time>2026-08-15T19:20:58.000Z</time></trkpt>
        <trkpt lat="28.138839" lon="105.763899"><ele>1786.5475</ele><time>2026-08-15T19:21:00.000Z</time></trkpt>
        <trkpt lat="28.138836" lon="105.763909"><ele>1786.8127</ele><time>2026-08-15T19:21:02.000Z</time></trkpt>
        <trkpt lat="28.138834" lon="105.763917"><ele>1787.3525</ele><time>2026-08-15T19:21:04.000Z</time></trkpt>
        <trkpt lat="28.138827" lon="105.763928"><ele>1788.4778</ele><time>2026-08-15T19:21:10.000Z</time></trkpt>
        <trkpt lat="28.138816" lon="105.763939"><ele>1788.9875</ele><time>2026-08-15T19:21:14.000Z</time></trkpt>
        <trkpt lat="28.138814" lon="105.763943"><ele>1789.2896</ele><time>2026-08-15T19:21:16.000Z</time></trkpt>
        <trkpt lat="28.138799" lon="105.763976"><ele>1788.4061</ele><time>2026-08-15T19:21:24.000Z</time></trkpt>
        <trkpt lat="28.138799" lon="105.763976"><ele>1787.4868</ele><time>2026-08-15T19:21:26.000Z</time></trkpt>
        <trkpt lat="28.138798" lon="105.763979"><ele>1787.0221</ele><time>2026-08-15T19:21:28.000Z</time></trkpt>
        <trkpt lat="28.138781" lon="105.764009"><ele>1786.5892</ele><time>2026-08-15T19:21:32.000Z</time></trkpt>
        <trkpt lat="28.138768" lon="105.764026"><ele>1785.8203</ele><time>2026-08-15T19:21:34.000Z</time></trkpt>
        <trkpt lat="28.138751" lon="105.764041"><ele>1785.0552</ele><time>2026-08-15T19:21:36.000Z</time></trkpt>
        <trkpt lat="28.138734" lon="105.764055"><ele>1783.8025</ele><time>2026-08-15T19:21:38.000Z</time></trkpt>
        <trkpt lat="28.138711" lon="105.764076"><ele>1782.9639</ele><time>2026-08-15T19:21:40.000Z</time></trkpt>
        <trkpt lat="28.13869" lon="105.764098"><ele>1782.4036</ele><time>2026-08-15T19:21:42.000Z</time></trkpt>
        <trkpt lat="28.138672" lon="105.764117"><ele>1781.9327</ele><time>2026-08-15T19:21:44.000Z</time></trkpt>
        <trkpt lat="28.138656" lon="105.764136"><ele>1781.4393</ele><time>2026-08-15T19:21:46.000Z</time></trkpt>
        <trkpt lat="28.138637" lon="105.764159"><ele>1781.5864</ele><time>2026-08-15T19:21:48.000Z</time></trkpt>
        <trkpt lat="28.13862" lon="105.76418"><ele>1781.4125</ele><time>2026-08-15T19:21:50.000Z</time></trkpt>
        <trkpt lat="28.138604" lon="105.764197"><ele>1781.5513</ele><time>2026-08-15T19:21:52.000Z</time></trkpt>
        <trkpt lat="28.138588" lon="105.764211"><ele>1781.4141</ele><time>2026-08-15T19:21:54.000Z</time></trkpt>
        <trkpt lat="28.138574" lon="105.764225"><ele>1781.4354</ele><time>2026-08-15T19:21:56.000Z</time></trkpt>
        <trkpt lat="28.138562" lon="105.764239"><ele>1781.9476</ele><time>2026-08-15T19:21:58.000Z</time></trkpt>
        <trkpt lat="28.138553" lon="105.76425"><ele>1781.3009</ele><time>2026-08-15T19:22:00.000Z</time></trkpt>
        <trkpt lat="28.138543" lon="105.764264"><ele>1780.3856</ele><time>2026-08-15T19:22:02.000Z</time></trkpt>
        <trkpt lat="28.138533" lon="105.764273"><ele>1778.4657</ele><time>2026-08-15T19:22:04.000Z</time></trkpt>
        <trkpt lat="28.138523" lon="105.764281"><ele>1777.7749</ele><time>2026-08-15T19:22:06.000Z</time></trkpt>
        <trkpt lat="28.138511" lon="105.76429"><ele>1776.6178</ele><time>2026-08-15T19:22:08.000Z</time></trkpt>
        <trkpt lat="28.138497" lon="105.764299"><ele>1775.84</ele><time>2026-08-15T19:22:10.000Z</time></trkpt>
        <trkpt lat="28.138484" lon="105.76431"><ele>1775.0273</ele><time>2026-08-15T19:22:12.000Z</time></trkpt>
        <trkpt lat="28.138473" lon="105.764324"><ele>1773.7754</ele><time>2026-08-15T19:22:14.000Z</time></trkpt>
        <trkpt lat="28.138465" lon="105.764337"><ele>1774.1401</ele><time>2026-08-15T19:22:16.000Z</time></trkpt>
        <trkpt lat="28.138454" lon="105.764355"><ele>1773.7211</ele><time>2026-08-15T19:22:18.000Z</time></trkpt>
        <trkpt lat="28.138443" lon="105.764371"><ele>1772.7428</ele><time>2026-08-15T19:22:20.000Z</time></trkpt>
        <trkpt lat="28.138432" lon="105.764385"><ele>1771.9952</ele><time>2026-08-15T19:22:22.000Z</time></trkpt>
        <trkpt lat="28.138421" lon="105.764397"><ele>1771.8269</ele><time>2026-08-15T19:22:24.000Z</time></trkpt>
        <trkpt lat="28.13841" lon="105.76441"><ele>1771.2296</ele><time>2026-08-15T19:22:26.000Z</time></trkpt>
        <trkpt lat="28.138396" lon="105.764428"><ele>1770.6067</ele><time>2026-08-15T19:22:28.000Z</time></trkpt>
        <trkpt lat="28.138385" lon="105.764446"><ele>1770.0479</ele><time>2026-08-15T19:22:30.000Z</time></trkpt>
        <trkpt lat="28.138372" lon="105.764462"><ele>1769.6946</ele><time>2026-08-15T19:22:32.000Z</time></trkpt>
        <trkpt lat="28.138364" lon="105.764471"><ele>1769.263</ele><time>2026-08-15T19:22:34.000Z</time></trkpt>
        <trkpt lat="28.138355" lon="105.764479"><ele>1768.8607</ele><time>2026-08-15T19:22:36.000Z</time></trkpt>
        <trkpt lat="28.138344" lon="105.764489"><ele>1768.9825</ele><time>2026-08-15T19:22:38.000Z</time></trkpt>
        <trkpt lat="28.138334" lon="105.764499"><ele>1767.5283</ele><time>2026-08-15T19:22:40.000Z</time></trkpt>
        <trkpt lat="28.138322" lon="105.764514"><ele>1766.9022</ele><time>2026-08-15T19:22:42.000Z</time></trkpt>
        <trkpt lat="28.138305" lon="105.764532"><ele>1767.2345</ele><time>2026-08-15T19:22:44.000Z</time></trkpt>
        <trkpt lat="28.138291" lon="105.76455"><ele>1766.5879</ele><time>2026-08-15T19:22:46.000Z</time></trkpt>
        <trkpt lat="28.138279" lon="105.76457"><ele>1767.9117</ele><time>2026-08-15T19:22:48.000Z</time></trkpt>
        <trkpt lat="28.138269" lon="105.76459"><ele>1767.614</ele><time>2026-08-15T19:22:50.000Z</time></trkpt>
        <trkpt lat="28.13826" lon="105.764608"><ele>1767.7385</ele><time>2026-08-15T19:22:52.000Z</time></trkpt>
        <trkpt lat="28.138252" lon="105.764622"><ele>1766.8163</ele><time>2026-08-15T19:22:54.000Z</time></trkpt>
        <trkpt lat="28.138247" lon="105.764634"><ele>1765.657</ele><time>2026-08-15T19:22:56.000Z</time></trkpt>
        <trkpt lat="28.138243" lon="105.764644"><ele>1764.5874</ele><time>2026-08-15T19:22:58.000Z</time></trkpt>
        <trkpt lat="28.138241" lon="105.764653"><ele>1762.4722</ele><time>2026-08-15T19:23:00.000Z</time></trkpt>
        <trkpt lat="28.13824" lon="105.764674"><ele>1761.0239</ele><time>2026-08-15T19:23:04.000Z</time></trkpt>
        <trkpt lat="28.138241" lon="105.764683"><ele>1759.8081</ele><time>2026-08-15T19:23:06.000Z</time></trkpt>
        <trkpt lat="28.138242" lon="105.764697"><ele>1760.252</ele><time>2026-08-15T19:23:08.000Z</time></trkpt>
        <trkpt lat="28.138243" lon="105.764712"><ele>1760.0295</ele><time>2026-08-15T19:23:10.000Z</time></trkpt>
        <trkpt lat="28.138242" lon="105.764728"><ele>1758.6049</ele><time>2026-08-15T19:23:12.000Z</time></trkpt>
        <trkpt lat="28.138241" lon="105.764741"><ele>1758.7039</ele><time>2026-08-15T19:23:14.000Z</time></trkpt>
        <trkpt lat="28.138239" lon="105.764751"><ele>1757.521</ele><time>2026-08-15T19:23:16.000Z</time></trkpt>
        <trkpt lat="28.138233" lon="105.764765"><ele>1758.0571</ele><time>2026-08-15T19:23:18.000Z</time></trkpt>
        <trkpt lat="28.138226" lon="105.764773"><ele>1758.6816</ele><time>2026-08-15T19:23:20.000Z</time></trkpt>
        <trkpt lat="28.138217" lon="105.764775"><ele>1758.4398</ele><time>2026-08-15T19:23:22.000Z</time></trkpt>
        <trkpt lat="28.138205" lon="105.764772"><ele>1757.3188</ele><time>2026-08-15T19:23:26.000Z</time></trkpt>
        <trkpt lat="28.138189" lon="105.764767"><ele>1755.7006</ele><time>2026-08-15T19:23:28.000Z</time></trkpt>
        <trkpt lat="28.138188" lon="105.764767"><ele>1755.1847</ele><time>2026-08-15T19:23:30.000Z</time></trkpt>
        <trkpt lat="28.138173" lon="105.764786"><ele>1755.612</ele><time>2026-08-15T19:23:34.000Z</time></trkpt>
        <trkpt lat="28.138153" lon="105.764812"><ele>1755.4108</ele><time>2026-08-15T19:23:36.000Z</time></trkpt>
        <trkpt lat="28.138135" lon="105.764835"><ele>1755.5931</ele><time>2026-08-15T19:23:38.000Z</time></trkpt>
        <trkpt lat="28.138118" lon="105.764855"><ele>1754.4109</ele><time>2026-08-15T19:23:40.000Z</time></trkpt>
        <trkpt lat="28.138099" lon="105.764876"><ele>1755.3075</ele><time>2026-08-15T19:23:42.000Z</time></trkpt>
        <trkpt lat="28.138081" lon="105.764895"><ele>1753.8506</ele><time>2026-08-15T19:23:44.000Z</time></trkpt>
        <trkpt lat="28.138067" lon="105.764913"><ele>1752.5188</ele><time>2026-08-15T19:23:46.000Z</time></trkpt>
        <trkpt lat="28.138058" lon="105.764927"><ele>1752.2849</ele><time>2026-08-15T19:23:48.000Z</time></trkpt>
        <trkpt lat="28.138048" lon="105.764941"><ele>1751.7711</ele><time>2026-08-15T19:23:50.000Z</time></trkpt>
        <trkpt lat="28.138038" lon="105.764954"><ele>1750.7389</ele><time>2026-08-15T19:23:52.000Z</time></trkpt>
        <trkpt lat="28.138029" lon="105.764961"><ele>1749.818</ele><time>2026-08-15T19:23:54.000Z</time></trkpt>
        <trkpt lat="28.138018" lon="105.764967"><ele>1748.7957</ele><time>2026-08-15T19:23:56.000Z</time></trkpt>
        <trkpt lat="28.138002" lon="105.764974"><ele>1748.5706</ele><time>2026-08-15T19:23:58.000Z</time></trkpt>
        <trkpt lat="28.13799" lon="105.764979"><ele>1747.9882</ele><time>2026-08-15T19:24:00.000Z</time></trkpt>
        <trkpt lat="28.137978" lon="105.764982"><ele>1746.7107</ele><time>2026-08-15T19:24:02.000Z</time></trkpt>
        <trkpt lat="28.13796" lon="105.764987"><ele>1746.8525</ele><time>2026-08-15T19:24:04.000Z</time></trkpt>
        <trkpt lat="28.137943" lon="105.764993"><ele>1747.0455</ele><time>2026-08-15T19:24:06.000Z</time></trkpt>
        <trkpt lat="28.137927" lon="105.764998"><ele>1746.2855</ele><time>2026-08-15T19:24:08.000Z</time></trkpt>
        <trkpt lat="28.137914" lon="105.765002"><ele>1745.3464</ele><time>2026-08-15T19:24:10.000Z</time></trkpt>
        <trkpt lat="28.137902" lon="105.765005"><ele>1745.3043</ele><time>2026-08-15T19:24:12.000Z</time></trkpt>
        <trkpt lat="28.137887" lon="105.765008"><ele>1745.6455</ele><time>2026-08-15T19:24:14.000Z</time></trkpt>
        <trkpt lat="28.137871" lon="105.765011"><ele>1745.4814</ele><time>2026-08-15T19:24:16.000Z</time></trkpt>
        <trkpt lat="28.137852" lon="105.765015"><ele>1745.4252</ele><time>2026-08-15T19:24:18.000Z</time></trkpt>
        <trkpt lat="28.137837" lon="105.765019"><ele>1743.7872</ele><time>2026-08-15T19:24:20.000Z</time></trkpt>
        <trkpt lat="28.137825" lon="105.765025"><ele>1744.1494</ele><time>2026-08-15T19:24:22.000Z</time></trkpt>
        <trkpt lat="28.137813" lon="105.765034"><ele>1744.4116</ele><time>2026-08-15T19:24:24.000Z</time></trkpt>
        <trkpt lat="28.137802" lon="105.765044"><ele>1744.5381</ele><time>2026-08-15T19:24:26.000Z</time></trkpt>
        <trkpt lat="28.137794" lon="105.765057"><ele>1744.1935</ele><time>2026-08-15T19:24:28.000Z</time></trkpt>
        <trkpt lat="28.137791" lon="105.765066"><ele>1743.1494</ele><time>2026-08-15T19:24:30.000Z</time></trkpt>
        <trkpt lat="28.137788" lon="105.765079"><ele>1743.4891</ele><time>2026-08-15T19:24:32.000Z</time></trkpt>
        <trkpt lat="28.137783" lon="105.765105"><ele>1743.0424</ele><time>2026-08-15T19:24:34.000Z</time></trkpt>
        <trkpt lat="28.13778" lon="105.765133"><ele>1743.1676</ele><time>2026-08-15T19:24:36.000Z</time></trkpt>
        <trkpt lat="28.137781" lon="105.765156"><ele>1744.3695</ele><time>2026-08-15T19:24:38.000Z</time></trkpt>
        <trkpt lat="28.137781" lon="105.765177"><ele>1745.937</ele><time>2026-08-15T19:24:40.000Z</time></trkpt>
        <trkpt lat="28.137785" lon="105.7652"><ele>1745.599</ele><time>2026-08-15T19:24:42.000Z</time></trkpt>
        <trkpt lat="28.137787" lon="105.765219"><ele>1746.3096</ele><time>2026-08-15T19:24:44.000Z</time></trkpt>
        <trkpt lat="28.137788" lon="105.765235"><ele>1746.2965</ele><time>2026-08-15T19:24:46.000Z</time></trkpt>
        <trkpt lat="28.13779" lon="105.765249"><ele>1746.0573</ele><time>2026-08-15T19:24:48.000Z</time></trkpt>
        <trkpt lat="28.137792" lon="105.765269"><ele>1747.6595</ele><time>2026-08-15T19:24:50.000Z</time></trkpt>
        <trkpt lat="28.137791" lon="105.765288"><ele>1748.0151</ele><time>2026-08-15T19:24:52.000Z</time></trkpt>
        <trkpt lat="28.137785" lon="105.765308"><ele>1746.714</ele><time>2026-08-15T19:24:54.000Z</time></trkpt>
        <trkpt lat="28.137776" lon="105.765331"><ele>1747.0947</ele><time>2026-08-15T19:24:56.000Z</time></trkpt>
        <trkpt lat="28.137763" lon="105.765357"><ele>1747.3727</ele><time>2026-08-15T19:24:58.000Z</time></trkpt>
        <trkpt lat="28.137747" lon="105.765384"><ele>1747.2406</ele><time>2026-08-15T19:25:00.000Z</time></trkpt>
        <trkpt lat="28.137731" lon="105.765403"><ele>1746.6152</ele><time>2026-08-15T19:25:02.000Z</time></trkpt>
        <trkpt lat="28.137714" lon="105.765417"><ele>1745.0734</ele><time>2026-08-15T19:25:04.000Z</time></trkpt>
        <trkpt lat="28.137694" lon="105.765427"><ele>1743.5895</ele><time>2026-08-15T19:25:06.000Z</time></trkpt>
        <trkpt lat="28.137674" lon="105.765436"><ele>1741.5839</ele><time>2026-08-15T19:25:08.000Z</time></trkpt>
        <trkpt lat="28.137655" lon="105.765444"><ele>1741.5901</ele><time>2026-08-15T19:25:10.000Z</time></trkpt>
        <trkpt lat="28.137643" lon="105.765452"><ele>1742.2146</ele><time>2026-08-15T19:25:12.000Z</time></trkpt>
        <trkpt lat="28.13763" lon="105.765464"><ele>1742.1495</ele><time>2026-08-15T19:25:14.000Z</time></trkpt>
        <trkpt lat="28.137621" lon="105.765472"><ele>1741.7394</ele><time>2026-08-15T19:25:16.000Z</time></trkpt>
        <trkpt lat="28.137611" lon="105.765479"><ele>1741.8632</ele><time>2026-08-15T19:25:18.000Z</time></trkpt>
        <trkpt lat="28.137606" lon="105.765477"><ele>1740.8734</ele><time>2026-08-15T19:25:20.000Z</time></trkpt>
        <trkpt lat="28.137578" lon="105.765476"><ele>1739.6559</ele><time>2026-08-15T19:25:24.000Z</time></trkpt>
        <trkpt lat="28.137563" lon="105.765478"><ele>1740.4302</ele><time>2026-08-15T19:25:26.000Z</time></trkpt>
        <trkpt lat="28.137549" lon="105.765483"><ele>1739.0851</ele><time>2026-08-15T19:25:28.000Z</time></trkpt>
        <trkpt lat="28.137535" lon="105.76549"><ele>1738.0286</ele><time>2026-08-15T19:25:30.000Z</time></trkpt>
        <trkpt lat="28.13752" lon="105.765499"><ele>1737.9418</ele><time>2026-08-15T19:25:32.000Z</time></trkpt>
        <trkpt lat="28.137505" lon="105.765508"><ele>1735.9178</ele><time>2026-08-15T19:25:34.000Z</time></trkpt>
        <trkpt lat="28.137486" lon="105.765518"><ele>1736.7035</ele><time>2026-08-15T19:25:36.000Z</time></trkpt>
        <trkpt lat="28.137462" lon="105.76553"><ele>1736.4457</ele><time>2026-08-15T19:25:38.000Z</time></trkpt>
        <trkpt lat="28.137445" lon="105.765541"><ele>1735.9641</ele><time>2026-08-15T19:25:40.000Z</time></trkpt>
        <trkpt lat="28.13743" lon="105.765552"><ele>1735.6985</ele><time>2026-08-15T19:25:42.000Z</time></trkpt>
        <trkpt lat="28.137416" lon="105.765566"><ele>1735.255</ele><time>2026-08-15T19:25:44.000Z</time></trkpt>
        <trkpt lat="28.1374" lon="105.765583"><ele>1735.013</ele><time>2026-08-15T19:25:46.000Z</time></trkpt>
        <trkpt lat="28.137387" lon="105.765602"><ele>1734.705</ele><time>2026-08-15T19:25:48.000Z</time></trkpt>
        <trkpt lat="28.137378" lon="105.765617"><ele>1733.8517</ele><time>2026-08-15T19:25:50.000Z</time></trkpt>
        <trkpt lat="28.137371" lon="105.765632"><ele>1732.7886</ele><time>2026-08-15T19:25:52.000Z</time></trkpt>
        <trkpt lat="28.137361" lon="105.765653"><ele>1733.0464</ele><time>2026-08-15T19:25:54.000Z</time></trkpt>
        <trkpt lat="28.137349" lon="105.765673"><ele>1732.9839</ele><time>2026-08-15T19:25:56.000Z</time></trkpt>
        <trkpt lat="28.137339" lon="105.765694"><ele>1731.6202</ele><time>2026-08-15T19:25:58.000Z</time></trkpt>
        <trkpt lat="28.13733" lon="105.765714"><ele>1730.3162</ele><time>2026-08-15T19:26:00.000Z</time></trkpt>
        <trkpt lat="28.137325" lon="105.765732"><ele>1729.237</ele><time>2026-08-15T19:26:02.000Z</time></trkpt>
        <trkpt lat="28.13732" lon="105.765753"><ele>1730.0756</ele><time>2026-08-15T19:26:04.000Z</time></trkpt>
        <trkpt lat="28.137319" lon="105.765774"><ele>1730.5361</ele><time>2026-08-15T19:26:06.000Z</time></trkpt>
        <trkpt lat="28.137322" lon="105.765784"><ele>1730.819</ele><time>2026-08-15T19:26:08.000Z</time></trkpt>
        <trkpt lat="28.137324" lon="105.765796"><ele>1730.6771</ele><time>2026-08-15T19:26:10.000Z</time></trkpt>
        <trkpt lat="28.137325" lon="105.765814"><ele>1730.5243</ele><time>2026-08-15T19:26:12.000Z</time></trkpt>
        <trkpt lat="28.13732" lon="105.765832"><ele>1730.0034</ele><time>2026-08-15T19:26:14.000Z</time></trkpt>
        <trkpt lat="28.137311" lon="105.765851"><ele>1730.0857</ele><time>2026-08-15T19:26:16.000Z</time></trkpt>
        <trkpt lat="28.137298" lon="105.765871"><ele>1728.5404</ele><time>2026-08-15T19:26:18.000Z</time></trkpt>
        <trkpt lat="28.137281" lon="105.765894"><ele>1729.1002</ele><time>2026-08-15T19:26:20.000Z</time></trkpt>
        <trkpt lat="28.137269" lon="105.765916"><ele>1728.1456</ele><time>2026-08-15T19:26:22.000Z</time></trkpt>
        <trkpt lat="28.137258" lon="105.765937"><ele>1729.4379</ele><time>2026-08-15T19:26:24.000Z</time></trkpt>
        <trkpt lat="28.137249" lon="105.765953"><ele>1728.8159</ele><time>2026-08-15T19:26:26.000Z</time></trkpt>
        <trkpt lat="28.13724" lon="105.765965"><ele>1728.5842</ele><time>2026-08-15T19:26:28.000Z</time></trkpt>
        <trkpt lat="28.137231" lon="105.765978"><ele>1728.2467</ele><time>2026-08-15T19:26:30.000Z</time></trkpt>
        <trkpt lat="28.137221" lon="105.765995"><ele>1727.3167</ele><time>2026-08-15T19:26:32.000Z</time></trkpt>
        <trkpt lat="28.137212" lon="105.766011"><ele>1725.2845</ele><time>2026-08-15T19:26:34.000Z</time></trkpt>
        <trkpt lat="28.1372" lon="105.76603"><ele>1724.3527</ele><time>2026-08-15T19:26:36.000Z</time></trkpt>
        <trkpt lat="28.137191" lon="105.766046"><ele>1722.893</ele><time>2026-08-15T19:26:38.000Z</time></trkpt>
        <trkpt lat="28.13718" lon="105.766061"><ele>1722.294</ele><time>2026-08-15T19:26:40.000Z</time></trkpt>
        <trkpt lat="28.137169" lon="105.766073"><ele>1721.1166</ele><time>2026-08-15T19:26:42.000Z</time></trkpt>
        <trkpt lat="28.137156" lon="105.766084"><ele>1719.9513</ele><time>2026-08-15T19:26:44.000Z</time></trkpt>
        <trkpt lat="28.137141" lon="105.766096"><ele>1719.0454</ele><time>2026-08-15T19:26:46.000Z</time></trkpt>
        <trkpt lat="28.137126" lon="105.766108"><ele>1717.5188</ele><time>2026-08-15T19:26:48.000Z</time></trkpt>
        <trkpt lat="28.137111" lon="105.766122"><ele>1716.218</ele><time>2026-08-15T19:26:50.000Z</time></trkpt>
        <trkpt lat="28.137097" lon="105.766137"><ele>1715.3586</ele><time>2026-08-15T19:26:52.000Z</time></trkpt>
        <trkpt lat="28.137077" lon="105.766161"><ele>1715.0934</ele><time>2026-08-15T19:26:54.000Z</time></trkpt>
        <trkpt lat="28.137055" lon="105.766192"><ele>1715.9056</ele><time>2026-08-15T19:26:56.000Z</time></trkpt>
        <trkpt lat="28.13703" lon="105.766224"><ele>1717.2144</ele><time>2026-08-15T19:26:58.000Z</time></trkpt>
        <trkpt lat="28.137008" lon="105.76625"><ele>1717.5073</ele><time>2026-08-15T19:27:00.000Z</time></trkpt>
        <trkpt lat="28.136992" lon="105.766271"><ele>1716.8652</ele><time>2026-08-15T19:27:02.000Z</time></trkpt>
        <trkpt lat="28.136976" lon="105.766292"><ele>1716.4757</ele><time>2026-08-15T19:27:04.000Z</time></trkpt>
        <trkpt lat="28.136963" lon="105.766312"><ele>1717.571</ele><time>2026-08-15T19:27:06.000Z</time></trkpt>
        <trkpt lat="28.136954" lon="105.766327"><ele>1716.5778</ele><time>2026-08-15T19:27:08.000Z</time></trkpt>
        <trkpt lat="28.136946" lon="105.766339"><ele>1716.051</ele><time>2026-08-15T19:27:10.000Z</time></trkpt>
        <trkpt lat="28.136942" lon="105.766352"><ele>1716.8958</ele><time>2026-08-15T19:27:12.000Z</time></trkpt>
        <trkpt lat="28.136942" lon="105.76636"><ele>1717.1702</ele><time>2026-08-15T19:27:14.000Z</time></trkpt>
        <trkpt lat="28.136939" lon="105.766374"><ele>1718.1985</ele><time>2026-08-15T19:27:18.000Z</time></trkpt>
        <trkpt lat="28.136935" lon="105.76639"><ele>1717.8287</ele><time>2026-08-15T19:27:20.000Z</time></trkpt>
        <trkpt lat="28.136932" lon="105.766394"><ele>1718.5916</ele><time>2026-08-15T19:27:24.000Z</time></trkpt>
        <trkpt lat="28.136923" lon="105.766408"><ele>1718.8964</ele><time>2026-08-15T19:27:26.000Z</time></trkpt>
        <trkpt lat="28.136913" lon="105.766425"><ele>1718.66</ele><time>2026-08-15T19:27:28.000Z</time></trkpt>
        <trkpt lat="28.136908" lon="105.766443"><ele>1718.9929</ele><time>2026-08-15T19:27:30.000Z</time></trkpt>
        <trkpt lat="28.136906" lon="105.766459"><ele>1719.031</ele><time>2026-08-15T19:27:32.000Z</time></trkpt>
        <trkpt lat="28.136905" lon="105.76648"><ele>1718.8676</ele><time>2026-08-15T19:27:34.000Z</time></trkpt>
        <trkpt lat="28.136905" lon="105.766496"><ele>1719.234</ele><time>2026-08-15T19:27:36.000Z</time></trkpt>
        <trkpt lat="28.136906" lon="105.766512"><ele>1719.6031</ele><time>2026-08-15T19:27:38.000Z</time></trkpt>
        <trkpt lat="28.136909" lon="105.766525"><ele>1719.6251</ele><time>2026-08-15T19:27:40.000Z</time></trkpt>
        <trkpt lat="28.136911" lon="105.766535"><ele>1719.1709</ele><time>2026-08-15T19:27:42.000Z</time></trkpt>
        <trkpt lat="28.136915" lon="105.766552"><ele>1718.8646</ele><time>2026-08-15T19:27:46.000Z</time></trkpt>
        <trkpt lat="28.136915" lon="105.766561"><ele>1717.7981</ele><time>2026-08-15T19:27:48.000Z</time></trkpt>
        <trkpt lat="28.136914" lon="105.766576"><ele>1717.5336</ele><time>2026-08-15T19:27:50.000Z</time></trkpt>
        <trkpt lat="28.136912" lon="105.766592"><ele>1717.6218</ele><time>2026-08-15T19:27:56.000Z</time></trkpt>
        <trkpt lat="28.136911" lon="105.766609"><ele>1716.9578</ele><time>2026-08-15T19:27:58.000Z</time></trkpt>
        <trkpt lat="28.136911" lon="105.76663"><ele>1715.4006</ele><time>2026-08-15T19:28:00.000Z</time></trkpt>
        <trkpt lat="28.136915" lon="105.766646"><ele>1714.6863</ele><time>2026-08-15T19:28:02.000Z</time></trkpt>
        <trkpt lat="28.136921" lon="105.766656"><ele>1714.0787</ele><time>2026-08-15T19:28:04.000Z</time></trkpt>
        <trkpt lat="28.136928" lon="105.766666"><ele>1713.298</ele><time>2026-08-15T19:28:06.000Z</time></trkpt>
        <trkpt lat="28.136933" lon="105.766678"><ele>1712.4728</ele><time>2026-08-15T19:28:08.000Z</time></trkpt>
        <trkpt lat="28.136933" lon="105.766693"><ele>1712.6359</ele><time>2026-08-15T19:28:10.000Z</time></trkpt>
        <trkpt lat="28.136929" lon="105.766707"><ele>1712.5251</ele><time>2026-08-15T19:28:12.000Z</time></trkpt>
        <trkpt lat="28.136921" lon="105.766724"><ele>1712.3802</ele><time>2026-08-15T19:28:14.000Z</time></trkpt>
        <trkpt lat="28.13691" lon="105.766743"><ele>1712.7231</ele><time>2026-08-15T19:28:16.000Z</time></trkpt>
        <trkpt lat="28.136897" lon="105.766765"><ele>1712.0209</ele><time>2026-08-15T19:28:18.000Z</time></trkpt>
        <trkpt lat="28.136888" lon="105.766782"><ele>1711.806</ele><time>2026-08-15T19:28:20.000Z</time></trkpt>
        <trkpt lat="28.136879" lon="105.766801"><ele>1711.7871</ele><time>2026-08-15T19:28:22.000Z</time></trkpt>
        <trkpt lat="28.136871" lon="105.766819"><ele>1710.7843</ele><time>2026-08-15T19:28:24.000Z</time></trkpt>
        <trkpt lat="28.136864" lon="105.766838"><ele>1710.5804</ele><time>2026-08-15T19:28:26.000Z</time></trkpt>
        <trkpt lat="28.136858" lon="105.766852"><ele>1711.2543</ele><time>2026-08-15T19:28:28.000Z</time></trkpt>
        <trkpt lat="28.136852" lon="105.766863"><ele>1710.1425</ele><time>2026-08-15T19:28:30.000Z</time></trkpt>
        <trkpt lat="28.136845" lon="105.766875"><ele>1709.2015</ele><time>2026-08-15T19:28:32.000Z</time></trkpt>
        <trkpt lat="28.136837" lon="105.766886"><ele>1708.5253</ele><time>2026-08-15T19:28:34.000Z</time></trkpt>
        <trkpt lat="28.136826" lon="105.766898"><ele>1707.649</ele><time>2026-08-15T19:28:36.000Z</time></trkpt>
        <trkpt lat="28.136813" lon="105.766909"><ele>1707.4451</ele><time>2026-08-15T19:28:38.000Z</time></trkpt>
        <trkpt lat="28.136797" lon="105.766918"><ele>1707.2239</ele><time>2026-08-15T19:28:40.000Z</time></trkpt>
        <trkpt lat="28.13678" lon="105.766927"><ele>1706.903</ele><time>2026-08-15T19:28:42.000Z</time></trkpt>
        <trkpt lat="28.136764" lon="105.766938"><ele>1706.8036</ele><time>2026-08-15T19:28:44.000Z</time></trkpt>
        <trkpt lat="28.136748" lon="105.766947"><ele>1707.0558</ele><time>2026-08-15T19:28:46.000Z</time></trkpt>
        <trkpt lat="28.136729" lon="105.766955"><ele>1706.7142</ele><time>2026-08-15T19:28:48.000Z</time></trkpt>
        <trkpt lat="28.136709" lon="105.766959"><ele>1706.4928</ele><time>2026-08-15T19:28:50.000Z</time></trkpt>
        <trkpt lat="28.136686" lon="105.766962"><ele>1705.4639</ele><time>2026-08-15T19:28:52.000Z</time></trkpt>
        <trkpt lat="28.136664" lon="105.766964"><ele>1704.5677</ele><time>2026-08-15T19:28:54.000Z</time></trkpt>
        <trkpt lat="28.136642" lon="105.766968"><ele>1704.0907</ele><time>2026-08-15T19:28:56.000Z</time></trkpt>
        <trkpt lat="28.136629" lon="105.766977"><ele>1702.681</ele><time>2026-08-15T19:28:58.000Z</time></trkpt>
        <trkpt lat="28.136616" lon="105.766992"><ele>1702.6702</ele><time>2026-08-15T19:29:00.000Z</time></trkpt>
        <trkpt lat="28.136608" lon="105.767007"><ele>1701.4502</ele><time>2026-08-15T19:29:02.000Z</time></trkpt>
        <trkpt lat="28.1366" lon="105.767026"><ele>1701.1182</ele><time>2026-08-15T19:29:04.000Z</time></trkpt>
        <trkpt lat="28.136592" lon="105.767047"><ele>1700.0167</ele><time>2026-08-15T19:29:06.000Z</time></trkpt>
        <trkpt lat="28.136584" lon="105.767069"><ele>1699.7418</ele><time>2026-08-15T19:29:08.000Z</time></trkpt>
        <trkpt lat="28.136576" lon="105.767089"><ele>1700.278</ele><time>2026-08-15T19:29:10.000Z</time></trkpt>
        <trkpt lat="28.136568" lon="105.767108"><ele>1700.0365</ele><time>2026-08-15T19:29:12.000Z</time></trkpt>
        <trkpt lat="28.136557" lon="105.767129"><ele>1699.9672</ele><time>2026-08-15T19:29:14.000Z</time></trkpt>
        <trkpt lat="28.136545" lon="105.767143"><ele>1698.7821</ele><time>2026-08-15T19:29:16.000Z</time></trkpt>
        <trkpt lat="28.136532" lon="105.767155"><ele>1697.6807</ele><time>2026-08-15T19:29:18.000Z</time></trkpt>
        <trkpt lat="28.136519" lon="105.767164"><ele>1696.4668</ele><time>2026-08-15T19:29:20.000Z</time></trkpt>
        <trkpt lat="28.136505" lon="105.767173"><ele>1695.2406</ele><time>2026-08-15T19:29:22.000Z</time></trkpt>
        <trkpt lat="28.136489" lon="105.76718"><ele>1695.2678</ele><time>2026-08-15T19:29:24.000Z</time></trkpt>
        <trkpt lat="28.136471" lon="105.767188"><ele>1694.1912</ele><time>2026-08-15T19:29:26.000Z</time></trkpt>
        <trkpt lat="28.136455" lon="105.767194"><ele>1693.4022</ele><time>2026-08-15T19:29:28.000Z</time></trkpt>
        <trkpt lat="28.136441" lon="105.767202"><ele>1692.5345</ele><time>2026-08-15T19:29:30.000Z</time></trkpt>
        <trkpt lat="28.136425" lon="105.767214"><ele>1692.6539</ele><time>2026-08-15T19:29:32.000Z</time></trkpt>
        <trkpt lat="28.136411" lon="105.767228"><ele>1692.1014</ele><time>2026-08-15T19:29:34.000Z</time></trkpt>
        <trkpt lat="28.136393" lon="105.767247"><ele>1692.295</ele><time>2026-08-15T19:29:36.000Z</time></trkpt>
        <trkpt lat="28.136381" lon="105.767261"><ele>1690.6449</ele><time>2026-08-15T19:29:38.000Z</time></trkpt>
        <trkpt lat="28.13637" lon="105.767272"><ele>1690.5029</ele><time>2026-08-15T19:29:40.000Z</time></trkpt>
        <trkpt lat="28.136359" lon="105.767284"><ele>1689.5183</ele><time>2026-08-15T19:29:42.000Z</time></trkpt>
        <trkpt lat="28.136347" lon="105.767298"><ele>1688.2712</ele><time>2026-08-15T19:29:44.000Z</time></trkpt>
        <trkpt lat="28.136333" lon="105.767309"><ele>1687.2307</ele><time>2026-08-15T19:29:46.000Z</time></trkpt>
        <trkpt lat="28.136323" lon="105.767318"><ele>1687.0507</ele><time>2026-08-15T19:29:48.000Z</time></trkpt>
        <trkpt lat="28.136313" lon="105.767325"><ele>1686.3066</ele><time>2026-08-15T19:29:50.000Z</time></trkpt>
        <trkpt lat="28.136302" lon="105.767335"><ele>1686.2699</ele><time>2026-08-15T19:29:52.000Z</time></trkpt>
        <trkpt lat="28.136291" lon="105.767346"><ele>1685.6825</ele><time>2026-08-15T19:29:54.000Z</time></trkpt>
        <trkpt lat="28.136278" lon="105.76736"><ele>1685.6139</ele><time>2026-08-15T19:29:56.000Z</time></trkpt>
        <trkpt lat="28.136266" lon="105.767371"><ele>1684.8217</ele><time>2026-08-15T19:29:58.000Z</time></trkpt>
        <trkpt lat="28.136252" lon="105.767381"><ele>1684.8851</ele><time>2026-08-15T19:30:00.000Z</time></trkpt>
        <trkpt lat="28.136241" lon="105.767387"><ele>1683.3058</ele><time>2026-08-15T19:30:02.000Z</time></trkpt>
        <trkpt lat="28.13623" lon="105.767392"><ele>1682.4224</ele><time>2026-08-15T19:30:04.000Z</time></trkpt>
        <trkpt lat="28.136214" lon="105.767399"><ele>1682.021</ele><time>2026-08-15T19:30:06.000Z</time></trkpt>
        <trkpt lat="28.136197" lon="105.767409"><ele>1682.5571</ele><time>2026-08-15T19:30:08.000Z</time></trkpt>
        <trkpt lat="28.136181" lon="105.76742"><ele>1681.647</ele><time>2026-08-15T19:30:10.000Z</time></trkpt>
        <trkpt lat="28.13617" lon="105.767431"><ele>1681.3318</ele><time>2026-08-15T19:30:12.000Z</time></trkpt>
        <trkpt lat="28.136162" lon="105.767439"><ele>1680.9438</ele><time>2026-08-15T19:30:14.000Z</time></trkpt>
        <trkpt lat="28.136152" lon="105.76745"><ele>1680.9208</ele><time>2026-08-15T19:30:16.000Z</time></trkpt>
        <trkpt lat="28.13614" lon="105.767468"><ele>1680.5621</ele><time>2026-08-15T19:30:18.000Z</time></trkpt>
        <trkpt lat="28.136128" lon="105.767489"><ele>1680.1641</ele><time>2026-08-15T19:30:20.000Z</time></trkpt>
        <trkpt lat="28.136121" lon="105.76751"><ele>1680.4314</ele><time>2026-08-15T19:30:22.000Z</time></trkpt>
        <trkpt lat="28.136113" lon="105.767533"><ele>1679.835</ele><time>2026-08-15T19:30:24.000Z</time></trkpt>
        <trkpt lat="28.136103" lon="105.767553"><ele>1680.0198</ele><time>2026-08-15T19:30:26.000Z</time></trkpt>
        <trkpt lat="28.136089" lon="105.767574"><ele>1680.0807</ele><time>2026-08-15T19:30:28.000Z</time></trkpt>
        <trkpt lat="28.136071" lon="105.767594"><ele>1680.4884</ele><time>2026-08-15T19:30:30.000Z</time></trkpt>
        <trkpt lat="28.136056" lon="105.767611"><ele>1680.2229</ele><time>2026-08-15T19:30:32.000Z</time></trkpt>
        <trkpt lat="28.136037" lon="105.767634"><ele>1679.0508</ele><time>2026-08-15T19:30:34.000Z</time></trkpt>
        <trkpt lat="28.136024" lon="105.767652"><ele>1678.2786</ele><time>2026-08-15T19:30:36.000Z</time></trkpt>
        <trkpt lat="28.136011" lon="105.767667"><ele>1677.8817</ele><time>2026-08-15T19:30:38.000Z</time></trkpt>
        <trkpt lat="28.135998" lon="105.767679"><ele>1676.6356</ele><time>2026-08-15T19:30:40.000Z</time></trkpt>
        <trkpt lat="28.135984" lon="105.767692"><ele>1676.8922</ele><time>2026-08-15T19:30:42.000Z</time></trkpt>
        <trkpt lat="28.135969" lon="105.767706"><ele>1674.7269</ele><time>2026-08-15T19:30:44.000Z</time></trkpt>
        <trkpt lat="28.135953" lon="105.767721"><ele>1674.6626</ele><time>2026-08-15T19:30:46.000Z</time></trkpt>
        <trkpt lat="28.135938" lon="105.767736"><ele>1673.3457</ele><time>2026-08-15T19:30:48.000Z</time></trkpt>
        <trkpt lat="28.135928" lon="105.767749"><ele>1673.1597</ele><time>2026-08-15T19:30:50.000Z</time></trkpt>
        <trkpt lat="28.135917" lon="105.767762"><ele>1672.2186</ele><time>2026-08-15T19:30:52.000Z</time></trkpt>
        <trkpt lat="28.135909" lon="105.767774"><ele>1672.1077</ele><time>2026-08-15T19:30:54.000Z</time></trkpt>
        <trkpt lat="28.135902" lon="105.767791"><ele>1671.7104</ele><time>2026-08-15T19:30:56.000Z</time></trkpt>
        <trkpt lat="28.135896" lon="105.767809"><ele>1671.7026</ele><time>2026-08-15T19:30:58.000Z</time></trkpt>
        <trkpt lat="28.13589" lon="105.767826"><ele>1670.9309</ele><time>2026-08-15T19:31:00.000Z</time></trkpt>
        <trkpt lat="28.135882" lon="105.767844"><ele>1670.9169</ele><time>2026-08-15T19:31:02.000Z</time></trkpt>
        <trkpt lat="28.135871" lon="105.767867"><ele>1671.5558</ele><time>2026-08-15T19:31:04.000Z</time></trkpt>
        <trkpt lat="28.135859" lon="105.767887"><ele>1671.0372</ele><time>2026-08-15T19:31:06.000Z</time></trkpt>
        <trkpt lat="28.135846" lon="105.76791"><ele>1671.0535</ele><time>2026-08-15T19:31:08.000Z</time></trkpt>
        <trkpt lat="28.135834" lon="105.767932"><ele>1670.2828</ele><time>2026-08-15T19:31:10.000Z</time></trkpt>
        <trkpt lat="28.135821" lon="105.767958"><ele>1669.1927</ele><time>2026-08-15T19:31:12.000Z</time></trkpt>
        <trkpt lat="28.135807" lon="105.767985"><ele>1668.9224</ele><time>2026-08-15T19:31:14.000Z</time></trkpt>
        <trkpt lat="28.135796" lon="105.768009"><ele>1668.695</ele><time>2026-08-15T19:31:16.000Z</time></trkpt>
        <trkpt lat="28.135787" lon="105.76803"><ele>1667.9036</ele><time>2026-08-15T19:31:18.000Z</time></trkpt>
        <trkpt lat="28.135779" lon="105.76805"><ele>1667.0972</ele><time>2026-08-15T19:31:20.000Z</time></trkpt>
        <trkpt lat="28.135773" lon="105.768068"><ele>1666.6737</ele><time>2026-08-15T19:31:22.000Z</time></trkpt>
        <trkpt lat="28.135765" lon="105.768089"><ele>1667.0261</ele><time>2026-08-15T19:31:24.000Z</time></trkpt>
        <trkpt lat="28.135755" lon="105.76811"><ele>1666.0349</ele><time>2026-08-15T19:31:26.000Z</time></trkpt>
        <trkpt lat="28.135743" lon="105.768131"><ele>1665.844</ele><time>2026-08-15T19:31:28.000Z</time></trkpt>
        <trkpt lat="28.135734" lon="105.768144"><ele>1665.1381</ele><time>2026-08-15T19:31:30.000Z</time></trkpt>
        <trkpt lat="28.135726" lon="105.768157"><ele>1664.8801</ele><time>2026-08-15T19:31:32.000Z</time></trkpt>
        <trkpt lat="28.135718" lon="105.768175"><ele>1664.2336</ele><time>2026-08-15T19:31:34.000Z</time></trkpt>
        <trkpt lat="28.135709" lon="105.768197"><ele>1663.9486</ele><time>2026-08-15T19:31:36.000Z</time></trkpt>
        <trkpt lat="28.135698" lon="105.76822"><ele>1664.2817</ele><time>2026-08-15T19:31:38.000Z</time></trkpt>
        <trkpt lat="28.135683" lon="105.76824"><ele>1664.5782</ele><time>2026-08-15T19:31:40.000Z</time></trkpt>
        <trkpt lat="28.135664" lon="105.768263"><ele>1665.2997</ele><time>2026-08-15T19:31:42.000Z</time></trkpt>
        <trkpt lat="28.135643" lon="105.768286"><ele>1665.6919</ele><time>2026-08-15T19:31:44.000Z</time></trkpt>
        <trkpt lat="28.135626" lon="105.768305"><ele>1665.263</ele><time>2026-08-15T19:31:46.000Z</time></trkpt>
        <trkpt lat="28.13561" lon="105.768328"><ele>1664.7832</ele><time>2026-08-15T19:31:48.000Z</time></trkpt>
        <trkpt lat="28.135598" lon="105.76835"><ele>1664.8486</ele><time>2026-08-15T19:31:50.000Z</time></trkpt>
        <trkpt lat="28.135586" lon="105.768369"><ele>1664.3967</ele><time>2026-08-15T19:31:52.000Z</time></trkpt>
        <trkpt lat="28.135575" lon="105.768387"><ele>1662.7589</ele><time>2026-08-15T19:31:54.000Z</time></trkpt>
        <trkpt lat="28.135562" lon="105.768406"><ele>1661.1511</ele><time>2026-08-15T19:31:56.000Z</time></trkpt>
        <trkpt lat="28.13555" lon="105.768425"><ele>1660.7014</ele><time>2026-08-15T19:31:58.000Z</time></trkpt>
        <trkpt lat="28.135539" lon="105.768445"><ele>1660.0712</ele><time>2026-08-15T19:32:00.000Z</time></trkpt>
        <trkpt lat="28.135527" lon="105.768464"><ele>1659.9843</ele><time>2026-08-15T19:32:02.000Z</time></trkpt>
        <trkpt lat="28.135512" lon="105.768487"><ele>1659.2263</ele><time>2026-08-15T19:32:04.000Z</time></trkpt>
        <trkpt lat="28.135497" lon="105.768513"><ele>1658.5499</ele><time>2026-08-15T19:32:06.000Z</time></trkpt>
        <trkpt lat="28.135482" lon="105.76854"><ele>1658.1415</ele><time>2026-08-15T19:32:08.000Z</time></trkpt>
        <trkpt lat="28.135467" lon="105.768568"><ele>1658.205</ele><time>2026-08-15T19:32:10.000Z</time></trkpt>
        <trkpt lat="28.135452" lon="105.768595"><ele>1658.5319</ele><time>2026-08-15T19:32:12.000Z</time></trkpt>
        <trkpt lat="28.135434" lon="105.768623"><ele>1658.2877</ele><time>2026-08-15T19:32:14.000Z</time></trkpt>
        <trkpt lat="28.135417" lon="105.76865"><ele>1657.823</ele><time>2026-08-15T19:32:16.000Z</time></trkpt>
        <trkpt lat="28.135398" lon="105.768676"><ele>1657.3235</ele><time>2026-08-15T19:32:18.000Z</time></trkpt>
        <trkpt lat="28.13538" lon="105.768701"><ele>1656.8315</ele><time>2026-08-15T19:32:20.000Z</time></trkpt>
        <trkpt lat="28.135368" lon="105.76872"><ele>1656.3569</ele><time>2026-08-15T19:32:22.000Z</time></trkpt>
        <trkpt lat="28.135354" lon="105.768741"><ele>1655.9752</ele><time>2026-08-15T19:32:24.000Z</time></trkpt>
        <trkpt lat="28.13534" lon="105.768763"><ele>1655.2336</ele><time>2026-08-15T19:32:26.000Z</time></trkpt>
        <trkpt lat="28.135328" lon="105.768787"><ele>1654.414</ele><time>2026-08-15T19:32:28.000Z</time></trkpt>
        <trkpt lat="28.135316" lon="105.768813"><ele>1654.7955</ele><time>2026-08-15T19:32:30.000Z</time></trkpt>
        <trkpt lat="28.135302" lon="105.768842"><ele>1654.1605</ele><time>2026-08-15T19:32:32.000Z</time></trkpt>
        <trkpt lat="28.13529" lon="105.76887"><ele>1653.4984</ele><time>2026-08-15T19:32:34.000Z</time></trkpt>
        <trkpt lat="28.13528" lon="105.768894"><ele>1653.3788</ele><time>2026-08-15T19:32:36.000Z</time></trkpt>
        <trkpt lat="28.135271" lon="105.768914"><ele>1652.8412</ele><time>2026-08-15T19:32:38.000Z</time></trkpt>
        <trkpt lat="28.135257" lon="105.76894"><ele>1653.1156</ele><time>2026-08-15T19:32:40.000Z</time></trkpt>
        <trkpt lat="28.135241" lon="105.768962"><ele>1652.4008</ele><time>2026-08-15T19:32:42.000Z</time></trkpt>
        <trkpt lat="28.135223" lon="105.768985"><ele>1652.1644</ele><time>2026-08-15T19:32:44.000Z</time></trkpt>
        <trkpt lat="28.135205" lon="105.769007"><ele>1651.6534</ele><time>2026-08-15T19:32:46.000Z</time></trkpt>
        <trkpt lat="28.135186" lon="105.769027"><ele>1651.3843</ele><time>2026-08-15T19:32:48.000Z</time></trkpt>
        <trkpt lat="28.135167" lon="105.769048"><ele>1651.2894</ele><time>2026-08-15T19:32:50.000Z</time></trkpt>
        <trkpt lat="28.135153" lon="105.769061"><ele>1650.9723</ele><time>2026-08-15T19:32:52.000Z</time></trkpt>
        <trkpt lat="28.135141" lon="105.769075"><ele>1649.6747</ele><time>2026-08-15T19:32:54.000Z</time></trkpt>
        <trkpt lat="28.135127" lon="105.769092"><ele>1648.8058</ele><time>2026-08-15T19:32:56.000Z</time></trkpt>
        <trkpt lat="28.135111" lon="105.769107"><ele>1647.4382</ele><time>2026-08-15T19:32:58.000Z</time></trkpt>
        <trkpt lat="28.135092" lon="105.769125"><ele>1648.4619</ele><time>2026-08-15T19:33:00.000Z</time></trkpt>
        <trkpt lat="28.135077" lon="105.769141"><ele>1647.5748</ele><time>2026-08-15T19:33:02.000Z</time></trkpt>
        <trkpt lat="28.135063" lon="105.769156"><ele>1647.3677</ele><time>2026-08-15T19:33:04.000Z</time></trkpt>
        <trkpt lat="28.135048" lon="105.769172"><ele>1646.7894</ele><time>2026-08-15T19:33:06.000Z</time></trkpt>
        <trkpt lat="28.135031" lon="105.76919"><ele>1646.4103</ele><time>2026-08-15T19:33:08.000Z</time></trkpt>
        <trkpt lat="28.135014" lon="105.769206"><ele>1646.6113</ele><time>2026-08-15T19:33:10.000Z</time></trkpt>
        <trkpt lat="28.134996" lon="105.769222"><ele>1647.5504</ele><time>2026-08-15T19:33:12.000Z</time></trkpt>
        <trkpt lat="28.134982" lon="105.769236"><ele>1647.6829</ele><time>2026-08-15T19:33:14.000Z</time></trkpt>
        <trkpt lat="28.134967" lon="105.769251"><ele>1647.8958</ele><time>2026-08-15T19:33:16.000Z</time></trkpt>
        <trkpt lat="28.134951" lon="105.769267"><ele>1647.4547</ele><time>2026-08-15T19:33:18.000Z</time></trkpt>
        <trkpt lat="28.134936" lon="105.769282"><ele>1646.5178</ele><time>2026-08-15T19:33:20.000Z</time></trkpt>
        <trkpt lat="28.134922" lon="105.769296"><ele>1646.7452</ele><time>2026-08-15T19:33:22.000Z</time></trkpt>
        <trkpt lat="28.134904" lon="105.769312"><ele>1646.1853</ele><time>2026-08-15T19:33:24.000Z</time></trkpt>
        <trkpt lat="28.134884" lon="105.769333"><ele>1646.1094</ele><time>2026-08-15T19:33:26.000Z</time></trkpt>
        <trkpt lat="28.134866" lon="105.769354"><ele>1645.4531</ele><time>2026-08-15T19:33:28.000Z</time></trkpt>
        <trkpt lat="28.134849" lon="105.769374"><ele>1645.2587</ele><time>2026-08-15T19:33:30.000Z</time></trkpt>
        <trkpt lat="28.134834" lon="105.769392"><ele>1644.2356</ele><time>2026-08-15T19:33:32.000Z</time></trkpt>
        <trkpt lat="28.134813" lon="105.769417"><ele>1643.8899</ele><time>2026-08-15T19:33:34.000Z</time></trkpt>
        <trkpt lat="28.134796" lon="105.769436"><ele>1643.216</ele><time>2026-08-15T19:33:36.000Z</time></trkpt>
        <trkpt lat="28.134779" lon="105.769453"><ele>1642.2157</ele><time>2026-08-15T19:33:38.000Z</time></trkpt>
        <trkpt lat="28.13476" lon="105.769472"><ele>1641.3337</ele><time>2026-08-15T19:33:40.000Z</time></trkpt>
        <trkpt lat="28.134745" lon="105.769486"><ele>1640.7913</ele><time>2026-08-15T19:33:42.000Z</time></trkpt>
        <trkpt lat="28.134731" lon="105.769501"><ele>1640.311</ele><time>2026-08-15T19:33:44.000Z</time></trkpt>
        <trkpt lat="28.134716" lon="105.769516"><ele>1639.447</ele><time>2026-08-15T19:33:46.000Z</time></trkpt>
        <trkpt lat="28.134704" lon="105.769531"><ele>1638.8146</ele><time>2026-08-15T19:33:48.000Z</time></trkpt>
        <trkpt lat="28.134695" lon="105.769546"><ele>1638.2148</ele><time>2026-08-15T19:33:50.000Z</time></trkpt>
        <trkpt lat="28.134686" lon="105.769564"><ele>1637.2762</ele><time>2026-08-15T19:33:52.000Z</time></trkpt>
        <trkpt lat="28.134676" lon="105.769586"><ele>1636.201</ele><time>2026-08-15T19:33:54.000Z</time></trkpt>
        <trkpt lat="28.134666" lon="105.769607"><ele>1635.9991</ele><time>2026-08-15T19:33:56.000Z</time></trkpt>
        <trkpt lat="28.134657" lon="105.769627"><ele>1636.0315</ele><time>2026-08-15T19:33:58.000Z</time></trkpt>
        <trkpt lat="28.134648" lon="105.769646"><ele>1635.5967</ele><time>2026-08-15T19:34:00.000Z</time></trkpt>
        <trkpt lat="28.134638" lon="105.769663"><ele>1635.5077</ele><time>2026-08-15T19:34:02.000Z</time></trkpt>
        <trkpt lat="28.134628" lon="105.769677"><ele>1635.6758</ele><time>2026-08-15T19:34:04.000Z</time></trkpt>
        <trkpt lat="28.134621" lon="105.76969"><ele>1635.3118</ele><time>2026-08-15T19:34:06.000Z</time></trkpt>
        <trkpt lat="28.134612" lon="105.769708"><ele>1634.4861</ele><time>2026-08-15T19:34:08.000Z</time></trkpt>
        <trkpt lat="28.134603" lon="105.769722"><ele>1634.5391</ele><time>2026-08-15T19:34:10.000Z</time></trkpt>
        <trkpt lat="28.134594" lon="105.769738"><ele>1634.9591</ele><time>2026-08-15T19:34:12.000Z</time></trkpt>
        <trkpt lat="28.134586" lon="105.769753"><ele>1634.1819</ele><time>2026-08-15T19:34:14.000Z</time></trkpt>
        <trkpt lat="28.134577" lon="105.76977"><ele>1634.668</ele><time>2026-08-15T19:34:16.000Z</time></trkpt>
        <trkpt lat="28.134566" lon="105.769791"><ele>1633.6625</ele><time>2026-08-15T19:34:18.000Z</time></trkpt>
        <trkpt lat="28.13455" lon="105.769815"><ele>1633.757</ele><time>2026-08-15T19:34:20.000Z</time></trkpt>
        <trkpt lat="28.134532" lon="105.769837"><ele>1634.3925</ele><time>2026-08-15T19:34:22.000Z</time></trkpt>
        <trkpt lat="28.134514" lon="105.769855"><ele>1633.4727</ele><time>2026-08-15T19:34:24.000Z</time></trkpt>
        <trkpt lat="28.134498" lon="105.769869"><ele>1632.8547</ele><time>2026-08-15T19:34:26.000Z</time></trkpt>
        <trkpt lat="28.134481" lon="105.769887"><ele>1632.8973</ele><time>2026-08-15T19:34:28.000Z</time></trkpt>
        <trkpt lat="28.134464" lon="105.769908"><ele>1632.6638</ele><time>2026-08-15T19:34:30.000Z</time></trkpt>
        <trkpt lat="28.134445" lon="105.76993"><ele>1631.9834</ele><time>2026-08-15T19:34:32.000Z</time></trkpt>
        <trkpt lat="28.134432" lon="105.769944"><ele>1631.9429</ele><time>2026-08-15T19:34:34.000Z</time></trkpt>
        <trkpt lat="28.134418" lon="105.769957"><ele>1631.8242</ele><time>2026-08-15T19:34:36.000Z</time></trkpt>
        <trkpt lat="28.134408" lon="105.769966"><ele>1631.1499</ele><time>2026-08-15T19:34:38.000Z</time></trkpt>
        <trkpt lat="28.134396" lon="105.769975"><ele>1630.3057</ele><time>2026-08-15T19:34:40.000Z</time></trkpt>
        <trkpt lat="28.13438" lon="105.769988"><ele>1629.5306</ele><time>2026-08-15T19:34:42.000Z</time></trkpt>
        <trkpt lat="28.134364" lon="105.770004"><ele>1628.3693</ele><time>2026-08-15T19:34:44.000Z</time></trkpt>
        <trkpt lat="28.134349" lon="105.770018"><ele>1627.9067</ele><time>2026-08-15T19:34:46.000Z</time></trkpt>
        <trkpt lat="28.134336" lon="105.770031"><ele>1627.5372</ele><time>2026-08-15T19:34:48.000Z</time></trkpt>
        <trkpt lat="28.134323" lon="105.770046"><ele>1627.0781</ele><time>2026-08-15T19:34:50.000Z</time></trkpt>
        <trkpt lat="28.134309" lon="105.770058"><ele>1627.0883</ele><time>2026-08-15T19:34:52.000Z</time></trkpt>
        <trkpt lat="28.134297" lon="105.770071"><ele>1627.9492</ele><time>2026-08-15T19:34:54.000Z</time></trkpt>
        <trkpt lat="28.13428" lon="105.77009"><ele>1628.2739</ele><time>2026-08-15T19:34:56.000Z</time></trkpt>
        <trkpt lat="28.134261" lon="105.770109"><ele>1627.8468</ele><time>2026-08-15T19:34:58.000Z</time></trkpt>
        <trkpt lat="28.134249" lon="105.770121"><ele>1626.6847</ele><time>2026-08-15T19:35:00.000Z</time></trkpt>
        <trkpt lat="28.134237" lon="105.770133"><ele>1625.7635</ele><time>2026-08-15T19:35:02.000Z</time></trkpt>
        <trkpt lat="28.134221" lon="105.770149"><ele>1625.8827</ele><time>2026-08-15T19:35:04.000Z</time></trkpt>
        <trkpt lat="28.134203" lon="105.77017"><ele>1625.6073</ele><time>2026-08-15T19:35:06.000Z</time></trkpt>
        <trkpt lat="28.134185" lon="105.77019"><ele>1624.3047</ele><time>2026-08-15T19:35:08.000Z</time></trkpt>
        <trkpt lat="28.134169" lon="105.770207"><ele>1624.2352</ele><time>2026-08-15T19:35:10.000Z</time></trkpt>
        <trkpt lat="28.134154" lon="105.770225"><ele>1623.6493</ele><time>2026-08-15T19:35:12.000Z</time></trkpt>
        <trkpt lat="28.134139" lon="105.770242"><ele>1624.741</ele><time>2026-08-15T19:35:14.000Z</time></trkpt>
        <trkpt lat="28.134124" lon="105.77026"><ele>1623.6719</ele><time>2026-08-15T19:35:16.000Z</time></trkpt>
        <trkpt lat="28.134107" lon="105.770282"><ele>1622.916</ele><time>2026-08-15T19:35:18.000Z</time></trkpt>
        <trkpt lat="28.134092" lon="105.770304"><ele>1623.3231</ele><time>2026-08-15T19:35:20.000Z</time></trkpt>
        <trkpt lat="28.134077" lon="105.770329"><ele>1623.6705</ele><time>2026-08-15T19:35:22.000Z</time></trkpt>
        <trkpt lat="28.134061" lon="105.770353"><ele>1624.087</ele><time>2026-08-15T19:35:24.000Z</time></trkpt>
        <trkpt lat="28.134047" lon="105.770373"><ele>1624.0796</ele><time>2026-08-15T19:35:26.000Z</time></trkpt>
        <trkpt lat="28.134034" lon="105.770394"><ele>1624.0544</ele><time>2026-08-15T19:35:28.000Z</time></trkpt>
        <trkpt lat="28.134025" lon="105.770411"><ele>1623.8726</ele><time>2026-08-15T19:35:30.000Z</time></trkpt>
        <trkpt lat="28.13402" lon="105.770425"><ele>1623.1559</ele><time>2026-08-15T19:35:32.000Z</time></trkpt>
        <trkpt lat="28.134017" lon="105.77044"><ele>1622.9647</ele><time>2026-08-15T19:35:34.000Z</time></trkpt>
        <trkpt lat="28.134014" lon="105.770458"><ele>1623.087</ele><time>2026-08-15T19:35:36.000Z</time></trkpt>
        <trkpt lat="28.134008" lon="105.770483"><ele>1621.791</ele><time>2026-08-15T19:35:38.000Z</time></trkpt>
        <trkpt lat="28.134002" lon="105.770505"><ele>1621.3303</ele><time>2026-08-15T19:35:40.000Z</time></trkpt>
        <trkpt lat="28.133995" lon="105.770527"><ele>1621.7766</ele><time>2026-08-15T19:35:42.000Z</time></trkpt>
        <trkpt lat="28.133989" lon="105.770546"><ele>1622.0414</ele><time>2026-08-15T19:35:44.000Z</time></trkpt>
        <trkpt lat="28.133983" lon="105.770563"><ele>1622.2545</ele><time>2026-08-15T19:35:46.000Z</time></trkpt>
        <trkpt lat="28.133974" lon="105.770585"><ele>1621.992</ele><time>2026-08-15T19:35:48.000Z</time></trkpt>
        <trkpt lat="28.133967" lon="105.770607"><ele>1622.1545</ele><time>2026-08-15T19:35:50.000Z</time></trkpt>
        <trkpt lat="28.133959" lon="105.770629"><ele>1621.6357</ele><time>2026-08-15T19:35:52.000Z</time></trkpt>
        <trkpt lat="28.13395" lon="105.770652"><ele>1619.4463</ele><time>2026-08-15T19:35:54.000Z</time></trkpt>
        <trkpt lat="28.133942" lon="105.770671"><ele>1619.39</ele><time>2026-08-15T19:35:56.000Z</time></trkpt>
        <trkpt lat="28.133935" lon="105.770689"><ele>1618.8649</ele><time>2026-08-15T19:35:58.000Z</time></trkpt>
        <trkpt lat="28.133928" lon="105.770706"><ele>1618.3225</ele><time>2026-08-15T19:36:00.000Z</time></trkpt>
        <trkpt lat="28.133921" lon="105.770724"><ele>1617.9807</ele><time>2026-08-15T19:36:02.000Z</time></trkpt>
        <trkpt lat="28.133914" lon="105.77074"><ele>1617.9601</ele><time>2026-08-15T19:36:04.000Z</time></trkpt>
        <trkpt lat="28.133907" lon="105.770759"><ele>1617.5942</ele><time>2026-08-15T19:36:06.000Z</time></trkpt>
        <trkpt lat="28.133899" lon="105.770778"><ele>1618.3654</ele><time>2026-08-15T19:36:08.000Z</time></trkpt>
        <trkpt lat="28.133889" lon="105.770797"><ele>1618.0563</ele><time>2026-08-15T19:36:10.000Z</time></trkpt>
        <trkpt lat="28.133877" lon="105.770818"><ele>1617.6841</ele><time>2026-08-15T19:36:12.000Z</time></trkpt>
        <trkpt lat="28.133865" lon="105.770837"><ele>1616.1714</ele><time>2026-08-15T19:36:14.000Z</time></trkpt>
        <trkpt lat="28.133852" lon="105.770854"><ele>1615.2068</ele><time>2026-08-15T19:36:16.000Z</time></trkpt>
        <trkpt lat="28.133842" lon="105.770867"><ele>1614.7097</ele><time>2026-08-15T19:36:18.000Z</time></trkpt>
        <trkpt lat="28.133832" lon="105.77088"><ele>1614.7687</ele><time>2026-08-15T19:36:20.000Z</time></trkpt>
        <trkpt lat="28.133819" lon="105.770896"><ele>1614.3274</ele><time>2026-08-15T19:36:22.000Z</time></trkpt>
        <trkpt lat="28.133812" lon="105.770907"><ele>1613.6768</ele><time>2026-08-15T19:36:24.000Z</time></trkpt>
        <trkpt lat="28.133803" lon="105.77092"><ele>1613.1566</ele><time>2026-08-15T19:36:26.000Z</time></trkpt>
        <trkpt lat="28.133798" lon="105.770936"><ele>1612.3553</ele><time>2026-08-15T19:36:28.000Z</time></trkpt>
        <trkpt lat="28.133797" lon="105.770943"><ele>1612.3667</ele><time>2026-08-15T19:36:30.000Z</time></trkpt>
        <trkpt lat="28.133795" lon="105.770955"><ele>1613.1108</ele><time>2026-08-15T19:36:32.000Z</time></trkpt>
        <trkpt lat="28.133793" lon="105.77097"><ele>1613.3035</ele><time>2026-08-15T19:36:34.000Z</time></trkpt>
        <trkpt lat="28.133787" lon="105.770985"><ele>1613.3319</ele><time>2026-08-15T19:36:36.000Z</time></trkpt>
        <trkpt lat="28.133777" lon="105.771002"><ele>1612.4044</ele><time>2026-08-15T19:36:38.000Z</time></trkpt>
        <trkpt lat="28.133768" lon="105.771021"><ele>1611.1666</ele><time>2026-08-15T19:36:40.000Z</time></trkpt>
        <trkpt lat="28.133755" lon="105.771049"><ele>1611.7699</ele><time>2026-08-15T19:36:42.000Z</time></trkpt>
        <trkpt lat="28.133746" lon="105.771068"><ele>1611.6344</ele><time>2026-08-15T19:36:44.000Z</time></trkpt>
        <trkpt lat="28.133739" lon="105.771078"><ele>1611.0632</ele><time>2026-08-15T19:36:46.000Z</time></trkpt>
        <trkpt lat="28.133737" lon="105.771087"><ele>1611.0851</ele><time>2026-08-15T19:36:48.000Z</time></trkpt>
        <trkpt lat="28.133735" lon="105.771109"><ele>1610.2224</ele><time>2026-08-15T19:36:52.000Z</time></trkpt>
        <trkpt lat="28.133735" lon="105.771121"><ele>1609.2802</ele><time>2026-08-15T19:36:54.000Z</time></trkpt>
        <trkpt lat="28.133734" lon="105.771131"><ele>1609.8262</ele><time>2026-08-15T19:36:56.000Z</time></trkpt>
        <trkpt lat="28.13373" lon="105.771145"><ele>1609.2086</ele><time>2026-08-15T19:36:58.000Z</time></trkpt>
        <trkpt lat="28.133723" lon="105.771159"><ele>1608.8218</ele><time>2026-08-15T19:37:00.000Z</time></trkpt>
        <trkpt lat="28.133713" lon="105.771167"><ele>1608.6589</ele><time>2026-08-15T19:37:02.000Z</time></trkpt>
        <trkpt lat="28.133702" lon="105.771171"><ele>1608.9062</ele><time>2026-08-15T19:37:04.000Z</time></trkpt>
        <trkpt lat="28.133692" lon="105.771175"><ele>1608.5939</ele><time>2026-08-15T19:37:06.000Z</time></trkpt>
        <trkpt lat="28.133687" lon="105.77118"><ele>1610.019</ele><time>2026-08-15T19:37:08.000Z</time></trkpt>
        <trkpt lat="28.13368" lon="105.771194"><ele>1610.0687</ele><time>2026-08-15T19:37:10.000Z</time></trkpt>
        <trkpt lat="28.133675" lon="105.771214"><ele>1610.0547</ele><time>2026-08-15T19:37:12.000Z</time></trkpt>
        <trkpt lat="28.133671" lon="105.771234"><ele>1609.4257</ele><time>2026-08-15T19:37:14.000Z</time></trkpt>
        <trkpt lat="28.133665" lon="105.771257"><ele>1610.0477</ele><time>2026-08-15T19:37:16.000Z</time></trkpt>
        <trkpt lat="28.133659" lon="105.771277"><ele>1609.6769</ele><time>2026-08-15T19:37:18.000Z</time></trkpt>
        <trkpt lat="28.133654" lon="105.771295"><ele>1608.9749</ele><time>2026-08-15T19:37:20.000Z</time></trkpt>
        <trkpt lat="28.133649" lon="105.771317"><ele>1608.135</ele><time>2026-08-15T19:37:22.000Z</time></trkpt>
        <trkpt lat="28.133646" lon="105.771338"><ele>1607.2546</ele><time>2026-08-15T19:37:24.000Z</time></trkpt>
        <trkpt lat="28.133642" lon="105.77136"><ele>1606.4169</ele><time>2026-08-15T19:37:26.000Z</time></trkpt>
        <trkpt lat="28.133639" lon="105.771382"><ele>1606.2208</ele><time>2026-08-15T19:37:28.000Z</time></trkpt>
        <trkpt lat="28.133638" lon="105.771406"><ele>1606.308</ele><time>2026-08-15T19:37:30.000Z</time></trkpt>
        <trkpt lat="28.133638" lon="105.77143"><ele>1606.8204</ele><time>2026-08-15T19:37:32.000Z</time></trkpt>
        <trkpt lat="28.133637" lon="105.771453"><ele>1605.1625</ele><time>2026-08-15T19:37:34.000Z</time></trkpt>
        <trkpt lat="28.133635" lon="105.771476"><ele>1605.0968</ele><time>2026-08-15T19:37:36.000Z</time></trkpt>
        <trkpt lat="28.133629" lon="105.771503"><ele>1605.6019</ele><time>2026-08-15T19:37:38.000Z</time></trkpt>
        <trkpt lat="28.13362" lon="105.771529"><ele>1605.1578</ele><time>2026-08-15T19:37:40.000Z</time></trkpt>
        <trkpt lat="28.133608" lon="105.771552"><ele>1604.9169</ele><time>2026-08-15T19:37:42.000Z</time></trkpt>
        <trkpt lat="28.133594" lon="105.77157"><ele>1604.9797</ele><time>2026-08-15T19:37:44.000Z</time></trkpt>
        <trkpt lat="28.133579" lon="105.771583"><ele>1604.7913</ele><time>2026-08-15T19:37:46.000Z</time></trkpt>
        <trkpt lat="28.133562" lon="105.771596"><ele>1604.7852</ele><time>2026-08-15T19:37:48.000Z</time></trkpt>
        <trkpt lat="28.133547" lon="105.771608"><ele>1602.8507</ele><time>2026-08-15T19:37:50.000Z</time></trkpt>
        <trkpt lat="28.133532" lon="105.77162"><ele>1601.7114</ele><time>2026-08-15T19:37:52.000Z</time></trkpt>
        <trkpt lat="28.13352" lon="105.77163"><ele>1602.5471</ele><time>2026-08-15T19:37:54.000Z</time></trkpt>
        <trkpt lat="28.133508" lon="105.77164"><ele>1602.5378</ele><time>2026-08-15T19:37:56.000Z</time></trkpt>
        <trkpt lat="28.133498" lon="105.771649"><ele>1601.9401</ele><time>2026-08-15T19:37:58.000Z</time></trkpt>
        <trkpt lat="28.133487" lon="105.77166"><ele>1601.3927</ele><time>2026-08-15T19:38:00.000Z</time></trkpt>
        <trkpt lat="28.133474" lon="105.771672"><ele>1599.9803</ele><time>2026-08-15T19:38:02.000Z</time></trkpt>
        <trkpt lat="28.133458" lon="105.771685"><ele>1599.6752</ele><time>2026-08-15T19:38:04.000Z</time></trkpt>
        <trkpt lat="28.13344" lon="105.771696"><ele>1599.8981</ele><time>2026-08-15T19:38:06.000Z</time></trkpt>
        <trkpt lat="28.133425" lon="105.771706"><ele>1599.5726</ele><time>2026-08-15T19:38:08.000Z</time></trkpt>
        <trkpt lat="28.13341" lon="105.771716"><ele>1600.099</ele><time>2026-08-15T19:38:10.000Z</time></trkpt>
        <trkpt lat="28.133392" lon="105.771727"><ele>1599.9949</ele><time>2026-08-15T19:38:12.000Z</time></trkpt>
        <trkpt lat="28.133379" lon="105.771738"><ele>1599.5569</ele><time>2026-08-15T19:38:14.000Z</time></trkpt>
        <trkpt lat="28.133369" lon="105.771747"><ele>1597.9808</ele><time>2026-08-15T19:38:16.000Z</time></trkpt>
        <trkpt lat="28.133355" lon="105.771757"><ele>1596.955</ele><time>2026-08-15T19:38:18.000Z</time></trkpt>
        <trkpt lat="28.13334" lon="105.771768"><ele>1596.5077</ele><time>2026-08-15T19:38:20.000Z</time></trkpt>
        <trkpt lat="28.133322" lon="105.771777"><ele>1595.7695</ele><time>2026-08-15T19:38:22.000Z</time></trkpt>
        <trkpt lat="28.133304" lon="105.771785"><ele>1596.5917</ele><time>2026-08-15T19:38:24.000Z</time></trkpt>
        <trkpt lat="28.133287" lon="105.771793"><ele>1596.6931</ele><time>2026-08-15T19:38:26.000Z</time></trkpt>
        <trkpt lat="28.133269" lon="105.771801"><ele>1597.1473</ele><time>2026-08-15T19:38:28.000Z</time></trkpt>
        <trkpt lat="28.133253" lon="105.771808"><ele>1597.4751</ele><time>2026-08-15T19:38:30.000Z</time></trkpt>
        <trkpt lat="28.133245" lon="105.771813"><ele>1597.5859</ele><time>2026-08-15T19:38:32.000Z</time></trkpt>
        <trkpt lat="28.133243" lon="105.771817"><ele>1598.3112</ele><time>2026-08-15T19:38:34.000Z</time></trkpt>
        <trkpt lat="28.133232" lon="105.771842"><ele>1597.8895</ele><time>2026-08-15T19:38:44.000Z</time></trkpt>
        <trkpt lat="28.133222" lon="105.771862"><ele>1598.0382</ele><time>2026-08-15T19:38:46.000Z</time></trkpt>
        <trkpt lat="28.133221" lon="105.771863"><ele>1597.704</ele><time>2026-08-15T19:38:48.000Z</time></trkpt>
        <trkpt lat="28.133215" lon="105.771879"><ele>1597.2427</ele><time>2026-08-15T19:38:52.000Z</time></trkpt>
        <trkpt lat="28.133206" lon="105.771894"><ele>1597.3799</ele><time>2026-08-15T19:38:56.000Z</time></trkpt>
        <trkpt lat="28.133202" lon="105.7719"><ele>1596.4113</ele><time>2026-08-15T19:38:58.000Z</time></trkpt>
        <trkpt lat="28.133189" lon="105.771915"><ele>1595.7601</ele><time>2026-08-15T19:39:00.000Z</time></trkpt>
        <trkpt lat="28.133182" lon="105.771923"><ele>1594.3988</ele><time>2026-08-15T19:39:10.000Z</time></trkpt>
        <trkpt lat="28.133182" lon="105.771926"><ele>1594.6598</ele><time>2026-08-15T19:39:12.000Z</time></trkpt>
        <trkpt lat="28.133184" lon="105.771949"><ele>1592.5413</ele><time>2026-08-15T19:39:20.000Z</time></trkpt>
        <trkpt lat="28.133206" lon="105.771946"><ele>1592.458</ele><time>2026-08-15T19:39:34.000Z</time></trkpt>
        <trkpt lat="28.133209" lon="105.771946"><ele>1590.898</ele><time>2026-08-15T19:39:36.000Z</time></trkpt>
        <trkpt lat="28.133215" lon="105.771949"><ele>1589.9839</ele><time>2026-08-15T19:39:38.000Z</time></trkpt>
        <trkpt lat="28.13324" lon="105.771958"><ele>1591.001</ele><time>2026-08-15T19:39:44.000Z</time></trkpt>
        <trkpt lat="28.133242" lon="105.771961"><ele>1592.4679</ele><time>2026-08-15T19:39:46.000Z</time></trkpt>
        <trkpt lat="28.133243" lon="105.771965"><ele>1592.22</ele><time>2026-08-15T19:39:48.000Z</time></trkpt>
        <trkpt lat="28.133246" lon="105.771994"><ele>1594.016</ele><time>2026-08-15T19:39:59.000Z</time></trkpt>
        <trkpt lat="28.133247" lon="105.77201"><ele>1594.5808</ele><time>2026-08-15T19:40:01.000Z</time></trkpt>
        <trkpt lat="28.133247" lon="105.77201"><ele>1594.3862</ele><time>2026-08-15T19:40:03.000Z</time></trkpt>
        <trkpt lat="28.133195" lon="105.77208"><ele>1593.0566</ele><time>2026-08-15T19:40:37.000Z</time></trkpt>
        <trkpt lat="28.13315" lon="105.772142"><ele>1591.0834</ele><time>2026-08-15T19:40:45.000Z</time></trkpt>
        <trkpt lat="28.13315" lon="105.772143"><ele>1590.4639</ele><time>2026-08-15T19:40:47.000Z</time></trkpt>
        <trkpt lat="28.133149" lon="105.772146"><ele>1590.3867</ele><time>2026-08-15T19:40:49.000Z</time></trkpt>
        <trkpt lat="28.133127" lon="105.772182"><ele>1588.9486</ele><time>2026-08-15T19:40:53.000Z</time></trkpt>
        <trkpt lat="28.133115" lon="105.772202"><ele>1587.0393</ele><time>2026-08-15T19:40:55.000Z</time></trkpt>
        <trkpt lat="28.133101" lon="105.77222"><ele>1587.0165</ele><time>2026-08-15T19:40:57.000Z</time></trkpt>
        <trkpt lat="28.133086" lon="105.772238"><ele>1587.778</ele><time>2026-08-15T19:40:59.000Z</time></trkpt>
        <trkpt lat="28.133076" lon="105.772252"><ele>1588.022</ele><time>2026-08-15T19:41:01.000Z</time></trkpt>
        <trkpt lat="28.133066" lon="105.772262"><ele>1586.3309</ele><time>2026-08-15T19:41:03.000Z</time></trkpt>
        <trkpt lat="28.133064" lon="105.772269"><ele>1586.1832</ele><time>2026-08-15T19:41:05.000Z</time></trkpt>
        <trkpt lat="28.133056" lon="105.772278"><ele>1584.5276</ele><time>2026-08-15T19:41:13.000Z</time></trkpt>
        <trkpt lat="28.133029" lon="105.77231"><ele>1581.513</ele><time>2026-08-15T19:41:17.000Z</time></trkpt>
        <trkpt lat="28.133029" lon="105.77231"><ele>1580.8644</ele><time>2026-08-15T19:41:19.000Z</time></trkpt>
        <trkpt lat="28.133028" lon="105.772312"><ele>1580.9696</ele><time>2026-08-15T19:41:21.000Z</time></trkpt>
        <trkpt lat="28.133011" lon="105.772342"><ele>1581.1642</ele><time>2026-08-15T19:41:25.000Z</time></trkpt>
        <trkpt lat="28.132997" lon="105.772361"><ele>1579.0746</ele><time>2026-08-15T19:41:27.000Z</time></trkpt>
        <trkpt lat="28.132982" lon="105.772376"><ele>1578.1082</ele><time>2026-08-15T19:41:29.000Z</time></trkpt>
        <trkpt lat="28.132971" lon="105.772383"><ele>1578.2955</ele><time>2026-08-15T19:41:31.000Z</time></trkpt>
        <trkpt lat="28.132959" lon="105.772388"><ele>1577.9536</ele><time>2026-08-15T19:41:33.000Z</time></trkpt>
        <trkpt lat="28.132949" lon="105.772396"><ele>1577.5812</ele><time>2026-08-15T19:41:35.000Z</time></trkpt>
        <trkpt lat="28.132939" lon="105.772408"><ele>1577.4725</ele><time>2026-08-15T19:41:37.000Z</time></trkpt>
        <trkpt lat="28.132935" lon="105.77242"><ele>1576.1658</ele><time>2026-08-15T19:41:39.000Z</time></trkpt>
        <trkpt lat="28.132934" lon="105.772434"><ele>1575.3894</ele><time>2026-08-15T19:41:41.000Z</time></trkpt>
        <trkpt lat="28.132937" lon="105.772448"><ele>1574.3826</ele><time>2026-08-15T19:41:43.000Z</time></trkpt>
        <trkpt lat="28.132942" lon="105.772461"><ele>1573.8779</ele><time>2026-08-15T19:41:45.000Z</time></trkpt>
        <trkpt lat="28.132947" lon="105.772475"><ele>1573.0609</ele><time>2026-08-15T19:41:47.000Z</time></trkpt>
        <trkpt lat="28.132951" lon="105.772492"><ele>1572.5961</ele><time>2026-08-15T19:41:49.000Z</time></trkpt>
        <trkpt lat="28.132952" lon="105.772507"><ele>1571.8604</ele><time>2026-08-15T19:41:51.000Z</time></trkpt>
        <trkpt lat="28.132951" lon="105.772515"><ele>1571.9716</ele><time>2026-08-15T19:41:53.000Z</time></trkpt>
        <trkpt lat="28.132952" lon="105.772527"><ele>1572.5233</ele><time>2026-08-15T19:41:55.000Z</time></trkpt>
        <trkpt lat="28.132956" lon="105.772544"><ele>1573.0499</ele><time>2026-08-15T19:41:57.000Z</time></trkpt>
        <trkpt lat="28.13296" lon="105.772561"><ele>1572.5859</ele><time>2026-08-15T19:41:59.000Z</time></trkpt>
        <trkpt lat="28.132964" lon="105.772574"><ele>1572.0145</ele><time>2026-08-15T19:42:01.000Z</time></trkpt>
        <trkpt lat="28.132968" lon="105.772587"><ele>1571.7441</ele><time>2026-08-15T19:42:03.000Z</time></trkpt>
        <trkpt lat="28.132973" lon="105.7726"><ele>1571.0182</ele><time>2026-08-15T19:42:05.000Z</time></trkpt>
        <trkpt lat="28.132978" lon="105.772614"><ele>1570.3748</ele><time>2026-08-15T19:42:07.000Z</time></trkpt>
        <trkpt lat="28.132984" lon="105.772635"><ele>1569.9038</ele><time>2026-08-15T19:42:09.000Z</time></trkpt>
        <trkpt lat="28.132992" lon="105.772656"><ele>1569.4078</ele><time>2026-08-15T19:42:11.000Z</time></trkpt>
        <trkpt lat="28.132999" lon="105.772681"><ele>1569.0916</ele><time>2026-08-15T19:42:13.000Z</time></trkpt>
        <trkpt lat="28.133008" lon="105.772709"><ele>1568.3873</ele><time>2026-08-15T19:42:15.000Z</time></trkpt>
        <trkpt lat="28.133018" lon="105.772729"><ele>1567.9264</ele><time>2026-08-15T19:42:17.000Z</time></trkpt>
        <trkpt lat="28.133027" lon="105.772741"><ele>1566.864</ele><time>2026-08-15T19:42:19.000Z</time></trkpt>
        <trkpt lat="28.133038" lon="105.772752"><ele>1567.2924</ele><time>2026-08-15T19:42:21.000Z</time></trkpt>
        <trkpt lat="28.13305" lon="105.772761"><ele>1567.7334</ele><time>2026-08-15T19:42:23.000Z</time></trkpt>
        <trkpt lat="28.133066" lon="105.772771"><ele>1568.9879</ele><time>2026-08-15T19:42:25.000Z</time></trkpt>
        <trkpt lat="28.13308" lon="105.77278"><ele>1568.5862</ele><time>2026-08-15T19:42:27.000Z</time></trkpt>
        <trkpt lat="28.133085" lon="105.772787"><ele>1567.1511</ele><time>2026-08-15T19:42:29.000Z</time></trkpt>
        <trkpt lat="28.13309" lon="105.772792"><ele>1566.2933</ele><time>2026-08-15T19:42:31.000Z</time></trkpt>
        <trkpt lat="28.133099" lon="105.772814"><ele>1565.6083</ele><time>2026-08-15T19:42:35.000Z</time></trkpt>
        <trkpt lat="28.133099" lon="105.77282"><ele>1565.5004</ele><time>2026-08-15T19:42:41.000Z</time></trkpt>
        <trkpt lat="28.133098" lon="105.772851"><ele>1565.2349</ele><time>2026-08-15T19:42:43.000Z</time></trkpt>
        <trkpt lat="28.133098" lon="105.772853"><ele>1565.6497</ele><time>2026-08-15T19:42:45.000Z</time></trkpt>
        <trkpt lat="28.133076" lon="105.77289"><ele>1565.3676</ele><time>2026-08-15T19:42:48.000Z</time></trkpt>
        <trkpt lat="28.133076" lon="105.77289"><ele>1564.9427</ele><time>2026-08-15T19:42:50.000Z</time></trkpt>
        <trkpt lat="28.133073" lon="105.772893"><ele>1564.9899</ele><time>2026-08-15T19:42:52.000Z</time></trkpt>
        <trkpt lat="28.133052" lon="105.77292"><ele>1563.8678</ele><time>2026-08-15T19:42:56.000Z</time></trkpt>
        <trkpt lat="28.133045" lon="105.772931"><ele>1564.1168</ele><time>2026-08-15T19:42:58.000Z</time></trkpt>
        <trkpt lat="28.133042" lon="105.772939"><ele>1565.235</ele><time>2026-08-15T19:43:00.000Z</time></trkpt>
        <trkpt lat="28.133045" lon="105.772946"><ele>1564.1396</ele><time>2026-08-15T19:43:04.000Z</time></trkpt>
        <trkpt lat="28.133057" lon="105.77296"><ele>1564.3917</ele><time>2026-08-15T19:43:12.000Z</time></trkpt>
        <trkpt lat="28.133062" lon="105.772963"><ele>1564.6171</ele><time>2026-08-15T19:43:16.000Z</time></trkpt>
        <trkpt lat="28.133062" lon="105.772964"><ele>1562.7017</ele><time>2026-08-15T19:43:22.000Z</time></trkpt>
        <trkpt lat="28.133056" lon="105.772999"><ele>1561.8728</ele><time>2026-08-15T19:43:34.000Z</time></trkpt>
        <trkpt lat="28.133057" lon="105.773001"><ele>1561.66</ele><time>2026-08-15T19:43:36.000Z</time></trkpt>
        <trkpt lat="28.133057" lon="105.773001"><ele>1561.415</ele><time>2026-08-15T19:43:38.000Z</time></trkpt>
        <trkpt lat="28.133064" lon="105.773034"><ele>1566.6576</ele><time>2026-08-15T19:44:05.000Z</time></trkpt>
        <trkpt lat="28.13307" lon="105.77306"><ele>1565.8644</ele><time>2026-08-15T19:44:07.000Z</time></trkpt>
        <trkpt lat="28.133071" lon="105.773062"><ele>1566.2401</ele><time>2026-08-15T19:44:09.000Z</time></trkpt>
        <trkpt lat="28.133072" lon="105.773069"><ele>1565.3374</ele><time>2026-08-15T19:44:13.000Z</time></trkpt>
        <trkpt lat="28.13308" lon="105.773096"><ele>1565.7844</ele><time>2026-08-15T19:44:21.000Z</time></trkpt>
        <trkpt lat="28.133154" lon="105.773097"><ele>1562.2413</ele><time>2026-08-15T19:44:29.000Z</time></trkpt>
        <trkpt lat="28.133154" lon="105.773097"><ele>1563.1877</ele><time>2026-08-15T19:44:31.000Z</time></trkpt>
        <trkpt lat="28.133156" lon="105.773098"><ele>1563.2767</ele><time>2026-08-15T19:44:33.000Z</time></trkpt>
        <trkpt lat="28.133196" lon="105.773117"><ele>1565.9783</ele><time>2026-08-15T19:44:39.000Z</time></trkpt>
        <trkpt lat="28.133213" lon="105.773122"><ele>1566.1726</ele><time>2026-08-15T19:44:41.000Z</time></trkpt>
        <trkpt lat="28.133233" lon="105.773129"><ele>1565.8845</ele><time>2026-08-15T19:44:42.000Z</time></trkpt>
        <trkpt lat="28.133249" lon="105.773142"><ele>1565.7687</ele><time>2026-08-15T19:44:44.000Z</time></trkpt>
        <trkpt lat="28.133252" lon="105.773156"><ele>1564.2196</ele><time>2026-08-15T19:44:46.000Z</time></trkpt>
        <trkpt lat="28.133256" lon="105.773182"><ele>1563.4119</ele><time>2026-08-15T19:44:48.000Z</time></trkpt>
        <trkpt lat="28.133261" lon="105.773206"><ele>1563.9644</ele><time>2026-08-15T19:44:50.000Z</time></trkpt>
        <trkpt lat="28.133266" lon="105.773227"><ele>1563.266</ele><time>2026-08-15T19:44:52.000Z</time></trkpt>
        <trkpt lat="28.133271" lon="105.773249"><ele>1563.1455</ele><time>2026-08-15T19:44:55.000Z</time></trkpt>
        <trkpt lat="28.133276" lon="105.773273"><ele>1562.0226</ele><time>2026-08-15T19:44:57.000Z</time></trkpt>
        <trkpt lat="28.133278" lon="105.773293"><ele>1561.9904</ele><time>2026-08-15T19:44:59.000Z</time></trkpt>
        <trkpt lat="28.13328" lon="105.773312"><ele>1562.5068</ele><time>2026-08-15T19:45:01.000Z</time></trkpt>
        <trkpt lat="28.133282" lon="105.773331"><ele>1562.284</ele><time>2026-08-15T19:45:03.000Z</time></trkpt>
        <trkpt lat="28.133283" lon="105.773348"><ele>1562.9158</ele><time>2026-08-15T19:45:05.000Z</time></trkpt>
        <trkpt lat="28.133286" lon="105.773367"><ele>1561.7533</ele><time>2026-08-15T19:45:07.000Z</time></trkpt>
        <trkpt lat="28.133289" lon="105.773389"><ele>1561.3542</ele><time>2026-08-15T19:45:09.000Z</time></trkpt>
        <trkpt lat="28.13329" lon="105.773414"><ele>1560.5779</ele><time>2026-08-15T19:45:11.000Z</time></trkpt>
        <trkpt lat="28.133289" lon="105.773439"><ele>1560.4001</ele><time>2026-08-15T19:45:13.000Z</time></trkpt>
        <trkpt lat="28.133289" lon="105.773475"><ele>1560.3999</ele><time>2026-08-15T19:45:15.000Z</time></trkpt>
        <trkpt lat="28.133287" lon="105.77351"><ele>1561.7102</ele><time>2026-08-15T19:45:17.000Z</time></trkpt>
        <trkpt lat="28.133283" lon="105.773533"><ele>1561.8369</ele><time>2026-08-15T19:45:19.000Z</time></trkpt>
        <trkpt lat="28.133279" lon="105.77355"><ele>1562.3641</ele><time>2026-08-15T19:45:21.000Z</time></trkpt>
        <trkpt lat="28.133277" lon="105.773561"><ele>1562.9666</ele><time>2026-08-15T19:45:23.000Z</time></trkpt>
        <trkpt lat="28.133278" lon="105.773567"><ele>1563.0587</ele><time>2026-08-15T19:45:25.000Z</time></trkpt>
        <trkpt lat="28.133285" lon="105.773594"><ele>1562.0393</ele><time>2026-08-15T19:45:31.000Z</time></trkpt>
        <trkpt lat="28.13329" lon="105.773614"><ele>1562.2474</ele><time>2026-08-15T19:45:33.000Z</time></trkpt>
        <trkpt lat="28.133291" lon="105.773616"><ele>1563.0255</ele><time>2026-08-15T19:45:35.000Z</time></trkpt>
        <trkpt lat="28.133303" lon="105.773645"><ele>1562.1592</ele><time>2026-08-15T19:45:39.000Z</time></trkpt>
        <trkpt lat="28.133315" lon="105.773676"><ele>1561.4541</ele><time>2026-08-15T19:45:41.000Z</time></trkpt>
        <trkpt lat="28.133338" lon="105.773732"><ele>1560.7949</ele><time>2026-08-15T19:45:43.000Z</time></trkpt>
        <trkpt lat="28.13334" lon="105.773737"><ele>1560.8751</ele><time>2026-08-15T19:45:45.000Z</time></trkpt>
        <trkpt lat="28.13334" lon="105.77374"><ele>1561.0885</ele><time>2026-08-15T19:45:47.000Z</time></trkpt>
        <trkpt lat="28.133342" lon="105.773766"><ele>1560.8472</ele><time>2026-08-15T19:45:51.000Z</time></trkpt>
        <trkpt lat="28.133343" lon="105.773782"><ele>1561.0247</ele><time>2026-08-15T19:45:53.000Z</time></trkpt>
        <trkpt lat="28.133337" lon="105.773791"><ele>1560.9918</ele><time>2026-08-15T19:45:55.000Z</time></trkpt>
        <trkpt lat="28.133331" lon="105.773794"><ele>1559.4087</ele><time>2026-08-15T19:45:57.000Z</time></trkpt>
        <trkpt lat="28.133307" lon="105.773803"><ele>1558.3726</ele><time>2026-08-15T19:46:01.000Z</time></trkpt>
        <trkpt lat="28.133297" lon="105.77381"><ele>1558.1052</ele><time>2026-08-15T19:46:03.000Z</time></trkpt>
        <trkpt lat="28.133285" lon="105.773815"><ele>1556.6465</ele><time>2026-08-15T19:46:05.000Z</time></trkpt>
        <trkpt lat="28.133275" lon="105.773816"><ele>1556.8516</ele><time>2026-08-15T19:46:07.000Z</time></trkpt>
        <trkpt lat="28.133275" lon="105.773818"><ele>1556.0475</ele><time>2026-08-15T19:46:09.000Z</time></trkpt>
        <trkpt lat="28.13328" lon="105.773781"><ele>1556.317</ele><time>2026-08-15T19:47:27.000Z</time></trkpt>
        <trkpt lat="28.133281" lon="105.773777"><ele>1556.8464</ele><time>2026-08-15T19:47:29.000Z</time></trkpt>
        <trkpt lat="28.133282" lon="105.773777"><ele>1556.8464</ele><time>2026-08-15T19:47:31.000Z</time></trkpt>
        <trkpt lat="28.133226" lon="105.773758"><ele>1557.0806</ele><time>2026-08-15T19:47:49.000Z</time></trkpt>
        <trkpt lat="28.133205" lon="105.77375"><ele>1556.6669</ele><time>2026-08-15T19:47:51.000Z</time></trkpt>
        <trkpt lat="28.133204" lon="105.773749"><ele>1556.8951</ele><time>2026-08-15T19:47:53.000Z</time></trkpt>
        <trkpt lat="28.133196" lon="105.773735"><ele>1556.3129</ele><time>2026-08-15T19:47:57.000Z</time></trkpt>
        <trkpt lat="28.133183" lon="105.77372"><ele>1556.4165</ele><time>2026-08-15T19:47:59.000Z</time></trkpt>
        <trkpt lat="28.13317" lon="105.773704"><ele>1555.69</ele><time>2026-08-15T19:48:01.000Z</time></trkpt>
        <trkpt lat="28.133158" lon="105.77369"><ele>1555.113</ele><time>2026-08-15T19:48:03.000Z</time></trkpt>
        <trkpt lat="28.133147" lon="105.773676"><ele>1555.3215</ele><time>2026-08-15T19:48:05.000Z</time></trkpt>
        <trkpt lat="28.133139" lon="105.773664"><ele>1555.7507</ele><time>2026-08-15T19:48:07.000Z</time></trkpt>
        <trkpt lat="28.133133" lon="105.773655"><ele>1556.2365</ele><time>2026-08-15T19:48:09.000Z</time></trkpt>
        <trkpt lat="28.133125" lon="105.773648"><ele>1555.823</ele><time>2026-08-15T19:48:11.000Z</time></trkpt>
        <trkpt lat="28.133113" lon="105.773636"><ele>1556</ele><time>2026-08-15T19:48:15.000Z</time></trkpt>
        <trkpt lat="28.133107" lon="105.773634"><ele>1556.4591</ele><time>2026-08-15T19:48:17.000Z</time></trkpt>
        <trkpt lat="28.133091" lon="105.773623"><ele>1556.9891</ele><time>2026-08-15T19:48:19.000Z</time></trkpt>
        <trkpt lat="28.133082" lon="105.773617"><ele>1557.3617</ele><time>2026-08-15T19:48:25.000Z</time></trkpt>
        <trkpt lat="28.133069" lon="105.773608"><ele>1557.5983</ele><time>2026-08-15T19:48:27.000Z</time></trkpt>
        <trkpt lat="28.133053" lon="105.773599"><ele>1557.8701</ele><time>2026-08-15T19:48:29.000Z</time></trkpt>
        <trkpt lat="28.133042" lon="105.773593"><ele>1557.8083</ele><time>2026-08-15T19:48:31.000Z</time></trkpt>
        <trkpt lat="28.133037" lon="105.773588"><ele>1557.8083</ele><time>2026-08-15T19:48:33.000Z</time></trkpt>
        <trkpt lat="28.133028" lon="105.773588"><ele>1561.2501</ele><time>2026-08-15T19:48:43.000Z</time></trkpt>
        <trkpt lat="28.133011" lon="105.77359"><ele>1561.0427</ele><time>2026-08-15T19:48:49.000Z</time></trkpt>
        <trkpt lat="28.132997" lon="105.773592"><ele>1559.8629</ele><time>2026-08-15T19:48:51.000Z</time></trkpt>
        <trkpt lat="28.132996" lon="105.773593"><ele>1559.6312</ele><time>2026-08-15T19:48:53.000Z</time></trkpt>
        <trkpt lat="28.132978" lon="105.773598"><ele>1559.7667</ele><time>2026-08-15T19:48:57.000Z</time></trkpt>
        <trkpt lat="28.132952" lon="105.773609"><ele>1559.6797</ele><time>2026-08-15T19:48:59.000Z</time></trkpt>
        <trkpt lat="28.132924" lon="105.773622"><ele>1559.5227</ele><time>2026-08-15T19:49:01.000Z</time></trkpt>
        <trkpt lat="28.132895" lon="105.773641"><ele>1559.4526</ele><time>2026-08-15T19:49:03.000Z</time></trkpt>
        <trkpt lat="28.132877" lon="105.773658"><ele>1559.2051</ele><time>2026-08-15T19:49:05.000Z</time></trkpt>
        <trkpt lat="28.132863" lon="105.773674"><ele>1559.4011</ele><time>2026-08-15T19:49:07.000Z</time></trkpt>
        <trkpt lat="28.132847" lon="105.773696"><ele>1559.0253</ele><time>2026-08-15T19:49:09.000Z</time></trkpt>
        <trkpt lat="28.132831" lon="105.773712"><ele>1559.2938</ele><time>2026-08-15T19:49:11.000Z</time></trkpt>
        <trkpt lat="28.132816" lon="105.773727"><ele>1559.1682</ele><time>2026-08-15T19:49:13.000Z</time></trkpt>
        <trkpt lat="28.132804" lon="105.77374"><ele>1559.8768</ele><time>2026-08-15T19:49:15.000Z</time></trkpt>
        <trkpt lat="28.132794" lon="105.773752"><ele>1558.8982</ele><time>2026-08-15T19:49:17.000Z</time></trkpt>
        <trkpt lat="28.132782" lon="105.773766"><ele>1558.1603</ele><time>2026-08-15T19:49:19.000Z</time></trkpt>
        <trkpt lat="28.132769" lon="105.773784"><ele>1557.5657</ele><time>2026-08-15T19:49:21.000Z</time></trkpt>
        <trkpt lat="28.132755" lon="105.773808"><ele>1557.9302</ele><time>2026-08-15T19:49:23.000Z</time></trkpt>
        <trkpt lat="28.132742" lon="105.773837"><ele>1558.3367</ele><time>2026-08-15T19:49:25.000Z</time></trkpt>
        <trkpt lat="28.132735" lon="105.773865"><ele>1558.0529</ele><time>2026-08-15T19:49:27.000Z</time></trkpt>
        <trkpt lat="28.132734" lon="105.77389"><ele>1558.4701</ele><time>2026-08-15T19:49:29.000Z</time></trkpt>
        <trkpt lat="28.132739" lon="105.773913"><ele>1557.2793</ele><time>2026-08-15T19:49:31.000Z</time></trkpt>
        <trkpt lat="28.132748" lon="105.773935"><ele>1556.5221</ele><time>2026-08-15T19:49:33.000Z</time></trkpt>
        <trkpt lat="28.132756" lon="105.773961"><ele>1556.0886</ele><time>2026-08-15T19:49:35.000Z</time></trkpt>
        <trkpt lat="28.132763" lon="105.773985"><ele>1554.9069</ele><time>2026-08-15T19:49:37.000Z</time></trkpt>
        <trkpt lat="28.132769" lon="105.774017"><ele>1556.1022</ele><time>2026-08-15T19:49:39.000Z</time></trkpt>
        <trkpt lat="28.132774" lon="105.774046"><ele>1555.5736</ele><time>2026-08-15T19:49:41.000Z</time></trkpt>
        <trkpt lat="28.132781" lon="105.774063"><ele>1555.1952</ele><time>2026-08-15T19:49:43.000Z</time></trkpt>
        <trkpt lat="28.132791" lon="105.774091"><ele>1556.3917</ele><time>2026-08-15T19:49:45.000Z</time></trkpt>
        <trkpt lat="28.132799" lon="105.774116"><ele>1556.2572</ele><time>2026-08-15T19:49:47.000Z</time></trkpt>
        <trkpt lat="28.132805" lon="105.774142"><ele>1556.8323</ele><time>2026-08-15T19:49:49.000Z</time></trkpt>
        <trkpt lat="28.132812" lon="105.774164"><ele>1556.331</ele><time>2026-08-15T19:49:51.000Z</time></trkpt>
        <trkpt lat="28.132819" lon="105.774183"><ele>1555.9323</ele><time>2026-08-15T19:49:53.000Z</time></trkpt>
        <trkpt lat="28.132827" lon="105.774198"><ele>1555.921</ele><time>2026-08-15T19:49:55.000Z</time></trkpt>
        <trkpt lat="28.132837" lon="105.774216"><ele>1556.2141</ele><time>2026-08-15T19:49:57.000Z</time></trkpt>
        <trkpt lat="28.13285" lon="105.774233"><ele>1556.8824</ele><time>2026-08-15T19:49:59.000Z</time></trkpt>
        <trkpt lat="28.132865" lon="105.774255"><ele>1556.9166</ele><time>2026-08-15T19:50:01.000Z</time></trkpt>
        <trkpt lat="28.132876" lon="105.774276"><ele>1557.1365</ele><time>2026-08-15T19:50:03.000Z</time></trkpt>
        <trkpt lat="28.132882" lon="105.774295"><ele>1557.7148</ele><time>2026-08-15T19:50:05.000Z</time></trkpt>
        <trkpt lat="28.132888" lon="105.774314"><ele>1557.5608</ele><time>2026-08-15T19:50:07.000Z</time></trkpt>
        <trkpt lat="28.132893" lon="105.774333"><ele>1556.2615</ele><time>2026-08-15T19:50:09.000Z</time></trkpt>
        <trkpt lat="28.132897" lon="105.774352"><ele>1555.9841</ele><time>2026-08-15T19:50:11.000Z</time></trkpt>
        <trkpt lat="28.132903" lon="105.774377"><ele>1556.8986</ele><time>2026-08-15T19:50:13.000Z</time></trkpt>
        <trkpt lat="28.13291" lon="105.774402"><ele>1557.0217</ele><time>2026-08-15T19:50:15.000Z</time></trkpt>
        <trkpt lat="28.132916" lon="105.774424"><ele>1557.0371</ele><time>2026-08-15T19:50:17.000Z</time></trkpt>
        <trkpt lat="28.132923" lon="105.774442"><ele>1556.8512</ele><time>2026-08-15T19:50:19.000Z</time></trkpt>
        <trkpt lat="28.132928" lon="105.774455"><ele>1557.047</ele><time>2026-08-15T19:50:21.000Z</time></trkpt>
        <trkpt lat="28.132935" lon="105.774468"><ele>1556.7987</ele><time>2026-08-15T19:50:23.000Z</time></trkpt>
        <trkpt lat="28.132942" lon="105.77448"><ele>1556.1898</ele><time>2026-08-15T19:50:25.000Z</time></trkpt>
        <trkpt lat="28.13295" lon="105.774491"><ele>1555.5712</ele><time>2026-08-15T19:50:27.000Z</time></trkpt>
        <trkpt lat="28.132959" lon="105.774505"><ele>1555.035</ele><time>2026-08-15T19:50:29.000Z</time></trkpt>
        <trkpt lat="28.13297" lon="105.774522"><ele>1555.0061</ele><time>2026-08-15T19:50:31.000Z</time></trkpt>
        <trkpt lat="28.132978" lon="105.774538"><ele>1554.8534</ele><time>2026-08-15T19:50:33.000Z</time></trkpt>
        <trkpt lat="28.132987" lon="105.774558"><ele>1555.0275</ele><time>2026-08-15T19:50:35.000Z</time></trkpt>
        <trkpt lat="28.132996" lon="105.77458"><ele>1555.6545</ele><time>2026-08-15T19:50:37.000Z</time></trkpt>
        <trkpt lat="28.133004" lon="105.774599"><ele>1556.122</ele><time>2026-08-15T19:50:39.000Z</time></trkpt>
        <trkpt lat="28.133015" lon="105.774616"><ele>1557.2975</ele><time>2026-08-15T19:50:41.000Z</time></trkpt>
        <trkpt lat="28.133028" lon="105.774637"><ele>1557.0242</ele><time>2026-08-15T19:50:43.000Z</time></trkpt>
        <trkpt lat="28.133038" lon="105.774655"><ele>1556.0374</ele><time>2026-08-15T19:50:45.000Z</time></trkpt>
        <trkpt lat="28.133046" lon="105.774672"><ele>1556.0348</ele><time>2026-08-15T19:50:47.000Z</time></trkpt>
        <trkpt lat="28.133055" lon="105.774687"><ele>1556.0868</ele><time>2026-08-15T19:50:49.000Z</time></trkpt>
        <trkpt lat="28.133072" lon="105.77471"><ele>1558.3594</ele><time>2026-08-15T19:50:51.000Z</time></trkpt>
        <trkpt lat="28.133088" lon="105.774727"><ele>1557.524</ele><time>2026-08-15T19:50:53.000Z</time></trkpt>
        <trkpt lat="28.133101" lon="105.774736"><ele>1556.6145</ele><time>2026-08-15T19:50:55.000Z</time></trkpt>
        <trkpt lat="28.133113" lon="105.77474"><ele>1555.6093</ele><time>2026-08-15T19:50:57.000Z</time></trkpt>
        <trkpt lat="28.133128" lon="105.774738"><ele>1554.4327</ele><time>2026-08-15T19:50:59.000Z</time></trkpt>
        <trkpt lat="28.13314" lon="105.774736"><ele>1555.2068</ele><time>2026-08-15T19:51:00.000Z</time></trkpt>
        <trkpt lat="28.133143" lon="105.774738"><ele>1554.9739</ele><time>2026-08-15T19:51:02.000Z</time></trkpt>
        <trkpt lat="28.133158" lon="105.774748"><ele>1555.6865</ele><time>2026-08-15T19:51:12.000Z</time></trkpt>
        <trkpt lat="28.133171" lon="105.774758"><ele>1556.5706</ele><time>2026-08-15T19:51:21.000Z</time></trkpt>
        <trkpt lat="28.133193" lon="105.774773"><ele>1556.5007</ele><time>2026-08-15T19:51:23.000Z</time></trkpt>
        <trkpt lat="28.133194" lon="105.774774"><ele>1556.6924</ele><time>2026-08-15T19:51:25.000Z</time></trkpt>
        <trkpt lat="28.133197" lon="105.774779"><ele>1556.7705</ele><time>2026-08-15T19:51:27.000Z</time></trkpt>
        <trkpt lat="28.133224" lon="105.774823"><ele>1557.6962</ele><time>2026-08-15T19:51:31.000Z</time></trkpt>
        <trkpt lat="28.133237" lon="105.774848"><ele>1558.1212</ele><time>2026-08-15T19:51:33.000Z</time></trkpt>
        <trkpt lat="28.133243" lon="105.774865"><ele>1557.8602</ele><time>2026-08-15T19:51:35.000Z</time></trkpt>
        <trkpt lat="28.133244" lon="105.774874"><ele>1558.0583</ele><time>2026-08-15T19:51:37.000Z</time></trkpt>
        <trkpt lat="28.133245" lon="105.774883"><ele>1557.8864</ele><time>2026-08-15T19:51:41.000Z</time></trkpt>
        <trkpt lat="28.13325" lon="105.774919"><ele>1557.5133</ele><time>2026-08-15T19:51:45.000Z</time></trkpt>
        <trkpt lat="28.133251" lon="105.774919"><ele>1558.5688</ele><time>2026-08-15T19:51:47.000Z</time></trkpt>
        <trkpt lat="28.133254" lon="105.774926"><ele>1557.7231</ele><time>2026-08-15T19:51:49.000Z</time></trkpt>
        <trkpt lat="28.133269" lon="105.774954"><ele>1556.7462</ele><time>2026-08-15T19:51:51.000Z</time></trkpt>
        <trkpt lat="28.133311" lon="105.775033"><ele>1557.0696</ele><time>2026-08-15T19:51:53.000Z</time></trkpt>
        <trkpt lat="28.133314" lon="105.775039"><ele>1557.2882</ele><time>2026-08-15T19:51:55.000Z</time></trkpt>
        <trkpt lat="28.133317" lon="105.775046"><ele>1557.0747</ele><time>2026-08-15T19:51:57.000Z</time></trkpt>
        <trkpt lat="28.133345" lon="105.775095"><ele>1554.9116</ele><time>2026-08-15T19:52:01.000Z</time></trkpt>
        <trkpt lat="28.133358" lon="105.775116"><ele>1554.7383</ele><time>2026-08-15T19:52:03.000Z</time></trkpt>
        <trkpt lat="28.133376" lon="105.775141"><ele>1554.6443</ele><time>2026-08-15T19:52:05.000Z</time></trkpt>
        <trkpt lat="28.133397" lon="105.775167"><ele>1555.137</ele><time>2026-08-15T19:52:07.000Z</time></trkpt>
        <trkpt lat="28.133412" lon="105.775183"><ele>1554.7625</ele><time>2026-08-15T19:52:09.000Z</time></trkpt>
        <trkpt lat="28.133429" lon="105.775193"><ele>1555.3795</ele><time>2026-08-15T19:52:11.000Z</time></trkpt>
        <trkpt lat="28.13344" lon="105.775193"><ele>1554.9027</ele><time>2026-08-15T19:52:13.000Z</time></trkpt>
        <trkpt lat="28.133452" lon="105.775191"><ele>1554.1648</ele><time>2026-08-15T19:52:15.000Z</time></trkpt>
        <trkpt lat="28.13347" lon="105.775187"><ele>1553.9026</ele><time>2026-08-15T19:52:17.000Z</time></trkpt>
        <trkpt lat="28.133491" lon="105.775181"><ele>1553.5953</ele><time>2026-08-15T19:52:19.000Z</time></trkpt>
        <trkpt lat="28.133511" lon="105.775173"><ele>1552.7096</ele><time>2026-08-15T19:52:21.000Z</time></trkpt>
        <trkpt lat="28.133525" lon="105.775162"><ele>1552.4819</ele><time>2026-08-15T19:52:23.000Z</time></trkpt>
        <trkpt lat="28.133534" lon="105.775144"><ele>1551.4198</ele><time>2026-08-15T19:52:25.000Z</time></trkpt>
        <trkpt lat="28.133546" lon="105.775121"><ele>1552.7272</ele><time>2026-08-15T19:52:27.000Z</time></trkpt>
        <trkpt lat="28.133558" lon="105.775103"><ele>1553.5321</ele><time>2026-08-15T19:52:29.000Z</time></trkpt>
        <trkpt lat="28.133572" lon="105.77509"><ele>1553.7225</ele><time>2026-08-15T19:52:31.000Z</time></trkpt>
        <trkpt lat="28.133587" lon="105.775081"><ele>1554.1506</ele><time>2026-08-15T19:52:33.000Z</time></trkpt>
        <trkpt lat="28.1336" lon="105.775079"><ele>1554.2096</ele><time>2026-08-15T19:52:35.000Z</time></trkpt>
        <trkpt lat="28.133614" lon="105.775081"><ele>1554.3647</ele><time>2026-08-15T19:52:37.000Z</time></trkpt>
        <trkpt lat="28.133625" lon="105.77509"><ele>1554.1603</ele><time>2026-08-15T19:52:39.000Z</time></trkpt>
        <trkpt lat="28.133637" lon="105.775108"><ele>1554.3053</ele><time>2026-08-15T19:52:41.000Z</time></trkpt>
        <trkpt lat="28.133641" lon="105.77513"><ele>1554.3301</ele><time>2026-08-15T19:52:43.000Z</time></trkpt>
        <trkpt lat="28.133638" lon="105.775148"><ele>1555.0011</ele><time>2026-08-15T19:52:45.000Z</time></trkpt>
        <trkpt lat="28.13363" lon="105.775176"><ele>1555.3394</ele><time>2026-08-15T19:52:47.000Z</time></trkpt>
        <trkpt lat="28.13362" lon="105.775205"><ele>1555.9883</ele><time>2026-08-15T19:52:49.000Z</time></trkpt>
        <trkpt lat="28.133606" lon="105.775228"><ele>1556.8463</ele><time>2026-08-15T19:52:51.000Z</time></trkpt>
        <trkpt lat="28.133591" lon="105.775248"><ele>1558.479</ele><time>2026-08-15T19:52:53.000Z</time></trkpt>
        <trkpt lat="28.133577" lon="105.775264"><ele>1559.647</ele><time>2026-08-15T19:52:55.000Z</time></trkpt>
        <trkpt lat="28.133566" lon="105.77528"><ele>1559.2869</ele><time>2026-08-15T19:52:57.000Z</time></trkpt>
        <trkpt lat="28.133555" lon="105.775298"><ele>1558.2239</ele><time>2026-08-15T19:52:59.000Z</time></trkpt>
        <trkpt lat="28.133548" lon="105.775311"><ele>1558.4014</ele><time>2026-08-15T19:53:01.000Z</time></trkpt>
        <trkpt lat="28.133545" lon="105.775319"><ele>1558.3468</ele><time>2026-08-15T19:53:03.000Z</time></trkpt>
        <trkpt lat="28.133539" lon="105.775325"><ele>1558.1464</ele><time>2026-08-15T19:53:05.000Z</time></trkpt>
        <trkpt lat="28.133524" lon="105.775338"><ele>1556.618</ele><time>2026-08-15T19:53:08.000Z</time></trkpt>
        <trkpt lat="28.133518" lon="105.775348"><ele>1556.6735</ele><time>2026-08-15T19:53:10.000Z</time></trkpt>
        <trkpt lat="28.133513" lon="105.77536"><ele>1555.4138</ele><time>2026-08-15T19:53:12.000Z</time></trkpt>
        <trkpt lat="28.13351" lon="105.775374"><ele>1555.7284</ele><time>2026-08-15T19:53:14.000Z</time></trkpt>
        <trkpt lat="28.133507" lon="105.775388"><ele>1554.902</ele><time>2026-08-15T19:53:16.000Z</time></trkpt>
        <trkpt lat="28.133502" lon="105.775405"><ele>1554.5067</ele><time>2026-08-15T19:53:18.000Z</time></trkpt>
        <trkpt lat="28.133501" lon="105.775422"><ele>1554.3195</ele><time>2026-08-15T19:53:20.000Z</time></trkpt>
        <trkpt lat="28.133503" lon="105.775444"><ele>1554.224</ele><time>2026-08-15T19:53:22.000Z</time></trkpt>
        <trkpt lat="28.133508" lon="105.775467"><ele>1553.828</ele><time>2026-08-15T19:53:24.000Z</time></trkpt>
        <trkpt lat="28.133514" lon="105.775489"><ele>1553.3464</ele><time>2026-08-15T19:53:26.000Z</time></trkpt>
        <trkpt lat="28.133521" lon="105.775516"><ele>1553.628</ele><time>2026-08-15T19:53:28.000Z</time></trkpt>
        <trkpt lat="28.133527" lon="105.775538"><ele>1553.9873</ele><time>2026-08-15T19:53:30.000Z</time></trkpt>
        <trkpt lat="28.13353" lon="105.775558"><ele>1554.4359</ele><time>2026-08-15T19:53:33.000Z</time></trkpt>
        <trkpt lat="28.133533" lon="105.775571"><ele>1555.4817</ele><time>2026-08-15T19:53:35.000Z</time></trkpt>
        <trkpt lat="28.133536" lon="105.775583"><ele>1555.8915</ele><time>2026-08-15T19:53:37.000Z</time></trkpt>
        <trkpt lat="28.133538" lon="105.775593"><ele>1556.7654</ele><time>2026-08-15T19:53:39.000Z</time></trkpt>
        <trkpt lat="28.133542" lon="105.775604"><ele>1557.8654</ele><time>2026-08-15T19:53:41.000Z</time></trkpt>
        <trkpt lat="28.133546" lon="105.77563"><ele>1557.502</ele><time>2026-08-15T19:53:45.000Z</time></trkpt>
        <trkpt lat="28.133547" lon="105.77565"><ele>1558.6097</ele><time>2026-08-15T19:53:47.000Z</time></trkpt>
        <trkpt lat="28.133548" lon="105.775672"><ele>1558.6339</ele><time>2026-08-15T19:53:49.000Z</time></trkpt>
        <trkpt lat="28.13355" lon="105.775697"><ele>1558.1633</ele><time>2026-08-15T19:53:51.000Z</time></trkpt>
        <trkpt lat="28.133548" lon="105.775723"><ele>1557.9398</ele><time>2026-08-15T19:53:53.000Z</time></trkpt>
        <trkpt lat="28.133543" lon="105.775742"><ele>1557.7743</ele><time>2026-08-15T19:53:55.000Z</time></trkpt>
        <trkpt lat="28.133538" lon="105.775757"><ele>1557.5732</ele><time>2026-08-15T19:53:57.000Z</time></trkpt>
        <trkpt lat="28.133533" lon="105.775773"><ele>1558.9103</ele><time>2026-08-15T19:53:59.000Z</time></trkpt>
        <trkpt lat="28.133529" lon="105.775788"><ele>1558.7457</ele><time>2026-08-15T19:54:01.000Z</time></trkpt>
        <trkpt lat="28.133526" lon="105.775797"><ele>1559.35</ele><time>2026-08-15T19:54:03.000Z</time></trkpt>
        <trkpt lat="28.133527" lon="105.775804"><ele>1560.5109</ele><time>2026-08-15T19:54:17.000Z</time></trkpt>
        <trkpt lat="28.133533" lon="105.775822"><ele>1560.06</ele><time>2026-08-15T19:54:21.000Z</time></trkpt>
        <trkpt lat="28.133539" lon="105.775843"><ele>1559.3159</ele><time>2026-08-15T19:54:23.000Z</time></trkpt>
        <trkpt lat="28.133539" lon="105.775845"><ele>1558.5919</ele><time>2026-08-15T19:54:25.000Z</time></trkpt>
        <trkpt lat="28.133535" lon="105.775865"><ele>1557.859</ele><time>2026-08-15T19:54:29.000Z</time></trkpt>
        <trkpt lat="28.133533" lon="105.775886"><ele>1557.3986</ele><time>2026-08-15T19:54:31.000Z</time></trkpt>
        <trkpt lat="28.133532" lon="105.775907"><ele>1557.282</ele><time>2026-08-15T19:54:33.000Z</time></trkpt>
        <trkpt lat="28.133531" lon="105.775925"><ele>1557.2383</ele><time>2026-08-15T19:54:35.000Z</time></trkpt>
        <trkpt lat="28.133532" lon="105.77594"><ele>1557.9493</ele><time>2026-08-15T19:54:37.000Z</time></trkpt>
        <trkpt lat="28.133533" lon="105.775958"><ele>1558.0393</ele><time>2026-08-15T19:54:39.000Z</time></trkpt>
        <trkpt lat="28.133534" lon="105.775979"><ele>1558.0812</ele><time>2026-08-15T19:54:41.000Z</time></trkpt>
        <trkpt lat="28.133534" lon="105.775998"><ele>1558.9459</ele><time>2026-08-15T19:54:43.000Z</time></trkpt>
        <trkpt lat="28.133533" lon="105.776013"><ele>1559.38</ele><time>2026-08-15T19:54:45.000Z</time></trkpt>
        <trkpt lat="28.133537" lon="105.776026"><ele>1560.0519</ele><time>2026-08-15T19:54:47.000Z</time></trkpt>
        <trkpt lat="28.133544" lon="105.776033"><ele>1559.9572</ele><time>2026-08-15T19:54:49.000Z</time></trkpt>
        <trkpt lat="28.133554" lon="105.77604"><ele>1560.1669</ele><time>2026-08-15T19:54:51.000Z</time></trkpt>
        <trkpt lat="28.133562" lon="105.776052"><ele>1561.32</ele><time>2026-08-15T19:54:53.000Z</time></trkpt>
        <trkpt lat="28.133563" lon="105.776065"><ele>1561.7135</ele><time>2026-08-15T19:54:55.000Z</time></trkpt>
        <trkpt lat="28.133562" lon="105.776078"><ele>1562.0131</ele><time>2026-08-15T19:54:57.000Z</time></trkpt>
        <trkpt lat="28.133556" lon="105.776088"><ele>1562.2115</ele><time>2026-08-15T19:54:59.000Z</time></trkpt>
        <trkpt lat="28.133547" lon="105.776098"><ele>1562.463</ele><time>2026-08-15T19:55:01.000Z</time></trkpt>
        <trkpt lat="28.133535" lon="105.776107"><ele>1563.3567</ele><time>2026-08-15T19:55:03.000Z</time></trkpt>
        <trkpt lat="28.133524" lon="105.776115"><ele>1563.7142</ele><time>2026-08-15T19:55:05.000Z</time></trkpt>
        <trkpt lat="28.133509" lon="105.776128"><ele>1564.1584</ele><time>2026-08-15T19:55:07.000Z</time></trkpt>
        <trkpt lat="28.133498" lon="105.776142"><ele>1564.9491</ele><time>2026-08-15T19:55:09.000Z</time></trkpt>
        <trkpt lat="28.133488" lon="105.776152"><ele>1565.0021</ele><time>2026-08-15T19:55:11.000Z</time></trkpt>
        <trkpt lat="28.133481" lon="105.776158"><ele>1564.8007</ele><time>2026-08-15T19:55:12.000Z</time></trkpt>
        <trkpt lat="28.133474" lon="105.776166"><ele>1565.9982</ele><time>2026-08-15T19:55:16.000Z</time></trkpt>
        <trkpt lat="28.133463" lon="105.776183"><ele>1566.7179</ele><time>2026-08-15T19:55:18.000Z</time></trkpt>
        <trkpt lat="28.133464" lon="105.776184"><ele>1567.0455</ele><time>2026-08-15T19:55:22.000Z</time></trkpt>
        <trkpt lat="28.133476" lon="105.776211"><ele>1566.7896</ele><time>2026-08-15T19:55:26.000Z</time></trkpt>
        <trkpt lat="28.133482" lon="105.776227"><ele>1566.591</ele><time>2026-08-15T19:55:28.000Z</time></trkpt>
        <trkpt lat="28.133487" lon="105.776243"><ele>1566.7245</ele><time>2026-08-15T19:55:31.000Z</time></trkpt>
        <trkpt lat="28.133487" lon="105.77625"><ele>1567.2089</ele><time>2026-08-15T19:55:33.000Z</time></trkpt>
        <trkpt lat="28.133486" lon="105.776261"><ele>1568.3215</ele><time>2026-08-15T19:55:35.000Z</time></trkpt>
        <trkpt lat="28.133484" lon="105.776277"><ele>1569.0742</ele><time>2026-08-15T19:55:37.000Z</time></trkpt>
        <trkpt lat="28.133485" lon="105.776284"><ele>1568.6376</ele><time>2026-08-15T19:55:39.000Z</time></trkpt>
        <trkpt lat="28.13349" lon="105.776301"><ele>1568.8496</ele><time>2026-08-15T19:55:43.000Z</time></trkpt>
        <trkpt lat="28.133493" lon="105.776311"><ele>1569.5089</ele><time>2026-08-15T19:55:45.000Z</time></trkpt>
        <trkpt lat="28.133496" lon="105.776325"><ele>1570.3214</ele><time>2026-08-15T19:55:47.000Z</time></trkpt>
        <trkpt lat="28.133497" lon="105.776336"><ele>1570.4861</ele><time>2026-08-15T19:55:49.000Z</time></trkpt>
        <trkpt lat="28.133501" lon="105.776338"><ele>1570.5001</ele><time>2026-08-15T19:55:51.000Z</time></trkpt>
        <trkpt lat="28.133519" lon="105.776347"><ele>1570.0323</ele><time>2026-08-15T19:55:57.000Z</time></trkpt>
        <trkpt lat="28.133509" lon="105.776375"><ele>1571.0079</ele><time>2026-08-15T19:56:05.000Z</time></trkpt>
        <trkpt lat="28.133501" lon="105.7764"><ele>1571.2947</ele><time>2026-08-15T19:56:07.000Z</time></trkpt>
        <trkpt lat="28.133499" lon="105.776402"><ele>1571.5527</ele><time>2026-08-15T19:56:09.000Z</time></trkpt>
        <trkpt lat="28.133491" lon="105.776407"><ele>1571.566</ele><time>2026-08-15T19:56:13.000Z</time></trkpt>
        <trkpt lat="28.133462" lon="105.776425"><ele>1572.729</ele><time>2026-08-15T19:56:17.000Z</time></trkpt>
        <trkpt lat="28.133449" lon="105.776429"><ele>1573.4722</ele><time>2026-08-15T19:56:19.000Z</time></trkpt>
        <trkpt lat="28.133434" lon="105.776433"><ele>1572.7628</ele><time>2026-08-15T19:56:21.000Z</time></trkpt>
        <trkpt lat="28.13342" lon="105.776438"><ele>1572.8911</ele><time>2026-08-15T19:56:23.000Z</time></trkpt>
        <trkpt lat="28.13341" lon="105.776444"><ele>1573.4369</ele><time>2026-08-15T19:56:25.000Z</time></trkpt>
        <trkpt lat="28.1334" lon="105.77645"><ele>1574.1464</ele><time>2026-08-15T19:56:27.000Z</time></trkpt>
        <trkpt lat="28.13339" lon="105.776454"><ele>1574.7067</ele><time>2026-08-15T19:56:29.000Z</time></trkpt>
        <trkpt lat="28.133386" lon="105.776463"><ele>1573.9749</ele><time>2026-08-15T19:56:35.000Z</time></trkpt>
        <trkpt lat="28.133378" lon="105.776485"><ele>1573.372</ele><time>2026-08-15T19:56:37.000Z</time></trkpt>
        <trkpt lat="28.133377" lon="105.776486"><ele>1573.4506</ele><time>2026-08-15T19:56:39.000Z</time></trkpt>
        <trkpt lat="28.133366" lon="105.776506"><ele>1572.5319</ele><time>2026-08-15T19:56:43.000Z</time></trkpt>
        <trkpt lat="28.133356" lon="105.77653"><ele>1572.4503</ele><time>2026-08-15T19:56:45.000Z</time></trkpt>
        <trkpt lat="28.133347" lon="105.776555"><ele>1572.07</ele><time>2026-08-15T19:56:47.000Z</time></trkpt>
        <trkpt lat="28.133339" lon="105.776573"><ele>1571.1372</ele><time>2026-08-15T19:56:49.000Z</time></trkpt>
        <trkpt lat="28.133332" lon="105.776587"><ele>1570.2859</ele><time>2026-08-15T19:56:51.000Z</time></trkpt>
        <trkpt lat="28.133326" lon="105.776602"><ele>1570.0066</ele><time>2026-08-15T19:56:53.000Z</time></trkpt>
        <trkpt lat="28.13332" lon="105.776621"><ele>1569.633</ele><time>2026-08-15T19:56:55.000Z</time></trkpt>
        <trkpt lat="28.133316" lon="105.776634"><ele>1568.6248</ele><time>2026-08-15T19:56:57.000Z</time></trkpt>
        <trkpt lat="28.133309" lon="105.776648"><ele>1569.0333</ele><time>2026-08-15T19:56:59.000Z</time></trkpt>
        <trkpt lat="28.133301" lon="105.776661"><ele>1567.6658</ele><time>2026-08-15T19:57:01.000Z</time></trkpt>
        <trkpt lat="28.133291" lon="105.776673"><ele>1567.5717</ele><time>2026-08-15T19:57:03.000Z</time></trkpt>
        <trkpt lat="28.133278" lon="105.776688"><ele>1566.5006</ele><time>2026-08-15T19:57:05.000Z</time></trkpt>
        <trkpt lat="28.133265" lon="105.776705"><ele>1565.1759</ele><time>2026-08-15T19:57:07.000Z</time></trkpt>
        <trkpt lat="28.133251" lon="105.776724"><ele>1566.0812</ele><time>2026-08-15T19:57:09.000Z</time></trkpt>
        <trkpt lat="28.133239" lon="105.776743"><ele>1565.7406</ele><time>2026-08-15T19:57:11.000Z</time></trkpt>
        <trkpt lat="28.133228" lon="105.776761"><ele>1564.7617</ele><time>2026-08-15T19:57:13.000Z</time></trkpt>
        <trkpt lat="28.13322" lon="105.776778"><ele>1563.5958</ele><time>2026-08-15T19:57:15.000Z</time></trkpt>
        <trkpt lat="28.133212" lon="105.776793"><ele>1562.9689</ele><time>2026-08-15T19:57:17.000Z</time></trkpt>
        <trkpt lat="28.133206" lon="105.776809"><ele>1561.9615</ele><time>2026-08-15T19:57:18.000Z</time></trkpt>
        <trkpt lat="28.1332" lon="105.776826"><ele>1561.1669</ele><time>2026-08-15T19:57:20.000Z</time></trkpt>
        <trkpt lat="28.133195" lon="105.776845"><ele>1560.3804</ele><time>2026-08-15T19:57:22.000Z</time></trkpt>
        <trkpt lat="28.133189" lon="105.776863"><ele>1560.1746</ele><time>2026-08-15T19:57:24.000Z</time></trkpt>
        <trkpt lat="28.133183" lon="105.77688"><ele>1559.7593</ele><time>2026-08-15T19:57:26.000Z</time></trkpt>
        <trkpt lat="28.133179" lon="105.776898"><ele>1560.0371</ele><time>2026-08-15T19:57:28.000Z</time></trkpt>
        <trkpt lat="28.133172" lon="105.776918"><ele>1560.2177</ele><time>2026-08-15T19:57:30.000Z</time></trkpt>
        <trkpt lat="28.133168" lon="105.776936"><ele>1559.6188</ele><time>2026-08-15T19:57:32.000Z</time></trkpt>
        <trkpt lat="28.133162" lon="105.776953"><ele>1558.7905</ele><time>2026-08-15T19:57:34.000Z</time></trkpt>
        <trkpt lat="28.133157" lon="105.776969"><ele>1557.257</ele><time>2026-08-15T19:57:37.000Z</time></trkpt>
        <trkpt lat="28.133148" lon="105.776988"><ele>1556.1333</ele><time>2026-08-15T19:57:39.000Z</time></trkpt>
        <trkpt lat="28.133137" lon="105.777009"><ele>1556.2305</ele><time>2026-08-15T19:57:41.000Z</time></trkpt>
        <trkpt lat="28.133127" lon="105.777027"><ele>1555.7114</ele><time>2026-08-15T19:57:43.000Z</time></trkpt>
        <trkpt lat="28.133119" lon="105.777049"><ele>1555.7136</ele><time>2026-08-15T19:57:45.000Z</time></trkpt>
        <trkpt lat="28.133117" lon="105.777075"><ele>1555.5653</ele><time>2026-08-15T19:57:47.000Z</time></trkpt>
        <trkpt lat="28.133117" lon="105.777105"><ele>1556.289</ele><time>2026-08-15T19:57:49.000Z</time></trkpt>
        <trkpt lat="28.133117" lon="105.777134"><ele>1557.2006</ele><time>2026-08-15T19:57:51.000Z</time></trkpt>
        <trkpt lat="28.133114" lon="105.777162"><ele>1557.6317</ele><time>2026-08-15T19:57:53.000Z</time></trkpt>
        <trkpt lat="28.13311" lon="105.777181"><ele>1558.0726</ele><time>2026-08-15T19:57:55.000Z</time></trkpt>
        <trkpt lat="28.133109" lon="105.777197"><ele>1558.6814</ele><time>2026-08-15T19:57:57.000Z</time></trkpt>
        <trkpt lat="28.133108" lon="105.777207"><ele>1560.1213</ele><time>2026-08-15T19:57:59.000Z</time></trkpt>
        <trkpt lat="28.133105" lon="105.777217"><ele>1559.3651</ele><time>2026-08-15T19:58:01.000Z</time></trkpt>
        <trkpt lat="28.1331" lon="105.77723"><ele>1558.3677</ele><time>2026-08-15T19:58:03.000Z</time></trkpt>
        <trkpt lat="28.133089" lon="105.77725"><ele>1558.6857</ele><time>2026-08-15T19:58:05.000Z</time></trkpt>
        <trkpt lat="28.13308" lon="105.777265"><ele>1558.5583</ele><time>2026-08-15T19:58:07.000Z</time></trkpt>
        <trkpt lat="28.133068" lon="105.777284"><ele>1558.1844</ele><time>2026-08-15T19:58:09.000Z</time></trkpt>
        <trkpt lat="28.133057" lon="105.777306"><ele>1557.8508</ele><time>2026-08-15T19:58:11.000Z</time></trkpt>
        <trkpt lat="28.13305" lon="105.777324"><ele>1557.4121</ele><time>2026-08-15T19:58:13.000Z</time></trkpt>
        <trkpt lat="28.133046" lon="105.777341"><ele>1557.665</ele><time>2026-08-15T19:58:15.000Z</time></trkpt>
        <trkpt lat="28.133045" lon="105.777356"><ele>1556.7133</ele><time>2026-08-15T19:58:17.000Z</time></trkpt>
        <trkpt lat="28.133046" lon="105.777373"><ele>1556.5787</ele><time>2026-08-15T19:58:19.000Z</time></trkpt>
        <trkpt lat="28.133046" lon="105.777391"><ele>1555.5972</ele><time>2026-08-15T19:58:21.000Z</time></trkpt>
        <trkpt lat="28.133046" lon="105.77741"><ele>1554.8406</ele><time>2026-08-15T19:58:23.000Z</time></trkpt>
        <trkpt lat="28.133044" lon="105.777426"><ele>1554.296</ele><time>2026-08-15T19:58:25.000Z</time></trkpt>
        <trkpt lat="28.133043" lon="105.777441"><ele>1553.3397</ele><time>2026-08-15T19:58:27.000Z</time></trkpt>
        <trkpt lat="28.13304" lon="105.777459"><ele>1554.4513</ele><time>2026-08-15T19:58:29.000Z</time></trkpt>
        <trkpt lat="28.133037" lon="105.777474"><ele>1553.4344</ele><time>2026-08-15T19:58:31.000Z</time></trkpt>
        <trkpt lat="28.133035" lon="105.77749"><ele>1553.0009</ele><time>2026-08-15T19:58:33.000Z</time></trkpt>
        <trkpt lat="28.133035" lon="105.777505"><ele>1553.4719</ele><time>2026-08-15T19:58:35.000Z</time></trkpt>
        <trkpt lat="28.133036" lon="105.777518"><ele>1553.1422</ele><time>2026-08-15T19:58:37.000Z</time></trkpt>
        <trkpt lat="28.13304" lon="105.77753"><ele>1551.8278</ele><time>2026-08-15T19:58:39.000Z</time></trkpt>
        <trkpt lat="28.133045" lon="105.777544"><ele>1551.026</ele><time>2026-08-15T19:58:41.000Z</time></trkpt>
        <trkpt lat="28.13305" lon="105.777562"><ele>1551.1909</ele><time>2026-08-15T19:58:43.000Z</time></trkpt>
        <trkpt lat="28.133054" lon="105.777583"><ele>1552.1371</ele><time>2026-08-15T19:58:45.000Z</time></trkpt>
        <trkpt lat="28.133057" lon="105.777599"><ele>1551.3436</ele><time>2026-08-15T19:58:47.000Z</time></trkpt>
        <trkpt lat="28.13306" lon="105.777613"><ele>1551.7078</ele><time>2026-08-15T19:58:49.000Z</time></trkpt>
        <trkpt lat="28.133064" lon="105.777627"><ele>1553.2905</ele><time>2026-08-15T19:58:51.000Z</time></trkpt>
        <trkpt lat="28.133071" lon="105.777645"><ele>1552.5255</ele><time>2026-08-15T19:58:53.000Z</time></trkpt>
        <trkpt lat="28.13308" lon="105.777665"><ele>1552.8063</ele><time>2026-08-15T19:58:55.000Z</time></trkpt>
        <trkpt lat="28.133092" lon="105.777684"><ele>1552.824</ele><time>2026-08-15T19:58:57.000Z</time></trkpt>
        <trkpt lat="28.133103" lon="105.7777"><ele>1552.5656</ele><time>2026-08-15T19:58:59.000Z</time></trkpt>
        <trkpt lat="28.133114" lon="105.777718"><ele>1553.182</ele><time>2026-08-15T19:59:01.000Z</time></trkpt>
        <trkpt lat="28.133127" lon="105.77774"><ele>1553.1686</ele><time>2026-08-15T19:59:03.000Z</time></trkpt>
        <trkpt lat="28.133139" lon="105.77776"><ele>1553.7561</ele><time>2026-08-15T19:59:05.000Z</time></trkpt>
        <trkpt lat="28.133152" lon="105.777783"><ele>1553.2577</ele><time>2026-08-15T19:59:07.000Z</time></trkpt>
        <trkpt lat="28.133162" lon="105.777803"><ele>1553.5299</ele><time>2026-08-15T19:59:09.000Z</time></trkpt>
        <trkpt lat="28.133172" lon="105.777821"><ele>1553.6293</ele><time>2026-08-15T19:59:11.000Z</time></trkpt>
        <trkpt lat="28.133179" lon="105.777834"><ele>1553.7323</ele><time>2026-08-15T19:59:13.000Z</time></trkpt>
        <trkpt lat="28.133186" lon="105.777847"><ele>1553.4285</ele><time>2026-08-15T19:59:15.000Z</time></trkpt>
        <trkpt lat="28.133196" lon="105.777869"><ele>1553.6172</ele><time>2026-08-15T19:59:17.000Z</time></trkpt>
        <trkpt lat="28.133202" lon="105.777887"><ele>1555.1874</ele><time>2026-08-15T19:59:19.000Z</time></trkpt>
        <trkpt lat="28.133204" lon="105.7779"><ele>1556.05</ele><time>2026-08-15T19:59:21.000Z</time></trkpt>
        <trkpt lat="28.133205" lon="105.777908"><ele>1555.8065</ele><time>2026-08-15T19:59:23.000Z</time></trkpt>
        <trkpt lat="28.133213" lon="105.777934"><ele>1554.2927</ele><time>2026-08-15T19:59:26.000Z</time></trkpt>
        <trkpt lat="28.133217" lon="105.77795"><ele>1553.3638</ele><time>2026-08-15T19:59:28.000Z</time></trkpt>
        <trkpt lat="28.133221" lon="105.777963"><ele>1552.8226</ele><time>2026-08-15T19:59:30.000Z</time></trkpt>
      </trkseg>
      <trkseg>
        <trkpt lat="28.133314" lon="105.777961"><ele>1555.6791</ele><time>2026-08-15T19:59:55.000Z</time></trkpt>
        <trkpt lat="28.133352" lon="105.777976"><ele>1557.045</ele><time>2026-08-15T20:00:07.000Z</time></trkpt>
        <trkpt lat="28.133357" lon="105.777973"><ele>1557.2155</ele><time>2026-08-15T20:00:09.000Z</time></trkpt>
        <trkpt lat="28.133372" lon="105.777966"><ele>1557.9362</ele><time>2026-08-15T20:00:11.000Z</time></trkpt>
        <trkpt lat="28.133378" lon="105.777961"><ele>1558.196</ele><time>2026-08-15T20:00:13.000Z</time></trkpt>
        <trkpt lat="28.13339" lon="105.777956"><ele>1557.7325</ele><time>2026-08-15T20:00:23.000Z</time></trkpt>
        <trkpt lat="28.133402" lon="105.777948"><ele>1557.7661</ele><time>2026-08-15T20:00:27.000Z</time></trkpt>
        <trkpt lat="28.133412" lon="105.777939"><ele>1557.2456</ele><time>2026-08-15T20:00:29.000Z</time></trkpt>
        <trkpt lat="28.133421" lon="105.77793"><ele>1557.4774</ele><time>2026-08-15T20:00:31.000Z</time></trkpt>
        <trkpt lat="28.133425" lon="105.777925"><ele>1557.6694</ele><time>2026-08-15T20:00:35.000Z</time></trkpt>
        <trkpt lat="28.133435" lon="105.777913"><ele>1558.3772</ele><time>2026-08-15T20:00:37.000Z</time></trkpt>
        <trkpt lat="28.13345" lon="105.777896"><ele>1557.746</ele><time>2026-08-15T20:00:39.000Z</time></trkpt>
        <trkpt lat="28.133464" lon="105.777881"><ele>1557.4884</ele><time>2026-08-15T20:00:41.000Z</time></trkpt>
        <trkpt lat="28.13347" lon="105.777875"><ele>1557.4247</ele><time>2026-08-15T20:00:43.000Z</time></trkpt>
        <trkpt lat="28.13347" lon="105.777873"><ele>1557.2095</ele><time>2026-08-15T20:00:45.000Z</time></trkpt>
        <trkpt lat="28.133469" lon="105.777846"><ele>1559.2935</ele><time>2026-08-15T20:00:55.000Z</time></trkpt>
        <trkpt lat="28.133468" lon="105.777827"><ele>1559.2635</ele><time>2026-08-15T20:00:57.000Z</time></trkpt>
        <trkpt lat="28.133468" lon="105.777825"><ele>1559.2643</ele><time>2026-08-15T20:00:59.000Z</time></trkpt>
        <trkpt lat="28.133471" lon="105.777811"><ele>1560.6836</ele><time>2026-08-15T20:01:03.000Z</time></trkpt>
        <trkpt lat="28.133477" lon="105.777791"><ele>1562.0608</ele><time>2026-08-15T20:01:05.000Z</time></trkpt>
        <trkpt lat="28.133483" lon="105.777772"><ele>1562.1788</ele><time>2026-08-15T20:01:07.000Z</time></trkpt>
        <trkpt lat="28.133489" lon="105.777756"><ele>1562.199</ele><time>2026-08-15T20:01:09.000Z</time></trkpt>
        <trkpt lat="28.133495" lon="105.777743"><ele>1562.4495</ele><time>2026-08-15T20:01:11.000Z</time></trkpt>
        <trkpt lat="28.133498" lon="105.777732"><ele>1562.4745</ele><time>2026-08-15T20:01:13.000Z</time></trkpt>
        <trkpt lat="28.1335" lon="105.777724"><ele>1562.9059</ele><time>2026-08-15T20:01:15.000Z</time></trkpt>
        <trkpt lat="28.133503" lon="105.777705"><ele>1561.5686</ele><time>2026-08-15T20:01:19.000Z</time></trkpt>
        <trkpt lat="28.133506" lon="105.777695"><ele>1560.7921</ele><time>2026-08-15T20:01:21.000Z</time></trkpt>
        <trkpt lat="28.133505" lon="105.77769"><ele>1561.3228</ele><time>2026-08-15T20:01:23.000Z</time></trkpt>
        <trkpt lat="28.133498" lon="105.777665"><ele>1561.462</ele><time>2026-08-15T20:01:28.000Z</time></trkpt>
        <trkpt lat="28.133498" lon="105.777661"><ele>1561.1896</ele><time>2026-08-15T20:01:31.000Z</time></trkpt>
        <trkpt lat="28.1335" lon="105.777647"><ele>1561.3268</ele><time>2026-08-15T20:01:33.000Z</time></trkpt>
        <trkpt lat="28.133504" lon="105.777626"><ele>1560.2229</ele><time>2026-08-15T20:01:35.000Z</time></trkpt>
        <trkpt lat="28.13351" lon="105.777601"><ele>1559.9177</ele><time>2026-08-15T20:01:37.000Z</time></trkpt>
        <trkpt lat="28.133518" lon="105.777582"><ele>1560.4633</ele><time>2026-08-15T20:01:39.000Z</time></trkpt>
        <trkpt lat="28.133529" lon="105.777564"><ele>1560.3282</ele><time>2026-08-15T20:01:41.000Z</time></trkpt>
        <trkpt lat="28.133539" lon="105.777545"><ele>1560.575</ele><time>2026-08-15T20:01:43.000Z</time></trkpt>
        <trkpt lat="28.133551" lon="105.777528"><ele>1560.5426</ele><time>2026-08-15T20:01:45.000Z</time></trkpt>
        <trkpt lat="28.133563" lon="105.777509"><ele>1559.8593</ele><time>2026-08-15T20:01:47.000Z</time></trkpt>
        <trkpt lat="28.133573" lon="105.777492"><ele>1559.8469</ele><time>2026-08-15T20:01:49.000Z</time></trkpt>
        <trkpt lat="28.133584" lon="105.777474"><ele>1559.2157</ele><time>2026-08-15T20:01:51.000Z</time></trkpt>
        <trkpt lat="28.133593" lon="105.777455"><ele>1558.6251</ele><time>2026-08-15T20:01:53.000Z</time></trkpt>
        <trkpt lat="28.133602" lon="105.777437"><ele>1559.0895</ele><time>2026-08-15T20:01:55.000Z</time></trkpt>
        <trkpt lat="28.133611" lon="105.777421"><ele>1558.8994</ele><time>2026-08-15T20:01:57.000Z</time></trkpt>
        <trkpt lat="28.133621" lon="105.777406"><ele>1559.6799</ele><time>2026-08-15T20:01:59.000Z</time></trkpt>
        <trkpt lat="28.133632" lon="105.777396"><ele>1559.6562</ele><time>2026-08-15T20:02:02.000Z</time></trkpt>
        <trkpt lat="28.133644" lon="105.777389"><ele>1559.2789</ele><time>2026-08-15T20:02:04.000Z</time></trkpt>
        <trkpt lat="28.133665" lon="105.777383"><ele>1559.7277</ele><time>2026-08-15T20:02:06.000Z</time></trkpt>
        <trkpt lat="28.133685" lon="105.777381"><ele>1558.4764</ele><time>2026-08-15T20:02:08.000Z</time></trkpt>
        <trkpt lat="28.133709" lon="105.77738"><ele>1557.8862</ele><time>2026-08-15T20:02:10.000Z</time></trkpt>
        <trkpt lat="28.133732" lon="105.777378"><ele>1558.1754</ele><time>2026-08-15T20:02:12.000Z</time></trkpt>
        <trkpt lat="28.133759" lon="105.777376"><ele>1557.6117</ele><time>2026-08-15T20:02:14.000Z</time></trkpt>
        <trkpt lat="28.133782" lon="105.777373"><ele>1557.4149</ele><time>2026-08-15T20:02:16.000Z</time></trkpt>
        <trkpt lat="28.133801" lon="105.77737"><ele>1558.0017</ele><time>2026-08-15T20:02:18.000Z</time></trkpt>
        <trkpt lat="28.133819" lon="105.777368"><ele>1558.3251</ele><time>2026-08-15T20:02:20.000Z</time></trkpt>
        <trkpt lat="28.133841" lon="105.777365"><ele>1559.1903</ele><time>2026-08-15T20:02:22.000Z</time></trkpt>
        <trkpt lat="28.133867" lon="105.777358"><ele>1559.0084</ele><time>2026-08-15T20:02:24.000Z</time></trkpt>
        <trkpt lat="28.133887" lon="105.777347"><ele>1559.3834</ele><time>2026-08-15T20:02:26.000Z</time></trkpt>
        <trkpt lat="28.133901" lon="105.777334"><ele>1559.8945</ele><time>2026-08-15T20:02:28.000Z</time></trkpt>
        <trkpt lat="28.133917" lon="105.777316"><ele>1560.7516</ele><time>2026-08-15T20:02:30.000Z</time></trkpt>
        <trkpt lat="28.13393" lon="105.777298"><ele>1561.0343</ele><time>2026-08-15T20:02:32.000Z</time></trkpt>
        <trkpt lat="28.133944" lon="105.777275"><ele>1561.1407</ele><time>2026-08-15T20:02:34.000Z</time></trkpt>
        <trkpt lat="28.133959" lon="105.777252"><ele>1561.775</ele><time>2026-08-15T20:02:36.000Z</time></trkpt>
        <trkpt lat="28.13397" lon="105.777235"><ele>1561.8158</ele><time>2026-08-15T20:02:38.000Z</time></trkpt>
        <trkpt lat="28.133981" lon="105.777219"><ele>1562.5431</ele><time>2026-08-15T20:02:40.000Z</time></trkpt>
        <trkpt lat="28.133993" lon="105.777203"><ele>1562.4072</ele><time>2026-08-15T20:02:42.000Z</time></trkpt>
        <trkpt lat="28.134" lon="105.777193"><ele>1562.138</ele><time>2026-08-15T20:02:44.000Z</time></trkpt>
        <trkpt lat="28.134007" lon="105.77719"><ele>1562.1648</ele><time>2026-08-15T20:02:46.000Z</time></trkpt>
        <trkpt lat="28.134025" lon="105.777184"><ele>1561.6876</ele><time>2026-08-15T20:02:50.000Z</time></trkpt>
        <trkpt lat="28.134044" lon="105.77718"><ele>1561.4866</ele><time>2026-08-15T20:02:52.000Z</time></trkpt>
        <trkpt lat="28.134062" lon="105.777183"><ele>1560.9354</ele><time>2026-08-15T20:02:54.000Z</time></trkpt>
        <trkpt lat="28.134075" lon="105.777189"><ele>1560.2245</ele><time>2026-08-15T20:02:56.000Z</time></trkpt>
        <trkpt lat="28.134095" lon="105.777196"><ele>1559.9481</ele><time>2026-08-15T20:02:58.000Z</time></trkpt>
        <trkpt lat="28.134117" lon="105.777203"><ele>1560.1926</ele><time>2026-08-15T20:03:00.000Z</time></trkpt>
        <trkpt lat="28.134141" lon="105.777211"><ele>1558.8362</ele><time>2026-08-15T20:03:02.000Z</time></trkpt>
        <trkpt lat="28.134163" lon="105.777217"><ele>1557.9296</ele><time>2026-08-15T20:03:04.000Z</time></trkpt>
        <trkpt lat="28.134182" lon="105.777224"><ele>1558.3394</ele><time>2026-08-15T20:03:06.000Z</time></trkpt>
        <trkpt lat="28.134198" lon="105.777228"><ele>1558.6913</ele><time>2026-08-15T20:03:08.000Z</time></trkpt>
        <trkpt lat="28.13421" lon="105.777229"><ele>1558.6478</ele><time>2026-08-15T20:03:10.000Z</time></trkpt>
        <trkpt lat="28.134225" lon="105.777231"><ele>1558.7533</ele><time>2026-08-15T20:03:12.000Z</time></trkpt>
        <trkpt lat="28.134243" lon="105.777234"><ele>1558.4353</ele><time>2026-08-15T20:03:14.000Z</time></trkpt>
        <trkpt lat="28.134258" lon="105.777238"><ele>1558.5443</ele><time>2026-08-15T20:03:16.000Z</time></trkpt>
        <trkpt lat="28.134272" lon="105.777246"><ele>1558.4534</ele><time>2026-08-15T20:03:18.000Z</time></trkpt>
        <trkpt lat="28.134285" lon="105.777257"><ele>1558.8585</ele><time>2026-08-15T20:03:20.000Z</time></trkpt>
        <trkpt lat="28.134294" lon="105.777268"><ele>1558.0593</ele><time>2026-08-15T20:03:22.000Z</time></trkpt>
        <trkpt lat="28.134305" lon="105.777278"><ele>1558.8523</ele><time>2026-08-15T20:03:24.000Z</time></trkpt>
        <trkpt lat="28.134316" lon="105.777287"><ele>1558.9939</ele><time>2026-08-15T20:03:26.000Z</time></trkpt>
        <trkpt lat="28.134331" lon="105.777298"><ele>1558.7399</ele><time>2026-08-15T20:03:28.000Z</time></trkpt>
        <trkpt lat="28.134346" lon="105.777309"><ele>1558.3712</ele><time>2026-08-15T20:03:30.000Z</time></trkpt>
        <trkpt lat="28.134362" lon="105.777326"><ele>1557.9219</ele><time>2026-08-15T20:03:32.000Z</time></trkpt>
        <trkpt lat="28.134375" lon="105.777343"><ele>1557.7485</ele><time>2026-08-15T20:03:34.000Z</time></trkpt>
        <trkpt lat="28.134391" lon="105.777362"><ele>1557.0039</ele><time>2026-08-15T20:03:36.000Z</time></trkpt>
        <trkpt lat="28.134404" lon="105.77738"><ele>1557.5211</ele><time>2026-08-15T20:03:37.000Z</time></trkpt>
        <trkpt lat="28.134418" lon="105.777398"><ele>1557.4424</ele><time>2026-08-15T20:03:39.000Z</time></trkpt>
        <trkpt lat="28.134428" lon="105.777417"><ele>1556.5582</ele><time>2026-08-15T20:03:41.000Z</time></trkpt>
        <trkpt lat="28.134436" lon="105.777434"><ele>1555.8248</ele><time>2026-08-15T20:03:44.000Z</time></trkpt>
        <trkpt lat="28.134443" lon="105.777455"><ele>1556.1854</ele><time>2026-08-15T20:03:46.000Z</time></trkpt>
        <trkpt lat="28.134448" lon="105.777476"><ele>1556.5566</ele><time>2026-08-15T20:03:48.000Z</time></trkpt>
        <trkpt lat="28.134452" lon="105.777498"><ele>1556.2008</ele><time>2026-08-15T20:03:50.000Z</time></trkpt>
        <trkpt lat="28.134457" lon="105.777514"><ele>1556.3229</ele><time>2026-08-15T20:03:52.000Z</time></trkpt>
        <trkpt lat="28.134465" lon="105.777538"><ele>1556.3535</ele><time>2026-08-15T20:03:54.000Z</time></trkpt>
        <trkpt lat="28.134474" lon="105.777564"><ele>1556.1173</ele><time>2026-08-15T20:03:56.000Z</time></trkpt>
        <trkpt lat="28.134483" lon="105.777589"><ele>1556.81</ele><time>2026-08-15T20:03:58.000Z</time></trkpt>
        <trkpt lat="28.134489" lon="105.777614"><ele>1557.2411</ele><time>2026-08-15T20:04:00.000Z</time></trkpt>
        <trkpt lat="28.134491" lon="105.777637"><ele>1557.0441</ele><time>2026-08-15T20:04:02.000Z</time></trkpt>
        <trkpt lat="28.134487" lon="105.777657"><ele>1557.3274</ele><time>2026-08-15T20:04:04.000Z</time></trkpt>
        <trkpt lat="28.134481" lon="105.777677"><ele>1557.5133</ele><time>2026-08-15T20:04:06.000Z</time></trkpt>
        <trkpt lat="28.134473" lon="105.777699"><ele>1557.738</ele><time>2026-08-15T20:04:08.000Z</time></trkpt>
        <trkpt lat="28.134467" lon="105.777719"><ele>1556.6768</ele><time>2026-08-15T20:04:10.000Z</time></trkpt>
        <trkpt lat="28.134466" lon="105.777739"><ele>1556.8057</ele><time>2026-08-15T20:04:12.000Z</time></trkpt>
        <trkpt lat="28.134467" lon="105.777757"><ele>1556.4513</ele><time>2026-08-15T20:04:14.000Z</time></trkpt>
        <trkpt lat="28.13447" lon="105.777776"><ele>1555.6176</ele><time>2026-08-15T20:04:16.000Z</time></trkpt>
        <trkpt lat="28.134474" lon="105.777796"><ele>1554.9174</ele><time>2026-08-15T20:04:18.000Z</time></trkpt>
        <trkpt lat="28.134479" lon="105.777816"><ele>1554.2385</ele><time>2026-08-15T20:04:20.000Z</time></trkpt>
        <trkpt lat="28.134482" lon="105.777841"><ele>1553.8864</ele><time>2026-08-15T20:04:22.000Z</time></trkpt>
        <trkpt lat="28.134484" lon="105.777867"><ele>1553.6573</ele><time>2026-08-15T20:04:24.000Z</time></trkpt>
        <trkpt lat="28.134484" lon="105.777895"><ele>1553.4875</ele><time>2026-08-15T20:04:26.000Z</time></trkpt>
        <trkpt lat="28.134484" lon="105.777923"><ele>1553.2383</ele><time>2026-08-15T20:04:28.000Z</time></trkpt>
        <trkpt lat="28.13448" lon="105.777949"><ele>1553.6923</ele><time>2026-08-15T20:04:30.000Z</time></trkpt>
        <trkpt lat="28.134475" lon="105.777977"><ele>1551.9717</ele><time>2026-08-15T20:04:32.000Z</time></trkpt>
        <trkpt lat="28.13447" lon="105.778011"><ele>1551.2687</ele><time>2026-08-15T20:04:34.000Z</time></trkpt>
        <trkpt lat="28.134466" lon="105.778042"><ele>1551.8375</ele><time>2026-08-15T20:04:36.000Z</time></trkpt>
        <trkpt lat="28.13446" lon="105.778074"><ele>1551.3765</ele><time>2026-08-15T20:04:38.000Z</time></trkpt>
        <trkpt lat="28.134455" lon="105.778092"><ele>1551.5826</ele><time>2026-08-15T20:04:40.000Z</time></trkpt>
        <trkpt lat="28.134449" lon="105.778107"><ele>1551.1984</ele><time>2026-08-15T20:04:42.000Z</time></trkpt>
        <trkpt lat="28.13444" lon="105.778124"><ele>1552.22</ele><time>2026-08-15T20:04:44.000Z</time></trkpt>
        <trkpt lat="28.134432" lon="105.778142"><ele>1552.3153</ele><time>2026-08-15T20:04:46.000Z</time></trkpt>
        <trkpt lat="28.134427" lon="105.778163"><ele>1550.4762</ele><time>2026-08-15T20:04:48.000Z</time></trkpt>
        <trkpt lat="28.134427" lon="105.77818"><ele>1550.5138</ele><time>2026-08-15T20:04:50.000Z</time></trkpt>
        <trkpt lat="28.13443" lon="105.778201"><ele>1550.2201</ele><time>2026-08-15T20:04:52.000Z</time></trkpt>
        <trkpt lat="28.134433" lon="105.778224"><ele>1549.6201</ele><time>2026-08-15T20:04:54.000Z</time></trkpt>
        <trkpt lat="28.134435" lon="105.778245"><ele>1549.1104</ele><time>2026-08-15T20:04:56.000Z</time></trkpt>
        <trkpt lat="28.13444" lon="105.778265"><ele>1548.4584</ele><time>2026-08-15T20:04:58.000Z</time></trkpt>
        <trkpt lat="28.134448" lon="105.778286"><ele>1547.981</ele><time>2026-08-15T20:05:00.000Z</time></trkpt>
        <trkpt lat="28.134456" lon="105.778306"><ele>1548.7405</ele><time>2026-08-15T20:05:02.000Z</time></trkpt>
        <trkpt lat="28.134462" lon="105.778326"><ele>1548.005</ele><time>2026-08-15T20:05:04.000Z</time></trkpt>
        <trkpt lat="28.134465" lon="105.778341"><ele>1548.7612</ele><time>2026-08-15T20:05:06.000Z</time></trkpt>
        <trkpt lat="28.134467" lon="105.778357"><ele>1550.6943</ele><time>2026-08-15T20:05:08.000Z</time></trkpt>
        <trkpt lat="28.13447" lon="105.778372"><ele>1553.0596</ele><time>2026-08-15T20:05:10.000Z</time></trkpt>
        <trkpt lat="28.134475" lon="105.778386"><ele>1551.6484</ele><time>2026-08-15T20:05:12.000Z</time></trkpt>
        <trkpt lat="28.13448" lon="105.778401"><ele>1550.6195</ele><time>2026-08-15T20:05:14.000Z</time></trkpt>
        <trkpt lat="28.134479" lon="105.778415"><ele>1550.3093</ele><time>2026-08-15T20:05:16.000Z</time></trkpt>
        <trkpt lat="28.134473" lon="105.778433"><ele>1549.3156</ele><time>2026-08-15T20:05:18.000Z</time></trkpt>
        <trkpt lat="28.134463" lon="105.778452"><ele>1548.7888</ele><time>2026-08-15T20:05:20.000Z</time></trkpt>
        <trkpt lat="28.134447" lon="105.778473"><ele>1547.5563</ele><time>2026-08-15T20:05:22.000Z</time></trkpt>
        <trkpt lat="28.134429" lon="105.778498"><ele>1546.4543</ele><time>2026-08-15T20:05:24.000Z</time></trkpt>
        <trkpt lat="28.134415" lon="105.778521"><ele>1546.5044</ele><time>2026-08-15T20:05:26.000Z</time></trkpt>
        <trkpt lat="28.134404" lon="105.778545"><ele>1547.2249</ele><time>2026-08-15T20:05:28.000Z</time></trkpt>
        <trkpt lat="28.134394" lon="105.778565"><ele>1548.0571</ele><time>2026-08-15T20:05:30.000Z</time></trkpt>
        <trkpt lat="28.134384" lon="105.77859"><ele>1547.3977</ele><time>2026-08-15T20:05:32.000Z</time></trkpt>
        <trkpt lat="28.134376" lon="105.778612"><ele>1547.237</ele><time>2026-08-15T20:05:34.000Z</time></trkpt>
        <trkpt lat="28.134369" lon="105.778635"><ele>1547.2748</ele><time>2026-08-15T20:05:36.000Z</time></trkpt>
        <trkpt lat="28.134362" lon="105.778657"><ele>1546.883</ele><time>2026-08-15T20:05:38.000Z</time></trkpt>
        <trkpt lat="28.134355" lon="105.778679"><ele>1547.2994</ele><time>2026-08-15T20:05:40.000Z</time></trkpt>
        <trkpt lat="28.134348" lon="105.778699"><ele>1547.6317</ele><time>2026-08-15T20:05:42.000Z</time></trkpt>
        <trkpt lat="28.13434" lon="105.778717"><ele>1546.8586</ele><time>2026-08-15T20:05:44.000Z</time></trkpt>
        <trkpt lat="28.134334" lon="105.778738"><ele>1546.8888</ele><time>2026-08-15T20:05:46.000Z</time></trkpt>
        <trkpt lat="28.134325" lon="105.778763"><ele>1548.004</ele><time>2026-08-15T20:05:48.000Z</time></trkpt>
        <trkpt lat="28.134318" lon="105.778788"><ele>1548.1062</ele><time>2026-08-15T20:05:50.000Z</time></trkpt>
        <trkpt lat="28.134313" lon="105.778815"><ele>1547.8564</ele><time>2026-08-15T20:05:52.000Z</time></trkpt>
        <trkpt lat="28.13431" lon="105.77884"><ele>1548.6616</ele><time>2026-08-15T20:05:54.000Z</time></trkpt>
        <trkpt lat="28.134312" lon="105.778863"><ele>1548.4044</ele><time>2026-08-15T20:05:56.000Z</time></trkpt>
        <trkpt lat="28.134316" lon="105.778882"><ele>1549.0299</ele><time>2026-08-15T20:05:58.000Z</time></trkpt>
        <trkpt lat="28.134322" lon="105.778897"><ele>1549.163</ele><time>2026-08-15T20:06:00.000Z</time></trkpt>
        <trkpt lat="28.13433" lon="105.778911"><ele>1548.7098</ele><time>2026-08-15T20:06:02.000Z</time></trkpt>
        <trkpt lat="28.134335" lon="105.778925"><ele>1549.1576</ele><time>2026-08-15T20:06:04.000Z</time></trkpt>
        <trkpt lat="28.134336" lon="105.778935"><ele>1548.6604</ele><time>2026-08-15T20:06:06.000Z</time></trkpt>
        <trkpt lat="28.134336" lon="105.778951"><ele>1548.6571</ele><time>2026-08-15T20:06:08.000Z</time></trkpt>
        <trkpt lat="28.134332" lon="105.778974"><ele>1548.6035</ele><time>2026-08-15T20:06:10.000Z</time></trkpt>
        <trkpt lat="28.134327" lon="105.778998"><ele>1548.2341</ele><time>2026-08-15T20:06:12.000Z</time></trkpt>
        <trkpt lat="28.134324" lon="105.77902"><ele>1548.1744</ele><time>2026-08-15T20:06:14.000Z</time></trkpt>
        <trkpt lat="28.134318" lon="105.779042"><ele>1548.0219</ele><time>2026-08-15T20:06:16.000Z</time></trkpt>
        <trkpt lat="28.134309" lon="105.779062"><ele>1548.0197</ele><time>2026-08-15T20:06:18.000Z</time></trkpt>
        <trkpt lat="28.134298" lon="105.779078"><ele>1547.7893</ele><time>2026-08-15T20:06:20.000Z</time></trkpt>
        <trkpt lat="28.134284" lon="105.779093"><ele>1548.3832</ele><time>2026-08-15T20:06:22.000Z</time></trkpt>
        <trkpt lat="28.134268" lon="105.779103"><ele>1548.8507</ele><time>2026-08-15T20:06:24.000Z</time></trkpt>
        <trkpt lat="28.13425" lon="105.77911"><ele>1548.1913</ele><time>2026-08-15T20:06:26.000Z</time></trkpt>
        <trkpt lat="28.13423" lon="105.779118"><ele>1547.9888</ele><time>2026-08-15T20:06:28.000Z</time></trkpt>
        <trkpt lat="28.134217" lon="105.779125"><ele>1547.4598</ele><time>2026-08-15T20:06:30.000Z</time></trkpt>
        <trkpt lat="28.134208" lon="105.779138"><ele>1546.5088</ele><time>2026-08-15T20:06:32.000Z</time></trkpt>
        <trkpt lat="28.134208" lon="105.779151"><ele>1548.0521</ele><time>2026-08-15T20:06:34.000Z</time></trkpt>
        <trkpt lat="28.134212" lon="105.779168"><ele>1548.2484</ele><time>2026-08-15T20:06:36.000Z</time></trkpt>
        <trkpt lat="28.13422" lon="105.779186"><ele>1548.4365</ele><time>2026-08-15T20:06:38.000Z</time></trkpt>
        <trkpt lat="28.13423" lon="105.779206"><ele>1549.0955</ele><time>2026-08-15T20:06:40.000Z</time></trkpt>
        <trkpt lat="28.134242" lon="105.779224"><ele>1549.0072</ele><time>2026-08-15T20:06:42.000Z</time></trkpt>
        <trkpt lat="28.134254" lon="105.779242"><ele>1548.7432</ele><time>2026-08-15T20:06:44.000Z</time></trkpt>
        <trkpt lat="28.134266" lon="105.779261"><ele>1547.6119</ele><time>2026-08-15T20:06:46.000Z</time></trkpt>
        <trkpt lat="28.134274" lon="105.779282"><ele>1546.528</ele><time>2026-08-15T20:06:48.000Z</time></trkpt>
        <trkpt lat="28.13428" lon="105.779306"><ele>1545.5355</ele><time>2026-08-15T20:06:50.000Z</time></trkpt>
        <trkpt lat="28.134281" lon="105.77933"><ele>1545.493</ele><time>2026-08-15T20:06:52.000Z</time></trkpt>
        <trkpt lat="28.134279" lon="105.779353"><ele>1545.2206</ele><time>2026-08-15T20:06:54.000Z</time></trkpt>
        <trkpt lat="28.134274" lon="105.779378"><ele>1545.392</ele><time>2026-08-15T20:06:56.000Z</time></trkpt>
        <trkpt lat="28.134268" lon="105.779406"><ele>1545.7445</ele><time>2026-08-15T20:06:58.000Z</time></trkpt>
        <trkpt lat="28.134263" lon="105.779435"><ele>1546.7555</ele><time>2026-08-15T20:07:00.000Z</time></trkpt>
        <trkpt lat="28.134257" lon="105.779467"><ele>1547.4949</ele><time>2026-08-15T20:07:02.000Z</time></trkpt>
        <trkpt lat="28.134251" lon="105.779501"><ele>1547.6598</ele><time>2026-08-15T20:07:04.000Z</time></trkpt>
        <trkpt lat="28.134246" lon="105.779534"><ele>1548.4191</ele><time>2026-08-15T20:07:06.000Z</time></trkpt>
        <trkpt lat="28.134241" lon="105.779561"><ele>1548.4744</ele><time>2026-08-15T20:07:08.000Z</time></trkpt>
        <trkpt lat="28.134234" lon="105.779587"><ele>1548.0682</ele><time>2026-08-15T20:07:10.000Z</time></trkpt>
        <trkpt lat="28.134226" lon="105.779615"><ele>1549.0282</ele><time>2026-08-15T20:07:12.000Z</time></trkpt>
        <trkpt lat="28.134219" lon="105.779645"><ele>1548.7432</ele><time>2026-08-15T20:07:14.000Z</time></trkpt>
        <trkpt lat="28.134215" lon="105.779676"><ele>1549.0116</ele><time>2026-08-15T20:07:16.000Z</time></trkpt>
        <trkpt lat="28.134214" lon="105.779697"><ele>1549.3627</ele><time>2026-08-15T20:07:18.000Z</time></trkpt>
        <trkpt lat="28.134217" lon="105.77972"><ele>1549.7451</ele><time>2026-08-15T20:07:20.000Z</time></trkpt>
        <trkpt lat="28.134219" lon="105.779745"><ele>1550.3977</ele><time>2026-08-15T20:07:22.000Z</time></trkpt>
        <trkpt lat="28.13422" lon="105.779769"><ele>1550.651</ele><time>2026-08-15T20:07:24.000Z</time></trkpt>
        <trkpt lat="28.134218" lon="105.77979"><ele>1550.2599</ele><time>2026-08-15T20:07:26.000Z</time></trkpt>
        <trkpt lat="28.134214" lon="105.779808"><ele>1549.7002</ele><time>2026-08-15T20:07:28.000Z</time></trkpt>
        <trkpt lat="28.134208" lon="105.779827"><ele>1549.3676</ele><time>2026-08-15T20:07:30.000Z</time></trkpt>
        <trkpt lat="28.134198" lon="105.77985"><ele>1549.0801</ele><time>2026-08-15T20:07:32.000Z</time></trkpt>
        <trkpt lat="28.134184" lon="105.779873"><ele>1549.3795</ele><time>2026-08-15T20:07:34.000Z</time></trkpt>
        <trkpt lat="28.134167" lon="105.7799"><ele>1549.1309</ele><time>2026-08-15T20:07:36.000Z</time></trkpt>
        <trkpt lat="28.134155" lon="105.779927"><ele>1549.3423</ele><time>2026-08-15T20:07:38.000Z</time></trkpt>
        <trkpt lat="28.134149" lon="105.779951"><ele>1548.6873</ele><time>2026-08-15T20:07:40.000Z</time></trkpt>
        <trkpt lat="28.134147" lon="105.779975"><ele>1548.4663</ele><time>2026-08-15T20:07:42.000Z</time></trkpt>
        <trkpt lat="28.134148" lon="105.78"><ele>1548.5211</ele><time>2026-08-15T20:07:44.000Z</time></trkpt>
        <trkpt lat="28.134151" lon="105.78003"><ele>1547.7218</ele><time>2026-08-15T20:07:46.000Z</time></trkpt>
        <trkpt lat="28.134154" lon="105.780061"><ele>1547.9601</ele><time>2026-08-15T20:07:48.000Z</time></trkpt>
        <trkpt lat="28.134156" lon="105.78009"><ele>1547.8589</ele><time>2026-08-15T20:07:50.000Z</time></trkpt>
        <trkpt lat="28.134153" lon="105.78012"><ele>1548.3225</ele><time>2026-08-15T20:07:52.000Z</time></trkpt>
        <trkpt lat="28.134148" lon="105.780141"><ele>1547.9867</ele><time>2026-08-15T20:07:54.000Z</time></trkpt>
        <trkpt lat="28.134142" lon="105.780162"><ele>1547.9675</ele><time>2026-08-15T20:07:56.000Z</time></trkpt>
        <trkpt lat="28.134134" lon="105.780182"><ele>1547.2307</ele><time>2026-08-15T20:07:58.000Z</time></trkpt>
        <trkpt lat="28.134126" lon="105.780198"><ele>1546.6466</ele><time>2026-08-15T20:08:00.000Z</time></trkpt>
        <trkpt lat="28.134119" lon="105.780212"><ele>1546.1406</ele><time>2026-08-15T20:08:02.000Z</time></trkpt>
        <trkpt lat="28.134121" lon="105.780218"><ele>1546.8856</ele><time>2026-08-15T20:08:04.000Z</time></trkpt>
        <trkpt lat="28.134127" lon="105.780229"><ele>1546.6178</ele><time>2026-08-15T20:08:10.000Z</time></trkpt>
        <trkpt lat="28.13414" lon="105.780241"><ele>1547.4391</ele><time>2026-08-15T20:08:14.000Z</time></trkpt>
        <trkpt lat="28.134154" lon="105.780254"><ele>1547.9056</ele><time>2026-08-15T20:08:16.000Z</time></trkpt>
        <trkpt lat="28.134155" lon="105.780254"><ele>1547.5656</ele><time>2026-08-15T20:08:18.000Z</time></trkpt>
        <trkpt lat="28.134179" lon="105.78025"><ele>1547.1542</ele><time>2026-08-15T20:08:26.000Z</time></trkpt>
        <trkpt lat="28.134164" lon="105.780287"><ele>1546.2689</ele><time>2026-08-15T20:08:44.000Z</time></trkpt>
        <trkpt lat="28.134184" lon="105.7803"><ele>1547.348</ele><time>2026-08-15T20:08:46.000Z</time></trkpt>
        <trkpt lat="28.134184" lon="105.780299"><ele>1547.6105</ele><time>2026-08-15T20:08:48.000Z</time></trkpt>
        <trkpt lat="28.134142" lon="105.780358"><ele>1545.6787</ele><time>2026-08-15T20:09:14.000Z</time></trkpt>
        <trkpt lat="28.134136" lon="105.780368"><ele>1546.1633</ele><time>2026-08-15T20:09:16.000Z</time></trkpt>
        <trkpt lat="28.134136" lon="105.780369"><ele>1545.6343</ele><time>2026-08-15T20:09:18.000Z</time></trkpt>
        <trkpt lat="28.134133" lon="105.780406"><ele>1545.279</ele><time>2026-08-15T20:09:20.000Z</time></trkpt>
        <trkpt lat="28.134133" lon="105.780409"><ele>1545.0435</ele><time>2026-08-15T20:09:22.000Z</time></trkpt>
        <trkpt lat="28.134132" lon="105.780415"><ele>1543.7733</ele><time>2026-08-15T20:09:24.000Z</time></trkpt>
        <trkpt lat="28.134128" lon="105.780439"><ele>1543.4664</ele><time>2026-08-15T20:09:26.000Z</time></trkpt>
        <trkpt lat="28.134122" lon="105.780474"><ele>1543.4773</ele><time>2026-08-15T20:09:28.000Z</time></trkpt>
        <trkpt lat="28.134118" lon="105.780514"><ele>1544.1534</ele><time>2026-08-15T20:09:30.000Z</time></trkpt>
        <trkpt lat="28.134121" lon="105.780543"><ele>1545.643</ele><time>2026-08-15T20:09:32.000Z</time></trkpt>
        <trkpt lat="28.134129" lon="105.780566"><ele>1547.517</ele><time>2026-08-15T20:09:34.000Z</time></trkpt>
        <trkpt lat="28.13414" lon="105.780581"><ele>1549.3906</ele><time>2026-08-15T20:09:36.000Z</time></trkpt>
        <trkpt lat="28.134156" lon="105.780596"><ele>1549.8323</ele><time>2026-08-15T20:09:38.000Z</time></trkpt>
        <trkpt lat="28.134174" lon="105.780608"><ele>1550.1282</ele><time>2026-08-15T20:09:40.000Z</time></trkpt>
        <trkpt lat="28.134194" lon="105.780622"><ele>1551.2365</ele><time>2026-08-15T20:09:42.000Z</time></trkpt>
        <trkpt lat="28.134206" lon="105.78063"><ele>1549.7119</ele><time>2026-08-15T20:09:44.000Z</time></trkpt>
        <trkpt lat="28.134222" lon="105.780643"><ele>1549.4551</ele><time>2026-08-15T20:09:46.000Z</time></trkpt>
        <trkpt lat="28.134237" lon="105.780657"><ele>1548.7202</ele><time>2026-08-15T20:09:48.000Z</time></trkpt>
        <trkpt lat="28.134252" lon="105.780672"><ele>1548.6427</ele><time>2026-08-15T20:09:50.000Z</time></trkpt>
        <trkpt lat="28.134265" lon="105.78069"><ele>1548.9808</ele><time>2026-08-15T20:09:52.000Z</time></trkpt>
        <trkpt lat="28.134272" lon="105.78071"><ele>1548.5641</ele><time>2026-08-15T20:09:54.000Z</time></trkpt>
        <trkpt lat="28.134278" lon="105.78073"><ele>1548.694</ele><time>2026-08-15T20:09:56.000Z</time></trkpt>
        <trkpt lat="28.134282" lon="105.780752"><ele>1548.2029</ele><time>2026-08-15T20:09:58.000Z</time></trkpt>
        <trkpt lat="28.134285" lon="105.780771"><ele>1548.3289</ele><time>2026-08-15T20:10:00.000Z</time></trkpt>
        <trkpt lat="28.134289" lon="105.780793"><ele>1548.7211</ele><time>2026-08-15T20:10:02.000Z</time></trkpt>
        <trkpt lat="28.134293" lon="105.780813"><ele>1549.0767</ele><time>2026-08-15T20:10:04.000Z</time></trkpt>
        <trkpt lat="28.134299" lon="105.780834"><ele>1549.6661</ele><time>2026-08-15T20:10:06.000Z</time></trkpt>
        <trkpt lat="28.134308" lon="105.780854"><ele>1549.4521</ele><time>2026-08-15T20:10:08.000Z</time></trkpt>
        <trkpt lat="28.134319" lon="105.780872"><ele>1549.3257</ele><time>2026-08-15T20:10:10.000Z</time></trkpt>
        <trkpt lat="28.134336" lon="105.780893"><ele>1549.6213</ele><time>2026-08-15T20:10:12.000Z</time></trkpt>
        <trkpt lat="28.134356" lon="105.780913"><ele>1548.9528</ele><time>2026-08-15T20:10:14.000Z</time></trkpt>
        <trkpt lat="28.134371" lon="105.780925"><ele>1550.1279</ele><time>2026-08-15T20:10:16.000Z</time></trkpt>
        <trkpt lat="28.134389" lon="105.780938"><ele>1549.8999</ele><time>2026-08-15T20:10:18.000Z</time></trkpt>
        <trkpt lat="28.134405" lon="105.78095"><ele>1550.6215</ele><time>2026-08-15T20:10:20.000Z</time></trkpt>
        <trkpt lat="28.134421" lon="105.78096"><ele>1551.2836</ele><time>2026-08-15T20:10:22.000Z</time></trkpt>
        <trkpt lat="28.134436" lon="105.780967"><ele>1551.6371</ele><time>2026-08-15T20:10:24.000Z</time></trkpt>
        <trkpt lat="28.134452" lon="105.780978"><ele>1552.0322</ele><time>2026-08-15T20:10:26.000Z</time></trkpt>
        <trkpt lat="28.134465" lon="105.780991"><ele>1551.6547</ele><time>2026-08-15T20:10:28.000Z</time></trkpt>
        <trkpt lat="28.134477" lon="105.781002"><ele>1551.452</ele><time>2026-08-15T20:10:30.000Z</time></trkpt>
        <trkpt lat="28.134493" lon="105.781016"><ele>1551.6466</ele><time>2026-08-15T20:10:32.000Z</time></trkpt>
        <trkpt lat="28.134514" lon="105.781032"><ele>1552.0635</ele><time>2026-08-15T20:10:34.000Z</time></trkpt>
        <trkpt lat="28.134534" lon="105.781047"><ele>1552.2292</ele><time>2026-08-15T20:10:36.000Z</time></trkpt>
        <trkpt lat="28.13455" lon="105.78106"><ele>1552.1923</ele><time>2026-08-15T20:10:38.000Z</time></trkpt>
        <trkpt lat="28.134561" lon="105.781073"><ele>1552.2358</ele><time>2026-08-15T20:10:40.000Z</time></trkpt>
        <trkpt lat="28.134571" lon="105.781085"><ele>1551.8702</ele><time>2026-08-15T20:10:42.000Z</time></trkpt>
        <trkpt lat="28.134578" lon="105.781097"><ele>1552.2184</ele><time>2026-08-15T20:10:44.000Z</time></trkpt>
        <trkpt lat="28.134586" lon="105.781107"><ele>1553.0002</ele><time>2026-08-15T20:10:46.000Z</time></trkpt>
        <trkpt lat="28.134597" lon="105.781115"><ele>1552.7775</ele><time>2026-08-15T20:10:48.000Z</time></trkpt>
        <trkpt lat="28.134611" lon="105.781122"><ele>1553.1927</ele><time>2026-08-15T20:10:50.000Z</time></trkpt>
        <trkpt lat="28.134627" lon="105.781131"><ele>1553.4773</ele><time>2026-08-15T20:10:52.000Z</time></trkpt>
        <trkpt lat="28.134638" lon="105.781138"><ele>1553.3135</ele><time>2026-08-15T20:10:54.000Z</time></trkpt>
        <trkpt lat="28.134645" lon="105.781145"><ele>1553.3832</ele><time>2026-08-15T20:10:56.000Z</time></trkpt>
        <trkpt lat="28.13465" lon="105.781154"><ele>1552.917</ele><time>2026-08-15T20:10:58.000Z</time></trkpt>
        <trkpt lat="28.134655" lon="105.781166"><ele>1553.0377</ele><time>2026-08-15T20:11:00.000Z</time></trkpt>
        <trkpt lat="28.134663" lon="105.781181"><ele>1552.7267</ele><time>2026-08-15T20:11:02.000Z</time></trkpt>
        <trkpt lat="28.134675" lon="105.781198"><ele>1551.3807</ele><time>2026-08-15T20:11:04.000Z</time></trkpt>
        <trkpt lat="28.134693" lon="105.781217"><ele>1551.7009</ele><time>2026-08-15T20:11:06.000Z</time></trkpt>
        <trkpt lat="28.134711" lon="105.781232"><ele>1552.5319</ele><time>2026-08-15T20:11:08.000Z</time></trkpt>
        <trkpt lat="28.134727" lon="105.781243"><ele>1552.9485</ele><time>2026-08-15T20:11:10.000Z</time></trkpt>
        <trkpt lat="28.134742" lon="105.781251"><ele>1552.848</ele><time>2026-08-15T20:11:12.000Z</time></trkpt>
        <trkpt lat="28.134752" lon="105.781256"><ele>1553.3646</ele><time>2026-08-15T20:11:14.000Z</time></trkpt>
        <trkpt lat="28.134757" lon="105.781258"><ele>1553.0188</ele><time>2026-08-15T20:11:16.000Z</time></trkpt>
        <trkpt lat="28.134772" lon="105.78126"><ele>1553.6863</ele><time>2026-08-15T20:11:24.000Z</time></trkpt>
        <trkpt lat="28.134785" lon="105.781259"><ele>1553.898</ele><time>2026-08-15T20:11:30.000Z</time></trkpt>
        <trkpt lat="28.134788" lon="105.781261"><ele>1553.8583</ele><time>2026-08-15T20:11:32.000Z</time></trkpt>
        <trkpt lat="28.134817" lon="105.781284"><ele>1552.565</ele><time>2026-08-15T20:11:38.000Z</time></trkpt>
        <trkpt lat="28.134817" lon="105.781284"><ele>1552.4937</ele><time>2026-08-15T20:11:40.000Z</time></trkpt>
        <trkpt lat="28.134822" lon="105.781285"><ele>1553.2317</ele><time>2026-08-15T20:11:42.000Z</time></trkpt>
        <trkpt lat="28.134861" lon="105.781297"><ele>1553.9894</ele><time>2026-08-15T20:11:46.000Z</time></trkpt>
        <trkpt lat="28.134885" lon="105.781305"><ele>1553.9277</ele><time>2026-08-15T20:11:48.000Z</time></trkpt>
        <trkpt lat="28.134912" lon="105.781316"><ele>1554.5187</ele><time>2026-08-15T20:11:50.000Z</time></trkpt>
        <trkpt lat="28.13494" lon="105.781328"><ele>1554.2344</ele><time>2026-08-15T20:11:52.000Z</time></trkpt>
        <trkpt lat="28.134963" lon="105.781337"><ele>1554.4755</ele><time>2026-08-15T20:11:54.000Z</time></trkpt>
        <trkpt lat="28.13499" lon="105.781347"><ele>1555.1674</ele><time>2026-08-15T20:11:56.000Z</time></trkpt>
        <trkpt lat="28.13501" lon="105.781352"><ele>1554.7621</ele><time>2026-08-15T20:11:58.000Z</time></trkpt>
        <trkpt lat="28.135025" lon="105.781354"><ele>1555.7754</ele><time>2026-08-15T20:12:00.000Z</time></trkpt>
        <trkpt lat="28.135039" lon="105.781353"><ele>1555.4421</ele><time>2026-08-15T20:12:02.000Z</time></trkpt>
        <trkpt lat="28.135046" lon="105.781354"><ele>1555.6443</ele><time>2026-08-15T20:12:04.000Z</time></trkpt>
        <trkpt lat="28.135055" lon="105.781353"><ele>1555.2694</ele><time>2026-08-15T20:12:10.000Z</time></trkpt>
        <trkpt lat="28.135075" lon="105.781348"><ele>1555.6458</ele><time>2026-08-15T20:12:16.000Z</time></trkpt>
        <trkpt lat="28.135087" lon="105.781345"><ele>1555.6307</ele><time>2026-08-15T20:12:18.000Z</time></trkpt>
        <trkpt lat="28.135088" lon="105.781344"><ele>1556.062</ele><time>2026-08-15T20:12:20.000Z</time></trkpt>
        <trkpt lat="28.135118" lon="105.781329"><ele>1555.8959</ele><time>2026-08-15T20:12:26.000Z</time></trkpt>
        <trkpt lat="28.135134" lon="105.781322"><ele>1556.6438</ele><time>2026-08-15T20:12:28.000Z</time></trkpt>
        <trkpt lat="28.135149" lon="105.781314"><ele>1556.7058</ele><time>2026-08-15T20:12:30.000Z</time></trkpt>
        <trkpt lat="28.135166" lon="105.781308"><ele>1557.2185</ele><time>2026-08-15T20:12:32.000Z</time></trkpt>
        <trkpt lat="28.135177" lon="105.781308"><ele>1556.0502</ele><time>2026-08-15T20:12:34.000Z</time></trkpt>
        <trkpt lat="28.135186" lon="105.78131"><ele>1556.0004</ele><time>2026-08-15T20:12:36.000Z</time></trkpt>
        <trkpt lat="28.135197" lon="105.781309"><ele>1555.0627</ele><time>2026-08-15T20:12:38.000Z</time></trkpt>
        <trkpt lat="28.135209" lon="105.781308"><ele>1555.1445</ele><time>2026-08-15T20:12:40.000Z</time></trkpt>
        <trkpt lat="28.135221" lon="105.781306"><ele>1555.3254</ele><time>2026-08-15T20:12:42.000Z</time></trkpt>
        <trkpt lat="28.135236" lon="105.7813"><ele>1555.6908</ele><time>2026-08-15T20:12:44.000Z</time></trkpt>
        <trkpt lat="28.135253" lon="105.781293"><ele>1555.9353</ele><time>2026-08-15T20:12:46.000Z</time></trkpt>
        <trkpt lat="28.135268" lon="105.781289"><ele>1556.7401</ele><time>2026-08-15T20:12:48.000Z</time></trkpt>
        <trkpt lat="28.135278" lon="105.781289"><ele>1555.6609</ele><time>2026-08-15T20:12:50.000Z</time></trkpt>
        <trkpt lat="28.135295" lon="105.781291"><ele>1554.8491</ele><time>2026-08-15T20:12:52.000Z</time></trkpt>
        <trkpt lat="28.135312" lon="105.781293"><ele>1555.587</ele><time>2026-08-15T20:12:54.000Z</time></trkpt>
        <trkpt lat="28.135331" lon="105.781293"><ele>1555.3429</ele><time>2026-08-15T20:12:56.000Z</time></trkpt>
        <trkpt lat="28.13535" lon="105.781291"><ele>1556.0457</ele><time>2026-08-15T20:12:58.000Z</time></trkpt>
        <trkpt lat="28.135368" lon="105.781287"><ele>1556.088</ele><time>2026-08-15T20:13:00.000Z</time></trkpt>
        <trkpt lat="28.135382" lon="105.781282"><ele>1554.7721</ele><time>2026-08-15T20:13:02.000Z</time></trkpt>
        <trkpt lat="28.135398" lon="105.781277"><ele>1554.5984</ele><time>2026-08-15T20:13:04.000Z</time></trkpt>
        <trkpt lat="28.135415" lon="105.781273"><ele>1554.8004</ele><time>2026-08-15T20:13:06.000Z</time></trkpt>
        <trkpt lat="28.135435" lon="105.781267"><ele>1555.3868</ele><time>2026-08-15T20:13:08.000Z</time></trkpt>
        <trkpt lat="28.135452" lon="105.78126"><ele>1555.7833</ele><time>2026-08-15T20:13:10.000Z</time></trkpt>
        <trkpt lat="28.135467" lon="105.781255"><ele>1556.7778</ele><time>2026-08-15T20:13:12.000Z</time></trkpt>
        <trkpt lat="28.135477" lon="105.781253"><ele>1557.1156</ele><time>2026-08-15T20:13:14.000Z</time></trkpt>
        <trkpt lat="28.135485" lon="105.781253"><ele>1557.907</ele><time>2026-08-15T20:13:16.000Z</time></trkpt>
        <trkpt lat="28.135505" lon="105.781247"><ele>1558.9452</ele><time>2026-08-15T20:13:20.000Z</time></trkpt>
        <trkpt lat="28.135516" lon="105.781242"><ele>1560.6327</ele><time>2026-08-15T20:13:22.000Z</time></trkpt>
        <trkpt lat="28.135529" lon="105.781238"><ele>1561.0065</ele><time>2026-08-15T20:13:24.000Z</time></trkpt>
        <trkpt lat="28.135534" lon="105.78124"><ele>1560.6877</ele><time>2026-08-15T20:13:26.000Z</time></trkpt>
        <trkpt lat="28.135551" lon="105.781247"><ele>1561.0885</ele><time>2026-08-15T20:13:32.000Z</time></trkpt>
        <trkpt lat="28.135558" lon="105.78125"><ele>1561.5583</ele><time>2026-08-15T20:13:34.000Z</time></trkpt>
        <trkpt lat="28.135565" lon="105.781253"><ele>1562.5315</ele><time>2026-08-15T20:13:36.000Z</time></trkpt>
        <trkpt lat="28.135589" lon="105.781262"><ele>1562.6174</ele><time>2026-08-15T20:13:40.000Z</time></trkpt>
        <trkpt lat="28.135589" lon="105.781262"><ele>1562.2794</ele><time>2026-08-15T20:13:42.000Z</time></trkpt>
        <trkpt lat="28.135607" lon="105.781264"><ele>1562.4167</ele><time>2026-08-15T20:13:46.000Z</time></trkpt>
        <trkpt lat="28.135623" lon="105.781264"><ele>1562.2938</ele><time>2026-08-15T20:13:48.000Z</time></trkpt>
        <trkpt lat="28.135639" lon="105.781261"><ele>1562.1738</ele><time>2026-08-15T20:13:50.000Z</time></trkpt>
        <trkpt lat="28.135654" lon="105.781262"><ele>1561.8993</ele><time>2026-08-15T20:13:52.000Z</time></trkpt>
        <trkpt lat="28.135668" lon="105.781263"><ele>1560.568</ele><time>2026-08-15T20:13:54.000Z</time></trkpt>
        <trkpt lat="28.135684" lon="105.781263"><ele>1560.9321</ele><time>2026-08-15T20:13:56.000Z</time></trkpt>
        <trkpt lat="28.135696" lon="105.781261"><ele>1561.6793</ele><time>2026-08-15T20:13:58.000Z</time></trkpt>
        <trkpt lat="28.135708" lon="105.781255"><ele>1563.0397</ele><time>2026-08-15T20:14:00.000Z</time></trkpt>
        <trkpt lat="28.135718" lon="105.781253"><ele>1562.9486</ele><time>2026-08-15T20:14:02.000Z</time></trkpt>
        <trkpt lat="28.135725" lon="105.781252"><ele>1563.3662</ele><time>2026-08-15T20:14:04.000Z</time></trkpt>
        <trkpt lat="28.135751" lon="105.781248"><ele>1563.522</ele><time>2026-08-15T20:14:08.000Z</time></trkpt>
        <trkpt lat="28.13576" lon="105.781244"><ele>1564.0515</ele><time>2026-08-15T20:14:10.000Z</time></trkpt>
        <trkpt lat="28.135773" lon="105.78124"><ele>1564.567</ele><time>2026-08-15T20:14:12.000Z</time></trkpt>
        <trkpt lat="28.135787" lon="105.781237"><ele>1564.4785</ele><time>2026-08-15T20:14:14.000Z</time></trkpt>
        <trkpt lat="28.135799" lon="105.781235"><ele>1564.4504</ele><time>2026-08-15T20:14:16.000Z</time></trkpt>
        <trkpt lat="28.135811" lon="105.781233"><ele>1564.6189</ele><time>2026-08-15T20:14:18.000Z</time></trkpt>
        <trkpt lat="28.135823" lon="105.781232"><ele>1565.5795</ele><time>2026-08-15T20:14:20.000Z</time></trkpt>
        <trkpt lat="28.135833" lon="105.781234"><ele>1565.9321</ele><time>2026-08-15T20:14:22.000Z</time></trkpt>
        <trkpt lat="28.135842" lon="105.781236"><ele>1565.6306</ele><time>2026-08-15T20:14:24.000Z</time></trkpt>
        <trkpt lat="28.135865" lon="105.781237"><ele>1566.4756</ele><time>2026-08-15T20:14:28.000Z</time></trkpt>
        <trkpt lat="28.135879" lon="105.781237"><ele>1567.3579</ele><time>2026-08-15T20:14:30.000Z</time></trkpt>
        <trkpt lat="28.135895" lon="105.781237"><ele>1566.6927</ele><time>2026-08-15T20:14:32.000Z</time></trkpt>
        <trkpt lat="28.135908" lon="105.781236"><ele>1566.5515</ele><time>2026-08-15T20:14:34.000Z</time></trkpt>
        <trkpt lat="28.135916" lon="105.781228"><ele>1567.0244</ele><time>2026-08-15T20:14:36.000Z</time></trkpt>
        <trkpt lat="28.135871" lon="105.781286"><ele>1569.7639</ele><time>2026-08-15T20:14:52.000Z</time></trkpt>
        <trkpt lat="28.135858" lon="105.781303"><ele>1569.1617</ele><time>2026-08-15T20:14:54.000Z</time></trkpt>
        <trkpt lat="28.135856" lon="105.781304"><ele>1569.8733</ele><time>2026-08-15T20:14:56.000Z</time></trkpt>
        <trkpt lat="28.135844" lon="105.781311"><ele>1571.5986</ele><time>2026-08-15T20:15:00.000Z</time></trkpt>
        <trkpt lat="28.135831" lon="105.78132"><ele>1572.1361</ele><time>2026-08-15T20:15:02.000Z</time></trkpt>
        <trkpt lat="28.135816" lon="105.781328"><ele>1572.0156</ele><time>2026-08-15T20:15:04.000Z</time></trkpt>
        <trkpt lat="28.135802" lon="105.781333"><ele>1572.456</ele><time>2026-08-15T20:15:06.000Z</time></trkpt>
        <trkpt lat="28.135796" lon="105.781338"><ele>1572.4154</ele><time>2026-08-15T20:15:08.000Z</time></trkpt>
        <trkpt lat="28.135793" lon="105.781346"><ele>1571.1238</ele><time>2026-08-15T20:15:10.000Z</time></trkpt>
        <trkpt lat="28.135785" lon="105.781372"><ele>1570.6855</ele><time>2026-08-15T20:15:14.000Z</time></trkpt>
        <trkpt lat="28.135783" lon="105.781382"><ele>1570.7074</ele><time>2026-08-15T20:15:16.000Z</time></trkpt>
        <trkpt lat="28.135786" lon="105.781383"><ele>1571.141</ele><time>2026-08-15T20:15:18.000Z</time></trkpt>
        <trkpt lat="28.13581" lon="105.781398"><ele>1573.179</ele><time>2026-08-15T20:15:22.000Z</time></trkpt>
        <trkpt lat="28.13581" lon="105.781398"><ele>1574.1239</ele><time>2026-08-15T20:15:24.000Z</time></trkpt>
        <trkpt lat="28.135811" lon="105.781412"><ele>1574.2484</ele><time>2026-08-15T20:15:28.000Z</time></trkpt>
        <trkpt lat="28.135809" lon="105.781432"><ele>1574.0941</ele><time>2026-08-15T20:15:30.000Z</time></trkpt>
        <trkpt lat="28.135804" lon="105.781457"><ele>1574.445</ele><time>2026-08-15T20:15:32.000Z</time></trkpt>
        <trkpt lat="28.135798" lon="105.78148"><ele>1575.6685</ele><time>2026-08-15T20:15:34.000Z</time></trkpt>
        <trkpt lat="28.13579" lon="105.7815"><ele>1575.1022</ele><time>2026-08-15T20:15:36.000Z</time></trkpt>
        <trkpt lat="28.135782" lon="105.781514"><ele>1575.307</ele><time>2026-08-15T20:15:38.000Z</time></trkpt>
        <trkpt lat="28.135773" lon="105.781529"><ele>1576.617</ele><time>2026-08-15T20:15:40.000Z</time></trkpt>
        <trkpt lat="28.135768" lon="105.78154"><ele>1577.4603</ele><time>2026-08-15T20:15:42.000Z</time></trkpt>
        <trkpt lat="28.135766" lon="105.781551"><ele>1576.5374</ele><time>2026-08-15T20:15:44.000Z</time></trkpt>
        <trkpt lat="28.135761" lon="105.781565"><ele>1576.2119</ele><time>2026-08-15T20:15:48.000Z</time></trkpt>
        <trkpt lat="28.135754" lon="105.781576"><ele>1578.5137</ele><time>2026-08-15T20:15:52.000Z</time></trkpt>
        <trkpt lat="28.13575" lon="105.781578"><ele>1578.9836</ele><time>2026-08-15T20:15:54.000Z</time></trkpt>
        <trkpt lat="28.13572" lon="105.781592"><ele>1579.7001</ele><time>2026-08-15T20:15:58.000Z</time></trkpt>
        <trkpt lat="28.13572" lon="105.781592"><ele>1580.348</ele><time>2026-08-15T20:16:00.000Z</time></trkpt>
        <trkpt lat="28.135719" lon="105.781592"><ele>1581.2461</ele><time>2026-08-15T20:16:02.000Z</time></trkpt>
        <trkpt lat="28.135686" lon="105.781605"><ele>1585.0964</ele><time>2026-08-15T20:16:10.000Z</time></trkpt>
        <trkpt lat="28.135679" lon="105.781608"><ele>1585.4344</ele><time>2026-08-15T20:16:12.000Z</time></trkpt>
        <trkpt lat="28.135671" lon="105.78161"><ele>1585.609</ele><time>2026-08-15T20:16:14.000Z</time></trkpt>
        <trkpt lat="28.135649" lon="105.781618"><ele>1585.9347</ele><time>2026-08-15T20:16:16.000Z</time></trkpt>
        <trkpt lat="28.135647" lon="105.781619"><ele>1586.7925</ele><time>2026-08-15T20:16:18.000Z</time></trkpt>
        <trkpt lat="28.135633" lon="105.781624"><ele>1587.765</ele><time>2026-08-15T20:16:22.000Z</time></trkpt>
        <trkpt lat="28.13562" lon="105.781629"><ele>1587.7727</ele><time>2026-08-15T20:16:24.000Z</time></trkpt>
        <trkpt lat="28.135604" lon="105.781635"><ele>1588.0306</ele><time>2026-08-15T20:16:26.000Z</time></trkpt>
        <trkpt lat="28.13559" lon="105.781641"><ele>1588.6006</ele><time>2026-08-15T20:16:28.000Z</time></trkpt>
        <trkpt lat="28.135578" lon="105.781646"><ele>1589.011</ele><time>2026-08-15T20:16:30.000Z</time></trkpt>
        <trkpt lat="28.135566" lon="105.781653"><ele>1588.8634</ele><time>2026-08-15T20:16:32.000Z</time></trkpt>
        <trkpt lat="28.135557" lon="105.781657"><ele>1589.4874</ele><time>2026-08-15T20:16:34.000Z</time></trkpt>
        <trkpt lat="28.135547" lon="105.781662"><ele>1589.5199</ele><time>2026-08-15T20:16:36.000Z</time></trkpt>
        <trkpt lat="28.135534" lon="105.781666"><ele>1589.8864</ele><time>2026-08-15T20:16:38.000Z</time></trkpt>
        <trkpt lat="28.135524" lon="105.78167"><ele>1589.782</ele><time>2026-08-15T20:16:40.000Z</time></trkpt>
        <trkpt lat="28.135512" lon="105.781676"><ele>1589.7981</ele><time>2026-08-15T20:16:42.000Z</time></trkpt>
        <trkpt lat="28.1355" lon="105.781682"><ele>1590.8103</ele><time>2026-08-15T20:16:44.000Z</time></trkpt>
        <trkpt lat="28.135489" lon="105.781686"><ele>1590.9055</ele><time>2026-08-15T20:16:46.000Z</time></trkpt>
        <trkpt lat="28.135475" lon="105.78169"><ele>1590.4194</ele><time>2026-08-15T20:16:48.000Z</time></trkpt>
        <trkpt lat="28.135467" lon="105.781694"><ele>1590.813</ele><time>2026-08-15T20:16:50.000Z</time></trkpt>
        <trkpt lat="28.135457" lon="105.781699"><ele>1591.3105</ele><time>2026-08-15T20:16:52.000Z</time></trkpt>
        <trkpt lat="28.135449" lon="105.781705"><ele>1591.2542</ele><time>2026-08-15T20:16:54.000Z</time></trkpt>
        <trkpt lat="28.135442" lon="105.781713"><ele>1591.5593</ele><time>2026-08-15T20:16:56.000Z</time></trkpt>
        <trkpt lat="28.135434" lon="105.781723"><ele>1591.9657</ele><time>2026-08-15T20:16:58.000Z</time></trkpt>
        <trkpt lat="28.135426" lon="105.781732"><ele>1592.4893</ele><time>2026-08-15T20:17:00.000Z</time></trkpt>
        <trkpt lat="28.13542" lon="105.781742"><ele>1592.8234</ele><time>2026-08-15T20:17:02.000Z</time></trkpt>
        <trkpt lat="28.135413" lon="105.781754"><ele>1592.2253</ele><time>2026-08-15T20:17:04.000Z</time></trkpt>
        <trkpt lat="28.135405" lon="105.781766"><ele>1592.88</ele><time>2026-08-15T20:17:06.000Z</time></trkpt>
        <trkpt lat="28.135396" lon="105.781775"><ele>1593.6215</ele><time>2026-08-15T20:17:08.000Z</time></trkpt>
        <trkpt lat="28.135386" lon="105.781784"><ele>1594.3812</ele><time>2026-08-15T20:17:10.000Z</time></trkpt>
        <trkpt lat="28.135377" lon="105.781789"><ele>1594.6876</ele><time>2026-08-15T20:17:12.000Z</time></trkpt>
        <trkpt lat="28.135369" lon="105.781792"><ele>1596.0553</ele><time>2026-08-15T20:17:14.000Z</time></trkpt>
        <trkpt lat="28.135352" lon="105.781795"><ele>1597.664</ele><time>2026-08-15T20:17:18.000Z</time></trkpt>
        <trkpt lat="28.135346" lon="105.781793"><ele>1598.4248</ele><time>2026-08-15T20:17:20.000Z</time></trkpt>
        <trkpt lat="28.13534" lon="105.781789"><ele>1599.1074</ele><time>2026-08-15T20:17:22.000Z</time></trkpt>
        <trkpt lat="28.135323" lon="105.781781"><ele>1599.4816</ele><time>2026-08-15T20:17:28.000Z</time></trkpt>
        <trkpt lat="28.135321" lon="105.781782"><ele>1600.6678</ele><time>2026-08-15T20:17:30.000Z</time></trkpt>
        <trkpt lat="28.135303" lon="105.781792"><ele>1603.1631</ele><time>2026-08-15T20:17:38.000Z</time></trkpt>
        <trkpt lat="28.135296" lon="105.781797"><ele>1603.7479</ele><time>2026-08-15T20:17:42.000Z</time></trkpt>
        <trkpt lat="28.135292" lon="105.7818"><ele>1603.822</ele><time>2026-08-15T20:17:44.000Z</time></trkpt>
        <trkpt lat="28.135266" lon="105.78182"><ele>1604.0334</ele><time>2026-08-15T20:17:48.000Z</time></trkpt>
        <trkpt lat="28.135266" lon="105.78182"><ele>1604.4645</ele><time>2026-08-15T20:17:50.000Z</time></trkpt>
        <trkpt lat="28.135265" lon="105.781821"><ele>1604.9387</ele><time>2026-08-15T20:17:52.000Z</time></trkpt>
        <trkpt lat="28.135222" lon="105.781827"><ele>1606.5911</ele><time>2026-08-15T20:18:00.000Z</time></trkpt>
        <trkpt lat="28.135222" lon="105.781827"><ele>1606.8405</ele><time>2026-08-15T20:18:02.000Z</time></trkpt>
        <trkpt lat="28.135221" lon="105.781828"><ele>1606.6372</ele><time>2026-08-15T20:18:04.000Z</time></trkpt>
        <trkpt lat="28.135184" lon="105.781847"><ele>1608.7777</ele><time>2026-08-15T20:18:10.000Z</time></trkpt>
        <trkpt lat="28.135184" lon="105.781847"><ele>1609.6556</ele><time>2026-08-15T20:18:12.000Z</time></trkpt>
        <trkpt lat="28.135183" lon="105.781849"><ele>1608.8782</ele><time>2026-08-15T20:18:14.000Z</time></trkpt>
        <trkpt lat="28.135161" lon="105.781884"><ele>1608.4095</ele><time>2026-08-15T20:18:20.000Z</time></trkpt>
        <trkpt lat="28.135153" lon="105.781892"><ele>1608.0353</ele><time>2026-08-15T20:18:22.000Z</time></trkpt>
        <trkpt lat="28.135144" lon="105.781899"><ele>1608.4867</ele><time>2026-08-15T20:18:24.000Z</time></trkpt>
        <trkpt lat="28.135133" lon="105.781907"><ele>1608.5085</ele><time>2026-08-15T20:18:26.000Z</time></trkpt>
        <trkpt lat="28.135121" lon="105.781916"><ele>1608.4757</ele><time>2026-08-15T20:18:28.000Z</time></trkpt>
        <trkpt lat="28.135112" lon="105.781924"><ele>1608.799</ele><time>2026-08-15T20:18:30.000Z</time></trkpt>
        <trkpt lat="28.135103" lon="105.781934"><ele>1608.7798</ele><time>2026-08-15T20:18:32.000Z</time></trkpt>
        <trkpt lat="28.135095" lon="105.781946"><ele>1609.6542</ele><time>2026-08-15T20:18:34.000Z</time></trkpt>
        <trkpt lat="28.135088" lon="105.781959"><ele>1609.4072</ele><time>2026-08-15T20:18:36.000Z</time></trkpt>
        <trkpt lat="28.135087" lon="105.781968"><ele>1609.4817</ele><time>2026-08-15T20:18:38.000Z</time></trkpt>
        <trkpt lat="28.135083" lon="105.781988"><ele>1612.0029</ele><time>2026-08-15T20:18:44.000Z</time></trkpt>
        <trkpt lat="28.135062" lon="105.781985"><ele>1614.193</ele><time>2026-08-15T20:18:50.000Z</time></trkpt>
        <trkpt lat="28.135061" lon="105.781986"><ele>1614.8933</ele><time>2026-08-15T20:18:52.000Z</time></trkpt>
        <trkpt lat="28.135052" lon="105.782002"><ele>1616.2052</ele><time>2026-08-15T20:18:54.000Z</time></trkpt>
        <trkpt lat="28.135044" lon="105.78202"><ele>1617.3618</ele><time>2026-08-15T20:19:00.000Z</time></trkpt>
        <trkpt lat="28.135038" lon="105.782038"><ele>1617.6318</ele><time>2026-08-15T20:19:02.000Z</time></trkpt>
        <trkpt lat="28.135033" lon="105.782058"><ele>1618.3711</ele><time>2026-08-15T20:19:04.000Z</time></trkpt>
        <trkpt lat="28.135029" lon="105.782075"><ele>1619.1821</ele><time>2026-08-15T20:19:06.000Z</time></trkpt>
        <trkpt lat="28.135024" lon="105.782093"><ele>1618.5995</ele><time>2026-08-15T20:19:08.000Z</time></trkpt>
        <trkpt lat="28.135021" lon="105.782112"><ele>1618.198</ele><time>2026-08-15T20:19:10.000Z</time></trkpt>
        <trkpt lat="28.135016" lon="105.78214"><ele>1617.2562</ele><time>2026-08-15T20:19:12.000Z</time></trkpt>
        <trkpt lat="28.135009" lon="105.782163"><ele>1616.9663</ele><time>2026-08-15T20:19:14.000Z</time></trkpt>
        <trkpt lat="28.135" lon="105.782183"><ele>1617.106</ele><time>2026-08-15T20:19:16.000Z</time></trkpt>
        <trkpt lat="28.134991" lon="105.7822"><ele>1617.1458</ele><time>2026-08-15T20:19:18.000Z</time></trkpt>
        <trkpt lat="28.134984" lon="105.782217"><ele>1616.6165</ele><time>2026-08-15T20:19:20.000Z</time></trkpt>
        <trkpt lat="28.13498" lon="105.782237"><ele>1617.6038</ele><time>2026-08-15T20:19:22.000Z</time></trkpt>
        <trkpt lat="28.13498" lon="105.782256"><ele>1618.9961</ele><time>2026-08-15T20:19:24.000Z</time></trkpt>
        <trkpt lat="28.134983" lon="105.782278"><ele>1619.4001</ele><time>2026-08-15T20:19:26.000Z</time></trkpt>
        <trkpt lat="28.134985" lon="105.782297"><ele>1619.8313</ele><time>2026-08-15T20:19:28.000Z</time></trkpt>
        <trkpt lat="28.134988" lon="105.782317"><ele>1621.2448</ele><time>2026-08-15T20:19:30.000Z</time></trkpt>
        <trkpt lat="28.134992" lon="105.782329"><ele>1621.6432</ele><time>2026-08-15T20:19:32.000Z</time></trkpt>
        <trkpt lat="28.134995" lon="105.782336"><ele>1621.4897</ele><time>2026-08-15T20:19:34.000Z</time></trkpt>
        <trkpt lat="28.134997" lon="105.782353"><ele>1623.132</ele><time>2026-08-15T20:19:40.000Z</time></trkpt>
        <trkpt lat="28.134998" lon="105.782375"><ele>1623.7941</ele><time>2026-08-15T20:19:42.000Z</time></trkpt>
        <trkpt lat="28.134999" lon="105.782377"><ele>1623.3483</ele><time>2026-08-15T20:19:44.000Z</time></trkpt>
        <trkpt lat="28.134998" lon="105.782407"><ele>1624.7408</ele><time>2026-08-15T20:19:48.000Z</time></trkpt>
        <trkpt lat="28.134997" lon="105.782431"><ele>1624.5486</ele><time>2026-08-15T20:19:50.000Z</time></trkpt>
        <trkpt lat="28.134996" lon="105.782449"><ele>1625.4656</ele><time>2026-08-15T20:19:52.000Z</time></trkpt>
        <trkpt lat="28.134996" lon="105.782468"><ele>1626.2124</ele><time>2026-08-15T20:19:54.000Z</time></trkpt>
        <trkpt lat="28.134998" lon="105.782485"><ele>1627.5026</ele><time>2026-08-15T20:19:56.000Z</time></trkpt>
        <trkpt lat="28.135002" lon="105.782503"><ele>1628.2046</ele><time>2026-08-15T20:19:58.000Z</time></trkpt>
        <trkpt lat="28.135005" lon="105.782518"><ele>1629.2086</ele><time>2026-08-15T20:20:00.000Z</time></trkpt>
        <trkpt lat="28.135006" lon="105.782536"><ele>1628.5066</ele><time>2026-08-15T20:20:02.000Z</time></trkpt>
        <trkpt lat="28.135005" lon="105.782553"><ele>1628.7917</ele><time>2026-08-15T20:20:04.000Z</time></trkpt>
        <trkpt lat="28.135005" lon="105.782572"><ele>1629.427</ele><time>2026-08-15T20:20:06.000Z</time></trkpt>
        <trkpt lat="28.135007" lon="105.782586"><ele>1629.9381</ele><time>2026-08-15T20:20:08.000Z</time></trkpt>
        <trkpt lat="28.135007" lon="105.782601"><ele>1629.9119</ele><time>2026-08-15T20:20:10.000Z</time></trkpt>
        <trkpt lat="28.135006" lon="105.782615"><ele>1630.3794</ele><time>2026-08-15T20:20:12.000Z</time></trkpt>
        <trkpt lat="28.135004" lon="105.78263"><ele>1630.0631</ele><time>2026-08-15T20:20:14.000Z</time></trkpt>
        <trkpt lat="28.135" lon="105.782642"><ele>1631.0438</ele><time>2026-08-15T20:20:16.000Z</time></trkpt>
        <trkpt lat="28.134997" lon="105.782653"><ele>1631.7856</ele><time>2026-08-15T20:20:18.000Z</time></trkpt>
        <trkpt lat="28.134996" lon="105.782667"><ele>1632.3451</ele><time>2026-08-15T20:20:20.000Z</time></trkpt>
        <trkpt lat="28.134998" lon="105.782684"><ele>1632.8417</ele><time>2026-08-15T20:20:22.000Z</time></trkpt>
        <trkpt lat="28.135002" lon="105.782707"><ele>1633.0004</ele><time>2026-08-15T20:20:24.000Z</time></trkpt>
        <trkpt lat="28.135005" lon="105.782732"><ele>1633.5543</ele><time>2026-08-15T20:20:26.000Z</time></trkpt>
        <trkpt lat="28.135008" lon="105.782753"><ele>1633.4792</ele><time>2026-08-15T20:20:28.000Z</time></trkpt>
        <trkpt lat="28.135011" lon="105.78277"><ele>1633.4379</ele><time>2026-08-15T20:20:30.000Z</time></trkpt>
        <trkpt lat="28.135014" lon="105.782792"><ele>1632.5521</ele><time>2026-08-15T20:20:32.000Z</time></trkpt>
        <trkpt lat="28.135017" lon="105.782816"><ele>1631.3499</ele><time>2026-08-15T20:20:34.000Z</time></trkpt>
        <trkpt lat="28.135019" lon="105.782838"><ele>1631.0758</ele><time>2026-08-15T20:20:36.000Z</time></trkpt>
        <trkpt lat="28.135023" lon="105.782859"><ele>1630.6505</ele><time>2026-08-15T20:20:38.000Z</time></trkpt>
        <trkpt lat="28.135028" lon="105.78288"><ele>1630.9525</ele><time>2026-08-15T20:20:40.000Z</time></trkpt>
        <trkpt lat="28.135032" lon="105.782901"><ele>1630.7122</ele><time>2026-08-15T20:20:42.000Z</time></trkpt>
        <trkpt lat="28.135034" lon="105.782926"><ele>1630.6686</ele><time>2026-08-15T20:20:44.000Z</time></trkpt>
        <trkpt lat="28.135035" lon="105.782947"><ele>1629.8752</ele><time>2026-08-15T20:20:46.000Z</time></trkpt>
        <trkpt lat="28.135034" lon="105.782967"><ele>1630.324</ele><time>2026-08-15T20:20:48.000Z</time></trkpt>
        <trkpt lat="28.135032" lon="105.782987"><ele>1630.9186</ele><time>2026-08-15T20:20:50.000Z</time></trkpt>
        <trkpt lat="28.135028" lon="105.783008"><ele>1630.5348</ele><time>2026-08-15T20:20:52.000Z</time></trkpt>
        <trkpt lat="28.135022" lon="105.783032"><ele>1630.5986</ele><time>2026-08-15T20:20:54.000Z</time></trkpt>
        <trkpt lat="28.135017" lon="105.783055"><ele>1629.7345</ele><time>2026-08-15T20:20:56.000Z</time></trkpt>
        <trkpt lat="28.135015" lon="105.783075"><ele>1629.1576</ele><time>2026-08-15T20:20:58.000Z</time></trkpt>
        <trkpt lat="28.135016" lon="105.783093"><ele>1628.1715</ele><time>2026-08-15T20:21:00.000Z</time></trkpt>
        <trkpt lat="28.135022" lon="105.783113"><ele>1628.9692</ele><time>2026-08-15T20:21:02.000Z</time></trkpt>
        <trkpt lat="28.135028" lon="105.783136"><ele>1628.9762</ele><time>2026-08-15T20:21:04.000Z</time></trkpt>
        <trkpt lat="28.135033" lon="105.783159"><ele>1629.557</ele><time>2026-08-15T20:21:06.000Z</time></trkpt>
        <trkpt lat="28.135035" lon="105.783182"><ele>1629.3284</ele><time>2026-08-15T20:21:08.000Z</time></trkpt>
        <trkpt lat="28.135035" lon="105.783207"><ele>1629.9199</ele><time>2026-08-15T20:21:10.000Z</time></trkpt>
        <trkpt lat="28.135034" lon="105.783228"><ele>1629.7759</ele><time>2026-08-15T20:21:12.000Z</time></trkpt>
        <trkpt lat="28.135032" lon="105.783248"><ele>1630.4376</ele><time>2026-08-15T20:21:14.000Z</time></trkpt>
        <trkpt lat="28.13503" lon="105.783268"><ele>1630.8992</ele><time>2026-08-15T20:21:16.000Z</time></trkpt>
        <trkpt lat="28.135027" lon="105.783291"><ele>1631.6376</ele><time>2026-08-15T20:21:18.000Z</time></trkpt>
        <trkpt lat="28.135021" lon="105.783314"><ele>1631.7566</ele><time>2026-08-15T20:21:20.000Z</time></trkpt>
        <trkpt lat="28.135015" lon="105.783338"><ele>1631.5813</ele><time>2026-08-15T20:21:22.000Z</time></trkpt>
        <trkpt lat="28.135011" lon="105.783362"><ele>1632.1376</ele><time>2026-08-15T20:21:24.000Z</time></trkpt>
        <trkpt lat="28.135008" lon="105.783386"><ele>1631.8116</ele><time>2026-08-15T20:21:26.000Z</time></trkpt>
        <trkpt lat="28.135003" lon="105.783415"><ele>1632.0188</ele><time>2026-08-15T20:21:28.000Z</time></trkpt>
        <trkpt lat="28.134999" lon="105.783445"><ele>1631.6454</ele><time>2026-08-15T20:21:30.000Z</time></trkpt>
        <trkpt lat="28.134995" lon="105.783469"><ele>1631.3911</ele><time>2026-08-15T20:21:32.000Z</time></trkpt>
        <trkpt lat="28.134992" lon="105.783486"><ele>1631.0276</ele><time>2026-08-15T20:21:34.000Z</time></trkpt>
        <trkpt lat="28.134989" lon="105.783506"><ele>1629.9674</ele><time>2026-08-15T20:21:36.000Z</time></trkpt>
        <trkpt lat="28.134984" lon="105.783525"><ele>1629.3413</ele><time>2026-08-15T20:21:38.000Z</time></trkpt>
        <trkpt lat="28.134976" lon="105.783546"><ele>1629.1943</ele><time>2026-08-15T20:21:40.000Z</time></trkpt>
        <trkpt lat="28.13497" lon="105.783563"><ele>1628.9242</ele><time>2026-08-15T20:21:42.000Z</time></trkpt>
        <trkpt lat="28.134964" lon="105.783581"><ele>1628.0244</ele><time>2026-08-15T20:21:44.000Z</time></trkpt>
        <trkpt lat="28.134959" lon="105.783599"><ele>1627.2771</ele><time>2026-08-15T20:21:46.000Z</time></trkpt>
        <trkpt lat="28.134958" lon="105.783614"><ele>1626.0062</ele><time>2026-08-15T20:21:48.000Z</time></trkpt>
        <trkpt lat="28.134957" lon="105.783633"><ele>1625.726</ele><time>2026-08-15T20:21:50.000Z</time></trkpt>
        <trkpt lat="28.134955" lon="105.783654"><ele>1624.7461</ele><time>2026-08-15T20:21:52.000Z</time></trkpt>
        <trkpt lat="28.134953" lon="105.783676"><ele>1624.9504</ele><time>2026-08-15T20:21:54.000Z</time></trkpt>
        <trkpt lat="28.134952" lon="105.783701"><ele>1626.3712</ele><time>2026-08-15T20:21:56.000Z</time></trkpt>
        <trkpt lat="28.134953" lon="105.783731"><ele>1626.7582</ele><time>2026-08-15T20:21:58.000Z</time></trkpt>
        <trkpt lat="28.134955" lon="105.783759"><ele>1626.9806</ele><time>2026-08-15T20:22:00.000Z</time></trkpt>
        <trkpt lat="28.134956" lon="105.783783"><ele>1626.2593</ele><time>2026-08-15T20:22:02.000Z</time></trkpt>
        <trkpt lat="28.134955" lon="105.783799"><ele>1626.3074</ele><time>2026-08-15T20:22:04.000Z</time></trkpt>
        <trkpt lat="28.134953" lon="105.783818"><ele>1626.0428</ele><time>2026-08-15T20:22:06.000Z</time></trkpt>
        <trkpt lat="28.13495" lon="105.783839"><ele>1626.2659</ele><time>2026-08-15T20:22:08.000Z</time></trkpt>
        <trkpt lat="28.134946" lon="105.783858"><ele>1625.1866</ele><time>2026-08-15T20:22:10.000Z</time></trkpt>
        <trkpt lat="28.134941" lon="105.78388"><ele>1624.5618</ele><time>2026-08-15T20:22:12.000Z</time></trkpt>
        <trkpt lat="28.134935" lon="105.783907"><ele>1624.0779</ele><time>2026-08-15T20:22:14.000Z</time></trkpt>
        <trkpt lat="28.134927" lon="105.783932"><ele>1623.6653</ele><time>2026-08-15T20:22:16.000Z</time></trkpt>
        <trkpt lat="28.134922" lon="105.783952"><ele>1623.1879</ele><time>2026-08-15T20:22:18.000Z</time></trkpt>
        <trkpt lat="28.134918" lon="105.783973"><ele>1622.9211</ele><time>2026-08-15T20:22:20.000Z</time></trkpt>
        <trkpt lat="28.134916" lon="105.783996"><ele>1622.9806</ele><time>2026-08-15T20:22:22.000Z</time></trkpt>
        <trkpt lat="28.134912" lon="105.784022"><ele>1621.8842</ele><time>2026-08-15T20:22:24.000Z</time></trkpt>
        <trkpt lat="28.134908" lon="105.784047"><ele>1622.1027</ele><time>2026-08-15T20:22:26.000Z</time></trkpt>
        <trkpt lat="28.134906" lon="105.78407"><ele>1622.2866</ele><time>2026-08-15T20:22:28.000Z</time></trkpt>
        <trkpt lat="28.134901" lon="105.784096"><ele>1621.9119</ele><time>2026-08-15T20:22:30.000Z</time></trkpt>
        <trkpt lat="28.134897" lon="105.78411"><ele>1621.7821</ele><time>2026-08-15T20:22:32.000Z</time></trkpt>
        <trkpt lat="28.134895" lon="105.78412"><ele>1621.4115</ele><time>2026-08-15T20:22:34.000Z</time></trkpt>
        <trkpt lat="28.134893" lon="105.784135"><ele>1621.5092</ele><time>2026-08-15T20:22:36.000Z</time></trkpt>
        <trkpt lat="28.134891" lon="105.784155"><ele>1620.2113</ele><time>2026-08-15T20:22:38.000Z</time></trkpt>
        <trkpt lat="28.134888" lon="105.784177"><ele>1619.9917</ele><time>2026-08-15T20:22:40.000Z</time></trkpt>
        <trkpt lat="28.134882" lon="105.784213"><ele>1620.1315</ele><time>2026-08-15T20:22:42.000Z</time></trkpt>
        <trkpt lat="28.134873" lon="105.784251"><ele>1620.8182</ele><time>2026-08-15T20:22:44.000Z</time></trkpt>
        <trkpt lat="28.134866" lon="105.784273"><ele>1620.6422</ele><time>2026-08-15T20:22:46.000Z</time></trkpt>
        <trkpt lat="28.134857" lon="105.784289"><ele>1620.8815</ele><time>2026-08-15T20:22:48.000Z</time></trkpt>
        <trkpt lat="28.134848" lon="105.784302"><ele>1620.1041</ele><time>2026-08-15T20:22:50.000Z</time></trkpt>
        <trkpt lat="28.134838" lon="105.784318"><ele>1618.8243</ele><time>2026-08-15T20:22:52.000Z</time></trkpt>
        <trkpt lat="28.13483" lon="105.784337"><ele>1619.5403</ele><time>2026-08-15T20:22:54.000Z</time></trkpt>
        <trkpt lat="28.134822" lon="105.784354"><ele>1619.1997</ele><time>2026-08-15T20:22:56.000Z</time></trkpt>
        <trkpt lat="28.134817" lon="105.784368"><ele>1618.651</ele><time>2026-08-15T20:22:58.000Z</time></trkpt>
        <trkpt lat="28.134807" lon="105.784392"><ele>1618.3844</ele><time>2026-08-15T20:23:00.000Z</time></trkpt>
        <trkpt lat="28.134796" lon="105.784419"><ele>1617.491</ele><time>2026-08-15T20:23:02.000Z</time></trkpt>
        <trkpt lat="28.134785" lon="105.784442"><ele>1617.6965</ele><time>2026-08-15T20:23:04.000Z</time></trkpt>
        <trkpt lat="28.134774" lon="105.784461"><ele>1616.4507</ele><time>2026-08-15T20:23:06.000Z</time></trkpt>
        <trkpt lat="28.134761" lon="105.78448"><ele>1615.2078</ele><time>2026-08-15T20:23:08.000Z</time></trkpt>
        <trkpt lat="28.134748" lon="105.784498"><ele>1615.7766</ele><time>2026-08-15T20:23:10.000Z</time></trkpt>
        <trkpt lat="28.134734" lon="105.784513"><ele>1615.9982</ele><time>2026-08-15T20:23:12.000Z</time></trkpt>
        <trkpt lat="28.134723" lon="105.784523"><ele>1615.8949</ele><time>2026-08-15T20:23:14.000Z</time></trkpt>
        <trkpt lat="28.134713" lon="105.784534"><ele>1616.1064</ele><time>2026-08-15T20:23:16.000Z</time></trkpt>
        <trkpt lat="28.134702" lon="105.784545"><ele>1615.8822</ele><time>2026-08-15T20:23:18.000Z</time></trkpt>
        <trkpt lat="28.134694" lon="105.784554"><ele>1615.3969</ele><time>2026-08-15T20:23:20.000Z</time></trkpt>
        <trkpt lat="28.134691" lon="105.784561"><ele>1615.7067</ele><time>2026-08-15T20:23:22.000Z</time></trkpt>
        <trkpt lat="28.134684" lon="105.784578"><ele>1615.425</ele><time>2026-08-15T20:23:28.000Z</time></trkpt>
        <trkpt lat="28.134677" lon="105.784593"><ele>1615.0582</ele><time>2026-08-15T20:23:30.000Z</time></trkpt>
        <trkpt lat="28.134677" lon="105.784595"><ele>1615.5289</ele><time>2026-08-15T20:23:32.000Z</time></trkpt>
        <trkpt lat="28.134666" lon="105.78462"><ele>1615.6488</ele><time>2026-08-15T20:23:36.000Z</time></trkpt>
        <trkpt lat="28.134654" lon="105.784644"><ele>1614.6688</ele><time>2026-08-15T20:23:38.000Z</time></trkpt>
        <trkpt lat="28.134644" lon="105.78467"><ele>1614.313</ele><time>2026-08-15T20:23:40.000Z</time></trkpt>
        <trkpt lat="28.134635" lon="105.784697"><ele>1614.3496</ele><time>2026-08-15T20:23:42.000Z</time></trkpt>
        <trkpt lat="28.134631" lon="105.784723"><ele>1614.3208</ele><time>2026-08-15T20:23:44.000Z</time></trkpt>
        <trkpt lat="28.134628" lon="105.784752"><ele>1614.2559</ele><time>2026-08-15T20:23:46.000Z</time></trkpt>
        <trkpt lat="28.134626" lon="105.784777"><ele>1613.5752</ele><time>2026-08-15T20:23:48.000Z</time></trkpt>
        <trkpt lat="28.134623" lon="105.784804"><ele>1612.8037</ele><time>2026-08-15T20:23:50.000Z</time></trkpt>
        <trkpt lat="28.13462" lon="105.784829"><ele>1612.8461</ele><time>2026-08-15T20:23:52.000Z</time></trkpt>
        <trkpt lat="28.134618" lon="105.784855"><ele>1611.7988</ele><time>2026-08-15T20:23:54.000Z</time></trkpt>
        <trkpt lat="28.134615" lon="105.784883"><ele>1612.0947</ele><time>2026-08-15T20:23:56.000Z</time></trkpt>
        <trkpt lat="28.134611" lon="105.784908"><ele>1611.3878</ele><time>2026-08-15T20:23:58.000Z</time></trkpt>
        <trkpt lat="28.134605" lon="105.784933"><ele>1611.8082</ele><time>2026-08-15T20:24:00.000Z</time></trkpt>
        <trkpt lat="28.134598" lon="105.784956"><ele>1611.6542</ele><time>2026-08-15T20:24:02.000Z</time></trkpt>
        <trkpt lat="28.134594" lon="105.784978"><ele>1610.6016</ele><time>2026-08-15T20:24:04.000Z</time></trkpt>
        <trkpt lat="28.134591" lon="105.784997"><ele>1609.8988</ele><time>2026-08-15T20:24:06.000Z</time></trkpt>
        <trkpt lat="28.134588" lon="105.785015"><ele>1608.4116</ele><time>2026-08-15T20:24:08.000Z</time></trkpt>
        <trkpt lat="28.134585" lon="105.785033"><ele>1607.6838</ele><time>2026-08-15T20:24:10.000Z</time></trkpt>
        <trkpt lat="28.134581" lon="105.785052"><ele>1606.751</ele><time>2026-08-15T20:24:12.000Z</time></trkpt>
        <trkpt lat="28.134576" lon="105.785073"><ele>1606.7161</ele><time>2026-08-15T20:24:14.000Z</time></trkpt>
        <trkpt lat="28.13457" lon="105.785097"><ele>1606.0258</ele><time>2026-08-15T20:24:16.000Z</time></trkpt>
        <trkpt lat="28.134565" lon="105.785123"><ele>1606.1254</ele><time>2026-08-15T20:24:18.000Z</time></trkpt>
        <trkpt lat="28.134562" lon="105.785151"><ele>1606.2368</ele><time>2026-08-15T20:24:20.000Z</time></trkpt>
        <trkpt lat="28.134561" lon="105.78518"><ele>1607.2904</ele><time>2026-08-15T20:24:22.000Z</time></trkpt>
        <trkpt lat="28.134561" lon="105.785209"><ele>1607.4222</ele><time>2026-08-15T20:24:24.000Z</time></trkpt>
        <trkpt lat="28.134564" lon="105.785234"><ele>1608.1077</ele><time>2026-08-15T20:24:26.000Z</time></trkpt>
        <trkpt lat="28.134569" lon="105.785262"><ele>1607.4259</ele><time>2026-08-15T20:24:28.000Z</time></trkpt>
        <trkpt lat="28.134574" lon="105.785289"><ele>1607.0369</ele><time>2026-08-15T20:24:30.000Z</time></trkpt>
        <trkpt lat="28.134577" lon="105.785314"><ele>1606.1447</ele><time>2026-08-15T20:24:32.000Z</time></trkpt>
        <trkpt lat="28.134577" lon="105.785338"><ele>1605.3845</ele><time>2026-08-15T20:24:34.000Z</time></trkpt>
        <trkpt lat="28.134577" lon="105.78536"><ele>1604.3938</ele><time>2026-08-15T20:24:36.000Z</time></trkpt>
        <trkpt lat="28.134579" lon="105.785385"><ele>1604.2457</ele><time>2026-08-15T20:24:38.000Z</time></trkpt>
        <trkpt lat="28.134581" lon="105.785408"><ele>1604.3318</ele><time>2026-08-15T20:24:40.000Z</time></trkpt>
        <trkpt lat="28.134584" lon="105.785434"><ele>1603.7266</ele><time>2026-08-15T20:24:42.000Z</time></trkpt>
        <trkpt lat="28.134588" lon="105.785458"><ele>1602.9467</ele><time>2026-08-15T20:24:44.000Z</time></trkpt>
        <trkpt lat="28.134592" lon="105.785481"><ele>1602.4221</ele><time>2026-08-15T20:24:46.000Z</time></trkpt>
        <trkpt lat="28.134596" lon="105.785503"><ele>1602.1362</ele><time>2026-08-15T20:24:48.000Z</time></trkpt>
        <trkpt lat="28.134602" lon="105.785528"><ele>1603.2291</ele><time>2026-08-15T20:24:50.000Z</time></trkpt>
        <trkpt lat="28.13461" lon="105.785556"><ele>1602.8544</ele><time>2026-08-15T20:24:52.000Z</time></trkpt>
        <trkpt lat="28.134617" lon="105.785582"><ele>1601.6753</ele><time>2026-08-15T20:24:54.000Z</time></trkpt>
        <trkpt lat="28.134626" lon="105.785608"><ele>1601.4366</ele><time>2026-08-15T20:24:56.000Z</time></trkpt>
        <trkpt lat="28.134637" lon="105.785635"><ele>1601.4757</ele><time>2026-08-15T20:24:58.000Z</time></trkpt>
        <trkpt lat="28.134649" lon="105.785663"><ele>1600.7588</ele><time>2026-08-15T20:25:00.000Z</time></trkpt>
        <trkpt lat="28.134658" lon="105.785688"><ele>1600.5231</ele><time>2026-08-15T20:25:02.000Z</time></trkpt>
        <trkpt lat="28.134665" lon="105.785712"><ele>1599.7698</ele><time>2026-08-15T20:25:04.000Z</time></trkpt>
        <trkpt lat="28.134671" lon="105.785736"><ele>1598.9279</ele><time>2026-08-15T20:25:06.000Z</time></trkpt>
        <trkpt lat="28.134675" lon="105.785759"><ele>1598.7755</ele><time>2026-08-15T20:25:08.000Z</time></trkpt>
        <trkpt lat="28.134679" lon="105.785784"><ele>1598.2926</ele><time>2026-08-15T20:25:10.000Z</time></trkpt>
        <trkpt lat="28.134684" lon="105.785814"><ele>1598.1246</ele><time>2026-08-15T20:25:12.000Z</time></trkpt>
        <trkpt lat="28.134687" lon="105.785843"><ele>1598.0907</ele><time>2026-08-15T20:25:14.000Z</time></trkpt>
        <trkpt lat="28.134693" lon="105.785872"><ele>1598.808</ele><time>2026-08-15T20:25:16.000Z</time></trkpt>
        <trkpt lat="28.1347" lon="105.785903"><ele>1598.8799</ele><time>2026-08-15T20:25:18.000Z</time></trkpt>
        <trkpt lat="28.134707" lon="105.785933"><ele>1598.8073</ele><time>2026-08-15T20:25:20.000Z</time></trkpt>
        <trkpt lat="28.134711" lon="105.78596"><ele>1598.5393</ele><time>2026-08-15T20:25:22.000Z</time></trkpt>
        <trkpt lat="28.134714" lon="105.785986"><ele>1598.442</ele><time>2026-08-15T20:25:24.000Z</time></trkpt>
        <trkpt lat="28.134713" lon="105.78601"><ele>1597.0911</ele><time>2026-08-15T20:25:26.000Z</time></trkpt>
        <trkpt lat="28.13471" lon="105.786034"><ele>1597.1814</ele><time>2026-08-15T20:25:28.000Z</time></trkpt>
        <trkpt lat="28.134705" lon="105.78606"><ele>1597.6604</ele><time>2026-08-15T20:25:30.000Z</time></trkpt>
        <trkpt lat="28.134699" lon="105.786086"><ele>1597.9243</ele><time>2026-08-15T20:25:32.000Z</time></trkpt>
        <trkpt lat="28.134692" lon="105.786115"><ele>1597.9747</ele><time>2026-08-15T20:25:34.000Z</time></trkpt>
        <trkpt lat="28.134686" lon="105.786143"><ele>1597.1085</ele><time>2026-08-15T20:25:36.000Z</time></trkpt>
        <trkpt lat="28.134679" lon="105.786171"><ele>1597.2136</ele><time>2026-08-15T20:25:38.000Z</time></trkpt>
        <trkpt lat="28.134673" lon="105.786196"><ele>1597.848</ele><time>2026-08-15T20:25:40.000Z</time></trkpt>
        <trkpt lat="28.134666" lon="105.786221"><ele>1597.4072</ele><time>2026-08-15T20:25:42.000Z</time></trkpt>
        <trkpt lat="28.134661" lon="105.786249"><ele>1597.2655</ele><time>2026-08-15T20:25:44.000Z</time></trkpt>
        <trkpt lat="28.134656" lon="105.786277"><ele>1597.8296</ele><time>2026-08-15T20:25:46.000Z</time></trkpt>
        <trkpt lat="28.134651" lon="105.786304"><ele>1597.5411</ele><time>2026-08-15T20:25:48.000Z</time></trkpt>
        <trkpt lat="28.134647" lon="105.786328"><ele>1597.9452</ele><time>2026-08-15T20:25:50.000Z</time></trkpt>
        <trkpt lat="28.134643" lon="105.786351"><ele>1597.2782</ele><time>2026-08-15T20:25:52.000Z</time></trkpt>
        <trkpt lat="28.134638" lon="105.786374"><ele>1596.6897</ele><time>2026-08-15T20:25:54.000Z</time></trkpt>
        <trkpt lat="28.134633" lon="105.786399"><ele>1596.0283</ele><time>2026-08-15T20:25:56.000Z</time></trkpt>
        <trkpt lat="28.134624" lon="105.786426"><ele>1596.3788</ele><time>2026-08-15T20:25:58.000Z</time></trkpt>
        <trkpt lat="28.134614" lon="105.786454"><ele>1596.3955</ele><time>2026-08-15T20:26:00.000Z</time></trkpt>
        <trkpt lat="28.134601" lon="105.786484"><ele>1595.355</ele><time>2026-08-15T20:26:02.000Z</time></trkpt>
        <trkpt lat="28.134588" lon="105.786514"><ele>1595.4374</ele><time>2026-08-15T20:26:04.000Z</time></trkpt>
        <trkpt lat="28.134575" lon="105.786546"><ele>1593.835</ele><time>2026-08-15T20:26:06.000Z</time></trkpt>
        <trkpt lat="28.134564" lon="105.78658"><ele>1593.9363</ele><time>2026-08-15T20:26:08.000Z</time></trkpt>
        <trkpt lat="28.134554" lon="105.786614"><ele>1594.0132</ele><time>2026-08-15T20:26:10.000Z</time></trkpt>
        <trkpt lat="28.134548" lon="105.786646"><ele>1593.4935</ele><time>2026-08-15T20:26:12.000Z</time></trkpt>
        <trkpt lat="28.134544" lon="105.786672"><ele>1593.684</ele><time>2026-08-15T20:26:14.000Z</time></trkpt>
        <trkpt lat="28.134544" lon="105.786693"><ele>1593.3561</ele><time>2026-08-15T20:26:16.000Z</time></trkpt>
        <trkpt lat="28.134544" lon="105.786714"><ele>1592.7297</ele><time>2026-08-15T20:26:18.000Z</time></trkpt>
        <trkpt lat="28.134544" lon="105.786745"><ele>1593.2513</ele><time>2026-08-15T20:26:20.000Z</time></trkpt>
        <trkpt lat="28.134546" lon="105.786777"><ele>1592.1405</ele><time>2026-08-15T20:26:22.000Z</time></trkpt>
        <trkpt lat="28.134552" lon="105.786811"><ele>1591.5763</ele><time>2026-08-15T20:26:24.000Z</time></trkpt>
        <trkpt lat="28.134562" lon="105.786843"><ele>1592.1421</ele><time>2026-08-15T20:26:26.000Z</time></trkpt>
        <trkpt lat="28.134579" lon="105.786868"><ele>1591.1989</ele><time>2026-08-15T20:26:28.000Z</time></trkpt>
        <trkpt lat="28.134602" lon="105.786889"><ele>1591.2366</ele><time>2026-08-15T20:26:30.000Z</time></trkpt>
        <trkpt lat="28.134629" lon="105.786906"><ele>1591.0061</ele><time>2026-08-15T20:26:32.000Z</time></trkpt>
        <trkpt lat="28.134657" lon="105.786922"><ele>1591.4805</ele><time>2026-08-15T20:26:34.000Z</time></trkpt>
        <trkpt lat="28.13468" lon="105.786938"><ele>1591.7389</ele><time>2026-08-15T20:26:36.000Z</time></trkpt>
        <trkpt lat="28.134698" lon="105.786957"><ele>1591.4159</ele><time>2026-08-15T20:26:38.000Z</time></trkpt>
        <trkpt lat="28.134709" lon="105.786981"><ele>1591.1459</ele><time>2026-08-15T20:26:40.000Z</time></trkpt>
        <trkpt lat="28.134714" lon="105.787009"><ele>1591.6337</ele><time>2026-08-15T20:26:42.000Z</time></trkpt>
        <trkpt lat="28.134713" lon="105.787042"><ele>1592.3053</ele><time>2026-08-15T20:26:44.000Z</time></trkpt>
        <trkpt lat="28.134711" lon="105.787078"><ele>1593.4967</ele><time>2026-08-15T20:26:46.000Z</time></trkpt>
        <trkpt lat="28.134708" lon="105.787108"><ele>1593.0154</ele><time>2026-08-15T20:26:48.000Z</time></trkpt>
        <trkpt lat="28.134704" lon="105.787128"><ele>1590.4982</ele><time>2026-08-15T20:26:50.000Z</time></trkpt>
        <trkpt lat="28.134697" lon="105.787145"><ele>1589.5608</ele><time>2026-08-15T20:26:52.000Z</time></trkpt>
        <trkpt lat="28.134691" lon="105.787163"><ele>1588.4585</ele><time>2026-08-15T20:26:54.000Z</time></trkpt>
        <trkpt lat="28.134685" lon="105.787182"><ele>1587.12</ele><time>2026-08-15T20:26:56.000Z</time></trkpt>
        <trkpt lat="28.134679" lon="105.787203"><ele>1586.1378</ele><time>2026-08-15T20:26:58.000Z</time></trkpt>
        <trkpt lat="28.134677" lon="105.787227"><ele>1584.8162</ele><time>2026-08-15T20:27:00.000Z</time></trkpt>
        <trkpt lat="28.13468" lon="105.787252"><ele>1585.1342</ele><time>2026-08-15T20:27:02.000Z</time></trkpt>
        <trkpt lat="28.134686" lon="105.787285"><ele>1584.4268</ele><time>2026-08-15T20:27:04.000Z</time></trkpt>
        <trkpt lat="28.134692" lon="105.787318"><ele>1585.1925</ele><time>2026-08-15T20:27:06.000Z</time></trkpt>
        <trkpt lat="28.134695" lon="105.787352"><ele>1585.6649</ele><time>2026-08-15T20:27:08.000Z</time></trkpt>
        <trkpt lat="28.134696" lon="105.787382"><ele>1584.5518</ele><time>2026-08-15T20:27:10.000Z</time></trkpt>
        <trkpt lat="28.134696" lon="105.787408"><ele>1583.7793</ele><time>2026-08-15T20:27:12.000Z</time></trkpt>
        <trkpt lat="28.134694" lon="105.787433"><ele>1583.9459</ele><time>2026-08-15T20:27:14.000Z</time></trkpt>
        <trkpt lat="28.134694" lon="105.787456"><ele>1582.9076</ele><time>2026-08-15T20:27:16.000Z</time></trkpt>
        <trkpt lat="28.134695" lon="105.787488"><ele>1583.8673</ele><time>2026-08-15T20:27:18.000Z</time></trkpt>
        <trkpt lat="28.134697" lon="105.787524"><ele>1584.9113</ele><time>2026-08-15T20:27:20.000Z</time></trkpt>
        <trkpt lat="28.134698" lon="105.78756"><ele>1584.9811</ele><time>2026-08-15T20:27:22.000Z</time></trkpt>
        <trkpt lat="28.134697" lon="105.787591"><ele>1583.8695</ele><time>2026-08-15T20:27:24.000Z</time></trkpt>
        <trkpt lat="28.134693" lon="105.78762"><ele>1582.3715</ele><time>2026-08-15T20:27:26.000Z</time></trkpt>
        <trkpt lat="28.134686" lon="105.787645"><ele>1582.314</ele><time>2026-08-15T20:27:28.000Z</time></trkpt>
        <trkpt lat="28.134675" lon="105.787673"><ele>1581.7238</ele><time>2026-08-15T20:27:30.000Z</time></trkpt>
        <trkpt lat="28.134664" lon="105.787699"><ele>1581.9729</ele><time>2026-08-15T20:27:32.000Z</time></trkpt>
        <trkpt lat="28.134655" lon="105.787728"><ele>1581.9712</ele><time>2026-08-15T20:27:34.000Z</time></trkpt>
        <trkpt lat="28.134648" lon="105.787757"><ele>1581.6718</ele><time>2026-08-15T20:27:36.000Z</time></trkpt>
        <trkpt lat="28.134645" lon="105.787785"><ele>1581.7614</ele><time>2026-08-15T20:27:38.000Z</time></trkpt>
        <trkpt lat="28.134644" lon="105.787815"><ele>1581.0596</ele><time>2026-08-15T20:27:40.000Z</time></trkpt>
        <trkpt lat="28.134643" lon="105.787847"><ele>1581.835</ele><time>2026-08-15T20:27:42.000Z</time></trkpt>
        <trkpt lat="28.134639" lon="105.787878"><ele>1582.1835</ele><time>2026-08-15T20:27:44.000Z</time></trkpt>
        <trkpt lat="28.134633" lon="105.787911"><ele>1582.0177</ele><time>2026-08-15T20:27:46.000Z</time></trkpt>
        <trkpt lat="28.134625" lon="105.787946"><ele>1580.1896</ele><time>2026-08-15T20:27:48.000Z</time></trkpt>
        <trkpt lat="28.134621" lon="105.787979"><ele>1578.4838</ele><time>2026-08-15T20:27:50.000Z</time></trkpt>
        <trkpt lat="28.134624" lon="105.788015"><ele>1578.8663</ele><time>2026-08-15T20:27:52.000Z</time></trkpt>
        <trkpt lat="28.134636" lon="105.788045"><ele>1580.2152</ele><time>2026-08-15T20:27:54.000Z</time></trkpt>
        <trkpt lat="28.134655" lon="105.788069"><ele>1580.8596</ele><time>2026-08-15T20:27:56.000Z</time></trkpt>
        <trkpt lat="28.134681" lon="105.788091"><ele>1580.9904</ele><time>2026-08-15T20:27:58.000Z</time></trkpt>
        <trkpt lat="28.134711" lon="105.788112"><ele>1580.4471</ele><time>2026-08-15T20:28:00.000Z</time></trkpt>
        <trkpt lat="28.134735" lon="105.788135"><ele>1579.67</ele><time>2026-08-15T20:28:02.000Z</time></trkpt>
        <trkpt lat="28.13475" lon="105.788156"><ele>1579.0256</ele><time>2026-08-15T20:28:04.000Z</time></trkpt>
        <trkpt lat="28.134758" lon="105.788176"><ele>1578.3739</ele><time>2026-08-15T20:28:06.000Z</time></trkpt>
        <trkpt lat="28.134759" lon="105.788197"><ele>1577.2344</ele><time>2026-08-15T20:28:08.000Z</time></trkpt>
        <trkpt lat="28.134758" lon="105.788223"><ele>1577.5668</ele><time>2026-08-15T20:28:10.000Z</time></trkpt>
        <trkpt lat="28.13475" lon="105.78825"><ele>1578.2614</ele><time>2026-08-15T20:28:12.000Z</time></trkpt>
        <trkpt lat="28.134735" lon="105.788275"><ele>1578.3254</ele><time>2026-08-15T20:28:14.000Z</time></trkpt>
        <trkpt lat="28.134714" lon="105.788296"><ele>1576.8809</ele><time>2026-08-15T20:28:16.000Z</time></trkpt>
        <trkpt lat="28.134688" lon="105.788312"><ele>1577.461</ele><time>2026-08-15T20:28:18.000Z</time></trkpt>
        <trkpt lat="28.134664" lon="105.788323"><ele>1577.2185</ele><time>2026-08-15T20:28:20.000Z</time></trkpt>
        <trkpt lat="28.13465" lon="105.78832"><ele>1577.056</ele><time>2026-08-15T20:28:22.000Z</time></trkpt>
        <trkpt lat="28.134648" lon="105.788316"><ele>1576.719</ele><time>2026-08-15T20:28:24.000Z</time></trkpt>
        <trkpt lat="28.134634" lon="105.788299"><ele>1575.4398</ele><time>2026-08-15T20:28:30.000Z</time></trkpt>
        <trkpt lat="28.134629" lon="105.788295"><ele>1575.3741</ele><time>2026-08-15T20:28:34.000Z</time></trkpt>
        <trkpt lat="28.134625" lon="105.788291"><ele>1575.5562</ele><time>2026-08-15T20:28:36.000Z</time></trkpt>
        <trkpt lat="28.13461" lon="105.788291"><ele>1574.3081</ele><time>2026-08-15T20:28:42.000Z</time></trkpt>
        <trkpt lat="28.134597" lon="105.788294"><ele>1575.2844</ele><time>2026-08-15T20:28:44.000Z</time></trkpt>
        <trkpt lat="28.134594" lon="105.788297"><ele>1574.9521</ele><time>2026-08-15T20:28:48.000Z</time></trkpt>
        <trkpt lat="28.134576" lon="105.788314"><ele>1574.8314</ele><time>2026-08-15T20:28:52.000Z</time></trkpt>
        <trkpt lat="28.134575" lon="105.788321"><ele>1575.2448</ele><time>2026-08-15T20:28:54.000Z</time></trkpt>
        <trkpt lat="28.134563" lon="105.788394"><ele>1574.0619</ele><time>2026-08-15T20:29:10.000Z</time></trkpt>
        <trkpt lat="28.134554" lon="105.78843"><ele>1573.075</ele><time>2026-08-15T20:29:26.000Z</time></trkpt>
        <trkpt lat="28.134542" lon="105.788478"><ele>1572.2573</ele><time>2026-08-15T20:29:31.000Z</time></trkpt>
        <trkpt lat="28.134542" lon="105.788478"><ele>1571.9218</ele><time>2026-08-15T20:29:33.000Z</time></trkpt>
        <trkpt lat="28.134541" lon="105.788482"><ele>1571.1268</ele><time>2026-08-15T20:29:35.000Z</time></trkpt>
        <trkpt lat="28.134532" lon="105.788528"><ele>1570.5693</ele><time>2026-08-15T20:29:39.000Z</time></trkpt>
        <trkpt lat="28.134527" lon="105.788552"><ele>1569.9764</ele><time>2026-08-15T20:29:41.000Z</time></trkpt>
        <trkpt lat="28.134524" lon="105.788571"><ele>1569.7938</ele><time>2026-08-15T20:29:43.000Z</time></trkpt>
        <trkpt lat="28.134519" lon="105.788586"><ele>1569.8425</ele><time>2026-08-15T20:29:45.000Z</time></trkpt>
        <trkpt lat="28.134516" lon="105.7886"><ele>1568.1686</ele><time>2026-08-15T20:29:47.000Z</time></trkpt>
        <trkpt lat="28.13451" lon="105.788615"><ele>1567.7305</ele><time>2026-08-15T20:29:49.000Z</time></trkpt>
        <trkpt lat="28.134507" lon="105.788627"><ele>1567.1326</ele><time>2026-08-15T20:29:51.000Z</time></trkpt>
        <trkpt lat="28.134503" lon="105.788641"><ele>1566.3091</ele><time>2026-08-15T20:29:53.000Z</time></trkpt>
        <trkpt lat="28.134501" lon="105.788657"><ele>1565.5928</ele><time>2026-08-15T20:29:55.000Z</time></trkpt>
        <trkpt lat="28.134501" lon="105.788666"><ele>1565.2163</ele><time>2026-08-15T20:29:57.000Z</time></trkpt>
        <trkpt lat="28.134501" lon="105.788683"><ele>1565.2423</ele><time>2026-08-15T20:29:59.000Z</time></trkpt>
        <trkpt lat="28.1345" lon="105.788693"><ele>1562.4764</ele><time>2026-08-15T20:30:01.000Z</time></trkpt>
        <trkpt lat="28.1345" lon="105.788707"><ele>1562.4863</ele><time>2026-08-15T20:30:03.000Z</time></trkpt>
        <trkpt lat="28.134499" lon="105.788729"><ele>1562.882</ele><time>2026-08-15T20:30:05.000Z</time></trkpt>
        <trkpt lat="28.134501" lon="105.788749"><ele>1563.5254</ele><time>2026-08-15T20:30:07.000Z</time></trkpt>
        <trkpt lat="28.134504" lon="105.788768"><ele>1564.5789</ele><time>2026-08-15T20:30:09.000Z</time></trkpt>
        <trkpt lat="28.134506" lon="105.78879"><ele>1564.7377</ele><time>2026-08-15T20:30:11.000Z</time></trkpt>
        <trkpt lat="28.134509" lon="105.788807"><ele>1563.8446</ele><time>2026-08-15T20:30:13.000Z</time></trkpt>
        <trkpt lat="28.134509" lon="105.788817"><ele>1563.2695</ele><time>2026-08-15T20:30:15.000Z</time></trkpt>
        <trkpt lat="28.134511" lon="105.788833"><ele>1563.0403</ele><time>2026-08-15T20:30:17.000Z</time></trkpt>
        <trkpt lat="28.134513" lon="105.788848"><ele>1563.7493</ele><time>2026-08-15T20:30:19.000Z</time></trkpt>
        <trkpt lat="28.134518" lon="105.788865"><ele>1564.2001</ele><time>2026-08-15T20:30:21.000Z</time></trkpt>
        <trkpt lat="28.134524" lon="105.788884"><ele>1564.6306</ele><time>2026-08-15T20:30:23.000Z</time></trkpt>
        <trkpt lat="28.134531" lon="105.788907"><ele>1563.6315</ele><time>2026-08-15T20:30:25.000Z</time></trkpt>
        <trkpt lat="28.134537" lon="105.788932"><ele>1563.6233</ele><time>2026-08-15T20:30:27.000Z</time></trkpt>
        <trkpt lat="28.134543" lon="105.788958"><ele>1563.7878</ele><time>2026-08-15T20:30:29.000Z</time></trkpt>
        <trkpt lat="28.134551" lon="105.788991"><ele>1562.3615</ele><time>2026-08-15T20:30:31.000Z</time></trkpt>
        <trkpt lat="28.13456" lon="105.789018"><ele>1562.2299</ele><time>2026-08-15T20:30:33.000Z</time></trkpt>
        <trkpt lat="28.13457" lon="105.789045"><ele>1562.6792</ele><time>2026-08-15T20:30:35.000Z</time></trkpt>
        <trkpt lat="28.134579" lon="105.789061"><ele>1561.9768</ele><time>2026-08-15T20:30:37.000Z</time></trkpt>
        <trkpt lat="28.134586" lon="105.789069"><ele>1561.5304</ele><time>2026-08-15T20:30:39.000Z</time></trkpt>
        <trkpt lat="28.134597" lon="105.789075"><ele>1561.3333</ele><time>2026-08-15T20:30:41.000Z</time></trkpt>
        <trkpt lat="28.134608" lon="105.789081"><ele>1561.8099</ele><time>2026-08-15T20:30:43.000Z</time></trkpt>
        <trkpt lat="28.134618" lon="105.789084"><ele>1561.8895</ele><time>2026-08-15T20:30:45.000Z</time></trkpt>
        <trkpt lat="28.134631" lon="105.789089"><ele>1561.7743</ele><time>2026-08-15T20:30:47.000Z</time></trkpt>
        <trkpt lat="28.134636" lon="105.789086"><ele>1561.1926</ele><time>2026-08-15T20:30:49.000Z</time></trkpt>
        <trkpt lat="28.134653" lon="105.789075"><ele>1561.863</ele><time>2026-08-15T20:30:51.000Z</time></trkpt>
        <trkpt lat="28.134673" lon="105.789065"><ele>1560.8265</ele><time>2026-08-15T20:30:53.000Z</time></trkpt>
        <trkpt lat="28.134684" lon="105.789061"><ele>1560.51</ele><time>2026-08-15T20:30:55.000Z</time></trkpt>
        <trkpt lat="28.13469" lon="105.789064"><ele>1557.5919</ele><time>2026-08-15T20:30:57.000Z</time></trkpt>
        <trkpt lat="28.134701" lon="105.789072"><ele>1555.1913</ele><time>2026-08-15T20:31:03.000Z</time></trkpt>
        <trkpt lat="28.134711" lon="105.78908"><ele>1555.2614</ele><time>2026-08-15T20:31:07.000Z</time></trkpt>
        <trkpt lat="28.134711" lon="105.789082"><ele>1555.4753</ele><time>2026-08-15T20:31:09.000Z</time></trkpt>
        <trkpt lat="28.134706" lon="105.789105"><ele>1557.805</ele><time>2026-08-15T20:31:15.000Z</time></trkpt>
        <trkpt lat="28.134699" lon="105.789138"><ele>1558.4895</ele><time>2026-08-15T20:31:17.000Z</time></trkpt>
        <trkpt lat="28.1347" lon="105.78914"><ele>1559.5631</ele><time>2026-08-15T20:31:19.000Z</time></trkpt>
        <trkpt lat="28.134701" lon="105.789141"><ele>1560.5555</ele><time>2026-08-15T20:31:21.000Z</time></trkpt>
        <trkpt lat="28.134715" lon="105.789166"><ele>1560.9227</ele><time>2026-08-15T20:31:29.000Z</time></trkpt>
        <trkpt lat="28.134726" lon="105.789186"><ele>1560.2852</ele><time>2026-08-15T20:31:31.000Z</time></trkpt>
        <trkpt lat="28.134727" lon="105.789187"><ele>1560.1938</ele><time>2026-08-15T20:31:33.000Z</time></trkpt>
        <trkpt lat="28.134749" lon="105.78919"><ele>1561.9939</ele><time>2026-08-15T20:31:37.000Z</time></trkpt>
        <trkpt lat="28.134776" lon="105.789193"><ele>1562.7257</ele><time>2026-08-15T20:31:39.000Z</time></trkpt>
        <trkpt lat="28.134804" lon="105.789194"><ele>1563.4692</ele><time>2026-08-15T20:31:41.000Z</time></trkpt>
        <trkpt lat="28.134824" lon="105.789194"><ele>1563.8959</ele><time>2026-08-15T20:31:43.000Z</time></trkpt>
        <trkpt lat="28.134837" lon="105.789193"><ele>1564.6548</ele><time>2026-08-15T20:31:45.000Z</time></trkpt>
        <trkpt lat="28.134843" lon="105.789193"><ele>1564.9967</ele><time>2026-08-15T20:31:47.000Z</time></trkpt>
        <trkpt lat="28.13486" lon="105.789195"><ele>1564.0452</ele><time>2026-08-15T20:31:59.000Z</time></trkpt>
        <trkpt lat="28.134877" lon="105.789197"><ele>1564.6967</ele><time>2026-08-15T20:32:01.000Z</time></trkpt>
        <trkpt lat="28.134878" lon="105.789197"><ele>1565.0952</ele><time>2026-08-15T20:32:03.000Z</time></trkpt>
        <trkpt lat="28.134899" lon="105.789196"><ele>1566.8993</ele><time>2026-08-15T20:32:07.000Z</time></trkpt>
        <trkpt lat="28.134915" lon="105.789198"><ele>1567.6212</ele><time>2026-08-15T20:32:09.000Z</time></trkpt>
        <trkpt lat="28.134932" lon="105.789201"><ele>1567.1719</ele><time>2026-08-15T20:32:11.000Z</time></trkpt>
        <trkpt lat="28.134945" lon="105.789202"><ele>1567.2678</ele><time>2026-08-15T20:32:13.000Z</time></trkpt>
        <trkpt lat="28.134951" lon="105.789207"><ele>1567.7981</ele><time>2026-08-15T20:32:15.000Z</time></trkpt>
        <trkpt lat="28.13496" lon="105.789219"><ele>1568.9382</ele><time>2026-08-15T20:32:23.000Z</time></trkpt>
        <trkpt lat="28.134969" lon="105.789232"><ele>1569.1198</ele><time>2026-08-15T20:32:27.000Z</time></trkpt>
        <trkpt lat="28.134972" lon="105.789234"><ele>1568.412</ele><time>2026-08-15T20:32:29.000Z</time></trkpt>
        <trkpt lat="28.134981" lon="105.789244"><ele>1570.2894</ele><time>2026-08-15T20:32:41.000Z</time></trkpt>
        <trkpt lat="28.134993" lon="105.789258"><ele>1568.4285</ele><time>2026-08-15T20:32:49.000Z</time></trkpt>
        <trkpt lat="28.134998" lon="105.789264"><ele>1568.7499</ele><time>2026-08-15T20:32:51.000Z</time></trkpt>
        <trkpt lat="28.135008" lon="105.789276"><ele>1568.0457</ele><time>2026-08-15T20:32:53.000Z</time></trkpt>
        <trkpt lat="28.135019" lon="105.789287"><ele>1566.8997</ele><time>2026-08-15T20:33:01.000Z</time></trkpt>
        <trkpt lat="28.135022" lon="105.789287"><ele>1567.4812</ele><time>2026-08-15T20:33:03.000Z</time></trkpt>
        <trkpt lat="28.135039" lon="105.789283"><ele>1566.6671</ele><time>2026-08-15T20:33:21.000Z</time></trkpt>
        <trkpt lat="28.13506" lon="105.789278"><ele>1566.6594</ele><time>2026-08-15T20:33:23.000Z</time></trkpt>
        <trkpt lat="28.135061" lon="105.789277"><ele>1566.6156</ele><time>2026-08-15T20:33:25.000Z</time></trkpt>
        <trkpt lat="28.135086" lon="105.789243"><ele>1567.094</ele><time>2026-08-15T20:33:28.000Z</time></trkpt>
        <trkpt lat="28.135086" lon="105.789243"><ele>1567.233</ele><time>2026-08-15T20:33:30.000Z</time></trkpt>
        <trkpt lat="28.135088" lon="105.789242"><ele>1567.421</ele><time>2026-08-15T20:33:32.000Z</time></trkpt>
        <trkpt lat="28.135125" lon="105.78922"><ele>1567.4321</ele><time>2026-08-15T20:33:38.000Z</time></trkpt>
        <trkpt lat="28.13514" lon="105.789212"><ele>1566.9061</ele><time>2026-08-15T20:33:40.000Z</time></trkpt>
        <trkpt lat="28.135152" lon="105.789203"><ele>1567.4977</ele><time>2026-08-15T20:33:42.000Z</time></trkpt>
        <trkpt lat="28.135165" lon="105.789193"><ele>1568.2542</ele><time>2026-08-15T20:33:44.000Z</time></trkpt>
        <trkpt lat="28.135176" lon="105.789184"><ele>1568.2672</ele><time>2026-08-15T20:33:46.000Z</time></trkpt>
        <trkpt lat="28.135188" lon="105.789176"><ele>1568.5447</ele><time>2026-08-15T20:33:48.000Z</time></trkpt>
        <trkpt lat="28.135204" lon="105.789166"><ele>1569.6506</ele><time>2026-08-15T20:33:50.000Z</time></trkpt>
        <trkpt lat="28.135215" lon="105.789159"><ele>1569.3932</ele><time>2026-08-15T20:33:52.000Z</time></trkpt>
        <trkpt lat="28.135223" lon="105.789153"><ele>1569.0876</ele><time>2026-08-15T20:33:54.000Z</time></trkpt>
        <trkpt lat="28.135231" lon="105.789147"><ele>1569.4321</ele><time>2026-08-15T20:33:56.000Z</time></trkpt>
        <trkpt lat="28.135246" lon="105.78914"><ele>1569.7502</ele><time>2026-08-15T20:34:00.000Z</time></trkpt>
        <trkpt lat="28.135257" lon="105.789139"><ele>1570.778</ele><time>2026-08-15T20:34:02.000Z</time></trkpt>
        <trkpt lat="28.135267" lon="105.789144"><ele>1571.0621</ele><time>2026-08-15T20:34:04.000Z</time></trkpt>
        <trkpt lat="28.13528" lon="105.789148"><ele>1570.7678</ele><time>2026-08-15T20:34:06.000Z</time></trkpt>
        <trkpt lat="28.135295" lon="105.789148"><ele>1570.6692</ele><time>2026-08-15T20:34:08.000Z</time></trkpt>
        <trkpt lat="28.135308" lon="105.789145"><ele>1571.603</ele><time>2026-08-15T20:34:10.000Z</time></trkpt>
        <trkpt lat="28.135323" lon="105.78914"><ele>1571.3099</ele><time>2026-08-15T20:34:12.000Z</time></trkpt>
        <trkpt lat="28.13534" lon="105.789137"><ele>1570.732</ele><time>2026-08-15T20:34:14.000Z</time></trkpt>
        <trkpt lat="28.135354" lon="105.789134"><ele>1570.5612</ele><time>2026-08-15T20:34:16.000Z</time></trkpt>
        <trkpt lat="28.135367" lon="105.789129"><ele>1570.2081</ele><time>2026-08-15T20:34:18.000Z</time></trkpt>
        <trkpt lat="28.135381" lon="105.789124"><ele>1570.6554</ele><time>2026-08-15T20:34:20.000Z</time></trkpt>
        <trkpt lat="28.135391" lon="105.789121"><ele>1570.599</ele><time>2026-08-15T20:34:22.000Z</time></trkpt>
        <trkpt lat="28.135399" lon="105.789118"><ele>1570.9868</ele><time>2026-08-15T20:34:24.000Z</time></trkpt>
        <trkpt lat="28.135415" lon="105.789116"><ele>1570.4598</ele><time>2026-08-15T20:34:28.000Z</time></trkpt>
        <trkpt lat="28.135424" lon="105.789115"><ele>1570.5166</ele><time>2026-08-15T20:34:30.000Z</time></trkpt>
        <trkpt lat="28.135437" lon="105.789115"><ele>1570.9752</ele><time>2026-08-15T20:34:32.000Z</time></trkpt>
        <trkpt lat="28.135448" lon="105.789116"><ele>1569.8727</ele><time>2026-08-15T20:34:34.000Z</time></trkpt>
        <trkpt lat="28.135462" lon="105.789115"><ele>1570.2694</ele><time>2026-08-15T20:34:36.000Z</time></trkpt>
        <trkpt lat="28.135477" lon="105.789111"><ele>1571.0497</ele><time>2026-08-15T20:34:38.000Z</time></trkpt>
        <trkpt lat="28.135485" lon="105.789106"><ele>1571.0366</ele><time>2026-08-15T20:34:40.000Z</time></trkpt>
        <trkpt lat="28.135487" lon="105.789107"><ele>1571.2839</ele><time>2026-08-15T20:34:44.000Z</time></trkpt>
        <trkpt lat="28.135452" lon="105.789084"><ele>1572.7671</ele><time>2026-08-15T20:35:25.000Z</time></trkpt>
        <trkpt lat="28.135452" lon="105.789084"><ele>1573.2057</ele><time>2026-08-15T20:35:40.000Z</time></trkpt>
        <trkpt lat="28.135449" lon="105.78909"><ele>1572.8661</ele><time>2026-08-15T20:35:55.000Z</time></trkpt>
        <trkpt lat="28.135425" lon="105.789139"><ele>1570.8297</ele><time>2026-08-15T20:51:38.000Z</time></trkpt>
        <trkpt lat="28.135408" lon="105.789126"><ele>1570.8539</ele><time>2026-08-15T20:51:40.000Z</time></trkpt>
        <trkpt lat="28.135407" lon="105.789125"><ele>1570.6184</ele><time>2026-08-15T20:51:42.000Z</time></trkpt>
        <trkpt lat="28.13539" lon="105.789118"><ele>1570.7258</ele><time>2026-08-15T20:51:48.000Z</time></trkpt>
        <trkpt lat="28.135373" lon="105.789116"><ele>1572.5414</ele><time>2026-08-15T20:51:54.000Z</time></trkpt>
        <trkpt lat="28.135362" lon="105.78912"><ele>1571.8468</ele><time>2026-08-15T20:51:56.000Z</time></trkpt>
        <trkpt lat="28.135355" lon="105.789124"><ele>1572.4062</ele><time>2026-08-15T20:51:58.000Z</time></trkpt>
        <trkpt lat="28.135327" lon="105.789144"><ele>1572.7328</ele><time>2026-08-15T20:52:08.000Z</time></trkpt>
        <trkpt lat="28.135327" lon="105.789144"><ele>1571.7623</ele><time>2026-08-15T20:52:10.000Z</time></trkpt>
        <trkpt lat="28.135326" lon="105.789146"><ele>1571.6906</ele><time>2026-08-15T20:52:12.000Z</time></trkpt>
        <trkpt lat="28.135305" lon="105.789168"><ele>1571.5118</ele><time>2026-08-15T20:52:14.000Z</time></trkpt>
        <trkpt lat="28.135304" lon="105.78917"><ele>1571.4094</ele><time>2026-08-15T20:52:16.000Z</time></trkpt>
        <trkpt lat="28.135302" lon="105.789174"><ele>1571.1171</ele><time>2026-08-15T20:52:18.000Z</time></trkpt>
        <trkpt lat="28.135283" lon="105.789208"><ele>1570.8679</ele><time>2026-08-15T20:52:22.000Z</time></trkpt>
        <trkpt lat="28.135272" lon="105.78923"><ele>1571.2528</ele><time>2026-08-15T20:52:24.000Z</time></trkpt>
        <trkpt lat="28.135262" lon="105.789251"><ele>1570.8446</ele><time>2026-08-15T20:52:26.000Z</time></trkpt>
        <trkpt lat="28.135252" lon="105.789268"><ele>1570.5162</ele><time>2026-08-15T20:52:28.000Z</time></trkpt>
        <trkpt lat="28.135241" lon="105.789283"><ele>1571.0228</ele><time>2026-08-15T20:52:30.000Z</time></trkpt>
        <trkpt lat="28.13523" lon="105.789295"><ele>1571.0964</ele><time>2026-08-15T20:52:32.000Z</time></trkpt>
        <trkpt lat="28.135217" lon="105.78931"><ele>1571.8236</ele><time>2026-08-15T20:52:34.000Z</time></trkpt>
        <trkpt lat="28.135203" lon="105.789322"><ele>1572.5299</ele><time>2026-08-15T20:52:36.000Z</time></trkpt>
        <trkpt lat="28.135189" lon="105.789335"><ele>1572.5298</ele><time>2026-08-15T20:52:38.000Z</time></trkpt>
        <trkpt lat="28.135178" lon="105.789343"><ele>1574.3395</ele><time>2026-08-15T20:52:40.000Z</time></trkpt>
        <trkpt lat="28.135165" lon="105.789353"><ele>1573.3119</ele><time>2026-08-15T20:52:42.000Z</time></trkpt>
        <trkpt lat="28.135152" lon="105.789365"><ele>1573.562</ele><time>2026-08-15T20:52:44.000Z</time></trkpt>
        <trkpt lat="28.135145" lon="105.789373"><ele>1574.0612</ele><time>2026-08-15T20:52:46.000Z</time></trkpt>
        <trkpt lat="28.135135" lon="105.789382"><ele>1575.3633</ele><time>2026-08-15T20:52:48.000Z</time></trkpt>
        <trkpt lat="28.135126" lon="105.78939"><ele>1574.8124</ele><time>2026-08-15T20:52:50.000Z</time></trkpt>
        <trkpt lat="28.13512" lon="105.789396"><ele>1574.0836</ele><time>2026-08-15T20:52:52.000Z</time></trkpt>
        <trkpt lat="28.135111" lon="105.789407"><ele>1575.4248</ele><time>2026-08-15T20:52:54.000Z</time></trkpt>
        <trkpt lat="28.1351" lon="105.789419"><ele>1575.5879</ele><time>2026-08-15T20:52:56.000Z</time></trkpt>
        <trkpt lat="28.135089" lon="105.789432"><ele>1575.4973</ele><time>2026-08-15T20:52:58.000Z</time></trkpt>
        <trkpt lat="28.135076" lon="105.789445"><ele>1575.1256</ele><time>2026-08-15T20:53:00.000Z</time></trkpt>
        <trkpt lat="28.135065" lon="105.789458"><ele>1575.6157</ele><time>2026-08-15T20:53:02.000Z</time></trkpt>
        <trkpt lat="28.135055" lon="105.789473"><ele>1575.8915</ele><time>2026-08-15T20:53:04.000Z</time></trkpt>
        <trkpt lat="28.135049" lon="105.789487"><ele>1575.2787</ele><time>2026-08-15T20:53:06.000Z</time></trkpt>
        <trkpt lat="28.135043" lon="105.789502"><ele>1576.0696</ele><time>2026-08-15T20:53:08.000Z</time></trkpt>
        <trkpt lat="28.135037" lon="105.789519"><ele>1576.3624</ele><time>2026-08-15T20:53:10.000Z</time></trkpt>
        <trkpt lat="28.135028" lon="105.789535"><ele>1576.8228</ele><time>2026-08-15T20:53:12.000Z</time></trkpt>
        <trkpt lat="28.135017" lon="105.789551"><ele>1577.2488</ele><time>2026-08-15T20:53:14.000Z</time></trkpt>
        <trkpt lat="28.135007" lon="105.789568"><ele>1577.4255</ele><time>2026-08-15T20:53:16.000Z</time></trkpt>
        <trkpt lat="28.134997" lon="105.789585"><ele>1577.8009</ele><time>2026-08-15T20:53:18.000Z</time></trkpt>
        <trkpt lat="28.134985" lon="105.789602"><ele>1577.2932</ele><time>2026-08-15T20:53:20.000Z</time></trkpt>
        <trkpt lat="28.134975" lon="105.789617"><ele>1576.6877</ele><time>2026-08-15T20:53:22.000Z</time></trkpt>
        <trkpt lat="28.134965" lon="105.789635"><ele>1576.0403</ele><time>2026-08-15T20:53:24.000Z</time></trkpt>
        <trkpt lat="28.134956" lon="105.789647"><ele>1574.8749</ele><time>2026-08-15T20:53:26.000Z</time></trkpt>
        <trkpt lat="28.134947" lon="105.789661"><ele>1576.0669</ele><time>2026-08-15T20:53:28.000Z</time></trkpt>
        <trkpt lat="28.134938" lon="105.789675"><ele>1576.3868</ele><time>2026-08-15T20:53:30.000Z</time></trkpt>
        <trkpt lat="28.134931" lon="105.789688"><ele>1576.0471</ele><time>2026-08-15T20:53:32.000Z</time></trkpt>
        <trkpt lat="28.134928" lon="105.789702"><ele>1576.4993</ele><time>2026-08-15T20:53:34.000Z</time></trkpt>
        <trkpt lat="28.134929" lon="105.789715"><ele>1577.0916</ele><time>2026-08-15T20:53:36.000Z</time></trkpt>
        <trkpt lat="28.134931" lon="105.78973"><ele>1577.8462</ele><time>2026-08-15T20:53:38.000Z</time></trkpt>
        <trkpt lat="28.134935" lon="105.789744"><ele>1577.2284</ele><time>2026-08-15T20:53:40.000Z</time></trkpt>
        <trkpt lat="28.134938" lon="105.789759"><ele>1575.7876</ele><time>2026-08-15T20:53:42.000Z</time></trkpt>
        <trkpt lat="28.134937" lon="105.789776"><ele>1575.9827</ele><time>2026-08-15T20:53:44.000Z</time></trkpt>
        <trkpt lat="28.134932" lon="105.789795"><ele>1576.8907</ele><time>2026-08-15T20:53:46.000Z</time></trkpt>
        <trkpt lat="28.134926" lon="105.789809"><ele>1576.8419</ele><time>2026-08-15T20:53:48.000Z</time></trkpt>
        <trkpt lat="28.134913" lon="105.789821"><ele>1576.0476</ele><time>2026-08-15T20:53:50.000Z</time></trkpt>
        <trkpt lat="28.134899" lon="105.789829"><ele>1577.0247</ele><time>2026-08-15T20:53:52.000Z</time></trkpt>
        <trkpt lat="28.134883" lon="105.789833"><ele>1577.5127</ele><time>2026-08-15T20:53:54.000Z</time></trkpt>
        <trkpt lat="28.134876" lon="105.789836"><ele>1577.4622</ele><time>2026-08-15T20:53:56.000Z</time></trkpt>
        <trkpt lat="28.134995" lon="105.789787"><ele>1576.8497</ele><time>2026-08-15T20:55:41.000Z</time></trkpt>
        <trkpt lat="28.134988" lon="105.78979"><ele>1578.3339</ele><time>2026-08-15T20:55:46.000Z</time></trkpt>
        <trkpt lat="28.134988" lon="105.78979"><ele>1577.9017</ele><time>2026-08-15T20:55:48.000Z</time></trkpt>
        <trkpt lat="28.134961" lon="105.789801"><ele>1578.8307</ele><time>2026-08-15T20:55:52.000Z</time></trkpt>
        <trkpt lat="28.134958" lon="105.789802"><ele>1578.7278</ele><time>2026-08-15T20:55:56.000Z</time></trkpt>
        <trkpt lat="28.13495" lon="105.789804"><ele>1578.6753</ele><time>2026-08-15T20:55:58.000Z</time></trkpt>
        <trkpt lat="28.134923" lon="105.78981"><ele>1579.0138</ele><time>2026-08-15T20:56:02.000Z</time></trkpt>
        <trkpt lat="28.13491" lon="105.78981"><ele>1578.6257</ele><time>2026-08-15T20:56:04.000Z</time></trkpt>
        <trkpt lat="28.134899" lon="105.789808"><ele>1578.6461</ele><time>2026-08-15T20:56:06.000Z</time></trkpt>
        <trkpt lat="28.134899" lon="105.789808"><ele>1578.3411</ele><time>2026-08-15T20:56:08.000Z</time></trkpt>
        <trkpt lat="28.134916" lon="105.789743"><ele>1576.711</ele><time>2026-08-15T20:57:20.000Z</time></trkpt>
        <trkpt lat="28.13493" lon="105.789707"><ele>1576.9714</ele><time>2026-08-15T20:57:22.000Z</time></trkpt>
        <trkpt lat="28.134938" lon="105.789689"><ele>1576.9246</ele><time>2026-08-15T20:57:24.000Z</time></trkpt>
        <trkpt lat="28.134952" lon="105.789659"><ele>1576.7225</ele><time>2026-08-15T20:57:27.000Z</time></trkpt>
        <trkpt lat="28.134952" lon="105.789659"><ele>1576.8483</ele><time>2026-08-15T20:57:29.000Z</time></trkpt>
        <trkpt lat="28.134955" lon="105.789653"><ele>1576.5842</ele><time>2026-08-15T20:57:31.000Z</time></trkpt>
        <trkpt lat="28.134986" lon="105.789598"><ele>1576.0337</ele><time>2026-08-15T20:57:35.000Z</time></trkpt>
        <trkpt lat="28.135006" lon="105.789568"><ele>1575.3586</ele><time>2026-08-15T20:57:37.000Z</time></trkpt>
        <trkpt lat="28.135024" lon="105.789541"><ele>1575.2135</ele><time>2026-08-15T20:57:39.000Z</time></trkpt>
        <trkpt lat="28.13504" lon="105.789513"><ele>1575.0178</ele><time>2026-08-15T20:57:41.000Z</time></trkpt>
        <trkpt lat="28.135054" lon="105.789486"><ele>1575.603</ele><time>2026-08-15T20:57:43.000Z</time></trkpt>
        <trkpt lat="28.135068" lon="105.78946"><ele>1574.9414</ele><time>2026-08-15T20:57:45.000Z</time></trkpt>
        <trkpt lat="28.135082" lon="105.78944"><ele>1574.7942</ele><time>2026-08-15T20:57:47.000Z</time></trkpt>
        <trkpt lat="28.135095" lon="105.789423"><ele>1574.5657</ele><time>2026-08-15T20:57:49.000Z</time></trkpt>
        <trkpt lat="28.135107" lon="105.789415"><ele>1573.2963</ele><time>2026-08-15T20:57:51.000Z</time></trkpt>
        <trkpt lat="28.135119" lon="105.789404"><ele>1571.9287</ele><time>2026-08-15T20:57:53.000Z</time></trkpt>
        <trkpt lat="28.135134" lon="105.789388"><ele>1571.8152</ele><time>2026-08-15T20:57:55.000Z</time></trkpt>
        <trkpt lat="28.13515" lon="105.789368"><ele>1572.4034</ele><time>2026-08-15T20:57:57.000Z</time></trkpt>
        <trkpt lat="28.135167" lon="105.78935"><ele>1572.3379</ele><time>2026-08-15T20:57:59.000Z</time></trkpt>
        <trkpt lat="28.135187" lon="105.78933"><ele>1573.0485</ele><time>2026-08-15T20:58:01.000Z</time></trkpt>
        <trkpt lat="28.135205" lon="105.789311"><ele>1572.9775</ele><time>2026-08-15T20:58:03.000Z</time></trkpt>
        <trkpt lat="28.135222" lon="105.789291"><ele>1573.1302</ele><time>2026-08-15T20:58:05.000Z</time></trkpt>
        <trkpt lat="28.135238" lon="105.789271"><ele>1571.8859</ele><time>2026-08-15T20:58:07.000Z</time></trkpt>
        <trkpt lat="28.135252" lon="105.789249"><ele>1571.5942</ele><time>2026-08-15T20:58:09.000Z</time></trkpt>
        <trkpt lat="28.135265" lon="105.789227"><ele>1571.6239</ele><time>2026-08-15T20:58:11.000Z</time></trkpt>
        <trkpt lat="28.135278" lon="105.789204"><ele>1570.9432</ele><time>2026-08-15T20:58:13.000Z</time></trkpt>
        <trkpt lat="28.135291" lon="105.78918"><ele>1571.6215</ele><time>2026-08-15T20:58:15.000Z</time></trkpt>
        <trkpt lat="28.135304" lon="105.78916"><ele>1571.6813</ele><time>2026-08-15T20:58:17.000Z</time></trkpt>
        <trkpt lat="28.135319" lon="105.78914"><ele>1571.5607</ele><time>2026-08-15T20:58:19.000Z</time></trkpt>
        <trkpt lat="28.135336" lon="105.789125"><ele>1571.4076</ele><time>2026-08-15T20:58:21.000Z</time></trkpt>
        <trkpt lat="28.135357" lon="105.789113"><ele>1571.7513</ele><time>2026-08-15T20:58:23.000Z</time></trkpt>
        <trkpt lat="28.13538" lon="105.789107"><ele>1571.5688</ele><time>2026-08-15T20:58:25.000Z</time></trkpt>
        <trkpt lat="28.135405" lon="105.789104"><ele>1571.2742</ele><time>2026-08-15T20:58:27.000Z</time></trkpt>
        <trkpt lat="28.135428" lon="105.7891"><ele>1570.7097</ele><time>2026-08-15T20:58:29.000Z</time></trkpt>
        <trkpt lat="28.135449" lon="105.789094"><ele>1570.8328</ele><time>2026-08-15T20:58:31.000Z</time></trkpt>
        <trkpt lat="28.135464" lon="105.789086"><ele>1570.5046</ele><time>2026-08-15T20:58:33.000Z</time></trkpt>
        <trkpt lat="28.135465" lon="105.789087"><ele>1571.0172</ele><time>2026-08-15T20:58:35.000Z</time></trkpt>
        <trkpt lat="28.135485" lon="105.789104"><ele>1570.3824</ele><time>2026-08-15T21:03:24.000Z</time></trkpt>
        <trkpt lat="28.135496" lon="105.789111"><ele>1570.9371</ele><time>2026-08-15T21:03:26.000Z</time></trkpt>
        <trkpt lat="28.135496" lon="105.789111"><ele>1570.7369</ele><time>2026-08-15T21:03:28.000Z</time></trkpt>
        <trkpt lat="28.135517" lon="105.789088"><ele>1570.5184</ele><time>2026-08-15T21:03:34.000Z</time></trkpt>
        <trkpt lat="28.135529" lon="105.789074"><ele>1569.9807</ele><time>2026-08-15T21:03:36.000Z</time></trkpt>
        <trkpt lat="28.135543" lon="105.789062"><ele>1569.6115</ele><time>2026-08-15T21:03:38.000Z</time></trkpt>
        <trkpt lat="28.135555" lon="105.789054"><ele>1569.9595</ele><time>2026-08-15T21:03:40.000Z</time></trkpt>
        <trkpt lat="28.135561" lon="105.789054"><ele>1570.1329</ele><time>2026-08-15T21:03:42.000Z</time></trkpt>
        <trkpt lat="28.135594" lon="105.789056"><ele>1570.9691</ele><time>2026-08-15T21:03:56.000Z</time></trkpt>
        <trkpt lat="28.135594" lon="105.789056"><ele>1569.914</ele><time>2026-08-15T21:03:58.000Z</time></trkpt>
        <trkpt lat="28.135597" lon="105.789056"><ele>1569.1334</ele><time>2026-08-15T21:04:00.000Z</time></trkpt>
        <trkpt lat="28.135638" lon="105.789055"><ele>1569.404</ele><time>2026-08-15T21:04:02.000Z</time></trkpt>
        <trkpt lat="28.135641" lon="105.789056"><ele>1568.7051</ele><time>2026-08-15T21:04:04.000Z</time></trkpt>
        <trkpt lat="28.135645" lon="105.789059"><ele>1568.355</ele><time>2026-08-15T21:04:06.000Z</time></trkpt>
        <trkpt lat="28.135676" lon="105.78909"><ele>1567.6934</ele><time>2026-08-15T21:04:10.000Z</time></trkpt>
        <trkpt lat="28.13569" lon="105.789107"><ele>1567.1367</ele><time>2026-08-15T21:04:12.000Z</time></trkpt>
        <trkpt lat="28.135706" lon="105.789125"><ele>1565.702</ele><time>2026-08-15T21:04:14.000Z</time></trkpt>
        <trkpt lat="28.135724" lon="105.78914"><ele>1565.7194</ele><time>2026-08-15T21:04:16.000Z</time></trkpt>
        <trkpt lat="28.135746" lon="105.789158"><ele>1565.3395</ele><time>2026-08-15T21:04:18.000Z</time></trkpt>
        <trkpt lat="28.135766" lon="105.789176"><ele>1565.2024</ele><time>2026-08-15T21:04:20.000Z</time></trkpt>
        <trkpt lat="28.135779" lon="105.789192"><ele>1564.6559</ele><time>2026-08-15T21:04:22.000Z</time></trkpt>
        <trkpt lat="28.135789" lon="105.789208"><ele>1564.1602</ele><time>2026-08-15T21:04:24.000Z</time></trkpt>
        <trkpt lat="28.135799" lon="105.789228"><ele>1564.1758</ele><time>2026-08-15T21:04:26.000Z</time></trkpt>
        <trkpt lat="28.135808" lon="105.789252"><ele>1564.1677</ele><time>2026-08-15T21:04:28.000Z</time></trkpt>
        <trkpt lat="28.135812" lon="105.789275"><ele>1562.9868</ele><time>2026-08-15T21:04:30.000Z</time></trkpt>
        <trkpt lat="28.135813" lon="105.789296"><ele>1563.1139</ele><time>2026-08-15T21:04:32.000Z</time></trkpt>
        <trkpt lat="28.135816" lon="105.78932"><ele>1564.288</ele><time>2026-08-15T21:04:34.000Z</time></trkpt>
        <trkpt lat="28.135821" lon="105.789342"><ele>1564.2573</ele><time>2026-08-15T21:04:36.000Z</time></trkpt>
        <trkpt lat="28.135828" lon="105.789365"><ele>1564.5934</ele><time>2026-08-15T21:04:38.000Z</time></trkpt>
        <trkpt lat="28.135838" lon="105.789388"><ele>1564.9061</ele><time>2026-08-15T21:04:40.000Z</time></trkpt>
        <trkpt lat="28.135852" lon="105.789412"><ele>1564.7151</ele><time>2026-08-15T21:04:42.000Z</time></trkpt>
        <trkpt lat="28.135863" lon="105.789433"><ele>1564.4716</ele><time>2026-08-15T21:04:44.000Z</time></trkpt>
        <trkpt lat="28.135873" lon="105.789454"><ele>1563.7657</ele><time>2026-08-15T21:04:46.000Z</time></trkpt>
        <trkpt lat="28.135882" lon="105.789476"><ele>1563.598</ele><time>2026-08-15T21:04:48.000Z</time></trkpt>
        <trkpt lat="28.135888" lon="105.789497"><ele>1564.4495</ele><time>2026-08-15T21:04:50.000Z</time></trkpt>
        <trkpt lat="28.135895" lon="105.78952"><ele>1565.3457</ele><time>2026-08-15T21:04:52.000Z</time></trkpt>
        <trkpt lat="28.135903" lon="105.789547"><ele>1565.6056</ele><time>2026-08-15T21:04:54.000Z</time></trkpt>
        <trkpt lat="28.135908" lon="105.789571"><ele>1565.3352</ele><time>2026-08-15T21:04:56.000Z</time></trkpt>
        <trkpt lat="28.13591" lon="105.789593"><ele>1566.0725</ele><time>2026-08-15T21:04:58.000Z</time></trkpt>
        <trkpt lat="28.135908" lon="105.789619"><ele>1566.0969</ele><time>2026-08-15T21:05:00.000Z</time></trkpt>
        <trkpt lat="28.135906" lon="105.789641"><ele>1567.2108</ele><time>2026-08-15T21:05:02.000Z</time></trkpt>
        <trkpt lat="28.135908" lon="105.789664"><ele>1566.3993</ele><time>2026-08-15T21:05:04.000Z</time></trkpt>
        <trkpt lat="28.135911" lon="105.789689"><ele>1567.044</ele><time>2026-08-15T21:05:06.000Z</time></trkpt>
        <trkpt lat="28.135914" lon="105.789711"><ele>1567.1412</ele><time>2026-08-15T21:05:08.000Z</time></trkpt>
        <trkpt lat="28.135918" lon="105.78973"><ele>1566.8845</ele><time>2026-08-15T21:05:10.000Z</time></trkpt>
        <trkpt lat="28.135921" lon="105.789751"><ele>1566.8491</ele><time>2026-08-15T21:05:12.000Z</time></trkpt>
        <trkpt lat="28.135922" lon="105.789776"><ele>1568.5452</ele><time>2026-08-15T21:05:14.000Z</time></trkpt>
        <trkpt lat="28.13592" lon="105.789797"><ele>1568.2759</ele><time>2026-08-15T21:05:16.000Z</time></trkpt>
        <trkpt lat="28.135912" lon="105.789821"><ele>1567.9553</ele><time>2026-08-15T21:05:18.000Z</time></trkpt>
        <trkpt lat="28.135904" lon="105.789846"><ele>1568.8931</ele><time>2026-08-15T21:05:20.000Z</time></trkpt>
        <trkpt lat="28.135899" lon="105.78987"><ele>1567.6991</ele><time>2026-08-15T21:05:22.000Z</time></trkpt>
        <trkpt lat="28.135896" lon="105.789895"><ele>1567.3273</ele><time>2026-08-15T21:05:24.000Z</time></trkpt>
        <trkpt lat="28.135893" lon="105.789918"><ele>1567.3894</ele><time>2026-08-15T21:05:26.000Z</time></trkpt>
        <trkpt lat="28.135891" lon="105.789943"><ele>1566.9065</ele><time>2026-08-15T21:05:28.000Z</time></trkpt>
        <trkpt lat="28.135892" lon="105.789974"><ele>1566.5132</ele><time>2026-08-15T21:05:30.000Z</time></trkpt>
        <trkpt lat="28.135898" lon="105.790005"><ele>1568.4119</ele><time>2026-08-15T21:05:32.000Z</time></trkpt>
        <trkpt lat="28.135908" lon="105.790034"><ele>1569.7494</ele><time>2026-08-15T21:05:34.000Z</time></trkpt>
        <trkpt lat="28.135923" lon="105.790057"><ele>1569.1628</ele><time>2026-08-15T21:05:36.000Z</time></trkpt>
        <trkpt lat="28.135943" lon="105.790081"><ele>1571.1373</ele><time>2026-08-15T21:05:38.000Z</time></trkpt>
        <trkpt lat="28.13596" lon="105.790099"><ele>1571.1127</ele><time>2026-08-15T21:05:40.000Z</time></trkpt>
        <trkpt lat="28.135974" lon="105.790115"><ele>1570.7229</ele><time>2026-08-15T21:05:42.000Z</time></trkpt>
        <trkpt lat="28.135985" lon="105.790137"><ele>1570.5396</ele><time>2026-08-15T21:05:44.000Z</time></trkpt>
        <trkpt lat="28.135992" lon="105.79016"><ele>1570.1934</ele><time>2026-08-15T21:05:46.000Z</time></trkpt>
        <trkpt lat="28.135995" lon="105.790181"><ele>1569.8658</ele><time>2026-08-15T21:05:48.000Z</time></trkpt>
        <trkpt lat="28.135998" lon="105.790207"><ele>1569.4197</ele><time>2026-08-15T21:05:50.000Z</time></trkpt>
        <trkpt lat="28.136001" lon="105.790235"><ele>1569.0477</ele><time>2026-08-15T21:05:52.000Z</time></trkpt>
        <trkpt lat="28.136004" lon="105.790264"><ele>1570.5045</ele><time>2026-08-15T21:05:54.000Z</time></trkpt>
        <trkpt lat="28.136005" lon="105.790292"><ele>1571.5145</ele><time>2026-08-15T21:05:56.000Z</time></trkpt>
        <trkpt lat="28.136006" lon="105.790318"><ele>1572.1412</ele><time>2026-08-15T21:05:58.000Z</time></trkpt>
        <trkpt lat="28.136008" lon="105.790344"><ele>1570.6954</ele><time>2026-08-15T21:06:00.000Z</time></trkpt>
        <trkpt lat="28.136011" lon="105.790369"><ele>1571.7947</ele><time>2026-08-15T21:06:02.000Z</time></trkpt>
        <trkpt lat="28.136015" lon="105.790389"><ele>1571.9308</ele><time>2026-08-15T21:06:04.000Z</time></trkpt>
        <trkpt lat="28.136018" lon="105.790411"><ele>1572.4263</ele><time>2026-08-15T21:06:06.000Z</time></trkpt>
        <trkpt lat="28.13602" lon="105.790431"><ele>1572.6255</ele><time>2026-08-15T21:06:08.000Z</time></trkpt>
        <trkpt lat="28.136019" lon="105.790453"><ele>1572.1884</ele><time>2026-08-15T21:06:10.000Z</time></trkpt>
        <trkpt lat="28.136018" lon="105.790475"><ele>1573.5011</ele><time>2026-08-15T21:06:12.000Z</time></trkpt>
        <trkpt lat="28.136018" lon="105.790496"><ele>1574.1036</ele><time>2026-08-15T21:06:14.000Z</time></trkpt>
        <trkpt lat="28.13602" lon="105.790511"><ele>1572.8223</ele><time>2026-08-15T21:06:16.000Z</time></trkpt>
        <trkpt lat="28.136025" lon="105.79053"><ele>1571.8923</ele><time>2026-08-15T21:06:18.000Z</time></trkpt>
        <trkpt lat="28.136031" lon="105.790549"><ele>1570.8895</ele><time>2026-08-15T21:06:20.000Z</time></trkpt>
        <trkpt lat="28.136036" lon="105.790566"><ele>1570.8542</ele><time>2026-08-15T21:06:22.000Z</time></trkpt>
        <trkpt lat="28.136043" lon="105.790581"><ele>1570.8368</ele><time>2026-08-15T21:06:24.000Z</time></trkpt>
        <trkpt lat="28.136052" lon="105.790597"><ele>1570.0392</ele><time>2026-08-15T21:06:26.000Z</time></trkpt>
        <trkpt lat="28.136062" lon="105.790616"><ele>1569.9827</ele><time>2026-08-15T21:06:28.000Z</time></trkpt>
        <trkpt lat="28.136072" lon="105.790635"><ele>1569.7195</ele><time>2026-08-15T21:06:30.000Z</time></trkpt>
        <trkpt lat="28.136081" lon="105.790652"><ele>1569.4817</ele><time>2026-08-15T21:06:32.000Z</time></trkpt>
        <trkpt lat="28.136089" lon="105.790668"><ele>1568.9473</ele><time>2026-08-15T21:06:34.000Z</time></trkpt>
        <trkpt lat="28.136099" lon="105.790684"><ele>1570.1687</ele><time>2026-08-15T21:06:36.000Z</time></trkpt>
        <trkpt lat="28.136112" lon="105.790704"><ele>1570.9434</ele><time>2026-08-15T21:06:38.000Z</time></trkpt>
        <trkpt lat="28.136122" lon="105.790722"><ele>1570.7379</ele><time>2026-08-15T21:06:40.000Z</time></trkpt>
        <trkpt lat="28.13613" lon="105.790739"><ele>1570.1552</ele><time>2026-08-15T21:06:42.000Z</time></trkpt>
        <trkpt lat="28.136134" lon="105.790757"><ele>1569.8275</ele><time>2026-08-15T21:06:44.000Z</time></trkpt>
        <trkpt lat="28.136136" lon="105.790778"><ele>1569.6506</ele><time>2026-08-15T21:06:46.000Z</time></trkpt>
        <trkpt lat="28.136133" lon="105.790794"><ele>1570.5582</ele><time>2026-08-15T21:06:48.000Z</time></trkpt>
        <trkpt lat="28.136129" lon="105.790804"><ele>1570.2565</ele><time>2026-08-15T21:06:50.000Z</time></trkpt>
        <trkpt lat="28.136123" lon="105.790816"><ele>1571.143</ele><time>2026-08-15T21:06:52.000Z</time></trkpt>
        <trkpt lat="28.136116" lon="105.790825"><ele>1570.417</ele><time>2026-08-15T21:06:54.000Z</time></trkpt>
        <trkpt lat="28.136109" lon="105.790832"><ele>1570.0548</ele><time>2026-08-15T21:06:56.000Z</time></trkpt>
        <trkpt lat="28.136102" lon="105.790842"><ele>1571.1053</ele><time>2026-08-15T21:06:58.000Z</time></trkpt>
        <trkpt lat="28.136093" lon="105.790852"><ele>1571.3339</ele><time>2026-08-15T21:07:00.000Z</time></trkpt>
        <trkpt lat="28.136086" lon="105.790861"><ele>1571.316</ele><time>2026-08-15T21:07:02.000Z</time></trkpt>
        <trkpt lat="28.136078" lon="105.790869"><ele>1571.0706</ele><time>2026-08-15T21:07:04.000Z</time></trkpt>
        <trkpt lat="28.136071" lon="105.790879"><ele>1571.5249</ele><time>2026-08-15T21:07:06.000Z</time></trkpt>
        <trkpt lat="28.136064" lon="105.790897"><ele>1570.4282</ele><time>2026-08-15T21:07:10.000Z</time></trkpt>
        <trkpt lat="28.136063" lon="105.790903"><ele>1571.2631</ele><time>2026-08-15T21:07:12.000Z</time></trkpt>
        <trkpt lat="28.136059" lon="105.79091"><ele>1571.7396</ele><time>2026-08-15T21:07:16.000Z</time></trkpt>
        <trkpt lat="28.136049" lon="105.790928"><ele>1573.9624</ele><time>2026-08-15T21:07:26.000Z</time></trkpt>
        <trkpt lat="28.136047" lon="105.790932"><ele>1574.172</ele><time>2026-08-15T21:07:28.000Z</time></trkpt>
        <trkpt lat="28.136045" lon="105.790939"><ele>1573.6223</ele><time>2026-08-15T21:07:30.000Z</time></trkpt>
        <trkpt lat="28.136039" lon="105.79096"><ele>1574.4495</ele><time>2026-08-15T21:07:38.000Z</time></trkpt>
        <trkpt lat="28.136038" lon="105.79097"><ele>1573.8906</ele><time>2026-08-15T21:07:42.000Z</time></trkpt>
        <trkpt lat="28.136035" lon="105.790976"><ele>1573.5321</ele><time>2026-08-15T21:07:44.000Z</time></trkpt>
        <trkpt lat="28.136022" lon="105.791009"><ele>1575.4353</ele><time>2026-08-15T21:07:48.000Z</time></trkpt>
        <trkpt lat="28.136022" lon="105.791009"><ele>1574.7603</ele><time>2026-08-15T21:07:50.000Z</time></trkpt>
        <trkpt lat="28.136023" lon="105.791011"><ele>1576.0564</ele><time>2026-08-15T21:07:52.000Z</time></trkpt>
        <trkpt lat="28.136033" lon="105.791048"><ele>1577.8492</ele><time>2026-08-15T21:07:58.000Z</time></trkpt>
        <trkpt lat="28.136035" lon="105.791051"><ele>1577.8561</ele><time>2026-08-15T21:08:00.000Z</time></trkpt>
        <trkpt lat="28.136037" lon="105.791056"><ele>1578.6812</ele><time>2026-08-15T21:08:02.000Z</time></trkpt>
        <trkpt lat="28.136057" lon="105.791092"><ele>1578.3896</ele><time>2026-08-15T21:09:20.000Z</time></trkpt>
        <trkpt lat="28.136047" lon="105.791113"><ele>1577.4772</ele><time>2026-08-15T21:09:35.000Z</time></trkpt>
        <trkpt lat="28.136041" lon="105.791127"><ele>1575.4323</ele><time>2026-08-15T21:09:46.000Z</time></trkpt>
        <trkpt lat="28.136041" lon="105.791127"><ele>1575.2168</ele><time>2026-08-15T21:09:48.000Z</time></trkpt>
        <trkpt lat="28.136049" lon="105.791149"><ele>1574.1025</ele><time>2026-08-15T21:10:14.000Z</time></trkpt>
        <trkpt lat="28.136056" lon="105.79116"><ele>1571.7</ele><time>2026-08-15T21:10:24.000Z</time></trkpt>
        <trkpt lat="28.136065" lon="105.791173"><ele>1572.3756</ele><time>2026-08-15T21:10:26.000Z</time></trkpt>
        <trkpt lat="28.136034" lon="105.791183"><ele>1570.8433</ele><time>2026-08-15T21:10:37.000Z</time></trkpt>
        <trkpt lat="28.136028" lon="105.791188"><ele>1569.7854</ele><time>2026-08-15T21:10:39.000Z</time></trkpt>
        <trkpt lat="28.136026" lon="105.791187"><ele>1569.8242</ele><time>2026-08-15T21:10:41.000Z</time></trkpt>
        <trkpt lat="28.136052" lon="105.791211"><ele>1570.6812</ele><time>2026-08-15T21:10:49.000Z</time></trkpt>
        <trkpt lat="28.136056" lon="105.791216"><ele>1570.371</ele><time>2026-08-15T21:10:51.000Z</time></trkpt>
        <trkpt lat="28.136061" lon="105.79122"><ele>1570.0343</ele><time>2026-08-15T21:10:53.000Z</time></trkpt>
        <trkpt lat="28.136075" lon="105.791234"><ele>1570.4355</ele><time>2026-08-15T21:10:57.000Z</time></trkpt>
        <trkpt lat="28.136081" lon="105.791242"><ele>1570.7578</ele><time>2026-08-15T21:10:59.000Z</time></trkpt>
        <trkpt lat="28.136082" lon="105.791241"><ele>1570.3369</ele><time>2026-08-15T21:11:01.000Z</time></trkpt>
        <trkpt lat="28.136053" lon="105.79126"><ele>1568.9037</ele><time>2026-08-15T21:11:23.000Z</time></trkpt>
        <trkpt lat="28.13605" lon="105.791265"><ele>1568.5486</ele><time>2026-08-15T21:11:25.000Z</time></trkpt>
        <trkpt lat="28.136051" lon="105.791269"><ele>1569.1334</ele><time>2026-08-15T21:11:27.000Z</time></trkpt>
        <trkpt lat="28.136059" lon="105.791297"><ele>1566.6252</ele><time>2026-08-15T21:11:42.000Z</time></trkpt>
        <trkpt lat="28.136069" lon="105.791332"><ele>1565.9863</ele><time>2026-08-15T21:11:44.000Z</time></trkpt>
        <trkpt lat="28.136069" lon="105.791335"><ele>1565.9382</ele><time>2026-08-15T21:11:46.000Z</time></trkpt>
        <trkpt lat="28.136069" lon="105.791335"><ele>1566.711</ele><time>2026-08-15T21:11:48.000Z</time></trkpt>
        <trkpt lat="28.136044" lon="105.791354"><ele>1566.1501</ele><time>2026-08-15T21:11:56.000Z</time></trkpt>
        <trkpt lat="28.136041" lon="105.791359"><ele>1565.7538</ele><time>2026-08-15T21:11:58.000Z</time></trkpt>
        <trkpt lat="28.136041" lon="105.791359"><ele>1565.7157</ele><time>2026-08-15T21:12:00.000Z</time></trkpt>
        <trkpt lat="28.136071" lon="105.791378"><ele>1565.3511</ele><time>2026-08-15T21:12:14.000Z</time></trkpt>
        <trkpt lat="28.136086" lon="105.791385"><ele>1564.5956</ele><time>2026-08-15T21:12:16.000Z</time></trkpt>
        <trkpt lat="28.136085" lon="105.791386"><ele>1564.2698</ele><time>2026-08-15T21:12:18.000Z</time></trkpt>
        <trkpt lat="28.136084" lon="105.791417"><ele>1563.7611</ele><time>2026-08-15T21:12:27.000Z</time></trkpt>
        <trkpt lat="28.136086" lon="105.79142"><ele>1563.7148</ele><time>2026-08-15T21:12:29.000Z</time></trkpt>
        <trkpt lat="28.136086" lon="105.791423"><ele>1563.0492</ele><time>2026-08-15T21:12:31.000Z</time></trkpt>
        <trkpt lat="28.136092" lon="105.791452"><ele>1560.3171</ele><time>2026-08-15T21:12:45.000Z</time></trkpt>
        <trkpt lat="28.136092" lon="105.791452"><ele>1559.6971</ele><time>2026-08-15T21:12:47.000Z</time></trkpt>
        <trkpt lat="28.136075" lon="105.791457"><ele>1558.7684</ele><time>2026-08-15T21:12:53.000Z</time></trkpt>
        <trkpt lat="28.136075" lon="105.791491"><ele>1557</ele><time>2026-08-15T21:13:03.000Z</time></trkpt>
        <trkpt lat="28.136074" lon="105.7915"><ele>1556.6505</ele><time>2026-08-15T21:13:05.000Z</time></trkpt>
        <trkpt lat="28.136077" lon="105.791504"><ele>1556.3735</ele><time>2026-08-15T21:13:07.000Z</time></trkpt>
        <trkpt lat="28.136093" lon="105.791526"><ele>1557.0726</ele><time>2026-08-15T21:13:11.000Z</time></trkpt>
        <trkpt lat="28.136094" lon="105.791526"><ele>1557.7839</ele><time>2026-08-15T21:13:13.000Z</time></trkpt>
        <trkpt lat="28.136091" lon="105.791532"><ele>1557.6163</ele><time>2026-08-15T21:13:17.000Z</time></trkpt>
        <trkpt lat="28.136077" lon="105.791572"><ele>1557.1389</ele><time>2026-08-15T21:13:23.000Z</time></trkpt>
        <trkpt lat="28.136077" lon="105.791572"><ele>1557.8378</ele><time>2026-08-15T21:13:25.000Z</time></trkpt>
        <trkpt lat="28.136075" lon="105.79158"><ele>1556.883</ele><time>2026-08-15T21:13:27.000Z</time></trkpt>
        <trkpt lat="28.136064" lon="105.791631"><ele>1555.0078</ele><time>2026-08-15T21:13:31.000Z</time></trkpt>
        <trkpt lat="28.136063" lon="105.791653"><ele>1553.921</ele><time>2026-08-15T21:13:33.000Z</time></trkpt>
        <trkpt lat="28.136065" lon="105.791672"><ele>1553.3884</ele><time>2026-08-15T21:13:35.000Z</time></trkpt>
        <trkpt lat="28.13607" lon="105.791686"><ele>1553.4169</ele><time>2026-08-15T21:13:37.000Z</time></trkpt>
        <trkpt lat="28.136078" lon="105.791701"><ele>1555.187</ele><time>2026-08-15T21:13:39.000Z</time></trkpt>
        <trkpt lat="28.136089" lon="105.791718"><ele>1555.691</ele><time>2026-08-15T21:13:41.000Z</time></trkpt>
        <trkpt lat="28.136101" lon="105.791739"><ele>1557.2228</ele><time>2026-08-15T21:13:43.000Z</time></trkpt>
        <trkpt lat="28.13611" lon="105.791757"><ele>1557.1296</ele><time>2026-08-15T21:13:45.000Z</time></trkpt>
        <trkpt lat="28.136116" lon="105.791773"><ele>1556.2596</ele><time>2026-08-15T21:13:47.000Z</time></trkpt>
        <trkpt lat="28.136121" lon="105.79179"><ele>1556.0057</ele><time>2026-08-15T21:13:49.000Z</time></trkpt>
        <trkpt lat="28.136126" lon="105.791812"><ele>1554.7258</ele><time>2026-08-15T21:13:51.000Z</time></trkpt>
        <trkpt lat="28.136129" lon="105.791829"><ele>1555.1844</ele><time>2026-08-15T21:13:53.000Z</time></trkpt>
        <trkpt lat="28.136133" lon="105.791848"><ele>1556.0404</ele><time>2026-08-15T21:13:55.000Z</time></trkpt>
        <trkpt lat="28.136138" lon="105.791869"><ele>1555.655</ele><time>2026-08-15T21:13:57.000Z</time></trkpt>
        <trkpt lat="28.136136" lon="105.791885"><ele>1555.6215</ele><time>2026-08-15T21:13:59.000Z</time></trkpt>
        <trkpt lat="28.13613" lon="105.791902"><ele>1555.8119</ele><time>2026-08-15T21:14:01.000Z</time></trkpt>
        <trkpt lat="28.136122" lon="105.791927"><ele>1556.5293</ele><time>2026-08-15T21:14:03.000Z</time></trkpt>
        <trkpt lat="28.13612" lon="105.791948"><ele>1557.9585</ele><time>2026-08-15T21:14:05.000Z</time></trkpt>
        <trkpt lat="28.136125" lon="105.791967"><ele>1560.914</ele><time>2026-08-15T21:14:07.000Z</time></trkpt>
        <trkpt lat="28.136134" lon="105.791981"><ele>1561.614</ele><time>2026-08-15T21:14:09.000Z</time></trkpt>
        <trkpt lat="28.13615" lon="105.791995"><ele>1561.4365</ele><time>2026-08-15T21:14:11.000Z</time></trkpt>
        <trkpt lat="28.136172" lon="105.79201"><ele>1560.6697</ele><time>2026-08-15T21:14:13.000Z</time></trkpt>
        <trkpt lat="28.136192" lon="105.792016"><ele>1560.3242</ele><time>2026-08-15T21:14:15.000Z</time></trkpt>
        <trkpt lat="28.136213" lon="105.792018"><ele>1560.0342</ele><time>2026-08-15T21:14:17.000Z</time></trkpt>
        <trkpt lat="28.136231" lon="105.792014"><ele>1558.9994</ele><time>2026-08-15T21:14:19.000Z</time></trkpt>
        <trkpt lat="28.136253" lon="105.792011"><ele>1558.5667</ele><time>2026-08-15T21:14:21.000Z</time></trkpt>
        <trkpt lat="28.136274" lon="105.792012"><ele>1557.7146</ele><time>2026-08-15T21:14:23.000Z</time></trkpt>
        <trkpt lat="28.136294" lon="105.792016"><ele>1555.7694</ele><time>2026-08-15T21:14:25.000Z</time></trkpt>
        <trkpt lat="28.136314" lon="105.792024"><ele>1554.0153</ele><time>2026-08-15T21:14:27.000Z</time></trkpt>
        <trkpt lat="28.136333" lon="105.79204"><ele>1552.2383</ele><time>2026-08-15T21:14:29.000Z</time></trkpt>
        <trkpt lat="28.136352" lon="105.792061"><ele>1548.6139</ele><time>2026-08-15T21:14:31.000Z</time></trkpt>
        <trkpt lat="28.136371" lon="105.792085"><ele>1546.7227</ele><time>2026-08-15T21:14:33.000Z</time></trkpt>
        <trkpt lat="28.136387" lon="105.792109"><ele>1545.9342</ele><time>2026-08-15T21:14:35.000Z</time></trkpt>
        <trkpt lat="28.136401" lon="105.79213"><ele>1545.2168</ele><time>2026-08-15T21:14:37.000Z</time></trkpt>
        <trkpt lat="28.136414" lon="105.792153"><ele>1544.9104</ele><time>2026-08-15T21:14:39.000Z</time></trkpt>
        <trkpt lat="28.136424" lon="105.792175"><ele>1544.9196</ele><time>2026-08-15T21:14:41.000Z</time></trkpt>
        <trkpt lat="28.136429" lon="105.792197"><ele>1545.6605</ele><time>2026-08-15T21:14:43.000Z</time></trkpt>
        <trkpt lat="28.136429" lon="105.792219"><ele>1545.3207</ele><time>2026-08-15T21:14:45.000Z</time></trkpt>
        <trkpt lat="28.136428" lon="105.792239"><ele>1544.4485</ele><time>2026-08-15T21:14:47.000Z</time></trkpt>
        <trkpt lat="28.136425" lon="105.792261"><ele>1544.063</ele><time>2026-08-15T21:14:49.000Z</time></trkpt>
        <trkpt lat="28.136424" lon="105.792282"><ele>1543.087</ele><time>2026-08-15T21:14:51.000Z</time></trkpt>
        <trkpt lat="28.136427" lon="105.792294"><ele>1542.3451</ele><time>2026-08-15T21:14:53.000Z</time></trkpt>
        <trkpt lat="28.136429" lon="105.792294"><ele>1542.7869</ele><time>2026-08-15T21:14:55.000Z</time></trkpt>
        <trkpt lat="28.136452" lon="105.792299"><ele>1543.1055</ele><time>2026-08-15T21:15:03.000Z</time></trkpt>
        <trkpt lat="28.136421" lon="105.792336"><ele>1541.7968</ele><time>2026-08-15T21:15:13.000Z</time></trkpt>
        <trkpt lat="28.136421" lon="105.792337"><ele>1542.3424</ele><time>2026-08-15T21:15:15.000Z</time></trkpt>
        <trkpt lat="28.13642" lon="105.792344"><ele>1542.2512</ele><time>2026-08-15T21:15:17.000Z</time></trkpt>
        <trkpt lat="28.136415" lon="105.792409"><ele>1543.6158</ele><time>2026-08-15T21:15:21.000Z</time></trkpt>
        <trkpt lat="28.136409" lon="105.792471"><ele>1543.5201</ele><time>2026-08-15T21:15:23.000Z</time></trkpt>
        <trkpt lat="28.136409" lon="105.792476"><ele>1543.7955</ele><time>2026-08-15T21:15:25.000Z</time></trkpt>
        <trkpt lat="28.136411" lon="105.792478"><ele>1544.5295</ele><time>2026-08-15T21:15:27.000Z</time></trkpt>
        <trkpt lat="28.136438" lon="105.792511"><ele>1547.5223</ele><time>2026-08-15T21:15:31.000Z</time></trkpt>
        <trkpt lat="28.136456" lon="105.792528"><ele>1549.0609</ele><time>2026-08-15T21:15:33.000Z</time></trkpt>
        <trkpt lat="28.136478" lon="105.79254"><ele>1549.0673</ele><time>2026-08-15T21:15:35.000Z</time></trkpt>
        <trkpt lat="28.136507" lon="105.792553"><ele>1549.3607</ele><time>2026-08-15T21:15:37.000Z</time></trkpt>
        <trkpt lat="28.136529" lon="105.792559"><ele>1548.7688</ele><time>2026-08-15T21:15:39.000Z</time></trkpt>
        <trkpt lat="28.136552" lon="105.792561"><ele>1548.8313</ele><time>2026-08-15T21:15:41.000Z</time></trkpt>
        <trkpt lat="28.136577" lon="105.792562"><ele>1549.3436</ele><time>2026-08-15T21:15:43.000Z</time></trkpt>
        <trkpt lat="28.136593" lon="105.792561"><ele>1548.2977</ele><time>2026-08-15T21:15:45.000Z</time></trkpt>
        <trkpt lat="28.136609" lon="105.792561"><ele>1548.0175</ele><time>2026-08-15T21:15:47.000Z</time></trkpt>
        <trkpt lat="28.136623" lon="105.792565"><ele>1547.9512</ele><time>2026-08-15T21:15:49.000Z</time></trkpt>
        <trkpt lat="28.13664" lon="105.792575"><ele>1547.1066</ele><time>2026-08-15T21:15:51.000Z</time></trkpt>
        <trkpt lat="28.136657" lon="105.792589"><ele>1545.1887</ele><time>2026-08-15T21:15:53.000Z</time></trkpt>
        <trkpt lat="28.136676" lon="105.792604"><ele>1543.94</ele><time>2026-08-15T21:15:55.000Z</time></trkpt>
        <trkpt lat="28.1367" lon="105.792622"><ele>1543.8932</ele><time>2026-08-15T21:15:57.000Z</time></trkpt>
        <trkpt lat="28.136725" lon="105.792646"><ele>1544.3329</ele><time>2026-08-15T21:15:59.000Z</time></trkpt>
        <trkpt lat="28.136739" lon="105.792669"><ele>1543.8608</ele><time>2026-08-15T21:16:01.000Z</time></trkpt>
        <trkpt lat="28.136744" lon="105.792692"><ele>1544.0447</ele><time>2026-08-15T21:16:03.000Z</time></trkpt>
        <trkpt lat="28.136746" lon="105.792718"><ele>1543.5736</ele><time>2026-08-15T21:16:05.000Z</time></trkpt>
        <trkpt lat="28.136746" lon="105.792746"><ele>1543.7002</ele><time>2026-08-15T21:16:07.000Z</time></trkpt>
        <trkpt lat="28.136743" lon="105.792771"><ele>1544.4496</ele><time>2026-08-15T21:16:09.000Z</time></trkpt>
        <trkpt lat="28.136742" lon="105.792795"><ele>1544.0713</ele><time>2026-08-15T21:16:11.000Z</time></trkpt>
        <trkpt lat="28.136741" lon="105.792816"><ele>1543.536</ele><time>2026-08-15T21:16:13.000Z</time></trkpt>
        <trkpt lat="28.136741" lon="105.792834"><ele>1543.8049</ele><time>2026-08-15T21:16:15.000Z</time></trkpt>
        <trkpt lat="28.136743" lon="105.792856"><ele>1544.0345</ele><time>2026-08-15T21:16:17.000Z</time></trkpt>
        <trkpt lat="28.136747" lon="105.792881"><ele>1544.4059</ele><time>2026-08-15T21:16:19.000Z</time></trkpt>
        <trkpt lat="28.136753" lon="105.792902"><ele>1544.8636</ele><time>2026-08-15T21:16:21.000Z</time></trkpt>
        <trkpt lat="28.136759" lon="105.792921"><ele>1544.8191</ele><time>2026-08-15T21:16:23.000Z</time></trkpt>
        <trkpt lat="28.136768" lon="105.792933"><ele>1545.2468</ele><time>2026-08-15T21:16:25.000Z</time></trkpt>
        <trkpt lat="28.136783" lon="105.792944"><ele>1544.9886</ele><time>2026-08-15T21:16:27.000Z</time></trkpt>
        <trkpt lat="28.136805" lon="105.792952"><ele>1545.2876</ele><time>2026-08-15T21:16:29.000Z</time></trkpt>
        <trkpt lat="28.136829" lon="105.792959"><ele>1545.4288</ele><time>2026-08-15T21:16:31.000Z</time></trkpt>
        <trkpt lat="28.136855" lon="105.792966"><ele>1545.1357</ele><time>2026-08-15T21:16:33.000Z</time></trkpt>
        <trkpt lat="28.136883" lon="105.792973"><ele>1545.0355</ele><time>2026-08-15T21:16:35.000Z</time></trkpt>
        <trkpt lat="28.136907" lon="105.792978"><ele>1544.8151</ele><time>2026-08-15T21:16:37.000Z</time></trkpt>
        <trkpt lat="28.136928" lon="105.792983"><ele>1544.8464</ele><time>2026-08-15T21:16:39.000Z</time></trkpt>
        <trkpt lat="28.136947" lon="105.792987"><ele>1544.8269</ele><time>2026-08-15T21:16:41.000Z</time></trkpt>
        <trkpt lat="28.136964" lon="105.79299"><ele>1545.388</ele><time>2026-08-15T21:16:43.000Z</time></trkpt>
        <trkpt lat="28.136987" lon="105.792991"><ele>1547.6472</ele><time>2026-08-15T21:16:45.000Z</time></trkpt>
        <trkpt lat="28.137012" lon="105.792993"><ele>1547.5719</ele><time>2026-08-15T21:16:47.000Z</time></trkpt>
        <trkpt lat="28.137033" lon="105.792993"><ele>1548.381</ele><time>2026-08-15T21:16:49.000Z</time></trkpt>
        <trkpt lat="28.137055" lon="105.792991"><ele>1549.0114</ele><time>2026-08-15T21:16:51.000Z</time></trkpt>
        <trkpt lat="28.137082" lon="105.792987"><ele>1550.2518</ele><time>2026-08-15T21:16:53.000Z</time></trkpt>
        <trkpt lat="28.137101" lon="105.792989"><ele>1549.9178</ele><time>2026-08-15T21:16:55.000Z</time></trkpt>
        <trkpt lat="28.137114" lon="105.792994"><ele>1548.0657</ele><time>2026-08-15T21:16:57.000Z</time></trkpt>
        <trkpt lat="28.137128" lon="105.793001"><ele>1547.42</ele><time>2026-08-15T21:16:59.000Z</time></trkpt>
        <trkpt lat="28.137142" lon="105.79301"><ele>1546.3615</ele><time>2026-08-15T21:17:01.000Z</time></trkpt>
        <trkpt lat="28.13715" lon="105.793022"><ele>1545.6816</ele><time>2026-08-15T21:17:03.000Z</time></trkpt>
        <trkpt lat="28.137154" lon="105.793035"><ele>1543.9072</ele><time>2026-08-15T21:17:05.000Z</time></trkpt>
        <trkpt lat="28.137155" lon="105.793056"><ele>1543.3315</ele><time>2026-08-15T21:17:07.000Z</time></trkpt>
        <trkpt lat="28.137151" lon="105.79308"><ele>1542.5953</ele><time>2026-08-15T21:17:09.000Z</time></trkpt>
        <trkpt lat="28.137145" lon="105.793104"><ele>1541.2222</ele><time>2026-08-15T21:17:11.000Z</time></trkpt>
        <trkpt lat="28.137136" lon="105.79313"><ele>1540.2019</ele><time>2026-08-15T21:17:13.000Z</time></trkpt>
        <trkpt lat="28.137127" lon="105.793155"><ele>1540.0204</ele><time>2026-08-15T21:17:15.000Z</time></trkpt>
        <trkpt lat="28.137123" lon="105.793179"><ele>1539.7217</ele><time>2026-08-15T21:17:17.000Z</time></trkpt>
        <trkpt lat="28.13712" lon="105.793204"><ele>1539.0015</ele><time>2026-08-15T21:17:19.000Z</time></trkpt>
        <trkpt lat="28.137122" lon="105.793227"><ele>1538.8511</ele><time>2026-08-15T21:17:21.000Z</time></trkpt>
        <trkpt lat="28.13713" lon="105.793252"><ele>1539.1224</ele><time>2026-08-15T21:17:23.000Z</time></trkpt>
        <trkpt lat="28.137141" lon="105.793279"><ele>1539.2003</ele><time>2026-08-15T21:17:25.000Z</time></trkpt>
        <trkpt lat="28.137153" lon="105.793304"><ele>1539.0597</ele><time>2026-08-15T21:17:27.000Z</time></trkpt>
        <trkpt lat="28.137165" lon="105.793327"><ele>1538.607</ele><time>2026-08-15T21:17:29.000Z</time></trkpt>
        <trkpt lat="28.137173" lon="105.793348"><ele>1538.3115</ele><time>2026-08-15T21:17:31.000Z</time></trkpt>
        <trkpt lat="28.137175" lon="105.793367"><ele>1538.2617</ele><time>2026-08-15T21:17:33.000Z</time></trkpt>
        <trkpt lat="28.137173" lon="105.793384"><ele>1537.3379</ele><time>2026-08-15T21:17:35.000Z</time></trkpt>
        <trkpt lat="28.137169" lon="105.793401"><ele>1537.4509</ele><time>2026-08-15T21:17:37.000Z</time></trkpt>
        <trkpt lat="28.137172" lon="105.793407"><ele>1537.6307</ele><time>2026-08-15T21:17:39.000Z</time></trkpt>
        <trkpt lat="28.137181" lon="105.793412"><ele>1538.9071</ele><time>2026-08-15T21:17:45.000Z</time></trkpt>
        <trkpt lat="28.137195" lon="105.793421"><ele>1543.5409</ele><time>2026-08-15T21:18:37.000Z</time></trkpt>
        <trkpt lat="28.13717" lon="105.793458"><ele>1541.7203</ele><time>2026-08-15T21:18:51.000Z</time></trkpt>
        <trkpt lat="28.137156" lon="105.793479"><ele>1541.7543</ele><time>2026-08-15T21:18:53.000Z</time></trkpt>
        <trkpt lat="28.137155" lon="105.79348"><ele>1541.69</ele><time>2026-08-15T21:18:55.000Z</time></trkpt>
        <trkpt lat="28.137154" lon="105.793486"><ele>1540.9127</ele><time>2026-08-15T21:18:57.000Z</time></trkpt>
        <trkpt lat="28.137144" lon="105.793531"><ele>1540.5612</ele><time>2026-08-15T21:19:01.000Z</time></trkpt>
        <trkpt lat="28.137141" lon="105.793561"><ele>1540.1162</ele><time>2026-08-15T21:19:03.000Z</time></trkpt>
        <trkpt lat="28.13714" lon="105.793595"><ele>1540.0272</ele><time>2026-08-15T21:19:05.000Z</time></trkpt>
        <trkpt lat="28.137141" lon="105.793629"><ele>1538.7544</ele><time>2026-08-15T21:19:06.000Z</time></trkpt>
        <trkpt lat="28.137148" lon="105.793659"><ele>1538.696</ele><time>2026-08-15T21:19:08.000Z</time></trkpt>
        <trkpt lat="28.137158" lon="105.793686"><ele>1538.99</ele><time>2026-08-15T21:19:10.000Z</time></trkpt>
        <trkpt lat="28.137168" lon="105.793709"><ele>1539.2997</ele><time>2026-08-15T21:19:12.000Z</time></trkpt>
        <trkpt lat="28.137179" lon="105.793727"><ele>1539.5432</ele><time>2026-08-15T21:19:14.000Z</time></trkpt>
        <trkpt lat="28.137192" lon="105.793745"><ele>1540.2551</ele><time>2026-08-15T21:19:16.000Z</time></trkpt>
        <trkpt lat="28.137206" lon="105.793759"><ele>1540.0615</ele><time>2026-08-15T21:19:18.000Z</time></trkpt>
        <trkpt lat="28.137218" lon="105.793765"><ele>1539.9442</ele><time>2026-08-15T21:19:20.000Z</time></trkpt>
        <trkpt lat="28.137225" lon="105.793771"><ele>1539.6711</ele><time>2026-08-15T21:19:22.000Z</time></trkpt>
        <trkpt lat="28.137224" lon="105.793774"><ele>1539.5884</ele><time>2026-08-15T21:19:26.000Z</time></trkpt>
        <trkpt lat="28.137213" lon="105.7938"><ele>1538.578</ele><time>2026-08-15T21:19:30.000Z</time></trkpt>
        <trkpt lat="28.137205" lon="105.793818"><ele>1538.7512</ele><time>2026-08-15T21:19:32.000Z</time></trkpt>
        <trkpt lat="28.137196" lon="105.793837"><ele>1537.9476</ele><time>2026-08-15T21:19:34.000Z</time></trkpt>
        <trkpt lat="28.137183" lon="105.793855"><ele>1538.6382</ele><time>2026-08-15T21:19:36.000Z</time></trkpt>
        <trkpt lat="28.137167" lon="105.793865"><ele>1538.673</ele><time>2026-08-15T21:19:38.000Z</time></trkpt>
        <trkpt lat="28.13715" lon="105.793868"><ele>1538.3971</ele><time>2026-08-15T21:19:40.000Z</time></trkpt>
        <trkpt lat="28.137132" lon="105.793864"><ele>1538.3329</ele><time>2026-08-15T21:19:42.000Z</time></trkpt>
        <trkpt lat="28.13711" lon="105.793856"><ele>1538.6317</ele><time>2026-08-15T21:19:44.000Z</time></trkpt>
        <trkpt lat="28.137092" lon="105.793846"><ele>1537.0901</ele><time>2026-08-15T21:19:46.000Z</time></trkpt>
        <trkpt lat="28.137075" lon="105.793833"><ele>1537.5815</ele><time>2026-08-15T21:19:49.000Z</time></trkpt>
        <trkpt lat="28.137061" lon="105.79382"><ele>1538.1514</ele><time>2026-08-15T21:19:51.000Z</time></trkpt>
        <trkpt lat="28.137046" lon="105.793805"><ele>1538.8666</ele><time>2026-08-15T21:19:53.000Z</time></trkpt>
        <trkpt lat="28.137032" lon="105.793787"><ele>1539.1193</ele><time>2026-08-15T21:19:55.000Z</time></trkpt>
        <trkpt lat="28.137017" lon="105.793763"><ele>1539.2351</ele><time>2026-08-15T21:19:57.000Z</time></trkpt>
        <trkpt lat="28.137002" lon="105.793742"><ele>1539.5343</ele><time>2026-08-15T21:19:59.000Z</time></trkpt>
        <trkpt lat="28.136987" lon="105.793726"><ele>1539.7303</ele><time>2026-08-15T21:20:01.000Z</time></trkpt>
        <trkpt lat="28.13697" lon="105.793713"><ele>1540.2396</ele><time>2026-08-15T21:20:03.000Z</time></trkpt>
        <trkpt lat="28.136951" lon="105.7937"><ele>1540.087</ele><time>2026-08-15T21:20:05.000Z</time></trkpt>
        <trkpt lat="28.136932" lon="105.793687"><ele>1539.9059</ele><time>2026-08-15T21:20:07.000Z</time></trkpt>
        <trkpt lat="28.136911" lon="105.793675"><ele>1540.2086</ele><time>2026-08-15T21:20:09.000Z</time></trkpt>
        <trkpt lat="28.136893" lon="105.793664"><ele>1540.3583</ele><time>2026-08-15T21:20:11.000Z</time></trkpt>
        <trkpt lat="28.136876" lon="105.793649"><ele>1539.4489</ele><time>2026-08-15T21:20:13.000Z</time></trkpt>
        <trkpt lat="28.136857" lon="105.793634"><ele>1538.4695</ele><time>2026-08-15T21:20:15.000Z</time></trkpt>
        <trkpt lat="28.136835" lon="105.79362"><ele>1538.1613</ele><time>2026-08-15T21:20:17.000Z</time></trkpt>
        <trkpt lat="28.136812" lon="105.793607"><ele>1537.8142</ele><time>2026-08-15T21:20:19.000Z</time></trkpt>
        <trkpt lat="28.136791" lon="105.793596"><ele>1538.2786</ele><time>2026-08-15T21:20:21.000Z</time></trkpt>
        <trkpt lat="28.136776" lon="105.793586"><ele>1538.4984</ele><time>2026-08-15T21:20:23.000Z</time></trkpt>
        <trkpt lat="28.136762" lon="105.793575"><ele>1538.691</ele><time>2026-08-15T21:20:25.000Z</time></trkpt>
        <trkpt lat="28.136744" lon="105.79356"><ele>1539.538</ele><time>2026-08-15T21:20:27.000Z</time></trkpt>
        <trkpt lat="28.136724" lon="105.793557"><ele>1538.9008</ele><time>2026-08-15T21:20:29.000Z</time></trkpt>
        <trkpt lat="28.136718" lon="105.793563"><ele>1539.8325</ele><time>2026-08-15T21:20:31.000Z</time></trkpt>
        <trkpt lat="28.136708" lon="105.793583"><ele>1540.2758</ele><time>2026-08-15T21:20:33.000Z</time></trkpt>
        <trkpt lat="28.1367" lon="105.793612"><ele>1542.6028</ele><time>2026-08-15T21:20:35.000Z</time></trkpt>
        <trkpt lat="28.136692" lon="105.793648"><ele>1543.7288</ele><time>2026-08-15T21:20:37.000Z</time></trkpt>
        <trkpt lat="28.136681" lon="105.793688"><ele>1545.3289</ele><time>2026-08-15T21:20:39.000Z</time></trkpt>
        <trkpt lat="28.136666" lon="105.79372"><ele>1545.8986</ele><time>2026-08-15T21:20:41.000Z</time></trkpt>
        <trkpt lat="28.136648" lon="105.793746"><ele>1547.6235</ele><time>2026-08-15T21:20:43.000Z</time></trkpt>
        <trkpt lat="28.136624" lon="105.793766"><ele>1547.7838</ele><time>2026-08-15T21:20:45.000Z</time></trkpt>
        <trkpt lat="28.136601" lon="105.793776"><ele>1546.6852</ele><time>2026-08-15T21:20:47.000Z</time></trkpt>
        <trkpt lat="28.136577" lon="105.793783"><ele>1546.2042</ele><time>2026-08-15T21:20:49.000Z</time></trkpt>
        <trkpt lat="28.136557" lon="105.793782"><ele>1547.3264</ele><time>2026-08-15T21:20:51.000Z</time></trkpt>
        <trkpt lat="28.136538" lon="105.793779"><ele>1546.7175</ele><time>2026-08-15T21:20:53.000Z</time></trkpt>
        <trkpt lat="28.136519" lon="105.793773"><ele>1546.483</ele><time>2026-08-15T21:20:55.000Z</time></trkpt>
        <trkpt lat="28.136498" lon="105.793765"><ele>1546.536</ele><time>2026-08-15T21:20:57.000Z</time></trkpt>
        <trkpt lat="28.136478" lon="105.793752"><ele>1547.4565</ele><time>2026-08-15T21:20:59.000Z</time></trkpt>
        <trkpt lat="28.136458" lon="105.793737"><ele>1547.1154</ele><time>2026-08-15T21:21:01.000Z</time></trkpt>
        <trkpt lat="28.136437" lon="105.793723"><ele>1547.6453</ele><time>2026-08-15T21:21:03.000Z</time></trkpt>
        <trkpt lat="28.136417" lon="105.793715"><ele>1547.7003</ele><time>2026-08-15T21:21:05.000Z</time></trkpt>
        <trkpt lat="28.136406" lon="105.793718"><ele>1549.3008</ele><time>2026-08-15T21:21:07.000Z</time></trkpt>
        <trkpt lat="28.136403" lon="105.793725"><ele>1550.3479</ele><time>2026-08-15T21:21:09.000Z</time></trkpt>
        <trkpt lat="28.136399" lon="105.793748"><ele>1550.9943</ele><time>2026-08-15T21:21:11.000Z</time></trkpt>
        <trkpt lat="28.1364" lon="105.793782"><ele>1550.6462</ele><time>2026-08-15T21:21:12.000Z</time></trkpt>
        <trkpt lat="28.136403" lon="105.793859"><ele>1551.5803</ele><time>2026-08-15T21:21:14.000Z</time></trkpt>
        <trkpt lat="28.136405" lon="105.793863"><ele>1552.6531</ele><time>2026-08-15T21:21:16.000Z</time></trkpt>
        <trkpt lat="28.136409" lon="105.793868"><ele>1551.965</ele><time>2026-08-15T21:21:18.000Z</time></trkpt>
        <trkpt lat="28.136429" lon="105.793903"><ele>1551.0586</ele><time>2026-08-15T21:21:22.000Z</time></trkpt>
        <trkpt lat="28.136436" lon="105.793925"><ele>1550.8395</ele><time>2026-08-15T21:21:24.000Z</time></trkpt>
        <trkpt lat="28.136441" lon="105.793949"><ele>1550.1494</ele><time>2026-08-15T21:21:26.000Z</time></trkpt>
        <trkpt lat="28.136438" lon="105.793974"><ele>1550.3093</ele><time>2026-08-15T21:21:28.000Z</time></trkpt>
        <trkpt lat="28.136428" lon="105.793993"><ele>1549.2651</ele><time>2026-08-15T21:21:30.000Z</time></trkpt>
        <trkpt lat="28.136413" lon="105.794011"><ele>1548.334</ele><time>2026-08-15T21:21:32.000Z</time></trkpt>
        <trkpt lat="28.136393" lon="105.794035"><ele>1547.9271</ele><time>2026-08-15T21:21:34.000Z</time></trkpt>
        <trkpt lat="28.136379" lon="105.794058"><ele>1547.9872</ele><time>2026-08-15T21:21:36.000Z</time></trkpt>
        <trkpt lat="28.136374" lon="105.794071"><ele>1548.2617</ele><time>2026-08-15T21:21:38.000Z</time></trkpt>
        <trkpt lat="28.136376" lon="105.794073"><ele>1548.2479</ele><time>2026-08-15T21:21:40.000Z</time></trkpt>
        <trkpt lat="28.136388" lon="105.794092"><ele>1552.4503</ele><time>2026-08-15T21:21:58.000Z</time></trkpt>
        <trkpt lat="28.13641" lon="105.79395"><ele>1546.1366</ele><time>2026-08-15T21:24:38.000Z</time></trkpt>
        <trkpt lat="28.136383" lon="105.79388"><ele>1543.8713</ele><time>2026-08-15T21:24:47.000Z</time></trkpt>
        <trkpt lat="28.136374" lon="105.793859"><ele>1542.2863</ele><time>2026-08-15T21:24:49.000Z</time></trkpt>
        <trkpt lat="28.136375" lon="105.793858"><ele>1542.7218</ele><time>2026-08-15T21:24:51.000Z</time></trkpt>
        <trkpt lat="28.136377" lon="105.793834"><ele>1545.38</ele><time>2026-08-15T21:24:55.000Z</time></trkpt>
        <trkpt lat="28.136382" lon="105.793807"><ele>1546.5497</ele><time>2026-08-15T21:24:57.000Z</time></trkpt>
        <trkpt lat="28.13639" lon="105.793778"><ele>1547.7865</ele><time>2026-08-15T21:24:59.000Z</time></trkpt>
        <trkpt lat="28.136396" lon="105.793751"><ele>1549.0138</ele><time>2026-08-15T21:25:01.000Z</time></trkpt>
        <trkpt lat="28.136395" lon="105.793738"><ele>1549.8243</ele><time>2026-08-15T21:25:03.000Z</time></trkpt>
        <trkpt lat="28.1364" lon="105.79373"><ele>1549.1439</ele><time>2026-08-15T21:25:05.000Z</time></trkpt>
        <trkpt lat="28.136405" lon="105.793731"><ele>1551.4937</ele><time>2026-08-15T21:25:09.000Z</time></trkpt>
        <trkpt lat="28.136446" lon="105.793745"><ele>1552.7147</ele><time>2026-08-15T21:25:11.000Z</time></trkpt>
        <trkpt lat="28.136449" lon="105.793746"><ele>1552.5189</ele><time>2026-08-15T21:25:13.000Z</time></trkpt>
        <trkpt lat="28.136456" lon="105.793747"><ele>1551.6897</ele><time>2026-08-15T21:25:15.000Z</time></trkpt>
        <trkpt lat="28.136479" lon="105.793753"><ele>1551.1515</ele><time>2026-08-15T21:25:17.000Z</time></trkpt>
        <trkpt lat="28.136511" lon="105.793761"><ele>1550.6001</ele><time>2026-08-15T21:25:19.000Z</time></trkpt>
        <trkpt lat="28.13654" lon="105.793765"><ele>1549.8821</ele><time>2026-08-15T21:25:21.000Z</time></trkpt>
        <trkpt lat="28.136562" lon="105.793764"><ele>1548.3578</ele><time>2026-08-15T21:25:23.000Z</time></trkpt>
        <trkpt lat="28.136584" lon="105.793762"><ele>1547.5009</ele><time>2026-08-15T21:25:24.000Z</time></trkpt>
        <trkpt lat="28.136603" lon="105.793757"><ele>1547.5392</ele><time>2026-08-15T21:25:26.000Z</time></trkpt>
        <trkpt lat="28.136617" lon="105.79375"><ele>1547.5243</ele><time>2026-08-15T21:25:28.000Z</time></trkpt>
        <trkpt lat="28.136633" lon="105.793738"><ele>1548.0314</ele><time>2026-08-15T21:25:30.000Z</time></trkpt>
        <trkpt lat="28.136649" lon="105.793725"><ele>1548.1626</ele><time>2026-08-15T21:25:32.000Z</time></trkpt>
        <trkpt lat="28.136666" lon="105.793708"><ele>1548.1304</ele><time>2026-08-15T21:25:34.000Z</time></trkpt>
        <trkpt lat="28.136677" lon="105.793693"><ele>1547.1517</ele><time>2026-08-15T21:25:36.000Z</time></trkpt>
        <trkpt lat="28.136687" lon="105.793675"><ele>1547.747</ele><time>2026-08-15T21:25:38.000Z</time></trkpt>
        <trkpt lat="28.136691" lon="105.793661"><ele>1548.0869</ele><time>2026-08-15T21:25:40.000Z</time></trkpt>
        <trkpt lat="28.136695" lon="105.793646"><ele>1548.2079</ele><time>2026-08-15T21:25:42.000Z</time></trkpt>
        <trkpt lat="28.136701" lon="105.793631"><ele>1548.8157</ele><time>2026-08-15T21:25:44.000Z</time></trkpt>
        <trkpt lat="28.136708" lon="105.793616"><ele>1549.2809</ele><time>2026-08-15T21:25:47.000Z</time></trkpt>
        <trkpt lat="28.136709" lon="105.793608"><ele>1549.8599</ele><time>2026-08-15T21:25:49.000Z</time></trkpt>
        <trkpt lat="28.136712" lon="105.793592"><ele>1546.0177</ele><time>2026-08-15T21:26:31.000Z</time></trkpt>
        <trkpt lat="28.136761" lon="105.793611"><ele>1552.3767</ele><time>2026-08-15T21:27:47.000Z</time></trkpt>
        <trkpt lat="28.13678" lon="105.793621"><ele>1548.62</ele><time>2026-08-15T21:28:02.000Z</time></trkpt>
        <trkpt lat="28.136798" lon="105.793632"><ele>1548.5038</ele><time>2026-08-15T21:28:04.000Z</time></trkpt>
        <trkpt lat="28.1368" lon="105.793632"><ele>1548.2338</ele><time>2026-08-15T21:28:06.000Z</time></trkpt>
        <trkpt lat="28.136815" lon="105.793636"><ele>1549.6267</ele><time>2026-08-15T21:28:12.000Z</time></trkpt>
        <trkpt lat="28.136832" lon="105.793639"><ele>1549.2229</ele><time>2026-08-15T21:28:16.000Z</time></trkpt>
        <trkpt lat="28.136833" lon="105.793639"><ele>1549.3853</ele><time>2026-08-15T21:28:18.000Z</time></trkpt>
        <trkpt lat="28.13685" lon="105.79365"><ele>1547.414</ele><time>2026-08-15T21:28:28.000Z</time></trkpt>
        <trkpt lat="28.136794" lon="105.793612"><ele>1546.4653</ele><time>2026-08-15T21:28:40.000Z</time></trkpt>
        <trkpt lat="28.136777" lon="105.7936"><ele>1546.1589</ele><time>2026-08-15T21:28:42.000Z</time></trkpt>
        <trkpt lat="28.136777" lon="105.7936"><ele>1546.8015</ele><time>2026-08-15T21:28:44.000Z</time></trkpt>
        <trkpt lat="28.136769" lon="105.793626"><ele>1546.5876</ele><time>2026-08-15T21:29:08.000Z</time></trkpt>
        <trkpt lat="28.136765" lon="105.793626"><ele>1546.893</ele><time>2026-08-15T21:29:12.000Z</time></trkpt>
        <trkpt lat="28.136746" lon="105.793624"><ele>1546.5176</ele><time>2026-08-15T21:31:28.000Z</time></trkpt>
        <trkpt lat="28.136746" lon="105.793696"><ele>1546.9508</ele><time>2026-08-15T21:32:04.000Z</time></trkpt>
        <trkpt lat="28.136746" lon="105.793696"><ele>1546.5509</ele><time>2026-08-15T21:32:06.000Z</time></trkpt>
        <trkpt lat="28.136747" lon="105.793694"><ele>1546.9271</ele><time>2026-08-15T21:32:08.000Z</time></trkpt>
        <trkpt lat="28.136747" lon="105.793635"><ele>1546.891</ele><time>2026-08-15T21:32:16.000Z</time></trkpt>
        <trkpt lat="28.136746" lon="105.79363"><ele>1546.891</ele><time>2026-08-15T21:32:18.000Z</time></trkpt>
        <trkpt lat="28.136745" lon="105.79363"><ele>1546.891</ele><time>2026-08-15T21:32:20.000Z</time></trkpt>
        <trkpt lat="28.136708" lon="105.793601"><ele>1553.4224</ele><time>2026-08-15T21:33:07.000Z</time></trkpt>
        <trkpt lat="28.136708" lon="105.793601"><ele>1553.512</ele><time>2026-08-15T21:33:22.000Z</time></trkpt>
        <trkpt lat="28.136709" lon="105.793602"><ele>1554.4321</ele><time>2026-08-15T21:33:37.000Z</time></trkpt>
        <trkpt lat="28.136747" lon="105.793641"><ele>1553.9014</ele><time>2026-08-15T21:33:58.000Z</time></trkpt>
        <trkpt lat="28.136747" lon="105.793641"><ele>1553.5177</ele><time>2026-08-15T21:34:00.000Z</time></trkpt>
        <trkpt lat="28.136748" lon="105.793642"><ele>1552.8198</ele><time>2026-08-15T21:34:02.000Z</time></trkpt>
        <trkpt lat="28.136773" lon="105.793659"><ele>1553.8197</ele><time>2026-08-15T21:34:10.000Z</time></trkpt>
        <trkpt lat="28.136776" lon="105.79366"><ele>1553.8197</ele><time>2026-08-15T21:34:12.000Z</time></trkpt>
        <trkpt lat="28.136776" lon="105.79366"><ele>1553.8954</ele><time>2026-08-15T21:34:14.000Z</time></trkpt>
        <trkpt lat="28.13678" lon="105.793622"><ele>1549.331</ele><time>2026-08-15T21:35:35.000Z</time></trkpt>
        <trkpt lat="28.136782" lon="105.793618"><ele>1549.0149</ele><time>2026-08-15T21:35:37.000Z</time></trkpt>
        <trkpt lat="28.136782" lon="105.793618"><ele>1548.7407</ele><time>2026-08-15T21:35:39.000Z</time></trkpt>
        <trkpt lat="28.136749" lon="105.793603"><ele>1548.0625</ele><time>2026-08-15T21:35:47.000Z</time></trkpt>
        <trkpt lat="28.136724" lon="105.793591"><ele>1547.3745</ele><time>2026-08-15T21:35:49.000Z</time></trkpt>
        <trkpt lat="28.136724" lon="105.793591"><ele>1546.863</ele><time>2026-08-15T21:35:51.000Z</time></trkpt>
        <trkpt lat="28.136717" lon="105.793629"><ele>1551.3008</ele><time>2026-08-15T21:35:57.000Z</time></trkpt>
        <trkpt lat="28.136712" lon="105.793652"><ele>1552.0542</ele><time>2026-08-15T21:35:59.000Z</time></trkpt>
        <trkpt lat="28.136706" lon="105.79367"><ele>1552.1702</ele><time>2026-08-15T21:36:01.000Z</time></trkpt>
        <trkpt lat="28.136701" lon="105.793686"><ele>1552.8926</ele><time>2026-08-15T21:36:03.000Z</time></trkpt>
        <trkpt lat="28.136692" lon="105.793706"><ele>1553.2574</ele><time>2026-08-15T21:36:05.000Z</time></trkpt>
        <trkpt lat="28.136681" lon="105.793729"><ele>1552.7314</ele><time>2026-08-15T21:36:07.000Z</time></trkpt>
        <trkpt lat="28.136669" lon="105.793749"><ele>1553.0183</ele><time>2026-08-15T21:36:09.000Z</time></trkpt>
        <trkpt lat="28.136657" lon="105.793763"><ele>1553.347</ele><time>2026-08-15T21:36:11.000Z</time></trkpt>
        <trkpt lat="28.136644" lon="105.793769"><ele>1552.5513</ele><time>2026-08-15T21:36:13.000Z</time></trkpt>
        <trkpt lat="28.13663" lon="105.793771"><ele>1551.7114</ele><time>2026-08-15T21:36:15.000Z</time></trkpt>
        <trkpt lat="28.136615" lon="105.793767"><ele>1550.143</ele><time>2026-08-15T21:36:17.000Z</time></trkpt>
        <trkpt lat="28.136599" lon="105.793761"><ele>1548.6447</ele><time>2026-08-15T21:36:19.000Z</time></trkpt>
        <trkpt lat="28.136583" lon="105.79376"><ele>1546.934</ele><time>2026-08-15T21:36:21.000Z</time></trkpt>
        <trkpt lat="28.136569" lon="105.793763"><ele>1549.284</ele><time>2026-08-15T21:36:23.000Z</time></trkpt>
        <trkpt lat="28.136548" lon="105.793769"><ele>1551.6423</ele><time>2026-08-15T21:36:25.000Z</time></trkpt>
        <trkpt lat="28.136529" lon="105.793771"><ele>1552.1641</ele><time>2026-08-15T21:36:27.000Z</time></trkpt>
        <trkpt lat="28.136515" lon="105.793769"><ele>1551.7081</ele><time>2026-08-15T21:36:29.000Z</time></trkpt>
        <trkpt lat="28.136493" lon="105.793762"><ele>1551.5912</ele><time>2026-08-15T21:36:31.000Z</time></trkpt>
        <trkpt lat="28.13647" lon="105.793751"><ele>1550.345</ele><time>2026-08-15T21:36:33.000Z</time></trkpt>
        <trkpt lat="28.136449" lon="105.79374"><ele>1549.876</ele><time>2026-08-15T21:36:35.000Z</time></trkpt>
        <trkpt lat="28.136423" lon="105.79373"><ele>1548.6537</ele><time>2026-08-15T21:36:37.000Z</time></trkpt>
        <trkpt lat="28.136401" lon="105.793724"><ele>1549.7764</ele><time>2026-08-15T21:36:39.000Z</time></trkpt>
        <trkpt lat="28.136385" lon="105.793724"><ele>1553.0383</ele><time>2026-08-15T21:36:41.000Z</time></trkpt>
        <trkpt lat="28.13638" lon="105.793729"><ele>1554.7192</ele><time>2026-08-15T21:36:43.000Z</time></trkpt>
        <trkpt lat="28.136377" lon="105.793741"><ele>1556.8568</ele><time>2026-08-15T21:36:45.000Z</time></trkpt>
        <trkpt lat="28.13638" lon="105.793762"><ele>1558.857</ele><time>2026-08-15T21:36:46.000Z</time></trkpt>
        <trkpt lat="28.136399" lon="105.793866"><ele>1561.1036</ele><time>2026-08-15T21:36:48.000Z</time></trkpt>
        <trkpt lat="28.136402" lon="105.793873"><ele>1561.7511</ele><time>2026-08-15T21:36:50.000Z</time></trkpt>
        <trkpt lat="28.136405" lon="105.793877"><ele>1562.5627</ele><time>2026-08-15T21:36:52.000Z</time></trkpt>
        <trkpt lat="28.136432" lon="105.793911"><ele>1560.2465</ele><time>2026-08-15T21:36:56.000Z</time></trkpt>
        <trkpt lat="28.136445" lon="105.793931"><ele>1559.1426</ele><time>2026-08-15T21:36:58.000Z</time></trkpt>
        <trkpt lat="28.136452" lon="105.793947"><ele>1557.8397</ele><time>2026-08-15T21:37:00.000Z</time></trkpt>
        <trkpt lat="28.136451" lon="105.793957"><ele>1557.2015</ele><time>2026-08-15T21:37:02.000Z</time></trkpt>
        <trkpt lat="28.136448" lon="105.793974"><ele>1552.6226</ele><time>2026-08-15T21:37:06.000Z</time></trkpt>
        <trkpt lat="28.136442" lon="105.793985"><ele>1552.1682</ele><time>2026-08-15T21:37:08.000Z</time></trkpt>
        <trkpt lat="28.136434" lon="105.794"><ele>1552.2706</ele><time>2026-08-15T21:37:10.000Z</time></trkpt>
        <trkpt lat="28.136423" lon="105.794014"><ele>1552.3597</ele><time>2026-08-15T21:37:12.000Z</time></trkpt>
        <trkpt lat="28.136408" lon="105.794029"><ele>1551.9066</ele><time>2026-08-15T21:37:14.000Z</time></trkpt>
        <trkpt lat="28.136394" lon="105.794047"><ele>1551.2465</ele><time>2026-08-15T21:37:16.000Z</time></trkpt>
        <trkpt lat="28.136378" lon="105.794064"><ele>1552.8484</ele><time>2026-08-15T21:37:19.000Z</time></trkpt>
        <trkpt lat="28.136361" lon="105.794082"><ele>1552.4573</ele><time>2026-08-15T21:37:21.000Z</time></trkpt>
        <trkpt lat="28.13635" lon="105.794094"><ele>1551.9985</ele><time>2026-08-15T21:37:23.000Z</time></trkpt>
        <trkpt lat="28.136346" lon="105.7941"><ele>1552.0018</ele><time>2026-08-15T21:37:25.000Z</time></trkpt>
        <trkpt lat="28.136331" lon="105.794125"><ele>1555.5872</ele><time>2026-08-15T21:37:39.000Z</time></trkpt>
        <trkpt lat="28.136331" lon="105.794125"><ele>1556.1193</ele><time>2026-08-15T21:37:41.000Z</time></trkpt>
        <trkpt lat="28.136376" lon="105.794122"><ele>1558.2328</ele><time>2026-08-15T21:37:55.000Z</time></trkpt>
        <trkpt lat="28.136381" lon="105.794123"><ele>1558.2328</ele><time>2026-08-15T21:37:57.000Z</time></trkpt>
        <trkpt lat="28.136381" lon="105.794125"><ele>1558.2328</ele><time>2026-08-15T21:37:59.000Z</time></trkpt>
        <trkpt lat="28.136363" lon="105.794084"><ele>1547.0962</ele><time>2026-08-15T21:38:39.000Z</time></trkpt>
        <trkpt lat="28.13636" lon="105.794081"><ele>1545.0925</ele><time>2026-08-15T21:38:55.000Z</time></trkpt>
        <trkpt lat="28.136356" lon="105.794083"><ele>1543.3029</ele><time>2026-08-15T21:39:10.000Z</time></trkpt>
        <trkpt lat="28.136297" lon="105.794111"><ele>1543.8068</ele><time>2026-08-15T21:39:37.000Z</time></trkpt>
        <trkpt lat="28.136297" lon="105.794111"><ele>1543.4268</ele><time>2026-08-15T21:39:39.000Z</time></trkpt>
        <trkpt lat="28.136297" lon="105.794111"><ele>1543.4095</ele><time>2026-08-15T21:39:41.000Z</time></trkpt>
        <trkpt lat="28.136276" lon="105.794163"><ele>1545.9966</ele><time>2026-08-15T21:39:53.000Z</time></trkpt>
        <trkpt lat="28.136276" lon="105.794163"><ele>1548.0541</ele><time>2026-08-15T21:39:55.000Z</time></trkpt>
        <trkpt lat="28.136279" lon="105.794164"><ele>1547.6365</ele><time>2026-08-15T21:39:57.000Z</time></trkpt>
        <trkpt lat="28.136309" lon="105.794178"><ele>1547.7723</ele><time>2026-08-15T21:40:03.000Z</time></trkpt>
        <trkpt lat="28.136312" lon="105.794181"><ele>1547.6229</ele><time>2026-08-15T21:40:05.000Z</time></trkpt>
        <trkpt lat="28.136317" lon="105.794197"><ele>1547.9393</ele><time>2026-08-15T21:40:07.000Z</time></trkpt>
        <trkpt lat="28.135943" lon="105.795084"><ele>1562.446</ele><time>2026-08-15T21:45:13.000Z</time></trkpt>
        <trkpt lat="28.135945" lon="105.795084"><ele>1563.733</ele><time>2026-08-15T21:45:15.000Z</time></trkpt>
        <trkpt lat="28.136332" lon="105.795053"><ele>1560.4537</ele><time>2026-08-15T21:45:17.000Z</time></trkpt>
        <trkpt lat="28.136374" lon="105.795049"><ele>1558.2761</ele><time>2026-08-15T21:45:20.000Z</time></trkpt>
        <trkpt lat="28.136376" lon="105.795049"><ele>1558.1904</ele><time>2026-08-15T21:45:22.000Z</time></trkpt>
        <trkpt lat="28.136389" lon="105.795046"><ele>1558.0797</ele><time>2026-08-15T21:45:28.000Z</time></trkpt>
        <trkpt lat="28.136429" lon="105.795042"><ele>1557.8676</ele><time>2026-08-15T21:45:34.000Z</time></trkpt>
        <trkpt lat="28.136512" lon="105.795033"><ele>1558.8754</ele><time>2026-08-15T21:45:39.000Z</time></trkpt>
        <trkpt lat="28.136512" lon="105.795033"><ele>1558.8802</ele><time>2026-08-15T21:45:41.000Z</time></trkpt>
        <trkpt lat="28.136509" lon="105.795033"><ele>1551.6573</ele><time>2026-08-15T21:45:43.000Z</time></trkpt>
        <trkpt lat="28.136383" lon="105.795008"><ele>1544.5304</ele><time>2026-08-15T21:45:49.000Z</time></trkpt>
        <trkpt lat="28.136337" lon="105.795"><ele>1543.1047</ele><time>2026-08-15T21:45:51.000Z</time></trkpt>
        <trkpt lat="28.136298" lon="105.794996"><ele>1542.2422</ele><time>2026-08-15T21:45:53.000Z</time></trkpt>
        <trkpt lat="28.136273" lon="105.794997"><ele>1541.5787</ele><time>2026-08-15T21:45:55.000Z</time></trkpt>
        <trkpt lat="28.136252" lon="105.795002"><ele>1540.4194</ele><time>2026-08-15T21:45:57.000Z</time></trkpt>
        <trkpt lat="28.136239" lon="105.79501"><ele>1540.1769</ele><time>2026-08-15T21:46:01.000Z</time></trkpt>
        <trkpt lat="28.136238" lon="105.79501"><ele>1540.3145</ele><time>2026-08-15T21:46:03.000Z</time></trkpt>
        <trkpt lat="28.136284" lon="105.795016"><ele>1540.5854</ele><time>2026-08-15T21:46:05.000Z</time></trkpt>
        <trkpt lat="28.136287" lon="105.795018"><ele>1540.848</ele><time>2026-08-15T21:46:07.000Z</time></trkpt>
        <trkpt lat="28.136287" lon="105.795018"><ele>1540.6711</ele><time>2026-08-15T21:46:09.000Z</time></trkpt>
        <trkpt lat="28.136251" lon="105.79503"><ele>1539.8989</ele><time>2026-08-15T21:46:21.000Z</time></trkpt>
        <trkpt lat="28.136246" lon="105.795029"><ele>1539.8583</ele><time>2026-08-15T21:46:23.000Z</time></trkpt>
        <trkpt lat="28.136244" lon="105.79503"><ele>1540.2615</ele><time>2026-08-15T21:46:25.000Z</time></trkpt>
        <trkpt lat="28.136292" lon="105.795018"><ele>1547.1713</ele><time>2026-08-15T21:49:16.000Z</time></trkpt>
        <trkpt lat="28.136306" lon="105.795016"><ele>1547.802</ele><time>2026-08-15T21:49:31.000Z</time></trkpt>
        <trkpt lat="28.136306" lon="105.795016"><ele>1546.2484</ele><time>2026-08-15T21:49:36.000Z</time></trkpt>
        <trkpt lat="28.136314" lon="105.795061"><ele>1541.7965</ele><time>2026-08-15T21:52:42.000Z</time></trkpt>
        <trkpt lat="28.136323" lon="105.795084"><ele>1543.3408</ele><time>2026-08-15T21:52:44.000Z</time></trkpt>
        <trkpt lat="28.136334" lon="105.795113"><ele>1542.6049</ele><time>2026-08-15T21:52:46.000Z</time></trkpt>
        <trkpt lat="28.136335" lon="105.795115"><ele>1543.2078</ele><time>2026-08-15T21:52:48.000Z</time></trkpt>
        <trkpt lat="28.136336" lon="105.795116"><ele>1542.2633</ele><time>2026-08-15T21:52:50.000Z</time></trkpt>
        <trkpt lat="28.136371" lon="105.79515"><ele>1541.1447</ele><time>2026-08-15T21:53:00.000Z</time></trkpt>
        <trkpt lat="28.136371" lon="105.79515"><ele>1541.0184</ele><time>2026-08-15T21:53:02.000Z</time></trkpt>
        <trkpt lat="28.136372" lon="105.795152"><ele>1541.5208</ele><time>2026-08-15T21:53:04.000Z</time></trkpt>
        <trkpt lat="28.136389" lon="105.795187"><ele>1540.5599</ele><time>2026-08-15T21:53:08.000Z</time></trkpt>
        <trkpt lat="28.136404" lon="105.795218"><ele>1541.0687</ele><time>2026-08-15T21:53:10.000Z</time></trkpt>
        <trkpt lat="28.136419" lon="105.795251"><ele>1541.4131</ele><time>2026-08-15T21:53:12.000Z</time></trkpt>
        <trkpt lat="28.136433" lon="105.795281"><ele>1541.9327</ele><time>2026-08-15T21:53:14.000Z</time></trkpt>
        <trkpt lat="28.136448" lon="105.795313"><ele>1542.704</ele><time>2026-08-15T21:53:16.000Z</time></trkpt>
        <trkpt lat="28.13646" lon="105.795345"><ele>1543.5092</ele><time>2026-08-15T21:53:18.000Z</time></trkpt>
        <trkpt lat="28.136467" lon="105.795375"><ele>1543.4584</ele><time>2026-08-15T21:53:20.000Z</time></trkpt>
        <trkpt lat="28.136473" lon="105.795402"><ele>1542.0323</ele><time>2026-08-15T21:53:22.000Z</time></trkpt>
        <trkpt lat="28.136481" lon="105.795427"><ele>1542.3546</ele><time>2026-08-15T21:53:24.000Z</time></trkpt>
        <trkpt lat="28.136492" lon="105.79545"><ele>1543.2673</ele><time>2026-08-15T21:53:26.000Z</time></trkpt>
        <trkpt lat="28.136506" lon="105.795469"><ele>1543.3525</ele><time>2026-08-15T21:53:28.000Z</time></trkpt>
        <trkpt lat="28.136525" lon="105.795488"><ele>1543.0883</ele><time>2026-08-15T21:53:30.000Z</time></trkpt>
        <trkpt lat="28.136543" lon="105.795504"><ele>1542.5372</ele><time>2026-08-15T21:53:32.000Z</time></trkpt>
        <trkpt lat="28.136562" lon="105.795519"><ele>1541.7183</ele><time>2026-08-15T21:53:34.000Z</time></trkpt>
        <trkpt lat="28.136578" lon="105.795537"><ele>1541.3829</ele><time>2026-08-15T21:53:36.000Z</time></trkpt>
        <trkpt lat="28.13659" lon="105.795554"><ele>1541.086</ele><time>2026-08-15T21:53:38.000Z</time></trkpt>
        <trkpt lat="28.136597" lon="105.795576"><ele>1540.6816</ele><time>2026-08-15T21:53:40.000Z</time></trkpt>
        <trkpt lat="28.136595" lon="105.795594"><ele>1539.2411</ele><time>2026-08-15T21:53:42.000Z</time></trkpt>
        <trkpt lat="28.136586" lon="105.795608"><ele>1537.8334</ele><time>2026-08-15T21:53:44.000Z</time></trkpt>
        <trkpt lat="28.136572" lon="105.795619"><ele>1537.0691</ele><time>2026-08-15T21:53:46.000Z</time></trkpt>
        <trkpt lat="28.136552" lon="105.795627"><ele>1536.8558</ele><time>2026-08-15T21:53:48.000Z</time></trkpt>
        <trkpt lat="28.136525" lon="105.795634"><ele>1535.9976</ele><time>2026-08-15T21:53:50.000Z</time></trkpt>
        <trkpt lat="28.136494" lon="105.795642"><ele>1535.6211</ele><time>2026-08-15T21:53:52.000Z</time></trkpt>
        <trkpt lat="28.136467" lon="105.795649"><ele>1534.9878</ele><time>2026-08-15T21:53:54.000Z</time></trkpt>
        <trkpt lat="28.136442" lon="105.795657"><ele>1535.3348</ele><time>2026-08-15T21:53:56.000Z</time></trkpt>
        <trkpt lat="28.136418" lon="105.795667"><ele>1535.0862</ele><time>2026-08-15T21:53:58.000Z</time></trkpt>
        <trkpt lat="28.136396" lon="105.795677"><ele>1534.4794</ele><time>2026-08-15T21:54:00.000Z</time></trkpt>
        <trkpt lat="28.136375" lon="105.795687"><ele>1534.7399</ele><time>2026-08-15T21:54:02.000Z</time></trkpt>
        <trkpt lat="28.136351" lon="105.795695"><ele>1535.1565</ele><time>2026-08-15T21:54:04.000Z</time></trkpt>
        <trkpt lat="28.136327" lon="105.7957"><ele>1535.5757</ele><time>2026-08-15T21:54:06.000Z</time></trkpt>
        <trkpt lat="28.136305" lon="105.795699"><ele>1535.8795</ele><time>2026-08-15T21:54:08.000Z</time></trkpt>
        <trkpt lat="28.136282" lon="105.795697"><ele>1534.237</ele><time>2026-08-15T21:54:10.000Z</time></trkpt>
        <trkpt lat="28.136259" lon="105.795695"><ele>1534.0569</ele><time>2026-08-15T21:54:12.000Z</time></trkpt>
        <trkpt lat="28.136239" lon="105.795691"><ele>1534.5294</ele><time>2026-08-15T21:54:14.000Z</time></trkpt>
        <trkpt lat="28.136214" lon="105.795685"><ele>1534.6658</ele><time>2026-08-15T21:54:16.000Z</time></trkpt>
        <trkpt lat="28.13619" lon="105.795678"><ele>1534.1719</ele><time>2026-08-15T21:54:18.000Z</time></trkpt>
        <trkpt lat="28.136167" lon="105.795674"><ele>1535.1669</ele><time>2026-08-15T21:54:20.000Z</time></trkpt>
        <trkpt lat="28.136146" lon="105.795675"><ele>1535.9235</ele><time>2026-08-15T21:54:22.000Z</time></trkpt>
        <trkpt lat="28.136127" lon="105.795682"><ele>1536.6962</ele><time>2026-08-15T21:54:24.000Z</time></trkpt>
        <trkpt lat="28.13611" lon="105.795693"><ele>1537.4589</ele><time>2026-08-15T21:54:26.000Z</time></trkpt>
        <trkpt lat="28.136092" lon="105.795708"><ele>1537.658</ele><time>2026-08-15T21:54:28.000Z</time></trkpt>
        <trkpt lat="28.13607" lon="105.795725"><ele>1537.416</ele><time>2026-08-15T21:54:30.000Z</time></trkpt>
        <trkpt lat="28.136053" lon="105.795744"><ele>1537.5087</ele><time>2026-08-15T21:54:32.000Z</time></trkpt>
        <trkpt lat="28.136035" lon="105.795773"><ele>1538.6265</ele><time>2026-08-15T21:54:34.000Z</time></trkpt>
        <trkpt lat="28.136026" lon="105.795799"><ele>1537.712</ele><time>2026-08-15T21:54:36.000Z</time></trkpt>
        <trkpt lat="28.136025" lon="105.795828"><ele>1540.51</ele><time>2026-08-15T21:54:38.000Z</time></trkpt>
        <trkpt lat="28.136029" lon="105.795859"><ele>1542.7582</ele><time>2026-08-15T21:54:40.000Z</time></trkpt>
        <trkpt lat="28.136034" lon="105.795889"><ele>1544.1663</ele><time>2026-08-15T21:54:42.000Z</time></trkpt>
        <trkpt lat="28.136037" lon="105.795918"><ele>1544.3315</ele><time>2026-08-15T21:54:44.000Z</time></trkpt>
        <trkpt lat="28.136034" lon="105.795945"><ele>1545.3573</ele><time>2026-08-15T21:54:46.000Z</time></trkpt>
        <trkpt lat="28.136024" lon="105.795962"><ele>1545.8086</ele><time>2026-08-15T21:54:48.000Z</time></trkpt>
        <trkpt lat="28.136005" lon="105.795977"><ele>1545.2751</ele><time>2026-08-15T21:54:50.000Z</time></trkpt>
        <trkpt lat="28.135974" lon="105.795993"><ele>1543.0735</ele><time>2026-08-15T21:54:52.000Z</time></trkpt>
        <trkpt lat="28.135943" lon="105.796009"><ele>1542.2031</ele><time>2026-08-15T21:54:54.000Z</time></trkpt>
        <trkpt lat="28.135909" lon="105.796023"><ele>1540.5363</ele><time>2026-08-15T21:54:56.000Z</time></trkpt>
        <trkpt lat="28.135884" lon="105.79603"><ele>1538.7263</ele><time>2026-08-15T21:54:58.000Z</time></trkpt>
        <trkpt lat="28.135861" lon="105.796036"><ele>1538.6804</ele><time>2026-08-15T21:55:00.000Z</time></trkpt>
        <trkpt lat="28.135843" lon="105.796041"><ele>1538.9606</ele><time>2026-08-15T21:55:02.000Z</time></trkpt>
        <trkpt lat="28.135831" lon="105.796047"><ele>1538.9956</ele><time>2026-08-15T21:55:04.000Z</time></trkpt>
        <trkpt lat="28.135826" lon="105.796052"><ele>1542.9884</ele><time>2026-08-15T21:55:06.000Z</time></trkpt>
        <trkpt lat="28.135818" lon="105.796063"><ele>1543.3416</ele><time>2026-08-15T21:55:08.000Z</time></trkpt>
        <trkpt lat="28.135813" lon="105.796079"><ele>1546.0892</ele><time>2026-08-15T21:55:10.000Z</time></trkpt>
        <trkpt lat="28.135814" lon="105.79609"><ele>1547.4182</ele><time>2026-08-15T21:55:12.000Z</time></trkpt>
        <trkpt lat="28.135819" lon="105.796103"><ele>1550.7557</ele><time>2026-08-15T21:55:14.000Z</time></trkpt>
        <trkpt lat="28.135828" lon="105.796115"><ele>1551.986</ele><time>2026-08-15T21:55:16.000Z</time></trkpt>
        <trkpt lat="28.135838" lon="105.796124"><ele>1552.8635</ele><time>2026-08-15T21:55:18.000Z</time></trkpt>
        <trkpt lat="28.135848" lon="105.796131"><ele>1553.6912</ele><time>2026-08-15T21:55:20.000Z</time></trkpt>
        <trkpt lat="28.135847" lon="105.796132"><ele>1554.3741</ele><time>2026-08-15T21:55:22.000Z</time></trkpt>
        <trkpt lat="28.135832" lon="105.796165"><ele>1554.2786</ele><time>2026-08-15T21:55:44.000Z</time></trkpt>
        <trkpt lat="28.135842" lon="105.796189"><ele>1553.4551</ele><time>2026-08-15T21:55:46.000Z</time></trkpt>
        <trkpt lat="28.135845" lon="105.796205"><ele>1552.0316</ele><time>2026-08-15T21:55:48.000Z</time></trkpt>
        <trkpt lat="28.135851" lon="105.796232"><ele>1551.4644</ele><time>2026-08-15T21:55:51.000Z</time></trkpt>
        <trkpt lat="28.135851" lon="105.796232"><ele>1550.035</ele><time>2026-08-15T21:55:53.000Z</time></trkpt>
        <trkpt lat="28.135857" lon="105.796247"><ele>1549.4974</ele><time>2026-08-15T21:55:57.000Z</time></trkpt>
        <trkpt lat="28.135866" lon="105.79627"><ele>1549.0295</ele><time>2026-08-15T21:55:59.000Z</time></trkpt>
        <trkpt lat="28.13588" lon="105.796297"><ele>1548.4094</ele><time>2026-08-15T21:56:01.000Z</time></trkpt>
        <trkpt lat="28.135896" lon="105.796326"><ele>1548.4751</ele><time>2026-08-15T21:56:03.000Z</time></trkpt>
        <trkpt lat="28.135911" lon="105.796352"><ele>1548.2448</ele><time>2026-08-15T21:56:05.000Z</time></trkpt>
        <trkpt lat="28.135923" lon="105.796374"><ele>1545.9247</ele><time>2026-08-15T21:56:07.000Z</time></trkpt>
        <trkpt lat="28.13593" lon="105.796394"><ele>1546.188</ele><time>2026-08-15T21:56:09.000Z</time></trkpt>
        <trkpt lat="28.135937" lon="105.796411"><ele>1545.3436</ele><time>2026-08-15T21:56:11.000Z</time></trkpt>
        <trkpt lat="28.135944" lon="105.796428"><ele>1544.9578</ele><time>2026-08-15T21:56:13.000Z</time></trkpt>
        <trkpt lat="28.13595" lon="105.796444"><ele>1544.2552</ele><time>2026-08-15T21:56:15.000Z</time></trkpt>
        <trkpt lat="28.135955" lon="105.79646"><ele>1543.6095</ele><time>2026-08-15T21:56:17.000Z</time></trkpt>
        <trkpt lat="28.135958" lon="105.796478"><ele>1543.7582</ele><time>2026-08-15T21:56:19.000Z</time></trkpt>
        <trkpt lat="28.13596" lon="105.796496"><ele>1543.3745</ele><time>2026-08-15T21:56:21.000Z</time></trkpt>
        <trkpt lat="28.135957" lon="105.796512"><ele>1543.5331</ele><time>2026-08-15T21:56:23.000Z</time></trkpt>
        <trkpt lat="28.135952" lon="105.796524"><ele>1543.3931</ele><time>2026-08-15T21:56:25.000Z</time></trkpt>
        <trkpt lat="28.135947" lon="105.796532"><ele>1542.3107</ele><time>2026-08-15T21:56:27.000Z</time></trkpt>
        <trkpt lat="28.135943" lon="105.796542"><ele>1542.1094</ele><time>2026-08-15T21:56:35.000Z</time></trkpt>
        <trkpt lat="28.135926" lon="105.796572"><ele>1542.4341</ele><time>2026-08-15T21:56:43.000Z</time></trkpt>
        <trkpt lat="28.135917" lon="105.796585"><ele>1542.0151</ele><time>2026-08-15T21:56:45.000Z</time></trkpt>
        <trkpt lat="28.135904" lon="105.796604"><ele>1541.3817</ele><time>2026-08-15T21:56:47.000Z</time></trkpt>
        <trkpt lat="28.135902" lon="105.796605"><ele>1540.8846</ele><time>2026-08-15T21:56:49.000Z</time></trkpt>
        <trkpt lat="28.135891" lon="105.796611"><ele>1540.677</ele><time>2026-08-15T21:56:53.000Z</time></trkpt>
        <trkpt lat="28.135867" lon="105.796624"><ele>1540.3458</ele><time>2026-08-15T21:56:57.000Z</time></trkpt>
        <trkpt lat="28.135862" lon="105.796627"><ele>1539.9452</ele><time>2026-08-15T21:56:59.000Z</time></trkpt>
        <trkpt lat="28.13586" lon="105.796629"><ele>1540.1761</ele><time>2026-08-15T21:57:01.000Z</time></trkpt>
        <trkpt lat="28.135845" lon="105.796646"><ele>1539.097</ele><time>2026-08-15T21:57:19.000Z</time></trkpt>
        <trkpt lat="28.135841" lon="105.79665"><ele>1539.626</ele><time>2026-08-15T21:57:21.000Z</time></trkpt>
        <trkpt lat="28.135841" lon="105.796653"><ele>1539.4655</ele><time>2026-08-15T21:57:23.000Z</time></trkpt>
        <trkpt lat="28.135832" lon="105.796689"><ele>1542.8832</ele><time>2026-08-15T21:58:04.000Z</time></trkpt>
        <trkpt lat="28.135828" lon="105.796691"><ele>1541.8043</ele><time>2026-08-15T21:58:17.000Z</time></trkpt>
        <trkpt lat="28.135809" lon="105.796699"><ele>1541.574</ele><time>2026-08-15T21:58:19.000Z</time></trkpt>
        <trkpt lat="28.135795" lon="105.796709"><ele>1541.4377</ele><time>2026-08-15T21:58:21.000Z</time></trkpt>
        <trkpt lat="28.135773" lon="105.796725"><ele>1541.1117</ele><time>2026-08-15T21:58:24.000Z</time></trkpt>
        <trkpt lat="28.135772" lon="105.796726"><ele>1541.0012</ele><time>2026-08-15T21:58:26.000Z</time></trkpt>
        <trkpt lat="28.135769" lon="105.796728"><ele>1541.0697</ele><time>2026-08-15T21:58:28.000Z</time></trkpt>
        <trkpt lat="28.135744" lon="105.796767"><ele>1541.8738</ele><time>2026-08-15T21:58:32.000Z</time></trkpt>
        <trkpt lat="28.135733" lon="105.796792"><ele>1542.3191</ele><time>2026-08-15T21:58:34.000Z</time></trkpt>
        <trkpt lat="28.135727" lon="105.796817"><ele>1541.3058</ele><time>2026-08-15T21:58:36.000Z</time></trkpt>
        <trkpt lat="28.135727" lon="105.796841"><ele>1542.0822</ele><time>2026-08-15T21:58:38.000Z</time></trkpt>
        <trkpt lat="28.135732" lon="105.796862"><ele>1542.5594</ele><time>2026-08-15T21:58:40.000Z</time></trkpt>
        <trkpt lat="28.13574" lon="105.79688"><ele>1542.5735</ele><time>2026-08-15T21:58:42.000Z</time></trkpt>
        <trkpt lat="28.13575" lon="105.796897"><ele>1542.4829</ele><time>2026-08-15T21:58:44.000Z</time></trkpt>
        <trkpt lat="28.135761" lon="105.796917"><ele>1542.3215</ele><time>2026-08-15T21:58:46.000Z</time></trkpt>
        <trkpt lat="28.135771" lon="105.796938"><ele>1542.2423</ele><time>2026-08-15T21:58:48.000Z</time></trkpt>
        <trkpt lat="28.135774" lon="105.796957"><ele>1542.0092</ele><time>2026-08-15T21:58:50.000Z</time></trkpt>
        <trkpt lat="28.135769" lon="105.796973"><ele>1542.3306</ele><time>2026-08-15T21:58:52.000Z</time></trkpt>
        <trkpt lat="28.135758" lon="105.796988"><ele>1542.1237</ele><time>2026-08-15T21:58:54.000Z</time></trkpt>
        <trkpt lat="28.13574" lon="105.796998"><ele>1542.4092</ele><time>2026-08-15T21:58:56.000Z</time></trkpt>
        <trkpt lat="28.135717" lon="105.797001"><ele>1542.2883</ele><time>2026-08-15T21:58:58.000Z</time></trkpt>
        <trkpt lat="28.135689" lon="105.797"><ele>1541.8676</ele><time>2026-08-15T21:59:00.000Z</time></trkpt>
        <trkpt lat="28.135658" lon="105.796996"><ele>1541.287</ele><time>2026-08-15T21:59:02.000Z</time></trkpt>
        <trkpt lat="28.135631" lon="105.796991"><ele>1541.6896</ele><time>2026-08-15T21:59:04.000Z</time></trkpt>
        <trkpt lat="28.135605" lon="105.796982"><ele>1541.7656</ele><time>2026-08-15T21:59:06.000Z</time></trkpt>
        <trkpt lat="28.135579" lon="105.796973"><ele>1542.1906</ele><time>2026-08-15T21:59:08.000Z</time></trkpt>
        <trkpt lat="28.135556" lon="105.796967"><ele>1542.5363</ele><time>2026-08-15T21:59:10.000Z</time></trkpt>
        <trkpt lat="28.135533" lon="105.79696"><ele>1542.402</ele><time>2026-08-15T21:59:12.000Z</time></trkpt>
        <trkpt lat="28.135514" lon="105.796956"><ele>1542.5463</ele><time>2026-08-15T21:59:14.000Z</time></trkpt>
        <trkpt lat="28.135497" lon="105.796956"><ele>1542.6213</ele><time>2026-08-15T21:59:16.000Z</time></trkpt>
        <trkpt lat="28.135484" lon="105.79696"><ele>1542.1956</ele><time>2026-08-15T21:59:18.000Z</time></trkpt>
        <trkpt lat="28.135475" lon="105.796967"><ele>1542.1283</ele><time>2026-08-15T21:59:20.000Z</time></trkpt>
        <trkpt lat="28.135467" lon="105.796979"><ele>1542.7417</ele><time>2026-08-15T21:59:22.000Z</time></trkpt>
        <trkpt lat="28.13546" lon="105.796994"><ele>1543.0769</ele><time>2026-08-15T21:59:24.000Z</time></trkpt>
        <trkpt lat="28.135453" lon="105.797013"><ele>1544.6486</ele><time>2026-08-15T21:59:26.000Z</time></trkpt>
        <trkpt lat="28.135445" lon="105.797037"><ele>1544.5768</ele><time>2026-08-15T21:59:28.000Z</time></trkpt>
        <trkpt lat="28.135441" lon="105.797061"><ele>1544.5652</ele><time>2026-08-15T21:59:30.000Z</time></trkpt>
        <trkpt lat="28.135435" lon="105.797082"><ele>1544.6661</ele><time>2026-08-15T21:59:32.000Z</time></trkpt>
        <trkpt lat="28.135429" lon="105.797105"><ele>1542.9071</ele><time>2026-08-15T21:59:34.000Z</time></trkpt>
        <trkpt lat="28.135427" lon="105.797127"><ele>1542.9991</ele><time>2026-08-15T21:59:36.000Z</time></trkpt>
        <trkpt lat="28.135428" lon="105.797152"><ele>1544.6465</ele><time>2026-08-15T21:59:38.000Z</time></trkpt>
        <trkpt lat="28.135434" lon="105.797174"><ele>1547.414</ele><time>2026-08-15T21:59:40.000Z</time></trkpt>
        <trkpt lat="28.135441" lon="105.797198"><ele>1548.4135</ele><time>2026-08-15T21:59:42.000Z</time></trkpt>
        <trkpt lat="28.135447" lon="105.797222"><ele>1549.9181</ele><time>2026-08-15T21:59:44.000Z</time></trkpt>
        <trkpt lat="28.135447" lon="105.797242"><ele>1548.6493</ele><time>2026-08-15T21:59:46.000Z</time></trkpt>
        <trkpt lat="28.135441" lon="105.797257"><ele>1547.2411</ele><time>2026-08-15T21:59:48.000Z</time></trkpt>
        <trkpt lat="28.135433" lon="105.797268"><ele>1546.1813</ele><time>2026-08-15T21:59:50.000Z</time></trkpt>
        <trkpt lat="28.135424" lon="105.797276"><ele>1545.7239</ele><time>2026-08-15T21:59:52.000Z</time></trkpt>
        <trkpt lat="28.135419" lon="105.797278"><ele>1545.1831</ele><time>2026-08-15T21:59:54.000Z</time></trkpt>
        <trkpt lat="28.135398" lon="105.797287"><ele>1544.6084</ele><time>2026-08-15T22:00:00.000Z</time></trkpt>
        <trkpt lat="28.135395" lon="105.797286"><ele>1543.2839</ele><time>2026-08-15T22:00:02.000Z</time></trkpt>
        <trkpt lat="28.135391" lon="105.797289"><ele>1542.7383</ele><time>2026-08-15T22:00:08.000Z</time></trkpt>
        <trkpt lat="28.135367" lon="105.797306"><ele>1542.6901</ele><time>2026-08-15T22:00:26.000Z</time></trkpt>
        <trkpt lat="28.13534" lon="105.797325"><ele>1543.1005</ele><time>2026-08-15T22:00:28.000Z</time></trkpt>
        <trkpt lat="28.135339" lon="105.797327"><ele>1543.0747</ele><time>2026-08-15T22:00:30.000Z</time></trkpt>
        <trkpt lat="28.135322" lon="105.797364"><ele>1543.009</ele><time>2026-08-15T22:00:33.000Z</time></trkpt>
        <trkpt lat="28.13532" lon="105.797365"><ele>1542.9353</ele><time>2026-08-15T22:00:35.000Z</time></trkpt>
        <trkpt lat="28.135317" lon="105.797367"><ele>1542.4646</ele><time>2026-08-15T22:00:37.000Z</time></trkpt>
        <trkpt lat="28.135268" lon="105.797388"><ele>1542.1503</ele><time>2026-08-15T22:00:41.000Z</time></trkpt>
        <trkpt lat="28.135239" lon="105.7974"><ele>1542.2289</ele><time>2026-08-15T22:00:43.000Z</time></trkpt>
        <trkpt lat="28.135187" lon="105.797423"><ele>1543.1887</ele><time>2026-08-15T22:00:45.000Z</time></trkpt>
        <trkpt lat="28.135184" lon="105.797426"><ele>1543.8373</ele><time>2026-08-15T22:00:47.000Z</time></trkpt>
        <trkpt lat="28.135182" lon="105.797429"><ele>1544.2526</ele><time>2026-08-15T22:00:49.000Z</time></trkpt>
        <trkpt lat="28.135161" lon="105.797465"><ele>1544.934</ele><time>2026-08-15T22:00:53.000Z</time></trkpt>
        <trkpt lat="28.135145" lon="105.797493"><ele>1545.1622</ele><time>2026-08-15T22:00:55.000Z</time></trkpt>
        <trkpt lat="28.135131" lon="105.797515"><ele>1544.7179</ele><time>2026-08-15T22:00:57.000Z</time></trkpt>
        <trkpt lat="28.135121" lon="105.797532"><ele>1544.9144</ele><time>2026-08-15T22:00:59.000Z</time></trkpt>
        <trkpt lat="28.135115" lon="105.797549"><ele>1544.7635</ele><time>2026-08-15T22:01:01.000Z</time></trkpt>
        <trkpt lat="28.135111" lon="105.797561"><ele>1546.2523</ele><time>2026-08-15T22:01:03.000Z</time></trkpt>
        <trkpt lat="28.13511" lon="105.797561"><ele>1545.6698</ele><time>2026-08-15T22:01:05.000Z</time></trkpt>
        <trkpt lat="28.135085" lon="105.797555"><ele>1542.8245</ele><time>2026-08-15T22:01:23.000Z</time></trkpt>
        <trkpt lat="28.135137" lon="105.797499"><ele>1543.8368</ele><time>2026-08-15T22:03:19.000Z</time></trkpt>
        <trkpt lat="28.135137" lon="105.797499"><ele>1543.7487</ele><time>2026-08-15T22:03:21.000Z</time></trkpt>
        <trkpt lat="28.135148" lon="105.79746"><ele>1544.1283</ele><time>2026-08-15T22:03:23.000Z</time></trkpt>
        <trkpt lat="28.135157" lon="105.797429"><ele>1544.6571</ele><time>2026-08-15T22:03:26.000Z</time></trkpt>
        <trkpt lat="28.135158" lon="105.797429"><ele>1545.0607</ele><time>2026-08-15T22:03:28.000Z</time></trkpt>
        <trkpt lat="28.13516" lon="105.797428"><ele>1545.2227</ele><time>2026-08-15T22:03:30.000Z</time></trkpt>
        <trkpt lat="28.13519" lon="105.797412"><ele>1544.1693</ele><time>2026-08-15T22:03:36.000Z</time></trkpt>
        <trkpt lat="28.135191" lon="105.797413"><ele>1542.737</ele><time>2026-08-15T22:03:38.000Z</time></trkpt>
        <trkpt lat="28.135198" lon="105.797419"><ele>1543.6066</ele><time>2026-08-15T22:03:42.000Z</time></trkpt>
        <trkpt lat="28.135228" lon="105.797445"><ele>1543.6818</ele><time>2026-08-15T22:03:44.000Z</time></trkpt>
        <trkpt lat="28.13523" lon="105.797445"><ele>1543.7463</ele><time>2026-08-15T22:03:46.000Z</time></trkpt>
        <trkpt lat="28.135232" lon="105.797444"><ele>1544.0964</ele><time>2026-08-15T22:03:48.000Z</time></trkpt>
        <trkpt lat="28.135273" lon="105.797415"><ele>1545.2899</ele><time>2026-08-15T22:03:52.000Z</time></trkpt>
        <trkpt lat="28.135333" lon="105.79737"><ele>1545.695</ele><time>2026-08-15T22:03:54.000Z</time></trkpt>
        <trkpt lat="28.135337" lon="105.797366"><ele>1545.3038</ele><time>2026-08-15T22:03:56.000Z</time></trkpt>
        <trkpt lat="28.135339" lon="105.797362"><ele>1545.5339</ele><time>2026-08-15T22:03:58.000Z</time></trkpt>
        <trkpt lat="28.135365" lon="105.797314"><ele>1544.124</ele><time>2026-08-15T22:04:02.000Z</time></trkpt>
        <trkpt lat="28.135377" lon="105.797289"><ele>1544.0438</ele><time>2026-08-15T22:04:04.000Z</time></trkpt>
        <trkpt lat="28.135387" lon="105.797264"><ele>1544.3772</ele><time>2026-08-15T22:04:06.000Z</time></trkpt>
        <trkpt lat="28.135396" lon="105.79724"><ele>1544.9934</ele><time>2026-08-15T22:04:08.000Z</time></trkpt>
        <trkpt lat="28.135405" lon="105.797216"><ele>1544.0369</ele><time>2026-08-15T22:04:10.000Z</time></trkpt>
        <trkpt lat="28.135413" lon="105.797193"><ele>1544.6035</ele><time>2026-08-15T22:04:12.000Z</time></trkpt>
        <trkpt lat="28.135419" lon="105.797173"><ele>1544.0688</ele><time>2026-08-15T22:04:14.000Z</time></trkpt>
        <trkpt lat="28.135427" lon="105.797152"><ele>1546.2394</ele><time>2026-08-15T22:04:16.000Z</time></trkpt>
        <trkpt lat="28.135435" lon="105.797129"><ele>1546.6646</ele><time>2026-08-15T22:04:18.000Z</time></trkpt>
        <trkpt lat="28.135442" lon="105.797107"><ele>1548.0604</ele><time>2026-08-15T22:04:20.000Z</time></trkpt>
        <trkpt lat="28.135449" lon="105.797086"><ele>1549.9409</ele><time>2026-08-15T22:04:22.000Z</time></trkpt>
        <trkpt lat="28.135459" lon="105.797065"><ele>1550.6147</ele><time>2026-08-15T22:04:24.000Z</time></trkpt>
        <trkpt lat="28.13547" lon="105.797042"><ele>1550.1814</ele><time>2026-08-15T22:04:26.000Z</time></trkpt>
        <trkpt lat="28.135483" lon="105.797019"><ele>1549.1271</ele><time>2026-08-15T22:04:28.000Z</time></trkpt>
        <trkpt lat="28.135497" lon="105.796998"><ele>1548.4227</ele><time>2026-08-15T22:04:30.000Z</time></trkpt>
        <trkpt lat="28.135507" lon="105.796979"><ele>1547.38</ele><time>2026-08-15T22:04:32.000Z</time></trkpt>
        <trkpt lat="28.135515" lon="105.796963"><ele>1546.5096</ele><time>2026-08-15T22:04:34.000Z</time></trkpt>
        <trkpt lat="28.135525" lon="105.796948"><ele>1545.6111</ele><time>2026-08-15T22:04:36.000Z</time></trkpt>
        <trkpt lat="28.135537" lon="105.796941"><ele>1543.9497</ele><time>2026-08-15T22:04:38.000Z</time></trkpt>
        <trkpt lat="28.135551" lon="105.796939"><ele>1543.5535</ele><time>2026-08-15T22:04:40.000Z</time></trkpt>
        <trkpt lat="28.135568" lon="105.796943"><ele>1543.6328</ele><time>2026-08-15T22:04:42.000Z</time></trkpt>
        <trkpt lat="28.135586" lon="105.796949"><ele>1543.9147</ele><time>2026-08-15T22:04:44.000Z</time></trkpt>
        <trkpt lat="28.135606" lon="105.79696"><ele>1543.1976</ele><time>2026-08-15T22:04:46.000Z</time></trkpt>
        <trkpt lat="28.135633" lon="105.796973"><ele>1542.8114</ele><time>2026-08-15T22:04:48.000Z</time></trkpt>
        <trkpt lat="28.135659" lon="105.796986"><ele>1543.5468</ele><time>2026-08-15T22:04:50.000Z</time></trkpt>
        <trkpt lat="28.135683" lon="105.796995"><ele>1543.4617</ele><time>2026-08-15T22:04:52.000Z</time></trkpt>
        <trkpt lat="28.13571" lon="105.796999"><ele>1543.3325</ele><time>2026-08-15T22:04:54.000Z</time></trkpt>
        <trkpt lat="28.13573" lon="105.796995"><ele>1542.7415</ele><time>2026-08-15T22:04:56.000Z</time></trkpt>
        <trkpt lat="28.135743" lon="105.796982"><ele>1542.2079</ele><time>2026-08-15T22:04:58.000Z</time></trkpt>
        <trkpt lat="28.13575" lon="105.796965"><ele>1541.5398</ele><time>2026-08-15T22:05:00.000Z</time></trkpt>
        <trkpt lat="28.135753" lon="105.796944"><ele>1542.1722</ele><time>2026-08-15T22:05:02.000Z</time></trkpt>
        <trkpt lat="28.135753" lon="105.796921"><ele>1542.0217</ele><time>2026-08-15T22:05:04.000Z</time></trkpt>
        <trkpt lat="28.135749" lon="105.796893"><ele>1542.0896</ele><time>2026-08-15T22:05:06.000Z</time></trkpt>
        <trkpt lat="28.135746" lon="105.79687"><ele>1541.7917</ele><time>2026-08-15T22:05:08.000Z</time></trkpt>
        <trkpt lat="28.135745" lon="105.79685"><ele>1542.8307</ele><time>2026-08-15T22:05:10.000Z</time></trkpt>
        <trkpt lat="28.135742" lon="105.796822"><ele>1543.7231</ele><time>2026-08-15T22:05:12.000Z</time></trkpt>
        <trkpt lat="28.13574" lon="105.796794"><ele>1543.5107</ele><time>2026-08-15T22:05:14.000Z</time></trkpt>
        <trkpt lat="28.135738" lon="105.79677"><ele>1544.141</ele><time>2026-08-15T22:05:16.000Z</time></trkpt>
        <trkpt lat="28.135742" lon="105.796746"><ele>1543.4862</ele><time>2026-08-15T22:05:18.000Z</time></trkpt>
        <trkpt lat="28.13575" lon="105.796728"><ele>1543.6403</ele><time>2026-08-15T22:05:20.000Z</time></trkpt>
        <trkpt lat="28.135761" lon="105.796713"><ele>1543.1459</ele><time>2026-08-15T22:05:22.000Z</time></trkpt>
        <trkpt lat="28.135775" lon="105.796701"><ele>1542.8712</ele><time>2026-08-15T22:05:24.000Z</time></trkpt>
        <trkpt lat="28.135792" lon="105.796688"><ele>1543.5741</ele><time>2026-08-15T22:05:26.000Z</time></trkpt>
        <trkpt lat="28.135809" lon="105.796672"><ele>1543.7062</ele><time>2026-08-15T22:05:28.000Z</time></trkpt>
        <trkpt lat="28.135828" lon="105.796655"><ele>1543.0854</ele><time>2026-08-15T22:05:30.000Z</time></trkpt>
        <trkpt lat="28.135844" lon="105.796638"><ele>1543.4929</ele><time>2026-08-15T22:05:32.000Z</time></trkpt>
        <trkpt lat="28.135857" lon="105.796621"><ele>1542.9354</ele><time>2026-08-15T22:05:34.000Z</time></trkpt>
        <trkpt lat="28.135871" lon="105.796601"><ele>1543.3971</ele><time>2026-08-15T22:05:36.000Z</time></trkpt>
        <trkpt lat="28.135884" lon="105.796578"><ele>1543.5238</ele><time>2026-08-15T22:05:38.000Z</time></trkpt>
        <trkpt lat="28.135899" lon="105.796557"><ele>1542.4879</ele><time>2026-08-15T22:05:40.000Z</time></trkpt>
        <trkpt lat="28.135912" lon="105.796534"><ele>1542.5923</ele><time>2026-08-15T22:05:42.000Z</time></trkpt>
        <trkpt lat="28.135924" lon="105.79651"><ele>1542.4171</ele><time>2026-08-15T22:05:44.000Z</time></trkpt>
        <trkpt lat="28.135929" lon="105.796487"><ele>1542.719</ele><time>2026-08-15T22:05:46.000Z</time></trkpt>
        <trkpt lat="28.135931" lon="105.796465"><ele>1542.2275</ele><time>2026-08-15T22:05:48.000Z</time></trkpt>
        <trkpt lat="28.135925" lon="105.796445"><ele>1542.3788</ele><time>2026-08-15T22:05:50.000Z</time></trkpt>
        <trkpt lat="28.135915" lon="105.796428"><ele>1542.328</ele><time>2026-08-15T22:05:52.000Z</time></trkpt>
        <trkpt lat="28.135898" lon="105.796404"><ele>1541.6271</ele><time>2026-08-15T22:05:54.000Z</time></trkpt>
        <trkpt lat="28.13588" lon="105.796381"><ele>1540.5042</ele><time>2026-08-15T22:05:56.000Z</time></trkpt>
        <trkpt lat="28.135865" lon="105.796363"><ele>1540.2069</ele><time>2026-08-15T22:05:58.000Z</time></trkpt>
        <trkpt lat="28.135851" lon="105.796345"><ele>1539.8127</ele><time>2026-08-15T22:06:00.000Z</time></trkpt>
        <trkpt lat="28.135838" lon="105.796324"><ele>1539.2156</ele><time>2026-08-15T22:06:02.000Z</time></trkpt>
        <trkpt lat="28.135827" lon="105.796303"><ele>1539.2943</ele><time>2026-08-15T22:06:04.000Z</time></trkpt>
        <trkpt lat="28.135815" lon="105.796281"><ele>1539.818</ele><time>2026-08-15T22:06:06.000Z</time></trkpt>
        <trkpt lat="28.135805" lon="105.796262"><ele>1540.3717</ele><time>2026-08-15T22:06:08.000Z</time></trkpt>
        <trkpt lat="28.135794" lon="105.796241"><ele>1540.9102</ele><time>2026-08-15T22:06:10.000Z</time></trkpt>
        <trkpt lat="28.135784" lon="105.796221"><ele>1539.7765</ele><time>2026-08-15T22:06:12.000Z</time></trkpt>
        <trkpt lat="28.135777" lon="105.7962"><ele>1540.2552</ele><time>2026-08-15T22:06:14.000Z</time></trkpt>
        <trkpt lat="28.135771" lon="105.796175"><ele>1540.644</ele><time>2026-08-15T22:06:16.000Z</time></trkpt>
        <trkpt lat="28.135765" lon="105.796151"><ele>1540.1978</ele><time>2026-08-15T22:06:18.000Z</time></trkpt>
        <trkpt lat="28.135765" lon="105.79613"><ele>1539.2732</ele><time>2026-08-15T22:06:20.000Z</time></trkpt>
        <trkpt lat="28.135772" lon="105.796117"><ele>1539.9797</ele><time>2026-08-15T22:06:22.000Z</time></trkpt>
        <trkpt lat="28.135785" lon="105.796101"><ele>1542.0596</ele><time>2026-08-15T22:06:24.000Z</time></trkpt>
        <trkpt lat="28.135802" lon="105.796083"><ele>1543.9727</ele><time>2026-08-15T22:06:26.000Z</time></trkpt>
        <trkpt lat="28.135821" lon="105.796067"><ele>1545.0374</ele><time>2026-08-15T22:06:28.000Z</time></trkpt>
        <trkpt lat="28.135845" lon="105.796053"><ele>1548.13</ele><time>2026-08-15T22:06:30.000Z</time></trkpt>
        <trkpt lat="28.135873" lon="105.796039"><ele>1549.0201</ele><time>2026-08-15T22:06:32.000Z</time></trkpt>
        <trkpt lat="28.135899" lon="105.79603"><ele>1548.7432</ele><time>2026-08-15T22:06:34.000Z</time></trkpt>
        <trkpt lat="28.135924" lon="105.796021"><ele>1548.2727</ele><time>2026-08-15T22:06:36.000Z</time></trkpt>
        <trkpt lat="28.135948" lon="105.796008"><ele>1548.4974</ele><time>2026-08-15T22:06:38.000Z</time></trkpt>
        <trkpt lat="28.135963" lon="105.795994"><ele>1546.427</ele><time>2026-08-15T22:06:40.000Z</time></trkpt>
        <trkpt lat="28.13597" lon="105.795982"><ele>1544.6454</ele><time>2026-08-15T22:06:42.000Z</time></trkpt>
        <trkpt lat="28.135976" lon="105.79597"><ele>1543.6617</ele><time>2026-08-15T22:06:44.000Z</time></trkpt>
        <trkpt lat="28.135983" lon="105.795959"><ele>1543.7098</ele><time>2026-08-15T22:06:46.000Z</time></trkpt>
        <trkpt lat="28.135993" lon="105.795939"><ele>1544.2671</ele><time>2026-08-15T22:06:48.000Z</time></trkpt>
        <trkpt lat="28.136002" lon="105.795919"><ele>1543.7201</ele><time>2026-08-15T22:06:50.000Z</time></trkpt>
        <trkpt lat="28.136015" lon="105.795897"><ele>1544.0092</ele><time>2026-08-15T22:06:52.000Z</time></trkpt>
        <trkpt lat="28.136031" lon="105.795875"><ele>1545.1212</ele><time>2026-08-15T22:06:54.000Z</time></trkpt>
        <trkpt lat="28.136047" lon="105.795853"><ele>1546.582</ele><time>2026-08-15T22:06:56.000Z</time></trkpt>
        <trkpt lat="28.136065" lon="105.795829"><ele>1547.4861</ele><time>2026-08-15T22:06:58.000Z</time></trkpt>
        <trkpt lat="28.136082" lon="105.795806"><ele>1548.1714</ele><time>2026-08-15T22:07:00.000Z</time></trkpt>
        <trkpt lat="28.1361" lon="105.795784"><ele>1549.687</ele><time>2026-08-15T22:07:02.000Z</time></trkpt>
        <trkpt lat="28.136118" lon="105.795764"><ele>1549.5631</ele><time>2026-08-15T22:07:04.000Z</time></trkpt>
        <trkpt lat="28.136137" lon="105.795744"><ele>1549.2454</ele><time>2026-08-15T22:07:06.000Z</time></trkpt>
        <trkpt lat="28.136156" lon="105.795727"><ele>1550.0405</ele><time>2026-08-15T22:07:08.000Z</time></trkpt>
        <trkpt lat="28.136173" lon="105.795714"><ele>1549.9382</ele><time>2026-08-15T22:07:10.000Z</time></trkpt>
        <trkpt lat="28.136189" lon="105.795706"><ele>1549.8391</ele><time>2026-08-15T22:07:12.000Z</time></trkpt>
        <trkpt lat="28.136206" lon="105.795702"><ele>1549.028</ele><time>2026-08-15T22:07:14.000Z</time></trkpt>
        <trkpt lat="28.136224" lon="105.795703"><ele>1548.5356</ele><time>2026-08-15T22:07:16.000Z</time></trkpt>
        <trkpt lat="28.136244" lon="105.795708"><ele>1548.2805</ele><time>2026-08-15T22:07:18.000Z</time></trkpt>
        <trkpt lat="28.136265" lon="105.795717"><ele>1547.2574</ele><time>2026-08-15T22:07:20.000Z</time></trkpt>
        <trkpt lat="28.136286" lon="105.795724"><ele>1546.7058</ele><time>2026-08-15T22:07:22.000Z</time></trkpt>
        <trkpt lat="28.136307" lon="105.795729"><ele>1546.1812</ele><time>2026-08-15T22:07:24.000Z</time></trkpt>
        <trkpt lat="28.136331" lon="105.795735"><ele>1545.4148</ele><time>2026-08-15T22:07:26.000Z</time></trkpt>
        <trkpt lat="28.136356" lon="105.795738"><ele>1545.1416</ele><time>2026-08-15T22:07:28.000Z</time></trkpt>
        <trkpt lat="28.136377" lon="105.79574"><ele>1544.2875</ele><time>2026-08-15T22:07:30.000Z</time></trkpt>
        <trkpt lat="28.136396" lon="105.795739"><ele>1543.6632</ele><time>2026-08-15T22:07:32.000Z</time></trkpt>
        <trkpt lat="28.136411" lon="105.795734"><ele>1543.2201</ele><time>2026-08-15T22:07:34.000Z</time></trkpt>
        <trkpt lat="28.136426" lon="105.795724"><ele>1542.0881</ele><time>2026-08-15T22:07:36.000Z</time></trkpt>
        <trkpt lat="28.136438" lon="105.795712"><ele>1541.7773</ele><time>2026-08-15T22:07:38.000Z</time></trkpt>
        <trkpt lat="28.136449" lon="105.7957"><ele>1541.5316</ele><time>2026-08-15T22:07:40.000Z</time></trkpt>
        <trkpt lat="28.136462" lon="105.795683"><ele>1540.7593</ele><time>2026-08-15T22:07:42.000Z</time></trkpt>
        <trkpt lat="28.136473" lon="105.795668"><ele>1539.8683</ele><time>2026-08-15T22:07:44.000Z</time></trkpt>
        <trkpt lat="28.136482" lon="105.795658"><ele>1539.4435</ele><time>2026-08-15T22:07:46.000Z</time></trkpt>
        <trkpt lat="28.136492" lon="105.79565"><ele>1539.2614</ele><time>2026-08-15T22:07:48.000Z</time></trkpt>
        <trkpt lat="28.136503" lon="105.795642"><ele>1539.1512</ele><time>2026-08-15T22:07:50.000Z</time></trkpt>
        <trkpt lat="28.136515" lon="105.795634"><ele>1539.8796</ele><time>2026-08-15T22:07:52.000Z</time></trkpt>
        <trkpt lat="28.136528" lon="105.795624"><ele>1540.7595</ele><time>2026-08-15T22:07:54.000Z</time></trkpt>
        <trkpt lat="28.136544" lon="105.795611"><ele>1541.1812</ele><time>2026-08-15T22:07:56.000Z</time></trkpt>
        <trkpt lat="28.136553" lon="105.795596"><ele>1541.4067</ele><time>2026-08-15T22:07:58.000Z</time></trkpt>
        <trkpt lat="28.136558" lon="105.795578"><ele>1541.2458</ele><time>2026-08-15T22:08:00.000Z</time></trkpt>
        <trkpt lat="28.136561" lon="105.795558"><ele>1541.0214</ele><time>2026-08-15T22:08:02.000Z</time></trkpt>
        <trkpt lat="28.136564" lon="105.795544"><ele>1541.3094</ele><time>2026-08-15T22:08:04.000Z</time></trkpt>
        <trkpt lat="28.136568" lon="105.795536"><ele>1540.9807</ele><time>2026-08-15T22:08:06.000Z</time></trkpt>
        <trkpt lat="28.136565" lon="105.795534"><ele>1540.0114</ele><time>2026-08-15T22:08:10.000Z</time></trkpt>
        <trkpt lat="28.136544" lon="105.795516"><ele>1539.975</ele><time>2026-08-15T22:08:18.000Z</time></trkpt>
        <trkpt lat="28.136526" lon="105.795503"><ele>1539.939</ele><time>2026-08-15T22:08:20.000Z</time></trkpt>
        <trkpt lat="28.136525" lon="105.795502"><ele>1539.853</ele><time>2026-08-15T22:08:22.000Z</time></trkpt>
        <trkpt lat="28.136512" lon="105.79549"><ele>1538.3812</ele><time>2026-08-15T22:08:28.000Z</time></trkpt>
        <trkpt lat="28.136502" lon="105.79548"><ele>1538.7217</ele><time>2026-08-15T22:08:30.000Z</time></trkpt>
        <trkpt lat="28.136489" lon="105.795467"><ele>1539.1079</ele><time>2026-08-15T22:08:32.000Z</time></trkpt>
        <trkpt lat="28.136475" lon="105.795455"><ele>1539.0823</ele><time>2026-08-15T22:08:34.000Z</time></trkpt>
        <trkpt lat="28.136464" lon="105.795443"><ele>1538.9343</ele><time>2026-08-15T22:08:36.000Z</time></trkpt>
        <trkpt lat="28.136458" lon="105.795433"><ele>1540.1455</ele><time>2026-08-15T22:08:38.000Z</time></trkpt>
        <trkpt lat="28.136459" lon="105.795432"><ele>1540.9243</ele><time>2026-08-15T22:08:40.000Z</time></trkpt>
        <trkpt lat="28.136477" lon="105.795415"><ele>1543.8629</ele><time>2026-08-15T22:08:48.000Z</time></trkpt>
        <trkpt lat="28.13648" lon="105.795416"><ele>1543.8655</ele><time>2026-08-15T22:08:52.000Z</time></trkpt>
        <trkpt lat="28.136503" lon="105.795431"><ele>1543.4086</ele><time>2026-08-15T22:09:51.000Z</time></trkpt>
        <trkpt lat="28.136505" lon="105.795431"><ele>1543.391</ele><time>2026-08-15T22:10:36.000Z</time></trkpt>
        <trkpt lat="28.136507" lon="105.795427"><ele>1544.0038</ele><time>2026-08-15T22:10:51.000Z</time></trkpt>
        <trkpt lat="28.136529" lon="105.795406"><ele>1542.023</ele><time>2026-08-15T22:13:35.000Z</time></trkpt>
        <trkpt lat="28.136532" lon="105.795405"><ele>1541.5255</ele><time>2026-08-15T22:13:37.000Z</time></trkpt>
        <trkpt lat="28.136535" lon="105.795407"><ele>1541.6013</ele><time>2026-08-15T22:13:39.000Z</time></trkpt>
        <trkpt lat="28.136557" lon="105.795418"><ele>1539.7886</ele><time>2026-08-15T22:14:03.000Z</time></trkpt>
        <trkpt lat="28.136589" lon="105.795435"><ele>1536.2441</ele><time>2026-08-15T22:14:18.000Z</time></trkpt>
        <trkpt lat="28.136607" lon="105.795441"><ele>1535.5607</ele><time>2026-08-15T22:14:29.000Z</time></trkpt>
        <trkpt lat="28.13661" lon="105.795441"><ele>1535.4236</ele><time>2026-08-15T22:14:31.000Z</time></trkpt>
        <trkpt lat="28.136625" lon="105.79544"><ele>1534.2682</ele><time>2026-08-15T22:14:35.000Z</time></trkpt>
        <trkpt lat="28.136639" lon="105.795436"><ele>1534.1306</ele><time>2026-08-15T22:14:39.000Z</time></trkpt>
        <trkpt lat="28.136641" lon="105.795437"><ele>1534.6328</ele><time>2026-08-15T22:14:41.000Z</time></trkpt>
        <trkpt lat="28.136609" lon="105.795408"><ele>1530.7938</ele><time>2026-08-15T22:14:57.000Z</time></trkpt>
        <trkpt lat="28.136606" lon="105.795409"><ele>1529.6605</ele><time>2026-08-15T22:14:59.000Z</time></trkpt>
        <trkpt lat="28.136633" lon="105.795406"><ele>1528.629</ele><time>2026-08-15T22:15:07.000Z</time></trkpt>
        <trkpt lat="28.136655" lon="105.795403"><ele>1529.2001</ele><time>2026-08-15T22:15:09.000Z</time></trkpt>
        <trkpt lat="28.136656" lon="105.795404"><ele>1529.1621</ele><time>2026-08-15T22:15:11.000Z</time></trkpt>
        <trkpt lat="28.136671" lon="105.795411"><ele>1527.5397</ele><time>2026-08-15T22:15:17.000Z</time></trkpt>
        <trkpt lat="28.136685" lon="105.795414"><ele>1526.8313</ele><time>2026-08-15T22:15:21.000Z</time></trkpt>
        <trkpt lat="28.136689" lon="105.795414"><ele>1526.1306</ele><time>2026-08-15T22:15:23.000Z</time></trkpt>
        <trkpt lat="28.136707" lon="105.795415"><ele>1524.2755</ele><time>2026-08-15T22:15:31.000Z</time></trkpt>
        <trkpt lat="28.136723" lon="105.795417"><ele>1523.6731</ele><time>2026-08-15T22:15:35.000Z</time></trkpt>
        <trkpt lat="28.136728" lon="105.795414"><ele>1523.6923</ele><time>2026-08-15T22:15:37.000Z</time></trkpt>
        <trkpt lat="28.136736" lon="105.795408"><ele>1522.7012</ele><time>2026-08-15T22:15:41.000Z</time></trkpt>
        <trkpt lat="28.136751" lon="105.795398"><ele>1521.2512</ele><time>2026-08-15T22:15:48.000Z</time></trkpt>
        <trkpt lat="28.136756" lon="105.795398"><ele>1521.3663</ele><time>2026-08-15T22:15:50.000Z</time></trkpt>
        <trkpt lat="28.136771" lon="105.795397"><ele>1519.5955</ele><time>2026-08-15T22:15:54.000Z</time></trkpt>
        <trkpt lat="28.136784" lon="105.795396"><ele>1519.4291</ele><time>2026-08-15T22:15:58.000Z</time></trkpt>
        <trkpt lat="28.136784" lon="105.795397"><ele>1519.143</ele><time>2026-08-15T22:16:00.000Z</time></trkpt>
        <trkpt lat="28.136775" lon="105.795363"><ele>1514.9851</ele><time>2026-08-15T22:16:20.000Z</time></trkpt>
        <trkpt lat="28.136801" lon="105.795358"><ele>1514.1312</ele><time>2026-08-15T22:16:22.000Z</time></trkpt>
        <trkpt lat="28.136803" lon="105.795358"><ele>1514.1885</ele><time>2026-08-15T22:16:24.000Z</time></trkpt>
        <trkpt lat="28.136804" lon="105.795358"><ele>1513.7518</ele><time>2026-08-15T22:16:26.000Z</time></trkpt>
        <trkpt lat="28.13686" lon="105.795368"><ele>1510.8151</ele><time>2026-08-15T22:16:34.000Z</time></trkpt>
        <trkpt lat="28.13688" lon="105.795374"><ele>1510.7543</ele><time>2026-08-15T22:16:36.000Z</time></trkpt>
        <trkpt lat="28.136897" lon="105.79538"><ele>1510.1818</ele><time>2026-08-15T22:16:38.000Z</time></trkpt>
        <trkpt lat="28.13691" lon="105.795389"><ele>1509.9003</ele><time>2026-08-15T22:16:40.000Z</time></trkpt>
        <trkpt lat="28.136924" lon="105.7954"><ele>1509.7207</ele><time>2026-08-15T22:16:42.000Z</time></trkpt>
        <trkpt lat="28.136937" lon="105.795413"><ele>1509.6047</ele><time>2026-08-15T22:16:44.000Z</time></trkpt>
        <trkpt lat="28.136948" lon="105.795426"><ele>1510.1677</ele><time>2026-08-15T22:16:46.000Z</time></trkpt>
        <trkpt lat="28.136957" lon="105.795438"><ele>1509.7155</ele><time>2026-08-15T22:16:48.000Z</time></trkpt>
        <trkpt lat="28.136965" lon="105.795449"><ele>1510.0681</ele><time>2026-08-15T22:16:50.000Z</time></trkpt>
        <trkpt lat="28.136971" lon="105.795451"><ele>1509.4019</ele><time>2026-08-15T22:16:52.000Z</time></trkpt>
        <trkpt lat="28.136984" lon="105.79545"><ele>1508.205</ele><time>2026-08-15T22:16:56.000Z</time></trkpt>
        <trkpt lat="28.137" lon="105.79545"><ele>1508.4032</ele><time>2026-08-15T22:16:58.000Z</time></trkpt>
        <trkpt lat="28.137022" lon="105.795452"><ele>1508.9249</ele><time>2026-08-15T22:17:00.000Z</time></trkpt>
        <trkpt lat="28.137024" lon="105.795452"><ele>1507.9509</ele><time>2026-08-15T22:17:02.000Z</time></trkpt>
        <trkpt lat="28.137037" lon="105.795458"><ele>1507.4172</ele><time>2026-08-15T22:17:06.000Z</time></trkpt>
        <trkpt lat="28.137061" lon="105.795466"><ele>1506.3258</ele><time>2026-08-15T22:17:08.000Z</time></trkpt>
        <trkpt lat="28.137088" lon="105.795472"><ele>1506.4796</ele><time>2026-08-15T22:17:10.000Z</time></trkpt>
        <trkpt lat="28.137111" lon="105.795477"><ele>1506.2411</ele><time>2026-08-15T22:17:12.000Z</time></trkpt>
        <trkpt lat="28.13713" lon="105.795482"><ele>1506.1392</ele><time>2026-08-15T22:17:14.000Z</time></trkpt>
        <trkpt lat="28.137144" lon="105.795486"><ele>1505.566</ele><time>2026-08-15T22:17:16.000Z</time></trkpt>
        <trkpt lat="28.137155" lon="105.795489"><ele>1505.0706</ele><time>2026-08-15T22:17:18.000Z</time></trkpt>
        <trkpt lat="28.137162" lon="105.795494"><ele>1504.7369</ele><time>2026-08-15T22:17:20.000Z</time></trkpt>
        <trkpt lat="28.137172" lon="105.795494"><ele>1502.575</ele><time>2026-08-15T22:17:26.000Z</time></trkpt>
        <trkpt lat="28.137184" lon="105.79549"><ele>1503.7991</ele><time>2026-08-15T22:17:32.000Z</time></trkpt>
        <trkpt lat="28.137184" lon="105.795489"><ele>1503.0319</ele><time>2026-08-15T22:17:36.000Z</time></trkpt>
        <trkpt lat="28.137176" lon="105.795447"><ele>1498.4678</ele><time>2026-08-15T22:18:16.000Z</time></trkpt>
        <trkpt lat="28.137176" lon="105.795447"><ele>1498.5441</ele><time>2026-08-15T22:18:18.000Z</time></trkpt>
        <trkpt lat="28.137177" lon="105.795447"><ele>1498.337</ele><time>2026-08-15T22:18:20.000Z</time></trkpt>
        <trkpt lat="28.137204" lon="105.795451"><ele>1497.9761</ele><time>2026-08-15T22:18:22.000Z</time></trkpt>
        <trkpt lat="28.137206" lon="105.795451"><ele>1497.9958</ele><time>2026-08-15T22:18:24.000Z</time></trkpt>
        <trkpt lat="28.137208" lon="105.795452"><ele>1497.2152</ele><time>2026-08-15T22:18:26.000Z</time></trkpt>
        <trkpt lat="28.137232" lon="105.795464"><ele>1496.5503</ele><time>2026-08-15T22:18:30.000Z</time></trkpt>
        <trkpt lat="28.137247" lon="105.795471"><ele>1496.0238</ele><time>2026-08-15T22:18:32.000Z</time></trkpt>
        <trkpt lat="28.13726" lon="105.795476"><ele>1495.9644</ele><time>2026-08-15T22:18:34.000Z</time></trkpt>
        <trkpt lat="28.137268" lon="105.795477"><ele>1495.8549</ele><time>2026-08-15T22:18:36.000Z</time></trkpt>
        <trkpt lat="28.137277" lon="105.795483"><ele>1495.56</ele><time>2026-08-15T22:18:40.000Z</time></trkpt>
        <trkpt lat="28.137286" lon="105.795495"><ele>1494.7411</ele><time>2026-08-15T22:18:54.000Z</time></trkpt>
        <trkpt lat="28.137291" lon="105.795499"><ele>1493.3834</ele><time>2026-08-15T22:18:58.000Z</time></trkpt>
        <trkpt lat="28.137315" lon="105.795518"><ele>1493.0178</ele><time>2026-08-15T22:19:04.000Z</time></trkpt>
        <trkpt lat="28.137315" lon="105.795518"><ele>1492.1836</ele><time>2026-08-15T22:19:06.000Z</time></trkpt>
        <trkpt lat="28.137322" lon="105.79552"><ele>1489.4797</ele><time>2026-08-15T22:19:20.000Z</time></trkpt>
        <trkpt lat="28.137346" lon="105.795525"><ele>1487.0845</ele><time>2026-08-15T22:19:30.000Z</time></trkpt>
        <trkpt lat="28.137348" lon="105.795526"><ele>1486.7363</ele><time>2026-08-15T22:19:32.000Z</time></trkpt>
        <trkpt lat="28.137351" lon="105.795526"><ele>1486.7585</ele><time>2026-08-15T22:19:36.000Z</time></trkpt>
        <trkpt lat="28.137384" lon="105.795529"><ele>1484.8301</ele><time>2026-08-15T22:19:52.000Z</time></trkpt>
        <trkpt lat="28.137422" lon="105.795535"><ele>1479.2834</ele><time>2026-08-15T22:20:07.000Z</time></trkpt>
        <trkpt lat="28.137463" lon="105.795542"><ele>1475.7675</ele><time>2026-08-15T22:20:20.000Z</time></trkpt>
        <trkpt lat="28.137463" lon="105.795542"><ele>1476.1797</ele><time>2026-08-15T22:20:22.000Z</time></trkpt>
        <trkpt lat="28.137464" lon="105.795543"><ele>1476.03</ele><time>2026-08-15T22:20:24.000Z</time></trkpt>
        <trkpt lat="28.137497" lon="105.795556"><ele>1474.5703</ele><time>2026-08-15T22:20:30.000Z</time></trkpt>
        <trkpt lat="28.13751" lon="105.795562"><ele>1474.6455</ele><time>2026-08-15T22:20:32.000Z</time></trkpt>
        <trkpt lat="28.13752" lon="105.795568"><ele>1474.6172</ele><time>2026-08-15T22:20:34.000Z</time></trkpt>
        <trkpt lat="28.137528" lon="105.795572"><ele>1473.8278</ele><time>2026-08-15T22:20:36.000Z</time></trkpt>
        <trkpt lat="28.137543" lon="105.795579"><ele>1473.4751</ele><time>2026-08-15T22:20:40.000Z</time></trkpt>
        <trkpt lat="28.137549" lon="105.795579"><ele>1473.4998</ele><time>2026-08-15T22:20:42.000Z</time></trkpt>
        <trkpt lat="28.137559" lon="105.795586"><ele>1472.3206</ele><time>2026-08-15T22:20:44.000Z</time></trkpt>
        <trkpt lat="28.137581" lon="105.795603"><ele>1468.3623</ele><time>2026-08-15T22:20:52.000Z</time></trkpt>
        <trkpt lat="28.137594" lon="105.795614"><ele>1467.9553</ele><time>2026-08-15T22:20:54.000Z</time></trkpt>
        <trkpt lat="28.137605" lon="105.795621"><ele>1467.5511</ele><time>2026-08-15T22:20:56.000Z</time></trkpt>
        <trkpt lat="28.137617" lon="105.795629"><ele>1466.3989</ele><time>2026-08-15T22:20:58.000Z</time></trkpt>
        <trkpt lat="28.137627" lon="105.795636"><ele>1465.4801</ele><time>2026-08-15T22:21:00.000Z</time></trkpt>
        <trkpt lat="28.137632" lon="105.795641"><ele>1464.9612</ele><time>2026-08-15T22:21:02.000Z</time></trkpt>
        <trkpt lat="28.13765" lon="105.795655"><ele>1463.6772</ele><time>2026-08-15T22:21:06.000Z</time></trkpt>
        <trkpt lat="28.137652" lon="105.795656"><ele>1462.7299</ele><time>2026-08-15T22:21:10.000Z</time></trkpt>
        <trkpt lat="28.137659" lon="105.795658"><ele>1462.2717</ele><time>2026-08-15T22:21:12.000Z</time></trkpt>
        <trkpt lat="28.137686" lon="105.795672"><ele>1461.3976</ele><time>2026-08-15T22:21:16.000Z</time></trkpt>
        <trkpt lat="28.137697" lon="105.795679"><ele>1460.52</ele><time>2026-08-15T22:21:18.000Z</time></trkpt>
        <trkpt lat="28.137709" lon="105.795689"><ele>1460.3035</ele><time>2026-08-15T22:21:20.000Z</time></trkpt>
        <trkpt lat="28.137722" lon="105.795699"><ele>1459.9141</ele><time>2026-08-15T22:21:22.000Z</time></trkpt>
        <trkpt lat="28.137733" lon="105.795707"><ele>1459.1389</ele><time>2026-08-15T22:21:24.000Z</time></trkpt>
        <trkpt lat="28.137753" lon="105.795719"><ele>1459.5333</ele><time>2026-08-15T22:21:26.000Z</time></trkpt>
        <trkpt lat="28.137773" lon="105.79573"><ele>1458.7375</ele><time>2026-08-15T22:21:28.000Z</time></trkpt>
        <trkpt lat="28.137795" lon="105.795742"><ele>1458.1991</ele><time>2026-08-15T22:21:30.000Z</time></trkpt>
        <trkpt lat="28.13782" lon="105.795754"><ele>1458.781</ele><time>2026-08-15T22:21:32.000Z</time></trkpt>
        <trkpt lat="28.13784" lon="105.795765"><ele>1459.3915</ele><time>2026-08-15T22:21:34.000Z</time></trkpt>
        <trkpt lat="28.137858" lon="105.795773"><ele>1459.6901</ele><time>2026-08-15T22:21:36.000Z</time></trkpt>
        <trkpt lat="28.137871" lon="105.79578"><ele>1459.3302</ele><time>2026-08-15T22:21:38.000Z</time></trkpt>
        <trkpt lat="28.137881" lon="105.795786"><ele>1459.1792</ele><time>2026-08-15T22:21:40.000Z</time></trkpt>
        <trkpt lat="28.137884" lon="105.795791"><ele>1459.2976</ele><time>2026-08-15T22:21:42.000Z</time></trkpt>
        <trkpt lat="28.137892" lon="105.795804"><ele>1456.7849</ele><time>2026-08-15T22:22:02.000Z</time></trkpt>
        <trkpt lat="28.137902" lon="105.79582"><ele>1456.5828</ele><time>2026-08-15T22:22:08.000Z</time></trkpt>
        <trkpt lat="28.137902" lon="105.79582"><ele>1456.8253</ele><time>2026-08-15T22:22:10.000Z</time></trkpt>
        <trkpt lat="28.137919" lon="105.795835"><ele>1458.01</ele><time>2026-08-15T22:22:16.000Z</time></trkpt>
        <trkpt lat="28.137939" lon="105.795851"><ele>1457.877</ele><time>2026-08-15T22:22:18.000Z</time></trkpt>
        <trkpt lat="28.137939" lon="105.795853"><ele>1457.4688</ele><time>2026-08-15T22:22:20.000Z</time></trkpt>
        <trkpt lat="28.137945" lon="105.795857"><ele>1456.2993</ele><time>2026-08-15T22:22:26.000Z</time></trkpt>
        <trkpt lat="28.137973" lon="105.795874"><ele>1453.4149</ele><time>2026-08-15T22:22:34.000Z</time></trkpt>
        <trkpt lat="28.137996" lon="105.795889"><ele>1453.0723</ele><time>2026-08-15T22:22:36.000Z</time></trkpt>
        <trkpt lat="28.137997" lon="105.795891"><ele>1452.4966</ele><time>2026-08-15T22:22:38.000Z</time></trkpt>
        <trkpt lat="28.138001" lon="105.795895"><ele>1451.9229</ele><time>2026-08-15T22:22:42.000Z</time></trkpt>
        <trkpt lat="28.13802" lon="105.795914"><ele>1452.5043</ele><time>2026-08-15T22:22:50.000Z</time></trkpt>
        <trkpt lat="28.138026" lon="105.795917"><ele>1451.5338</ele><time>2026-08-15T22:22:52.000Z</time></trkpt>
        <trkpt lat="28.138026" lon="105.795917"><ele>1450.9681</ele><time>2026-08-15T22:22:54.000Z</time></trkpt>
        <trkpt lat="28.138039" lon="105.795885"><ele>1447.451</ele><time>2026-08-15T22:23:06.000Z</time></trkpt>
        <trkpt lat="28.138041" lon="105.795881"><ele>1447.0271</ele><time>2026-08-15T22:23:08.000Z</time></trkpt>
        <trkpt lat="28.138042" lon="105.795881"><ele>1446.949</ele><time>2026-08-15T22:23:10.000Z</time></trkpt>
        <trkpt lat="28.13807" lon="105.795899"><ele>1444.9429</ele><time>2026-08-15T22:23:48.000Z</time></trkpt>
        <trkpt lat="28.138075" lon="105.795902"><ele>1444.3386</ele><time>2026-08-15T22:23:50.000Z</time></trkpt>
        <trkpt lat="28.138079" lon="105.795903"><ele>1443.8164</ele><time>2026-08-15T22:23:52.000Z</time></trkpt>
        <trkpt lat="28.1381" lon="105.795909"><ele>1441.4023</ele><time>2026-08-15T22:24:04.000Z</time></trkpt>
        <trkpt lat="28.138107" lon="105.795911"><ele>1440.8309</ele><time>2026-08-15T22:24:06.000Z</time></trkpt>
        <trkpt lat="28.138107" lon="105.795913"><ele>1440.9205</ele><time>2026-08-15T22:24:08.000Z</time></trkpt>
        <trkpt lat="28.13811" lon="105.795867"><ele>1437.197</ele><time>2026-08-15T22:24:28.000Z</time></trkpt>
        <trkpt lat="28.138111" lon="105.795845"><ele>1436.5612</ele><time>2026-08-15T22:24:30.000Z</time></trkpt>
        <trkpt lat="28.138111" lon="105.795844"><ele>1436.46</ele><time>2026-08-15T22:24:32.000Z</time></trkpt>
        <trkpt lat="28.138093" lon="105.795825"><ele>1434.0187</ele><time>2026-08-15T22:24:38.000Z</time></trkpt>
        <trkpt lat="28.138081" lon="105.795813"><ele>1433.446</ele><time>2026-08-15T22:24:40.000Z</time></trkpt>
        <trkpt lat="28.138072" lon="105.7958"><ele>1432.7137</ele><time>2026-08-15T22:24:42.000Z</time></trkpt>
        <trkpt lat="28.138067" lon="105.795786"><ele>1432.5393</ele><time>2026-08-15T22:24:44.000Z</time></trkpt>
        <trkpt lat="28.138069" lon="105.79578"><ele>1432.5413</ele><time>2026-08-15T22:24:46.000Z</time></trkpt>
        <trkpt lat="28.138073" lon="105.795762"><ele>1432.1736</ele><time>2026-08-15T22:24:52.000Z</time></trkpt>
        <trkpt lat="28.138072" lon="105.795753"><ele>1431.2152</ele><time>2026-08-15T22:24:56.000Z</time></trkpt>
        <trkpt lat="28.138069" lon="105.795743"><ele>1430.8966</ele><time>2026-08-15T22:25:00.000Z</time></trkpt>
        <trkpt lat="28.138064" lon="105.795727"><ele>1430.1322</ele><time>2026-08-15T22:25:04.000Z</time></trkpt>
        <trkpt lat="28.138063" lon="105.795721"><ele>1430.2247</ele><time>2026-08-15T22:25:06.000Z</time></trkpt>
        <trkpt lat="28.138062" lon="105.795709"><ele>1431.2479</ele><time>2026-08-15T22:25:10.000Z</time></trkpt>
        <trkpt lat="28.138057" lon="105.795693"><ele>1429.9324</ele><time>2026-08-15T22:25:16.000Z</time></trkpt>
        <trkpt lat="28.138054" lon="105.795689"><ele>1429.3267</ele><time>2026-08-15T22:25:18.000Z</time></trkpt>
        <trkpt lat="28.138045" lon="105.795674"><ele>1429.11</ele><time>2026-08-15T22:25:37.000Z</time></trkpt>
        <trkpt lat="28.13803" lon="105.795647"><ele>1428.8495</ele><time>2026-08-15T22:25:39.000Z</time></trkpt>
        <trkpt lat="28.138029" lon="105.795645"><ele>1428.6556</ele><time>2026-08-15T22:25:41.000Z</time></trkpt>
        <trkpt lat="28.138019" lon="105.795615"><ele>1427.6074</ele><time>2026-08-15T22:25:44.000Z</time></trkpt>
        <trkpt lat="28.138019" lon="105.795614"><ele>1427.156</ele><time>2026-08-15T22:25:46.000Z</time></trkpt>
        <trkpt lat="28.13802" lon="105.795614"><ele>1426.7688</ele><time>2026-08-15T22:25:48.000Z</time></trkpt>
        <trkpt lat="28.138057" lon="105.795597"><ele>1425.6267</ele><time>2026-08-15T22:25:54.000Z</time></trkpt>
        <trkpt lat="28.138073" lon="105.795592"><ele>1425.3438</ele><time>2026-08-15T22:25:56.000Z</time></trkpt>
        <trkpt lat="28.138089" lon="105.795588"><ele>1425.5693</ele><time>2026-08-15T22:25:58.000Z</time></trkpt>
        <trkpt lat="28.138104" lon="105.795585"><ele>1425.1128</ele><time>2026-08-15T22:26:00.000Z</time></trkpt>
        <trkpt lat="28.138118" lon="105.795582"><ele>1424.5387</ele><time>2026-08-15T22:26:02.000Z</time></trkpt>
        <trkpt lat="28.138127" lon="105.79558"><ele>1424.0426</ele><time>2026-08-15T22:26:04.000Z</time></trkpt>
        <trkpt lat="28.138135" lon="105.795579"><ele>1423.4111</ele><time>2026-08-15T22:26:06.000Z</time></trkpt>
        <trkpt lat="28.138149" lon="105.795575"><ele>1420.5973</ele><time>2026-08-15T22:26:13.000Z</time></trkpt>
        <trkpt lat="28.138159" lon="105.795569"><ele>1419.3845</ele><time>2026-08-15T22:26:17.000Z</time></trkpt>
        <trkpt lat="28.138177" lon="105.795559"><ele>1419.408</ele><time>2026-08-15T22:26:19.000Z</time></trkpt>
        <trkpt lat="28.138179" lon="105.795558"><ele>1419.0205</ele><time>2026-08-15T22:26:21.000Z</time></trkpt>
        <trkpt lat="28.138197" lon="105.795557"><ele>1417.6508</ele><time>2026-08-15T22:26:27.000Z</time></trkpt>
        <trkpt lat="28.138212" lon="105.795556"><ele>1417.3507</ele><time>2026-08-15T22:26:29.000Z</time></trkpt>
        <trkpt lat="28.138229" lon="105.795553"><ele>1416.978</ele><time>2026-08-15T22:26:31.000Z</time></trkpt>
        <trkpt lat="28.138246" lon="105.795552"><ele>1416.3456</ele><time>2026-08-15T22:26:33.000Z</time></trkpt>
        <trkpt lat="28.138261" lon="105.795552"><ele>1415.9116</ele><time>2026-08-15T22:26:35.000Z</time></trkpt>
        <trkpt lat="28.138275" lon="105.795551"><ele>1415.9695</ele><time>2026-08-15T22:26:37.000Z</time></trkpt>
        <trkpt lat="28.138285" lon="105.795552"><ele>1415.5892</ele><time>2026-08-15T22:26:39.000Z</time></trkpt>
        <trkpt lat="28.138286" lon="105.795554"><ele>1415.5524</ele><time>2026-08-15T22:26:41.000Z</time></trkpt>
        <trkpt lat="28.138293" lon="105.79559"><ele>1412.5382</ele><time>2026-08-15T22:26:55.000Z</time></trkpt>
        <trkpt lat="28.138297" lon="105.795608"><ele>1412.0187</ele><time>2026-08-15T22:26:57.000Z</time></trkpt>
        <trkpt lat="28.138297" lon="105.795609"><ele>1411.7913</ele><time>2026-08-15T22:26:59.000Z</time></trkpt>
        <trkpt lat="28.138301" lon="105.795555"><ele>1408.7954</ele><time>2026-08-15T22:27:18.000Z</time></trkpt>
        <trkpt lat="28.138334" lon="105.795564"><ele>1403.0605</ele><time>2026-08-15T22:27:33.000Z</time></trkpt>
        <trkpt lat="28.138382" lon="105.795528"><ele>1401.9391</ele><time>2026-08-15T22:27:49.000Z</time></trkpt>
        <trkpt lat="28.138415" lon="105.795501"><ele>1400.6327</ele><time>2026-08-15T22:28:01.000Z</time></trkpt>
        <trkpt lat="28.138418" lon="105.795498"><ele>1399.7843</ele><time>2026-08-15T22:28:03.000Z</time></trkpt>
        <trkpt lat="28.138421" lon="105.79549"><ele>1399.0852</ele><time>2026-08-15T22:28:05.000Z</time></trkpt>
        <trkpt lat="28.138429" lon="105.795464"><ele>1399.0428</ele><time>2026-08-15T22:28:09.000Z</time></trkpt>
        <trkpt lat="28.13843" lon="105.795454"><ele>1398.734</ele><time>2026-08-15T22:28:11.000Z</time></trkpt>
        <trkpt lat="28.13843" lon="105.795443"><ele>1397.7977</ele><time>2026-08-15T22:28:13.000Z</time></trkpt>
        <trkpt lat="28.138432" lon="105.795431"><ele>1397.0564</ele><time>2026-08-15T22:28:15.000Z</time></trkpt>
        <trkpt lat="28.138435" lon="105.795421"><ele>1397.2085</ele><time>2026-08-15T22:28:17.000Z</time></trkpt>
        <trkpt lat="28.138443" lon="105.795403"><ele>1395.0736</ele><time>2026-08-15T22:28:21.000Z</time></trkpt>
        <trkpt lat="28.138448" lon="105.795391"><ele>1393.7313</ele><time>2026-08-15T22:28:23.000Z</time></trkpt>
        <trkpt lat="28.138454" lon="105.795381"><ele>1392.7472</ele><time>2026-08-15T22:28:25.000Z</time></trkpt>
        <trkpt lat="28.138466" lon="105.79537"><ele>1392.0681</ele><time>2026-08-15T22:28:27.000Z</time></trkpt>
        <trkpt lat="28.138481" lon="105.795361"><ele>1391.0906</ele><time>2026-08-15T22:28:29.000Z</time></trkpt>
        <trkpt lat="28.138492" lon="105.795359"><ele>1390.4576</ele><time>2026-08-15T22:28:31.000Z</time></trkpt>
        <trkpt lat="28.138503" lon="105.795358"><ele>1390.1007</ele><time>2026-08-15T22:28:33.000Z</time></trkpt>
        <trkpt lat="28.138519" lon="105.795357"><ele>1389.2728</ele><time>2026-08-15T22:28:35.000Z</time></trkpt>
        <trkpt lat="28.138539" lon="105.795357"><ele>1389.1191</ele><time>2026-08-15T22:28:37.000Z</time></trkpt>
        <trkpt lat="28.138566" lon="105.795362"><ele>1387.9519</ele><time>2026-08-15T22:28:39.000Z</time></trkpt>
        <trkpt lat="28.138593" lon="105.795369"><ele>1387.0518</ele><time>2026-08-15T22:28:41.000Z</time></trkpt>
        <trkpt lat="28.138608" lon="105.795376"><ele>1386.543</ele><time>2026-08-15T22:28:43.000Z</time></trkpt>
        <trkpt lat="28.138608" lon="105.795378"><ele>1386.334</ele><time>2026-08-15T22:28:45.000Z</time></trkpt>
        <trkpt lat="28.138619" lon="105.795403"><ele>1381.4098</ele><time>2026-08-15T22:29:13.000Z</time></trkpt>
        <trkpt lat="28.138629" lon="105.795423"><ele>1381.3131</ele><time>2026-08-15T22:29:15.000Z</time></trkpt>
        <trkpt lat="28.13863" lon="105.795424"><ele>1381.1266</ele><time>2026-08-15T22:29:17.000Z</time></trkpt>
        <trkpt lat="28.138645" lon="105.795422"><ele>1382.0409</ele><time>2026-08-15T22:29:23.000Z</time></trkpt>
        <trkpt lat="28.138668" lon="105.79542"><ele>1381.2986</ele><time>2026-08-15T22:29:27.000Z</time></trkpt>
        <trkpt lat="28.138668" lon="105.79542"><ele>1381.2034</ele><time>2026-08-15T22:29:29.000Z</time></trkpt>
        <trkpt lat="28.138676" lon="105.795424"><ele>1379.5719</ele><time>2026-08-15T22:29:33.000Z</time></trkpt>
        <trkpt lat="28.138706" lon="105.795438"><ele>1379.6836</ele><time>2026-08-15T22:29:39.000Z</time></trkpt>
        <trkpt lat="28.138706" lon="105.795438"><ele>1379.2673</ele><time>2026-08-15T22:29:41.000Z</time></trkpt>
        <trkpt lat="28.138707" lon="105.795438"><ele>1379.3436</ele><time>2026-08-15T22:29:43.000Z</time></trkpt>
        <trkpt lat="28.138738" lon="105.795439"><ele>1378.0974</ele><time>2026-08-15T22:29:53.000Z</time></trkpt>
        <trkpt lat="28.13874" lon="105.795437"><ele>1377.6738</ele><time>2026-08-15T22:29:55.000Z</time></trkpt>
        <trkpt lat="28.138744" lon="105.795434"><ele>1377.9385</ele><time>2026-08-15T22:29:57.000Z</time></trkpt>
        <trkpt lat="28.138768" lon="105.795413"><ele>1376.9364</ele><time>2026-08-15T22:30:39.000Z</time></trkpt>
        <trkpt lat="28.138809" lon="105.795421"><ele>1375.1542</ele><time>2026-08-15T22:30:54.000Z</time></trkpt>
        <trkpt lat="28.138774" lon="105.795428"><ele>1374.5605</ele><time>2026-08-15T22:30:57.000Z</time></trkpt>
        <trkpt lat="28.138792" lon="105.795437"><ele>1373.9858</ele><time>2026-08-15T22:31:07.000Z</time></trkpt>
        <trkpt lat="28.138836" lon="105.795396"><ele>1370.3472</ele><time>2026-08-15T22:31:23.000Z</time></trkpt>
        <trkpt lat="28.138836" lon="105.795396"><ele>1369.7451</ele><time>2026-08-15T22:31:25.000Z</time></trkpt>
        <trkpt lat="28.138835" lon="105.795396"><ele>1369.6548</ele><time>2026-08-15T22:31:27.000Z</time></trkpt>
        <trkpt lat="28.138806" lon="105.795399"><ele>1368.1544</ele><time>2026-08-15T22:31:31.000Z</time></trkpt>
        <trkpt lat="28.138856" lon="105.795359"><ele>1368.165</ele><time>2026-08-15T22:31:41.000Z</time></trkpt>
        <trkpt lat="28.138856" lon="105.795359"><ele>1367.7715</ele><time>2026-08-15T22:31:43.000Z</time></trkpt>
        <trkpt lat="28.138858" lon="105.795359"><ele>1367.9689</ele><time>2026-08-15T22:31:45.000Z</time></trkpt>
        <trkpt lat="28.138887" lon="105.795367"><ele>1365.0659</ele><time>2026-08-15T22:31:53.000Z</time></trkpt>
        <trkpt lat="28.13889" lon="105.795368"><ele>1365.2639</ele><time>2026-08-15T22:31:55.000Z</time></trkpt>
        <trkpt lat="28.138893" lon="105.795367"><ele>1365.4524</ele><time>2026-08-15T22:31:57.000Z</time></trkpt>
        <trkpt lat="28.138922" lon="105.79535"><ele>1362.5876</ele><time>2026-08-15T22:32:17.000Z</time></trkpt>
        <trkpt lat="28.138947" lon="105.795336"><ele>1362.1355</ele><time>2026-08-15T22:32:19.000Z</time></trkpt>
        <trkpt lat="28.138948" lon="105.795336"><ele>1362.2455</ele><time>2026-08-15T22:32:21.000Z</time></trkpt>
        <trkpt lat="28.138953" lon="105.795337"><ele>1360.7948</ele><time>2026-08-15T22:32:25.000Z</time></trkpt>
        <trkpt lat="28.138987" lon="105.795345"><ele>1358.4359</ele><time>2026-08-15T22:33:10.000Z</time></trkpt>
        <trkpt lat="28.138986" lon="105.795343"><ele>1358.0211</ele><time>2026-08-15T22:33:13.000Z</time></trkpt>
        <trkpt lat="28.138986" lon="105.795342"><ele>1358.1952</ele><time>2026-08-15T22:33:15.000Z</time></trkpt>
        <trkpt lat="28.139004" lon="105.795317"><ele>1357.5148</ele><time>2026-08-15T22:33:37.000Z</time></trkpt>
        <trkpt lat="28.139007" lon="105.795317"><ele>1357.5829</ele><time>2026-08-15T22:33:41.000Z</time></trkpt>
        <trkpt lat="28.13901" lon="105.795316"><ele>1358.1708</ele><time>2026-08-15T22:33:43.000Z</time></trkpt>
        <trkpt lat="28.139058" lon="105.795315"><ele>1355.3033</ele><time>2026-08-15T22:33:53.000Z</time></trkpt>
        <trkpt lat="28.139058" lon="105.795315"><ele>1354.9275</ele><time>2026-08-15T22:33:55.000Z</time></trkpt>
        <trkpt lat="28.139057" lon="105.795315"><ele>1355.4739</ele><time>2026-08-15T22:33:57.000Z</time></trkpt>
        <trkpt lat="28.139088" lon="105.795293"><ele>1354.0444</ele><time>2026-08-15T22:34:11.000Z</time></trkpt>
        <trkpt lat="28.139093" lon="105.79529"><ele>1354.3876</ele><time>2026-08-15T22:34:13.000Z</time></trkpt>
        <trkpt lat="28.1391" lon="105.795287"><ele>1354.1166</ele><time>2026-08-15T22:34:15.000Z</time></trkpt>
        <trkpt lat="28.139123" lon="105.795282"><ele>1353.0746</ele><time>2026-08-15T22:34:19.000Z</time></trkpt>
        <trkpt lat="28.139131" lon="105.795282"><ele>1353.0138</ele><time>2026-08-15T22:34:21.000Z</time></trkpt>
        <trkpt lat="28.139139" lon="105.795284"><ele>1352.3125</ele><time>2026-08-15T22:34:23.000Z</time></trkpt>
        <trkpt lat="28.139212" lon="105.7953"><ele>1350.6523</ele><time>2026-08-15T22:34:37.000Z</time></trkpt>
        <trkpt lat="28.139212" lon="105.7953"><ele>1350.6831</ele><time>2026-08-15T22:34:39.000Z</time></trkpt>
        <trkpt lat="28.139212" lon="105.7953"><ele>1349.8197</ele><time>2026-08-15T22:34:41.000Z</time></trkpt>
        <trkpt lat="28.139243" lon="105.7953"><ele>1344.2047</ele><time>2026-08-15T22:34:59.000Z</time></trkpt>
        <trkpt lat="28.139256" lon="105.795299"><ele>1344.6343</ele><time>2026-08-15T22:35:01.000Z</time></trkpt>
        <trkpt lat="28.139256" lon="105.795299"><ele>1344.463</ele><time>2026-08-15T22:35:03.000Z</time></trkpt>
        <trkpt lat="28.139262" lon="105.795267"><ele>1341.292</ele><time>2026-08-15T22:35:17.000Z</time></trkpt>
        <trkpt lat="28.139288" lon="105.795272"><ele>1340.734</ele><time>2026-08-15T22:35:19.000Z</time></trkpt>
        <trkpt lat="28.13929" lon="105.795271"><ele>1339.9755</ele><time>2026-08-15T22:35:21.000Z</time></trkpt>
        <trkpt lat="28.139297" lon="105.795269"><ele>1337.2711</ele><time>2026-08-15T22:35:29.000Z</time></trkpt>
        <trkpt lat="28.139318" lon="105.795266"><ele>1336.0374</ele><time>2026-08-15T22:35:37.000Z</time></trkpt>
        <trkpt lat="28.139322" lon="105.795266"><ele>1335.6986</ele><time>2026-08-15T22:35:39.000Z</time></trkpt>
        <trkpt lat="28.13933" lon="105.795268"><ele>1334.849</ele><time>2026-08-15T22:35:41.000Z</time></trkpt>
        <trkpt lat="28.139345" lon="105.795284"><ele>1332.8591</ele><time>2026-08-15T22:35:47.000Z</time></trkpt>
        <trkpt lat="28.139356" lon="105.795296"><ele>1331.5522</ele><time>2026-08-15T22:35:49.000Z</time></trkpt>
        <trkpt lat="28.139357" lon="105.795297"><ele>1331.302</ele><time>2026-08-15T22:35:51.000Z</time></trkpt>
        <trkpt lat="28.139373" lon="105.795312"><ele>1331.0732</ele><time>2026-08-15T22:35:59.000Z</time></trkpt>
        <trkpt lat="28.139393" lon="105.795329"><ele>1331.4785</ele><time>2026-08-15T22:36:01.000Z</time></trkpt>
        <trkpt lat="28.139394" lon="105.79533"><ele>1331.2052</ele><time>2026-08-15T22:36:03.000Z</time></trkpt>
        <trkpt lat="28.139398" lon="105.795333"><ele>1330.848</ele><time>2026-08-15T22:36:07.000Z</time></trkpt>
        <trkpt lat="28.139438" lon="105.795361"><ele>1329.2626</ele><time>2026-08-15T22:36:13.000Z</time></trkpt>
        <trkpt lat="28.139438" lon="105.795361"><ele>1329.6903</ele><time>2026-08-15T22:36:15.000Z</time></trkpt>
        <trkpt lat="28.139438" lon="105.795361"><ele>1330.3141</ele><time>2026-08-15T22:36:17.000Z</time></trkpt>
        <trkpt lat="28.139459" lon="105.795392"><ele>1327.4487</ele><time>2026-08-15T22:36:35.000Z</time></trkpt>
        <trkpt lat="28.139464" lon="105.795396"><ele>1327.6228</ele><time>2026-08-15T22:36:37.000Z</time></trkpt>
        <trkpt lat="28.139469" lon="105.795398"><ele>1326.8965</ele><time>2026-08-15T22:36:39.000Z</time></trkpt>
        <trkpt lat="28.139482" lon="105.795413"><ele>1322.9159</ele><time>2026-08-15T22:36:51.000Z</time></trkpt>
        <trkpt lat="28.139487" lon="105.79542"><ele>1321.4822</ele><time>2026-08-15T22:36:57.000Z</time></trkpt>
        <trkpt lat="28.13949" lon="105.795423"><ele>1321.1802</ele><time>2026-08-15T22:36:59.000Z</time></trkpt>
        <trkpt lat="28.139498" lon="105.795442"><ele>1319.9825</ele><time>2026-08-15T22:37:09.000Z</time></trkpt>
        <trkpt lat="28.139505" lon="105.795445"><ele>1318.662</ele><time>2026-08-15T22:37:13.000Z</time></trkpt>
        <trkpt lat="28.13952" lon="105.795451"><ele>1317.568</ele><time>2026-08-15T22:37:28.000Z</time></trkpt>
        <trkpt lat="28.139526" lon="105.795458"><ele>1318.1301</ele><time>2026-08-15T22:37:43.000Z</time></trkpt>
        <trkpt lat="28.139531" lon="105.795456"><ele>1316.7087</ele><time>2026-08-15T22:37:49.000Z</time></trkpt>
        <trkpt lat="28.139552" lon="105.79545"><ele>1311.2778</ele><time>2026-08-15T22:38:09.000Z</time></trkpt>
        <trkpt lat="28.13956" lon="105.795449"><ele>1311.19</ele><time>2026-08-15T22:38:11.000Z</time></trkpt>
        <trkpt lat="28.139565" lon="105.79545"><ele>1310.3529</ele><time>2026-08-15T22:38:13.000Z</time></trkpt>
        <trkpt lat="28.139594" lon="105.79546"><ele>1309.1912</ele><time>2026-08-15T22:38:17.000Z</time></trkpt>
        <trkpt lat="28.139594" lon="105.79546"><ele>1309.8933</ele><time>2026-08-15T22:38:19.000Z</time></trkpt>
        <trkpt lat="28.139594" lon="105.79546"><ele>1309.8735</ele><time>2026-08-15T22:38:21.000Z</time></trkpt>
        <trkpt lat="28.139608" lon="105.795428"><ele>1307.0132</ele><time>2026-08-15T22:38:31.000Z</time></trkpt>
        <trkpt lat="28.139615" lon="105.795407"><ele>1307.203</ele><time>2026-08-15T22:38:33.000Z</time></trkpt>
        <trkpt lat="28.139616" lon="105.795406"><ele>1307.0929</ele><time>2026-08-15T22:38:35.000Z</time></trkpt>
        <trkpt lat="28.139641" lon="105.795398"><ele>1306.156</ele><time>2026-08-15T22:38:41.000Z</time></trkpt>
        <trkpt lat="28.139656" lon="105.795391"><ele>1305.614</ele><time>2026-08-15T22:38:43.000Z</time></trkpt>
        <trkpt lat="28.139665" lon="105.795382"><ele>1304.6938</ele><time>2026-08-15T22:38:45.000Z</time></trkpt>
        <trkpt lat="28.139673" lon="105.795372"><ele>1302.8544</ele><time>2026-08-15T22:38:47.000Z</time></trkpt>
        <trkpt lat="28.13968" lon="105.795357"><ele>1302.3097</ele><time>2026-08-15T22:38:49.000Z</time></trkpt>
        <trkpt lat="28.13968" lon="105.795349"><ele>1301.5323</ele><time>2026-08-15T22:38:51.000Z</time></trkpt>
        <trkpt lat="28.139673" lon="105.795343"><ele>1301.979</ele><time>2026-08-15T22:38:55.000Z</time></trkpt>
        <trkpt lat="28.139657" lon="105.795336"><ele>1301.6152</ele><time>2026-08-15T22:39:05.000Z</time></trkpt>
        <trkpt lat="28.139649" lon="105.795333"><ele>1302.6442</ele><time>2026-08-15T22:39:09.000Z</time></trkpt>
        <trkpt lat="28.139648" lon="105.795335"><ele>1303.3002</ele><time>2026-08-15T22:39:11.000Z</time></trkpt>
        <trkpt lat="28.139672" lon="105.795304"><ele>1299.3876</ele><time>2026-08-15T22:39:57.000Z</time></trkpt>
        <trkpt lat="28.139683" lon="105.795292"><ele>1299.0673</ele><time>2026-08-15T22:39:59.000Z</time></trkpt>
        <trkpt lat="28.139683" lon="105.795291"><ele>1299.65</ele><time>2026-08-15T22:40:01.000Z</time></trkpt>
        <trkpt lat="28.139698" lon="105.795272"><ele>1296.2522</ele><time>2026-08-15T22:40:09.000Z</time></trkpt>
        <trkpt lat="28.139715" lon="105.795252"><ele>1296.3167</ele><time>2026-08-15T22:40:11.000Z</time></trkpt>
        <trkpt lat="28.139715" lon="105.795251"><ele>1296.5001</ele><time>2026-08-15T22:40:13.000Z</time></trkpt>
        <trkpt lat="28.139702" lon="105.795234"><ele>1297.4989</ele><time>2026-08-15T22:41:08.000Z</time></trkpt>
        <trkpt lat="28.139738" lon="105.795188"><ele>1292.6068</ele><time>2026-08-15T22:42:44.000Z</time></trkpt>
        <trkpt lat="28.139733" lon="105.795191"><ele>1292.3416</ele><time>2026-08-15T22:42:59.000Z</time></trkpt>
        <trkpt lat="28.139729" lon="105.795198"><ele>1295.3185</ele><time>2026-08-15T22:43:14.000Z</time></trkpt>
        <trkpt lat="28.139721" lon="105.795228"><ele>1292.699</ele><time>2026-08-15T22:46:00.000Z</time></trkpt>
        <trkpt lat="28.139718" lon="105.795228"><ele>1293.1832</ele><time>2026-08-15T22:46:15.000Z</time></trkpt>
        <trkpt lat="28.139711" lon="105.795227"><ele>1291.5454</ele><time>2026-08-15T22:46:30.000Z</time></trkpt>
        <trkpt lat="28.139688" lon="105.795223"><ele>1288.4021</ele><time>2026-08-15T22:46:45.000Z</time></trkpt>
        <trkpt lat="28.139699" lon="105.7952"><ele>1288.0212</ele><time>2026-08-15T22:47:00.000Z</time></trkpt>
        <trkpt lat="28.139677" lon="105.795186"><ele>1286.8873</ele><time>2026-08-15T22:47:10.000Z</time></trkpt>
        <trkpt lat="28.139677" lon="105.795186"><ele>1286.6885</ele><time>2026-08-15T22:47:12.000Z</time></trkpt>
        <trkpt lat="28.139685" lon="105.795166"><ele>1287.903</ele><time>2026-08-15T22:47:18.000Z</time></trkpt>
        <trkpt lat="28.139698" lon="105.795134"><ele>1289.0278</ele><time>2026-08-15T22:47:20.000Z</time></trkpt>
        <trkpt lat="28.139699" lon="105.795132"><ele>1289.5521</ele><time>2026-08-15T22:47:22.000Z</time></trkpt>
        <trkpt lat="28.139699" lon="105.795131"><ele>1290.2728</ele><time>2026-08-15T22:47:24.000Z</time></trkpt>
        <trkpt lat="28.139694" lon="105.795093"><ele>1286.9669</ele><time>2026-08-15T22:47:37.000Z</time></trkpt>
        <trkpt lat="28.139675" lon="105.795088"><ele>1286.6595</ele><time>2026-08-15T22:47:39.000Z</time></trkpt>
        <trkpt lat="28.139675" lon="105.795088"><ele>1286.4696</ele><time>2026-08-15T22:47:41.000Z</time></trkpt>
        <trkpt lat="28.139673" lon="105.795057"><ele>1289.5543</ele><time>2026-08-15T22:47:49.000Z</time></trkpt>
        <trkpt lat="28.139672" lon="105.795041"><ele>1290.6068</ele><time>2026-08-15T22:47:51.000Z</time></trkpt>
        <trkpt lat="28.139672" lon="105.795041"><ele>1291.6774</ele><time>2026-08-15T22:47:53.000Z</time></trkpt>
        <trkpt lat="28.139685" lon="105.795023"><ele>1292.8969</ele><time>2026-08-15T22:47:59.000Z</time></trkpt>
        <trkpt lat="28.13969" lon="105.795014"><ele>1291.4204</ele><time>2026-08-15T22:48:01.000Z</time></trkpt>
        <trkpt lat="28.139695" lon="105.795007"><ele>1289.913</ele><time>2026-08-15T22:48:03.000Z</time></trkpt>
        <trkpt lat="28.139712" lon="105.794991"><ele>1287.9285</ele><time>2026-08-15T22:48:07.000Z</time></trkpt>
        <trkpt lat="28.139719" lon="105.794988"><ele>1286.3356</ele><time>2026-08-15T22:48:09.000Z</time></trkpt>
        <trkpt lat="28.139732" lon="105.794984"><ele>1285.2493</ele><time>2026-08-15T22:48:11.000Z</time></trkpt>
        <trkpt lat="28.139742" lon="105.79498"><ele>1283.6974</ele><time>2026-08-15T22:48:13.000Z</time></trkpt>
        <trkpt lat="28.139749" lon="105.794975"><ele>1282.1001</ele><time>2026-08-15T22:48:15.000Z</time></trkpt>
        <trkpt lat="28.139767" lon="105.79496"><ele>1281.5215</ele><time>2026-08-15T22:48:19.000Z</time></trkpt>
        <trkpt lat="28.139772" lon="105.794953"><ele>1280.3372</ele><time>2026-08-15T22:48:21.000Z</time></trkpt>
        <trkpt lat="28.139773" lon="105.794944"><ele>1279.287</ele><time>2026-08-15T22:48:23.000Z</time></trkpt>
        <trkpt lat="28.139772" lon="105.794925"><ele>1277.6587</ele><time>2026-08-15T22:48:27.000Z</time></trkpt>
        <trkpt lat="28.139772" lon="105.794918"><ele>1277.3503</ele><time>2026-08-15T22:48:29.000Z</time></trkpt>
        <trkpt lat="28.139779" lon="105.794904"><ele>1276.889</ele><time>2026-08-15T22:48:31.000Z</time></trkpt>
        <trkpt lat="28.139792" lon="105.794891"><ele>1275.0715</ele><time>2026-08-15T22:48:41.000Z</time></trkpt>
        <trkpt lat="28.139802" lon="105.794882"><ele>1275.2395</ele><time>2026-08-15T22:48:43.000Z</time></trkpt>
        <trkpt lat="28.139802" lon="105.794881"><ele>1275.5062</ele><time>2026-08-15T22:48:45.000Z</time></trkpt>
        <trkpt lat="28.139808" lon="105.794858"><ele>1273.9001</ele><time>2026-08-15T22:48:51.000Z</time></trkpt>
        <trkpt lat="28.139813" lon="105.794843"><ele>1274.0858</ele><time>2026-08-15T22:48:53.000Z</time></trkpt>
        <trkpt lat="28.13982" lon="105.794832"><ele>1273.8104</ele><time>2026-08-15T22:48:55.000Z</time></trkpt>
        <trkpt lat="28.13983" lon="105.794817"><ele>1273.4703</ele><time>2026-08-15T22:48:57.000Z</time></trkpt>
        <trkpt lat="28.139835" lon="105.794805"><ele>1273.3496</ele><time>2026-08-15T22:48:59.000Z</time></trkpt>
        <trkpt lat="28.139836" lon="105.794794"><ele>1272.3802</ele><time>2026-08-15T22:49:01.000Z</time></trkpt>
        <trkpt lat="28.139836" lon="105.794775"><ele>1270.2095</ele><time>2026-08-15T22:49:05.000Z</time></trkpt>
        <trkpt lat="28.139837" lon="105.794765"><ele>1270.706</ele><time>2026-08-15T22:49:07.000Z</time></trkpt>
        <trkpt lat="28.13984" lon="105.794753"><ele>1270.7466</ele><time>2026-08-15T22:49:09.000Z</time></trkpt>
        <trkpt lat="28.139844" lon="105.794743"><ele>1271.0801</ele><time>2026-08-15T22:49:11.000Z</time></trkpt>
        <trkpt lat="28.139849" lon="105.794734"><ele>1270.9296</ele><time>2026-08-15T22:49:13.000Z</time></trkpt>
        <trkpt lat="28.139854" lon="105.794721"><ele>1271.058</ele><time>2026-08-15T22:49:15.000Z</time></trkpt>
        <trkpt lat="28.139856" lon="105.794709"><ele>1270.8694</ele><time>2026-08-15T22:49:17.000Z</time></trkpt>
        <trkpt lat="28.139856" lon="105.794699"><ele>1269.6049</ele><time>2026-08-15T22:49:19.000Z</time></trkpt>
        <trkpt lat="28.139852" lon="105.794684"><ele>1268.8317</ele><time>2026-08-15T22:49:23.000Z</time></trkpt>
        <trkpt lat="28.13985" lon="105.794667"><ele>1268.1752</ele><time>2026-08-15T22:49:27.000Z</time></trkpt>
        <trkpt lat="28.139849" lon="105.794664"><ele>1266.7749</ele><time>2026-08-15T22:49:29.000Z</time></trkpt>
        <trkpt lat="28.139869" lon="105.794716"><ele>1263.2037</ele><time>2026-08-15T22:49:43.000Z</time></trkpt>
        <trkpt lat="28.139873" lon="105.794723"><ele>1263.149</ele><time>2026-08-15T22:49:45.000Z</time></trkpt>
        <trkpt lat="28.139877" lon="105.794729"><ele>1263.8225</ele><time>2026-08-15T22:49:47.000Z</time></trkpt>
        <trkpt lat="28.139886" lon="105.794751"><ele>1263.9159</ele><time>2026-08-15T22:49:55.000Z</time></trkpt>
        <trkpt lat="28.139886" lon="105.794753"><ele>1263.307</ele><time>2026-08-15T22:49:57.000Z</time></trkpt>
        <trkpt lat="28.139889" lon="105.794764"><ele>1262.1063</ele><time>2026-08-15T22:50:13.000Z</time></trkpt>
        <trkpt lat="28.139896" lon="105.794787"><ele>1262.4431</ele><time>2026-08-15T22:50:19.000Z</time></trkpt>
        <trkpt lat="28.139896" lon="105.794787"><ele>1261.6796</ele><time>2026-08-15T22:50:21.000Z</time></trkpt>
        <trkpt lat="28.139901" lon="105.794719"><ele>1256.3506</ele><time>2026-08-15T22:50:31.000Z</time></trkpt>
        <trkpt lat="28.139901" lon="105.794719"><ele>1255.8483</ele><time>2026-08-15T22:50:33.000Z</time></trkpt>
        <trkpt lat="28.139901" lon="105.794719"><ele>1254.9504</ele><time>2026-08-15T22:50:35.000Z</time></trkpt>
        <trkpt lat="28.139931" lon="105.794728"><ele>1251.7578</ele><time>2026-08-15T22:50:47.000Z</time></trkpt>
        <trkpt lat="28.139936" lon="105.794727"><ele>1251</ele><time>2026-08-15T22:50:49.000Z</time></trkpt>
        <trkpt lat="28.139939" lon="105.794723"><ele>1250.8939</ele><time>2026-08-15T22:50:51.000Z</time></trkpt>
        <trkpt lat="28.139959" lon="105.794693"><ele>1249.5951</ele><time>2026-08-15T22:50:57.000Z</time></trkpt>
        <trkpt lat="28.139959" lon="105.794693"><ele>1248.7251</ele><time>2026-08-15T22:50:59.000Z</time></trkpt>
        <trkpt lat="28.13996" lon="105.794693"><ele>1247.0913</ele><time>2026-08-15T22:51:01.000Z</time></trkpt>
        <trkpt lat="28.139992" lon="105.794656"><ele>1246.4924</ele><time>2026-08-15T22:51:07.000Z</time></trkpt>
        <trkpt lat="28.139992" lon="105.794656"><ele>1245.5447</ele><time>2026-08-15T22:51:09.000Z</time></trkpt>
        <trkpt lat="28.139992" lon="105.794655"><ele>1245.0486</ele><time>2026-08-15T22:51:11.000Z</time></trkpt>
        <trkpt lat="28.139982" lon="105.794622"><ele>1243.4106</ele><time>2026-08-15T22:51:19.000Z</time></trkpt>
        <trkpt lat="28.139972" lon="105.794593"><ele>1243.0326</ele><time>2026-08-15T22:51:21.000Z</time></trkpt>
        <trkpt lat="28.139971" lon="105.794592"><ele>1242.515</ele><time>2026-08-15T22:51:23.000Z</time></trkpt>
        <trkpt lat="28.139957" lon="105.794582"><ele>1242.5437</ele><time>2026-08-15T22:51:27.000Z</time></trkpt>
        <trkpt lat="28.139934" lon="105.794565"><ele>1241.8767</ele><time>2026-08-15T22:51:29.000Z</time></trkpt>
        <trkpt lat="28.139873" lon="105.794518"><ele>1241.9977</ele><time>2026-08-15T22:51:31.000Z</time></trkpt>
        <trkpt lat="28.13987" lon="105.794513"><ele>1246.2406</ele><time>2026-08-15T22:51:33.000Z</time></trkpt>
        <trkpt lat="28.139869" lon="105.79451"><ele>1250.3793</ele><time>2026-08-15T22:51:35.000Z</time></trkpt>
        <trkpt lat="28.139856" lon="105.794474"><ele>1252.3964</ele><time>2026-08-15T22:51:39.000Z</time></trkpt>
        <trkpt lat="28.139852" lon="105.794452"><ele>1251.2578</ele><time>2026-08-15T22:51:41.000Z</time></trkpt>
        <trkpt lat="28.139851" lon="105.794423"><ele>1253.0546</ele><time>2026-08-15T22:51:43.000Z</time></trkpt>
        <trkpt lat="28.139855" lon="105.794397"><ele>1255.8595</ele><time>2026-08-15T22:51:45.000Z</time></trkpt>
        <trkpt lat="28.13986" lon="105.794373"><ele>1257.0585</ele><time>2026-08-15T22:51:47.000Z</time></trkpt>
        <trkpt lat="28.139867" lon="105.794356"><ele>1257.1259</ele><time>2026-08-15T22:51:49.000Z</time></trkpt>
        <trkpt lat="28.139872" lon="105.794349"><ele>1257.3059</ele><time>2026-08-15T22:51:51.000Z</time></trkpt>
        <trkpt lat="28.139875" lon="105.794342"><ele>1256.732</ele><time>2026-08-15T22:51:57.000Z</time></trkpt>
        <trkpt lat="28.13985" lon="105.794396"><ele>1252.5122</ele><time>2026-08-15T22:52:08.000Z</time></trkpt>
        <trkpt lat="28.13985" lon="105.794396"><ele>1252.5137</ele><time>2026-08-15T22:52:10.000Z</time></trkpt>
        <trkpt lat="28.139849" lon="105.794394"><ele>1252.0902</ele><time>2026-08-15T22:52:12.000Z</time></trkpt>
        <trkpt lat="28.139833" lon="105.794367"><ele>1251.8539</ele><time>2026-08-15T22:52:16.000Z</time></trkpt>
        <trkpt lat="28.139824" lon="105.794356"><ele>1251.8064</ele><time>2026-08-15T22:52:18.000Z</time></trkpt>
        <trkpt lat="28.13981" lon="105.794346"><ele>1250.607</ele><time>2026-08-15T22:52:20.000Z</time></trkpt>
        <trkpt lat="28.139802" lon="105.794344"><ele>1249.7764</ele><time>2026-08-15T22:52:22.000Z</time></trkpt>
        <trkpt lat="28.139795" lon="105.794349"><ele>1248.4166</ele><time>2026-08-15T22:52:24.000Z</time></trkpt>
        <trkpt lat="28.13978" lon="105.794362"><ele>1247.4427</ele><time>2026-08-15T22:52:28.000Z</time></trkpt>
        <trkpt lat="28.139776" lon="105.794367"><ele>1247.379</ele><time>2026-08-15T22:52:30.000Z</time></trkpt>
        <trkpt lat="28.139775" lon="105.794374"><ele>1247.352</ele><time>2026-08-15T22:52:32.000Z</time></trkpt>
        <trkpt lat="28.139782" lon="105.794391"><ele>1246.8337</ele><time>2026-08-15T22:52:38.000Z</time></trkpt>
        <trkpt lat="28.139793" lon="105.794417"><ele>1247.1024</ele><time>2026-08-15T22:52:40.000Z</time></trkpt>
        <trkpt lat="28.139794" lon="105.794417"><ele>1247.1025</ele><time>2026-08-15T22:52:42.000Z</time></trkpt>
        <trkpt lat="28.139799" lon="105.794417"><ele>1247.4347</ele><time>2026-08-15T22:52:48.000Z</time></trkpt>
        <trkpt lat="28.139824" lon="105.794416"><ele>1247.4689</ele><time>2026-08-15T22:52:56.000Z</time></trkpt>
        <trkpt lat="28.139823" lon="105.794385"><ele>1246.6792</ele><time>2026-08-15T22:52:58.000Z</time></trkpt>
        <trkpt lat="28.139823" lon="105.794383"><ele>1245.3843</ele><time>2026-08-15T22:53:00.000Z</time></trkpt>
        <trkpt lat="28.139823" lon="105.794383"><ele>1245.4537</ele><time>2026-08-15T22:53:02.000Z</time></trkpt>
        <trkpt lat="28.139865" lon="105.794361"><ele>1246.2333</ele><time>2026-08-15T22:53:08.000Z</time></trkpt>
        <trkpt lat="28.139865" lon="105.794361"><ele>1246.1298</ele><time>2026-08-15T22:53:10.000Z</time></trkpt>
        <trkpt lat="28.139867" lon="105.794362"><ele>1246.0315</ele><time>2026-08-15T22:53:12.000Z</time></trkpt>
        <trkpt lat="28.139908" lon="105.794382"><ele>1243.7736</ele><time>2026-08-15T22:53:18.000Z</time></trkpt>
        <trkpt lat="28.139918" lon="105.794385"><ele>1242.699</ele><time>2026-08-15T22:53:20.000Z</time></trkpt>
        <trkpt lat="28.139923" lon="105.794389"><ele>1242.4574</ele><time>2026-08-15T22:53:22.000Z</time></trkpt>
        <trkpt lat="28.139932" lon="105.794404"><ele>1242.5275</ele><time>2026-08-15T22:53:28.000Z</time></trkpt>
        <trkpt lat="28.139938" lon="105.794413"><ele>1242.3264</ele><time>2026-08-15T22:53:32.000Z</time></trkpt>
        <trkpt lat="28.139942" lon="105.794415"><ele>1243.1953</ele><time>2026-08-15T22:53:34.000Z</time></trkpt>
        <trkpt lat="28.139974" lon="105.794429"><ele>1242.5828</ele><time>2026-08-15T22:53:40.000Z</time></trkpt>
        <trkpt lat="28.139974" lon="105.794429"><ele>1242.956</ele><time>2026-08-15T22:53:42.000Z</time></trkpt>
        <trkpt lat="28.139975" lon="105.794429"><ele>1244.0682</ele><time>2026-08-15T22:53:44.000Z</time></trkpt>
        <trkpt lat="28.140026" lon="105.794413"><ele>1243.5485</ele><time>2026-08-15T22:53:48.000Z</time></trkpt>
        <trkpt lat="28.140026" lon="105.794413"><ele>1242.5916</ele><time>2026-08-15T22:53:50.000Z</time></trkpt>
        <trkpt lat="28.140027" lon="105.794412"><ele>1241.348</ele><time>2026-08-15T22:53:52.000Z</time></trkpt>
        <trkpt lat="28.140056" lon="105.794386"><ele>1241.4641</ele><time>2026-08-15T22:53:58.000Z</time></trkpt>
        <trkpt lat="28.140071" lon="105.794374"><ele>1241.8175</ele><time>2026-08-15T22:54:00.000Z</time></trkpt>
        <trkpt lat="28.140086" lon="105.794362"><ele>1241.7422</ele><time>2026-08-15T22:54:02.000Z</time></trkpt>
        <trkpt lat="28.140097" lon="105.79435"><ele>1242.2145</ele><time>2026-08-15T22:54:04.000Z</time></trkpt>
        <trkpt lat="28.140111" lon="105.794336"><ele>1241.5265</ele><time>2026-08-15T22:54:06.000Z</time></trkpt>
        <trkpt lat="28.140121" lon="105.794329"><ele>1241.8276</ele><time>2026-08-15T22:54:08.000Z</time></trkpt>
        <trkpt lat="28.14013" lon="105.794326"><ele>1242.2465</ele><time>2026-08-15T22:54:10.000Z</time></trkpt>
        <trkpt lat="28.140138" lon="105.794325"><ele>1242.9707</ele><time>2026-08-15T22:54:12.000Z</time></trkpt>
        <trkpt lat="28.140153" lon="105.794328"><ele>1244.0455</ele><time>2026-08-15T22:54:18.000Z</time></trkpt>
        <trkpt lat="28.140154" lon="105.794333"><ele>1242.838</ele><time>2026-08-15T22:54:22.000Z</time></trkpt>
        <trkpt lat="28.140162" lon="105.794378"><ele>1240.3025</ele><time>2026-08-15T22:54:48.000Z</time></trkpt>
        <trkpt lat="28.140162" lon="105.794378"><ele>1238.976</ele><time>2026-08-15T22:54:50.000Z</time></trkpt>
        <trkpt lat="28.140161" lon="105.794379"><ele>1238.3232</ele><time>2026-08-15T22:54:52.000Z</time></trkpt>
        <trkpt lat="28.14016" lon="105.794412"><ele>1238.47</ele><time>2026-08-15T22:54:59.000Z</time></trkpt>
        <trkpt lat="28.140162" lon="105.794417"><ele>1238.0326</ele><time>2026-08-15T22:55:01.000Z</time></trkpt>
        <trkpt lat="28.140173" lon="105.794438"><ele>1237.046</ele><time>2026-08-15T22:55:03.000Z</time></trkpt>
        <trkpt lat="28.140177" lon="105.79444"><ele>1234.272</ele><time>2026-08-15T22:55:09.000Z</time></trkpt>
        <trkpt lat="28.140182" lon="105.794437"><ele>1232.2565</ele><time>2026-08-15T22:55:11.000Z</time></trkpt>
        <trkpt lat="28.140203" lon="105.794428"><ele>1229.367</ele><time>2026-08-15T22:55:17.000Z</time></trkpt>
        <trkpt lat="28.140203" lon="105.794408"><ele>1227.2539</ele><time>2026-08-15T22:55:25.000Z</time></trkpt>
        <trkpt lat="28.140204" lon="105.794407"><ele>1226.6929</ele><time>2026-08-15T22:55:27.000Z</time></trkpt>
        <trkpt lat="28.14022" lon="105.794399"><ele>1226.8988</ele><time>2026-08-15T22:55:31.000Z</time></trkpt>
        <trkpt lat="28.140248" lon="105.794386"><ele>1226.2196</ele><time>2026-08-15T22:55:35.000Z</time></trkpt>
        <trkpt lat="28.140248" lon="105.794386"><ele>1225.7263</ele><time>2026-08-15T22:55:37.000Z</time></trkpt>
        <trkpt lat="28.140248" lon="105.794386"><ele>1224.8876</ele><time>2026-08-15T22:55:39.000Z</time></trkpt>
        <trkpt lat="28.140276" lon="105.79437"><ele>1222.7726</ele><time>2026-08-15T22:55:49.000Z</time></trkpt>
        <trkpt lat="28.140297" lon="105.794358"><ele>1223.396</ele><time>2026-08-15T22:55:51.000Z</time></trkpt>
        <trkpt lat="28.140298" lon="105.794358"><ele>1224.3528</ele><time>2026-08-15T22:55:53.000Z</time></trkpt>
        <trkpt lat="28.140305" lon="105.79436"><ele>1225.4703</ele><time>2026-08-15T22:55:57.000Z</time></trkpt>
        <trkpt lat="28.140333" lon="105.794372"><ele>1225.687</ele><time>2026-08-15T22:56:01.000Z</time></trkpt>
        <trkpt lat="28.14035" lon="105.794386"><ele>1226.5901</ele><time>2026-08-15T22:56:03.000Z</time></trkpt>
        <trkpt lat="28.140368" lon="105.794406"><ele>1226.8146</ele><time>2026-08-15T22:56:05.000Z</time></trkpt>
        <trkpt lat="28.140383" lon="105.79443"><ele>1227.2167</ele><time>2026-08-15T22:56:07.000Z</time></trkpt>
        <trkpt lat="28.140396" lon="105.794452"><ele>1226.5028</ele><time>2026-08-15T22:56:09.000Z</time></trkpt>
        <trkpt lat="28.140409" lon="105.794473"><ele>1225.6577</ele><time>2026-08-15T22:56:11.000Z</time></trkpt>
        <trkpt lat="28.140425" lon="105.794494"><ele>1227.1608</ele><time>2026-08-15T22:56:13.000Z</time></trkpt>
        <trkpt lat="28.140439" lon="105.794506"><ele>1226.1145</ele><time>2026-08-15T22:56:15.000Z</time></trkpt>
        <trkpt lat="28.140454" lon="105.794517"><ele>1226.1068</ele><time>2026-08-15T22:56:17.000Z</time></trkpt>
        <trkpt lat="28.140472" lon="105.794529"><ele>1226.0627</ele><time>2026-08-15T22:56:19.000Z</time></trkpt>
        <trkpt lat="28.140489" lon="105.794537"><ele>1226.2465</ele><time>2026-08-15T22:56:21.000Z</time></trkpt>
        <trkpt lat="28.140505" lon="105.794542"><ele>1226.7389</ele><time>2026-08-15T22:56:23.000Z</time></trkpt>
        <trkpt lat="28.140525" lon="105.794545"><ele>1226.7689</ele><time>2026-08-15T22:56:25.000Z</time></trkpt>
        <trkpt lat="28.140544" lon="105.794546"><ele>1226.0138</ele><time>2026-08-15T22:56:27.000Z</time></trkpt>
        <trkpt lat="28.140566" lon="105.794547"><ele>1225.5472</ele><time>2026-08-15T22:56:29.000Z</time></trkpt>
        <trkpt lat="28.140591" lon="105.79455"><ele>1226.8085</ele><time>2026-08-15T22:56:31.000Z</time></trkpt>
        <trkpt lat="28.140612" lon="105.794554"><ele>1226.5459</ele><time>2026-08-15T22:56:33.000Z</time></trkpt>
        <trkpt lat="28.140633" lon="105.794556"><ele>1226.5858</ele><time>2026-08-15T22:56:35.000Z</time></trkpt>
        <trkpt lat="28.140646" lon="105.794554"><ele>1225.5272</ele><time>2026-08-15T22:56:37.000Z</time></trkpt>
        <trkpt lat="28.140656" lon="105.79455"><ele>1225.588</ele><time>2026-08-15T22:56:39.000Z</time></trkpt>
        <trkpt lat="28.14066" lon="105.794543"><ele>1225.6257</ele><time>2026-08-15T22:56:41.000Z</time></trkpt>
        <trkpt lat="28.140668" lon="105.794522"><ele>1225.0548</ele><time>2026-08-15T22:56:45.000Z</time></trkpt>
        <trkpt lat="28.140672" lon="105.794509"><ele>1224.6193</ele><time>2026-08-15T22:56:47.000Z</time></trkpt>
        <trkpt lat="28.140676" lon="105.794495"><ele>1224.2769</ele><time>2026-08-15T22:56:49.000Z</time></trkpt>
        <trkpt lat="28.140679" lon="105.794484"><ele>1224.5913</ele><time>2026-08-15T22:56:51.000Z</time></trkpt>
        <trkpt lat="28.140684" lon="105.794473"><ele>1225.159</ele><time>2026-08-15T22:56:53.000Z</time></trkpt>
        <trkpt lat="28.14069" lon="105.794463"><ele>1225.6656</ele><time>2026-08-15T22:56:57.000Z</time></trkpt>
        <trkpt lat="28.140699" lon="105.794462"><ele>1225.2395</ele><time>2026-08-15T22:57:01.000Z</time></trkpt>
        <trkpt lat="28.140686" lon="105.794516"><ele>1233.5994</ele><time>2026-08-15T23:02:22.000Z</time></trkpt>
        <trkpt lat="28.140649" lon="105.794405"><ele>1235.7227</ele><time>2026-08-15T23:02:24.000Z</time></trkpt>
        <trkpt lat="28.140704" lon="105.794447"><ele>1236.7281</ele><time>2026-08-15T23:05:13.000Z</time></trkpt>
        <trkpt lat="28.140742" lon="105.79438"><ele>1239.3541</ele><time>2026-08-15T23:19:47.000Z</time></trkpt>
        <trkpt lat="28.140662" lon="105.794503"><ele>1229.9572</ele><time>2026-08-15T23:21:33.000Z</time></trkpt>
        <trkpt lat="28.140661" lon="105.794503"><ele>1228.8562</ele><time>2026-08-15T23:21:35.000Z</time></trkpt>
        <trkpt lat="28.140686" lon="105.794502"><ele>1227.3179</ele><time>2026-08-15T23:21:37.000Z</time></trkpt>
        <trkpt lat="28.140698" lon="105.794503"><ele>1224.1427</ele><time>2026-08-15T23:21:43.000Z</time></trkpt>
        <trkpt lat="28.140709" lon="105.794506"><ele>1223.9338</ele><time>2026-08-15T23:21:45.000Z</time></trkpt>
        <trkpt lat="28.140721" lon="105.794513"><ele>1224.0295</ele><time>2026-08-15T23:21:47.000Z</time></trkpt>
        <trkpt lat="28.140729" lon="105.794521"><ele>1225.0804</ele><time>2026-08-15T23:21:49.000Z</time></trkpt>
        <trkpt lat="28.140732" lon="105.79453"><ele>1226.2039</ele><time>2026-08-15T23:21:51.000Z</time></trkpt>
        <trkpt lat="28.140735" lon="105.794551"><ele>1226.5829</ele><time>2026-08-15T23:21:55.000Z</time></trkpt>
        <trkpt lat="28.140733" lon="105.794553"><ele>1224.5833</ele><time>2026-08-15T23:21:57.000Z</time></trkpt>
        <trkpt lat="28.140725" lon="105.79457"><ele>1224.7682</ele><time>2026-08-15T23:21:59.000Z</time></trkpt>
        <trkpt lat="28.140717" lon="105.794594"><ele>1225.3247</ele><time>2026-08-15T23:22:07.000Z</time></trkpt>
        <trkpt lat="28.140714" lon="105.794614"><ele>1225.7023</ele><time>2026-08-15T23:22:09.000Z</time></trkpt>
        <trkpt lat="28.14071" lon="105.794636"><ele>1225.9663</ele><time>2026-08-15T23:22:11.000Z</time></trkpt>
        <trkpt lat="28.140708" lon="105.794662"><ele>1226.125</ele><time>2026-08-15T23:22:13.000Z</time></trkpt>
        <trkpt lat="28.140709" lon="105.794688"><ele>1226.5634</ele><time>2026-08-15T23:22:15.000Z</time></trkpt>
        <trkpt lat="28.140711" lon="105.794713"><ele>1226.9293</ele><time>2026-08-15T23:22:17.000Z</time></trkpt>
        <trkpt lat="28.140711" lon="105.794735"><ele>1227.8318</ele><time>2026-08-15T23:22:19.000Z</time></trkpt>
        <trkpt lat="28.140711" lon="105.794752"><ele>1228.2478</ele><time>2026-08-15T23:22:21.000Z</time></trkpt>
        <trkpt lat="28.140715" lon="105.794762"><ele>1227.8815</ele><time>2026-08-15T23:22:23.000Z</time></trkpt>
        <trkpt lat="28.140717" lon="105.794771"><ele>1228.1345</ele><time>2026-08-15T23:22:25.000Z</time></trkpt>
        <trkpt lat="28.140719" lon="105.794791"><ele>1228.8083</ele><time>2026-08-15T23:22:29.000Z</time></trkpt>
        <trkpt lat="28.140718" lon="105.794797"><ele>1229.0774</ele><time>2026-08-15T23:22:35.000Z</time></trkpt>
        <trkpt lat="28.140715" lon="105.794813"><ele>1228.8247</ele><time>2026-08-15T23:22:37.000Z</time></trkpt>
        <trkpt lat="28.140714" lon="105.794836"><ele>1228.2756</ele><time>2026-08-15T23:22:39.000Z</time></trkpt>
        <trkpt lat="28.140713" lon="105.794863"><ele>1228.1232</ele><time>2026-08-15T23:22:41.000Z</time></trkpt>
        <trkpt lat="28.140711" lon="105.794893"><ele>1228.0017</ele><time>2026-08-15T23:22:43.000Z</time></trkpt>
        <trkpt lat="28.140707" lon="105.794921"><ele>1228.2347</ele><time>2026-08-15T23:22:45.000Z</time></trkpt>
        <trkpt lat="28.140702" lon="105.794947"><ele>1227.1923</ele><time>2026-08-15T23:22:47.000Z</time></trkpt>
        <trkpt lat="28.140698" lon="105.794973"><ele>1226.7391</ele><time>2026-08-15T23:22:49.000Z</time></trkpt>
        <trkpt lat="28.140696" lon="105.794999"><ele>1227.3483</ele><time>2026-08-15T23:22:51.000Z</time></trkpt>
        <trkpt lat="28.140697" lon="105.795023"><ele>1227.2046</ele><time>2026-08-15T23:22:53.000Z</time></trkpt>
        <trkpt lat="28.140697" lon="105.795045"><ele>1225.822</ele><time>2026-08-15T23:22:55.000Z</time></trkpt>
        <trkpt lat="28.140695" lon="105.795057"><ele>1225.7885</ele><time>2026-08-15T23:22:57.000Z</time></trkpt>
        <trkpt lat="28.140695" lon="105.795061"><ele>1226.2197</ele><time>2026-08-15T23:22:59.000Z</time></trkpt>
        <trkpt lat="28.140697" lon="105.795001"><ele>1225.7424</ele><time>2026-08-15T23:23:05.000Z</time></trkpt>
        <trkpt lat="28.140699" lon="105.794972"><ele>1226.1393</ele><time>2026-08-15T23:23:07.000Z</time></trkpt>
        <trkpt lat="28.140705" lon="105.794937"><ele>1226.7455</ele><time>2026-08-15T23:23:09.000Z</time></trkpt>
        <trkpt lat="28.140711" lon="105.794901"><ele>1225.7345</ele><time>2026-08-15T23:23:11.000Z</time></trkpt>
        <trkpt lat="28.140715" lon="105.794867"><ele>1224.9397</ele><time>2026-08-15T23:23:13.000Z</time></trkpt>
        <trkpt lat="28.140721" lon="105.794835"><ele>1224.1666</ele><time>2026-08-15T23:23:15.000Z</time></trkpt>
        <trkpt lat="28.140729" lon="105.794804"><ele>1224.5345</ele><time>2026-08-15T23:23:17.000Z</time></trkpt>
        <trkpt lat="28.140738" lon="105.794775"><ele>1224.4174</ele><time>2026-08-15T23:23:19.000Z</time></trkpt>
        <trkpt lat="28.140748" lon="105.79475"><ele>1224.6907</ele><time>2026-08-15T23:23:21.000Z</time></trkpt>
        <trkpt lat="28.140753" lon="105.79473"><ele>1224.642</ele><time>2026-08-15T23:23:23.000Z</time></trkpt>
        <trkpt lat="28.140751" lon="105.794722"><ele>1224.739</ele><time>2026-08-15T23:23:25.000Z</time></trkpt>
        <trkpt lat="28.140753" lon="105.794718"><ele>1223.7488</ele><time>2026-08-15T23:23:27.000Z</time></trkpt>
        <trkpt lat="28.140713" lon="105.794783"><ele>1227.6757</ele><time>2026-08-15T23:23:35.000Z</time></trkpt>
        <trkpt lat="28.140713" lon="105.794783"><ele>1228.3755</ele><time>2026-08-15T23:23:37.000Z</time></trkpt>
        <trkpt lat="28.140713" lon="105.794788"><ele>1228.1597</ele><time>2026-08-15T23:23:39.000Z</time></trkpt>
        <trkpt lat="28.140704" lon="105.794854"><ele>1227.4497</ele><time>2026-08-15T23:23:43.000Z</time></trkpt>
        <trkpt lat="28.140699" lon="105.794901"><ele>1227.772</ele><time>2026-08-15T23:23:45.000Z</time></trkpt>
        <trkpt lat="28.140693" lon="105.794947"><ele>1227.7098</ele><time>2026-08-15T23:23:47.000Z</time></trkpt>
        <trkpt lat="28.140688" lon="105.794988"><ele>1227.269</ele><time>2026-08-15T23:23:49.000Z</time></trkpt>
        <trkpt lat="28.140684" lon="105.795021"><ele>1226.8397</ele><time>2026-08-15T23:23:51.000Z</time></trkpt>
        <trkpt lat="28.140684" lon="105.79505"><ele>1226.3397</ele><time>2026-08-15T23:23:53.000Z</time></trkpt>
        <trkpt lat="28.140686" lon="105.795075"><ele>1226.4529</ele><time>2026-08-15T23:23:55.000Z</time></trkpt>
        <trkpt lat="28.14069" lon="105.795097"><ele>1226.6515</ele><time>2026-08-15T23:23:57.000Z</time></trkpt>
        <trkpt lat="28.140697" lon="105.795122"><ele>1226.0215</ele><time>2026-08-15T23:23:59.000Z</time></trkpt>
        <trkpt lat="28.140704" lon="105.795148"><ele>1225.0479</ele><time>2026-08-15T23:24:01.000Z</time></trkpt>
        <trkpt lat="28.140712" lon="105.795174"><ele>1224.6886</ele><time>2026-08-15T23:24:03.000Z</time></trkpt>
        <trkpt lat="28.140723" lon="105.795196"><ele>1223.8787</ele><time>2026-08-15T23:24:05.000Z</time></trkpt>
        <trkpt lat="28.140735" lon="105.795219"><ele>1223.068</ele><time>2026-08-15T23:24:07.000Z</time></trkpt>
        <trkpt lat="28.140749" lon="105.795241"><ele>1222.6733</ele><time>2026-08-15T23:24:09.000Z</time></trkpt>
        <trkpt lat="28.140761" lon="105.795264"><ele>1222.2247</ele><time>2026-08-15T23:24:11.000Z</time></trkpt>
        <trkpt lat="28.140772" lon="105.795287"><ele>1222.5161</ele><time>2026-08-15T23:24:13.000Z</time></trkpt>
        <trkpt lat="28.14078" lon="105.795307"><ele>1222.3302</ele><time>2026-08-15T23:24:15.000Z</time></trkpt>
        <trkpt lat="28.140782" lon="105.795321"><ele>1222.3022</ele><time>2026-08-15T23:24:17.000Z</time></trkpt>
        <trkpt lat="28.140783" lon="105.79533"><ele>1222.584</ele><time>2026-08-15T23:24:19.000Z</time></trkpt>
        <trkpt lat="28.140784" lon="105.795341"><ele>1223.4037</ele><time>2026-08-15T23:24:21.000Z</time></trkpt>
        <trkpt lat="28.140787" lon="105.795363"><ele>1224.7836</ele><time>2026-08-15T23:24:23.000Z</time></trkpt>
        <trkpt lat="28.140794" lon="105.795389"><ele>1226.2017</ele><time>2026-08-15T23:24:25.000Z</time></trkpt>
        <trkpt lat="28.140802" lon="105.79541"><ele>1225.3884</ele><time>2026-08-15T23:24:27.000Z</time></trkpt>
        <trkpt lat="28.140812" lon="105.795431"><ele>1224.837</ele><time>2026-08-15T23:24:29.000Z</time></trkpt>
        <trkpt lat="28.140824" lon="105.795452"><ele>1224.1111</ele><time>2026-08-15T23:24:31.000Z</time></trkpt>
        <trkpt lat="28.140837" lon="105.795478"><ele>1224.9617</ele><time>2026-08-15T23:24:33.000Z</time></trkpt>
        <trkpt lat="28.140847" lon="105.795505"><ele>1224.9689</ele><time>2026-08-15T23:24:35.000Z</time></trkpt>
        <trkpt lat="28.140852" lon="105.795533"><ele>1224.3256</ele><time>2026-08-15T23:24:37.000Z</time></trkpt>
        <trkpt lat="28.140855" lon="105.795563"><ele>1222.8916</ele><time>2026-08-15T23:24:39.000Z</time></trkpt>
        <trkpt lat="28.140856" lon="105.795594"><ele>1222.0991</ele><time>2026-08-15T23:24:41.000Z</time></trkpt>
        <trkpt lat="28.140858" lon="105.795624"><ele>1222.1937</ele><time>2026-08-15T23:24:43.000Z</time></trkpt>
        <trkpt lat="28.140862" lon="105.795654"><ele>1221.8383</ele><time>2026-08-15T23:24:45.000Z</time></trkpt>
        <trkpt lat="28.140868" lon="105.795683"><ele>1221.9553</ele><time>2026-08-15T23:24:47.000Z</time></trkpt>
        <trkpt lat="28.140874" lon="105.795706"><ele>1220.9935</ele><time>2026-08-15T23:24:49.000Z</time></trkpt>
        <trkpt lat="28.14088" lon="105.795728"><ele>1221.2516</ele><time>2026-08-15T23:24:51.000Z</time></trkpt>
        <trkpt lat="28.140887" lon="105.795752"><ele>1221.9412</ele><time>2026-08-15T23:24:53.000Z</time></trkpt>
        <trkpt lat="28.140895" lon="105.795774"><ele>1221.4265</ele><time>2026-08-15T23:24:55.000Z</time></trkpt>
        <trkpt lat="28.140904" lon="105.7958"><ele>1221.4685</ele><time>2026-08-15T23:24:57.000Z</time></trkpt>
        <trkpt lat="28.14091" lon="105.795826"><ele>1221.848</ele><time>2026-08-15T23:24:59.000Z</time></trkpt>
        <trkpt lat="28.140916" lon="105.795851"><ele>1221.8938</ele><time>2026-08-15T23:25:01.000Z</time></trkpt>
        <trkpt lat="28.140925" lon="105.795873"><ele>1222.1143</ele><time>2026-08-15T23:25:03.000Z</time></trkpt>
        <trkpt lat="28.140936" lon="105.795895"><ele>1222.7688</ele><time>2026-08-15T23:25:05.000Z</time></trkpt>
        <trkpt lat="28.140948" lon="105.795916"><ele>1223.0453</ele><time>2026-08-15T23:25:07.000Z</time></trkpt>
        <trkpt lat="28.140962" lon="105.795936"><ele>1223.5933</ele><time>2026-08-15T23:25:09.000Z</time></trkpt>
        <trkpt lat="28.140975" lon="105.795954"><ele>1223.1182</ele><time>2026-08-15T23:25:11.000Z</time></trkpt>
        <trkpt lat="28.140987" lon="105.795976"><ele>1223.116</ele><time>2026-08-15T23:25:13.000Z</time></trkpt>
        <trkpt lat="28.140997" lon="105.795996"><ele>1222.8212</ele><time>2026-08-15T23:25:15.000Z</time></trkpt>
        <trkpt lat="28.141006" lon="105.796023"><ele>1222.2915</ele><time>2026-08-15T23:25:17.000Z</time></trkpt>
        <trkpt lat="28.141016" lon="105.79605"><ele>1222.1632</ele><time>2026-08-15T23:25:19.000Z</time></trkpt>
        <trkpt lat="28.141027" lon="105.79607"><ele>1222.8479</ele><time>2026-08-15T23:25:21.000Z</time></trkpt>
        <trkpt lat="28.14104" lon="105.796088"><ele>1223.1528</ele><time>2026-08-15T23:25:23.000Z</time></trkpt>
        <trkpt lat="28.141053" lon="105.796105"><ele>1222.7965</ele><time>2026-08-15T23:25:25.000Z</time></trkpt>
        <trkpt lat="28.141068" lon="105.796123"><ele>1222.4341</ele><time>2026-08-15T23:25:27.000Z</time></trkpt>
        <trkpt lat="28.141082" lon="105.796137"><ele>1222.6257</ele><time>2026-08-15T23:25:29.000Z</time></trkpt>
        <trkpt lat="28.141098" lon="105.796154"><ele>1222.081</ele><time>2026-08-15T23:25:31.000Z</time></trkpt>
        <trkpt lat="28.141111" lon="105.796171"><ele>1221.6697</ele><time>2026-08-15T23:25:33.000Z</time></trkpt>
        <trkpt lat="28.141121" lon="105.79619"><ele>1222.23</ele><time>2026-08-15T23:25:35.000Z</time></trkpt>
        <trkpt lat="28.141127" lon="105.79621"><ele>1221.8907</ele><time>2026-08-15T23:25:37.000Z</time></trkpt>
        <trkpt lat="28.141123" lon="105.796221"><ele>1221.6252</ele><time>2026-08-15T23:25:39.000Z</time></trkpt>
        <trkpt lat="28.141116" lon="105.796231"><ele>1219.0309</ele><time>2026-08-15T23:25:41.000Z</time></trkpt>
        <trkpt lat="28.141104" lon="105.796247"><ele>1218.4312</ele><time>2026-08-15T23:25:43.000Z</time></trkpt>
        <trkpt lat="28.141092" lon="105.796263"><ele>1217.4103</ele><time>2026-08-15T23:25:45.000Z</time></trkpt>
        <trkpt lat="28.14108" lon="105.796283"><ele>1218.4076</ele><time>2026-08-15T23:25:47.000Z</time></trkpt>
        <trkpt lat="28.141067" lon="105.796311"><ele>1217.2924</ele><time>2026-08-15T23:25:49.000Z</time></trkpt>
        <trkpt lat="28.141055" lon="105.796346"><ele>1217.4226</ele><time>2026-08-15T23:25:51.000Z</time></trkpt>
        <trkpt lat="28.141046" lon="105.796385"><ele>1217.6226</ele><time>2026-08-15T23:25:53.000Z</time></trkpt>
        <trkpt lat="28.141041" lon="105.796421"><ele>1217.1567</ele><time>2026-08-15T23:25:55.000Z</time></trkpt>
        <trkpt lat="28.141035" lon="105.796454"><ele>1217.2744</ele><time>2026-08-15T23:25:57.000Z</time></trkpt>
        <trkpt lat="28.141026" lon="105.796481"><ele>1216.8357</ele><time>2026-08-15T23:25:59.000Z</time></trkpt>
        <trkpt lat="28.14102" lon="105.796507"><ele>1217.9177</ele><time>2026-08-15T23:26:01.000Z</time></trkpt>
        <trkpt lat="28.141019" lon="105.796533"><ele>1216.3853</ele><time>2026-08-15T23:26:03.000Z</time></trkpt>
        <trkpt lat="28.141023" lon="105.796558"><ele>1216.2833</ele><time>2026-08-15T23:26:05.000Z</time></trkpt>
        <trkpt lat="28.141032" lon="105.796584"><ele>1216.0208</ele><time>2026-08-15T23:26:07.000Z</time></trkpt>
        <trkpt lat="28.141042" lon="105.796608"><ele>1216.4353</ele><time>2026-08-15T23:26:09.000Z</time></trkpt>
        <trkpt lat="28.141053" lon="105.796637"><ele>1216.8778</ele><time>2026-08-15T23:26:11.000Z</time></trkpt>
        <trkpt lat="28.141066" lon="105.796668"><ele>1215.4211</ele><time>2026-08-15T23:26:13.000Z</time></trkpt>
        <trkpt lat="28.141079" lon="105.7967"><ele>1215.1764</ele><time>2026-08-15T23:26:15.000Z</time></trkpt>
        <trkpt lat="28.141093" lon="105.796734"><ele>1215.0344</ele><time>2026-08-15T23:26:17.000Z</time></trkpt>
        <trkpt lat="28.141103" lon="105.796765"><ele>1215.8895</ele><time>2026-08-15T23:26:19.000Z</time></trkpt>
        <trkpt lat="28.141112" lon="105.796794"><ele>1215.1132</ele><time>2026-08-15T23:26:21.000Z</time></trkpt>
        <trkpt lat="28.14112" lon="105.796821"><ele>1214.1094</ele><time>2026-08-15T23:26:23.000Z</time></trkpt>
        <trkpt lat="28.141127" lon="105.796845"><ele>1213.5645</ele><time>2026-08-15T23:26:25.000Z</time></trkpt>
        <trkpt lat="28.141135" lon="105.796871"><ele>1213.6543</ele><time>2026-08-15T23:26:27.000Z</time></trkpt>
        <trkpt lat="28.141142" lon="105.796896"><ele>1213.2881</ele><time>2026-08-15T23:26:29.000Z</time></trkpt>
        <trkpt lat="28.141151" lon="105.796923"><ele>1213.3041</ele><time>2026-08-15T23:26:31.000Z</time></trkpt>
        <trkpt lat="28.141162" lon="105.796948"><ele>1214.4849</ele><time>2026-08-15T23:26:33.000Z</time></trkpt>
        <trkpt lat="28.141176" lon="105.796975"><ele>1214.3448</ele><time>2026-08-15T23:26:35.000Z</time></trkpt>
        <trkpt lat="28.141192" lon="105.797003"><ele>1214.957</ele><time>2026-08-15T23:26:37.000Z</time></trkpt>
        <trkpt lat="28.141209" lon="105.797031"><ele>1215.7825</ele><time>2026-08-15T23:26:39.000Z</time></trkpt>
        <trkpt lat="28.141227" lon="105.797061"><ele>1215.6436</ele><time>2026-08-15T23:26:41.000Z</time></trkpt>
        <trkpt lat="28.141242" lon="105.797095"><ele>1215.564</ele><time>2026-08-15T23:26:43.000Z</time></trkpt>
        <trkpt lat="28.141254" lon="105.797132"><ele>1217.0266</ele><time>2026-08-15T23:26:45.000Z</time></trkpt>
        <trkpt lat="28.141262" lon="105.797168"><ele>1216.2716</ele><time>2026-08-15T23:26:47.000Z</time></trkpt>
        <trkpt lat="28.141266" lon="105.797203"><ele>1214.9071</ele><time>2026-08-15T23:26:49.000Z</time></trkpt>
        <trkpt lat="28.141271" lon="105.79724"><ele>1214.9928</ele><time>2026-08-15T23:26:51.000Z</time></trkpt>
        <trkpt lat="28.141271" lon="105.797275"><ele>1213.9025</ele><time>2026-08-15T23:26:53.000Z</time></trkpt>
        <trkpt lat="28.141267" lon="105.797309"><ele>1214.3862</ele><time>2026-08-15T23:26:55.000Z</time></trkpt>
        <trkpt lat="28.141262" lon="105.797333"><ele>1212.9503</ele><time>2026-08-15T23:26:57.000Z</time></trkpt>
        <trkpt lat="28.141259" lon="105.797359"><ele>1212.6512</ele><time>2026-08-15T23:26:59.000Z</time></trkpt>
        <trkpt lat="28.141258" lon="105.797387"><ele>1212.1614</ele><time>2026-08-15T23:27:01.000Z</time></trkpt>
        <trkpt lat="28.141253" lon="105.797414"><ele>1211.8113</ele><time>2026-08-15T23:27:03.000Z</time></trkpt>
        <trkpt lat="28.141247" lon="105.797443"><ele>1212.1147</ele><time>2026-08-15T23:27:05.000Z</time></trkpt>
        <trkpt lat="28.14124" lon="105.797478"><ele>1213.1857</ele><time>2026-08-15T23:27:07.000Z</time></trkpt>
        <trkpt lat="28.141237" lon="105.797511"><ele>1212.2522</ele><time>2026-08-15T23:27:09.000Z</time></trkpt>
        <trkpt lat="28.141236" lon="105.79755"><ele>1212.057</ele><time>2026-08-15T23:27:11.000Z</time></trkpt>
        <trkpt lat="28.141239" lon="105.797592"><ele>1212.3287</ele><time>2026-08-15T23:27:13.000Z</time></trkpt>
        <trkpt lat="28.141243" lon="105.797632"><ele>1211.9044</ele><time>2026-08-15T23:27:15.000Z</time></trkpt>
        <trkpt lat="28.14125" lon="105.797671"><ele>1211.1819</ele><time>2026-08-15T23:27:17.000Z</time></trkpt>
        <trkpt lat="28.141259" lon="105.797707"><ele>1211.2134</ele><time>2026-08-15T23:27:19.000Z</time></trkpt>
        <trkpt lat="28.141268" lon="105.797744"><ele>1210.7999</ele><time>2026-08-15T23:27:21.000Z</time></trkpt>
        <trkpt lat="28.141278" lon="105.797777"><ele>1210.4613</ele><time>2026-08-15T23:27:23.000Z</time></trkpt>
        <trkpt lat="28.141289" lon="105.797809"><ele>1210.8624</ele><time>2026-08-15T23:27:25.000Z</time></trkpt>
        <trkpt lat="28.141301" lon="105.797839"><ele>1211.5907</ele><time>2026-08-15T23:27:27.000Z</time></trkpt>
        <trkpt lat="28.141314" lon="105.797867"><ele>1210.6133</ele><time>2026-08-15T23:27:29.000Z</time></trkpt>
        <trkpt lat="28.141322" lon="105.797897"><ele>1210.4199</ele><time>2026-08-15T23:27:31.000Z</time></trkpt>
        <trkpt lat="28.141326" lon="105.797926"><ele>1210.3372</ele><time>2026-08-15T23:27:33.000Z</time></trkpt>
        <trkpt lat="28.141326" lon="105.797957"><ele>1208.4733</ele><time>2026-08-15T23:27:35.000Z</time></trkpt>
        <trkpt lat="28.141323" lon="105.79799"><ele>1207.083</ele><time>2026-08-15T23:27:37.000Z</time></trkpt>
        <trkpt lat="28.141319" lon="105.798025"><ele>1207.1038</ele><time>2026-08-15T23:27:39.000Z</time></trkpt>
        <trkpt lat="28.141316" lon="105.798059"><ele>1207.1805</ele><time>2026-08-15T23:27:41.000Z</time></trkpt>
        <trkpt lat="28.141316" lon="105.798092"><ele>1206.7473</ele><time>2026-08-15T23:27:43.000Z</time></trkpt>
        <trkpt lat="28.141318" lon="105.798118"><ele>1207.0798</ele><time>2026-08-15T23:27:45.000Z</time></trkpt>
        <trkpt lat="28.141322" lon="105.798144"><ele>1205.7972</ele><time>2026-08-15T23:27:47.000Z</time></trkpt>
        <trkpt lat="28.141327" lon="105.798168"><ele>1205.3447</ele><time>2026-08-15T23:27:49.000Z</time></trkpt>
        <trkpt lat="28.14133" lon="105.798191"><ele>1205.085</ele><time>2026-08-15T23:27:51.000Z</time></trkpt>
        <trkpt lat="28.141334" lon="105.798215"><ele>1205.1094</ele><time>2026-08-15T23:27:53.000Z</time></trkpt>
        <trkpt lat="28.141339" lon="105.79824"><ele>1205.7703</ele><time>2026-08-15T23:27:55.000Z</time></trkpt>
        <trkpt lat="28.141346" lon="105.798268"><ele>1205.57</ele><time>2026-08-15T23:27:57.000Z</time></trkpt>
        <trkpt lat="28.141355" lon="105.798297"><ele>1204.291</ele><time>2026-08-15T23:27:59.000Z</time></trkpt>
        <trkpt lat="28.141367" lon="105.798324"><ele>1203.7104</ele><time>2026-08-15T23:28:01.000Z</time></trkpt>
        <trkpt lat="28.14138" lon="105.798351"><ele>1203.026</ele><time>2026-08-15T23:28:03.000Z</time></trkpt>
        <trkpt lat="28.141393" lon="105.798377"><ele>1202.9369</ele><time>2026-08-15T23:28:05.000Z</time></trkpt>
        <trkpt lat="28.141407" lon="105.798404"><ele>1202.3226</ele><time>2026-08-15T23:28:07.000Z</time></trkpt>
        <trkpt lat="28.141423" lon="105.798431"><ele>1201.9949</ele><time>2026-08-15T23:28:09.000Z</time></trkpt>
        <trkpt lat="28.141437" lon="105.798455"><ele>1201.6957</ele><time>2026-08-15T23:28:11.000Z</time></trkpt>
        <trkpt lat="28.141452" lon="105.798482"><ele>1201.719</ele><time>2026-08-15T23:28:13.000Z</time></trkpt>
        <trkpt lat="28.141468" lon="105.798514"><ele>1201.8334</ele><time>2026-08-15T23:28:15.000Z</time></trkpt>
        <trkpt lat="28.141483" lon="105.798548"><ele>1202.4142</ele><time>2026-08-15T23:28:17.000Z</time></trkpt>
        <trkpt lat="28.141497" lon="105.798587"><ele>1202.301</ele><time>2026-08-15T23:28:19.000Z</time></trkpt>
        <trkpt lat="28.14151" lon="105.798626"><ele>1202.31</ele><time>2026-08-15T23:28:21.000Z</time></trkpt>
        <trkpt lat="28.141526" lon="105.798661"><ele>1201.4734</ele><time>2026-08-15T23:28:23.000Z</time></trkpt>
        <trkpt lat="28.141543" lon="105.798691"><ele>1201.311</ele><time>2026-08-15T23:28:25.000Z</time></trkpt>
        <trkpt lat="28.141557" lon="105.798719"><ele>1201.117</ele><time>2026-08-15T23:28:27.000Z</time></trkpt>
        <trkpt lat="28.14157" lon="105.798744"><ele>1202.1589</ele><time>2026-08-15T23:28:29.000Z</time></trkpt>
        <trkpt lat="28.141586" lon="105.798772"><ele>1201.2223</ele><time>2026-08-15T23:28:31.000Z</time></trkpt>
        <trkpt lat="28.141604" lon="105.798799"><ele>1202.6334</ele><time>2026-08-15T23:28:33.000Z</time></trkpt>
        <trkpt lat="28.141625" lon="105.798824"><ele>1201.7651</ele><time>2026-08-15T23:28:35.000Z</time></trkpt>
        <trkpt lat="28.141645" lon="105.798848"><ele>1201.5824</ele><time>2026-08-15T23:28:37.000Z</time></trkpt>
        <trkpt lat="28.141664" lon="105.798867"><ele>1200.3761</ele><time>2026-08-15T23:28:39.000Z</time></trkpt>
        <trkpt lat="28.141682" lon="105.798888"><ele>1201.0343</ele><time>2026-08-15T23:28:41.000Z</time></trkpt>
        <trkpt lat="28.141696" lon="105.798908"><ele>1201.29</ele><time>2026-08-15T23:28:43.000Z</time></trkpt>
        <trkpt lat="28.141709" lon="105.798928"><ele>1201.4839</ele><time>2026-08-15T23:28:45.000Z</time></trkpt>
        <trkpt lat="28.141719" lon="105.798944"><ele>1200.4056</ele><time>2026-08-15T23:28:47.000Z</time></trkpt>
        <trkpt lat="28.141728" lon="105.798957"><ele>1200.2288</ele><time>2026-08-15T23:28:49.000Z</time></trkpt>
        <trkpt lat="28.141739" lon="105.79897"><ele>1200.558</ele><time>2026-08-15T23:28:51.000Z</time></trkpt>
        <trkpt lat="28.14175" lon="105.798986"><ele>1199.9133</ele><time>2026-08-15T23:28:53.000Z</time></trkpt>
        <trkpt lat="28.141763" lon="105.799006"><ele>1199.5317</ele><time>2026-08-15T23:28:55.000Z</time></trkpt>
        <trkpt lat="28.141778" lon="105.799033"><ele>1200.4554</ele><time>2026-08-15T23:28:57.000Z</time></trkpt>
        <trkpt lat="28.141792" lon="105.799061"><ele>1200.1798</ele><time>2026-08-15T23:28:59.000Z</time></trkpt>
        <trkpt lat="28.141807" lon="105.799092"><ele>1200.6324</ele><time>2026-08-15T23:29:01.000Z</time></trkpt>
        <trkpt lat="28.141824" lon="105.79912"><ele>1200.8395</ele><time>2026-08-15T23:29:03.000Z</time></trkpt>
        <trkpt lat="28.141842" lon="105.799146"><ele>1201.1732</ele><time>2026-08-15T23:29:05.000Z</time></trkpt>
        <trkpt lat="28.141857" lon="105.799171"><ele>1200.4152</ele><time>2026-08-15T23:29:07.000Z</time></trkpt>
        <trkpt lat="28.141872" lon="105.799201"><ele>1201.0302</ele><time>2026-08-15T23:29:09.000Z</time></trkpt>
        <trkpt lat="28.141889" lon="105.799237"><ele>1200.835</ele><time>2026-08-15T23:29:11.000Z</time></trkpt>
        <trkpt lat="28.141903" lon="105.799269"><ele>1200.9569</ele><time>2026-08-15T23:29:13.000Z</time></trkpt>
        <trkpt lat="28.141913" lon="105.799292"><ele>1201.1554</ele><time>2026-08-15T23:29:15.000Z</time></trkpt>
        <trkpt lat="28.141923" lon="105.799316"><ele>1201.0612</ele><time>2026-08-15T23:29:17.000Z</time></trkpt>
        <trkpt lat="28.141935" lon="105.799345"><ele>1200.5063</ele><time>2026-08-15T23:29:19.000Z</time></trkpt>
        <trkpt lat="28.141944" lon="105.799381"><ele>1201.1957</ele><time>2026-08-15T23:29:21.000Z</time></trkpt>
        <trkpt lat="28.141951" lon="105.79942"><ele>1202.4438</ele><time>2026-08-15T23:29:23.000Z</time></trkpt>
        <trkpt lat="28.141958" lon="105.79946"><ele>1202.4336</ele><time>2026-08-15T23:29:25.000Z</time></trkpt>
        <trkpt lat="28.141963" lon="105.799496"><ele>1202.7784</ele><time>2026-08-15T23:29:27.000Z</time></trkpt>
        <trkpt lat="28.141967" lon="105.799532"><ele>1202.677</ele><time>2026-08-15T23:29:29.000Z</time></trkpt>
        <trkpt lat="28.141969" lon="105.799567"><ele>1202.3967</ele><time>2026-08-15T23:29:31.000Z</time></trkpt>
        <trkpt lat="28.141967" lon="105.799601"><ele>1203.0844</ele><time>2026-08-15T23:29:33.000Z</time></trkpt>
        <trkpt lat="28.141965" lon="105.799633"><ele>1204.274</ele><time>2026-08-15T23:29:35.000Z</time></trkpt>
        <trkpt lat="28.141963" lon="105.799666"><ele>1203.7115</ele><time>2026-08-15T23:29:37.000Z</time></trkpt>
        <trkpt lat="28.141963" lon="105.799699"><ele>1203.8649</ele><time>2026-08-15T23:29:39.000Z</time></trkpt>
        <trkpt lat="28.141963" lon="105.79973"><ele>1203.9578</ele><time>2026-08-15T23:29:41.000Z</time></trkpt>
        <trkpt lat="28.141967" lon="105.799757"><ele>1204.6432</ele><time>2026-08-15T23:29:43.000Z</time></trkpt>
        <trkpt lat="28.141974" lon="105.799782"><ele>1204.6847</ele><time>2026-08-15T23:29:45.000Z</time></trkpt>
        <trkpt lat="28.14198" lon="105.799808"><ele>1204.0004</ele><time>2026-08-15T23:29:47.000Z</time></trkpt>
        <trkpt lat="28.141984" lon="105.799834"><ele>1201.8892</ele><time>2026-08-15T23:29:49.000Z</time></trkpt>
        <trkpt lat="28.141988" lon="105.799861"><ele>1202.3281</ele><time>2026-08-15T23:29:51.000Z</time></trkpt>
        <trkpt lat="28.141994" lon="105.79989"><ele>1201.3397</ele><time>2026-08-15T23:29:53.000Z</time></trkpt>
        <trkpt lat="28.141999" lon="105.799923"><ele>1202.0681</ele><time>2026-08-15T23:29:55.000Z</time></trkpt>
        <trkpt lat="28.142001" lon="105.79996"><ele>1201.9193</ele><time>2026-08-15T23:29:57.000Z</time></trkpt>
        <trkpt lat="28.142001" lon="105.799999"><ele>1202.1123</ele><time>2026-08-15T23:29:59.000Z</time></trkpt>
        <trkpt lat="28.141997" lon="105.800038"><ele>1202.0698</ele><time>2026-08-15T23:30:01.000Z</time></trkpt>
        <trkpt lat="28.141992" lon="105.800075"><ele>1202.7638</ele><time>2026-08-15T23:30:03.000Z</time></trkpt>
        <trkpt lat="28.141984" lon="105.800112"><ele>1201.4568</ele><time>2026-08-15T23:30:05.000Z</time></trkpt>
        <trkpt lat="28.141974" lon="105.800144"><ele>1200.1571</ele><time>2026-08-15T23:30:07.000Z</time></trkpt>
        <trkpt lat="28.141961" lon="105.80017"><ele>1198.4235</ele><time>2026-08-15T23:30:09.000Z</time></trkpt>
        <trkpt lat="28.141951" lon="105.800195"><ele>1199.0065</ele><time>2026-08-15T23:30:11.000Z</time></trkpt>
        <trkpt lat="28.141947" lon="105.800216"><ele>1198.2843</ele><time>2026-08-15T23:30:13.000Z</time></trkpt>
        <trkpt lat="28.141948" lon="105.800234"><ele>1198.1631</ele><time>2026-08-15T23:30:15.000Z</time></trkpt>
        <trkpt lat="28.141952" lon="105.800259"><ele>1198.1049</ele><time>2026-08-15T23:30:17.000Z</time></trkpt>
        <trkpt lat="28.141957" lon="105.800292"><ele>1198.5355</ele><time>2026-08-15T23:30:19.000Z</time></trkpt>
        <trkpt lat="28.141962" lon="105.800329"><ele>1198.7063</ele><time>2026-08-15T23:30:21.000Z</time></trkpt>
        <trkpt lat="28.14197" lon="105.800365"><ele>1198.742</ele><time>2026-08-15T23:30:23.000Z</time></trkpt>
        <trkpt lat="28.14198" lon="105.800401"><ele>1199.4685</ele><time>2026-08-15T23:30:25.000Z</time></trkpt>
        <trkpt lat="28.141994" lon="105.800437"><ele>1199.4753</ele><time>2026-08-15T23:30:27.000Z</time></trkpt>
        <trkpt lat="28.142008" lon="105.800466"><ele>1197.9355</ele><time>2026-08-15T23:30:29.000Z</time></trkpt>
        <trkpt lat="28.142022" lon="105.800492"><ele>1196.574</ele><time>2026-08-15T23:30:31.000Z</time></trkpt>
        <trkpt lat="28.142038" lon="105.800523"><ele>1196.0623</ele><time>2026-08-15T23:30:33.000Z</time></trkpt>
        <trkpt lat="28.142057" lon="105.800553"><ele>1195.3594</ele><time>2026-08-15T23:30:35.000Z</time></trkpt>
        <trkpt lat="28.142078" lon="105.800584"><ele>1195.1676</ele><time>2026-08-15T23:30:37.000Z</time></trkpt>
        <trkpt lat="28.142098" lon="105.800619"><ele>1195.7115</ele><time>2026-08-15T23:30:39.000Z</time></trkpt>
        <trkpt lat="28.142118" lon="105.800652"><ele>1197.2122</ele><time>2026-08-15T23:30:41.000Z</time></trkpt>
        <trkpt lat="28.142138" lon="105.800681"><ele>1198.1143</ele><time>2026-08-15T23:30:43.000Z</time></trkpt>
        <trkpt lat="28.142157" lon="105.800708"><ele>1198.101</ele><time>2026-08-15T23:30:45.000Z</time></trkpt>
        <trkpt lat="28.142175" lon="105.800735"><ele>1197.4486</ele><time>2026-08-15T23:30:47.000Z</time></trkpt>
        <trkpt lat="28.142192" lon="105.800762"><ele>1196.3496</ele><time>2026-08-15T23:30:49.000Z</time></trkpt>
        <trkpt lat="28.142206" lon="105.80079"><ele>1196.3442</ele><time>2026-08-15T23:30:51.000Z</time></trkpt>
        <trkpt lat="28.142222" lon="105.800819"><ele>1194.8667</ele><time>2026-08-15T23:30:53.000Z</time></trkpt>
        <trkpt lat="28.142238" lon="105.800846"><ele>1194.4186</ele><time>2026-08-15T23:30:55.000Z</time></trkpt>
        <trkpt lat="28.142255" lon="105.800871"><ele>1194.8767</ele><time>2026-08-15T23:30:57.000Z</time></trkpt>
        <trkpt lat="28.142274" lon="105.800894"><ele>1194.3783</ele><time>2026-08-15T23:30:59.000Z</time></trkpt>
        <trkpt lat="28.142296" lon="105.800915"><ele>1194.3997</ele><time>2026-08-15T23:31:01.000Z</time></trkpt>
        <trkpt lat="28.142321" lon="105.800936"><ele>1194.125</ele><time>2026-08-15T23:31:03.000Z</time></trkpt>
        <trkpt lat="28.142348" lon="105.800954"><ele>1194.0072</ele><time>2026-08-15T23:31:05.000Z</time></trkpt>
        <trkpt lat="28.142376" lon="105.800967"><ele>1194.1461</ele><time>2026-08-15T23:31:07.000Z</time></trkpt>
        <trkpt lat="28.142403" lon="105.800979"><ele>1192.9178</ele><time>2026-08-15T23:31:09.000Z</time></trkpt>
        <trkpt lat="28.142426" lon="105.800995"><ele>1193.6002</ele><time>2026-08-15T23:31:11.000Z</time></trkpt>
        <trkpt lat="28.142448" lon="105.801015"><ele>1194.2389</ele><time>2026-08-15T23:31:13.000Z</time></trkpt>
        <trkpt lat="28.142471" lon="105.801034"><ele>1193.3478</ele><time>2026-08-15T23:31:15.000Z</time></trkpt>
        <trkpt lat="28.142495" lon="105.801053"><ele>1192.6648</ele><time>2026-08-15T23:31:17.000Z</time></trkpt>
        <trkpt lat="28.142519" lon="105.80107"><ele>1192.4528</ele><time>2026-08-15T23:31:19.000Z</time></trkpt>
        <trkpt lat="28.142544" lon="105.801086"><ele>1192.2367</ele><time>2026-08-15T23:31:21.000Z</time></trkpt>
        <trkpt lat="28.14257" lon="105.801103"><ele>1192.3014</ele><time>2026-08-15T23:31:23.000Z</time></trkpt>
        <trkpt lat="28.142592" lon="105.801121"><ele>1192.8108</ele><time>2026-08-15T23:31:25.000Z</time></trkpt>
        <trkpt lat="28.142616" lon="105.801138"><ele>1191.8416</ele><time>2026-08-15T23:31:27.000Z</time></trkpt>
        <trkpt lat="28.142642" lon="105.801155"><ele>1191.5438</ele><time>2026-08-15T23:31:29.000Z</time></trkpt>
        <trkpt lat="28.14267" lon="105.801174"><ele>1192.3041</ele><time>2026-08-15T23:31:31.000Z</time></trkpt>
        <trkpt lat="28.142696" lon="105.801195"><ele>1191.6212</ele><time>2026-08-15T23:31:33.000Z</time></trkpt>
        <trkpt lat="28.142722" lon="105.801214"><ele>1191.584</ele><time>2026-08-15T23:31:35.000Z</time></trkpt>
        <trkpt lat="28.142749" lon="105.801234"><ele>1192.8882</ele><time>2026-08-15T23:31:37.000Z</time></trkpt>
        <trkpt lat="28.142774" lon="105.801255"><ele>1192.1661</ele><time>2026-08-15T23:31:39.000Z</time></trkpt>
        <trkpt lat="28.142799" lon="105.801278"><ele>1193.3154</ele><time>2026-08-15T23:31:41.000Z</time></trkpt>
        <trkpt lat="28.142821" lon="105.801305"><ele>1193.7867</ele><time>2026-08-15T23:31:43.000Z</time></trkpt>
        <trkpt lat="28.142841" lon="105.801331"><ele>1192.6785</ele><time>2026-08-15T23:31:45.000Z</time></trkpt>
        <trkpt lat="28.142855" lon="105.801352"><ele>1192.34</ele><time>2026-08-15T23:31:47.000Z</time></trkpt>
        <trkpt lat="28.142869" lon="105.801375"><ele>1192.1964</ele><time>2026-08-15T23:31:49.000Z</time></trkpt>
        <trkpt lat="28.142884" lon="105.801396"><ele>1192.4843</ele><time>2026-08-15T23:31:51.000Z</time></trkpt>
        <trkpt lat="28.142901" lon="105.801416"><ele>1191.4584</ele><time>2026-08-15T23:31:53.000Z</time></trkpt>
        <trkpt lat="28.14292" lon="105.801438"><ele>1191.6035</ele><time>2026-08-15T23:31:55.000Z</time></trkpt>
        <trkpt lat="28.142939" lon="105.801464"><ele>1191.9612</ele><time>2026-08-15T23:31:57.000Z</time></trkpt>
        <trkpt lat="28.142956" lon="105.801488"><ele>1191.6761</ele><time>2026-08-15T23:31:59.000Z</time></trkpt>
        <trkpt lat="28.142974" lon="105.801512"><ele>1191.9662</ele><time>2026-08-15T23:32:01.000Z</time></trkpt>
        <trkpt lat="28.142989" lon="105.801534"><ele>1192.4006</ele><time>2026-08-15T23:32:03.000Z</time></trkpt>
        <trkpt lat="28.143003" lon="105.801556"><ele>1191.0825</ele><time>2026-08-15T23:32:05.000Z</time></trkpt>
        <trkpt lat="28.143019" lon="105.801581"><ele>1190.2258</ele><time>2026-08-15T23:32:07.000Z</time></trkpt>
        <trkpt lat="28.143035" lon="105.801608"><ele>1189.4854</ele><time>2026-08-15T23:32:09.000Z</time></trkpt>
        <trkpt lat="28.143052" lon="105.801636"><ele>1189.9794</ele><time>2026-08-15T23:32:11.000Z</time></trkpt>
        <trkpt lat="28.14307" lon="105.801665"><ele>1189.7714</ele><time>2026-08-15T23:32:13.000Z</time></trkpt>
        <trkpt lat="28.143086" lon="105.801694"><ele>1189.9115</ele><time>2026-08-15T23:32:15.000Z</time></trkpt>
        <trkpt lat="28.1431" lon="105.801723"><ele>1189.2311</ele><time>2026-08-15T23:32:17.000Z</time></trkpt>
        <trkpt lat="28.143113" lon="105.801752"><ele>1187.8694</ele><time>2026-08-15T23:32:19.000Z</time></trkpt>
        <trkpt lat="28.143125" lon="105.801783"><ele>1188.0204</ele><time>2026-08-15T23:32:21.000Z</time></trkpt>
        <trkpt lat="28.143135" lon="105.801819"><ele>1188.8082</ele><time>2026-08-15T23:32:23.000Z</time></trkpt>
        <trkpt lat="28.143144" lon="105.801855"><ele>1188.7109</ele><time>2026-08-15T23:32:25.000Z</time></trkpt>
        <trkpt lat="28.143149" lon="105.801889"><ele>1187.3281</ele><time>2026-08-15T23:32:27.000Z</time></trkpt>
        <trkpt lat="28.14315" lon="105.801914"><ele>1186.7998</ele><time>2026-08-15T23:32:29.000Z</time></trkpt>
        <trkpt lat="28.14315" lon="105.801937"><ele>1187.2731</ele><time>2026-08-15T23:32:31.000Z</time></trkpt>
        <trkpt lat="28.143154" lon="105.801959"><ele>1186.92</ele><time>2026-08-15T23:32:33.000Z</time></trkpt>
        <trkpt lat="28.143162" lon="105.801988"><ele>1187.7744</ele><time>2026-08-15T23:32:35.000Z</time></trkpt>
        <trkpt lat="28.143174" lon="105.802022"><ele>1188.6646</ele><time>2026-08-15T23:32:37.000Z</time></trkpt>
        <trkpt lat="28.143186" lon="105.802053"><ele>1188.6996</ele><time>2026-08-15T23:32:39.000Z</time></trkpt>
        <trkpt lat="28.143199" lon="105.802087"><ele>1187.7379</ele><time>2026-08-15T23:32:41.000Z</time></trkpt>
        <trkpt lat="28.143216" lon="105.802122"><ele>1187.9913</ele><time>2026-08-15T23:32:43.000Z</time></trkpt>
        <trkpt lat="28.143234" lon="105.802152"><ele>1187.9493</ele><time>2026-08-15T23:32:45.000Z</time></trkpt>
        <trkpt lat="28.143251" lon="105.802176"><ele>1186.1583</ele><time>2026-08-15T23:32:47.000Z</time></trkpt>
        <trkpt lat="28.143268" lon="105.802198"><ele>1186.8632</ele><time>2026-08-15T23:32:49.000Z</time></trkpt>
        <trkpt lat="28.143287" lon="105.802221"><ele>1184.7175</ele><time>2026-08-15T23:32:51.000Z</time></trkpt>
        <trkpt lat="28.143305" lon="105.802245"><ele>1185.595</ele><time>2026-08-15T23:32:53.000Z</time></trkpt>
        <trkpt lat="28.143322" lon="105.802269"><ele>1185.1593</ele><time>2026-08-15T23:32:55.000Z</time></trkpt>
        <trkpt lat="28.143337" lon="105.80229"><ele>1184.9049</ele><time>2026-08-15T23:32:57.000Z</time></trkpt>
        <trkpt lat="28.143355" lon="105.802306"><ele>1184.324</ele><time>2026-08-15T23:32:59.000Z</time></trkpt>
        <trkpt lat="28.143373" lon="105.802316"><ele>1184.5037</ele><time>2026-08-15T23:33:01.000Z</time></trkpt>
        <trkpt lat="28.143399" lon="105.802331"><ele>1183.0817</ele><time>2026-08-15T23:33:03.000Z</time></trkpt>
        <trkpt lat="28.143427" lon="105.802351"><ele>1181.7874</ele><time>2026-08-15T23:33:05.000Z</time></trkpt>
        <trkpt lat="28.143451" lon="105.802378"><ele>1180.8099</ele><time>2026-08-15T23:33:07.000Z</time></trkpt>
        <trkpt lat="28.143472" lon="105.802408"><ele>1181.043</ele><time>2026-08-15T23:33:09.000Z</time></trkpt>
        <trkpt lat="28.143487" lon="105.80244"><ele>1179.4031</ele><time>2026-08-15T23:33:11.000Z</time></trkpt>
        <trkpt lat="28.143502" lon="105.802474"><ele>1180.1299</ele><time>2026-08-15T23:33:13.000Z</time></trkpt>
        <trkpt lat="28.143515" lon="105.80251"><ele>1181.5841</ele><time>2026-08-15T23:33:15.000Z</time></trkpt>
        <trkpt lat="28.143523" lon="105.802548"><ele>1182.2418</ele><time>2026-08-15T23:33:17.000Z</time></trkpt>
        <trkpt lat="28.143529" lon="105.802586"><ele>1183.1348</ele><time>2026-08-15T23:33:19.000Z</time></trkpt>
        <trkpt lat="28.143534" lon="105.802623"><ele>1183.9379</ele><time>2026-08-15T23:33:21.000Z</time></trkpt>
        <trkpt lat="28.143537" lon="105.802652"><ele>1184.0839</ele><time>2026-08-15T23:33:23.000Z</time></trkpt>
        <trkpt lat="28.14354" lon="105.802679"><ele>1184.6118</ele><time>2026-08-15T23:33:25.000Z</time></trkpt>
        <trkpt lat="28.143543" lon="105.802707"><ele>1184.9543</ele><time>2026-08-15T23:33:27.000Z</time></trkpt>
        <trkpt lat="28.143546" lon="105.802734"><ele>1184.947</ele><time>2026-08-15T23:33:29.000Z</time></trkpt>
        <trkpt lat="28.143549" lon="105.802757"><ele>1184.821</ele><time>2026-08-15T23:33:31.000Z</time></trkpt>
        <trkpt lat="28.143554" lon="105.802782"><ele>1184.8253</ele><time>2026-08-15T23:33:33.000Z</time></trkpt>
        <trkpt lat="28.143563" lon="105.802808"><ele>1183.8198</ele><time>2026-08-15T23:33:35.000Z</time></trkpt>
        <trkpt lat="28.143574" lon="105.802834"><ele>1183.2177</ele><time>2026-08-15T23:33:37.000Z</time></trkpt>
        <trkpt lat="28.143586" lon="105.802858"><ele>1182.1584</ele><time>2026-08-15T23:33:39.000Z</time></trkpt>
        <trkpt lat="28.143599" lon="105.802879"><ele>1182.5206</ele><time>2026-08-15T23:33:41.000Z</time></trkpt>
        <trkpt lat="28.143612" lon="105.802906"><ele>1183.6221</ele><time>2026-08-15T23:33:43.000Z</time></trkpt>
        <trkpt lat="28.143624" lon="105.802938"><ele>1183.948</ele><time>2026-08-15T23:33:45.000Z</time></trkpt>
        <trkpt lat="28.143636" lon="105.802977"><ele>1184.7245</ele><time>2026-08-15T23:33:47.000Z</time></trkpt>
        <trkpt lat="28.143646" lon="105.803017"><ele>1184.5917</ele><time>2026-08-15T23:33:49.000Z</time></trkpt>
        <trkpt lat="28.143654" lon="105.803059"><ele>1184.2903</ele><time>2026-08-15T23:33:51.000Z</time></trkpt>
        <trkpt lat="28.143655" lon="105.803099"><ele>1183.9684</ele><time>2026-08-15T23:33:53.000Z</time></trkpt>
        <trkpt lat="28.143653" lon="105.803138"><ele>1183.0752</ele><time>2026-08-15T23:33:55.000Z</time></trkpt>
        <trkpt lat="28.143649" lon="105.803174"><ele>1181.9076</ele><time>2026-08-15T23:33:57.000Z</time></trkpt>
        <trkpt lat="28.143647" lon="105.803211"><ele>1182.8866</ele><time>2026-08-15T23:33:59.000Z</time></trkpt>
        <trkpt lat="28.143649" lon="105.803245"><ele>1180.5444</ele><time>2026-08-15T23:34:01.000Z</time></trkpt>
        <trkpt lat="28.143655" lon="105.803279"><ele>1180.5319</ele><time>2026-08-15T23:34:03.000Z</time></trkpt>
        <trkpt lat="28.143661" lon="105.803314"><ele>1182.129</ele><time>2026-08-15T23:34:05.000Z</time></trkpt>
        <trkpt lat="28.143667" lon="105.803349"><ele>1182.013</ele><time>2026-08-15T23:34:07.000Z</time></trkpt>
        <trkpt lat="28.14367" lon="105.803383"><ele>1181.3921</ele><time>2026-08-15T23:34:09.000Z</time></trkpt>
        <trkpt lat="28.14367" lon="105.803417"><ele>1181.26</ele><time>2026-08-15T23:34:11.000Z</time></trkpt>
        <trkpt lat="28.143669" lon="105.803451"><ele>1180.6183</ele><time>2026-08-15T23:34:13.000Z</time></trkpt>
        <trkpt lat="28.143668" lon="105.803486"><ele>1179.9065</ele><time>2026-08-15T23:34:15.000Z</time></trkpt>
        <trkpt lat="28.143663" lon="105.803516"><ele>1178.9978</ele><time>2026-08-15T23:34:17.000Z</time></trkpt>
        <trkpt lat="28.143656" lon="105.803548"><ele>1178.3317</ele><time>2026-08-15T23:34:19.000Z</time></trkpt>
        <trkpt lat="28.14365" lon="105.803584"><ele>1179.6892</ele><time>2026-08-15T23:34:21.000Z</time></trkpt>
        <trkpt lat="28.143647" lon="105.80362"><ele>1178.3357</ele><time>2026-08-15T23:34:23.000Z</time></trkpt>
        <trkpt lat="28.143647" lon="105.803657"><ele>1178.3541</ele><time>2026-08-15T23:34:25.000Z</time></trkpt>
        <trkpt lat="28.14365" lon="105.803694"><ele>1177.9047</ele><time>2026-08-15T23:34:27.000Z</time></trkpt>
        <trkpt lat="28.143656" lon="105.803731"><ele>1176.3514</ele><time>2026-08-15T23:34:29.000Z</time></trkpt>
        <trkpt lat="28.143663" lon="105.803769"><ele>1176.9327</ele><time>2026-08-15T23:34:31.000Z</time></trkpt>
        <trkpt lat="28.143672" lon="105.803807"><ele>1177.7668</ele><time>2026-08-15T23:34:33.000Z</time></trkpt>
        <trkpt lat="28.14368" lon="105.803844"><ele>1176.9172</ele><time>2026-08-15T23:34:35.000Z</time></trkpt>
        <trkpt lat="28.143684" lon="105.803881"><ele>1175.8511</ele><time>2026-08-15T23:34:37.000Z</time></trkpt>
        <trkpt lat="28.143684" lon="105.803918"><ele>1176.3217</ele><time>2026-08-15T23:34:39.000Z</time></trkpt>
        <trkpt lat="28.143681" lon="105.803955"><ele>1175.8932</ele><time>2026-08-15T23:34:41.000Z</time></trkpt>
        <trkpt lat="28.143676" lon="105.803992"><ele>1176.527</ele><time>2026-08-15T23:34:43.000Z</time></trkpt>
        <trkpt lat="28.143677" lon="105.804026"><ele>1175.6216</ele><time>2026-08-15T23:34:45.000Z</time></trkpt>
        <trkpt lat="28.143686" lon="105.804052"><ele>1174.4292</ele><time>2026-08-15T23:34:47.000Z</time></trkpt>
        <trkpt lat="28.143701" lon="105.804079"><ele>1172.1676</ele><time>2026-08-15T23:34:49.000Z</time></trkpt>
        <trkpt lat="28.143721" lon="105.804108"><ele>1172.3418</ele><time>2026-08-15T23:34:51.000Z</time></trkpt>
        <trkpt lat="28.143742" lon="105.804134"><ele>1171.6349</ele><time>2026-08-15T23:34:53.000Z</time></trkpt>
        <trkpt lat="28.143764" lon="105.804156"><ele>1171.283</ele><time>2026-08-15T23:34:55.000Z</time></trkpt>
        <trkpt lat="28.143785" lon="105.804176"><ele>1173.1669</ele><time>2026-08-15T23:34:57.000Z</time></trkpt>
        <trkpt lat="28.143809" lon="105.804193"><ele>1174.1803</ele><time>2026-08-15T23:34:59.000Z</time></trkpt>
        <trkpt lat="28.143834" lon="105.804208"><ele>1175.5817</ele><time>2026-08-15T23:35:01.000Z</time></trkpt>
        <trkpt lat="28.143862" lon="105.804221"><ele>1176.7539</ele><time>2026-08-15T23:35:03.000Z</time></trkpt>
        <trkpt lat="28.143889" lon="105.804231"><ele>1176.9397</ele><time>2026-08-15T23:35:05.000Z</time></trkpt>
        <trkpt lat="28.143918" lon="105.804242"><ele>1177.7478</ele><time>2026-08-15T23:35:07.000Z</time></trkpt>
        <trkpt lat="28.143948" lon="105.804256"><ele>1178.6237</ele><time>2026-08-15T23:35:09.000Z</time></trkpt>
        <trkpt lat="28.143972" lon="105.804269"><ele>1179.3817</ele><time>2026-08-15T23:35:11.000Z</time></trkpt>
        <trkpt lat="28.143995" lon="105.804277"><ele>1178.8711</ele><time>2026-08-15T23:35:13.000Z</time></trkpt>
        <trkpt lat="28.144023" lon="105.804283"><ele>1178.813</ele><time>2026-08-15T23:35:15.000Z</time></trkpt>
        <trkpt lat="28.144048" lon="105.804283"><ele>1178.7185</ele><time>2026-08-15T23:35:17.000Z</time></trkpt>
        <trkpt lat="28.144073" lon="105.804279"><ele>1178.985</ele><time>2026-08-15T23:35:19.000Z</time></trkpt>
        <trkpt lat="28.144093" lon="105.80427"><ele>1178.1656</ele><time>2026-08-15T23:35:21.000Z</time></trkpt>
        <trkpt lat="28.144112" lon="105.804257"><ele>1177.8743</ele><time>2026-08-15T23:35:23.000Z</time></trkpt>
        <trkpt lat="28.144135" lon="105.804243"><ele>1177.3873</ele><time>2026-08-15T23:35:25.000Z</time></trkpt>
        <trkpt lat="28.144162" lon="105.804229"><ele>1177.3173</ele><time>2026-08-15T23:35:27.000Z</time></trkpt>
        <trkpt lat="28.144191" lon="105.804216"><ele>1176.0677</ele><time>2026-08-15T23:35:29.000Z</time></trkpt>
        <trkpt lat="28.144222" lon="105.804203"><ele>1177.4929</ele><time>2026-08-15T23:35:31.000Z</time></trkpt>
        <trkpt lat="28.14425" lon="105.804194"><ele>1177.9066</ele><time>2026-08-15T23:35:33.000Z</time></trkpt>
        <trkpt lat="28.144273" lon="105.80419"><ele>1177.8618</ele><time>2026-08-15T23:35:35.000Z</time></trkpt>
        <trkpt lat="28.144301" lon="105.804187"><ele>1177.9386</ele><time>2026-08-15T23:35:37.000Z</time></trkpt>
        <trkpt lat="28.144328" lon="105.804186"><ele>1177.2927</ele><time>2026-08-15T23:35:39.000Z</time></trkpt>
        <trkpt lat="28.144355" lon="105.804186"><ele>1177.7617</ele><time>2026-08-15T23:35:41.000Z</time></trkpt>
        <trkpt lat="28.144379" lon="105.804189"><ele>1178.0211</ele><time>2026-08-15T23:35:43.000Z</time></trkpt>
        <trkpt lat="28.144407" lon="105.804194"><ele>1178.062</ele><time>2026-08-15T23:35:45.000Z</time></trkpt>
        <trkpt lat="28.144436" lon="105.804204"><ele>1178.9329</ele><time>2026-08-15T23:35:47.000Z</time></trkpt>
        <trkpt lat="28.144465" lon="105.804215"><ele>1178.422</ele><time>2026-08-15T23:35:49.000Z</time></trkpt>
        <trkpt lat="28.144493" lon="105.804227"><ele>1176.9209</ele><time>2026-08-15T23:35:51.000Z</time></trkpt>
        <trkpt lat="28.144523" lon="105.804238"><ele>1176.1984</ele><time>2026-08-15T23:35:53.000Z</time></trkpt>
        <trkpt lat="28.144554" lon="105.804247"><ele>1175.9221</ele><time>2026-08-15T23:35:55.000Z</time></trkpt>
        <trkpt lat="28.144583" lon="105.804253"><ele>1175.5884</ele><time>2026-08-15T23:35:57.000Z</time></trkpt>
        <trkpt lat="28.144616" lon="105.804254"><ele>1176.7312</ele><time>2026-08-15T23:35:59.000Z</time></trkpt>
        <trkpt lat="28.144652" lon="105.804255"><ele>1176.9366</ele><time>2026-08-15T23:36:01.000Z</time></trkpt>
        <trkpt lat="28.144685" lon="105.804261"><ele>1177.1096</ele><time>2026-08-15T23:36:03.000Z</time></trkpt>
        <trkpt lat="28.144716" lon="105.804274"><ele>1177.1284</ele><time>2026-08-15T23:36:05.000Z</time></trkpt>
        <trkpt lat="28.144747" lon="105.804292"><ele>1175.3121</ele><time>2026-08-15T23:36:07.000Z</time></trkpt>
        <trkpt lat="28.144775" lon="105.80431"><ele>1175.196</ele><time>2026-08-15T23:36:09.000Z</time></trkpt>
        <trkpt lat="28.144806" lon="105.804327"><ele>1174.9086</ele><time>2026-08-15T23:36:11.000Z</time></trkpt>
        <trkpt lat="28.144837" lon="105.804345"><ele>1176.8942</ele><time>2026-08-15T23:36:13.000Z</time></trkpt>
        <trkpt lat="28.144865" lon="105.804363"><ele>1177.4929</ele><time>2026-08-15T23:36:15.000Z</time></trkpt>
        <trkpt lat="28.144894" lon="105.804379"><ele>1177.3087</ele><time>2026-08-15T23:36:17.000Z</time></trkpt>
        <trkpt lat="28.144922" lon="105.804395"><ele>1177.3317</ele><time>2026-08-15T23:36:19.000Z</time></trkpt>
        <trkpt lat="28.144948" lon="105.804414"><ele>1178.3737</ele><time>2026-08-15T23:36:21.000Z</time></trkpt>
        <trkpt lat="28.144971" lon="105.804435"><ele>1175.8187</ele><time>2026-08-15T23:36:23.000Z</time></trkpt>
        <trkpt lat="28.14499" lon="105.804456"><ele>1174.9038</ele><time>2026-08-15T23:36:25.000Z</time></trkpt>
        <trkpt lat="28.145008" lon="105.804481"><ele>1176.024</ele><time>2026-08-15T23:36:27.000Z</time></trkpt>
        <trkpt lat="28.145027" lon="105.804512"><ele>1173.7308</ele><time>2026-08-15T23:36:29.000Z</time></trkpt>
        <trkpt lat="28.145045" lon="105.804542"><ele>1173.4014</ele><time>2026-08-15T23:36:31.000Z</time></trkpt>
        <trkpt lat="28.145062" lon="105.804565"><ele>1174.4675</ele><time>2026-08-15T23:36:33.000Z</time></trkpt>
        <trkpt lat="28.145082" lon="105.804588"><ele>1173.7097</ele><time>2026-08-15T23:36:35.000Z</time></trkpt>
        <trkpt lat="28.145105" lon="105.804609"><ele>1173.7954</ele><time>2026-08-15T23:36:37.000Z</time></trkpt>
        <trkpt lat="28.145132" lon="105.804633"><ele>1175.7275</ele><time>2026-08-15T23:36:39.000Z</time></trkpt>
        <trkpt lat="28.145156" lon="105.804661"><ele>1175.0355</ele><time>2026-08-15T23:36:41.000Z</time></trkpt>
        <trkpt lat="28.145177" lon="105.804695"><ele>1176.7031</ele><time>2026-08-15T23:36:43.000Z</time></trkpt>
        <trkpt lat="28.145193" lon="105.80473"><ele>1176.6554</ele><time>2026-08-15T23:36:45.000Z</time></trkpt>
        <trkpt lat="28.145207" lon="105.804763"><ele>1176.2025</ele><time>2026-08-15T23:36:47.000Z</time></trkpt>
        <trkpt lat="28.145219" lon="105.804796"><ele>1176.1274</ele><time>2026-08-15T23:36:49.000Z</time></trkpt>
        <trkpt lat="28.145231" lon="105.804826"><ele>1175.0804</ele><time>2026-08-15T23:36:51.000Z</time></trkpt>
        <trkpt lat="28.145243" lon="105.804856"><ele>1175.8357</ele><time>2026-08-15T23:36:53.000Z</time></trkpt>
        <trkpt lat="28.145253" lon="105.804888"><ele>1177.1621</ele><time>2026-08-15T23:36:55.000Z</time></trkpt>
        <trkpt lat="28.14526" lon="105.804918"><ele>1176.4249</ele><time>2026-08-15T23:36:57.000Z</time></trkpt>
        <trkpt lat="28.145265" lon="105.804948"><ele>1176.4364</ele><time>2026-08-15T23:36:59.000Z</time></trkpt>
        <trkpt lat="28.145271" lon="105.804986"><ele>1177.6799</ele><time>2026-08-15T23:37:01.000Z</time></trkpt>
        <trkpt lat="28.145278" lon="105.805028"><ele>1177.0138</ele><time>2026-08-15T23:37:03.000Z</time></trkpt>
        <trkpt lat="28.145282" lon="105.805067"><ele>1176.8739</ele><time>2026-08-15T23:37:05.000Z</time></trkpt>
        <trkpt lat="28.145284" lon="105.805102"><ele>1177.1964</ele><time>2026-08-15T23:37:07.000Z</time></trkpt>
        <trkpt lat="28.145289" lon="105.805134"><ele>1176.9404</ele><time>2026-08-15T23:37:09.000Z</time></trkpt>
        <trkpt lat="28.145296" lon="105.805166"><ele>1175.9856</ele><time>2026-08-15T23:37:11.000Z</time></trkpt>
        <trkpt lat="28.145306" lon="105.805197"><ele>1175.2509</ele><time>2026-08-15T23:37:13.000Z</time></trkpt>
        <trkpt lat="28.145316" lon="105.805231"><ele>1175.9268</ele><time>2026-08-15T23:37:15.000Z</time></trkpt>
        <trkpt lat="28.145322" lon="105.805268"><ele>1175.6747</ele><time>2026-08-15T23:37:17.000Z</time></trkpt>
        <trkpt lat="28.145323" lon="105.805306"><ele>1176.3019</ele><time>2026-08-15T23:37:19.000Z</time></trkpt>
        <trkpt lat="28.14532" lon="105.805345"><ele>1176.6859</ele><time>2026-08-15T23:37:21.000Z</time></trkpt>
        <trkpt lat="28.145313" lon="105.805382"><ele>1177.6672</ele><time>2026-08-15T23:37:23.000Z</time></trkpt>
        <trkpt lat="28.145306" lon="105.805419"><ele>1177.279</ele><time>2026-08-15T23:37:25.000Z</time></trkpt>
        <trkpt lat="28.145297" lon="105.805455"><ele>1176.2706</ele><time>2026-08-15T23:37:27.000Z</time></trkpt>
        <trkpt lat="28.145284" lon="105.805488"><ele>1175.1709</ele><time>2026-08-15T23:37:29.000Z</time></trkpt>
        <trkpt lat="28.14527" lon="105.80552"><ele>1174.304</ele><time>2026-08-15T23:37:31.000Z</time></trkpt>
        <trkpt lat="28.145254" lon="105.80555"><ele>1174.2943</ele><time>2026-08-15T23:37:33.000Z</time></trkpt>
        <trkpt lat="28.145236" lon="105.805579"><ele>1173.6903</ele><time>2026-08-15T23:37:35.000Z</time></trkpt>
        <trkpt lat="28.145218" lon="105.805608"><ele>1174.168</ele><time>2026-08-15T23:37:37.000Z</time></trkpt>
        <trkpt lat="28.145202" lon="105.805637"><ele>1173.6486</ele><time>2026-08-15T23:37:39.000Z</time></trkpt>
        <trkpt lat="28.145191" lon="105.805668"><ele>1175.4895</ele><time>2026-08-15T23:37:41.000Z</time></trkpt>
        <trkpt lat="28.145184" lon="105.805698"><ele>1175.9894</ele><time>2026-08-15T23:37:43.000Z</time></trkpt>
        <trkpt lat="28.145181" lon="105.80573"><ele>1175.9376</ele><time>2026-08-15T23:37:45.000Z</time></trkpt>
        <trkpt lat="28.145182" lon="105.805761"><ele>1176.9884</ele><time>2026-08-15T23:37:47.000Z</time></trkpt>
        <trkpt lat="28.145187" lon="105.805794"><ele>1177.052</ele><time>2026-08-15T23:37:49.000Z</time></trkpt>
        <trkpt lat="28.145195" lon="105.805826"><ele>1177.6842</ele><time>2026-08-15T23:37:51.000Z</time></trkpt>
        <trkpt lat="28.145206" lon="105.805855"><ele>1177.9213</ele><time>2026-08-15T23:37:53.000Z</time></trkpt>
        <trkpt lat="28.145217" lon="105.805885"><ele>1178.5444</ele><time>2026-08-15T23:37:55.000Z</time></trkpt>
        <trkpt lat="28.145227" lon="105.805917"><ele>1179.1483</ele><time>2026-08-15T23:37:57.000Z</time></trkpt>
        <trkpt lat="28.145233" lon="105.80595"><ele>1180.9645</ele><time>2026-08-15T23:37:59.000Z</time></trkpt>
        <trkpt lat="28.145233" lon="105.805988"><ele>1180.405</ele><time>2026-08-15T23:38:01.000Z</time></trkpt>
        <trkpt lat="28.145228" lon="105.806028"><ele>1179.0481</ele><time>2026-08-15T23:38:03.000Z</time></trkpt>
        <trkpt lat="28.145225" lon="105.806068"><ele>1178.286</ele><time>2026-08-15T23:38:05.000Z</time></trkpt>
        <trkpt lat="28.145222" lon="105.806099"><ele>1176.8861</ele><time>2026-08-15T23:38:07.000Z</time></trkpt>
        <trkpt lat="28.14522" lon="105.806124"><ele>1175.3735</ele><time>2026-08-15T23:38:09.000Z</time></trkpt>
        <trkpt lat="28.145219" lon="105.80615"><ele>1174.3037</ele><time>2026-08-15T23:38:11.000Z</time></trkpt>
        <trkpt lat="28.145219" lon="105.806176"><ele>1174.172</ele><time>2026-08-15T23:38:13.000Z</time></trkpt>
        <trkpt lat="28.145218" lon="105.806206"><ele>1174.5892</ele><time>2026-08-15T23:38:15.000Z</time></trkpt>
        <trkpt lat="28.14522" lon="105.806239"><ele>1174.1124</ele><time>2026-08-15T23:38:17.000Z</time></trkpt>
        <trkpt lat="28.145226" lon="105.806272"><ele>1172.6863</ele><time>2026-08-15T23:38:19.000Z</time></trkpt>
        <trkpt lat="28.145232" lon="105.806306"><ele>1172.5006</ele><time>2026-08-15T23:38:21.000Z</time></trkpt>
        <trkpt lat="28.145239" lon="105.806342"><ele>1172.1029</ele><time>2026-08-15T23:38:23.000Z</time></trkpt>
        <trkpt lat="28.145246" lon="105.806376"><ele>1171.6935</ele><time>2026-08-15T23:38:25.000Z</time></trkpt>
        <trkpt lat="28.145253" lon="105.806411"><ele>1171.4779</ele><time>2026-08-15T23:38:27.000Z</time></trkpt>
        <trkpt lat="28.145263" lon="105.806443"><ele>1170.7771</ele><time>2026-08-15T23:38:29.000Z</time></trkpt>
        <trkpt lat="28.145272" lon="105.806472"><ele>1170.9376</ele><time>2026-08-15T23:38:31.000Z</time></trkpt>
        <trkpt lat="28.145283" lon="105.806503"><ele>1171.2618</ele><time>2026-08-15T23:38:33.000Z</time></trkpt>
        <trkpt lat="28.145296" lon="105.806534"><ele>1170.5331</ele><time>2026-08-15T23:38:35.000Z</time></trkpt>
        <trkpt lat="28.145309" lon="105.806565"><ele>1170.2308</ele><time>2026-08-15T23:38:37.000Z</time></trkpt>
        <trkpt lat="28.145317" lon="105.806597"><ele>1168.4214</ele><time>2026-08-15T23:38:39.000Z</time></trkpt>
        <trkpt lat="28.145325" lon="105.806627"><ele>1168.2992</ele><time>2026-08-15T23:38:41.000Z</time></trkpt>
        <trkpt lat="28.145332" lon="105.806659"><ele>1168.1812</ele><time>2026-08-15T23:38:43.000Z</time></trkpt>
        <trkpt lat="28.145339" lon="105.806692"><ele>1167.1293</ele><time>2026-08-15T23:38:45.000Z</time></trkpt>
        <trkpt lat="28.145348" lon="105.806722"><ele>1166.3596</ele><time>2026-08-15T23:38:47.000Z</time></trkpt>
        <trkpt lat="28.145361" lon="105.80675"><ele>1166.8184</ele><time>2026-08-15T23:38:49.000Z</time></trkpt>
        <trkpt lat="28.145377" lon="105.806774"><ele>1167.4504</ele><time>2026-08-15T23:38:51.000Z</time></trkpt>
        <trkpt lat="28.145396" lon="105.806795"><ele>1167.014</ele><time>2026-08-15T23:38:53.000Z</time></trkpt>
        <trkpt lat="28.145416" lon="105.806818"><ele>1166.5763</ele><time>2026-08-15T23:38:55.000Z</time></trkpt>
        <trkpt lat="28.145435" lon="105.806841"><ele>1166.5259</ele><time>2026-08-15T23:38:57.000Z</time></trkpt>
        <trkpt lat="28.145452" lon="105.806867"><ele>1166.9117</ele><time>2026-08-15T23:38:59.000Z</time></trkpt>
        <trkpt lat="28.14547" lon="105.80689"><ele>1166.5659</ele><time>2026-08-15T23:39:01.000Z</time></trkpt>
        <trkpt lat="28.14549" lon="105.806911"><ele>1165.594</ele><time>2026-08-15T23:39:03.000Z</time></trkpt>
        <trkpt lat="28.145512" lon="105.806933"><ele>1166.263</ele><time>2026-08-15T23:39:05.000Z</time></trkpt>
        <trkpt lat="28.145535" lon="105.806955"><ele>1165.5895</ele><time>2026-08-15T23:39:07.000Z</time></trkpt>
        <trkpt lat="28.145555" lon="105.80698"><ele>1165.8741</ele><time>2026-08-15T23:39:09.000Z</time></trkpt>
        <trkpt lat="28.145572" lon="105.807006"><ele>1164.3478</ele><time>2026-08-15T23:39:11.000Z</time></trkpt>
        <trkpt lat="28.145589" lon="105.807031"><ele>1164.587</ele><time>2026-08-15T23:39:13.000Z</time></trkpt>
        <trkpt lat="28.145607" lon="105.807055"><ele>1165.8691</ele><time>2026-08-15T23:39:15.000Z</time></trkpt>
        <trkpt lat="28.145623" lon="105.80708"><ele>1166.5848</ele><time>2026-08-15T23:39:17.000Z</time></trkpt>
        <trkpt lat="28.145637" lon="105.807106"><ele>1166.5475</ele><time>2026-08-15T23:39:19.000Z</time></trkpt>
        <trkpt lat="28.145647" lon="105.807134"><ele>1166.9778</ele><time>2026-08-15T23:39:21.000Z</time></trkpt>
        <trkpt lat="28.145655" lon="105.807165"><ele>1166.2357</ele><time>2026-08-15T23:39:23.000Z</time></trkpt>
        <trkpt lat="28.145661" lon="105.807198"><ele>1165.6732</ele><time>2026-08-15T23:39:25.000Z</time></trkpt>
        <trkpt lat="28.145669" lon="105.807231"><ele>1164.5648</ele><time>2026-08-15T23:39:27.000Z</time></trkpt>
        <trkpt lat="28.145678" lon="105.807263"><ele>1165.5411</ele><time>2026-08-15T23:39:29.000Z</time></trkpt>
        <trkpt lat="28.145687" lon="105.807293"><ele>1166.2372</ele><time>2026-08-15T23:39:31.000Z</time></trkpt>
        <trkpt lat="28.145697" lon="105.807322"><ele>1165.2131</ele><time>2026-08-15T23:39:33.000Z</time></trkpt>
        <trkpt lat="28.145708" lon="105.807348"><ele>1163.9576</ele><time>2026-08-15T23:39:35.000Z</time></trkpt>
        <trkpt lat="28.145719" lon="105.807372"><ele>1164.1176</ele><time>2026-08-15T23:39:37.000Z</time></trkpt>
        <trkpt lat="28.145729" lon="105.807394"><ele>1163.2852</ele><time>2026-08-15T23:39:39.000Z</time></trkpt>
        <trkpt lat="28.145739" lon="105.807419"><ele>1164.1194</ele><time>2026-08-15T23:39:41.000Z</time></trkpt>
        <trkpt lat="28.145752" lon="105.807447"><ele>1164.0583</ele><time>2026-08-15T23:39:43.000Z</time></trkpt>
        <trkpt lat="28.145768" lon="105.807475"><ele>1164.2659</ele><time>2026-08-15T23:39:45.000Z</time></trkpt>
        <trkpt lat="28.145785" lon="105.807499"><ele>1165.4344</ele><time>2026-08-15T23:39:47.000Z</time></trkpt>
        <trkpt lat="28.145802" lon="105.807525"><ele>1165.5728</ele><time>2026-08-15T23:39:49.000Z</time></trkpt>
        <trkpt lat="28.145822" lon="105.807554"><ele>1165.1324</ele><time>2026-08-15T23:39:51.000Z</time></trkpt>
        <trkpt lat="28.145842" lon="105.807584"><ele>1164.9987</ele><time>2026-08-15T23:39:53.000Z</time></trkpt>
        <trkpt lat="28.145862" lon="105.807617"><ele>1165.3693</ele><time>2026-08-15T23:39:55.000Z</time></trkpt>
        <trkpt lat="28.145884" lon="105.807648"><ele>1164.3849</ele><time>2026-08-15T23:39:57.000Z</time></trkpt>
        <trkpt lat="28.145905" lon="105.807678"><ele>1164.5029</ele><time>2026-08-15T23:39:59.000Z</time></trkpt>
        <trkpt lat="28.145923" lon="105.807709"><ele>1164.9554</ele><time>2026-08-15T23:40:01.000Z</time></trkpt>
        <trkpt lat="28.14594" lon="105.807739"><ele>1163.7655</ele><time>2026-08-15T23:40:03.000Z</time></trkpt>
        <trkpt lat="28.145956" lon="105.807768"><ele>1163.3674</ele><time>2026-08-15T23:40:05.000Z</time></trkpt>
        <trkpt lat="28.145975" lon="105.807795"><ele>1164.0822</ele><time>2026-08-15T23:40:07.000Z</time></trkpt>
        <trkpt lat="28.145995" lon="105.807818"><ele>1164.0371</ele><time>2026-08-15T23:40:09.000Z</time></trkpt>
        <trkpt lat="28.146018" lon="105.807838"><ele>1163.4247</ele><time>2026-08-15T23:40:11.000Z</time></trkpt>
        <trkpt lat="28.146041" lon="105.807857"><ele>1163.268</ele><time>2026-08-15T23:40:13.000Z</time></trkpt>
        <trkpt lat="28.146065" lon="105.807876"><ele>1163.3561</ele><time>2026-08-15T23:40:15.000Z</time></trkpt>
        <trkpt lat="28.146088" lon="105.807895"><ele>1163.0037</ele><time>2026-08-15T23:40:17.000Z</time></trkpt>
        <trkpt lat="28.146113" lon="105.807914"><ele>1162.9282</ele><time>2026-08-15T23:40:19.000Z</time></trkpt>
        <trkpt lat="28.146137" lon="105.807933"><ele>1163.2849</ele><time>2026-08-15T23:40:21.000Z</time></trkpt>
        <trkpt lat="28.146163" lon="105.807954"><ele>1163.0623</ele><time>2026-08-15T23:40:23.000Z</time></trkpt>
        <trkpt lat="28.146184" lon="105.807979"><ele>1163.8013</ele><time>2026-08-15T23:40:25.000Z</time></trkpt>
        <trkpt lat="28.146199" lon="105.808009"><ele>1164.4703</ele><time>2026-08-15T23:40:27.000Z</time></trkpt>
        <trkpt lat="28.146203" lon="105.808042"><ele>1164.7418</ele><time>2026-08-15T23:40:29.000Z</time></trkpt>
        <trkpt lat="28.146203" lon="105.808079"><ele>1164.3475</ele><time>2026-08-15T23:40:31.000Z</time></trkpt>
        <trkpt lat="28.146199" lon="105.80812"><ele>1164.8014</ele><time>2026-08-15T23:40:33.000Z</time></trkpt>
        <trkpt lat="28.146194" lon="105.808161"><ele>1164.4285</ele><time>2026-08-15T23:40:35.000Z</time></trkpt>
        <trkpt lat="28.146188" lon="105.8082"><ele>1165.2762</ele><time>2026-08-15T23:40:37.000Z</time></trkpt>
        <trkpt lat="28.146182" lon="105.808237"><ele>1165.0182</ele><time>2026-08-15T23:40:39.000Z</time></trkpt>
        <trkpt lat="28.146173" lon="105.808273"><ele>1164.983</ele><time>2026-08-15T23:40:41.000Z</time></trkpt>
        <trkpt lat="28.14616" lon="105.808305"><ele>1165.7986</ele><time>2026-08-15T23:40:43.000Z</time></trkpt>
        <trkpt lat="28.146144" lon="105.808337"><ele>1166.2021</ele><time>2026-08-15T23:40:45.000Z</time></trkpt>
        <trkpt lat="28.146126" lon="105.808369"><ele>1164.9264</ele><time>2026-08-15T23:40:47.000Z</time></trkpt>
        <trkpt lat="28.146109" lon="105.808399"><ele>1163.8367</ele><time>2026-08-15T23:40:49.000Z</time></trkpt>
        <trkpt lat="28.146095" lon="105.808427"><ele>1163.3945</ele><time>2026-08-15T23:40:51.000Z</time></trkpt>
        <trkpt lat="28.146082" lon="105.808454"><ele>1162.4775</ele><time>2026-08-15T23:40:53.000Z</time></trkpt>
        <trkpt lat="28.146069" lon="105.808479"><ele>1161.6486</ele><time>2026-08-15T23:40:55.000Z</time></trkpt>
        <trkpt lat="28.146055" lon="105.808502"><ele>1161.3959</ele><time>2026-08-15T23:40:57.000Z</time></trkpt>
        <trkpt lat="28.146039" lon="105.808523"><ele>1161.2751</ele><time>2026-08-15T23:40:59.000Z</time></trkpt>
        <trkpt lat="28.146023" lon="105.808539"><ele>1162.1091</ele><time>2026-08-15T23:41:01.000Z</time></trkpt>
        <trkpt lat="28.146006" lon="105.808555"><ele>1162.1073</ele><time>2026-08-15T23:41:03.000Z</time></trkpt>
        <trkpt lat="28.145988" lon="105.808572"><ele>1162.0936</ele><time>2026-08-15T23:41:05.000Z</time></trkpt>
        <trkpt lat="28.145971" lon="105.808592"><ele>1162.2773</ele><time>2026-08-15T23:41:07.000Z</time></trkpt>
        <trkpt lat="28.145955" lon="105.808613"><ele>1161.8959</ele><time>2026-08-15T23:41:09.000Z</time></trkpt>
        <trkpt lat="28.145943" lon="105.808634"><ele>1161.897</ele><time>2026-08-15T23:41:11.000Z</time></trkpt>
        <trkpt lat="28.145931" lon="105.808656"><ele>1162.0956</ele><time>2026-08-15T23:41:13.000Z</time></trkpt>
        <trkpt lat="28.145919" lon="105.808678"><ele>1163.6935</ele><time>2026-08-15T23:41:15.000Z</time></trkpt>
        <trkpt lat="28.145908" lon="105.808699"><ele>1164.067</ele><time>2026-08-15T23:41:17.000Z</time></trkpt>
        <trkpt lat="28.145898" lon="105.808718"><ele>1164.2556</ele><time>2026-08-15T23:41:19.000Z</time></trkpt>
        <trkpt lat="28.145888" lon="105.808738"><ele>1163.7327</ele><time>2026-08-15T23:41:21.000Z</time></trkpt>
        <trkpt lat="28.14588" lon="105.808758"><ele>1163.9828</ele><time>2026-08-15T23:41:23.000Z</time></trkpt>
        <trkpt lat="28.145871" lon="105.808781"><ele>1163.2797</ele><time>2026-08-15T23:41:25.000Z</time></trkpt>
        <trkpt lat="28.145861" lon="105.808803"><ele>1163.3209</ele><time>2026-08-15T23:41:27.000Z</time></trkpt>
        <trkpt lat="28.145854" lon="105.808821"><ele>1163.1392</ele><time>2026-08-15T23:41:29.000Z</time></trkpt>
        <trkpt lat="28.145848" lon="105.80884"><ele>1163.277</ele><time>2026-08-15T23:41:31.000Z</time></trkpt>
        <trkpt lat="28.145842" lon="105.808861"><ele>1164.3411</ele><time>2026-08-15T23:41:33.000Z</time></trkpt>
        <trkpt lat="28.145837" lon="105.808884"><ele>1164.2952</ele><time>2026-08-15T23:41:35.000Z</time></trkpt>
        <trkpt lat="28.145836" lon="105.808904"><ele>1165.0459</ele><time>2026-08-15T23:41:37.000Z</time></trkpt>
        <trkpt lat="28.14584" lon="105.808925"><ele>1166.1068</ele><time>2026-08-15T23:41:39.000Z</time></trkpt>
        <trkpt lat="28.145846" lon="105.808945"><ele>1165.549</ele><time>2026-08-15T23:41:41.000Z</time></trkpt>
        <trkpt lat="28.145851" lon="105.808964"><ele>1166.0033</ele><time>2026-08-15T23:41:43.000Z</time></trkpt>
        <trkpt lat="28.145853" lon="105.808982"><ele>1165.2794</ele><time>2026-08-15T23:41:45.000Z</time></trkpt>
        <trkpt lat="28.145858" lon="105.809005"><ele>1166.0613</ele><time>2026-08-15T23:41:47.000Z</time></trkpt>
        <trkpt lat="28.145863" lon="105.80903"><ele>1166.0604</ele><time>2026-08-15T23:41:49.000Z</time></trkpt>
        <trkpt lat="28.145867" lon="105.809054"><ele>1165.004</ele><time>2026-08-15T23:41:51.000Z</time></trkpt>
        <trkpt lat="28.145867" lon="105.809078"><ele>1165.5548</ele><time>2026-08-15T23:41:53.000Z</time></trkpt>
        <trkpt lat="28.14586" lon="105.809098"><ele>1166.1754</ele><time>2026-08-15T23:41:55.000Z</time></trkpt>
        <trkpt lat="28.145849" lon="105.809112"><ele>1166.8147</ele><time>2026-08-15T23:41:57.000Z</time></trkpt>
        <trkpt lat="28.145836" lon="105.809129"><ele>1166.6208</ele><time>2026-08-15T23:41:59.000Z</time></trkpt>
        <trkpt lat="28.145826" lon="105.809147"><ele>1167.1383</ele><time>2026-08-15T23:42:01.000Z</time></trkpt>
        <trkpt lat="28.145825" lon="105.809164"><ele>1167.5227</ele><time>2026-08-15T23:42:03.000Z</time></trkpt>
        <trkpt lat="28.145827" lon="105.809189"><ele>1167.0237</ele><time>2026-08-15T23:42:05.000Z</time></trkpt>
        <trkpt lat="28.145836" lon="105.809217"><ele>1167.2621</ele><time>2026-08-15T23:42:07.000Z</time></trkpt>
        <trkpt lat="28.145852" lon="105.809244"><ele>1167.106</ele><time>2026-08-15T23:42:09.000Z</time></trkpt>
        <trkpt lat="28.145872" lon="105.80927"><ele>1166.7275</ele><time>2026-08-15T23:42:11.000Z</time></trkpt>
        <trkpt lat="28.145893" lon="105.809296"><ele>1166.9534</ele><time>2026-08-15T23:42:13.000Z</time></trkpt>
        <trkpt lat="28.145914" lon="105.80932"><ele>1166.4507</ele><time>2026-08-15T23:42:15.000Z</time></trkpt>
        <trkpt lat="28.145933" lon="105.809343"><ele>1166.3505</ele><time>2026-08-15T23:42:17.000Z</time></trkpt>
        <trkpt lat="28.145949" lon="105.809364"><ele>1165.7969</ele><time>2026-08-15T23:42:19.000Z</time></trkpt>
        <trkpt lat="28.145964" lon="105.809387"><ele>1166.388</ele><time>2026-08-15T23:42:21.000Z</time></trkpt>
        <trkpt lat="28.145978" lon="105.809411"><ele>1165.8038</ele><time>2026-08-15T23:42:23.000Z</time></trkpt>
        <trkpt lat="28.145991" lon="105.809435"><ele>1165.1754</ele><time>2026-08-15T23:42:25.000Z</time></trkpt>
        <trkpt lat="28.146005" lon="105.80946"><ele>1165.6842</ele><time>2026-08-15T23:42:27.000Z</time></trkpt>
        <trkpt lat="28.146018" lon="105.809487"><ele>1165.9845</ele><time>2026-08-15T23:42:29.000Z</time></trkpt>
        <trkpt lat="28.146025" lon="105.809514"><ele>1166.9137</ele><time>2026-08-15T23:42:31.000Z</time></trkpt>
        <trkpt lat="28.146023" lon="105.809539"><ele>1166.4744</ele><time>2026-08-15T23:42:33.000Z</time></trkpt>
        <trkpt lat="28.146017" lon="105.809566"><ele>1167.1566</ele><time>2026-08-15T23:42:35.000Z</time></trkpt>
        <trkpt lat="28.146008" lon="105.809594"><ele>1167.6609</ele><time>2026-08-15T23:42:37.000Z</time></trkpt>
        <trkpt lat="28.145998" lon="105.809618"><ele>1168.123</ele><time>2026-08-15T23:42:39.000Z</time></trkpt>
        <trkpt lat="28.145988" lon="105.809637"><ele>1168.1417</ele><time>2026-08-15T23:42:41.000Z</time></trkpt>
        <trkpt lat="28.145981" lon="105.809654"><ele>1168.3308</ele><time>2026-08-15T23:42:43.000Z</time></trkpt>
        <trkpt lat="28.145976" lon="105.80967"><ele>1168.4866</ele><time>2026-08-15T23:42:45.000Z</time></trkpt>
        <trkpt lat="28.145972" lon="105.809686"><ele>1168.2655</ele><time>2026-08-15T23:42:47.000Z</time></trkpt>
        <trkpt lat="28.145968" lon="105.809702"><ele>1168.7216</ele><time>2026-08-15T23:42:49.000Z</time></trkpt>
        <trkpt lat="28.145964" lon="105.809714"><ele>1169.2631</ele><time>2026-08-15T23:42:51.000Z</time></trkpt>
        <trkpt lat="28.145961" lon="105.809719"><ele>1169.1388</ele><time>2026-08-15T23:42:53.000Z</time></trkpt>
        <trkpt lat="28.145955" lon="105.809737"><ele>1168.8186</ele><time>2026-08-15T23:42:58.000Z</time></trkpt>
        <trkpt lat="28.145951" lon="105.809751"><ele>1168.1678</ele><time>2026-08-15T23:43:00.000Z</time></trkpt>
        <trkpt lat="28.14595" lon="105.809752"><ele>1169.0564</ele><time>2026-08-15T23:43:02.000Z</time></trkpt>
        <trkpt lat="28.145942" lon="105.80977"><ele>1168.6646</ele><time>2026-08-15T23:43:06.000Z</time></trkpt>
        <trkpt lat="28.145931" lon="105.809795"><ele>1168.69</ele><time>2026-08-15T23:43:08.000Z</time></trkpt>
        <trkpt lat="28.145919" lon="105.809827"><ele>1169.0175</ele><time>2026-08-15T23:43:10.000Z</time></trkpt>
        <trkpt lat="28.145912" lon="105.809858"><ele>1168.6229</ele><time>2026-08-15T23:43:12.000Z</time></trkpt>
        <trkpt lat="28.145913" lon="105.809886"><ele>1169.209</ele><time>2026-08-15T23:43:14.000Z</time></trkpt>
        <trkpt lat="28.14592" lon="105.809905"><ele>1169.5151</ele><time>2026-08-15T23:43:16.000Z</time></trkpt>
        <trkpt lat="28.145931" lon="105.809917"><ele>1170.2158</ele><time>2026-08-15T23:43:18.000Z</time></trkpt>
        <trkpt lat="28.145945" lon="105.809925"><ele>1171.4105</ele><time>2026-08-15T23:43:20.000Z</time></trkpt>
        <trkpt lat="28.145965" lon="105.809932"><ele>1172.2494</ele><time>2026-08-15T23:43:22.000Z</time></trkpt>
        <trkpt lat="28.145987" lon="105.809935"><ele>1173.4739</ele><time>2026-08-15T23:43:24.000Z</time></trkpt>
        <trkpt lat="28.146013" lon="105.809937"><ele>1174.1758</ele><time>2026-08-15T23:43:26.000Z</time></trkpt>
        <trkpt lat="28.146037" lon="105.809939"><ele>1174.8782</ele><time>2026-08-15T23:43:28.000Z</time></trkpt>
        <trkpt lat="28.146063" lon="105.809943"><ele>1175.2795</ele><time>2026-08-15T23:43:30.000Z</time></trkpt>
        <trkpt lat="28.146086" lon="105.809947"><ele>1175.7676</ele><time>2026-08-15T23:43:32.000Z</time></trkpt>
        <trkpt lat="28.146105" lon="105.80995"><ele>1176.0479</ele><time>2026-08-15T23:43:34.000Z</time></trkpt>
        <trkpt lat="28.146124" lon="105.809953"><ele>1176.3376</ele><time>2026-08-15T23:43:36.000Z</time></trkpt>
        <trkpt lat="28.146144" lon="105.809956"><ele>1176.6042</ele><time>2026-08-15T23:43:38.000Z</time></trkpt>
        <trkpt lat="28.146164" lon="105.809957"><ele>1176.4744</ele><time>2026-08-15T23:43:40.000Z</time></trkpt>
        <trkpt lat="28.146183" lon="105.809954"><ele>1177.1083</ele><time>2026-08-15T23:43:42.000Z</time></trkpt>
        <trkpt lat="28.146201" lon="105.809948"><ele>1178.5023</ele><time>2026-08-15T23:43:44.000Z</time></trkpt>
        <trkpt lat="28.146212" lon="105.809942"><ele>1177.2759</ele><time>2026-08-15T23:43:46.000Z</time></trkpt>
        <trkpt lat="28.146221" lon="105.809934"><ele>1178.9484</ele><time>2026-08-15T23:43:48.000Z</time></trkpt>
        <trkpt lat="28.146228" lon="105.809933"><ele>1178.7797</ele><time>2026-08-15T23:43:50.000Z</time></trkpt>
        <trkpt lat="28.146256" lon="105.809925"><ele>1179.6299</ele><time>2026-08-15T23:43:57.000Z</time></trkpt>
        <trkpt lat="28.146256" lon="105.809925"><ele>1179.6141</ele><time>2026-08-15T23:43:59.000Z</time></trkpt>
        <trkpt lat="28.146259" lon="105.809923"><ele>1179.5216</ele><time>2026-08-15T23:44:01.000Z</time></trkpt>
        <trkpt lat="28.146298" lon="105.809892"><ele>1178.6624</ele><time>2026-08-15T23:44:05.000Z</time></trkpt>
        <trkpt lat="28.146351" lon="105.809851"><ele>1178.5623</ele><time>2026-08-15T23:44:07.000Z</time></trkpt>
        <trkpt lat="28.146355" lon="105.809847"><ele>1178.3066</ele><time>2026-08-15T23:44:09.000Z</time></trkpt>
        <trkpt lat="28.146357" lon="105.809844"><ele>1178.3628</ele><time>2026-08-15T23:44:11.000Z</time></trkpt>
        <trkpt lat="28.146387" lon="105.809795"><ele>1177.75</ele><time>2026-08-15T23:44:15.000Z</time></trkpt>
        <trkpt lat="28.14642" lon="105.809741"><ele>1178.0347</ele><time>2026-08-15T23:44:17.000Z</time></trkpt>
        <trkpt lat="28.146422" lon="105.809737"><ele>1178.4904</ele><time>2026-08-15T23:44:19.000Z</time></trkpt>
        <trkpt lat="28.146424" lon="105.809733"><ele>1178.9227</ele><time>2026-08-15T23:44:21.000Z</time></trkpt>
        <trkpt lat="28.146456" lon="105.809686"><ele>1178.8961</ele><time>2026-08-15T23:44:25.000Z</time></trkpt>
        <trkpt lat="28.146479" lon="105.809649"><ele>1178.5603</ele><time>2026-08-15T23:44:27.000Z</time></trkpt>
        <trkpt lat="28.146504" lon="105.809612"><ele>1178.8452</ele><time>2026-08-15T23:44:29.000Z</time></trkpt>
        <trkpt lat="28.146527" lon="105.809578"><ele>1179.1611</ele><time>2026-08-15T23:44:31.000Z</time></trkpt>
        <trkpt lat="28.146546" lon="105.809548"><ele>1178.728</ele><time>2026-08-15T23:44:33.000Z</time></trkpt>
        <trkpt lat="28.14656" lon="105.809523"><ele>1178.6716</ele><time>2026-08-15T23:44:35.000Z</time></trkpt>
        <trkpt lat="28.146568" lon="105.809511"><ele>1178.5269</ele><time>2026-08-15T23:44:37.000Z</time></trkpt>
        <trkpt lat="28.146573" lon="105.809508"><ele>1178.4524</ele><time>2026-08-15T23:44:39.000Z</time></trkpt>
        <trkpt lat="28.146599" lon="105.809487"><ele>1178.0372</ele><time>2026-08-15T23:44:43.000Z</time></trkpt>
        <trkpt lat="28.146614" lon="105.809472"><ele>1178.0194</ele><time>2026-08-15T23:44:45.000Z</time></trkpt>
        <trkpt lat="28.146631" lon="105.809454"><ele>1177.4194</ele><time>2026-08-15T23:44:47.000Z</time></trkpt>
        <trkpt lat="28.146643" lon="105.809438"><ele>1177.4038</ele><time>2026-08-15T23:44:49.000Z</time></trkpt>
        <trkpt lat="28.146647" lon="105.809429"><ele>1177.3136</ele><time>2026-08-15T23:44:51.000Z</time></trkpt>
        <trkpt lat="28.146651" lon="105.809426"><ele>1177.333</ele><time>2026-08-15T23:44:53.000Z</time></trkpt>
        <trkpt lat="28.146669" lon="105.809405"><ele>1175.3737</ele><time>2026-08-15T23:44:59.000Z</time></trkpt>
        <trkpt lat="28.146672" lon="105.8094"><ele>1175.9479</ele><time>2026-08-15T23:45:01.000Z</time></trkpt>
        <trkpt lat="28.146675" lon="105.809397"><ele>1176.3242</ele><time>2026-08-15T23:45:03.000Z</time></trkpt>
        <trkpt lat="28.146701" lon="105.809377"><ele>1176.9325</ele><time>2026-08-15T23:45:12.000Z</time></trkpt>
        <trkpt lat="28.146701" lon="105.809377"><ele>1176.0497</ele><time>2026-08-15T23:45:14.000Z</time></trkpt>
        <trkpt lat="28.146703" lon="105.809376"><ele>1175.2646</ele><time>2026-08-15T23:45:16.000Z</time></trkpt>
        <trkpt lat="28.146734" lon="105.809352"><ele>1174.3441</ele><time>2026-08-15T23:45:20.000Z</time></trkpt>
        <trkpt lat="28.146758" lon="105.809332"><ele>1174.5619</ele><time>2026-08-15T23:45:22.000Z</time></trkpt>
        <trkpt lat="28.146783" lon="105.809309"><ele>1174.1282</ele><time>2026-08-15T23:45:24.000Z</time></trkpt>
        <trkpt lat="28.146806" lon="105.809286"><ele>1173.943</ele><time>2026-08-15T23:45:26.000Z</time></trkpt>
        <trkpt lat="28.146828" lon="105.809262"><ele>1173.771</ele><time>2026-08-15T23:45:28.000Z</time></trkpt>
        <trkpt lat="28.14685" lon="105.809236"><ele>1173.511</ele><time>2026-08-15T23:45:30.000Z</time></trkpt>
        <trkpt lat="28.14687" lon="105.809211"><ele>1173.1874</ele><time>2026-08-15T23:45:32.000Z</time></trkpt>
        <trkpt lat="28.146888" lon="105.809186"><ele>1173.437</ele><time>2026-08-15T23:45:34.000Z</time></trkpt>
        <trkpt lat="28.146906" lon="105.80916"><ele>1173.276</ele><time>2026-08-15T23:45:36.000Z</time></trkpt>
        <trkpt lat="28.146924" lon="105.809133"><ele>1172.8456</ele><time>2026-08-15T23:45:38.000Z</time></trkpt>
        <trkpt lat="28.146941" lon="105.809106"><ele>1173.573</ele><time>2026-08-15T23:45:40.000Z</time></trkpt>
        <trkpt lat="28.146957" lon="105.809077"><ele>1173.1935</ele><time>2026-08-15T23:45:42.000Z</time></trkpt>
        <trkpt lat="28.146972" lon="105.809052"><ele>1172.7983</ele><time>2026-08-15T23:45:44.000Z</time></trkpt>
        <trkpt lat="28.146987" lon="105.809028"><ele>1172.9409</ele><time>2026-08-15T23:45:46.000Z</time></trkpt>
        <trkpt lat="28.147003" lon="105.809005"><ele>1173.2792</ele><time>2026-08-15T23:45:48.000Z</time></trkpt>
        <trkpt lat="28.147019" lon="105.808983"><ele>1173.199</ele><time>2026-08-15T23:45:50.000Z</time></trkpt>
        <trkpt lat="28.147035" lon="105.808961"><ele>1172.5856</ele><time>2026-08-15T23:45:52.000Z</time></trkpt>
        <trkpt lat="28.147053" lon="105.808937"><ele>1172.8938</ele><time>2026-08-15T23:45:54.000Z</time></trkpt>
        <trkpt lat="28.147072" lon="105.80891"><ele>1173.3201</ele><time>2026-08-15T23:45:56.000Z</time></trkpt>
        <trkpt lat="28.147091" lon="105.808886"><ele>1171.7538</ele><time>2026-08-15T23:45:58.000Z</time></trkpt>
        <trkpt lat="28.147113" lon="105.808862"><ele>1171.0898</ele><time>2026-08-15T23:46:00.000Z</time></trkpt>
        <trkpt lat="28.147135" lon="105.808838"><ele>1171.3936</ele><time>2026-08-15T23:46:02.000Z</time></trkpt>
        <trkpt lat="28.147155" lon="105.808819"><ele>1171.6702</ele><time>2026-08-15T23:46:04.000Z</time></trkpt>
        <trkpt lat="28.147173" lon="105.808801"><ele>1171.814</ele><time>2026-08-15T23:46:06.000Z</time></trkpt>
        <trkpt lat="28.14719" lon="105.808784"><ele>1171.3573</ele><time>2026-08-15T23:46:08.000Z</time></trkpt>
        <trkpt lat="28.147209" lon="105.808768"><ele>1170.7864</ele><time>2026-08-15T23:46:10.000Z</time></trkpt>
        <trkpt lat="28.147227" lon="105.808754"><ele>1170.5845</ele><time>2026-08-15T23:46:12.000Z</time></trkpt>
        <trkpt lat="28.147249" lon="105.808737"><ele>1171.5232</ele><time>2026-08-15T23:46:14.000Z</time></trkpt>
        <trkpt lat="28.147271" lon="105.80872"><ele>1171.6982</ele><time>2026-08-15T23:46:16.000Z</time></trkpt>
        <trkpt lat="28.147292" lon="105.808704"><ele>1172.6499</ele><time>2026-08-15T23:46:18.000Z</time></trkpt>
        <trkpt lat="28.147316" lon="105.808687"><ele>1173.1302</ele><time>2026-08-15T23:46:20.000Z</time></trkpt>
        <trkpt lat="28.147341" lon="105.808669"><ele>1172.2855</ele><time>2026-08-15T23:46:22.000Z</time></trkpt>
        <trkpt lat="28.147367" lon="105.808654"><ele>1172.6127</ele><time>2026-08-15T23:46:24.000Z</time></trkpt>
        <trkpt lat="28.147395" lon="105.808642"><ele>1173.6237</ele><time>2026-08-15T23:46:26.000Z</time></trkpt>
        <trkpt lat="28.147423" lon="105.808635"><ele>1173.7556</ele><time>2026-08-15T23:46:28.000Z</time></trkpt>
        <trkpt lat="28.147453" lon="105.808633"><ele>1173.3798</ele><time>2026-08-15T23:46:30.000Z</time></trkpt>
        <trkpt lat="28.147483" lon="105.808635"><ele>1173.5833</ele><time>2026-08-15T23:46:32.000Z</time></trkpt>
        <trkpt lat="28.14751" lon="105.808642"><ele>1171.5693</ele><time>2026-08-15T23:46:34.000Z</time></trkpt>
        <trkpt lat="28.147534" lon="105.808652"><ele>1171.5348</ele><time>2026-08-15T23:46:36.000Z</time></trkpt>
        <trkpt lat="28.147557" lon="105.808662"><ele>1170.8671</ele><time>2026-08-15T23:46:38.000Z</time></trkpt>
        <trkpt lat="28.14758" lon="105.808671"><ele>1170.8041</ele><time>2026-08-15T23:46:40.000Z</time></trkpt>
        <trkpt lat="28.147607" lon="105.808681"><ele>1169.8157</ele><time>2026-08-15T23:46:42.000Z</time></trkpt>
        <trkpt lat="28.147636" lon="105.808693"><ele>1169.0779</ele><time>2026-08-15T23:46:44.000Z</time></trkpt>
        <trkpt lat="28.147671" lon="105.808707"><ele>1168.4933</ele><time>2026-08-15T23:46:46.000Z</time></trkpt>
        <trkpt lat="28.14771" lon="105.808721"><ele>1168.5643</ele><time>2026-08-15T23:46:48.000Z</time></trkpt>
        <trkpt lat="28.14775" lon="105.808738"><ele>1168.4224</ele><time>2026-08-15T23:46:50.000Z</time></trkpt>
        <trkpt lat="28.14779" lon="105.808757"><ele>1168.101</ele><time>2026-08-15T23:46:52.000Z</time></trkpt>
        <trkpt lat="28.147832" lon="105.808778"><ele>1167.7504</ele><time>2026-08-15T23:46:54.000Z</time></trkpt>
        <trkpt lat="28.147875" lon="105.808804"><ele>1167.1642</ele><time>2026-08-15T23:46:56.000Z</time></trkpt>
        <trkpt lat="28.147943" lon="105.808845"><ele>1166.8652</ele><time>2026-08-15T23:46:58.000Z</time></trkpt>
        <trkpt lat="28.147948" lon="105.808848"><ele>1166.7723</ele><time>2026-08-15T23:47:00.000Z</time></trkpt>
        <trkpt lat="28.147955" lon="105.808852"><ele>1166.1282</ele><time>2026-08-15T23:47:02.000Z</time></trkpt>
        <trkpt lat="28.147983" lon="105.80887"><ele>1165.929</ele><time>2026-08-15T23:47:04.000Z</time></trkpt>
        <trkpt lat="28.148105" lon="105.80895"><ele>1165.4834</ele><time>2026-08-15T23:47:06.000Z</time></trkpt>
        <trkpt lat="28.148115" lon="105.808954"><ele>1165.4292</ele><time>2026-08-15T23:47:08.000Z</time></trkpt>
        <trkpt lat="28.148122" lon="105.808958"><ele>1165.8077</ele><time>2026-08-15T23:47:10.000Z</time></trkpt>
        <trkpt lat="28.14815" lon="105.808972"><ele>1164.7657</ele><time>2026-08-15T23:47:12.000Z</time></trkpt>
        <trkpt lat="28.148265" lon="105.809032"><ele>1164.6948</ele><time>2026-08-15T23:47:14.000Z</time></trkpt>
        <trkpt lat="28.148274" lon="105.809036"><ele>1164.9626</ele><time>2026-08-15T23:47:16.000Z</time></trkpt>
        <trkpt lat="28.148281" lon="105.80904"><ele>1164.4708</ele><time>2026-08-15T23:47:18.000Z</time></trkpt>
        <trkpt lat="28.148307" lon="105.809055"><ele>1163.0477</ele><time>2026-08-15T23:47:20.000Z</time></trkpt>
        <trkpt lat="28.148422" lon="105.809121"><ele>1162.9059</ele><time>2026-08-15T23:47:22.000Z</time></trkpt>
        <trkpt lat="28.148431" lon="105.809127"><ele>1162.1641</ele><time>2026-08-15T23:47:24.000Z</time></trkpt>
        <trkpt lat="28.148437" lon="105.80913"><ele>1162.68</ele><time>2026-08-15T23:47:26.000Z</time></trkpt>
        <trkpt lat="28.148462" lon="105.809145"><ele>1162.6213</ele><time>2026-08-15T23:47:28.000Z</time></trkpt>
        <trkpt lat="28.148576" lon="105.80921"><ele>1161.2177</ele><time>2026-08-15T23:47:30.000Z</time></trkpt>
        <trkpt lat="28.148583" lon="105.809216"><ele>1160.0444</ele><time>2026-08-15T23:47:32.000Z</time></trkpt>
        <trkpt lat="28.148589" lon="105.809221"><ele>1160.5924</ele><time>2026-08-15T23:47:34.000Z</time></trkpt>
        <trkpt lat="28.14861" lon="105.809241"><ele>1160.3328</ele><time>2026-08-15T23:47:36.000Z</time></trkpt>
        <trkpt lat="28.14871" lon="105.809336"><ele>1160.2688</ele><time>2026-08-15T23:47:38.000Z</time></trkpt>
        <trkpt lat="28.148718" lon="105.809342"><ele>1160.0024</ele><time>2026-08-15T23:47:40.000Z</time></trkpt>
        <trkpt lat="28.148724" lon="105.809346"><ele>1159.8827</ele><time>2026-08-15T23:47:42.000Z</time></trkpt>
        <trkpt lat="28.14875" lon="105.809362"><ele>1159.3002</ele><time>2026-08-15T23:47:44.000Z</time></trkpt>
        <trkpt lat="28.148864" lon="105.809433"><ele>1159.6384</ele><time>2026-08-15T23:47:46.000Z</time></trkpt>
        <trkpt lat="28.148872" lon="105.809439"><ele>1158.4155</ele><time>2026-08-15T23:47:48.000Z</time></trkpt>
        <trkpt lat="28.148877" lon="105.809444"><ele>1158.3123</ele><time>2026-08-15T23:47:50.000Z</time></trkpt>
        <trkpt lat="28.1489" lon="105.809465"><ele>1159.0895</ele><time>2026-08-15T23:47:52.000Z</time></trkpt>
        <trkpt lat="28.149006" lon="105.809563"><ele>1158.2913</ele><time>2026-08-15T23:47:54.000Z</time></trkpt>
        <trkpt lat="28.149013" lon="105.80957"><ele>1158.0112</ele><time>2026-08-15T23:47:56.000Z</time></trkpt>
        <trkpt lat="28.14902" lon="105.809577"><ele>1156.5502</ele><time>2026-08-15T23:47:58.000Z</time></trkpt>
        <trkpt lat="28.149044" lon="105.8096"><ele>1155.7744</ele><time>2026-08-15T23:48:00.000Z</time></trkpt>
        <trkpt lat="28.149153" lon="105.809703"><ele>1155.5765</ele><time>2026-08-15T23:48:02.000Z</time></trkpt>
        <trkpt lat="28.14916" lon="105.809711"><ele>1153.5491</ele><time>2026-08-15T23:48:04.000Z</time></trkpt>
        <trkpt lat="28.149166" lon="105.809719"><ele>1154.4392</ele><time>2026-08-15T23:48:06.000Z</time></trkpt>
        <trkpt lat="28.149191" lon="105.809747"><ele>1154.5599</ele><time>2026-08-15T23:48:08.000Z</time></trkpt>
        <trkpt lat="28.149293" lon="105.809864"><ele>1154.1547</ele><time>2026-08-15T23:48:10.000Z</time></trkpt>
        <trkpt lat="28.149301" lon="105.809873"><ele>1154.9673</ele><time>2026-08-15T23:48:12.000Z</time></trkpt>
        <trkpt lat="28.149307" lon="105.809879"><ele>1154.9415</ele><time>2026-08-15T23:48:14.000Z</time></trkpt>
        <trkpt lat="28.149331" lon="105.809906"><ele>1154.3323</ele><time>2026-08-15T23:48:16.000Z</time></trkpt>
        <trkpt lat="28.149442" lon="105.810027"><ele>1153.3701</ele><time>2026-08-15T23:48:18.000Z</time></trkpt>
        <trkpt lat="28.14945" lon="105.810036"><ele>1152.5808</ele><time>2026-08-15T23:48:20.000Z</time></trkpt>
        <trkpt lat="28.149455" lon="105.810041"><ele>1151.8301</ele><time>2026-08-15T23:48:22.000Z</time></trkpt>
        <trkpt lat="28.14948" lon="105.810058"><ele>1151.1515</ele><time>2026-08-15T23:48:24.000Z</time></trkpt>
        <trkpt lat="28.149593" lon="105.810138"><ele>1151.0541</ele><time>2026-08-15T23:48:26.000Z</time></trkpt>
        <trkpt lat="28.149601" lon="105.810143"><ele>1151.3032</ele><time>2026-08-15T23:48:28.000Z</time></trkpt>
        <trkpt lat="28.149608" lon="105.810145"><ele>1151.4271</ele><time>2026-08-15T23:48:30.000Z</time></trkpt>
        <trkpt lat="28.149635" lon="105.810152"><ele>1151.3406</ele><time>2026-08-15T23:48:32.000Z</time></trkpt>
        <trkpt lat="28.149755" lon="105.810183"><ele>1150.665</ele><time>2026-08-15T23:48:34.000Z</time></trkpt>
        <trkpt lat="28.149763" lon="105.810185"><ele>1150.3824</ele><time>2026-08-15T23:48:36.000Z</time></trkpt>
        <trkpt lat="28.149769" lon="105.810187"><ele>1150.733</ele><time>2026-08-15T23:48:38.000Z</time></trkpt>
        <trkpt lat="28.149837" lon="105.810208"><ele>1150.7302</ele><time>2026-08-15T23:48:42.000Z</time></trkpt>
        <trkpt lat="28.14993" lon="105.810235"><ele>1150.4359</ele><time>2026-08-15T23:48:44.000Z</time></trkpt>
        <trkpt lat="28.149937" lon="105.810236"><ele>1149.8923</ele><time>2026-08-15T23:48:46.000Z</time></trkpt>
        <trkpt lat="28.149943" lon="105.810236"><ele>1150.4594</ele><time>2026-08-15T23:48:48.000Z</time></trkpt>
        <trkpt lat="28.150019" lon="105.810236"><ele>1151.5677</ele><time>2026-08-15T23:48:52.000Z</time></trkpt>
        <trkpt lat="28.150114" lon="105.810236"><ele>1151.4879</ele><time>2026-08-15T23:48:54.000Z</time></trkpt>
        <trkpt lat="28.150121" lon="105.810236"><ele>1151.1676</ele><time>2026-08-15T23:48:56.000Z</time></trkpt>
        <trkpt lat="28.150127" lon="105.810235"><ele>1151.5625</ele><time>2026-08-15T23:48:58.000Z</time></trkpt>
        <trkpt lat="28.150207" lon="105.810232"><ele>1152.5587</ele><time>2026-08-15T23:49:02.000Z</time></trkpt>
        <trkpt lat="28.150313" lon="105.810228"><ele>1153.2341</ele><time>2026-08-15T23:49:04.000Z</time></trkpt>
        <trkpt lat="28.150321" lon="105.810228"><ele>1153.238</ele><time>2026-08-15T23:49:06.000Z</time></trkpt>
        <trkpt lat="28.150328" lon="105.810229"><ele>1153.4856</ele><time>2026-08-15T23:49:08.000Z</time></trkpt>
        <trkpt lat="28.150356" lon="105.81023"><ele>1152.8934</ele><time>2026-08-15T23:49:10.000Z</time></trkpt>
        <trkpt lat="28.150481" lon="105.810237"><ele>1153.1224</ele><time>2026-08-15T23:49:12.000Z</time></trkpt>
        <trkpt lat="28.15049" lon="105.810237"><ele>1153.7871</ele><time>2026-08-15T23:49:14.000Z</time></trkpt>
        <trkpt lat="28.150498" lon="105.810236"><ele>1152.9136</ele><time>2026-08-15T23:49:16.000Z</time></trkpt>
        <trkpt lat="28.150527" lon="105.810231"><ele>1153.0737</ele><time>2026-08-15T23:49:18.000Z</time></trkpt>
        <trkpt lat="28.150658" lon="105.81021"><ele>1153.7795</ele><time>2026-08-15T23:49:20.000Z</time></trkpt>
        <trkpt lat="28.150667" lon="105.810208"><ele>1154.1709</ele><time>2026-08-15T23:49:22.000Z</time></trkpt>
        <trkpt lat="28.150675" lon="105.810206"><ele>1155.5038</ele><time>2026-08-15T23:49:24.000Z</time></trkpt>
        <trkpt lat="28.150705" lon="105.8102"><ele>1155.7153</ele><time>2026-08-15T23:49:26.000Z</time></trkpt>
        <trkpt lat="28.150826" lon="105.810175"><ele>1156.2017</ele><time>2026-08-15T23:49:28.000Z</time></trkpt>
        <trkpt lat="28.150835" lon="105.810173"><ele>1156.6173</ele><time>2026-08-15T23:49:30.000Z</time></trkpt>
        <trkpt lat="28.150842" lon="105.810172"><ele>1157.4513</ele><time>2026-08-15T23:49:32.000Z</time></trkpt>
        <trkpt lat="28.150869" lon="105.810167"><ele>1157.6483</ele><time>2026-08-15T23:49:34.000Z</time></trkpt>
        <trkpt lat="28.150991" lon="105.810146"><ele>1157.737</ele><time>2026-08-15T23:49:36.000Z</time></trkpt>
        <trkpt lat="28.151" lon="105.810146"><ele>1157.6815</ele><time>2026-08-15T23:49:38.000Z</time></trkpt>
        <trkpt lat="28.151006" lon="105.810147"><ele>1158.2561</ele><time>2026-08-15T23:49:40.000Z</time></trkpt>
        <trkpt lat="28.151085" lon="105.810154"><ele>1159.3429</ele><time>2026-08-15T23:49:44.000Z</time></trkpt>
        <trkpt lat="28.151194" lon="105.810126"><ele>1160.6962</ele><time>2026-08-15T23:49:46.000Z</time></trkpt>
        <trkpt lat="28.151202" lon="105.810124"><ele>1160.6631</ele><time>2026-08-15T23:49:48.000Z</time></trkpt>
        <trkpt lat="28.151208" lon="105.810122"><ele>1161.3208</ele><time>2026-08-15T23:49:50.000Z</time></trkpt>
        <trkpt lat="28.151286" lon="105.810097"><ele>1161.6898</ele><time>2026-08-15T23:49:54.000Z</time></trkpt>
        <trkpt lat="28.151384" lon="105.810065"><ele>1161.9629</ele><time>2026-08-15T23:49:56.000Z</time></trkpt>
        <trkpt lat="28.151391" lon="105.810062"><ele>1161.3438</ele><time>2026-08-15T23:49:58.000Z</time></trkpt>
        <trkpt lat="28.151397" lon="105.81006"><ele>1162.6641</ele><time>2026-08-15T23:50:00.000Z</time></trkpt>
        <trkpt lat="28.151473" lon="105.810032"><ele>1164.1084</ele><time>2026-08-15T23:50:04.000Z</time></trkpt>
        <trkpt lat="28.151578" lon="105.809995"><ele>1164.9283</ele><time>2026-08-15T23:50:06.000Z</time></trkpt>
        <trkpt lat="28.151586" lon="105.809994"><ele>1164.3308</ele><time>2026-08-15T23:50:08.000Z</time></trkpt>
        <trkpt lat="28.151592" lon="105.809995"><ele>1164.4506</ele><time>2026-08-15T23:50:10.000Z</time></trkpt>
        <trkpt lat="28.151676" lon="105.810016"><ele>1164.9341</ele><time>2026-08-15T23:50:14.000Z</time></trkpt>
        <trkpt lat="28.151781" lon="105.810043"><ele>1163.3242</ele><time>2026-08-15T23:50:16.000Z</time></trkpt>
        <trkpt lat="28.151789" lon="105.810045"><ele>1163.005</ele><time>2026-08-15T23:50:18.000Z</time></trkpt>
        <trkpt lat="28.151796" lon="105.810048"><ele>1163.2136</ele><time>2026-08-15T23:50:20.000Z</time></trkpt>
        <trkpt lat="28.151825" lon="105.81006"><ele>1162.1763</ele><time>2026-08-15T23:50:22.000Z</time></trkpt>
        <trkpt lat="28.151956" lon="105.810115"><ele>1161.0044</ele><time>2026-08-15T23:50:24.000Z</time></trkpt>
        <trkpt lat="28.151966" lon="105.810118"><ele>1161.1017</ele><time>2026-08-15T23:50:26.000Z</time></trkpt>
        <trkpt lat="28.151974" lon="105.810119"><ele>1161.037</ele><time>2026-08-15T23:50:28.000Z</time></trkpt>
        <trkpt lat="28.152006" lon="105.810126"><ele>1160.2421</ele><time>2026-08-15T23:50:30.000Z</time></trkpt>
        <trkpt lat="28.152147" lon="105.810154"><ele>1160.0273</ele><time>2026-08-15T23:50:32.000Z</time></trkpt>
        <trkpt lat="28.152158" lon="105.810155"><ele>1160.49</ele><time>2026-08-15T23:50:34.000Z</time></trkpt>
        <trkpt lat="28.152166" lon="105.810155"><ele>1159.941</ele><time>2026-08-15T23:50:36.000Z</time></trkpt>
        <trkpt lat="28.152198" lon="105.810159"><ele>1160.5875</ele><time>2026-08-15T23:50:38.000Z</time></trkpt>
        <trkpt lat="28.152344" lon="105.810175"><ele>1160.0688</ele><time>2026-08-15T23:50:40.000Z</time></trkpt>
        <trkpt lat="28.152354" lon="105.810177"><ele>1160.8866</ele><time>2026-08-15T23:50:42.000Z</time></trkpt>
        <trkpt lat="28.152362" lon="105.810179"><ele>1161.1561</ele><time>2026-08-15T23:50:44.000Z</time></trkpt>
        <trkpt lat="28.152391" lon="105.810195"><ele>1162.4486</ele><time>2026-08-15T23:50:46.000Z</time></trkpt>
        <trkpt lat="28.152515" lon="105.810261"><ele>1162.398</ele><time>2026-08-15T23:50:48.000Z</time></trkpt>
        <trkpt lat="28.152523" lon="105.810267"><ele>1161.2383</ele><time>2026-08-15T23:50:50.000Z</time></trkpt>
        <trkpt lat="28.152528" lon="105.810272"><ele>1160.2677</ele><time>2026-08-15T23:50:52.000Z</time></trkpt>
        <trkpt lat="28.152552" lon="105.810297"><ele>1160.185</ele><time>2026-08-15T23:50:54.000Z</time></trkpt>
        <trkpt lat="28.152654" lon="105.810407"><ele>1161.0831</ele><time>2026-08-15T23:50:56.000Z</time></trkpt>
        <trkpt lat="28.152661" lon="105.810416"><ele>1161.5665</ele><time>2026-08-15T23:50:58.000Z</time></trkpt>
        <trkpt lat="28.152665" lon="105.810424"><ele>1159.8702</ele><time>2026-08-15T23:51:00.000Z</time></trkpt>
        <trkpt lat="28.152667" lon="105.810457"><ele>1159.9481</ele><time>2026-08-15T23:51:02.000Z</time></trkpt>
        <trkpt lat="28.152675" lon="105.810599"><ele>1160.1901</ele><time>2026-08-15T23:51:04.000Z</time></trkpt>
        <trkpt lat="28.152674" lon="105.810609"><ele>1159.5547</ele><time>2026-08-15T23:51:06.000Z</time></trkpt>
        <trkpt lat="28.15267" lon="105.810617"><ele>1159.2021</ele><time>2026-08-15T23:51:08.000Z</time></trkpt>
        <trkpt lat="28.152653" lon="105.810651"><ele>1159.7334</ele><time>2026-08-15T23:51:10.000Z</time></trkpt>
        <trkpt lat="28.152577" lon="105.810797"><ele>1158.6979</ele><time>2026-08-15T23:51:12.000Z</time></trkpt>
        <trkpt lat="28.152572" lon="105.810809"><ele>1158.2699</ele><time>2026-08-15T23:51:14.000Z</time></trkpt>
        <trkpt lat="28.15257" lon="105.810817"><ele>1158.6298</ele><time>2026-08-15T23:51:16.000Z</time></trkpt>
        <trkpt lat="28.15256" lon="105.810849"><ele>1157.7433</ele><time>2026-08-15T23:51:18.000Z</time></trkpt>
        <trkpt lat="28.152522" lon="105.810982"><ele>1157.5615</ele><time>2026-08-15T23:51:20.000Z</time></trkpt>
        <trkpt lat="28.152519" lon="105.810992"><ele>1157.3724</ele><time>2026-08-15T23:51:22.000Z</time></trkpt>
        <trkpt lat="28.152518" lon="105.810997"><ele>1156.9607</ele><time>2026-08-15T23:51:24.000Z</time></trkpt>
        <trkpt lat="28.152506" lon="105.811064"><ele>1156.5228</ele><time>2026-08-15T23:51:28.000Z</time></trkpt>
        <trkpt lat="28.152497" lon="105.81111"><ele>1156.312</ele><time>2026-08-15T23:51:30.000Z</time></trkpt>
        <trkpt lat="28.152487" lon="105.811158"><ele>1157.1107</ele><time>2026-08-15T23:51:32.000Z</time></trkpt>
        <trkpt lat="28.152481" lon="105.811203"><ele>1156.4915</ele><time>2026-08-15T23:51:34.000Z</time></trkpt>
        <trkpt lat="28.152478" lon="105.811244"><ele>1156.99</ele><time>2026-08-15T23:51:36.000Z</time></trkpt>
        <trkpt lat="28.152479" lon="105.81128"><ele>1157.9562</ele><time>2026-08-15T23:51:38.000Z</time></trkpt>
        <trkpt lat="28.152484" lon="105.81131"><ele>1158.6206</ele><time>2026-08-15T23:51:40.000Z</time></trkpt>
        <trkpt lat="28.15249" lon="105.811337"><ele>1158.5696</ele><time>2026-08-15T23:51:42.000Z</time></trkpt>
        <trkpt lat="28.152497" lon="105.811363"><ele>1158.8433</ele><time>2026-08-15T23:51:44.000Z</time></trkpt>
        <trkpt lat="28.152507" lon="105.811391"><ele>1159.704</ele><time>2026-08-15T23:51:46.000Z</time></trkpt>
        <trkpt lat="28.152518" lon="105.811417"><ele>1159.5673</ele><time>2026-08-15T23:51:48.000Z</time></trkpt>
        <trkpt lat="28.152531" lon="105.811444"><ele>1159.4266</ele><time>2026-08-15T23:51:50.000Z</time></trkpt>
        <trkpt lat="28.152546" lon="105.811471"><ele>1160.1266</ele><time>2026-08-15T23:51:52.000Z</time></trkpt>
        <trkpt lat="28.152561" lon="105.811494"><ele>1161.2178</ele><time>2026-08-15T23:51:54.000Z</time></trkpt>
        <trkpt lat="28.15258" lon="105.811517"><ele>1162.059</ele><time>2026-08-15T23:51:56.000Z</time></trkpt>
        <trkpt lat="28.152601" lon="105.811541"><ele>1163.1222</ele><time>2026-08-15T23:51:58.000Z</time></trkpt>
        <trkpt lat="28.152624" lon="105.811564"><ele>1163.6039</ele><time>2026-08-15T23:52:00.000Z</time></trkpt>
        <trkpt lat="28.152647" lon="105.811585"><ele>1163.9874</ele><time>2026-08-15T23:52:02.000Z</time></trkpt>
        <trkpt lat="28.152671" lon="105.811604"><ele>1164.3939</ele><time>2026-08-15T23:52:04.000Z</time></trkpt>
        <trkpt lat="28.152696" lon="105.81162"><ele>1165.8063</ele><time>2026-08-15T23:52:06.000Z</time></trkpt>
        <trkpt lat="28.15272" lon="105.811634"><ele>1166.5273</ele><time>2026-08-15T23:52:08.000Z</time></trkpt>
        <trkpt lat="28.152746" lon="105.811644"><ele>1167.2362</ele><time>2026-08-15T23:52:10.000Z</time></trkpt>
        <trkpt lat="28.152772" lon="105.811653"><ele>1167.9038</ele><time>2026-08-15T23:52:12.000Z</time></trkpt>
        <trkpt lat="28.152798" lon="105.81166"><ele>1167.9391</ele><time>2026-08-15T23:52:14.000Z</time></trkpt>
        <trkpt lat="28.152823" lon="105.811666"><ele>1168.158</ele><time>2026-08-15T23:52:16.000Z</time></trkpt>
        <trkpt lat="28.15285" lon="105.81167"><ele>1168.3588</ele><time>2026-08-15T23:52:18.000Z</time></trkpt>
        <trkpt lat="28.152877" lon="105.811673"><ele>1169.3076</ele><time>2026-08-15T23:52:20.000Z</time></trkpt>
        <trkpt lat="28.152903" lon="105.811676"><ele>1168.5536</ele><time>2026-08-15T23:52:22.000Z</time></trkpt>
        <trkpt lat="28.152927" lon="105.811679"><ele>1167.98</ele><time>2026-08-15T23:52:24.000Z</time></trkpt>
        <trkpt lat="28.152949" lon="105.811681"><ele>1167.2101</ele><time>2026-08-15T23:52:26.000Z</time></trkpt>
        <trkpt lat="28.152971" lon="105.811681"><ele>1167.3009</ele><time>2026-08-15T23:52:28.000Z</time></trkpt>
        <trkpt lat="28.152991" lon="105.811681"><ele>1167.635</ele><time>2026-08-15T23:52:30.000Z</time></trkpt>
        <trkpt lat="28.15301" lon="105.811683"><ele>1166.6046</ele><time>2026-08-15T23:52:32.000Z</time></trkpt>
        <trkpt lat="28.153032" lon="105.811688"><ele>1166.5521</ele><time>2026-08-15T23:52:34.000Z</time></trkpt>
        <trkpt lat="28.153055" lon="105.811692"><ele>1166.799</ele><time>2026-08-15T23:52:36.000Z</time></trkpt>
        <trkpt lat="28.153077" lon="105.811699"><ele>1167.8075</ele><time>2026-08-15T23:52:38.000Z</time></trkpt>
        <trkpt lat="28.153098" lon="105.811713"><ele>1167.817</ele><time>2026-08-15T23:52:40.000Z</time></trkpt>
        <trkpt lat="28.153118" lon="105.811732"><ele>1166.6564</ele><time>2026-08-15T23:52:42.000Z</time></trkpt>
        <trkpt lat="28.153136" lon="105.811753"><ele>1166.9277</ele><time>2026-08-15T23:52:44.000Z</time></trkpt>
        <trkpt lat="28.15315" lon="105.81178"><ele>1167.4153</ele><time>2026-08-15T23:52:46.000Z</time></trkpt>
        <trkpt lat="28.153159" lon="105.811812"><ele>1167.3135</ele><time>2026-08-15T23:52:48.000Z</time></trkpt>
        <trkpt lat="28.153164" lon="105.811846"><ele>1167.1847</ele><time>2026-08-15T23:52:50.000Z</time></trkpt>
        <trkpt lat="28.153163" lon="105.811885"><ele>1167.7839</ele><time>2026-08-15T23:52:52.000Z</time></trkpt>
        <trkpt lat="28.153158" lon="105.811923"><ele>1167.7017</ele><time>2026-08-15T23:52:54.000Z</time></trkpt>
        <trkpt lat="28.153151" lon="105.811958"><ele>1167.7769</ele><time>2026-08-15T23:52:56.000Z</time></trkpt>
        <trkpt lat="28.153144" lon="105.811986"><ele>1168.4097</ele><time>2026-08-15T23:52:58.000Z</time></trkpt>
        <trkpt lat="28.153133" lon="105.812018"><ele>1168.6577</ele><time>2026-08-15T23:53:00.000Z</time></trkpt>
        <trkpt lat="28.153121" lon="105.812051"><ele>1167.6887</ele><time>2026-08-15T23:53:02.000Z</time></trkpt>
        <trkpt lat="28.153109" lon="105.812082"><ele>1166.6547</ele><time>2026-08-15T23:53:04.000Z</time></trkpt>
        <trkpt lat="28.153099" lon="105.812113"><ele>1166.22</ele><time>2026-08-15T23:53:06.000Z</time></trkpt>
        <trkpt lat="28.153091" lon="105.812146"><ele>1166.2797</ele><time>2026-08-15T23:53:08.000Z</time></trkpt>
        <trkpt lat="28.153088" lon="105.812179"><ele>1166.3022</ele><time>2026-08-15T23:53:10.000Z</time></trkpt>
        <trkpt lat="28.15309" lon="105.812212"><ele>1165.6292</ele><time>2026-08-15T23:53:12.000Z</time></trkpt>
        <trkpt lat="28.153096" lon="105.812243"><ele>1165.7937</ele><time>2026-08-15T23:53:14.000Z</time></trkpt>
        <trkpt lat="28.153107" lon="105.81227"><ele>1165.9546</ele><time>2026-08-15T23:53:16.000Z</time></trkpt>
        <trkpt lat="28.153121" lon="105.812291"><ele>1166.2131</ele><time>2026-08-15T23:53:18.000Z</time></trkpt>
        <trkpt lat="28.153142" lon="105.812312"><ele>1165.0488</ele><time>2026-08-15T23:53:20.000Z</time></trkpt>
        <trkpt lat="28.153166" lon="105.812329"><ele>1164.7754</ele><time>2026-08-15T23:53:22.000Z</time></trkpt>
        <trkpt lat="28.15319" lon="105.812341"><ele>1165.4575</ele><time>2026-08-15T23:53:24.000Z</time></trkpt>
        <trkpt lat="28.153214" lon="105.812348"><ele>1165.3551</ele><time>2026-08-15T23:53:26.000Z</time></trkpt>
        <trkpt lat="28.153238" lon="105.812352"><ele>1165.4506</ele><time>2026-08-15T23:53:27.000Z</time></trkpt>
        <trkpt lat="28.153264" lon="105.812353"><ele>1166.2426</ele><time>2026-08-15T23:53:29.000Z</time></trkpt>
        <trkpt lat="28.153291" lon="105.812352"><ele>1166.3357</ele><time>2026-08-15T23:53:31.000Z</time></trkpt>
        <trkpt lat="28.153318" lon="105.81235"><ele>1166.4387</ele><time>2026-08-15T23:53:33.000Z</time></trkpt>
        <trkpt lat="28.153342" lon="105.81235"><ele>1166.8793</ele><time>2026-08-15T23:53:36.000Z</time></trkpt>
        <trkpt lat="28.153366" lon="105.81235"><ele>1167.4443</ele><time>2026-08-15T23:53:38.000Z</time></trkpt>
        <trkpt lat="28.153387" lon="105.812352"><ele>1168.716</ele><time>2026-08-15T23:53:40.000Z</time></trkpt>
        <trkpt lat="28.153409" lon="105.812359"><ele>1169.2881</ele><time>2026-08-15T23:53:42.000Z</time></trkpt>
        <trkpt lat="28.153424" lon="105.81237"><ele>1169.5093</ele><time>2026-08-15T23:53:44.000Z</time></trkpt>
        <trkpt lat="28.153436" lon="105.812385"><ele>1169.3989</ele><time>2026-08-15T23:53:46.000Z</time></trkpt>
        <trkpt lat="28.153452" lon="105.812408"><ele>1169.1526</ele><time>2026-08-15T23:53:48.000Z</time></trkpt>
        <trkpt lat="28.153467" lon="105.812432"><ele>1168.5518</ele><time>2026-08-15T23:53:50.000Z</time></trkpt>
        <trkpt lat="28.153483" lon="105.812455"><ele>1167.754</ele><time>2026-08-15T23:53:52.000Z</time></trkpt>
        <trkpt lat="28.153499" lon="105.812476"><ele>1167.119</ele><time>2026-08-15T23:53:54.000Z</time></trkpt>
        <trkpt lat="28.153519" lon="105.8125"><ele>1166.6985</ele><time>2026-08-15T23:53:56.000Z</time></trkpt>
        <trkpt lat="28.153538" lon="105.812519"><ele>1166.9469</ele><time>2026-08-15T23:53:58.000Z</time></trkpt>
        <trkpt lat="28.15356" lon="105.812539"><ele>1168.2609</ele><time>2026-08-15T23:54:00.000Z</time></trkpt>
        <trkpt lat="28.153581" lon="105.812559"><ele>1167.7167</ele><time>2026-08-15T23:54:02.000Z</time></trkpt>
        <trkpt lat="28.1536" lon="105.81258"><ele>1166.7974</ele><time>2026-08-15T23:54:04.000Z</time></trkpt>
        <trkpt lat="28.153617" lon="105.8126"><ele>1165.9622</ele><time>2026-08-15T23:54:06.000Z</time></trkpt>
        <trkpt lat="28.153635" lon="105.812621"><ele>1165.1311</ele><time>2026-08-15T23:54:08.000Z</time></trkpt>
        <trkpt lat="28.153654" lon="105.812643"><ele>1164.905</ele><time>2026-08-15T23:54:10.000Z</time></trkpt>
        <trkpt lat="28.153673" lon="105.812665"><ele>1164.4806</ele><time>2026-08-15T23:54:12.000Z</time></trkpt>
        <trkpt lat="28.153691" lon="105.812685"><ele>1164.6658</ele><time>2026-08-15T23:54:14.000Z</time></trkpt>
        <trkpt lat="28.153712" lon="105.812707"><ele>1164.476</ele><time>2026-08-15T23:54:16.000Z</time></trkpt>
        <trkpt lat="28.153732" lon="105.812727"><ele>1164.0488</ele><time>2026-08-15T23:54:18.000Z</time></trkpt>
        <trkpt lat="28.153754" lon="105.812743"><ele>1164.5359</ele><time>2026-08-15T23:54:20.000Z</time></trkpt>
        <trkpt lat="28.153777" lon="105.812755"><ele>1165.7844</ele><time>2026-08-15T23:54:22.000Z</time></trkpt>
        <trkpt lat="28.153799" lon="105.812762"><ele>1166.3577</ele><time>2026-08-15T23:54:24.000Z</time></trkpt>
        <trkpt lat="28.153827" lon="105.812767"><ele>1166.8344</ele><time>2026-08-15T23:54:26.000Z</time></trkpt>
        <trkpt lat="28.153853" lon="105.81277"><ele>1167.1263</ele><time>2026-08-15T23:54:28.000Z</time></trkpt>
        <trkpt lat="28.153881" lon="105.812775"><ele>1167.261</ele><time>2026-08-15T23:54:30.000Z</time></trkpt>
        <trkpt lat="28.153906" lon="105.812782"><ele>1167.9188</ele><time>2026-08-15T23:54:32.000Z</time></trkpt>
        <trkpt lat="28.153928" lon="105.812788"><ele>1168.2876</ele><time>2026-08-15T23:54:34.000Z</time></trkpt>
        <trkpt lat="28.153951" lon="105.812793"><ele>1167.821</ele><time>2026-08-15T23:54:36.000Z</time></trkpt>
        <trkpt lat="28.153977" lon="105.812798"><ele>1168.2738</ele><time>2026-08-15T23:54:38.000Z</time></trkpt>
        <trkpt lat="28.154004" lon="105.812802"><ele>1167.7819</ele><time>2026-08-15T23:54:40.000Z</time></trkpt>
        <trkpt lat="28.15403" lon="105.812809"><ele>1167.8593</ele><time>2026-08-15T23:54:42.000Z</time></trkpt>
        <trkpt lat="28.154057" lon="105.812818"><ele>1167.4772</ele><time>2026-08-15T23:54:44.000Z</time></trkpt>
        <trkpt lat="28.154082" lon="105.812828"><ele>1167.9747</ele><time>2026-08-15T23:54:46.000Z</time></trkpt>
        <trkpt lat="28.15411" lon="105.812838"><ele>1168.4873</ele><time>2026-08-15T23:54:48.000Z</time></trkpt>
        <trkpt lat="28.154135" lon="105.812845"><ele>1168.7838</ele><time>2026-08-15T23:54:50.000Z</time></trkpt>
        <trkpt lat="28.154157" lon="105.812847"><ele>1168.7977</ele><time>2026-08-15T23:54:52.000Z</time></trkpt>
        <trkpt lat="28.154182" lon="105.812848"><ele>1168.5994</ele><time>2026-08-15T23:54:54.000Z</time></trkpt>
        <trkpt lat="28.154203" lon="105.812843"><ele>1168.9244</ele><time>2026-08-15T23:54:56.000Z</time></trkpt>
        <trkpt lat="28.154225" lon="105.812837"><ele>1168.0165</ele><time>2026-08-15T23:54:58.000Z</time></trkpt>
        <trkpt lat="28.154252" lon="105.812826"><ele>1168.3655</ele><time>2026-08-15T23:55:00.000Z</time></trkpt>
        <trkpt lat="28.154279" lon="105.812813"><ele>1168.7191</ele><time>2026-08-15T23:55:02.000Z</time></trkpt>
        <trkpt lat="28.154304" lon="105.812797"><ele>1168.9392</ele><time>2026-08-15T23:55:04.000Z</time></trkpt>
        <trkpt lat="28.154327" lon="105.81278"><ele>1167.9626</ele><time>2026-08-15T23:55:06.000Z</time></trkpt>
        <trkpt lat="28.154349" lon="105.812763"><ele>1167.0833</ele><time>2026-08-15T23:55:08.000Z</time></trkpt>
        <trkpt lat="28.154372" lon="105.812746"><ele>1167.1484</ele><time>2026-08-15T23:55:10.000Z</time></trkpt>
        <trkpt lat="28.154392" lon="105.812727"><ele>1166.3611</ele><time>2026-08-15T23:55:12.000Z</time></trkpt>
        <trkpt lat="28.154416" lon="105.812705"><ele>1166.8397</ele><time>2026-08-15T23:55:14.000Z</time></trkpt>
        <trkpt lat="28.154437" lon="105.812683"><ele>1166.5465</ele><time>2026-08-15T23:55:16.000Z</time></trkpt>
        <trkpt lat="28.154458" lon="105.812659"><ele>1166.6622</ele><time>2026-08-15T23:55:18.000Z</time></trkpt>
        <trkpt lat="28.15448" lon="105.812633"><ele>1166.6001</ele><time>2026-08-15T23:55:20.000Z</time></trkpt>
        <trkpt lat="28.154502" lon="105.812607"><ele>1167.1056</ele><time>2026-08-15T23:55:22.000Z</time></trkpt>
        <trkpt lat="28.154526" lon="105.812581"><ele>1167.8901</ele><time>2026-08-15T23:55:24.000Z</time></trkpt>
        <trkpt lat="28.154552" lon="105.812558"><ele>1167.9279</ele><time>2026-08-15T23:55:26.000Z</time></trkpt>
        <trkpt lat="28.154577" lon="105.812541"><ele>1167.8026</ele><time>2026-08-15T23:55:28.000Z</time></trkpt>
        <trkpt lat="28.154601" lon="105.812535"><ele>1167.3142</ele><time>2026-08-15T23:55:30.000Z</time></trkpt>
        <trkpt lat="28.154626" lon="105.812534"><ele>1167.079</ele><time>2026-08-15T23:55:32.000Z</time></trkpt>
        <trkpt lat="28.154654" lon="105.812532"><ele>1165.7529</ele><time>2026-08-15T23:55:34.000Z</time></trkpt>
        <trkpt lat="28.154684" lon="105.812528"><ele>1166.3522</ele><time>2026-08-15T23:55:36.000Z</time></trkpt>
        <trkpt lat="28.154713" lon="105.81252"><ele>1166.9421</ele><time>2026-08-15T23:55:38.000Z</time></trkpt>
        <trkpt lat="28.154743" lon="105.81251"><ele>1167.9681</ele><time>2026-08-15T23:55:40.000Z</time></trkpt>
        <trkpt lat="28.154773" lon="105.812499"><ele>1166.9658</ele><time>2026-08-15T23:55:42.000Z</time></trkpt>
        <trkpt lat="28.154803" lon="105.812487"><ele>1166.9242</ele><time>2026-08-15T23:55:44.000Z</time></trkpt>
        <trkpt lat="28.154831" lon="105.812476"><ele>1167.0251</ele><time>2026-08-15T23:55:46.000Z</time></trkpt>
        <trkpt lat="28.154858" lon="105.812466"><ele>1167.4073</ele><time>2026-08-15T23:55:48.000Z</time></trkpt>
        <trkpt lat="28.154884" lon="105.812456"><ele>1168.0435</ele><time>2026-08-15T23:55:50.000Z</time></trkpt>
        <trkpt lat="28.15491" lon="105.812447"><ele>1168.9435</ele><time>2026-08-15T23:55:52.000Z</time></trkpt>
        <trkpt lat="28.154937" lon="105.812437"><ele>1168.5599</ele><time>2026-08-15T23:55:54.000Z</time></trkpt>
        <trkpt lat="28.154962" lon="105.812425"><ele>1168.9291</ele><time>2026-08-15T23:55:56.000Z</time></trkpt>
        <trkpt lat="28.154989" lon="105.812413"><ele>1169.5587</ele><time>2026-08-15T23:55:58.000Z</time></trkpt>
        <trkpt lat="28.155016" lon="105.812405"><ele>1169.7466</ele><time>2026-08-15T23:56:00.000Z</time></trkpt>
        <trkpt lat="28.155042" lon="105.812401"><ele>1170.1794</ele><time>2026-08-15T23:56:02.000Z</time></trkpt>
        <trkpt lat="28.155067" lon="105.812403"><ele>1171.2911</ele><time>2026-08-15T23:56:04.000Z</time></trkpt>
        <trkpt lat="28.155091" lon="105.812408"><ele>1168.8818</ele><time>2026-08-15T23:56:06.000Z</time></trkpt>
        <trkpt lat="28.155112" lon="105.812413"><ele>1168.8951</ele><time>2026-08-15T23:56:08.000Z</time></trkpt>
        <trkpt lat="28.155132" lon="105.812417"><ele>1168.0425</ele><time>2026-08-15T23:56:10.000Z</time></trkpt>
        <trkpt lat="28.155158" lon="105.81242"><ele>1167.4097</ele><time>2026-08-15T23:56:12.000Z</time></trkpt>
        <trkpt lat="28.155187" lon="105.812422"><ele>1167.9208</ele><time>2026-08-15T23:56:14.000Z</time></trkpt>
        <trkpt lat="28.155217" lon="105.812424"><ele>1167.0956</ele><time>2026-08-15T23:56:16.000Z</time></trkpt>
        <trkpt lat="28.155247" lon="105.812427"><ele>1167.227</ele><time>2026-08-15T23:56:18.000Z</time></trkpt>
        <trkpt lat="28.155276" lon="105.812432"><ele>1166.0175</ele><time>2026-08-15T23:56:20.000Z</time></trkpt>
        <trkpt lat="28.155306" lon="105.812436"><ele>1166.2506</ele><time>2026-08-15T23:56:22.000Z</time></trkpt>
        <trkpt lat="28.155335" lon="105.81244"><ele>1166.5173</ele><time>2026-08-15T23:56:24.000Z</time></trkpt>
        <trkpt lat="28.155358" lon="105.812445"><ele>1167.1332</ele><time>2026-08-15T23:56:26.000Z</time></trkpt>
        <trkpt lat="28.155382" lon="105.812451"><ele>1165.2585</ele><time>2026-08-15T23:56:28.000Z</time></trkpt>
        <trkpt lat="28.155408" lon="105.812459"><ele>1164.7018</ele><time>2026-08-15T23:56:30.000Z</time></trkpt>
        <trkpt lat="28.155436" lon="105.81247"><ele>1165.0394</ele><time>2026-08-15T23:56:32.000Z</time></trkpt>
        <trkpt lat="28.155464" lon="105.812479"><ele>1164.9237</ele><time>2026-08-15T23:56:34.000Z</time></trkpt>
        <trkpt lat="28.155492" lon="105.812486"><ele>1164.0767</ele><time>2026-08-15T23:56:36.000Z</time></trkpt>
        <trkpt lat="28.15552" lon="105.812493"><ele>1163.0581</ele><time>2026-08-15T23:56:38.000Z</time></trkpt>
        <trkpt lat="28.155546" lon="105.8125"><ele>1162.1913</ele><time>2026-08-15T23:56:40.000Z</time></trkpt>
        <trkpt lat="28.155573" lon="105.812508"><ele>1162.433</ele><time>2026-08-15T23:56:42.000Z</time></trkpt>
        <trkpt lat="28.1556" lon="105.812518"><ele>1162.1412</ele><time>2026-08-15T23:56:44.000Z</time></trkpt>
        <trkpt lat="28.155629" lon="105.81253"><ele>1162.9653</ele><time>2026-08-15T23:56:46.000Z</time></trkpt>
        <trkpt lat="28.155657" lon="105.812544"><ele>1164.629</ele><time>2026-08-15T23:56:48.000Z</time></trkpt>
        <trkpt lat="28.155685" lon="105.812556"><ele>1165.1167</ele><time>2026-08-15T23:56:50.000Z</time></trkpt>
        <trkpt lat="28.155712" lon="105.81257"><ele>1166.0798</ele><time>2026-08-15T23:56:52.000Z</time></trkpt>
        <trkpt lat="28.155737" lon="105.812585"><ele>1166.454</ele><time>2026-08-15T23:56:54.000Z</time></trkpt>
        <trkpt lat="28.155759" lon="105.812602"><ele>1166.7767</ele><time>2026-08-15T23:56:56.000Z</time></trkpt>
        <trkpt lat="28.155778" lon="105.812621"><ele>1166.9535</ele><time>2026-08-15T23:56:58.000Z</time></trkpt>
        <trkpt lat="28.155793" lon="105.812642"><ele>1165.2147</ele><time>2026-08-15T23:57:00.000Z</time></trkpt>
        <trkpt lat="28.155807" lon="105.812667"><ele>1164.8546</ele><time>2026-08-15T23:57:02.000Z</time></trkpt>
        <trkpt lat="28.155818" lon="105.812695"><ele>1163.4313</ele><time>2026-08-15T23:57:04.000Z</time></trkpt>
        <trkpt lat="28.155826" lon="105.812726"><ele>1163.0486</ele><time>2026-08-15T23:57:06.000Z</time></trkpt>
        <trkpt lat="28.155826" lon="105.812758"><ele>1160.3302</ele><time>2026-08-15T23:57:08.000Z</time></trkpt>
        <trkpt lat="28.155819" lon="105.812791"><ele>1160.2834</ele><time>2026-08-15T23:57:10.000Z</time></trkpt>
        <trkpt lat="28.155809" lon="105.812826"><ele>1158.9274</ele><time>2026-08-15T23:57:12.000Z</time></trkpt>
        <trkpt lat="28.155799" lon="105.812861"><ele>1158.0282</ele><time>2026-08-15T23:57:14.000Z</time></trkpt>
        <trkpt lat="28.155788" lon="105.812895"><ele>1159.369</ele><time>2026-08-15T23:57:16.000Z</time></trkpt>
        <trkpt lat="28.155775" lon="105.812927"><ele>1158.2198</ele><time>2026-08-15T23:57:18.000Z</time></trkpt>
        <trkpt lat="28.155762" lon="105.812956"><ele>1157.7739</ele><time>2026-08-15T23:57:20.000Z</time></trkpt>
        <trkpt lat="28.155748" lon="105.812981"><ele>1157.1418</ele><time>2026-08-15T23:57:22.000Z</time></trkpt>
        <trkpt lat="28.155733" lon="105.813005"><ele>1156.823</ele><time>2026-08-15T23:57:24.000Z</time></trkpt>
        <trkpt lat="28.155719" lon="105.813031"><ele>1155.4846</ele><time>2026-08-15T23:57:26.000Z</time></trkpt>
        <trkpt lat="28.155708" lon="105.813059"><ele>1155.2885</ele><time>2026-08-15T23:57:28.000Z</time></trkpt>
        <trkpt lat="28.155699" lon="105.813088"><ele>1155.2019</ele><time>2026-08-15T23:57:30.000Z</time></trkpt>
        <trkpt lat="28.155693" lon="105.813119"><ele>1154.2198</ele><time>2026-08-15T23:57:32.000Z</time></trkpt>
        <trkpt lat="28.155688" lon="105.813149"><ele>1152.3671</ele><time>2026-08-15T23:57:34.000Z</time></trkpt>
        <trkpt lat="28.155684" lon="105.81318"><ele>1152.5128</ele><time>2026-08-15T23:57:36.000Z</time></trkpt>
        <trkpt lat="28.155683" lon="105.81321"><ele>1152.6445</ele><time>2026-08-15T23:57:38.000Z</time></trkpt>
        <trkpt lat="28.155686" lon="105.81324"><ele>1151.4886</ele><time>2026-08-15T23:57:40.000Z</time></trkpt>
        <trkpt lat="28.155689" lon="105.813268"><ele>1151.0928</ele><time>2026-08-15T23:57:42.000Z</time></trkpt>
        <trkpt lat="28.155692" lon="105.813296"><ele>1150.9303</ele><time>2026-08-15T23:57:44.000Z</time></trkpt>
        <trkpt lat="28.155695" lon="105.813323"><ele>1151.5065</ele><time>2026-08-15T23:57:46.000Z</time></trkpt>
        <trkpt lat="28.155697" lon="105.813348"><ele>1151.4945</ele><time>2026-08-15T23:57:48.000Z</time></trkpt>
        <trkpt lat="28.155697" lon="105.813375"><ele>1152.7196</ele><time>2026-08-15T23:57:50.000Z</time></trkpt>
        <trkpt lat="28.155696" lon="105.813405"><ele>1152.8073</ele><time>2026-08-15T23:57:52.000Z</time></trkpt>
        <trkpt lat="28.155692" lon="105.813435"><ele>1151.832</ele><time>2026-08-15T23:57:54.000Z</time></trkpt>
        <trkpt lat="28.155689" lon="105.813463"><ele>1151.9661</ele><time>2026-08-15T23:57:56.000Z</time></trkpt>
        <trkpt lat="28.155688" lon="105.813492"><ele>1151.8572</ele><time>2026-08-15T23:57:58.000Z</time></trkpt>
        <trkpt lat="28.155693" lon="105.813523"><ele>1150.7668</ele><time>2026-08-15T23:58:00.000Z</time></trkpt>
        <trkpt lat="28.155702" lon="105.813554"><ele>1150.5453</ele><time>2026-08-15T23:58:02.000Z</time></trkpt>
        <trkpt lat="28.155714" lon="105.81358"><ele>1150.0726</ele><time>2026-08-15T23:58:04.000Z</time></trkpt>
        <trkpt lat="28.15573" lon="105.813599"><ele>1151.7341</ele><time>2026-08-15T23:58:06.000Z</time></trkpt>
        <trkpt lat="28.155749" lon="105.813613"><ele>1152.1019</ele><time>2026-08-15T23:58:08.000Z</time></trkpt>
        <trkpt lat="28.155773" lon="105.813621"><ele>1152.4338</ele><time>2026-08-15T23:58:10.000Z</time></trkpt>
        <trkpt lat="28.155793" lon="105.813624"><ele>1152.1725</ele><time>2026-08-15T23:58:12.000Z</time></trkpt>
        <trkpt lat="28.155812" lon="105.813625"><ele>1153.6201</ele><time>2026-08-15T23:58:14.000Z</time></trkpt>
        <trkpt lat="28.155824" lon="105.813628"><ele>1153.2635</ele><time>2026-08-15T23:58:16.000Z</time></trkpt>
        <trkpt lat="28.155839" lon="105.813636"><ele>1154.226</ele><time>2026-08-15T23:58:18.000Z</time></trkpt>
        <trkpt lat="28.155856" lon="105.813647"><ele>1155.162</ele><time>2026-08-15T23:58:20.000Z</time></trkpt>
        <trkpt lat="28.155878" lon="105.813664"><ele>1156.3054</ele><time>2026-08-15T23:58:22.000Z</time></trkpt>
        <trkpt lat="28.155902" lon="105.813681"><ele>1156.6404</ele><time>2026-08-15T23:58:24.000Z</time></trkpt>
        <trkpt lat="28.155927" lon="105.813695"><ele>1156.8514</ele><time>2026-08-15T23:58:26.000Z</time></trkpt>
        <trkpt lat="28.155951" lon="105.813702"><ele>1156.2975</ele><time>2026-08-15T23:58:28.000Z</time></trkpt>
        <trkpt lat="28.155971" lon="105.813703"><ele>1156.8477</ele><time>2026-08-15T23:58:30.000Z</time></trkpt>
        <trkpt lat="28.155988" lon="105.813697"><ele>1157.3026</ele><time>2026-08-15T23:58:32.000Z</time></trkpt>
        <trkpt lat="28.156001" lon="105.813683"><ele>1156.9269</ele><time>2026-08-15T23:58:34.000Z</time></trkpt>
        <trkpt lat="28.156014" lon="105.813661"><ele>1156.4381</ele><time>2026-08-15T23:58:36.000Z</time></trkpt>
        <trkpt lat="28.156025" lon="105.813637"><ele>1156.4695</ele><time>2026-08-15T23:58:38.000Z</time></trkpt>
        <trkpt lat="28.156035" lon="105.813612"><ele>1156.4664</ele><time>2026-08-15T23:58:40.000Z</time></trkpt>
        <trkpt lat="28.156044" lon="105.813588"><ele>1156.5868</ele><time>2026-08-15T23:58:42.000Z</time></trkpt>
        <trkpt lat="28.156054" lon="105.813564"><ele>1156.2837</ele><time>2026-08-15T23:58:44.000Z</time></trkpt>
        <trkpt lat="28.156064" lon="105.813542"><ele>1155.9299</ele><time>2026-08-15T23:58:46.000Z</time></trkpt>
        <trkpt lat="28.156074" lon="105.813519"><ele>1156.4484</ele><time>2026-08-15T23:58:48.000Z</time></trkpt>
        <trkpt lat="28.156085" lon="105.813495"><ele>1156.6471</ele><time>2026-08-15T23:58:50.000Z</time></trkpt>
        <trkpt lat="28.156096" lon="105.813472"><ele>1156.9164</ele><time>2026-08-15T23:58:52.000Z</time></trkpt>
        <trkpt lat="28.156107" lon="105.813449"><ele>1157.2117</ele><time>2026-08-15T23:58:54.000Z</time></trkpt>
        <trkpt lat="28.156118" lon="105.813425"><ele>1157.4934</ele><time>2026-08-15T23:58:56.000Z</time></trkpt>
        <trkpt lat="28.156131" lon="105.813399"><ele>1158.8899</ele><time>2026-08-15T23:58:58.000Z</time></trkpt>
        <trkpt lat="28.156144" lon="105.813374"><ele>1158.376</ele><time>2026-08-15T23:59:00.000Z</time></trkpt>
        <trkpt lat="28.156157" lon="105.813351"><ele>1159.1759</ele><time>2026-08-15T23:59:02.000Z</time></trkpt>
        <trkpt lat="28.156173" lon="105.813328"><ele>1158.7264</ele><time>2026-08-15T23:59:04.000Z</time></trkpt>
        <trkpt lat="28.15619" lon="105.813307"><ele>1159.9385</ele><time>2026-08-15T23:59:06.000Z</time></trkpt>
        <trkpt lat="28.15621" lon="105.81329"><ele>1160.1147</ele><time>2026-08-15T23:59:08.000Z</time></trkpt>
        <trkpt lat="28.156232" lon="105.813276"><ele>1160.6495</ele><time>2026-08-15T23:59:10.000Z</time></trkpt>
        <trkpt lat="28.156257" lon="105.813265"><ele>1161.1713</ele><time>2026-08-15T23:59:12.000Z</time></trkpt>
        <trkpt lat="28.156283" lon="105.813257"><ele>1161.0162</ele><time>2026-08-15T23:59:14.000Z</time></trkpt>
        <trkpt lat="28.156308" lon="105.813253"><ele>1161.2365</ele><time>2026-08-15T23:59:16.000Z</time></trkpt>
        <trkpt lat="28.156335" lon="105.813255"><ele>1161.0625</ele><time>2026-08-15T23:59:18.000Z</time></trkpt>
        <trkpt lat="28.156363" lon="105.81326"><ele>1161.7751</ele><time>2026-08-15T23:59:20.000Z</time></trkpt>
        <trkpt lat="28.156392" lon="105.813269"><ele>1163.4193</ele><time>2026-08-15T23:59:22.000Z</time></trkpt>
        <trkpt lat="28.156419" lon="105.81328"><ele>1164.3293</ele><time>2026-08-15T23:59:24.000Z</time></trkpt>
        <trkpt lat="28.156445" lon="105.813293"><ele>1164.8411</ele><time>2026-08-15T23:59:26.000Z</time></trkpt>
        <trkpt lat="28.15647" lon="105.813309"><ele>1165.4716</ele><time>2026-08-15T23:59:28.000Z</time></trkpt>
        <trkpt lat="28.156493" lon="105.813327"><ele>1164.5721</ele><time>2026-08-15T23:59:30.000Z</time></trkpt>
        <trkpt lat="28.156516" lon="105.813346"><ele>1164.3545</ele><time>2026-08-15T23:59:32.000Z</time></trkpt>
        <trkpt lat="28.156538" lon="105.813365"><ele>1164.4109</ele><time>2026-08-15T23:59:34.000Z</time></trkpt>
        <trkpt lat="28.15656" lon="105.813383"><ele>1163.9904</ele><time>2026-08-15T23:59:36.000Z</time></trkpt>
        <trkpt lat="28.156581" lon="105.813402"><ele>1163.0836</ele><time>2026-08-15T23:59:38.000Z</time></trkpt>
        <trkpt lat="28.156602" lon="105.813422"><ele>1163.0924</ele><time>2026-08-15T23:59:40.000Z</time></trkpt>
        <trkpt lat="28.156623" lon="105.813442"><ele>1163.7821</ele><time>2026-08-15T23:59:42.000Z</time></trkpt>
        <trkpt lat="28.156644" lon="105.813461"><ele>1163.4185</ele><time>2026-08-15T23:59:44.000Z</time></trkpt>
        <trkpt lat="28.156665" lon="105.81348"><ele>1163.8414</ele><time>2026-08-15T23:59:46.000Z</time></trkpt>
        <trkpt lat="28.156684" lon="105.813495"><ele>1163.9272</ele><time>2026-08-15T23:59:48.000Z</time></trkpt>
        <trkpt lat="28.156705" lon="105.813511"><ele>1163.2805</ele><time>2026-08-15T23:59:50.000Z</time></trkpt>
        <trkpt lat="28.156727" lon="105.813527"><ele>1163.4467</ele><time>2026-08-15T23:59:52.000Z</time></trkpt>
        <trkpt lat="28.156747" lon="105.813542"><ele>1164.0928</ele><time>2026-08-15T23:59:54.000Z</time></trkpt>
        <trkpt lat="28.156768" lon="105.813559"><ele>1164.5793</ele><time>2026-08-15T23:59:56.000Z</time></trkpt>
        <trkpt lat="28.156788" lon="105.813576"><ele>1163.9053</ele><time>2026-08-15T23:59:58.000Z</time></trkpt>
        <trkpt lat="28.156808" lon="105.813595"><ele>1164.1072</ele><time>2026-08-16T00:00:00.000Z</time></trkpt>
        <trkpt lat="28.156825" lon="105.813612"><ele>1164.3434</ele><time>2026-08-16T00:00:02.000Z</time></trkpt>
        <trkpt lat="28.156843" lon="105.81363"><ele>1164.6133</ele><time>2026-08-16T00:00:04.000Z</time></trkpt>
        <trkpt lat="28.156862" lon="105.813647"><ele>1164.4384</ele><time>2026-08-16T00:00:06.000Z</time></trkpt>
        <trkpt lat="28.156883" lon="105.813665"><ele>1164.5386</ele><time>2026-08-16T00:00:08.000Z</time></trkpt>
        <trkpt lat="28.156903" lon="105.813683"><ele>1164.4382</ele><time>2026-08-16T00:00:10.000Z</time></trkpt>
        <trkpt lat="28.156924" lon="105.813699"><ele>1164.2529</ele><time>2026-08-16T00:00:12.000Z</time></trkpt>
        <trkpt lat="28.156944" lon="105.813711"><ele>1164.4594</ele><time>2026-08-16T00:00:14.000Z</time></trkpt>
        <trkpt lat="28.156966" lon="105.813721"><ele>1164.8392</ele><time>2026-08-16T00:00:16.000Z</time></trkpt>
        <trkpt lat="28.156989" lon="105.813728"><ele>1165.3745</ele><time>2026-08-16T00:00:18.000Z</time></trkpt>
        <trkpt lat="28.157014" lon="105.813734"><ele>1165.0099</ele><time>2026-08-16T00:00:20.000Z</time></trkpt>
        <trkpt lat="28.157041" lon="105.813735"><ele>1165.5736</ele><time>2026-08-16T00:00:22.000Z</time></trkpt>
        <trkpt lat="28.157068" lon="105.813733"><ele>1165.8949</ele><time>2026-08-16T00:00:24.000Z</time></trkpt>
        <trkpt lat="28.157091" lon="105.813727"><ele>1166.8451</ele><time>2026-08-16T00:00:26.000Z</time></trkpt>
        <trkpt lat="28.157111" lon="105.813719"><ele>1167.5294</ele><time>2026-08-16T00:00:28.000Z</time></trkpt>
        <trkpt lat="28.157128" lon="105.813709"><ele>1167.9379</ele><time>2026-08-16T00:00:30.000Z</time></trkpt>
        <trkpt lat="28.157146" lon="105.813695"><ele>1168.3295</ele><time>2026-08-16T00:00:32.000Z</time></trkpt>
        <trkpt lat="28.157161" lon="105.813681"><ele>1167.9994</ele><time>2026-08-16T00:00:34.000Z</time></trkpt>
        <trkpt lat="28.157177" lon="105.813668"><ele>1168.4296</ele><time>2026-08-16T00:00:36.000Z</time></trkpt>
        <trkpt lat="28.157194" lon="105.813656"><ele>1168.7291</ele><time>2026-08-16T00:00:38.000Z</time></trkpt>
        <trkpt lat="28.157213" lon="105.813644"><ele>1169.031</ele><time>2026-08-16T00:00:40.000Z</time></trkpt>
        <trkpt lat="28.157232" lon="105.813638"><ele>1168.9431</ele><time>2026-08-16T00:00:42.000Z</time></trkpt>
        <trkpt lat="28.15725" lon="105.813634"><ele>1168.7394</ele><time>2026-08-16T00:00:44.000Z</time></trkpt>
        <trkpt lat="28.157272" lon="105.813629"><ele>1169.3121</ele><time>2026-08-16T00:00:46.000Z</time></trkpt>
        <trkpt lat="28.157293" lon="105.813622"><ele>1170.8303</ele><time>2026-08-16T00:00:48.000Z</time></trkpt>
        <trkpt lat="28.157312" lon="105.813612"><ele>1172.3984</ele><time>2026-08-16T00:00:50.000Z</time></trkpt>
        <trkpt lat="28.15733" lon="105.813598"><ele>1173.527</ele><time>2026-08-16T00:00:52.000Z</time></trkpt>
        <trkpt lat="28.157345" lon="105.813578"><ele>1174.1791</ele><time>2026-08-16T00:00:54.000Z</time></trkpt>
        <trkpt lat="28.157356" lon="105.813553"><ele>1175.9552</ele><time>2026-08-16T00:00:56.000Z</time></trkpt>
        <trkpt lat="28.157361" lon="105.813526"><ele>1176.2969</ele><time>2026-08-16T00:00:58.000Z</time></trkpt>
        <trkpt lat="28.157361" lon="105.813503"><ele>1176.7244</ele><time>2026-08-16T00:01:00.000Z</time></trkpt>
        <trkpt lat="28.157356" lon="105.813482"><ele>1177.6816</ele><time>2026-08-16T00:01:02.000Z</time></trkpt>
        <trkpt lat="28.157345" lon="105.813461"><ele>1178.0884</ele><time>2026-08-16T00:01:04.000Z</time></trkpt>
        <trkpt lat="28.157332" lon="105.813441"><ele>1178.5077</ele><time>2026-08-16T00:01:06.000Z</time></trkpt>
        <trkpt lat="28.157319" lon="105.81342"><ele>1178.725</ele><time>2026-08-16T00:01:08.000Z</time></trkpt>
        <trkpt lat="28.157305" lon="105.813396"><ele>1179.0382</ele><time>2026-08-16T00:01:10.000Z</time></trkpt>
        <trkpt lat="28.157293" lon="105.81337"><ele>1179.7617</ele><time>2026-08-16T00:01:12.000Z</time></trkpt>
        <trkpt lat="28.157284" lon="105.813341"><ele>1179.1179</ele><time>2026-08-16T00:01:14.000Z</time></trkpt>
        <trkpt lat="28.157282" lon="105.81331"><ele>1179.243</ele><time>2026-08-16T00:01:16.000Z</time></trkpt>
        <trkpt lat="28.157285" lon="105.813281"><ele>1178.828</ele><time>2026-08-16T00:01:18.000Z</time></trkpt>
        <trkpt lat="28.157294" lon="105.81325"><ele>1177.943</ele><time>2026-08-16T00:01:20.000Z</time></trkpt>
        <trkpt lat="28.157307" lon="105.813216"><ele>1177.3711</ele><time>2026-08-16T00:01:22.000Z</time></trkpt>
        <trkpt lat="28.157324" lon="105.813185"><ele>1177.9563</ele><time>2026-08-16T00:01:24.000Z</time></trkpt>
        <trkpt lat="28.157342" lon="105.813157"><ele>1177.6537</ele><time>2026-08-16T00:01:26.000Z</time></trkpt>
        <trkpt lat="28.157364" lon="105.813131"><ele>1177.4078</ele><time>2026-08-16T00:01:28.000Z</time></trkpt>
        <trkpt lat="28.157385" lon="105.813109"><ele>1177.5225</ele><time>2026-08-16T00:01:30.000Z</time></trkpt>
        <trkpt lat="28.157407" lon="105.813092"><ele>1177.7141</ele><time>2026-08-16T00:01:32.000Z</time></trkpt>
        <trkpt lat="28.15743" lon="105.813078"><ele>1176.9528</ele><time>2026-08-16T00:01:34.000Z</time></trkpt>
        <trkpt lat="28.157453" lon="105.813064"><ele>1177.2808</ele><time>2026-08-16T00:01:36.000Z</time></trkpt>
        <trkpt lat="28.157474" lon="105.81305"><ele>1176.9983</ele><time>2026-08-16T00:01:38.000Z</time></trkpt>
        <trkpt lat="28.157494" lon="105.813034"><ele>1176.7504</ele><time>2026-08-16T00:01:40.000Z</time></trkpt>
        <trkpt lat="28.157515" lon="105.813016"><ele>1177.2732</ele><time>2026-08-16T00:01:42.000Z</time></trkpt>
        <trkpt lat="28.157536" lon="105.812997"><ele>1177.1676</ele><time>2026-08-16T00:01:44.000Z</time></trkpt>
        <trkpt lat="28.157555" lon="105.812979"><ele>1177.5404</ele><time>2026-08-16T00:01:46.000Z</time></trkpt>
        <trkpt lat="28.157572" lon="105.812961"><ele>1177.1635</ele><time>2026-08-16T00:01:48.000Z</time></trkpt>
        <trkpt lat="28.157588" lon="105.812946"><ele>1177.916</ele><time>2026-08-16T00:01:50.000Z</time></trkpt>
        <trkpt lat="28.157603" lon="105.812931"><ele>1177.7157</ele><time>2026-08-16T00:01:51.000Z</time></trkpt>
        <trkpt lat="28.157619" lon="105.812915"><ele>1179.1559</ele><time>2026-08-16T00:01:53.000Z</time></trkpt>
        <trkpt lat="28.157638" lon="105.812897"><ele>1179.4795</ele><time>2026-08-16T00:01:55.000Z</time></trkpt>
        <trkpt lat="28.157658" lon="105.812876"><ele>1179.6155</ele><time>2026-08-16T00:01:57.000Z</time></trkpt>
        <trkpt lat="28.157677" lon="105.812857"><ele>1180.2444</ele><time>2026-08-16T00:01:59.000Z</time></trkpt>
        <trkpt lat="28.157698" lon="105.812838"><ele>1180.1437</ele><time>2026-08-16T00:02:01.000Z</time></trkpt>
        <trkpt lat="28.15772" lon="105.81282"><ele>1180.1272</ele><time>2026-08-16T00:02:03.000Z</time></trkpt>
        <trkpt lat="28.157741" lon="105.812805"><ele>1179.8436</ele><time>2026-08-16T00:02:05.000Z</time></trkpt>
        <trkpt lat="28.157764" lon="105.81279"><ele>1179.9269</ele><time>2026-08-16T00:02:07.000Z</time></trkpt>
        <trkpt lat="28.157787" lon="105.812775"><ele>1180.3662</ele><time>2026-08-16T00:02:09.000Z</time></trkpt>
        <trkpt lat="28.157809" lon="105.812759"><ele>1180.4517</ele><time>2026-08-16T00:02:12.000Z</time></trkpt>
        <trkpt lat="28.157829" lon="105.812742"><ele>1180.556</ele><time>2026-08-16T00:02:14.000Z</time></trkpt>
        <trkpt lat="28.157849" lon="105.812724"><ele>1180.4221</ele><time>2026-08-16T00:02:16.000Z</time></trkpt>
        <trkpt lat="28.157869" lon="105.812708"><ele>1180.3384</ele><time>2026-08-16T00:02:18.000Z</time></trkpt>
        <trkpt lat="28.157891" lon="105.812693"><ele>1180.6105</ele><time>2026-08-16T00:02:20.000Z</time></trkpt>
        <trkpt lat="28.157913" lon="105.812675"><ele>1180.3469</ele><time>2026-08-16T00:02:22.000Z</time></trkpt>
        <trkpt lat="28.157935" lon="105.812658"><ele>1180.5376</ele><time>2026-08-16T00:02:24.000Z</time></trkpt>
        <trkpt lat="28.157956" lon="105.81264"><ele>1180.591</ele><time>2026-08-16T00:02:26.000Z</time></trkpt>
        <trkpt lat="28.157977" lon="105.812621"><ele>1180.7866</ele><time>2026-08-16T00:02:28.000Z</time></trkpt>
        <trkpt lat="28.157996" lon="105.8126"><ele>1181.3547</ele><time>2026-08-16T00:02:30.000Z</time></trkpt>
        <trkpt lat="28.158015" lon="105.812579"><ele>1181.8652</ele><time>2026-08-16T00:02:32.000Z</time></trkpt>
        <trkpt lat="28.158033" lon="105.812558"><ele>1182.0217</ele><time>2026-08-16T00:02:34.000Z</time></trkpt>
        <trkpt lat="28.158049" lon="105.812535"><ele>1181.9401</ele><time>2026-08-16T00:02:36.000Z</time></trkpt>
        <trkpt lat="28.158066" lon="105.812513"><ele>1182.2316</ele><time>2026-08-16T00:02:38.000Z</time></trkpt>
        <trkpt lat="28.158082" lon="105.812495"><ele>1181.9983</ele><time>2026-08-16T00:02:40.000Z</time></trkpt>
        <trkpt lat="28.158099" lon="105.812476"><ele>1181.645</ele><time>2026-08-16T00:02:42.000Z</time></trkpt>
        <trkpt lat="28.158118" lon="105.81246"><ele>1181.1012</ele><time>2026-08-16T00:02:44.000Z</time></trkpt>
        <trkpt lat="28.15814" lon="105.812443"><ele>1181.3746</ele><time>2026-08-16T00:02:46.000Z</time></trkpt>
        <trkpt lat="28.158162" lon="105.812425"><ele>1181.0287</ele><time>2026-08-16T00:02:48.000Z</time></trkpt>
        <trkpt lat="28.158185" lon="105.812406"><ele>1181.0664</ele><time>2026-08-16T00:02:50.000Z</time></trkpt>
        <trkpt lat="28.158206" lon="105.812386"><ele>1181.0273</ele><time>2026-08-16T00:02:52.000Z</time></trkpt>
        <trkpt lat="28.158229" lon="105.812365"><ele>1181.3558</ele><time>2026-08-16T00:02:54.000Z</time></trkpt>
        <trkpt lat="28.158251" lon="105.812342"><ele>1181.3329</ele><time>2026-08-16T00:02:56.000Z</time></trkpt>
        <trkpt lat="28.158273" lon="105.812318"><ele>1181.0725</ele><time>2026-08-16T00:02:58.000Z</time></trkpt>
        <trkpt lat="28.158292" lon="105.812296"><ele>1181.2157</ele><time>2026-08-16T00:03:00.000Z</time></trkpt>
        <trkpt lat="28.158311" lon="105.812276"><ele>1181.1548</ele><time>2026-08-16T00:03:02.000Z</time></trkpt>
        <trkpt lat="28.15833" lon="105.812258"><ele>1180.8252</ele><time>2026-08-16T00:03:04.000Z</time></trkpt>
        <trkpt lat="28.15834" lon="105.812251"><ele>1180.8274</ele><time>2026-08-16T00:03:06.000Z</time></trkpt>
        <trkpt lat="28.158344" lon="105.81225"><ele>1180.7787</ele><time>2026-08-16T00:03:08.000Z</time></trkpt>
        <trkpt lat="28.158358" lon="105.812242"><ele>1180.3091</ele><time>2026-08-16T00:03:24.000Z</time></trkpt>
        <trkpt lat="28.158376" lon="105.812227"><ele>1180.7365</ele><time>2026-08-16T00:03:26.000Z</time></trkpt>
        <trkpt lat="28.15844" lon="105.812173"><ele>1180.4263</ele><time>2026-08-16T00:03:28.000Z</time></trkpt>
        <trkpt lat="28.158445" lon="105.812169"><ele>1179.4299</ele><time>2026-08-16T00:03:30.000Z</time></trkpt>
        <trkpt lat="28.158449" lon="105.812166"><ele>1179.8516</ele><time>2026-08-16T00:03:32.000Z</time></trkpt>
        <trkpt lat="28.158499" lon="105.812133"><ele>1180.813</ele><time>2026-08-16T00:03:36.000Z</time></trkpt>
        <trkpt lat="28.158533" lon="105.81211"><ele>1180.7355</ele><time>2026-08-16T00:03:38.000Z</time></trkpt>
        <trkpt lat="28.158567" lon="105.812086"><ele>1180.0369</ele><time>2026-08-16T00:03:40.000Z</time></trkpt>
        <trkpt lat="28.158598" lon="105.812067"><ele>1180.2085</ele><time>2026-08-16T00:03:42.000Z</time></trkpt>
        <trkpt lat="28.158625" lon="105.81205"><ele>1179.911</ele><time>2026-08-16T00:03:44.000Z</time></trkpt>
        <trkpt lat="28.158649" lon="105.812034"><ele>1179.4113</ele><time>2026-08-16T00:03:46.000Z</time></trkpt>
        <trkpt lat="28.15867" lon="105.812019"><ele>1179.6644</ele><time>2026-08-16T00:03:48.000Z</time></trkpt>
        <trkpt lat="28.158687" lon="105.812006"><ele>1180.1274</ele><time>2026-08-16T00:03:50.000Z</time></trkpt>
        <trkpt lat="28.158701" lon="105.811994"><ele>1180.0579</ele><time>2026-08-16T00:03:52.000Z</time></trkpt>
        <trkpt lat="28.158714" lon="105.811983"><ele>1179.3499</ele><time>2026-08-16T00:03:54.000Z</time></trkpt>
        <trkpt lat="28.158729" lon="105.811971"><ele>1179.43</ele><time>2026-08-16T00:03:56.000Z</time></trkpt>
        <trkpt lat="28.158747" lon="105.811957"><ele>1179.2289</ele><time>2026-08-16T00:03:58.000Z</time></trkpt>
        <trkpt lat="28.158767" lon="105.811941"><ele>1179.5269</ele><time>2026-08-16T00:04:00.000Z</time></trkpt>
        <trkpt lat="28.15879" lon="105.811925"><ele>1180.3315</ele><time>2026-08-16T00:04:02.000Z</time></trkpt>
        <trkpt lat="28.158812" lon="105.811908"><ele>1180.8499</ele><time>2026-08-16T00:04:04.000Z</time></trkpt>
        <trkpt lat="28.158835" lon="105.81189"><ele>1180.5299</ele><time>2026-08-16T00:04:06.000Z</time></trkpt>
        <trkpt lat="28.158857" lon="105.811873"><ele>1180.6378</ele><time>2026-08-16T00:04:08.000Z</time></trkpt>
        <trkpt lat="28.158876" lon="105.811856"><ele>1180.9469</ele><time>2026-08-16T00:04:10.000Z</time></trkpt>
        <trkpt lat="28.158894" lon="105.811839"><ele>1181.2191</ele><time>2026-08-16T00:04:12.000Z</time></trkpt>
        <trkpt lat="28.158912" lon="105.811821"><ele>1181.5767</ele><time>2026-08-16T00:04:14.000Z</time></trkpt>
        <trkpt lat="28.158929" lon="105.811807"><ele>1181.1542</ele><time>2026-08-16T00:04:16.000Z</time></trkpt>
        <trkpt lat="28.158944" lon="105.811794"><ele>1180.9769</ele><time>2026-08-16T00:04:18.000Z</time></trkpt>
        <trkpt lat="28.15896" lon="105.811783"><ele>1180.7054</ele><time>2026-08-16T00:04:20.000Z</time></trkpt>
        <trkpt lat="28.158979" lon="105.811773"><ele>1180.2754</ele><time>2026-08-16T00:04:22.000Z</time></trkpt>
        <trkpt lat="28.159" lon="105.811761"><ele>1179.9144</ele><time>2026-08-16T00:04:24.000Z</time></trkpt>
        <trkpt lat="28.15902" lon="105.811752"><ele>1179.5468</ele><time>2026-08-16T00:04:26.000Z</time></trkpt>
        <trkpt lat="28.159043" lon="105.811743"><ele>1179.2968</ele><time>2026-08-16T00:04:28.000Z</time></trkpt>
        <trkpt lat="28.159066" lon="105.811736"><ele>1179.311</ele><time>2026-08-16T00:04:30.000Z</time></trkpt>
        <trkpt lat="28.15909" lon="105.811729"><ele>1178.028</ele><time>2026-08-16T00:04:32.000Z</time></trkpt>
        <trkpt lat="28.159114" lon="105.811721"><ele>1178.398</ele><time>2026-08-16T00:04:34.000Z</time></trkpt>
        <trkpt lat="28.159139" lon="105.811712"><ele>1178.6935</ele><time>2026-08-16T00:04:36.000Z</time></trkpt>
        <trkpt lat="28.159164" lon="105.811702"><ele>1178.6334</ele><time>2026-08-16T00:04:38.000Z</time></trkpt>
        <trkpt lat="28.159189" lon="105.811692"><ele>1179.1584</ele><time>2026-08-16T00:04:40.000Z</time></trkpt>
        <trkpt lat="28.159214" lon="105.81168"><ele>1179.711</ele><time>2026-08-16T00:04:42.000Z</time></trkpt>
        <trkpt lat="28.159238" lon="105.811668"><ele>1179.8645</ele><time>2026-08-16T00:04:44.000Z</time></trkpt>
        <trkpt lat="28.159258" lon="105.811658"><ele>1180.3298</ele><time>2026-08-16T00:04:46.000Z</time></trkpt>
        <trkpt lat="28.159267" lon="105.811655"><ele>1178.9712</ele><time>2026-08-16T00:04:48.000Z</time></trkpt>
        <trkpt lat="28.159269" lon="105.811654"><ele>1178.9885</ele><time>2026-08-16T00:04:50.000Z</time></trkpt>
        <trkpt lat="28.159303" lon="105.811646"><ele>1178.5089</ele><time>2026-08-16T00:04:58.000Z</time></trkpt>
        <trkpt lat="28.159303" lon="105.811646"><ele>1178.0465</ele><time>2026-08-16T00:05:00.000Z</time></trkpt>
        <trkpt lat="28.159306" lon="105.811645"><ele>1178.255</ele><time>2026-08-16T00:05:02.000Z</time></trkpt>
        <trkpt lat="28.159353" lon="105.811627"><ele>1179.3903</ele><time>2026-08-16T00:05:06.000Z</time></trkpt>
        <trkpt lat="28.159413" lon="105.811602"><ele>1179.9746</ele><time>2026-08-16T00:05:08.000Z</time></trkpt>
        <trkpt lat="28.159417" lon="105.811601"><ele>1180.2279</ele><time>2026-08-16T00:05:10.000Z</time></trkpt>
        <trkpt lat="28.159421" lon="105.8116"><ele>1179.5546</ele><time>2026-08-16T00:05:12.000Z</time></trkpt>
        <trkpt lat="28.159468" lon="105.811583"><ele>1181.2427</ele><time>2026-08-16T00:05:16.000Z</time></trkpt>
        <trkpt lat="28.159531" lon="105.811561"><ele>1180.9642</ele><time>2026-08-16T00:05:18.000Z</time></trkpt>
        <trkpt lat="28.159535" lon="105.811559"><ele>1180.7725</ele><time>2026-08-16T00:05:20.000Z</time></trkpt>
        <trkpt lat="28.159539" lon="105.811557"><ele>1181.1592</ele><time>2026-08-16T00:05:22.000Z</time></trkpt>
        <trkpt lat="28.159585" lon="105.811532"><ele>1180.9178</ele><time>2026-08-16T00:05:26.000Z</time></trkpt>
        <trkpt lat="28.15964" lon="105.811503"><ele>1181.0206</ele><time>2026-08-16T00:05:28.000Z</time></trkpt>
        <trkpt lat="28.159644" lon="105.811501"><ele>1181.0984</ele><time>2026-08-16T00:05:30.000Z</time></trkpt>
        <trkpt lat="28.159647" lon="105.811499"><ele>1181.4604</ele><time>2026-08-16T00:05:32.000Z</time></trkpt>
        <trkpt lat="28.159674" lon="105.81148"><ele>1180.5137</ele><time>2026-08-16T00:05:36.000Z</time></trkpt>
        <trkpt lat="28.159687" lon="105.81147"><ele>1180.7356</ele><time>2026-08-16T00:05:38.000Z</time></trkpt>
        <trkpt lat="28.159696" lon="105.811463"><ele>1180.3959</ele><time>2026-08-16T00:05:40.000Z</time></trkpt>
        <trkpt lat="28.1597" lon="105.811463"><ele>1180.5759</ele><time>2026-08-16T00:05:42.000Z</time></trkpt>
        <trkpt lat="28.159729" lon="105.81146"><ele>1180.5458</ele><time>2026-08-16T00:05:50.000Z</time></trkpt>
        <trkpt lat="28.159729" lon="105.81146"><ele>1180.4475</ele><time>2026-08-16T00:05:52.000Z</time></trkpt>
        <trkpt lat="28.159732" lon="105.811459"><ele>1180.1871</ele><time>2026-08-16T00:05:54.000Z</time></trkpt>
        <trkpt lat="28.15977" lon="105.811435"><ele>1179.4314</ele><time>2026-08-16T00:05:58.000Z</time></trkpt>
        <trkpt lat="28.159799" lon="105.811418"><ele>1179.7954</ele><time>2026-08-16T00:06:00.000Z</time></trkpt>
        <trkpt lat="28.159828" lon="105.811399"><ele>1179.7755</ele><time>2026-08-16T00:06:02.000Z</time></trkpt>
        <trkpt lat="28.159854" lon="105.811382"><ele>1179.9928</ele><time>2026-08-16T00:06:03.000Z</time></trkpt>
        <trkpt lat="28.159877" lon="105.811367"><ele>1179.7296</ele><time>2026-08-16T00:06:05.000Z</time></trkpt>
        <trkpt lat="28.1599" lon="105.811354"><ele>1179.2107</ele><time>2026-08-16T00:06:07.000Z</time></trkpt>
        <trkpt lat="28.159922" lon="105.811342"><ele>1179.1165</ele><time>2026-08-16T00:06:09.000Z</time></trkpt>
        <trkpt lat="28.159944" lon="105.81133"><ele>1179.1099</ele><time>2026-08-16T00:06:11.000Z</time></trkpt>
        <trkpt lat="28.159967" lon="105.811318"><ele>1178.9537</ele><time>2026-08-16T00:06:13.000Z</time></trkpt>
        <trkpt lat="28.159989" lon="105.811305"><ele>1178.9052</ele><time>2026-08-16T00:06:15.000Z</time></trkpt>
        <trkpt lat="28.160009" lon="105.811293"><ele>1178.793</ele><time>2026-08-16T00:06:17.000Z</time></trkpt>
        <trkpt lat="28.16003" lon="105.811281"><ele>1179.3228</ele><time>2026-08-16T00:06:19.000Z</time></trkpt>
        <trkpt lat="28.160052" lon="105.811268"><ele>1179.3829</ele><time>2026-08-16T00:06:21.000Z</time></trkpt>
        <trkpt lat="28.160074" lon="105.811257"><ele>1179.588</ele><time>2026-08-16T00:06:23.000Z</time></trkpt>
        <trkpt lat="28.160098" lon="105.811245"><ele>1179.6898</ele><time>2026-08-16T00:06:25.000Z</time></trkpt>
        <trkpt lat="28.160119" lon="105.811236"><ele>1179.6227</ele><time>2026-08-16T00:06:27.000Z</time></trkpt>
        <trkpt lat="28.160142" lon="105.811226"><ele>1179.3273</ele><time>2026-08-16T00:06:29.000Z</time></trkpt>
        <trkpt lat="28.160165" lon="105.811218"><ele>1178.7062</ele><time>2026-08-16T00:06:31.000Z</time></trkpt>
        <trkpt lat="28.160188" lon="105.811211"><ele>1179.174</ele><time>2026-08-16T00:06:33.000Z</time></trkpt>
        <trkpt lat="28.160213" lon="105.811205"><ele>1179.5514</ele><time>2026-08-16T00:06:35.000Z</time></trkpt>
        <trkpt lat="28.160236" lon="105.811201"><ele>1179.6061</ele><time>2026-08-16T00:06:37.000Z</time></trkpt>
        <trkpt lat="28.16026" lon="105.811198"><ele>1179.5549</ele><time>2026-08-16T00:06:39.000Z</time></trkpt>
        <trkpt lat="28.160284" lon="105.811198"><ele>1179.1783</ele><time>2026-08-16T00:06:41.000Z</time></trkpt>
        <trkpt lat="28.160308" lon="105.811198"><ele>1178.6638</ele><time>2026-08-16T00:06:43.000Z</time></trkpt>
        <trkpt lat="28.160333" lon="105.811198"><ele>1178.8405</ele><time>2026-08-16T00:06:45.000Z</time></trkpt>
        <trkpt lat="28.160357" lon="105.8112"><ele>1178.5511</ele><time>2026-08-16T00:06:47.000Z</time></trkpt>
        <trkpt lat="28.160382" lon="105.811199"><ele>1177.8217</ele><time>2026-08-16T00:06:49.000Z</time></trkpt>
        <trkpt lat="28.160406" lon="105.811198"><ele>1178.3813</ele><time>2026-08-16T00:06:52.000Z</time></trkpt>
        <trkpt lat="28.160429" lon="105.811195"><ele>1178.1088</ele><time>2026-08-16T00:06:54.000Z</time></trkpt>
        <trkpt lat="28.160452" lon="105.811191"><ele>1177.4332</ele><time>2026-08-16T00:06:56.000Z</time></trkpt>
        <trkpt lat="28.160481" lon="105.811186"><ele>1175.8768</ele><time>2026-08-16T00:06:58.000Z</time></trkpt>
        <trkpt lat="28.160507" lon="105.811183"><ele>1175.6184</ele><time>2026-08-16T00:07:00.000Z</time></trkpt>
        <trkpt lat="28.160532" lon="105.811183"><ele>1175.3898</ele><time>2026-08-16T00:07:02.000Z</time></trkpt>
        <trkpt lat="28.160556" lon="105.811184"><ele>1174.7699</ele><time>2026-08-16T00:07:04.000Z</time></trkpt>
        <trkpt lat="28.160582" lon="105.811186"><ele>1174.4872</ele><time>2026-08-16T00:07:06.000Z</time></trkpt>
        <trkpt lat="28.160607" lon="105.811187"><ele>1174.2856</ele><time>2026-08-16T00:07:08.000Z</time></trkpt>
        <trkpt lat="28.160632" lon="105.81119"><ele>1173.7421</ele><time>2026-08-16T00:07:10.000Z</time></trkpt>
        <trkpt lat="28.160657" lon="105.811193"><ele>1173.552</ele><time>2026-08-16T00:07:12.000Z</time></trkpt>
        <trkpt lat="28.160681" lon="105.811195"><ele>1173.8508</ele><time>2026-08-16T00:07:14.000Z</time></trkpt>
        <trkpt lat="28.160701" lon="105.811197"><ele>1172.7623</ele><time>2026-08-16T00:07:16.000Z</time></trkpt>
        <trkpt lat="28.160724" lon="105.8112"><ele>1171.5652</ele><time>2026-08-16T00:07:18.000Z</time></trkpt>
        <trkpt lat="28.160748" lon="105.811202"><ele>1172.0516</ele><time>2026-08-16T00:07:20.000Z</time></trkpt>
        <trkpt lat="28.160771" lon="105.811204"><ele>1171.8944</ele><time>2026-08-16T00:07:22.000Z</time></trkpt>
        <trkpt lat="28.160794" lon="105.811208"><ele>1171.4862</ele><time>2026-08-16T00:07:24.000Z</time></trkpt>
        <trkpt lat="28.160816" lon="105.811215"><ele>1170.6116</ele><time>2026-08-16T00:07:26.000Z</time></trkpt>
        <trkpt lat="28.160837" lon="105.811224"><ele>1169.8124</ele><time>2026-08-16T00:07:28.000Z</time></trkpt>
        <trkpt lat="28.160857" lon="105.811233"><ele>1169.8679</ele><time>2026-08-16T00:07:30.000Z</time></trkpt>
        <trkpt lat="28.160878" lon="105.811243"><ele>1169.926</ele><time>2026-08-16T00:07:32.000Z</time></trkpt>
        <trkpt lat="28.160901" lon="105.811255"><ele>1169.6683</ele><time>2026-08-16T00:07:34.000Z</time></trkpt>
        <trkpt lat="28.160925" lon="105.811267"><ele>1169.8055</ele><time>2026-08-16T00:07:36.000Z</time></trkpt>
        <trkpt lat="28.160949" lon="105.81128"><ele>1169.9116</ele><time>2026-08-16T00:07:38.000Z</time></trkpt>
        <trkpt lat="28.160972" lon="105.811293"><ele>1169.227</ele><time>2026-08-16T00:07:40.000Z</time></trkpt>
        <trkpt lat="28.160989" lon="105.811306"><ele>1169.4916</ele><time>2026-08-16T00:07:42.000Z</time></trkpt>
        <trkpt lat="28.161012" lon="105.811323"><ele>1169.5338</ele><time>2026-08-16T00:07:44.000Z</time></trkpt>
        <trkpt lat="28.16103" lon="105.811334"><ele>1168.6552</ele><time>2026-08-16T00:07:46.000Z</time></trkpt>
        <trkpt lat="28.161049" lon="105.811344"><ele>1168.6707</ele><time>2026-08-16T00:07:48.000Z</time></trkpt>
        <trkpt lat="28.161069" lon="105.811353"><ele>1168.3298</ele><time>2026-08-16T00:07:50.000Z</time></trkpt>
        <trkpt lat="28.161093" lon="105.811363"><ele>1167.2623</ele><time>2026-08-16T00:07:52.000Z</time></trkpt>
        <trkpt lat="28.161115" lon="105.811374"><ele>1168.0146</ele><time>2026-08-16T00:07:54.000Z</time></trkpt>
        <trkpt lat="28.161138" lon="105.811388"><ele>1167.2448</ele><time>2026-08-16T00:07:56.000Z</time></trkpt>
        <trkpt lat="28.16116" lon="105.811402"><ele>1167.0076</ele><time>2026-08-16T00:07:58.000Z</time></trkpt>
        <trkpt lat="28.161178" lon="105.811417"><ele>1167.0846</ele><time>2026-08-16T00:08:00.000Z</time></trkpt>
        <trkpt lat="28.161194" lon="105.811434"><ele>1166.0844</ele><time>2026-08-16T00:08:02.000Z</time></trkpt>
        <trkpt lat="28.161208" lon="105.81145"><ele>1165.0306</ele><time>2026-08-16T00:08:04.000Z</time></trkpt>
        <trkpt lat="28.161219" lon="105.811465"><ele>1164.9647</ele><time>2026-08-16T00:08:06.000Z</time></trkpt>
        <trkpt lat="28.161234" lon="105.811481"><ele>1163.3469</ele><time>2026-08-16T00:08:08.000Z</time></trkpt>
        <trkpt lat="28.161253" lon="105.8115"><ele>1162.7206</ele><time>2026-08-16T00:08:09.000Z</time></trkpt>
        <trkpt lat="28.161276" lon="105.811519"><ele>1162.8518</ele><time>2026-08-16T00:08:11.000Z</time></trkpt>
        <trkpt lat="28.161297" lon="105.81154"><ele>1161.8652</ele><time>2026-08-16T00:08:13.000Z</time></trkpt>
        <trkpt lat="28.161318" lon="105.811563"><ele>1162.2028</ele><time>2026-08-16T00:08:15.000Z</time></trkpt>
        <trkpt lat="28.161338" lon="105.811584"><ele>1161.4485</ele><time>2026-08-16T00:08:17.000Z</time></trkpt>
        <trkpt lat="28.161358" lon="105.811605"><ele>1160.8348</ele><time>2026-08-16T00:08:19.000Z</time></trkpt>
        <trkpt lat="28.161379" lon="105.811626"><ele>1160.1959</ele><time>2026-08-16T00:08:21.000Z</time></trkpt>
        <trkpt lat="28.1614" lon="105.811648"><ele>1159.6252</ele><time>2026-08-16T00:08:23.000Z</time></trkpt>
        <trkpt lat="28.161422" lon="105.811668"><ele>1159.6202</ele><time>2026-08-16T00:08:25.000Z</time></trkpt>
        <trkpt lat="28.161443" lon="105.811684"><ele>1158.5361</ele><time>2026-08-16T00:08:27.000Z</time></trkpt>
        <trkpt lat="28.161466" lon="105.8117"><ele>1159.3398</ele><time>2026-08-16T00:08:29.000Z</time></trkpt>
        <trkpt lat="28.16149" lon="105.811715"><ele>1157.8627</ele><time>2026-08-16T00:08:31.000Z</time></trkpt>
        <trkpt lat="28.161516" lon="105.811729"><ele>1157.7196</ele><time>2026-08-16T00:08:33.000Z</time></trkpt>
        <trkpt lat="28.161541" lon="105.811745"><ele>1156.9686</ele><time>2026-08-16T00:08:35.000Z</time></trkpt>
        <trkpt lat="28.161565" lon="105.811761"><ele>1157.0712</ele><time>2026-08-16T00:08:37.000Z</time></trkpt>
        <trkpt lat="28.161589" lon="105.811778"><ele>1156.7275</ele><time>2026-08-16T00:08:39.000Z</time></trkpt>
        <trkpt lat="28.161608" lon="105.811798"><ele>1156.549</ele><time>2026-08-16T00:08:41.000Z</time></trkpt>
        <trkpt lat="28.161622" lon="105.811817"><ele>1157.217</ele><time>2026-08-16T00:08:43.000Z</time></trkpt>
        <trkpt lat="28.161635" lon="105.811832"><ele>1156.8878</ele><time>2026-08-16T00:08:46.000Z</time></trkpt>
        <trkpt lat="28.161649" lon="105.811843"><ele>1156.7311</ele><time>2026-08-16T00:08:48.000Z</time></trkpt>
        <trkpt lat="28.161666" lon="105.811856"><ele>1156.6919</ele><time>2026-08-16T00:08:50.000Z</time></trkpt>
        <trkpt lat="28.161685" lon="105.811868"><ele>1157.2089</ele><time>2026-08-16T00:08:52.000Z</time></trkpt>
        <trkpt lat="28.161705" lon="105.811881"><ele>1157.9357</ele><time>2026-08-16T00:08:54.000Z</time></trkpt>
        <trkpt lat="28.161726" lon="105.811894"><ele>1158.1079</ele><time>2026-08-16T00:08:56.000Z</time></trkpt>
        <trkpt lat="28.161745" lon="105.811909"><ele>1159.1063</ele><time>2026-08-16T00:08:58.000Z</time></trkpt>
        <trkpt lat="28.16176" lon="105.81192"><ele>1158.513</ele><time>2026-08-16T00:09:00.000Z</time></trkpt>
        <trkpt lat="28.161779" lon="105.811932"><ele>1158.4409</ele><time>2026-08-16T00:09:02.000Z</time></trkpt>
        <trkpt lat="28.1618" lon="105.811942"><ele>1158.4827</ele><time>2026-08-16T00:09:04.000Z</time></trkpt>
        <trkpt lat="28.16182" lon="105.811952"><ele>1157.1074</ele><time>2026-08-16T00:09:06.000Z</time></trkpt>
        <trkpt lat="28.161834" lon="105.811961"><ele>1156.8683</ele><time>2026-08-16T00:09:08.000Z</time></trkpt>
        <trkpt lat="28.161849" lon="105.811965"><ele>1156.3623</ele><time>2026-08-16T00:09:10.000Z</time></trkpt>
        <trkpt lat="28.161866" lon="105.811965"><ele>1155.8539</ele><time>2026-08-16T00:09:12.000Z</time></trkpt>
        <trkpt lat="28.161884" lon="105.81196"><ele>1156.0792</ele><time>2026-08-16T00:09:14.000Z</time></trkpt>
        <trkpt lat="28.161897" lon="105.811948"><ele>1156.1559</ele><time>2026-08-16T00:09:16.000Z</time></trkpt>
        <trkpt lat="28.161909" lon="105.811934"><ele>1156.0421</ele><time>2026-08-16T00:09:18.000Z</time></trkpt>
        <trkpt lat="28.161914" lon="105.811924"><ele>1155.7678</ele><time>2026-08-16T00:09:20.000Z</time></trkpt>
        <trkpt lat="28.161915" lon="105.811921"><ele>1156.0134</ele><time>2026-08-16T00:09:22.000Z</time></trkpt>
        <trkpt lat="28.161916" lon="105.811892"><ele>1157.8291</ele><time>2026-08-16T00:09:32.000Z</time></trkpt>
        <trkpt lat="28.161917" lon="105.811888"><ele>1158.7965</ele><time>2026-08-16T00:09:36.000Z</time></trkpt>
        <trkpt lat="28.16192" lon="105.811881"><ele>1158.3885</ele><time>2026-08-16T00:09:38.000Z</time></trkpt>
        <trkpt lat="28.161941" lon="105.811836"><ele>1158.4631</ele><time>2026-08-16T00:09:40.000Z</time></trkpt>
        <trkpt lat="28.161943" lon="105.811833"><ele>1158.3014</ele><time>2026-08-16T00:09:42.000Z</time></trkpt>
        <trkpt lat="28.161945" lon="105.81183"><ele>1159.4628</ele><time>2026-08-16T00:09:44.000Z</time></trkpt>
        <trkpt lat="28.161967" lon="105.811793"><ele>1159.6675</ele><time>2026-08-16T00:09:48.000Z</time></trkpt>
        <trkpt lat="28.161982" lon="105.811768"><ele>1160.1996</ele><time>2026-08-16T00:09:50.000Z</time></trkpt>
        <trkpt lat="28.161997" lon="105.811746"><ele>1159.4011</ele><time>2026-08-16T00:09:52.000Z</time></trkpt>
        <trkpt lat="28.162009" lon="105.811727"><ele>1158.5312</ele><time>2026-08-16T00:09:54.000Z</time></trkpt>
        <trkpt lat="28.16202" lon="105.81171"><ele>1158.2678</ele><time>2026-08-16T00:09:56.000Z</time></trkpt>
        <trkpt lat="28.162031" lon="105.811696"><ele>1158.4504</ele><time>2026-08-16T00:09:58.000Z</time></trkpt>
        <trkpt lat="28.162039" lon="105.811685"><ele>1158.4246</ele><time>2026-08-16T00:10:00.000Z</time></trkpt>
        <trkpt lat="28.162044" lon="105.811682"><ele>1158.9786</ele><time>2026-08-16T00:10:02.000Z</time></trkpt>
        <trkpt lat="28.162054" lon="105.811671"><ele>1158.2258</ele><time>2026-08-16T00:10:10.000Z</time></trkpt>
        <trkpt lat="28.162062" lon="105.811663"><ele>1159.4332</ele><time>2026-08-16T00:10:14.000Z</time></trkpt>
        <trkpt lat="28.162065" lon="105.811657"><ele>1159.2069</ele><time>2026-08-16T00:10:17.000Z</time></trkpt>
        <trkpt lat="28.162077" lon="105.811643"><ele>1159.7521</ele><time>2026-08-16T00:10:19.000Z</time></trkpt>
        <trkpt lat="28.162088" lon="105.811636"><ele>1159.6151</ele><time>2026-08-16T00:10:25.000Z</time></trkpt>
        <trkpt lat="28.162107" lon="105.811629"><ele>1159.5139</ele><time>2026-08-16T00:10:27.000Z</time></trkpt>
        <trkpt lat="28.162135" lon="105.811624"><ele>1158.8623</ele><time>2026-08-16T00:10:29.000Z</time></trkpt>
        <trkpt lat="28.16216" lon="105.811623"><ele>1159.2705</ele><time>2026-08-16T00:10:31.000Z</time></trkpt>
        <trkpt lat="28.162174" lon="105.811624"><ele>1159.1449</ele><time>2026-08-16T00:10:33.000Z</time></trkpt>
        <trkpt lat="28.162174" lon="105.811626"><ele>1158.5698</ele><time>2026-08-16T00:10:36.000Z</time></trkpt>
        <trkpt lat="28.162159" lon="105.811558"><ele>1158.0107</ele><time>2026-08-16T00:11:17.000Z</time></trkpt>
        <trkpt lat="28.162178" lon="105.811525"><ele>1157.1598</ele><time>2026-08-16T00:11:28.000Z</time></trkpt>
        <trkpt lat="28.162179" lon="105.811525"><ele>1157.2666</ele><time>2026-08-16T00:11:30.000Z</time></trkpt>
        <trkpt lat="28.162182" lon="105.811523"><ele>1157.4844</ele><time>2026-08-16T00:11:32.000Z</time></trkpt>
        <trkpt lat="28.162221" lon="105.811498"><ele>1157.3717</ele><time>2026-08-16T00:11:36.000Z</time></trkpt>
        <trkpt lat="28.162248" lon="105.811479"><ele>1158.202</ele><time>2026-08-16T00:11:38.000Z</time></trkpt>
        <trkpt lat="28.162274" lon="105.811465"><ele>1158.6655</ele><time>2026-08-16T00:11:40.000Z</time></trkpt>
        <trkpt lat="28.162285" lon="105.811467"><ele>1159.2552</ele><time>2026-08-16T00:11:42.000Z</time></trkpt>
        <trkpt lat="28.162285" lon="105.811466"><ele>1160.3064</ele><time>2026-08-16T00:11:44.000Z</time></trkpt>
        <trkpt lat="28.162271" lon="105.8115"><ele>1160.6838</ele><time>2026-08-16T00:11:48.000Z</time></trkpt>
        <trkpt lat="28.162264" lon="105.81151"><ele>1160.1326</ele><time>2026-08-16T00:11:50.000Z</time></trkpt>
        <trkpt lat="28.162258" lon="105.811518"><ele>1159.8254</ele><time>2026-08-16T00:11:52.000Z</time></trkpt>
        <trkpt lat="28.162258" lon="105.811528"><ele>1160.5219</ele><time>2026-08-16T00:11:56.000Z</time></trkpt>
        <trkpt lat="28.162269" lon="105.811463"><ele>1161.1992</ele><time>2026-08-16T00:12:29.000Z</time></trkpt>
        <trkpt lat="28.162274" lon="105.811441"><ele>1161.4961</ele><time>2026-08-16T00:12:31.000Z</time></trkpt>
        <trkpt lat="28.162274" lon="105.811439"><ele>1161.8469</ele><time>2026-08-16T00:12:33.000Z</time></trkpt>
        <trkpt lat="28.162288" lon="105.811423"><ele>1161.7327</ele><time>2026-08-16T00:12:53.000Z</time></trkpt>
        <trkpt lat="28.1623" lon="105.811408"><ele>1161.473</ele><time>2026-08-16T00:12:55.000Z</time></trkpt>
        <trkpt lat="28.162311" lon="105.811393"><ele>1161.1144</ele><time>2026-08-16T00:12:57.000Z</time></trkpt>
        <trkpt lat="28.162334" lon="105.811359"><ele>1161.3899</ele><time>2026-08-16T00:13:00.000Z</time></trkpt>
        <trkpt lat="28.162334" lon="105.811358"><ele>1160.4044</ele><time>2026-08-16T00:13:02.000Z</time></trkpt>
        <trkpt lat="28.162336" lon="105.811356"><ele>1161.1447</ele><time>2026-08-16T00:13:04.000Z</time></trkpt>
        <trkpt lat="28.162358" lon="105.811317"><ele>1161.823</ele><time>2026-08-16T00:13:08.000Z</time></trkpt>
        <trkpt lat="28.162376" lon="105.811286"><ele>1161.9666</ele><time>2026-08-16T00:13:10.000Z</time></trkpt>
        <trkpt lat="28.162395" lon="105.811257"><ele>1161.9944</ele><time>2026-08-16T00:13:12.000Z</time></trkpt>
        <trkpt lat="28.162413" lon="105.81123"><ele>1161.417</ele><time>2026-08-16T00:13:14.000Z</time></trkpt>
        <trkpt lat="28.162431" lon="105.811207"><ele>1161.6522</ele><time>2026-08-16T00:13:16.000Z</time></trkpt>
        <trkpt lat="28.162448" lon="105.811184"><ele>1161.551</ele><time>2026-08-16T00:13:18.000Z</time></trkpt>
        <trkpt lat="28.162464" lon="105.811163"><ele>1162.1356</ele><time>2026-08-16T00:13:20.000Z</time></trkpt>
        <trkpt lat="28.162479" lon="105.811142"><ele>1162.2659</ele><time>2026-08-16T00:13:22.000Z</time></trkpt>
        <trkpt lat="28.162495" lon="105.81112"><ele>1162.6256</ele><time>2026-08-16T00:13:24.000Z</time></trkpt>
        <trkpt lat="28.162507" lon="105.811103"><ele>1162.0121</ele><time>2026-08-16T00:13:26.000Z</time></trkpt>
        <trkpt lat="28.162512" lon="105.811097"><ele>1161.5159</ele><time>2026-08-16T00:13:28.000Z</time></trkpt>
        <trkpt lat="28.162524" lon="105.811083"><ele>1161.3845</ele><time>2026-08-16T00:13:33.000Z</time></trkpt>
        <trkpt lat="28.162537" lon="105.811067"><ele>1161.7933</ele><time>2026-08-16T00:13:39.000Z</time></trkpt>
        <trkpt lat="28.162555" lon="105.811043"><ele>1161.716</ele><time>2026-08-16T00:13:41.000Z</time></trkpt>
        <trkpt lat="28.162577" lon="105.811012"><ele>1162.2015</ele><time>2026-08-16T00:13:43.000Z</time></trkpt>
        <trkpt lat="28.162598" lon="105.810982"><ele>1161.7002</ele><time>2026-08-16T00:13:45.000Z</time></trkpt>
        <trkpt lat="28.162616" lon="105.810955"><ele>1161.9502</ele><time>2026-08-16T00:13:47.000Z</time></trkpt>
        <trkpt lat="28.162631" lon="105.810931"><ele>1161.9774</ele><time>2026-08-16T00:13:49.000Z</time></trkpt>
        <trkpt lat="28.162645" lon="105.810908"><ele>1162.4635</ele><time>2026-08-16T00:13:51.000Z</time></trkpt>
        <trkpt lat="28.162656" lon="105.810884"><ele>1161.0857</ele><time>2026-08-16T00:13:53.000Z</time></trkpt>
        <trkpt lat="28.162662" lon="105.810862"><ele>1161.727</ele><time>2026-08-16T00:13:55.000Z</time></trkpt>
        <trkpt lat="28.16266" lon="105.810845"><ele>1163.6772</ele><time>2026-08-16T00:13:57.000Z</time></trkpt>
        <trkpt lat="28.162654" lon="105.810834"><ele>1164.3344</ele><time>2026-08-16T00:13:59.000Z</time></trkpt>
        <trkpt lat="28.162643" lon="105.810824"><ele>1166.147</ele><time>2026-08-16T00:14:01.000Z</time></trkpt>
        <trkpt lat="28.162629" lon="105.810816"><ele>1166.5121</ele><time>2026-08-16T00:14:03.000Z</time></trkpt>
        <trkpt lat="28.162611" lon="105.810809"><ele>1167.7755</ele><time>2026-08-16T00:14:05.000Z</time></trkpt>
        <trkpt lat="28.162591" lon="105.810801"><ele>1167.6844</ele><time>2026-08-16T00:14:07.000Z</time></trkpt>
        <trkpt lat="28.16257" lon="105.810789"><ele>1168.0885</ele><time>2026-08-16T00:14:09.000Z</time></trkpt>
        <trkpt lat="28.162548" lon="105.810773"><ele>1167.557</ele><time>2026-08-16T00:14:11.000Z</time></trkpt>
        <trkpt lat="28.162529" lon="105.810758"><ele>1167.3157</ele><time>2026-08-16T00:14:13.000Z</time></trkpt>
        <trkpt lat="28.16251" lon="105.810742"><ele>1167.2429</ele><time>2026-08-16T00:14:15.000Z</time></trkpt>
        <trkpt lat="28.16249" lon="105.810726"><ele>1168.2253</ele><time>2026-08-16T00:14:17.000Z</time></trkpt>
        <trkpt lat="28.162472" lon="105.810711"><ele>1168.2216</ele><time>2026-08-16T00:14:19.000Z</time></trkpt>
        <trkpt lat="28.162458" lon="105.810695"><ele>1169.1937</ele><time>2026-08-16T00:14:21.000Z</time></trkpt>
        <trkpt lat="28.162442" lon="105.810677"><ele>1168.8713</ele><time>2026-08-16T00:14:23.000Z</time></trkpt>
        <trkpt lat="28.162427" lon="105.81066"><ele>1167.9835</ele><time>2026-08-16T00:14:25.000Z</time></trkpt>
        <trkpt lat="28.162415" lon="105.810643"><ele>1169.5748</ele><time>2026-08-16T00:14:26.000Z</time></trkpt>
        <trkpt lat="28.162403" lon="105.810625"><ele>1169.1406</ele><time>2026-08-16T00:14:28.000Z</time></trkpt>
        <trkpt lat="28.162394" lon="105.810608"><ele>1169.4437</ele><time>2026-08-16T00:14:30.000Z</time></trkpt>
        <trkpt lat="28.162384" lon="105.810589"><ele>1168.7778</ele><time>2026-08-16T00:14:32.000Z</time></trkpt>
        <trkpt lat="28.162373" lon="105.81057"><ele>1169.2522</ele><time>2026-08-16T00:14:34.000Z</time></trkpt>
        <trkpt lat="28.162362" lon="105.810553"><ele>1169.2429</ele><time>2026-08-16T00:14:36.000Z</time></trkpt>
        <trkpt lat="28.162352" lon="105.810535"><ele>1169.8734</ele><time>2026-08-16T00:14:38.000Z</time></trkpt>
        <trkpt lat="28.162341" lon="105.810515"><ele>1169.7924</ele><time>2026-08-16T00:14:40.000Z</time></trkpt>
        <trkpt lat="28.162333" lon="105.810497"><ele>1170.5707</ele><time>2026-08-16T00:14:42.000Z</time></trkpt>
        <trkpt lat="28.162329" lon="105.810477"><ele>1170.7188</ele><time>2026-08-16T00:14:44.000Z</time></trkpt>
        <trkpt lat="28.162328" lon="105.810454"><ele>1170.5059</ele><time>2026-08-16T00:14:46.000Z</time></trkpt>
        <trkpt lat="28.162328" lon="105.810433"><ele>1170.8246</ele><time>2026-08-16T00:14:49.000Z</time></trkpt>
        <trkpt lat="28.162329" lon="105.810412"><ele>1171.9672</ele><time>2026-08-16T00:14:51.000Z</time></trkpt>
        <trkpt lat="28.162331" lon="105.81039"><ele>1171.8276</ele><time>2026-08-16T00:14:53.000Z</time></trkpt>
        <trkpt lat="28.162331" lon="105.810369"><ele>1171.7661</ele><time>2026-08-16T00:14:55.000Z</time></trkpt>
        <trkpt lat="28.162335" lon="105.810346"><ele>1172.1562</ele><time>2026-08-16T00:14:57.000Z</time></trkpt>
        <trkpt lat="28.162343" lon="105.810327"><ele>1172.2732</ele><time>2026-08-16T00:14:59.000Z</time></trkpt>
        <trkpt lat="28.162355" lon="105.810312"><ele>1172.7036</ele><time>2026-08-16T00:15:01.000Z</time></trkpt>
        <trkpt lat="28.162371" lon="105.810299"><ele>1173.0566</ele><time>2026-08-16T00:15:03.000Z</time></trkpt>
        <trkpt lat="28.162386" lon="105.810288"><ele>1173.1038</ele><time>2026-08-16T00:15:05.000Z</time></trkpt>
        <trkpt lat="28.1624" lon="105.810279"><ele>1173.5334</ele><time>2026-08-16T00:15:07.000Z</time></trkpt>
        <trkpt lat="28.162411" lon="105.810271"><ele>1172.8145</ele><time>2026-08-16T00:15:09.000Z</time></trkpt>
        <trkpt lat="28.162423" lon="105.810262"><ele>1173.7427</ele><time>2026-08-16T00:15:11.000Z</time></trkpt>
        <trkpt lat="28.162434" lon="105.81025"><ele>1173.5566</ele><time>2026-08-16T00:15:13.000Z</time></trkpt>
        <trkpt lat="28.16245" lon="105.810236"><ele>1173.1482</ele><time>2026-08-16T00:15:15.000Z</time></trkpt>
        <trkpt lat="28.162465" lon="105.810221"><ele>1173.8894</ele><time>2026-08-16T00:15:17.000Z</time></trkpt>
        <trkpt lat="28.16248" lon="105.810205"><ele>1173.6265</ele><time>2026-08-16T00:15:19.000Z</time></trkpt>
        <trkpt lat="28.162488" lon="105.810189"><ele>1173.2318</ele><time>2026-08-16T00:15:21.000Z</time></trkpt>
        <trkpt lat="28.162493" lon="105.810171"><ele>1172.7174</ele><time>2026-08-16T00:15:23.000Z</time></trkpt>
        <trkpt lat="28.162498" lon="105.81015"><ele>1172.4651</ele><time>2026-08-16T00:15:25.000Z</time></trkpt>
        <trkpt lat="28.162502" lon="105.810129"><ele>1173.3397</ele><time>2026-08-16T00:15:27.000Z</time></trkpt>
        <trkpt lat="28.162506" lon="105.810107"><ele>1172.7666</ele><time>2026-08-16T00:15:29.000Z</time></trkpt>
        <trkpt lat="28.162509" lon="105.810084"><ele>1174.1284</ele><time>2026-08-16T00:15:31.000Z</time></trkpt>
        <trkpt lat="28.16251" lon="105.810061"><ele>1175.2096</ele><time>2026-08-16T00:15:33.000Z</time></trkpt>
        <trkpt lat="28.162511" lon="105.810038"><ele>1175.7999</ele><time>2026-08-16T00:15:35.000Z</time></trkpt>
        <trkpt lat="28.16251" lon="105.810021"><ele>1175.7158</ele><time>2026-08-16T00:15:37.000Z</time></trkpt>
        <trkpt lat="28.162508" lon="105.810003"><ele>1176.8207</ele><time>2026-08-16T00:15:39.000Z</time></trkpt>
        <trkpt lat="28.162505" lon="105.809991"><ele>1176.5004</ele><time>2026-08-16T00:15:41.000Z</time></trkpt>
        <trkpt lat="28.162502" lon="105.809977"><ele>1178.0607</ele><time>2026-08-16T00:15:43.000Z</time></trkpt>
        <trkpt lat="28.1625" lon="105.809959"><ele>1178.1765</ele><time>2026-08-16T00:15:45.000Z</time></trkpt>
        <trkpt lat="28.162499" lon="105.809937"><ele>1178.409</ele><time>2026-08-16T00:15:47.000Z</time></trkpt>
        <trkpt lat="28.1625" lon="105.809915"><ele>1179.1486</ele><time>2026-08-16T00:15:49.000Z</time></trkpt>
        <trkpt lat="28.162502" lon="105.809895"><ele>1180.4799</ele><time>2026-08-16T00:15:51.000Z</time></trkpt>
        <trkpt lat="28.162503" lon="105.809874"><ele>1181.2761</ele><time>2026-08-16T00:15:53.000Z</time></trkpt>
        <trkpt lat="28.162507" lon="105.809858"><ele>1181.5087</ele><time>2026-08-16T00:15:55.000Z</time></trkpt>
        <trkpt lat="28.162511" lon="105.809837"><ele>1181.3728</ele><time>2026-08-16T00:15:57.000Z</time></trkpt>
        <trkpt lat="28.162515" lon="105.80982"><ele>1182.9327</ele><time>2026-08-16T00:15:59.000Z</time></trkpt>
        <trkpt lat="28.162519" lon="105.809805"><ele>1183.4747</ele><time>2026-08-16T00:16:01.000Z</time></trkpt>
        <trkpt lat="28.162524" lon="105.80979"><ele>1184.2522</ele><time>2026-08-16T00:16:03.000Z</time></trkpt>
        <trkpt lat="28.162532" lon="105.809776"><ele>1184.701</ele><time>2026-08-16T00:16:05.000Z</time></trkpt>
        <trkpt lat="28.162542" lon="105.809758"><ele>1185.3973</ele><time>2026-08-16T00:16:07.000Z</time></trkpt>
        <trkpt lat="28.162553" lon="105.809738"><ele>1184.609</ele><time>2026-08-16T00:16:09.000Z</time></trkpt>
        <trkpt lat="28.162563" lon="105.809716"><ele>1185.2089</ele><time>2026-08-16T00:16:11.000Z</time></trkpt>
        <trkpt lat="28.162571" lon="105.809694"><ele>1185.4117</ele><time>2026-08-16T00:16:13.000Z</time></trkpt>
        <trkpt lat="28.162579" lon="105.809672"><ele>1185.8472</ele><time>2026-08-16T00:16:15.000Z</time></trkpt>
        <trkpt lat="28.162585" lon="105.809649"><ele>1185.2887</ele><time>2026-08-16T00:16:17.000Z</time></trkpt>
        <trkpt lat="28.162593" lon="105.809624"><ele>1185.9161</ele><time>2026-08-16T00:16:19.000Z</time></trkpt>
        <trkpt lat="28.162605" lon="105.809605"><ele>1186.2856</ele><time>2026-08-16T00:16:21.000Z</time></trkpt>
        <trkpt lat="28.162621" lon="105.80959"><ele>1186.4249</ele><time>2026-08-16T00:16:23.000Z</time></trkpt>
        <trkpt lat="28.162641" lon="105.809579"><ele>1187.1915</ele><time>2026-08-16T00:16:25.000Z</time></trkpt>
        <trkpt lat="28.162659" lon="105.809573"><ele>1186.8916</ele><time>2026-08-16T00:16:27.000Z</time></trkpt>
        <trkpt lat="28.162681" lon="105.809568"><ele>1187.0925</ele><time>2026-08-16T00:16:29.000Z</time></trkpt>
        <trkpt lat="28.162705" lon="105.809564"><ele>1186.754</ele><time>2026-08-16T00:16:31.000Z</time></trkpt>
        <trkpt lat="28.162724" lon="105.80956"><ele>1186.4237</ele><time>2026-08-16T00:16:33.000Z</time></trkpt>
        <trkpt lat="28.162743" lon="105.809553"><ele>1187.2493</ele><time>2026-08-16T00:16:35.000Z</time></trkpt>
        <trkpt lat="28.162759" lon="105.809544"><ele>1188.0149</ele><time>2026-08-16T00:16:37.000Z</time></trkpt>
        <trkpt lat="28.162774" lon="105.809531"><ele>1188.2937</ele><time>2026-08-16T00:16:39.000Z</time></trkpt>
        <trkpt lat="28.162788" lon="105.809514"><ele>1189.2476</ele><time>2026-08-16T00:16:41.000Z</time></trkpt>
        <trkpt lat="28.162801" lon="105.809493"><ele>1190.0375</ele><time>2026-08-16T00:16:43.000Z</time></trkpt>
        <trkpt lat="28.162809" lon="105.809472"><ele>1190.6705</ele><time>2026-08-16T00:16:45.000Z</time></trkpt>
        <trkpt lat="28.162815" lon="105.809446"><ele>1190.8088</ele><time>2026-08-16T00:16:47.000Z</time></trkpt>
        <trkpt lat="28.162816" lon="105.809423"><ele>1191.1294</ele><time>2026-08-16T00:16:49.000Z</time></trkpt>
        <trkpt lat="28.162814" lon="105.8094"><ele>1192.3396</ele><time>2026-08-16T00:16:51.000Z</time></trkpt>
        <trkpt lat="28.16281" lon="105.809372"><ele>1192.6869</ele><time>2026-08-16T00:16:53.000Z</time></trkpt>
        <trkpt lat="28.162805" lon="105.809346"><ele>1193.656</ele><time>2026-08-16T00:16:55.000Z</time></trkpt>
        <trkpt lat="28.1628" lon="105.809324"><ele>1194.0028</ele><time>2026-08-16T00:16:57.000Z</time></trkpt>
        <trkpt lat="28.162794" lon="105.809302"><ele>1195.1505</ele><time>2026-08-16T00:16:59.000Z</time></trkpt>
        <trkpt lat="28.162791" lon="105.809284"><ele>1195.7334</ele><time>2026-08-16T00:17:01.000Z</time></trkpt>
        <trkpt lat="28.162789" lon="105.809268"><ele>1193.458</ele><time>2026-08-16T00:17:03.000Z</time></trkpt>
        <trkpt lat="28.162786" lon="105.809253"><ele>1193.499</ele><time>2026-08-16T00:17:05.000Z</time></trkpt>
        <trkpt lat="28.162781" lon="105.809241"><ele>1192.966</ele><time>2026-08-16T00:17:07.000Z</time></trkpt>
        <trkpt lat="28.162776" lon="105.809233"><ele>1192.8983</ele><time>2026-08-16T00:17:09.000Z</time></trkpt>
        <trkpt lat="28.16277" lon="105.809223"><ele>1193.0045</ele><time>2026-08-16T00:17:11.000Z</time></trkpt>
        <trkpt lat="28.162761" lon="105.80921"><ele>1192.5377</ele><time>2026-08-16T00:17:13.000Z</time></trkpt>
        <trkpt lat="28.162756" lon="105.8092"><ele>1192.172</ele><time>2026-08-16T00:17:15.000Z</time></trkpt>
        <trkpt lat="28.162752" lon="105.809187"><ele>1191.9648</ele><time>2026-08-16T00:17:17.000Z</time></trkpt>
        <trkpt lat="28.162748" lon="105.809167"><ele>1191.1044</ele><time>2026-08-16T00:17:19.000Z</time></trkpt>
        <trkpt lat="28.162743" lon="105.809145"><ele>1190.4766</ele><time>2026-08-16T00:17:21.000Z</time></trkpt>
        <trkpt lat="28.16274" lon="105.809121"><ele>1190.2252</ele><time>2026-08-16T00:17:23.000Z</time></trkpt>
        <trkpt lat="28.162737" lon="105.809094"><ele>1190.1991</ele><time>2026-08-16T00:17:25.000Z</time></trkpt>
        <trkpt lat="28.162735" lon="105.809065"><ele>1189.8466</ele><time>2026-08-16T00:17:27.000Z</time></trkpt>
        <trkpt lat="28.162734" lon="105.809033"><ele>1189.5438</ele><time>2026-08-16T00:17:29.000Z</time></trkpt>
        <trkpt lat="28.162732" lon="105.809001"><ele>1188.9429</ele><time>2026-08-16T00:17:31.000Z</time></trkpt>
        <trkpt lat="28.162728" lon="105.808973"><ele>1188.853</ele><time>2026-08-16T00:17:33.000Z</time></trkpt>
        <trkpt lat="28.162721" lon="105.808947"><ele>1189.4542</ele><time>2026-08-16T00:17:35.000Z</time></trkpt>
        <trkpt lat="28.162714" lon="105.80892"><ele>1189.8892</ele><time>2026-08-16T00:17:37.000Z</time></trkpt>
        <trkpt lat="28.162708" lon="105.808892"><ele>1190.4727</ele><time>2026-08-16T00:17:39.000Z</time></trkpt>
        <trkpt lat="28.162705" lon="105.808865"><ele>1190.6489</ele><time>2026-08-16T00:17:41.000Z</time></trkpt>
        <trkpt lat="28.162707" lon="105.80884"><ele>1191.1838</ele><time>2026-08-16T00:17:43.000Z</time></trkpt>
        <trkpt lat="28.162713" lon="105.808817"><ele>1191.33</ele><time>2026-08-16T00:17:45.000Z</time></trkpt>
        <trkpt lat="28.162722" lon="105.808801"><ele>1191.7314</ele><time>2026-08-16T00:17:47.000Z</time></trkpt>
        <trkpt lat="28.162736" lon="105.808781"><ele>1192.6554</ele><time>2026-08-16T00:17:49.000Z</time></trkpt>
        <trkpt lat="28.162752" lon="105.808761"><ele>1192.9272</ele><time>2026-08-16T00:17:51.000Z</time></trkpt>
        <trkpt lat="28.162767" lon="105.808743"><ele>1194.081</ele><time>2026-08-16T00:17:53.000Z</time></trkpt>
        <trkpt lat="28.16278" lon="105.808724"><ele>1195.0581</ele><time>2026-08-16T00:17:55.000Z</time></trkpt>
        <trkpt lat="28.162789" lon="105.808704"><ele>1195.9794</ele><time>2026-08-16T00:17:57.000Z</time></trkpt>
        <trkpt lat="28.1628" lon="105.808684"><ele>1196.514</ele><time>2026-08-16T00:17:59.000Z</time></trkpt>
        <trkpt lat="28.162813" lon="105.808662"><ele>1197.0547</ele><time>2026-08-16T00:18:01.000Z</time></trkpt>
        <trkpt lat="28.162825" lon="105.808641"><ele>1196.8636</ele><time>2026-08-16T00:18:03.000Z</time></trkpt>
        <trkpt lat="28.162837" lon="105.808624"><ele>1197.0175</ele><time>2026-08-16T00:18:05.000Z</time></trkpt>
        <trkpt lat="28.162851" lon="105.808608"><ele>1198.2102</ele><time>2026-08-16T00:18:07.000Z</time></trkpt>
        <trkpt lat="28.162865" lon="105.808591"><ele>1198.0825</ele><time>2026-08-16T00:18:09.000Z</time></trkpt>
        <trkpt lat="28.162879" lon="105.808575"><ele>1198.514</ele><time>2026-08-16T00:18:11.000Z</time></trkpt>
        <trkpt lat="28.162895" lon="105.808557"><ele>1199.4344</ele><time>2026-08-16T00:18:13.000Z</time></trkpt>
        <trkpt lat="28.162913" lon="105.808537"><ele>1199.561</ele><time>2026-08-16T00:18:15.000Z</time></trkpt>
        <trkpt lat="28.162929" lon="105.808516"><ele>1200.3629</ele><time>2026-08-16T00:18:17.000Z</time></trkpt>
        <trkpt lat="28.162941" lon="105.808495"><ele>1200.8813</ele><time>2026-08-16T00:18:19.000Z</time></trkpt>
        <trkpt lat="28.162953" lon="105.808469"><ele>1202.0902</ele><time>2026-08-16T00:18:21.000Z</time></trkpt>
        <trkpt lat="28.162964" lon="105.808444"><ele>1202.2509</ele><time>2026-08-16T00:18:23.000Z</time></trkpt>
        <trkpt lat="28.162974" lon="105.808418"><ele>1201.9531</ele><time>2026-08-16T00:18:25.000Z</time></trkpt>
        <trkpt lat="28.162983" lon="105.808393"><ele>1201.8065</ele><time>2026-08-16T00:18:27.000Z</time></trkpt>
        <trkpt lat="28.162992" lon="105.808371"><ele>1201.7024</ele><time>2026-08-16T00:18:29.000Z</time></trkpt>
        <trkpt lat="28.163" lon="105.808347"><ele>1202.0801</ele><time>2026-08-16T00:18:31.000Z</time></trkpt>
        <trkpt lat="28.163006" lon="105.808323"><ele>1202.0508</ele><time>2026-08-16T00:18:33.000Z</time></trkpt>
        <trkpt lat="28.163009" lon="105.808301"><ele>1201.7587</ele><time>2026-08-16T00:18:35.000Z</time></trkpt>
        <trkpt lat="28.163011" lon="105.808277"><ele>1201.5679</ele><time>2026-08-16T00:18:37.000Z</time></trkpt>
        <trkpt lat="28.163009" lon="105.808255"><ele>1202.1915</ele><time>2026-08-16T00:18:39.000Z</time></trkpt>
        <trkpt lat="28.163005" lon="105.808234"><ele>1202.2323</ele><time>2026-08-16T00:18:41.000Z</time></trkpt>
        <trkpt lat="28.162999" lon="105.808213"><ele>1203.1218</ele><time>2026-08-16T00:18:43.000Z</time></trkpt>
        <trkpt lat="28.162989" lon="105.808189"><ele>1203.2048</ele><time>2026-08-16T00:18:45.000Z</time></trkpt>
        <trkpt lat="28.162978" lon="105.808167"><ele>1203.4423</ele><time>2026-08-16T00:18:47.000Z</time></trkpt>
        <trkpt lat="28.162962" lon="105.808142"><ele>1203.4517</ele><time>2026-08-16T00:18:49.000Z</time></trkpt>
        <trkpt lat="28.162946" lon="105.808117"><ele>1203.9326</ele><time>2026-08-16T00:18:51.000Z</time></trkpt>
        <trkpt lat="28.162931" lon="105.808088"><ele>1203.6896</ele><time>2026-08-16T00:18:53.000Z</time></trkpt>
        <trkpt lat="28.162919" lon="105.808061"><ele>1205.2405</ele><time>2026-08-16T00:18:55.000Z</time></trkpt>
        <trkpt lat="28.16291" lon="105.808034"><ele>1205.9843</ele><time>2026-08-16T00:18:57.000Z</time></trkpt>
        <trkpt lat="28.1629" lon="105.808007"><ele>1206.3389</ele><time>2026-08-16T00:18:59.000Z</time></trkpt>
        <trkpt lat="28.16289" lon="105.807979"><ele>1206.7094</ele><time>2026-08-16T00:19:01.000Z</time></trkpt>
        <trkpt lat="28.162881" lon="105.807953"><ele>1207.3356</ele><time>2026-08-16T00:19:03.000Z</time></trkpt>
        <trkpt lat="28.162871" lon="105.807929"><ele>1207.1991</ele><time>2026-08-16T00:19:05.000Z</time></trkpt>
        <trkpt lat="28.162862" lon="105.80791"><ele>1206.3514</ele><time>2026-08-16T00:19:07.000Z</time></trkpt>
        <trkpt lat="28.162853" lon="105.807892"><ele>1206.8015</ele><time>2026-08-16T00:19:09.000Z</time></trkpt>
        <trkpt lat="28.162841" lon="105.807872"><ele>1206.6545</ele><time>2026-08-16T00:19:11.000Z</time></trkpt>
        <trkpt lat="28.162827" lon="105.807851"><ele>1205.803</ele><time>2026-08-16T00:19:13.000Z</time></trkpt>
        <trkpt lat="28.162816" lon="105.807829"><ele>1204.8016</ele><time>2026-08-16T00:19:15.000Z</time></trkpt>
        <trkpt lat="28.162807" lon="105.807806"><ele>1204.0585</ele><time>2026-08-16T00:19:17.000Z</time></trkpt>
        <trkpt lat="28.162798" lon="105.807781"><ele>1203.023</ele><time>2026-08-16T00:19:19.000Z</time></trkpt>
        <trkpt lat="28.162791" lon="105.807755"><ele>1202.7198</ele><time>2026-08-16T00:19:21.000Z</time></trkpt>
        <trkpt lat="28.162783" lon="105.80773"><ele>1202.5161</ele><time>2026-08-16T00:19:23.000Z</time></trkpt>
        <trkpt lat="28.162775" lon="105.807704"><ele>1202.2234</ele><time>2026-08-16T00:19:25.000Z</time></trkpt>
        <trkpt lat="28.16277" lon="105.807676"><ele>1202.135</ele><time>2026-08-16T00:19:27.000Z</time></trkpt>
        <trkpt lat="28.162768" lon="105.807647"><ele>1201.9398</ele><time>2026-08-16T00:19:29.000Z</time></trkpt>
        <trkpt lat="28.162768" lon="105.807616"><ele>1202.432</ele><time>2026-08-16T00:19:31.000Z</time></trkpt>
        <trkpt lat="28.16277" lon="105.807584"><ele>1202.6023</ele><time>2026-08-16T00:19:33.000Z</time></trkpt>
        <trkpt lat="28.162771" lon="105.807557"><ele>1201.4683</ele><time>2026-08-16T00:19:35.000Z</time></trkpt>
        <trkpt lat="28.162773" lon="105.807535"><ele>1202.075</ele><time>2026-08-16T00:19:37.000Z</time></trkpt>
        <trkpt lat="28.162776" lon="105.807509"><ele>1202.267</ele><time>2026-08-16T00:19:39.000Z</time></trkpt>
        <trkpt lat="28.162778" lon="105.807486"><ele>1201.8369</ele><time>2026-08-16T00:19:41.000Z</time></trkpt>
        <trkpt lat="28.162781" lon="105.807463"><ele>1201.7109</ele><time>2026-08-16T00:19:43.000Z</time></trkpt>
        <trkpt lat="28.162781" lon="105.80744"><ele>1202.0634</ele><time>2026-08-16T00:19:45.000Z</time></trkpt>
        <trkpt lat="28.162779" lon="105.807416"><ele>1202.4767</ele><time>2026-08-16T00:19:47.000Z</time></trkpt>
        <trkpt lat="28.162776" lon="105.807391"><ele>1202.796</ele><time>2026-08-16T00:19:49.000Z</time></trkpt>
        <trkpt lat="28.162775" lon="105.807365"><ele>1202.6741</ele><time>2026-08-16T00:19:51.000Z</time></trkpt>
        <trkpt lat="28.162773" lon="105.807343"><ele>1203.0096</ele><time>2026-08-16T00:19:53.000Z</time></trkpt>
        <trkpt lat="28.162773" lon="105.807319"><ele>1203.8071</ele><time>2026-08-16T00:19:55.000Z</time></trkpt>
        <trkpt lat="28.162773" lon="105.807293"><ele>1203.5931</ele><time>2026-08-16T00:19:57.000Z</time></trkpt>
        <trkpt lat="28.162774" lon="105.807263"><ele>1204.018</ele><time>2026-08-16T00:19:59.000Z</time></trkpt>
        <trkpt lat="28.162776" lon="105.807233"><ele>1204.0509</ele><time>2026-08-16T00:20:01.000Z</time></trkpt>
        <trkpt lat="28.162778" lon="105.807207"><ele>1204.8916</ele><time>2026-08-16T00:20:03.000Z</time></trkpt>
        <trkpt lat="28.162779" lon="105.80718"><ele>1204.8741</ele><time>2026-08-16T00:20:05.000Z</time></trkpt>
        <trkpt lat="28.162781" lon="105.807153"><ele>1205.3337</ele><time>2026-08-16T00:20:07.000Z</time></trkpt>
        <trkpt lat="28.162785" lon="105.807126"><ele>1204.548</ele><time>2026-08-16T00:20:09.000Z</time></trkpt>
        <trkpt lat="28.162789" lon="105.807101"><ele>1205.4</ele><time>2026-08-16T00:20:11.000Z</time></trkpt>
        <trkpt lat="28.162794" lon="105.807078"><ele>1206.0614</ele><time>2026-08-16T00:20:13.000Z</time></trkpt>
        <trkpt lat="28.162802" lon="105.807057"><ele>1206.1334</ele><time>2026-08-16T00:20:15.000Z</time></trkpt>
        <trkpt lat="28.162813" lon="105.807034"><ele>1205.4941</ele><time>2026-08-16T00:20:17.000Z</time></trkpt>
        <trkpt lat="28.162825" lon="105.807015"><ele>1203.6136</ele><time>2026-08-16T00:20:19.000Z</time></trkpt>
        <trkpt lat="28.16284" lon="105.807"><ele>1203.7695</ele><time>2026-08-16T00:20:21.000Z</time></trkpt>
        <trkpt lat="28.162857" lon="105.80699"><ele>1203.909</ele><time>2026-08-16T00:20:23.000Z</time></trkpt>
        <trkpt lat="28.162879" lon="105.806978"><ele>1203.8175</ele><time>2026-08-16T00:20:25.000Z</time></trkpt>
        <trkpt lat="28.162903" lon="105.806964"><ele>1203.3116</ele><time>2026-08-16T00:20:27.000Z</time></trkpt>
        <trkpt lat="28.162926" lon="105.806951"><ele>1204.3469</ele><time>2026-08-16T00:20:29.000Z</time></trkpt>
        <trkpt lat="28.162946" lon="105.806937"><ele>1204.1917</ele><time>2026-08-16T00:20:31.000Z</time></trkpt>
        <trkpt lat="28.162964" lon="105.806919"><ele>1204.4955</ele><time>2026-08-16T00:20:33.000Z</time></trkpt>
        <trkpt lat="28.162977" lon="105.806896"><ele>1205.6565</ele><time>2026-08-16T00:20:35.000Z</time></trkpt>
        <trkpt lat="28.162987" lon="105.806872"><ele>1206.1255</ele><time>2026-08-16T00:20:37.000Z</time></trkpt>
        <trkpt lat="28.162992" lon="105.806846"><ele>1207.8407</ele><time>2026-08-16T00:20:39.000Z</time></trkpt>
        <trkpt lat="28.162991" lon="105.806821"><ele>1209.54</ele><time>2026-08-16T00:20:41.000Z</time></trkpt>
        <trkpt lat="28.162986" lon="105.806801"><ele>1209.1342</ele><time>2026-08-16T00:20:43.000Z</time></trkpt>
        <trkpt lat="28.162978" lon="105.806782"><ele>1209.1793</ele><time>2026-08-16T00:20:45.000Z</time></trkpt>
        <trkpt lat="28.162972" lon="105.806764"><ele>1210.0627</ele><time>2026-08-16T00:20:47.000Z</time></trkpt>
        <trkpt lat="28.162964" lon="105.806743"><ele>1208.8762</ele><time>2026-08-16T00:20:49.000Z</time></trkpt>
        <trkpt lat="28.162954" lon="105.806722"><ele>1208.4062</ele><time>2026-08-16T00:20:51.000Z</time></trkpt>
        <trkpt lat="28.162947" lon="105.806698"><ele>1209.3451</ele><time>2026-08-16T00:20:53.000Z</time></trkpt>
        <trkpt lat="28.162942" lon="105.806672"><ele>1210.5667</ele><time>2026-08-16T00:20:55.000Z</time></trkpt>
        <trkpt lat="28.162941" lon="105.806643"><ele>1210.825</ele><time>2026-08-16T00:20:57.000Z</time></trkpt>
        <trkpt lat="28.162943" lon="105.80661"><ele>1210.6794</ele><time>2026-08-16T00:20:59.000Z</time></trkpt>
        <trkpt lat="28.162951" lon="105.806582"><ele>1211.2148</ele><time>2026-08-16T00:21:01.000Z</time></trkpt>
        <trkpt lat="28.162963" lon="105.806558"><ele>1212.0453</ele><time>2026-08-16T00:21:03.000Z</time></trkpt>
        <trkpt lat="28.162979" lon="105.806539"><ele>1210.9803</ele><time>2026-08-16T00:21:05.000Z</time></trkpt>
        <trkpt lat="28.162998" lon="105.806522"><ele>1210.104</ele><time>2026-08-16T00:21:07.000Z</time></trkpt>
        <trkpt lat="28.163018" lon="105.806507"><ele>1210.1814</ele><time>2026-08-16T00:21:09.000Z</time></trkpt>
        <trkpt lat="28.163035" lon="105.80649"><ele>1209.4924</ele><time>2026-08-16T00:21:11.000Z</time></trkpt>
        <trkpt lat="28.163052" lon="105.806471"><ele>1209.5579</ele><time>2026-08-16T00:21:13.000Z</time></trkpt>
        <trkpt lat="28.163069" lon="105.806449"><ele>1210.266</ele><time>2026-08-16T00:21:15.000Z</time></trkpt>
        <trkpt lat="28.163085" lon="105.806426"><ele>1210.7896</ele><time>2026-08-16T00:21:17.000Z</time></trkpt>
        <trkpt lat="28.163102" lon="105.806401"><ele>1210.4658</ele><time>2026-08-16T00:21:19.000Z</time></trkpt>
        <trkpt lat="28.163116" lon="105.806378"><ele>1210.5092</ele><time>2026-08-16T00:21:21.000Z</time></trkpt>
        <trkpt lat="28.163129" lon="105.806357"><ele>1210.6588</ele><time>2026-08-16T00:21:23.000Z</time></trkpt>
        <trkpt lat="28.163143" lon="105.806335"><ele>1211.4277</ele><time>2026-08-16T00:21:25.000Z</time></trkpt>
        <trkpt lat="28.163158" lon="105.806311"><ele>1211.2712</ele><time>2026-08-16T00:21:27.000Z</time></trkpt>
        <trkpt lat="28.163173" lon="105.806289"><ele>1211.7552</ele><time>2026-08-16T00:21:29.000Z</time></trkpt>
        <trkpt lat="28.163187" lon="105.806265"><ele>1213.1361</ele><time>2026-08-16T00:21:31.000Z</time></trkpt>
        <trkpt lat="28.1632" lon="105.806241"><ele>1213.488</ele><time>2026-08-16T00:21:33.000Z</time></trkpt>
        <trkpt lat="28.163214" lon="105.806217"><ele>1213.6836</ele><time>2026-08-16T00:21:35.000Z</time></trkpt>
        <trkpt lat="28.163228" lon="105.806193"><ele>1214.3712</ele><time>2026-08-16T00:21:37.000Z</time></trkpt>
        <trkpt lat="28.163241" lon="105.806168"><ele>1214.6566</ele><time>2026-08-16T00:21:39.000Z</time></trkpt>
        <trkpt lat="28.163257" lon="105.806144"><ele>1214.6826</ele><time>2026-08-16T00:21:41.000Z</time></trkpt>
        <trkpt lat="28.163276" lon="105.806123"><ele>1215.1176</ele><time>2026-08-16T00:21:43.000Z</time></trkpt>
        <trkpt lat="28.163298" lon="105.80611"><ele>1215.1097</ele><time>2026-08-16T00:21:45.000Z</time></trkpt>
        <trkpt lat="28.163318" lon="105.806106"><ele>1214.5045</ele><time>2026-08-16T00:21:47.000Z</time></trkpt>
        <trkpt lat="28.163342" lon="105.806105"><ele>1214.317</ele><time>2026-08-16T00:21:49.000Z</time></trkpt>
        <trkpt lat="28.163368" lon="105.806106"><ele>1215.035</ele><time>2026-08-16T00:21:51.000Z</time></trkpt>
        <trkpt lat="28.163394" lon="105.806104"><ele>1216.4617</ele><time>2026-08-16T00:21:53.000Z</time></trkpt>
        <trkpt lat="28.163416" lon="105.8061"><ele>1216.7775</ele><time>2026-08-16T00:21:55.000Z</time></trkpt>
        <trkpt lat="28.163436" lon="105.806095"><ele>1217.4645</ele><time>2026-08-16T00:21:57.000Z</time></trkpt>
        <trkpt lat="28.163457" lon="105.806088"><ele>1217.5918</ele><time>2026-08-16T00:21:59.000Z</time></trkpt>
        <trkpt lat="28.163477" lon="105.80608"><ele>1216.9503</ele><time>2026-08-16T00:22:01.000Z</time></trkpt>
        <trkpt lat="28.163497" lon="105.80607"><ele>1217.0066</ele><time>2026-08-16T00:22:03.000Z</time></trkpt>
        <trkpt lat="28.163514" lon="105.806057"><ele>1216.3845</ele><time>2026-08-16T00:22:05.000Z</time></trkpt>
        <trkpt lat="28.163529" lon="105.80604"><ele>1217.1101</ele><time>2026-08-16T00:22:07.000Z</time></trkpt>
        <trkpt lat="28.163543" lon="105.806019"><ele>1216.4891</ele><time>2026-08-16T00:22:09.000Z</time></trkpt>
        <trkpt lat="28.163556" lon="105.805995"><ele>1216.9539</ele><time>2026-08-16T00:22:11.000Z</time></trkpt>
        <trkpt lat="28.163563" lon="105.805969"><ele>1218.1123</ele><time>2026-08-16T00:22:13.000Z</time></trkpt>
        <trkpt lat="28.163567" lon="105.805937"><ele>1218.6329</ele><time>2026-08-16T00:22:15.000Z</time></trkpt>
        <trkpt lat="28.163565" lon="105.805908"><ele>1218.9197</ele><time>2026-08-16T00:22:17.000Z</time></trkpt>
        <trkpt lat="28.163556" lon="105.805877"><ele>1219.5793</ele><time>2026-08-16T00:22:19.000Z</time></trkpt>
        <trkpt lat="28.163543" lon="105.805855"><ele>1219.4403</ele><time>2026-08-16T00:22:21.000Z</time></trkpt>
        <trkpt lat="28.163527" lon="105.805842"><ele>1220.4626</ele><time>2026-08-16T00:22:23.000Z</time></trkpt>
        <trkpt lat="28.163509" lon="105.805834"><ele>1221.2166</ele><time>2026-08-16T00:22:25.000Z</time></trkpt>
        <trkpt lat="28.163487" lon="105.805826"><ele>1221.3462</ele><time>2026-08-16T00:22:27.000Z</time></trkpt>
        <trkpt lat="28.163462" lon="105.805821"><ele>1221.5121</ele><time>2026-08-16T00:22:29.000Z</time></trkpt>
        <trkpt lat="28.163435" lon="105.805817"><ele>1220.6045</ele><time>2026-08-16T00:22:31.000Z</time></trkpt>
        <trkpt lat="28.163411" lon="105.805813"><ele>1220.9722</ele><time>2026-08-16T00:22:33.000Z</time></trkpt>
        <trkpt lat="28.163387" lon="105.80581"><ele>1221.6085</ele><time>2026-08-16T00:22:35.000Z</time></trkpt>
        <trkpt lat="28.163366" lon="105.805804"><ele>1222.7668</ele><time>2026-08-16T00:22:37.000Z</time></trkpt>
        <trkpt lat="28.163344" lon="105.805796"><ele>1222.0415</ele><time>2026-08-16T00:22:39.000Z</time></trkpt>
        <trkpt lat="28.16332" lon="105.805787"><ele>1222.4391</ele><time>2026-08-16T00:22:41.000Z</time></trkpt>
        <trkpt lat="28.163298" lon="105.805776"><ele>1222.4785</ele><time>2026-08-16T00:22:43.000Z</time></trkpt>
        <trkpt lat="28.16328" lon="105.805764"><ele>1221.9811</ele><time>2026-08-16T00:22:45.000Z</time></trkpt>
        <trkpt lat="28.163263" lon="105.805749"><ele>1222.3268</ele><time>2026-08-16T00:22:47.000Z</time></trkpt>
        <trkpt lat="28.163248" lon="105.805734"><ele>1221.844</ele><time>2026-08-16T00:22:49.000Z</time></trkpt>
        <trkpt lat="28.163234" lon="105.805716"><ele>1221.4178</ele><time>2026-08-16T00:22:51.000Z</time></trkpt>
        <trkpt lat="28.163221" lon="105.805698"><ele>1222.1519</ele><time>2026-08-16T00:22:53.000Z</time></trkpt>
        <trkpt lat="28.163212" lon="105.805679"><ele>1223.2649</ele><time>2026-08-16T00:22:55.000Z</time></trkpt>
        <trkpt lat="28.163205" lon="105.805657"><ele>1222.4042</ele><time>2026-08-16T00:22:57.000Z</time></trkpt>
        <trkpt lat="28.163203" lon="105.805637"><ele>1225.0502</ele><time>2026-08-16T00:22:59.000Z</time></trkpt>
        <trkpt lat="28.163202" lon="105.80561"><ele>1224.7762</ele><time>2026-08-16T00:23:01.000Z</time></trkpt>
        <trkpt lat="28.163203" lon="105.80558"><ele>1224.5165</ele><time>2026-08-16T00:23:03.000Z</time></trkpt>
        <trkpt lat="28.163206" lon="105.805552"><ele>1224.2549</ele><time>2026-08-16T00:23:05.000Z</time></trkpt>
        <trkpt lat="28.16321" lon="105.805522"><ele>1224.4161</ele><time>2026-08-16T00:23:07.000Z</time></trkpt>
        <trkpt lat="28.163215" lon="105.805493"><ele>1225.1116</ele><time>2026-08-16T00:23:09.000Z</time></trkpt>
        <trkpt lat="28.16322" lon="105.805471"><ele>1225.227</ele><time>2026-08-16T00:23:11.000Z</time></trkpt>
        <trkpt lat="28.163229" lon="105.805451"><ele>1226.1282</ele><time>2026-08-16T00:23:13.000Z</time></trkpt>
        <trkpt lat="28.163241" lon="105.805427"><ele>1226.7734</ele><time>2026-08-16T00:23:15.000Z</time></trkpt>
        <trkpt lat="28.163252" lon="105.805405"><ele>1226.6255</ele><time>2026-08-16T00:23:17.000Z</time></trkpt>
        <trkpt lat="28.163263" lon="105.805382"><ele>1226.2666</ele><time>2026-08-16T00:23:19.000Z</time></trkpt>
        <trkpt lat="28.163273" lon="105.805357"><ele>1225.8236</ele><time>2026-08-16T00:23:21.000Z</time></trkpt>
        <trkpt lat="28.163281" lon="105.805335"><ele>1226.3422</ele><time>2026-08-16T00:23:23.000Z</time></trkpt>
        <trkpt lat="28.163287" lon="105.805311"><ele>1226.5402</ele><time>2026-08-16T00:23:25.000Z</time></trkpt>
        <trkpt lat="28.163292" lon="105.805286"><ele>1226.7924</ele><time>2026-08-16T00:23:27.000Z</time></trkpt>
        <trkpt lat="28.163296" lon="105.805262"><ele>1227.9832</ele><time>2026-08-16T00:23:29.000Z</time></trkpt>
        <trkpt lat="28.163301" lon="105.805239"><ele>1227.9622</ele><time>2026-08-16T00:23:31.000Z</time></trkpt>
        <trkpt lat="28.163306" lon="105.805215"><ele>1226.3346</ele><time>2026-08-16T00:23:33.000Z</time></trkpt>
        <trkpt lat="28.163311" lon="105.805195"><ele>1227.0826</ele><time>2026-08-16T00:23:35.000Z</time></trkpt>
        <trkpt lat="28.163315" lon="105.805175"><ele>1227.7144</ele><time>2026-08-16T00:23:37.000Z</time></trkpt>
        <trkpt lat="28.163319" lon="105.805153"><ele>1227.1128</ele><time>2026-08-16T00:23:39.000Z</time></trkpt>
        <trkpt lat="28.163321" lon="105.805134"><ele>1226.9297</ele><time>2026-08-16T00:23:41.000Z</time></trkpt>
        <trkpt lat="28.163321" lon="105.805118"><ele>1226.87</ele><time>2026-08-16T00:23:43.000Z</time></trkpt>
        <trkpt lat="28.163322" lon="105.805099"><ele>1227.3756</ele><time>2026-08-16T00:23:45.000Z</time></trkpt>
        <trkpt lat="28.163323" lon="105.80508"><ele>1226.7181</ele><time>2026-08-16T00:23:47.000Z</time></trkpt>
        <trkpt lat="28.163323" lon="105.80506"><ele>1227.1859</ele><time>2026-08-16T00:23:49.000Z</time></trkpt>
        <trkpt lat="28.163324" lon="105.805038"><ele>1227.9491</ele><time>2026-08-16T00:23:51.000Z</time></trkpt>
        <trkpt lat="28.163326" lon="105.805016"><ele>1228.5273</ele><time>2026-08-16T00:23:53.000Z</time></trkpt>
        <trkpt lat="28.163327" lon="105.804989"><ele>1228.4362</ele><time>2026-08-16T00:23:55.000Z</time></trkpt>
        <trkpt lat="28.163329" lon="105.804963"><ele>1229.3817</ele><time>2026-08-16T00:23:57.000Z</time></trkpt>
        <trkpt lat="28.163332" lon="105.804937"><ele>1229.1918</ele><time>2026-08-16T00:23:59.000Z</time></trkpt>
        <trkpt lat="28.163336" lon="105.804914"><ele>1229.4503</ele><time>2026-08-16T00:24:01.000Z</time></trkpt>
        <trkpt lat="28.16334" lon="105.80489"><ele>1229.6356</ele><time>2026-08-16T00:24:03.000Z</time></trkpt>
        <trkpt lat="28.163344" lon="105.804869"><ele>1229.3712</ele><time>2026-08-16T00:24:05.000Z</time></trkpt>
        <trkpt lat="28.163349" lon="105.804848"><ele>1228.913</ele><time>2026-08-16T00:24:07.000Z</time></trkpt>
        <trkpt lat="28.163354" lon="105.804824"><ele>1229.2903</ele><time>2026-08-16T00:24:09.000Z</time></trkpt>
        <trkpt lat="28.163358" lon="105.804799"><ele>1229.6995</ele><time>2026-08-16T00:24:11.000Z</time></trkpt>
        <trkpt lat="28.163359" lon="105.804772"><ele>1230.6501</ele><time>2026-08-16T00:24:13.000Z</time></trkpt>
        <trkpt lat="28.163358" lon="105.804748"><ele>1231.1537</ele><time>2026-08-16T00:24:15.000Z</time></trkpt>
        <trkpt lat="28.163355" lon="105.804726"><ele>1231.5276</ele><time>2026-08-16T00:24:17.000Z</time></trkpt>
        <trkpt lat="28.163348" lon="105.804704"><ele>1231.551</ele><time>2026-08-16T00:24:19.000Z</time></trkpt>
        <trkpt lat="28.163337" lon="105.804682"><ele>1232.533</ele><time>2026-08-16T00:24:21.000Z</time></trkpt>
        <trkpt lat="28.163325" lon="105.804662"><ele>1232.9808</ele><time>2026-08-16T00:24:23.000Z</time></trkpt>
        <trkpt lat="28.16331" lon="105.80464"><ele>1233.3174</ele><time>2026-08-16T00:24:25.000Z</time></trkpt>
        <trkpt lat="28.163295" lon="105.804621"><ele>1233.121</ele><time>2026-08-16T00:24:27.000Z</time></trkpt>
        <trkpt lat="28.163278" lon="105.8046"><ele>1233.7623</ele><time>2026-08-16T00:24:29.000Z</time></trkpt>
        <trkpt lat="28.16326" lon="105.804582"><ele>1234.0497</ele><time>2026-08-16T00:24:31.000Z</time></trkpt>
        <trkpt lat="28.163242" lon="105.804569"><ele>1233.9596</ele><time>2026-08-16T00:24:33.000Z</time></trkpt>
        <trkpt lat="28.163221" lon="105.804556"><ele>1235.0697</ele><time>2026-08-16T00:24:35.000Z</time></trkpt>
        <trkpt lat="28.163198" lon="105.804543"><ele>1234.6229</ele><time>2026-08-16T00:24:37.000Z</time></trkpt>
        <trkpt lat="28.163174" lon="105.804531"><ele>1234.7214</ele><time>2026-08-16T00:24:39.000Z</time></trkpt>
        <trkpt lat="28.163148" lon="105.804521"><ele>1235.7825</ele><time>2026-08-16T00:24:41.000Z</time></trkpt>
        <trkpt lat="28.163126" lon="105.804514"><ele>1235.6758</ele><time>2026-08-16T00:24:43.000Z</time></trkpt>
        <trkpt lat="28.163104" lon="105.804507"><ele>1235.9886</ele><time>2026-08-16T00:24:45.000Z</time></trkpt>
        <trkpt lat="28.163081" lon="105.804498"><ele>1236.2021</ele><time>2026-08-16T00:24:47.000Z</time></trkpt>
        <trkpt lat="28.163058" lon="105.804486"><ele>1236.0894</ele><time>2026-08-16T00:24:49.000Z</time></trkpt>
        <trkpt lat="28.163038" lon="105.804473"><ele>1236.4093</ele><time>2026-08-16T00:24:51.000Z</time></trkpt>
        <trkpt lat="28.16302" lon="105.804456"><ele>1236.5293</ele><time>2026-08-16T00:24:53.000Z</time></trkpt>
        <trkpt lat="28.163005" lon="105.804437"><ele>1236.4</ele><time>2026-08-16T00:24:55.000Z</time></trkpt>
        <trkpt lat="28.162992" lon="105.804413"><ele>1235.9185</ele><time>2026-08-16T00:24:57.000Z</time></trkpt>
        <trkpt lat="28.162983" lon="105.804388"><ele>1235.9657</ele><time>2026-08-16T00:24:59.000Z</time></trkpt>
        <trkpt lat="28.162975" lon="105.80436"><ele>1236.9128</ele><time>2026-08-16T00:25:01.000Z</time></trkpt>
        <trkpt lat="28.162969" lon="105.804332"><ele>1236.2521</ele><time>2026-08-16T00:25:03.000Z</time></trkpt>
        <trkpt lat="28.162963" lon="105.804305"><ele>1236.3042</ele><time>2026-08-16T00:25:05.000Z</time></trkpt>
        <trkpt lat="28.162959" lon="105.804279"><ele>1235.3063</ele><time>2026-08-16T00:25:07.000Z</time></trkpt>
        <trkpt lat="28.162954" lon="105.804255"><ele>1234.7198</ele><time>2026-08-16T00:25:09.000Z</time></trkpt>
        <trkpt lat="28.162952" lon="105.804234"><ele>1234.8137</ele><time>2026-08-16T00:25:11.000Z</time></trkpt>
        <trkpt lat="28.162951" lon="105.804216"><ele>1234.0846</ele><time>2026-08-16T00:25:13.000Z</time></trkpt>
        <trkpt lat="28.162949" lon="105.804196"><ele>1234.0693</ele><time>2026-08-16T00:25:15.000Z</time></trkpt>
        <trkpt lat="28.162948" lon="105.804172"><ele>1233.9279</ele><time>2026-08-16T00:25:17.000Z</time></trkpt>
        <trkpt lat="28.162949" lon="105.804145"><ele>1234.1361</ele><time>2026-08-16T00:25:19.000Z</time></trkpt>
        <trkpt lat="28.162952" lon="105.804114"><ele>1234.0348</ele><time>2026-08-16T00:25:21.000Z</time></trkpt>
        <trkpt lat="28.162957" lon="105.804086"><ele>1234.2394</ele><time>2026-08-16T00:25:23.000Z</time></trkpt>
        <trkpt lat="28.162964" lon="105.804059"><ele>1235.1278</ele><time>2026-08-16T00:25:25.000Z</time></trkpt>
        <trkpt lat="28.16297" lon="105.804034"><ele>1234.3933</ele><time>2026-08-16T00:25:27.000Z</time></trkpt>
        <trkpt lat="28.162977" lon="105.804009"><ele>1234.1631</ele><time>2026-08-16T00:25:29.000Z</time></trkpt>
        <trkpt lat="28.162982" lon="105.803983"><ele>1233.5338</ele><time>2026-08-16T00:25:31.000Z</time></trkpt>
        <trkpt lat="28.162985" lon="105.803958"><ele>1233.9509</ele><time>2026-08-16T00:25:33.000Z</time></trkpt>
        <trkpt lat="28.162984" lon="105.803932"><ele>1234.2334</ele><time>2026-08-16T00:25:35.000Z</time></trkpt>
        <trkpt lat="28.162976" lon="105.803909"><ele>1234.913</ele><time>2026-08-16T00:25:37.000Z</time></trkpt>
        <trkpt lat="28.162965" lon="105.803885"><ele>1235.851</ele><time>2026-08-16T00:25:39.000Z</time></trkpt>
        <trkpt lat="28.16295" lon="105.803861"><ele>1236.0386</ele><time>2026-08-16T00:25:41.000Z</time></trkpt>
        <trkpt lat="28.162933" lon="105.80384"><ele>1235.7599</ele><time>2026-08-16T00:25:43.000Z</time></trkpt>
        <trkpt lat="28.162914" lon="105.803823"><ele>1235.2096</ele><time>2026-08-16T00:25:45.000Z</time></trkpt>
        <trkpt lat="28.162893" lon="105.803807"><ele>1236.2085</ele><time>2026-08-16T00:25:47.000Z</time></trkpt>
        <trkpt lat="28.16287" lon="105.80379"><ele>1236.9437</ele><time>2026-08-16T00:25:49.000Z</time></trkpt>
        <trkpt lat="28.162847" lon="105.803773"><ele>1237.1387</ele><time>2026-08-16T00:25:51.000Z</time></trkpt>
        <trkpt lat="28.162827" lon="105.803757"><ele>1237.3658</ele><time>2026-08-16T00:25:53.000Z</time></trkpt>
        <trkpt lat="28.162807" lon="105.803742"><ele>1236.9684</ele><time>2026-08-16T00:25:55.000Z</time></trkpt>
        <trkpt lat="28.162788" lon="105.803727"><ele>1237.4874</ele><time>2026-08-16T00:25:57.000Z</time></trkpt>
        <trkpt lat="28.162769" lon="105.803714"><ele>1237.4526</ele><time>2026-08-16T00:25:59.000Z</time></trkpt>
        <trkpt lat="28.162751" lon="105.803703"><ele>1237.6356</ele><time>2026-08-16T00:26:01.000Z</time></trkpt>
        <trkpt lat="28.162735" lon="105.803695"><ele>1237.1947</ele><time>2026-08-16T00:26:03.000Z</time></trkpt>
        <trkpt lat="28.16272" lon="105.803686"><ele>1237.3591</ele><time>2026-08-16T00:26:05.000Z</time></trkpt>
        <trkpt lat="28.162713" lon="105.803685"><ele>1236.937</ele><time>2026-08-16T00:26:07.000Z</time></trkpt>
        <trkpt lat="28.162707" lon="105.803682"><ele>1237.0469</ele><time>2026-08-16T00:26:09.000Z</time></trkpt>
        <trkpt lat="28.162685" lon="105.803668"><ele>1237.3969</ele><time>2026-08-16T00:26:35.000Z</time></trkpt>
        <trkpt lat="28.162618" lon="105.803626"><ele>1237.9355</ele><time>2026-08-16T00:26:40.000Z</time></trkpt>
        <trkpt lat="28.162618" lon="105.803626"><ele>1237.2153</ele><time>2026-08-16T00:26:42.000Z</time></trkpt>
        <trkpt lat="28.162548" lon="105.803575"><ele>1238.4581</ele><time>2026-08-16T00:26:47.000Z</time></trkpt>
        <trkpt lat="28.162548" lon="105.803575"><ele>1238.753</ele><time>2026-08-16T00:26:49.000Z</time></trkpt>
        <trkpt lat="28.162545" lon="105.803573"><ele>1239.5828</ele><time>2026-08-16T00:26:51.000Z</time></trkpt>
        <trkpt lat="28.162502" lon="105.803551"><ele>1238.6129</ele><time>2026-08-16T00:26:55.000Z</time></trkpt>
        <trkpt lat="28.162472" lon="105.803535"><ele>1238.7832</ele><time>2026-08-16T00:26:57.000Z</time></trkpt>
        <trkpt lat="28.162441" lon="105.80352"><ele>1239.4122</ele><time>2026-08-16T00:26:59.000Z</time></trkpt>
        <trkpt lat="28.162413" lon="105.803508"><ele>1240.5499</ele><time>2026-08-16T00:27:01.000Z</time></trkpt>
        <trkpt lat="28.162388" lon="105.803496"><ele>1240.863</ele><time>2026-08-16T00:27:03.000Z</time></trkpt>
        <trkpt lat="28.162367" lon="105.803486"><ele>1241.1536</ele><time>2026-08-16T00:27:05.000Z</time></trkpt>
        <trkpt lat="28.162348" lon="105.803475"><ele>1241.4785</ele><time>2026-08-16T00:27:07.000Z</time></trkpt>
        <trkpt lat="28.162329" lon="105.803465"><ele>1241.0337</ele><time>2026-08-16T00:27:09.000Z</time></trkpt>
        <trkpt lat="28.162309" lon="105.803455"><ele>1241.6589</ele><time>2026-08-16T00:27:11.000Z</time></trkpt>
        <trkpt lat="28.16229" lon="105.803443"><ele>1241.5176</ele><time>2026-08-16T00:27:13.000Z</time></trkpt>
        <trkpt lat="28.162273" lon="105.803431"><ele>1241.3282</ele><time>2026-08-16T00:27:15.000Z</time></trkpt>
        <trkpt lat="28.162255" lon="105.803415"><ele>1241.1719</ele><time>2026-08-16T00:27:17.000Z</time></trkpt>
        <trkpt lat="28.162239" lon="105.803398"><ele>1240.584</ele><time>2026-08-16T00:27:19.000Z</time></trkpt>
        <trkpt lat="28.162222" lon="105.803382"><ele>1240.4789</ele><time>2026-08-16T00:27:21.000Z</time></trkpt>
        <trkpt lat="28.162204" lon="105.803366"><ele>1240.7235</ele><time>2026-08-16T00:27:23.000Z</time></trkpt>
        <trkpt lat="28.162186" lon="105.80335"><ele>1240.0277</ele><time>2026-08-16T00:27:25.000Z</time></trkpt>
        <trkpt lat="28.162169" lon="105.803334"><ele>1240.7349</ele><time>2026-08-16T00:27:27.000Z</time></trkpt>
        <trkpt lat="28.162154" lon="105.803322"><ele>1241.5073</ele><time>2026-08-16T00:27:29.000Z</time></trkpt>
        <trkpt lat="28.162137" lon="105.80331"><ele>1241.5582</ele><time>2026-08-16T00:27:31.000Z</time></trkpt>
        <trkpt lat="28.16212" lon="105.8033"><ele>1241.1343</ele><time>2026-08-16T00:27:33.000Z</time></trkpt>
        <trkpt lat="28.162101" lon="105.803293"><ele>1241.1827</ele><time>2026-08-16T00:27:35.000Z</time></trkpt>
        <trkpt lat="28.16208" lon="105.803291"><ele>1241.5227</ele><time>2026-08-16T00:27:37.000Z</time></trkpt>
        <trkpt lat="28.162057" lon="105.803291"><ele>1242.5024</ele><time>2026-08-16T00:27:39.000Z</time></trkpt>
        <trkpt lat="28.162033" lon="105.803291"><ele>1242.2385</ele><time>2026-08-16T00:27:41.000Z</time></trkpt>
        <trkpt lat="28.162009" lon="105.803291"><ele>1242.918</ele><time>2026-08-16T00:27:43.000Z</time></trkpt>
        <trkpt lat="28.161988" lon="105.803289"><ele>1243.121</ele><time>2026-08-16T00:27:45.000Z</time></trkpt>
        <trkpt lat="28.161967" lon="105.803288"><ele>1243.2434</ele><time>2026-08-16T00:27:47.000Z</time></trkpt>
        <trkpt lat="28.161946" lon="105.803286"><ele>1243.6765</ele><time>2026-08-16T00:27:49.000Z</time></trkpt>
        <trkpt lat="28.161925" lon="105.803284"><ele>1243.4436</ele><time>2026-08-16T00:27:51.000Z</time></trkpt>
        <trkpt lat="28.161905" lon="105.80328"><ele>1243.4266</ele><time>2026-08-16T00:27:53.000Z</time></trkpt>
        <trkpt lat="28.161884" lon="105.803275"><ele>1243.9634</ele><time>2026-08-16T00:27:55.000Z</time></trkpt>
        <trkpt lat="28.161865" lon="105.80327"><ele>1243.8606</ele><time>2026-08-16T00:27:57.000Z</time></trkpt>
        <trkpt lat="28.161845" lon="105.803267"><ele>1243.8192</ele><time>2026-08-16T00:27:59.000Z</time></trkpt>
        <trkpt lat="28.161824" lon="105.803264"><ele>1244.2776</ele><time>2026-08-16T00:28:01.000Z</time></trkpt>
        <trkpt lat="28.161804" lon="105.803262"><ele>1244.6052</ele><time>2026-08-16T00:28:03.000Z</time></trkpt>
        <trkpt lat="28.161784" lon="105.803259"><ele>1244.3048</ele><time>2026-08-16T00:28:05.000Z</time></trkpt>
        <trkpt lat="28.161765" lon="105.803256"><ele>1244.1406</ele><time>2026-08-16T00:28:07.000Z</time></trkpt>
        <trkpt lat="28.161745" lon="105.803252"><ele>1243.5151</ele><time>2026-08-16T00:28:09.000Z</time></trkpt>
        <trkpt lat="28.161725" lon="105.803246"><ele>1243.1714</ele><time>2026-08-16T00:28:11.000Z</time></trkpt>
        <trkpt lat="28.161706" lon="105.803241"><ele>1243.375</ele><time>2026-08-16T00:28:13.000Z</time></trkpt>
        <trkpt lat="28.161695" lon="105.803237"><ele>1243.0924</ele><time>2026-08-16T00:28:15.000Z</time></trkpt>
        <trkpt lat="28.161688" lon="105.803233"><ele>1243.0022</ele><time>2026-08-16T00:28:17.000Z</time></trkpt>
        <trkpt lat="28.161673" lon="105.803224"><ele>1242.4017</ele><time>2026-08-16T00:28:21.000Z</time></trkpt>
        <trkpt lat="28.161664" lon="105.803217"><ele>1242.0776</ele><time>2026-08-16T00:28:23.000Z</time></trkpt>
        <trkpt lat="28.161655" lon="105.803212"><ele>1242.0142</ele><time>2026-08-16T00:28:25.000Z</time></trkpt>
        <trkpt lat="28.161645" lon="105.803204"><ele>1242.2208</ele><time>2026-08-16T00:28:27.000Z</time></trkpt>
        <trkpt lat="28.161634" lon="105.803194"><ele>1241.5679</ele><time>2026-08-16T00:28:29.000Z</time></trkpt>
        <trkpt lat="28.161622" lon="105.803185"><ele>1241.6101</ele><time>2026-08-16T00:28:31.000Z</time></trkpt>
        <trkpt lat="28.161608" lon="105.803176"><ele>1241.2542</ele><time>2026-08-16T00:28:33.000Z</time></trkpt>
        <trkpt lat="28.161594" lon="105.803169"><ele>1240.9796</ele><time>2026-08-16T00:28:35.000Z</time></trkpt>
        <trkpt lat="28.161581" lon="105.803163"><ele>1241.2842</ele><time>2026-08-16T00:28:37.000Z</time></trkpt>
        <trkpt lat="28.161573" lon="105.803162"><ele>1241.5259</ele><time>2026-08-16T00:28:39.000Z</time></trkpt>
        <trkpt lat="28.161563" lon="105.803156"><ele>1241.5302</ele><time>2026-08-16T00:28:47.000Z</time></trkpt>
        <trkpt lat="28.161549" lon="105.803148"><ele>1241.6147</ele><time>2026-08-16T00:28:51.000Z</time></trkpt>
        <trkpt lat="28.161527" lon="105.803134"><ele>1242.252</ele><time>2026-08-16T00:28:53.000Z</time></trkpt>
        <trkpt lat="28.161526" lon="105.803132"><ele>1242.2654</ele><time>2026-08-16T00:28:55.000Z</time></trkpt>
        <trkpt lat="28.161515" lon="105.803121"><ele>1241.3147</ele><time>2026-08-16T00:28:59.000Z</time></trkpt>
        <trkpt lat="28.1615" lon="105.803105"><ele>1241.2467</ele><time>2026-08-16T00:29:01.000Z</time></trkpt>
        <trkpt lat="28.161484" lon="105.803082"><ele>1241.0082</ele><time>2026-08-16T00:29:03.000Z</time></trkpt>
        <trkpt lat="28.161473" lon="105.803058"><ele>1241.0803</ele><time>2026-08-16T00:29:05.000Z</time></trkpt>
        <trkpt lat="28.161466" lon="105.803032"><ele>1241.3243</ele><time>2026-08-16T00:29:07.000Z</time></trkpt>
        <trkpt lat="28.161464" lon="105.803005"><ele>1240.3262</ele><time>2026-08-16T00:29:09.000Z</time></trkpt>
        <trkpt lat="28.161466" lon="105.802978"><ele>1240.5272</ele><time>2026-08-16T00:29:11.000Z</time></trkpt>
        <trkpt lat="28.16147" lon="105.802952"><ele>1240.7286</ele><time>2026-08-16T00:29:13.000Z</time></trkpt>
        <trkpt lat="28.161474" lon="105.802926"><ele>1240.6221</ele><time>2026-08-16T00:29:15.000Z</time></trkpt>
        <trkpt lat="28.16148" lon="105.802899"><ele>1241.4021</ele><time>2026-08-16T00:29:17.000Z</time></trkpt>
        <trkpt lat="28.161486" lon="105.802875"><ele>1242.0571</ele><time>2026-08-16T00:29:19.000Z</time></trkpt>
        <trkpt lat="28.16149" lon="105.802853"><ele>1241.1721</ele><time>2026-08-16T00:29:21.000Z</time></trkpt>
        <trkpt lat="28.161493" lon="105.802832"><ele>1240.1302</ele><time>2026-08-16T00:29:23.000Z</time></trkpt>
        <trkpt lat="28.161492" lon="105.80281"><ele>1239.209</ele><time>2026-08-16T00:29:25.000Z</time></trkpt>
        <trkpt lat="28.161487" lon="105.80279"><ele>1239.6127</ele><time>2026-08-16T00:29:27.000Z</time></trkpt>
        <trkpt lat="28.161478" lon="105.802767"><ele>1240.1389</ele><time>2026-08-16T00:29:29.000Z</time></trkpt>
        <trkpt lat="28.161469" lon="105.802741"><ele>1239.8729</ele><time>2026-08-16T00:29:31.000Z</time></trkpt>
        <trkpt lat="28.161459" lon="105.802716"><ele>1240.0771</ele><time>2026-08-16T00:29:33.000Z</time></trkpt>
        <trkpt lat="28.16145" lon="105.80269"><ele>1240.6437</ele><time>2026-08-16T00:29:35.000Z</time></trkpt>
        <trkpt lat="28.161445" lon="105.802665"><ele>1240.7599</ele><time>2026-08-16T00:29:37.000Z</time></trkpt>
        <trkpt lat="28.161444" lon="105.802642"><ele>1241.2445</ele><time>2026-08-16T00:29:39.000Z</time></trkpt>
        <trkpt lat="28.161448" lon="105.802622"><ele>1240.6576</ele><time>2026-08-16T00:29:41.000Z</time></trkpt>
        <trkpt lat="28.161456" lon="105.802601"><ele>1240.7488</ele><time>2026-08-16T00:29:43.000Z</time></trkpt>
        <trkpt lat="28.161469" lon="105.80258"><ele>1240.3794</ele><time>2026-08-16T00:29:45.000Z</time></trkpt>
        <trkpt lat="28.161483" lon="105.802559"><ele>1240.7546</ele><time>2026-08-16T00:29:47.000Z</time></trkpt>
        <trkpt lat="28.161499" lon="105.802541"><ele>1240.5536</ele><time>2026-08-16T00:29:49.000Z</time></trkpt>
        <trkpt lat="28.161518" lon="105.802525"><ele>1241.3401</ele><time>2026-08-16T00:29:51.000Z</time></trkpt>
        <trkpt lat="28.161539" lon="105.802512"><ele>1241.764</ele><time>2026-08-16T00:29:53.000Z</time></trkpt>
        <trkpt lat="28.161558" lon="105.8025"><ele>1241.8933</ele><time>2026-08-16T00:29:55.000Z</time></trkpt>
        <trkpt lat="28.161577" lon="105.802491"><ele>1241.6235</ele><time>2026-08-16T00:29:57.000Z</time></trkpt>
        <trkpt lat="28.161596" lon="105.802484"><ele>1242.3445</ele><time>2026-08-16T00:29:59.000Z</time></trkpt>
        <trkpt lat="28.161617" lon="105.802478"><ele>1242.0076</ele><time>2026-08-16T00:30:01.000Z</time></trkpt>
        <trkpt lat="28.16164" lon="105.802471"><ele>1241.8328</ele><time>2026-08-16T00:30:03.000Z</time></trkpt>
        <trkpt lat="28.161666" lon="105.802462"><ele>1242.2382</ele><time>2026-08-16T00:30:05.000Z</time></trkpt>
        <trkpt lat="28.161692" lon="105.802448"><ele>1243.5598</ele><time>2026-08-16T00:30:07.000Z</time></trkpt>
        <trkpt lat="28.161712" lon="105.80243"><ele>1244.1001</ele><time>2026-08-16T00:30:09.000Z</time></trkpt>
        <trkpt lat="28.161728" lon="105.802409"><ele>1244.0846</ele><time>2026-08-16T00:30:11.000Z</time></trkpt>
        <trkpt lat="28.161741" lon="105.802387"><ele>1244.1576</ele><time>2026-08-16T00:30:13.000Z</time></trkpt>
        <trkpt lat="28.161753" lon="105.802365"><ele>1243.6407</ele><time>2026-08-16T00:30:15.000Z</time></trkpt>
        <trkpt lat="28.161762" lon="105.802341"><ele>1243.8306</ele><time>2026-08-16T00:30:17.000Z</time></trkpt>
        <trkpt lat="28.161772" lon="105.802314"><ele>1242.9364</ele><time>2026-08-16T00:30:19.000Z</time></trkpt>
        <trkpt lat="28.16178" lon="105.802287"><ele>1242.5983</ele><time>2026-08-16T00:30:21.000Z</time></trkpt>
        <trkpt lat="28.161787" lon="105.80226"><ele>1243.6418</ele><time>2026-08-16T00:30:23.000Z</time></trkpt>
        <trkpt lat="28.161793" lon="105.802231"><ele>1243.4717</ele><time>2026-08-16T00:30:25.000Z</time></trkpt>
        <trkpt lat="28.1618" lon="105.802207"><ele>1243.1295</ele><time>2026-08-16T00:30:27.000Z</time></trkpt>
        <trkpt lat="28.161805" lon="105.802182"><ele>1243.7416</ele><time>2026-08-16T00:30:29.000Z</time></trkpt>
        <trkpt lat="28.161809" lon="105.802155"><ele>1243.122</ele><time>2026-08-16T00:30:31.000Z</time></trkpt>
        <trkpt lat="28.161813" lon="105.80213"><ele>1242.6631</ele><time>2026-08-16T00:30:33.000Z</time></trkpt>
        <trkpt lat="28.161816" lon="105.802106"><ele>1241.6438</ele><time>2026-08-16T00:30:35.000Z</time></trkpt>
        <trkpt lat="28.161818" lon="105.802084"><ele>1241.9106</ele><time>2026-08-16T00:30:37.000Z</time></trkpt>
        <trkpt lat="28.161821" lon="105.802063"><ele>1241.7633</ele><time>2026-08-16T00:30:39.000Z</time></trkpt>
        <trkpt lat="28.161825" lon="105.802041"><ele>1242.6188</ele><time>2026-08-16T00:30:41.000Z</time></trkpt>
        <trkpt lat="28.161831" lon="105.802018"><ele>1242.3916</ele><time>2026-08-16T00:30:43.000Z</time></trkpt>
        <trkpt lat="28.161838" lon="105.801997"><ele>1242.2219</ele><time>2026-08-16T00:30:45.000Z</time></trkpt>
        <trkpt lat="28.161846" lon="105.80198"><ele>1241.8118</ele><time>2026-08-16T00:30:47.000Z</time></trkpt>
        <trkpt lat="28.161857" lon="105.801964"><ele>1241.5773</ele><time>2026-08-16T00:30:49.000Z</time></trkpt>
        <trkpt lat="28.161871" lon="105.801951"><ele>1241.5022</ele><time>2026-08-16T00:30:51.000Z</time></trkpt>
        <trkpt lat="28.161889" lon="105.801935"><ele>1240.4899</ele><time>2026-08-16T00:30:53.000Z</time></trkpt>
        <trkpt lat="28.16191" lon="105.801922"><ele>1240.928</ele><time>2026-08-16T00:30:55.000Z</time></trkpt>
        <trkpt lat="28.161932" lon="105.801909"><ele>1240.2535</ele><time>2026-08-16T00:30:57.000Z</time></trkpt>
        <trkpt lat="28.161945" lon="105.801902"><ele>1241.8112</ele><time>2026-08-16T00:30:59.000Z</time></trkpt>
        <trkpt lat="28.161957" lon="105.801899"><ele>1243.2896</ele><time>2026-08-16T00:31:01.000Z</time></trkpt>
        <trkpt lat="28.161974" lon="105.801898"><ele>1243.4546</ele><time>2026-08-16T00:31:03.000Z</time></trkpt>
        <trkpt lat="28.161993" lon="105.801902"><ele>1242.1344</ele><time>2026-08-16T00:31:05.000Z</time></trkpt>
        <trkpt lat="28.162016" lon="105.80191"><ele>1242.2784</ele><time>2026-08-16T00:31:07.000Z</time></trkpt>
        <trkpt lat="28.162042" lon="105.801923"><ele>1242.684</ele><time>2026-08-16T00:31:09.000Z</time></trkpt>
        <trkpt lat="28.162063" lon="105.801938"><ele>1242.0874</ele><time>2026-08-16T00:31:11.000Z</time></trkpt>
        <trkpt lat="28.162082" lon="105.801953"><ele>1241.1832</ele><time>2026-08-16T00:31:13.000Z</time></trkpt>
        <trkpt lat="28.162102" lon="105.801967"><ele>1240.0801</ele><time>2026-08-16T00:31:15.000Z</time></trkpt>
        <trkpt lat="28.16212" lon="105.801982"><ele>1239.3678</ele><time>2026-08-16T00:31:17.000Z</time></trkpt>
        <trkpt lat="28.162137" lon="105.801999"><ele>1238.9656</ele><time>2026-08-16T00:31:19.000Z</time></trkpt>
        <trkpt lat="28.162155" lon="105.802018"><ele>1238.2405</ele><time>2026-08-16T00:31:21.000Z</time></trkpt>
        <trkpt lat="28.162171" lon="105.802038"><ele>1238.1726</ele><time>2026-08-16T00:31:23.000Z</time></trkpt>
        <trkpt lat="28.162187" lon="105.802057"><ele>1236.9475</ele><time>2026-08-16T00:31:25.000Z</time></trkpt>
        <trkpt lat="28.1622" lon="105.802074"><ele>1236.1843</ele><time>2026-08-16T00:31:27.000Z</time></trkpt>
        <trkpt lat="28.162215" lon="105.802092"><ele>1235.5557</ele><time>2026-08-16T00:31:29.000Z</time></trkpt>
        <trkpt lat="28.16223" lon="105.802112"><ele>1236.4064</ele><time>2026-08-16T00:31:31.000Z</time></trkpt>
        <trkpt lat="28.162248" lon="105.802134"><ele>1236.3834</ele><time>2026-08-16T00:31:33.000Z</time></trkpt>
        <trkpt lat="28.162265" lon="105.80215"><ele>1236.174</ele><time>2026-08-16T00:31:35.000Z</time></trkpt>
        <trkpt lat="28.162285" lon="105.802161"><ele>1236.6847</ele><time>2026-08-16T00:31:37.000Z</time></trkpt>
        <trkpt lat="28.162312" lon="105.802168"><ele>1238.4371</ele><time>2026-08-16T00:31:39.000Z</time></trkpt>
        <trkpt lat="28.162339" lon="105.802166"><ele>1238.1926</ele><time>2026-08-16T00:31:41.000Z</time></trkpt>
        <trkpt lat="28.162364" lon="105.802158"><ele>1239.2169</ele><time>2026-08-16T00:31:43.000Z</time></trkpt>
        <trkpt lat="28.162389" lon="105.802143"><ele>1239.4355</ele><time>2026-08-16T00:31:45.000Z</time></trkpt>
        <trkpt lat="28.162413" lon="105.802127"><ele>1240.3044</ele><time>2026-08-16T00:31:47.000Z</time></trkpt>
        <trkpt lat="28.162437" lon="105.802109"><ele>1239.9307</ele><time>2026-08-16T00:31:49.000Z</time></trkpt>
        <trkpt lat="28.16246" lon="105.80209"><ele>1240.0171</ele><time>2026-08-16T00:31:51.000Z</time></trkpt>
        <trkpt lat="28.162484" lon="105.802072"><ele>1241.1212</ele><time>2026-08-16T00:31:53.000Z</time></trkpt>
        <trkpt lat="28.162508" lon="105.802059"><ele>1241.8807</ele><time>2026-08-16T00:31:55.000Z</time></trkpt>
        <trkpt lat="28.162532" lon="105.802052"><ele>1241.8799</ele><time>2026-08-16T00:31:57.000Z</time></trkpt>
        <trkpt lat="28.162553" lon="105.802052"><ele>1241.2483</ele><time>2026-08-16T00:31:59.000Z</time></trkpt>
        <trkpt lat="28.162576" lon="105.802057"><ele>1240.2944</ele><time>2026-08-16T00:32:01.000Z</time></trkpt>
        <trkpt lat="28.162599" lon="105.802064"><ele>1239.0607</ele><time>2026-08-16T00:32:03.000Z</time></trkpt>
        <trkpt lat="28.162627" lon="105.80207"><ele>1237.1134</ele><time>2026-08-16T00:32:05.000Z</time></trkpt>
        <trkpt lat="28.162655" lon="105.80207"><ele>1237.0869</ele><time>2026-08-16T00:32:07.000Z</time></trkpt>
        <trkpt lat="28.162679" lon="105.802065"><ele>1237.1702</ele><time>2026-08-16T00:32:09.000Z</time></trkpt>
        <trkpt lat="28.162701" lon="105.802054"><ele>1236.6221</ele><time>2026-08-16T00:32:11.000Z</time></trkpt>
        <trkpt lat="28.162719" lon="105.802041"><ele>1236.6089</ele><time>2026-08-16T00:32:13.000Z</time></trkpt>
        <trkpt lat="28.162737" lon="105.802022"><ele>1236.9727</ele><time>2026-08-16T00:32:15.000Z</time></trkpt>
        <trkpt lat="28.162751" lon="105.801999"><ele>1237.0249</ele><time>2026-08-16T00:32:17.000Z</time></trkpt>
        <trkpt lat="28.16276" lon="105.801976"><ele>1235.6409</ele><time>2026-08-16T00:32:19.000Z</time></trkpt>
        <trkpt lat="28.162764" lon="105.801947"><ele>1235.868</ele><time>2026-08-16T00:32:21.000Z</time></trkpt>
        <trkpt lat="28.162763" lon="105.801921"><ele>1235.6086</ele><time>2026-08-16T00:32:23.000Z</time></trkpt>
        <trkpt lat="28.162758" lon="105.801894"><ele>1235.0289</ele><time>2026-08-16T00:32:25.000Z</time></trkpt>
        <trkpt lat="28.162747" lon="105.801869"><ele>1234.6843</ele><time>2026-08-16T00:32:27.000Z</time></trkpt>
        <trkpt lat="28.162732" lon="105.801842"><ele>1235.3818</ele><time>2026-08-16T00:32:29.000Z</time></trkpt>
        <trkpt lat="28.162717" lon="105.801816"><ele>1233.5708</ele><time>2026-08-16T00:32:31.000Z</time></trkpt>
        <trkpt lat="28.162701" lon="105.801791"><ele>1233.3536</ele><time>2026-08-16T00:32:33.000Z</time></trkpt>
        <trkpt lat="28.162687" lon="105.801768"><ele>1233.7936</ele><time>2026-08-16T00:32:35.000Z</time></trkpt>
        <trkpt lat="28.162673" lon="105.801746"><ele>1234.0504</ele><time>2026-08-16T00:32:37.000Z</time></trkpt>
        <trkpt lat="28.16266" lon="105.801727"><ele>1233.3547</ele><time>2026-08-16T00:32:39.000Z</time></trkpt>
        <trkpt lat="28.162645" lon="105.801709"><ele>1232.7817</ele><time>2026-08-16T00:32:41.000Z</time></trkpt>
        <trkpt lat="28.162633" lon="105.801693"><ele>1231.7642</ele><time>2026-08-16T00:32:43.000Z</time></trkpt>
        <trkpt lat="28.16262" lon="105.801674"><ele>1231.4186</ele><time>2026-08-16T00:32:45.000Z</time></trkpt>
        <trkpt lat="28.162609" lon="105.801654"><ele>1232.2385</ele><time>2026-08-16T00:32:47.000Z</time></trkpt>
        <trkpt lat="28.162601" lon="105.80163"><ele>1232.3711</ele><time>2026-08-16T00:32:49.000Z</time></trkpt>
        <trkpt lat="28.162596" lon="105.801604"><ele>1233.1461</ele><time>2026-08-16T00:32:51.000Z</time></trkpt>
        <trkpt lat="28.162592" lon="105.801577"><ele>1232.5469</ele><time>2026-08-16T00:32:53.000Z</time></trkpt>
        <trkpt lat="28.16259" lon="105.80155"><ele>1232.7592</ele><time>2026-08-16T00:32:55.000Z</time></trkpt>
        <trkpt lat="28.162592" lon="105.801524"><ele>1232.8428</ele><time>2026-08-16T00:32:57.000Z</time></trkpt>
        <trkpt lat="28.162598" lon="105.801499"><ele>1231.6206</ele><time>2026-08-16T00:32:59.000Z</time></trkpt>
        <trkpt lat="28.162605" lon="105.80147"><ele>1232.0576</ele><time>2026-08-16T00:33:01.000Z</time></trkpt>
        <trkpt lat="28.162613" lon="105.801444"><ele>1231.9146</ele><time>2026-08-16T00:33:03.000Z</time></trkpt>
        <trkpt lat="28.162626" lon="105.801421"><ele>1231.4316</ele><time>2026-08-16T00:33:05.000Z</time></trkpt>
        <trkpt lat="28.162643" lon="105.801398"><ele>1230.8595</ele><time>2026-08-16T00:33:07.000Z</time></trkpt>
        <trkpt lat="28.162663" lon="105.801382"><ele>1230.2463</ele><time>2026-08-16T00:33:09.000Z</time></trkpt>
        <trkpt lat="28.162687" lon="105.80137"><ele>1230.2773</ele><time>2026-08-16T00:33:11.000Z</time></trkpt>
        <trkpt lat="28.162711" lon="105.801363"><ele>1229.2496</ele><time>2026-08-16T00:33:13.000Z</time></trkpt>
        <trkpt lat="28.162732" lon="105.801357"><ele>1229.0925</ele><time>2026-08-16T00:33:15.000Z</time></trkpt>
        <trkpt lat="28.162754" lon="105.801346"><ele>1229.4818</ele><time>2026-08-16T00:33:17.000Z</time></trkpt>
        <trkpt lat="28.162773" lon="105.801332"><ele>1229.7719</ele><time>2026-08-16T00:33:19.000Z</time></trkpt>
        <trkpt lat="28.162791" lon="105.801315"><ele>1230.1965</ele><time>2026-08-16T00:33:21.000Z</time></trkpt>
        <trkpt lat="28.16281" lon="105.801297"><ele>1229.9385</ele><time>2026-08-16T00:33:23.000Z</time></trkpt>
        <trkpt lat="28.162829" lon="105.80128"><ele>1230.3623</ele><time>2026-08-16T00:33:25.000Z</time></trkpt>
        <trkpt lat="28.162846" lon="105.801264"><ele>1231.1254</ele><time>2026-08-16T00:33:27.000Z</time></trkpt>
        <trkpt lat="28.162865" lon="105.801249"><ele>1231.4597</ele><time>2026-08-16T00:33:29.000Z</time></trkpt>
        <trkpt lat="28.162885" lon="105.801235"><ele>1231.8357</ele><time>2026-08-16T00:33:31.000Z</time></trkpt>
        <trkpt lat="28.162907" lon="105.801223"><ele>1232.2408</ele><time>2026-08-16T00:33:33.000Z</time></trkpt>
        <trkpt lat="28.162927" lon="105.801212"><ele>1232.648</ele><time>2026-08-16T00:33:35.000Z</time></trkpt>
        <trkpt lat="28.162947" lon="105.801203"><ele>1232.9415</ele><time>2026-08-16T00:33:37.000Z</time></trkpt>
        <trkpt lat="28.162966" lon="105.801195"><ele>1233.3264</ele><time>2026-08-16T00:33:39.000Z</time></trkpt>
        <trkpt lat="28.162984" lon="105.801186"><ele>1232.4811</ele><time>2026-08-16T00:33:41.000Z</time></trkpt>
        <trkpt lat="28.163002" lon="105.801173"><ele>1232.1133</ele><time>2026-08-16T00:33:43.000Z</time></trkpt>
        <trkpt lat="28.163023" lon="105.801159"><ele>1231.6504</ele><time>2026-08-16T00:33:45.000Z</time></trkpt>
        <trkpt lat="28.163045" lon="105.801145"><ele>1232.2212</ele><time>2026-08-16T00:33:47.000Z</time></trkpt>
        <trkpt lat="28.163066" lon="105.801131"><ele>1231.4469</ele><time>2026-08-16T00:33:49.000Z</time></trkpt>
        <trkpt lat="28.163085" lon="105.801117"><ele>1230.9084</ele><time>2026-08-16T00:33:51.000Z</time></trkpt>
        <trkpt lat="28.163105" lon="105.801103"><ele>1230.5406</ele><time>2026-08-16T00:33:53.000Z</time></trkpt>
        <trkpt lat="28.163123" lon="105.801091"><ele>1230.1543</ele><time>2026-08-16T00:33:55.000Z</time></trkpt>
        <trkpt lat="28.163138" lon="105.801079"><ele>1229.3966</ele><time>2026-08-16T00:33:57.000Z</time></trkpt>
        <trkpt lat="28.163155" lon="105.801066"><ele>1228.6932</ele><time>2026-08-16T00:33:59.000Z</time></trkpt>
        <trkpt lat="28.163171" lon="105.801055"><ele>1228.3914</ele><time>2026-08-16T00:34:01.000Z</time></trkpt>
        <trkpt lat="28.163187" lon="105.801044"><ele>1227.078</ele><time>2026-08-16T00:34:03.000Z</time></trkpt>
        <trkpt lat="28.163204" lon="105.801033"><ele>1226.6167</ele><time>2026-08-16T00:34:05.000Z</time></trkpt>
        <trkpt lat="28.163223" lon="105.80102"><ele>1226.5566</ele><time>2026-08-16T00:34:07.000Z</time></trkpt>
        <trkpt lat="28.163241" lon="105.801007"><ele>1225.2512</ele><time>2026-08-16T00:34:09.000Z</time></trkpt>
        <trkpt lat="28.16326" lon="105.800994"><ele>1225.1727</ele><time>2026-08-16T00:34:11.000Z</time></trkpt>
        <trkpt lat="28.163277" lon="105.800979"><ele>1224.7086</ele><time>2026-08-16T00:34:13.000Z</time></trkpt>
        <trkpt lat="28.163294" lon="105.800965"><ele>1225.2598</ele><time>2026-08-16T00:34:15.000Z</time></trkpt>
        <trkpt lat="28.163312" lon="105.800949"><ele>1224.585</ele><time>2026-08-16T00:34:17.000Z</time></trkpt>
        <trkpt lat="28.163329" lon="105.800933"><ele>1224.8208</ele><time>2026-08-16T00:34:19.000Z</time></trkpt>
        <trkpt lat="28.163347" lon="105.800917"><ele>1225.2233</ele><time>2026-08-16T00:34:21.000Z</time></trkpt>
        <trkpt lat="28.163363" lon="105.800904"><ele>1224.9375</ele><time>2026-08-16T00:34:23.000Z</time></trkpt>
        <trkpt lat="28.16338" lon="105.800889"><ele>1224.7754</ele><time>2026-08-16T00:34:25.000Z</time></trkpt>
        <trkpt lat="28.163397" lon="105.800877"><ele>1224.377</ele><time>2026-08-16T00:34:27.000Z</time></trkpt>
        <trkpt lat="28.163414" lon="105.800864"><ele>1224.2155</ele><time>2026-08-16T00:34:29.000Z</time></trkpt>
        <trkpt lat="28.163429" lon="105.800852"><ele>1223.5553</ele><time>2026-08-16T00:34:31.000Z</time></trkpt>
        <trkpt lat="28.163445" lon="105.800842"><ele>1223.074</ele><time>2026-08-16T00:34:33.000Z</time></trkpt>
        <trkpt lat="28.163461" lon="105.800832"><ele>1222.777</ele><time>2026-08-16T00:34:35.000Z</time></trkpt>
        <trkpt lat="28.163476" lon="105.800824"><ele>1221.4769</ele><time>2026-08-16T00:34:37.000Z</time></trkpt>
        <trkpt lat="28.163492" lon="105.800811"><ele>1221.3374</ele><time>2026-08-16T00:34:39.000Z</time></trkpt>
        <trkpt lat="28.163509" lon="105.800795"><ele>1221.388</ele><time>2026-08-16T00:34:41.000Z</time></trkpt>
        <trkpt lat="28.163526" lon="105.800778"><ele>1221.3497</ele><time>2026-08-16T00:34:43.000Z</time></trkpt>
        <trkpt lat="28.163544" lon="105.800759"><ele>1221.0782</ele><time>2026-08-16T00:34:45.000Z</time></trkpt>
        <trkpt lat="28.163559" lon="105.80074"><ele>1220.8351</ele><time>2026-08-16T00:34:47.000Z</time></trkpt>
        <trkpt lat="28.163571" lon="105.800723"><ele>1220.314</ele><time>2026-08-16T00:34:49.000Z</time></trkpt>
        <trkpt lat="28.163582" lon="105.800704"><ele>1219.5225</ele><time>2026-08-16T00:34:51.000Z</time></trkpt>
        <trkpt lat="28.16359" lon="105.80069"><ele>1218.0714</ele><time>2026-08-16T00:34:53.000Z</time></trkpt>
        <trkpt lat="28.163595" lon="105.800674"><ele>1217.8104</ele><time>2026-08-16T00:34:55.000Z</time></trkpt>
        <trkpt lat="28.163602" lon="105.800654"><ele>1217.2957</ele><time>2026-08-16T00:34:57.000Z</time></trkpt>
        <trkpt lat="28.163609" lon="105.800633"><ele>1215.4529</ele><time>2026-08-16T00:34:59.000Z</time></trkpt>
        <trkpt lat="28.163618" lon="105.800608"><ele>1214.341</ele><time>2026-08-16T00:35:01.000Z</time></trkpt>
        <trkpt lat="28.163626" lon="105.800584"><ele>1214.2499</ele><time>2026-08-16T00:35:03.000Z</time></trkpt>
        <trkpt lat="28.163635" lon="105.800562"><ele>1213.2607</ele><time>2026-08-16T00:35:05.000Z</time></trkpt>
        <trkpt lat="28.163644" lon="105.800539"><ele>1213.4253</ele><time>2026-08-16T00:35:07.000Z</time></trkpt>
        <trkpt lat="28.163651" lon="105.800518"><ele>1213.3269</ele><time>2026-08-16T00:35:09.000Z</time></trkpt>
        <trkpt lat="28.163658" lon="105.800498"><ele>1212.6537</ele><time>2026-08-16T00:35:11.000Z</time></trkpt>
        <trkpt lat="28.163667" lon="105.800477"><ele>1211.5519</ele><time>2026-08-16T00:35:13.000Z</time></trkpt>
        <trkpt lat="28.163676" lon="105.800457"><ele>1210.2845</ele><time>2026-08-16T00:35:15.000Z</time></trkpt>
        <trkpt lat="28.163684" lon="105.800438"><ele>1210.5588</ele><time>2026-08-16T00:35:17.000Z</time></trkpt>
        <trkpt lat="28.163692" lon="105.800417"><ele>1210.134</ele><time>2026-08-16T00:35:19.000Z</time></trkpt>
        <trkpt lat="28.163699" lon="105.800397"><ele>1209.1259</ele><time>2026-08-16T00:35:21.000Z</time></trkpt>
        <trkpt lat="28.163708" lon="105.800379"><ele>1208.5967</ele><time>2026-08-16T00:35:23.000Z</time></trkpt>
        <trkpt lat="28.16372" lon="105.800362"><ele>1208.5461</ele><time>2026-08-16T00:35:25.000Z</time></trkpt>
        <trkpt lat="28.163735" lon="105.800346"><ele>1207.5974</ele><time>2026-08-16T00:35:27.000Z</time></trkpt>
        <trkpt lat="28.163749" lon="105.80033"><ele>1206.7308</ele><time>2026-08-16T00:35:29.000Z</time></trkpt>
        <trkpt lat="28.163762" lon="105.800312"><ele>1207.4019</ele><time>2026-08-16T00:35:31.000Z</time></trkpt>
        <trkpt lat="28.163777" lon="105.800292"><ele>1206.9851</ele><time>2026-08-16T00:35:33.000Z</time></trkpt>
        <trkpt lat="28.163789" lon="105.800278"><ele>1205.8721</ele><time>2026-08-16T00:35:35.000Z</time></trkpt>
        <trkpt lat="28.1638" lon="105.800266"><ele>1205.1415</ele><time>2026-08-16T00:35:37.000Z</time></trkpt>
        <trkpt lat="28.16381" lon="105.800253"><ele>1205.0197</ele><time>2026-08-16T00:35:39.000Z</time></trkpt>
        <trkpt lat="28.163821" lon="105.800237"><ele>1203.8232</ele><time>2026-08-16T00:35:41.000Z</time></trkpt>
        <trkpt lat="28.163835" lon="105.800218"><ele>1203.6383</ele><time>2026-08-16T00:35:43.000Z</time></trkpt>
        <trkpt lat="28.163849" lon="105.800201"><ele>1202.8312</ele><time>2026-08-16T00:35:45.000Z</time></trkpt>
        <trkpt lat="28.163863" lon="105.800184"><ele>1202.3289</ele><time>2026-08-16T00:35:47.000Z</time></trkpt>
        <trkpt lat="28.163879" lon="105.80017"><ele>1201.5022</ele><time>2026-08-16T00:35:49.000Z</time></trkpt>
        <trkpt lat="28.163897" lon="105.800157"><ele>1200.8802</ele><time>2026-08-16T00:35:51.000Z</time></trkpt>
        <trkpt lat="28.163915" lon="105.800144"><ele>1201.2885</ele><time>2026-08-16T00:35:53.000Z</time></trkpt>
        <trkpt lat="28.163932" lon="105.800132"><ele>1201.0529</ele><time>2026-08-16T00:35:55.000Z</time></trkpt>
        <trkpt lat="28.163948" lon="105.800119"><ele>1200.0215</ele><time>2026-08-16T00:35:57.000Z</time></trkpt>
        <trkpt lat="28.163966" lon="105.800108"><ele>1199.5183</ele><time>2026-08-16T00:35:59.000Z</time></trkpt>
        <trkpt lat="28.163984" lon="105.800097"><ele>1199.2135</ele><time>2026-08-16T00:36:01.000Z</time></trkpt>
        <trkpt lat="28.164002" lon="105.800085"><ele>1199.0087</ele><time>2026-08-16T00:36:03.000Z</time></trkpt>
        <trkpt lat="28.164021" lon="105.800073"><ele>1198.7789</ele><time>2026-08-16T00:36:05.000Z</time></trkpt>
        <trkpt lat="28.164039" lon="105.800063"><ele>1198.4186</ele><time>2026-08-16T00:36:07.000Z</time></trkpt>
        <trkpt lat="28.164059" lon="105.800052"><ele>1198.505</ele><time>2026-08-16T00:36:09.000Z</time></trkpt>
        <trkpt lat="28.164078" lon="105.800039"><ele>1198.328</ele><time>2026-08-16T00:36:11.000Z</time></trkpt>
        <trkpt lat="28.164096" lon="105.800025"><ele>1199.0436</ele><time>2026-08-16T00:36:13.000Z</time></trkpt>
        <trkpt lat="28.164114" lon="105.800008"><ele>1198.7991</ele><time>2026-08-16T00:36:15.000Z</time></trkpt>
        <trkpt lat="28.164134" lon="105.799993"><ele>1199.3802</ele><time>2026-08-16T00:36:17.000Z</time></trkpt>
        <trkpt lat="28.164155" lon="105.799976"><ele>1198.941</ele><time>2026-08-16T00:36:19.000Z</time></trkpt>
        <trkpt lat="28.164176" lon="105.799961"><ele>1198.8212</ele><time>2026-08-16T00:36:21.000Z</time></trkpt>
        <trkpt lat="28.164194" lon="105.799946"><ele>1198.8323</ele><time>2026-08-16T00:36:23.000Z</time></trkpt>
        <trkpt lat="28.164207" lon="105.799933"><ele>1199.612</ele><time>2026-08-16T00:36:25.000Z</time></trkpt>
        <trkpt lat="28.164221" lon="105.799917"><ele>1200.5535</ele><time>2026-08-16T00:36:27.000Z</time></trkpt>
        <trkpt lat="28.164237" lon="105.799896"><ele>1201.1809</ele><time>2026-08-16T00:36:29.000Z</time></trkpt>
        <trkpt lat="28.16425" lon="105.799875"><ele>1201.2578</ele><time>2026-08-16T00:36:31.000Z</time></trkpt>
        <trkpt lat="28.164264" lon="105.799854"><ele>1201.8964</ele><time>2026-08-16T00:36:33.000Z</time></trkpt>
        <trkpt lat="28.164277" lon="105.799832"><ele>1202.5846</ele><time>2026-08-16T00:36:35.000Z</time></trkpt>
        <trkpt lat="28.16429" lon="105.799808"><ele>1202.946</ele><time>2026-08-16T00:36:37.000Z</time></trkpt>
        <trkpt lat="28.164305" lon="105.799783"><ele>1202.6962</ele><time>2026-08-16T00:36:39.000Z</time></trkpt>
        <trkpt lat="28.16432" lon="105.799761"><ele>1202.0607</ele><time>2026-08-16T00:36:41.000Z</time></trkpt>
        <trkpt lat="28.164334" lon="105.79974"><ele>1200.9869</ele><time>2026-08-16T00:36:43.000Z</time></trkpt>
        <trkpt lat="28.164349" lon="105.799719"><ele>1200.5443</ele><time>2026-08-16T00:36:45.000Z</time></trkpt>
        <trkpt lat="28.164363" lon="105.7997"><ele>1199.5671</ele><time>2026-08-16T00:36:47.000Z</time></trkpt>
        <trkpt lat="28.164375" lon="105.799681"><ele>1197.9486</ele><time>2026-08-16T00:36:49.000Z</time></trkpt>
        <trkpt lat="28.164385" lon="105.799662"><ele>1196.4613</ele><time>2026-08-16T00:36:51.000Z</time></trkpt>
        <trkpt lat="28.164394" lon="105.79964"><ele>1196.4723</ele><time>2026-08-16T00:36:53.000Z</time></trkpt>
        <trkpt lat="28.164401" lon="105.799615"><ele>1195.7489</ele><time>2026-08-16T00:36:55.000Z</time></trkpt>
        <trkpt lat="28.164409" lon="105.799587"><ele>1196.0352</ele><time>2026-08-16T00:36:57.000Z</time></trkpt>
        <trkpt lat="28.164421" lon="105.799564"><ele>1195.717</ele><time>2026-08-16T00:36:59.000Z</time></trkpt>
        <trkpt lat="28.16443" lon="105.799553"><ele>1195.3596</ele><time>2026-08-16T00:37:01.000Z</time></trkpt>
        <trkpt lat="28.16443" lon="105.799549"><ele>1194.313</ele><time>2026-08-16T00:37:03.000Z</time></trkpt>
        <trkpt lat="28.164437" lon="105.799527"><ele>1195.1007</ele><time>2026-08-16T00:37:19.000Z</time></trkpt>
        <trkpt lat="28.164443" lon="105.799508"><ele>1195.1085</ele><time>2026-08-16T00:37:21.000Z</time></trkpt>
        <trkpt lat="28.164443" lon="105.799506"><ele>1195.8395</ele><time>2026-08-16T00:37:23.000Z</time></trkpt>
        <trkpt lat="28.16444" lon="105.799481"><ele>1197.8369</ele><time>2026-08-16T00:38:27.000Z</time></trkpt>
        <trkpt lat="28.164438" lon="105.799459"><ele>1196.5267</ele><time>2026-08-16T00:38:29.000Z</time></trkpt>
        <trkpt lat="28.164438" lon="105.799458"><ele>1196.3798</ele><time>2026-08-16T00:38:31.000Z</time></trkpt>
        <trkpt lat="28.164426" lon="105.799413"><ele>1196.5155</ele><time>2026-08-16T00:38:33.000Z</time></trkpt>
        <trkpt lat="28.164425" lon="105.79941"><ele>1196.6166</ele><time>2026-08-16T00:38:35.000Z</time></trkpt>
        <trkpt lat="28.164423" lon="105.799407"><ele>1197.1733</ele><time>2026-08-16T00:38:37.000Z</time></trkpt>
        <trkpt lat="28.1644" lon="105.799363"><ele>1198.0968</ele><time>2026-08-16T00:38:41.000Z</time></trkpt>
        <trkpt lat="28.164383" lon="105.799334"><ele>1198.527</ele><time>2026-08-16T00:38:43.000Z</time></trkpt>
        <trkpt lat="28.164365" lon="105.799306"><ele>1198.0535</ele><time>2026-08-16T00:38:45.000Z</time></trkpt>
        <trkpt lat="28.16435" lon="105.799281"><ele>1197.9769</ele><time>2026-08-16T00:38:47.000Z</time></trkpt>
        <trkpt lat="28.164333" lon="105.799257"><ele>1197.2476</ele><time>2026-08-16T00:38:49.000Z</time></trkpt>
        <trkpt lat="28.16432" lon="105.799239"><ele>1198.5219</ele><time>2026-08-16T00:38:51.000Z</time></trkpt>
        <trkpt lat="28.164305" lon="105.799222"><ele>1198.8182</ele><time>2026-08-16T00:38:53.000Z</time></trkpt>
        <trkpt lat="28.164289" lon="105.79921"><ele>1199.0939</ele><time>2026-08-16T00:38:55.000Z</time></trkpt>
        <trkpt lat="28.164273" lon="105.7992"><ele>1198.774</ele><time>2026-08-16T00:38:57.000Z</time></trkpt>
        <trkpt lat="28.164254" lon="105.799193"><ele>1199.3712</ele><time>2026-08-16T00:38:59.000Z</time></trkpt>
        <trkpt lat="28.164235" lon="105.799186"><ele>1199.9287</ele><time>2026-08-16T00:39:01.000Z</time></trkpt>
        <trkpt lat="28.164216" lon="105.79918"><ele>1200.6045</ele><time>2026-08-16T00:39:03.000Z</time></trkpt>
        <trkpt lat="28.164196" lon="105.799177"><ele>1200.9467</ele><time>2026-08-16T00:39:05.000Z</time></trkpt>
        <trkpt lat="28.164176" lon="105.799176"><ele>1200.9125</ele><time>2026-08-16T00:39:07.000Z</time></trkpt>
        <trkpt lat="28.164155" lon="105.799177"><ele>1202.2493</ele><time>2026-08-16T00:39:09.000Z</time></trkpt>
        <trkpt lat="28.164137" lon="105.799179"><ele>1202.5663</ele><time>2026-08-16T00:39:11.000Z</time></trkpt>
        <trkpt lat="28.164114" lon="105.799181"><ele>1202.5457</ele><time>2026-08-16T00:39:13.000Z</time></trkpt>
        <trkpt lat="28.164092" lon="105.799177"><ele>1202.2006</ele><time>2026-08-16T00:39:15.000Z</time></trkpt>
        <trkpt lat="28.164071" lon="105.799171"><ele>1202.0332</ele><time>2026-08-16T00:39:17.000Z</time></trkpt>
        <trkpt lat="28.164051" lon="105.799161"><ele>1201.5637</ele><time>2026-08-16T00:39:19.000Z</time></trkpt>
        <trkpt lat="28.164031" lon="105.799147"><ele>1200.6802</ele><time>2026-08-16T00:39:21.000Z</time></trkpt>
        <trkpt lat="28.164013" lon="105.799131"><ele>1200.8976</ele><time>2026-08-16T00:39:23.000Z</time></trkpt>
        <trkpt lat="28.163995" lon="105.799115"><ele>1200.5729</ele><time>2026-08-16T00:39:25.000Z</time></trkpt>
        <trkpt lat="28.163977" lon="105.799098"><ele>1200.7074</ele><time>2026-08-16T00:39:27.000Z</time></trkpt>
        <trkpt lat="28.163959" lon="105.799084"><ele>1200.6304</ele><time>2026-08-16T00:39:29.000Z</time></trkpt>
        <trkpt lat="28.163939" lon="105.79907"><ele>1201.4844</ele><time>2026-08-16T00:39:31.000Z</time></trkpt>
        <trkpt lat="28.163918" lon="105.799057"><ele>1201.7885</ele><time>2026-08-16T00:39:33.000Z</time></trkpt>
        <trkpt lat="28.163899" lon="105.799044"><ele>1202.0054</ele><time>2026-08-16T00:39:35.000Z</time></trkpt>
        <trkpt lat="28.163882" lon="105.799029"><ele>1201.8905</ele><time>2026-08-16T00:39:37.000Z</time></trkpt>
        <trkpt lat="28.163868" lon="105.799011"><ele>1201.0042</ele><time>2026-08-16T00:39:39.000Z</time></trkpt>
        <trkpt lat="28.163855" lon="105.798988"><ele>1201.3702</ele><time>2026-08-16T00:39:41.000Z</time></trkpt>
        <trkpt lat="28.163847" lon="105.798963"><ele>1200.9617</ele><time>2026-08-16T00:39:43.000Z</time></trkpt>
        <trkpt lat="28.163842" lon="105.798934"><ele>1199.437</ele><time>2026-08-16T00:39:45.000Z</time></trkpt>
        <trkpt lat="28.163841" lon="105.798907"><ele>1198.7299</ele><time>2026-08-16T00:39:47.000Z</time></trkpt>
        <trkpt lat="28.163846" lon="105.798881"><ele>1199.5862</ele><time>2026-08-16T00:39:49.000Z</time></trkpt>
        <trkpt lat="28.163853" lon="105.798851"><ele>1198.9137</ele><time>2026-08-16T00:39:51.000Z</time></trkpt>
        <trkpt lat="28.163861" lon="105.798823"><ele>1198.3616</ele><time>2026-08-16T00:39:53.000Z</time></trkpt>
        <trkpt lat="28.163869" lon="105.798797"><ele>1198.119</ele><time>2026-08-16T00:39:55.000Z</time></trkpt>
        <trkpt lat="28.163874" lon="105.79877"><ele>1197.6409</ele><time>2026-08-16T00:39:57.000Z</time></trkpt>
        <trkpt lat="28.163876" lon="105.798747"><ele>1197.8296</ele><time>2026-08-16T00:39:59.000Z</time></trkpt>
        <trkpt lat="28.163876" lon="105.798723"><ele>1198.3632</ele><time>2026-08-16T00:40:01.000Z</time></trkpt>
        <trkpt lat="28.163875" lon="105.798698"><ele>1198.2561</ele><time>2026-08-16T00:40:03.000Z</time></trkpt>
        <trkpt lat="28.163874" lon="105.798674"><ele>1197.6982</ele><time>2026-08-16T00:40:05.000Z</time></trkpt>
        <trkpt lat="28.163872" lon="105.798653"><ele>1197.1718</ele><time>2026-08-16T00:40:07.000Z</time></trkpt>
        <trkpt lat="28.163871" lon="105.798629"><ele>1197.4209</ele><time>2026-08-16T00:40:09.000Z</time></trkpt>
        <trkpt lat="28.163867" lon="105.798605"><ele>1198.057</ele><time>2026-08-16T00:40:11.000Z</time></trkpt>
        <trkpt lat="28.163863" lon="105.798582"><ele>1198.0184</ele><time>2026-08-16T00:40:13.000Z</time></trkpt>
        <trkpt lat="28.163855" lon="105.798558"><ele>1197.7467</ele><time>2026-08-16T00:40:15.000Z</time></trkpt>
        <trkpt lat="28.163846" lon="105.798537"><ele>1198.0643</ele><time>2026-08-16T00:40:17.000Z</time></trkpt>
        <trkpt lat="28.163834" lon="105.798514"><ele>1198.774</ele><time>2026-08-16T00:40:19.000Z</time></trkpt>
        <trkpt lat="28.163821" lon="105.79849"><ele>1199.4363</ele><time>2026-08-16T00:40:21.000Z</time></trkpt>
        <trkpt lat="28.163807" lon="105.798467"><ele>1199.7515</ele><time>2026-08-16T00:40:23.000Z</time></trkpt>
        <trkpt lat="28.163794" lon="105.798445"><ele>1200.2257</ele><time>2026-08-16T00:40:25.000Z</time></trkpt>
        <trkpt lat="28.163782" lon="105.798423"><ele>1200.0352</ele><time>2026-08-16T00:40:27.000Z</time></trkpt>
        <trkpt lat="28.163771" lon="105.798402"><ele>1200.168</ele><time>2026-08-16T00:40:29.000Z</time></trkpt>
        <trkpt lat="28.163761" lon="105.79838"><ele>1200.2927</ele><time>2026-08-16T00:40:31.000Z</time></trkpt>
        <trkpt lat="28.163752" lon="105.79836"><ele>1200.357</ele><time>2026-08-16T00:40:33.000Z</time></trkpt>
        <trkpt lat="28.163744" lon="105.798341"><ele>1200.8068</ele><time>2026-08-16T00:40:35.000Z</time></trkpt>
        <trkpt lat="28.163736" lon="105.79832"><ele>1201.2653</ele><time>2026-08-16T00:40:37.000Z</time></trkpt>
        <trkpt lat="28.163728" lon="105.798303"><ele>1200.997</ele><time>2026-08-16T00:40:39.000Z</time></trkpt>
        <trkpt lat="28.16372" lon="105.798287"><ele>1201.0651</ele><time>2026-08-16T00:40:41.000Z</time></trkpt>
        <trkpt lat="28.163714" lon="105.798271"><ele>1201.6849</ele><time>2026-08-16T00:40:43.000Z</time></trkpt>
        <trkpt lat="28.16371" lon="105.798253"><ele>1201.4258</ele><time>2026-08-16T00:40:45.000Z</time></trkpt>
        <trkpt lat="28.163707" lon="105.798234"><ele>1201.3524</ele><time>2026-08-16T00:40:47.000Z</time></trkpt>
        <trkpt lat="28.163703" lon="105.798212"><ele>1201.565</ele><time>2026-08-16T00:40:49.000Z</time></trkpt>
        <trkpt lat="28.1637" lon="105.79819"><ele>1201.1038</ele><time>2026-08-16T00:40:51.000Z</time></trkpt>
        <trkpt lat="28.163699" lon="105.798166"><ele>1201.2004</ele><time>2026-08-16T00:40:53.000Z</time></trkpt>
        <trkpt lat="28.163698" lon="105.798139"><ele>1201.1938</ele><time>2026-08-16T00:40:55.000Z</time></trkpt>
        <trkpt lat="28.163696" lon="105.79811"><ele>1201.6321</ele><time>2026-08-16T00:40:57.000Z</time></trkpt>
        <trkpt lat="28.163696" lon="105.798082"><ele>1201.7097</ele><time>2026-08-16T00:40:59.000Z</time></trkpt>
        <trkpt lat="28.163696" lon="105.798055"><ele>1201.5167</ele><time>2026-08-16T00:41:01.000Z</time></trkpt>
        <trkpt lat="28.163696" lon="105.798028"><ele>1201.5784</ele><time>2026-08-16T00:41:03.000Z</time></trkpt>
        <trkpt lat="28.163692" lon="105.798004"><ele>1201.5016</ele><time>2026-08-16T00:41:05.000Z</time></trkpt>
        <trkpt lat="28.163686" lon="105.797982"><ele>1201.4647</ele><time>2026-08-16T00:41:07.000Z</time></trkpt>
        <trkpt lat="28.163679" lon="105.79796"><ele>1201.2573</ele><time>2026-08-16T00:41:09.000Z</time></trkpt>
        <trkpt lat="28.163672" lon="105.797938"><ele>1201.0537</ele><time>2026-08-16T00:41:11.000Z</time></trkpt>
        <trkpt lat="28.163665" lon="105.797917"><ele>1200.792</ele><time>2026-08-16T00:41:13.000Z</time></trkpt>
        <trkpt lat="28.163656" lon="105.797897"><ele>1200.616</ele><time>2026-08-16T00:41:15.000Z</time></trkpt>
        <trkpt lat="28.163647" lon="105.797876"><ele>1201.1383</ele><time>2026-08-16T00:41:17.000Z</time></trkpt>
        <trkpt lat="28.163639" lon="105.797855"><ele>1200.6533</ele><time>2026-08-16T00:41:19.000Z</time></trkpt>
        <trkpt lat="28.163629" lon="105.797834"><ele>1200.8091</ele><time>2026-08-16T00:41:21.000Z</time></trkpt>
        <trkpt lat="28.16362" lon="105.797814"><ele>1200.156</ele><time>2026-08-16T00:41:23.000Z</time></trkpt>
        <trkpt lat="28.16361" lon="105.797794"><ele>1199.8717</ele><time>2026-08-16T00:41:25.000Z</time></trkpt>
        <trkpt lat="28.163602" lon="105.797775"><ele>1199.5171</ele><time>2026-08-16T00:41:27.000Z</time></trkpt>
        <trkpt lat="28.163593" lon="105.797757"><ele>1199.0627</ele><time>2026-08-16T00:41:29.000Z</time></trkpt>
        <trkpt lat="28.163585" lon="105.797738"><ele>1198.6449</ele><time>2026-08-16T00:41:31.000Z</time></trkpt>
        <trkpt lat="28.163578" lon="105.797717"><ele>1198.2533</ele><time>2026-08-16T00:41:33.000Z</time></trkpt>
        <trkpt lat="28.163571" lon="105.797697"><ele>1197.6277</ele><time>2026-08-16T00:41:35.000Z</time></trkpt>
        <trkpt lat="28.163564" lon="105.797676"><ele>1196.6556</ele><time>2026-08-16T00:41:37.000Z</time></trkpt>
        <trkpt lat="28.163558" lon="105.797655"><ele>1196.5643</ele><time>2026-08-16T00:41:39.000Z</time></trkpt>
        <trkpt lat="28.163552" lon="105.797634"><ele>1197.0096</ele><time>2026-08-16T00:41:41.000Z</time></trkpt>
        <trkpt lat="28.163546" lon="105.797613"><ele>1196.864</ele><time>2026-08-16T00:41:43.000Z</time></trkpt>
        <trkpt lat="28.163539" lon="105.797591"><ele>1197.0676</ele><time>2026-08-16T00:41:45.000Z</time></trkpt>
        <trkpt lat="28.163532" lon="105.79757"><ele>1197.4183</ele><time>2026-08-16T00:41:47.000Z</time></trkpt>
        <trkpt lat="28.163523" lon="105.797549"><ele>1196.9938</ele><time>2026-08-16T00:41:49.000Z</time></trkpt>
        <trkpt lat="28.163514" lon="105.797529"><ele>1196.5414</ele><time>2026-08-16T00:41:51.000Z</time></trkpt>
        <trkpt lat="28.163505" lon="105.797508"><ele>1196.2924</ele><time>2026-08-16T00:41:53.000Z</time></trkpt>
        <trkpt lat="28.163498" lon="105.797486"><ele>1196.0347</ele><time>2026-08-16T00:41:55.000Z</time></trkpt>
        <trkpt lat="28.163491" lon="105.797464"><ele>1195.5404</ele><time>2026-08-16T00:41:57.000Z</time></trkpt>
        <trkpt lat="28.163485" lon="105.797442"><ele>1194.8397</ele><time>2026-08-16T00:41:59.000Z</time></trkpt>
        <trkpt lat="28.16348" lon="105.797418"><ele>1194.3208</ele><time>2026-08-16T00:42:01.000Z</time></trkpt>
        <trkpt lat="28.163477" lon="105.797396"><ele>1193.3102</ele><time>2026-08-16T00:42:03.000Z</time></trkpt>
        <trkpt lat="28.163474" lon="105.797372"><ele>1192.7539</ele><time>2026-08-16T00:42:05.000Z</time></trkpt>
        <trkpt lat="28.163469" lon="105.797348"><ele>1192.6484</ele><time>2026-08-16T00:42:07.000Z</time></trkpt>
        <trkpt lat="28.163463" lon="105.797326"><ele>1192.5747</ele><time>2026-08-16T00:42:09.000Z</time></trkpt>
        <trkpt lat="28.163456" lon="105.797303"><ele>1192.4802</ele><time>2026-08-16T00:42:11.000Z</time></trkpt>
        <trkpt lat="28.163447" lon="105.797277"><ele>1191.6769</ele><time>2026-08-16T00:42:13.000Z</time></trkpt>
        <trkpt lat="28.163438" lon="105.79725"><ele>1190.4598</ele><time>2026-08-16T00:42:15.000Z</time></trkpt>
        <trkpt lat="28.163429" lon="105.797221"><ele>1190.4589</ele><time>2026-08-16T00:42:17.000Z</time></trkpt>
        <trkpt lat="28.163422" lon="105.797193"><ele>1190.3145</ele><time>2026-08-16T00:42:19.000Z</time></trkpt>
        <trkpt lat="28.163416" lon="105.797168"><ele>1190.9703</ele><time>2026-08-16T00:42:21.000Z</time></trkpt>
        <trkpt lat="28.163411" lon="105.797142"><ele>1191.3706</ele><time>2026-08-16T00:42:23.000Z</time></trkpt>
        <trkpt lat="28.163406" lon="105.797113"><ele>1191.6843</ele><time>2026-08-16T00:42:25.000Z</time></trkpt>
        <trkpt lat="28.163404" lon="105.797085"><ele>1191.8022</ele><time>2026-08-16T00:42:27.000Z</time></trkpt>
        <trkpt lat="28.163405" lon="105.797057"><ele>1191.4462</ele><time>2026-08-16T00:42:29.000Z</time></trkpt>
        <trkpt lat="28.163408" lon="105.797031"><ele>1191.6882</ele><time>2026-08-16T00:42:31.000Z</time></trkpt>
        <trkpt lat="28.163412" lon="105.797002"><ele>1192.0774</ele><time>2026-08-16T00:42:33.000Z</time></trkpt>
        <trkpt lat="28.163416" lon="105.796973"><ele>1192.4021</ele><time>2026-08-16T00:42:35.000Z</time></trkpt>
        <trkpt lat="28.163418" lon="105.796944"><ele>1192.5582</ele><time>2026-08-16T00:42:37.000Z</time></trkpt>
        <trkpt lat="28.163419" lon="105.796919"><ele>1192.7274</ele><time>2026-08-16T00:42:39.000Z</time></trkpt>
        <trkpt lat="28.16342" lon="105.796894"><ele>1193.1244</ele><time>2026-08-16T00:42:41.000Z</time></trkpt>
        <trkpt lat="28.163421" lon="105.796871"><ele>1193.6759</ele><time>2026-08-16T00:42:43.000Z</time></trkpt>
        <trkpt lat="28.163423" lon="105.796846"><ele>1193.3054</ele><time>2026-08-16T00:42:45.000Z</time></trkpt>
        <trkpt lat="28.163424" lon="105.796823"><ele>1193.1556</ele><time>2026-08-16T00:42:47.000Z</time></trkpt>
        <trkpt lat="28.163427" lon="105.796801"><ele>1193.7463</ele><time>2026-08-16T00:42:49.000Z</time></trkpt>
        <trkpt lat="28.163433" lon="105.79678"><ele>1194.2659</ele><time>2026-08-16T00:42:51.000Z</time></trkpt>
        <trkpt lat="28.163442" lon="105.796761"><ele>1194.3188</ele><time>2026-08-16T00:42:53.000Z</time></trkpt>
        <trkpt lat="28.163454" lon="105.796738"><ele>1194.0404</ele><time>2026-08-16T00:42:55.000Z</time></trkpt>
        <trkpt lat="28.163468" lon="105.796713"><ele>1194.2079</ele><time>2026-08-16T00:42:57.000Z</time></trkpt>
        <trkpt lat="28.163481" lon="105.796688"><ele>1194.1368</ele><time>2026-08-16T00:42:59.000Z</time></trkpt>
        <trkpt lat="28.163493" lon="105.796664"><ele>1194.0354</ele><time>2026-08-16T00:43:01.000Z</time></trkpt>
        <trkpt lat="28.163503" lon="105.796642"><ele>1193.808</ele><time>2026-08-16T00:43:03.000Z</time></trkpt>
        <trkpt lat="28.163515" lon="105.796621"><ele>1194.1923</ele><time>2026-08-16T00:43:05.000Z</time></trkpt>
        <trkpt lat="28.163528" lon="105.796604"><ele>1193.1505</ele><time>2026-08-16T00:43:07.000Z</time></trkpt>
        <trkpt lat="28.16354" lon="105.796584"><ele>1191.9866</ele><time>2026-08-16T00:43:09.000Z</time></trkpt>
        <trkpt lat="28.163552" lon="105.79656"><ele>1192.8796</ele><time>2026-08-16T00:43:11.000Z</time></trkpt>
        <trkpt lat="28.163565" lon="105.796534"><ele>1193.075</ele><time>2026-08-16T00:43:13.000Z</time></trkpt>
        <trkpt lat="28.163578" lon="105.796508"><ele>1194.128</ele><time>2026-08-16T00:43:15.000Z</time></trkpt>
        <trkpt lat="28.163593" lon="105.796486"><ele>1194.2006</ele><time>2026-08-16T00:43:17.000Z</time></trkpt>
        <trkpt lat="28.16361" lon="105.796467"><ele>1194.934</ele><time>2026-08-16T00:43:19.000Z</time></trkpt>
        <trkpt lat="28.16363" lon="105.796453"><ele>1195.4551</ele><time>2026-08-16T00:43:21.000Z</time></trkpt>
        <trkpt lat="28.16365" lon="105.796441"><ele>1195.4717</ele><time>2026-08-16T00:43:23.000Z</time></trkpt>
        <trkpt lat="28.163671" lon="105.796431"><ele>1195.7574</ele><time>2026-08-16T00:43:25.000Z</time></trkpt>
        <trkpt lat="28.163692" lon="105.796424"><ele>1195.6805</ele><time>2026-08-16T00:43:27.000Z</time></trkpt>
        <trkpt lat="28.163714" lon="105.79642"><ele>1195.8246</ele><time>2026-08-16T00:43:29.000Z</time></trkpt>
        <trkpt lat="28.163736" lon="105.796418"><ele>1196.132</ele><time>2026-08-16T00:43:31.000Z</time></trkpt>
        <trkpt lat="28.163759" lon="105.796418"><ele>1196.8046</ele><time>2026-08-16T00:43:33.000Z</time></trkpt>
        <trkpt lat="28.163782" lon="105.796417"><ele>1196.2515</ele><time>2026-08-16T00:43:35.000Z</time></trkpt>
        <trkpt lat="28.163805" lon="105.796419"><ele>1196.3164</ele><time>2026-08-16T00:43:37.000Z</time></trkpt>
        <trkpt lat="28.163827" lon="105.796421"><ele>1195.877</ele><time>2026-08-16T00:43:39.000Z</time></trkpt>
        <trkpt lat="28.163855" lon="105.796423"><ele>1196.0466</ele><time>2026-08-16T00:43:41.000Z</time></trkpt>
        <trkpt lat="28.16388" lon="105.796424"><ele>1195.478</ele><time>2026-08-16T00:43:43.000Z</time></trkpt>
        <trkpt lat="28.163905" lon="105.796425"><ele>1195.4663</ele><time>2026-08-16T00:43:45.000Z</time></trkpt>
        <trkpt lat="28.163929" lon="105.796425"><ele>1195.8026</ele><time>2026-08-16T00:43:47.000Z</time></trkpt>
        <trkpt lat="28.163954" lon="105.796427"><ele>1196.0842</ele><time>2026-08-16T00:43:49.000Z</time></trkpt>
        <trkpt lat="28.163975" lon="105.796428"><ele>1195.752</ele><time>2026-08-16T00:43:51.000Z</time></trkpt>
        <trkpt lat="28.163996" lon="105.79643"><ele>1195.6217</ele><time>2026-08-16T00:43:53.000Z</time></trkpt>
        <trkpt lat="28.164019" lon="105.796434"><ele>1195.5066</ele><time>2026-08-16T00:43:55.000Z</time></trkpt>
        <trkpt lat="28.16404" lon="105.796439"><ele>1195.1893</ele><time>2026-08-16T00:43:57.000Z</time></trkpt>
        <trkpt lat="28.164062" lon="105.796446"><ele>1195.4716</ele><time>2026-08-16T00:43:59.000Z</time></trkpt>
        <trkpt lat="28.164084" lon="105.796454"><ele>1195.1805</ele><time>2026-08-16T00:44:01.000Z</time></trkpt>
        <trkpt lat="28.164105" lon="105.796462"><ele>1195.2958</ele><time>2026-08-16T00:44:03.000Z</time></trkpt>
        <trkpt lat="28.164128" lon="105.796474"><ele>1195.0056</ele><time>2026-08-16T00:44:05.000Z</time></trkpt>
        <trkpt lat="28.16415" lon="105.796488"><ele>1194.9357</ele><time>2026-08-16T00:44:07.000Z</time></trkpt>
        <trkpt lat="28.164173" lon="105.796502"><ele>1194.8865</ele><time>2026-08-16T00:44:09.000Z</time></trkpt>
        <trkpt lat="28.164195" lon="105.796513"><ele>1194.807</ele><time>2026-08-16T00:44:11.000Z</time></trkpt>
        <trkpt lat="28.164217" lon="105.796526"><ele>1194.8478</ele><time>2026-08-16T00:44:13.000Z</time></trkpt>
        <trkpt lat="28.164238" lon="105.796537"><ele>1195.1897</ele><time>2026-08-16T00:44:15.000Z</time></trkpt>
        <trkpt lat="28.164258" lon="105.796546"><ele>1195.5142</ele><time>2026-08-16T00:44:17.000Z</time></trkpt>
        <trkpt lat="28.164278" lon="105.796552"><ele>1195.5293</ele><time>2026-08-16T00:44:19.000Z</time></trkpt>
        <trkpt lat="28.164296" lon="105.796555"><ele>1195.005</ele><time>2026-08-16T00:44:21.000Z</time></trkpt>
        <trkpt lat="28.164317" lon="105.796559"><ele>1195.051</ele><time>2026-08-16T00:44:23.000Z</time></trkpt>
        <trkpt lat="28.164338" lon="105.796569"><ele>1194.9653</ele><time>2026-08-16T00:44:25.000Z</time></trkpt>
        <trkpt lat="28.164361" lon="105.796581"><ele>1194.802</ele><time>2026-08-16T00:44:27.000Z</time></trkpt>
        <trkpt lat="28.164384" lon="105.796593"><ele>1195.4291</ele><time>2026-08-16T00:44:29.000Z</time></trkpt>
        <trkpt lat="28.164406" lon="105.796603"><ele>1196.085</ele><time>2026-08-16T00:44:31.000Z</time></trkpt>
        <trkpt lat="28.16443" lon="105.796612"><ele>1197.175</ele><time>2026-08-16T00:44:33.000Z</time></trkpt>
        <trkpt lat="28.164453" lon="105.796618"><ele>1197.3247</ele><time>2026-08-16T00:44:35.000Z</time></trkpt>
        <trkpt lat="28.164473" lon="105.796623"><ele>1197.304</ele><time>2026-08-16T00:44:37.000Z</time></trkpt>
        <trkpt lat="28.164493" lon="105.796627"><ele>1198.9806</ele><time>2026-08-16T00:44:39.000Z</time></trkpt>
        <trkpt lat="28.164508" lon="105.796633"><ele>1198.0992</ele><time>2026-08-16T00:44:41.000Z</time></trkpt>
        <trkpt lat="28.164521" lon="105.796643"><ele>1197.8234</ele><time>2026-08-16T00:44:43.000Z</time></trkpt>
        <trkpt lat="28.164537" lon="105.796656"><ele>1197.7751</ele><time>2026-08-16T00:44:45.000Z</time></trkpt>
        <trkpt lat="28.164555" lon="105.796672"><ele>1197.7589</ele><time>2026-08-16T00:44:47.000Z</time></trkpt>
        <trkpt lat="28.164575" lon="105.796688"><ele>1197.9055</ele><time>2026-08-16T00:44:49.000Z</time></trkpt>
        <trkpt lat="28.164596" lon="105.796706"><ele>1198.3538</ele><time>2026-08-16T00:44:51.000Z</time></trkpt>
        <trkpt lat="28.164617" lon="105.796724"><ele>1198.1101</ele><time>2026-08-16T00:44:53.000Z</time></trkpt>
        <trkpt lat="28.164638" lon="105.796743"><ele>1197.6337</ele><time>2026-08-16T00:44:55.000Z</time></trkpt>
        <trkpt lat="28.16466" lon="105.796763"><ele>1197.6241</ele><time>2026-08-16T00:44:57.000Z</time></trkpt>
        <trkpt lat="28.164679" lon="105.796779"><ele>1198.0907</ele><time>2026-08-16T00:44:59.000Z</time></trkpt>
        <trkpt lat="28.164694" lon="105.796786"><ele>1198.1647</ele><time>2026-08-16T00:45:01.000Z</time></trkpt>
        <trkpt lat="28.164709" lon="105.79679"><ele>1199.1641</ele><time>2026-08-16T00:45:03.000Z</time></trkpt>
        <trkpt lat="28.164724" lon="105.796792"><ele>1200.0918</ele><time>2026-08-16T00:45:05.000Z</time></trkpt>
        <trkpt lat="28.164746" lon="105.79679"><ele>1201.3601</ele><time>2026-08-16T00:45:07.000Z</time></trkpt>
        <trkpt lat="28.164769" lon="105.796789"><ele>1202.3159</ele><time>2026-08-16T00:45:09.000Z</time></trkpt>
        <trkpt lat="28.164793" lon="105.796788"><ele>1203.2059</ele><time>2026-08-16T00:45:11.000Z</time></trkpt>
        <trkpt lat="28.164813" lon="105.796787"><ele>1204.2338</ele><time>2026-08-16T00:45:13.000Z</time></trkpt>
        <trkpt lat="28.164832" lon="105.796786"><ele>1204.9615</ele><time>2026-08-16T00:45:15.000Z</time></trkpt>
        <trkpt lat="28.164855" lon="105.796781"><ele>1206.288</ele><time>2026-08-16T00:45:17.000Z</time></trkpt>
        <trkpt lat="28.16488" lon="105.796783"><ele>1207.0837</ele><time>2026-08-16T00:45:19.000Z</time></trkpt>
        <trkpt lat="28.164894" lon="105.79679"><ele>1206.9125</ele><time>2026-08-16T00:45:21.000Z</time></trkpt>
        <trkpt lat="28.164911" lon="105.796799"><ele>1206.4066</ele><time>2026-08-16T00:45:23.000Z</time></trkpt>
        <trkpt lat="28.164924" lon="105.796802"><ele>1207.0817</ele><time>2026-08-16T00:45:25.000Z</time></trkpt>
        <trkpt lat="28.164937" lon="105.796802"><ele>1206.8563</ele><time>2026-08-16T00:45:27.000Z</time></trkpt>
        <trkpt lat="28.16495" lon="105.796799"><ele>1207.2142</ele><time>2026-08-16T00:45:29.000Z</time></trkpt>
        <trkpt lat="28.164964" lon="105.796796"><ele>1207.424</ele><time>2026-08-16T00:45:31.000Z</time></trkpt>
        <trkpt lat="28.164979" lon="105.796796"><ele>1207.1882</ele><time>2026-08-16T00:45:33.000Z</time></trkpt>
        <trkpt lat="28.164995" lon="105.796797"><ele>1206.0991</ele><time>2026-08-16T00:45:35.000Z</time></trkpt>
        <trkpt lat="28.165013" lon="105.796797"><ele>1206.4253</ele><time>2026-08-16T00:45:37.000Z</time></trkpt>
        <trkpt lat="28.165032" lon="105.796794"><ele>1206.9463</ele><time>2026-08-16T00:45:39.000Z</time></trkpt>
        <trkpt lat="28.165052" lon="105.796793"><ele>1206.8601</ele><time>2026-08-16T00:45:41.000Z</time></trkpt>
        <trkpt lat="28.165072" lon="105.796789"><ele>1205.8779</ele><time>2026-08-16T00:45:43.000Z</time></trkpt>
        <trkpt lat="28.165093" lon="105.796784"><ele>1206.2578</ele><time>2026-08-16T00:45:45.000Z</time></trkpt>
        <trkpt lat="28.165114" lon="105.796781"><ele>1206.8546</ele><time>2026-08-16T00:45:47.000Z</time></trkpt>
        <trkpt lat="28.165134" lon="105.796776"><ele>1206.0195</ele><time>2026-08-16T00:45:49.000Z</time></trkpt>
        <trkpt lat="28.165155" lon="105.796768"><ele>1207.2064</ele><time>2026-08-16T00:45:51.000Z</time></trkpt>
        <trkpt lat="28.165178" lon="105.796759"><ele>1207.5574</ele><time>2026-08-16T00:45:53.000Z</time></trkpt>
        <trkpt lat="28.1652" lon="105.796752"><ele>1207.6041</ele><time>2026-08-16T00:45:55.000Z</time></trkpt>
        <trkpt lat="28.165222" lon="105.796746"><ele>1207.1451</ele><time>2026-08-16T00:45:57.000Z</time></trkpt>
        <trkpt lat="28.165242" lon="105.796738"><ele>1207.481</ele><time>2026-08-16T00:45:59.000Z</time></trkpt>
        <trkpt lat="28.165259" lon="105.796728"><ele>1207.8599</ele><time>2026-08-16T00:46:01.000Z</time></trkpt>
        <trkpt lat="28.165276" lon="105.796715"><ele>1207.5704</ele><time>2026-08-16T00:46:03.000Z</time></trkpt>
        <trkpt lat="28.165293" lon="105.796699"><ele>1208.3055</ele><time>2026-08-16T00:46:05.000Z</time></trkpt>
        <trkpt lat="28.165312" lon="105.796682"><ele>1207.8104</ele><time>2026-08-16T00:46:07.000Z</time></trkpt>
        <trkpt lat="28.165332" lon="105.79667"><ele>1207.4889</ele><time>2026-08-16T00:46:09.000Z</time></trkpt>
        <trkpt lat="28.165348" lon="105.796667"><ele>1205.5637</ele><time>2026-08-16T00:46:11.000Z</time></trkpt>
        <trkpt lat="28.165365" lon="105.796667"><ele>1202.9241</ele><time>2026-08-16T00:46:13.000Z</time></trkpt>
        <trkpt lat="28.165384" lon="105.796666"><ele>1202.4664</ele><time>2026-08-16T00:46:15.000Z</time></trkpt>
        <trkpt lat="28.165404" lon="105.796663"><ele>1202.1174</ele><time>2026-08-16T00:46:17.000Z</time></trkpt>
        <trkpt lat="28.165426" lon="105.796657"><ele>1200.6305</ele><time>2026-08-16T00:46:19.000Z</time></trkpt>
        <trkpt lat="28.165444" lon="105.796648"><ele>1199.983</ele><time>2026-08-16T00:46:21.000Z</time></trkpt>
        <trkpt lat="28.165462" lon="105.796634"><ele>1199.8511</ele><time>2026-08-16T00:46:23.000Z</time></trkpt>
        <trkpt lat="28.165478" lon="105.796617"><ele>1199.1785</ele><time>2026-08-16T00:46:25.000Z</time></trkpt>
        <trkpt lat="28.165496" lon="105.796597"><ele>1200.3713</ele><time>2026-08-16T00:46:27.000Z</time></trkpt>
        <trkpt lat="28.165514" lon="105.796576"><ele>1199.8593</ele><time>2026-08-16T00:46:29.000Z</time></trkpt>
        <trkpt lat="28.165528" lon="105.796558"><ele>1199.1827</ele><time>2026-08-16T00:46:31.000Z</time></trkpt>
        <trkpt lat="28.165543" lon="105.796541"><ele>1199.111</ele><time>2026-08-16T00:46:33.000Z</time></trkpt>
        <trkpt lat="28.165559" lon="105.796524"><ele>1198.6709</ele><time>2026-08-16T00:46:35.000Z</time></trkpt>
        <trkpt lat="28.165578" lon="105.796508"><ele>1198.6714</ele><time>2026-08-16T00:46:37.000Z</time></trkpt>
        <trkpt lat="28.165596" lon="105.796495"><ele>1197.6777</ele><time>2026-08-16T00:46:39.000Z</time></trkpt>
        <trkpt lat="28.165611" lon="105.796482"><ele>1197.0245</ele><time>2026-08-16T00:46:41.000Z</time></trkpt>
        <trkpt lat="28.165626" lon="105.796469"><ele>1196.8176</ele><time>2026-08-16T00:46:43.000Z</time></trkpt>
        <trkpt lat="28.165643" lon="105.796455"><ele>1196.7367</ele><time>2026-08-16T00:46:45.000Z</time></trkpt>
        <trkpt lat="28.165659" lon="105.79644"><ele>1196.4573</ele><time>2026-08-16T00:46:47.000Z</time></trkpt>
        <trkpt lat="28.165673" lon="105.796424"><ele>1196.6135</ele><time>2026-08-16T00:46:49.000Z</time></trkpt>
        <trkpt lat="28.165683" lon="105.796409"><ele>1196.4806</ele><time>2026-08-16T00:46:51.000Z</time></trkpt>
        <trkpt lat="28.165694" lon="105.796389"><ele>1195.6686</ele><time>2026-08-16T00:46:53.000Z</time></trkpt>
        <trkpt lat="28.165706" lon="105.796367"><ele>1196.2571</ele><time>2026-08-16T00:46:55.000Z</time></trkpt>
        <trkpt lat="28.165718" lon="105.796342"><ele>1196.961</ele><time>2026-08-16T00:46:57.000Z</time></trkpt>
        <trkpt lat="28.16573" lon="105.796319"><ele>1198.8704</ele><time>2026-08-16T00:46:59.000Z</time></trkpt>
        <trkpt lat="28.165739" lon="105.796297"><ele>1198.7322</ele><time>2026-08-16T00:47:01.000Z</time></trkpt>
        <trkpt lat="28.165746" lon="105.796282"><ele>1198.6462</ele><time>2026-08-16T00:47:03.000Z</time></trkpt>
        <trkpt lat="28.165751" lon="105.796273"><ele>1197.361</ele><time>2026-08-16T00:47:05.000Z</time></trkpt>
        <trkpt lat="28.16576" lon="105.79626"><ele>1197.5613</ele><time>2026-08-16T00:47:07.000Z</time></trkpt>
        <trkpt lat="28.165771" lon="105.796244"><ele>1196.8973</ele><time>2026-08-16T00:47:09.000Z</time></trkpt>
        <trkpt lat="28.165783" lon="105.796225"><ele>1197.087</ele><time>2026-08-16T00:47:11.000Z</time></trkpt>
        <trkpt lat="28.165796" lon="105.796206"><ele>1196.3213</ele><time>2026-08-16T00:47:13.000Z</time></trkpt>
        <trkpt lat="28.165809" lon="105.796187"><ele>1195.337</ele><time>2026-08-16T00:47:15.000Z</time></trkpt>
        <trkpt lat="28.165824" lon="105.796169"><ele>1195.0851</ele><time>2026-08-16T00:47:17.000Z</time></trkpt>
        <trkpt lat="28.16584" lon="105.796151"><ele>1194.2716</ele><time>2026-08-16T00:47:19.000Z</time></trkpt>
        <trkpt lat="28.165857" lon="105.796132"><ele>1193.2478</ele><time>2026-08-16T00:47:21.000Z</time></trkpt>
        <trkpt lat="28.165871" lon="105.796111"><ele>1192.6865</ele><time>2026-08-16T00:47:23.000Z</time></trkpt>
        <trkpt lat="28.165881" lon="105.796092"><ele>1192.0621</ele><time>2026-08-16T00:47:25.000Z</time></trkpt>
        <trkpt lat="28.165892" lon="105.79607"><ele>1192.3905</ele><time>2026-08-16T00:47:27.000Z</time></trkpt>
        <trkpt lat="28.165901" lon="105.796052"><ele>1191.3042</ele><time>2026-08-16T00:47:29.000Z</time></trkpt>
        <trkpt lat="28.165909" lon="105.796035"><ele>1191.0065</ele><time>2026-08-16T00:47:31.000Z</time></trkpt>
        <trkpt lat="28.165918" lon="105.796018"><ele>1191.089</ele><time>2026-08-16T00:47:33.000Z</time></trkpt>
        <trkpt lat="28.165925" lon="105.796002"><ele>1190.6887</ele><time>2026-08-16T00:47:35.000Z</time></trkpt>
        <trkpt lat="28.165927" lon="105.79599"><ele>1191.9443</ele><time>2026-08-16T00:47:37.000Z</time></trkpt>
        <trkpt lat="28.165929" lon="105.795974"><ele>1190.7285</ele><time>2026-08-16T00:47:39.000Z</time></trkpt>
        <trkpt lat="28.165933" lon="105.795954"><ele>1190.5515</ele><time>2026-08-16T00:47:41.000Z</time></trkpt>
        <trkpt lat="28.16594" lon="105.795926"><ele>1190.7958</ele><time>2026-08-16T00:47:43.000Z</time></trkpt>
        <trkpt lat="28.16595" lon="105.795903"><ele>1189.5953</ele><time>2026-08-16T00:47:45.000Z</time></trkpt>
        <trkpt lat="28.16596" lon="105.795881"><ele>1188.4347</ele><time>2026-08-16T00:47:47.000Z</time></trkpt>
        <trkpt lat="28.165968" lon="105.795858"><ele>1187.6486</ele><time>2026-08-16T00:47:49.000Z</time></trkpt>
        <trkpt lat="28.165974" lon="105.795835"><ele>1189.0758</ele><time>2026-08-16T00:47:51.000Z</time></trkpt>
        <trkpt lat="28.165981" lon="105.795813"><ele>1188.7479</ele><time>2026-08-16T00:47:53.000Z</time></trkpt>
        <trkpt lat="28.165988" lon="105.795792"><ele>1188.3674</ele><time>2026-08-16T00:47:55.000Z</time></trkpt>
        <trkpt lat="28.165997" lon="105.79577"><ele>1187.7888</ele><time>2026-08-16T00:47:57.000Z</time></trkpt>
        <trkpt lat="28.166006" lon="105.795748"><ele>1188.6697</ele><time>2026-08-16T00:47:59.000Z</time></trkpt>
        <trkpt lat="28.166013" lon="105.795727"><ele>1187.8909</ele><time>2026-08-16T00:48:01.000Z</time></trkpt>
        <trkpt lat="28.16602" lon="105.795707"><ele>1187.864</ele><time>2026-08-16T00:48:03.000Z</time></trkpt>
        <trkpt lat="28.166026" lon="105.795685"><ele>1187.2477</ele><time>2026-08-16T00:48:05.000Z</time></trkpt>
        <trkpt lat="28.166031" lon="105.795663"><ele>1187.4745</ele><time>2026-08-16T00:48:07.000Z</time></trkpt>
        <trkpt lat="28.166037" lon="105.79564"><ele>1187.9606</ele><time>2026-08-16T00:48:09.000Z</time></trkpt>
        <trkpt lat="28.166044" lon="105.795616"><ele>1187.6595</ele><time>2026-08-16T00:48:11.000Z</time></trkpt>
        <trkpt lat="28.166053" lon="105.795591"><ele>1187.3849</ele><time>2026-08-16T00:48:13.000Z</time></trkpt>
        <trkpt lat="28.166063" lon="105.795569"><ele>1186.9651</ele><time>2026-08-16T00:48:15.000Z</time></trkpt>
        <trkpt lat="28.166074" lon="105.79555"><ele>1187.4012</ele><time>2026-08-16T00:48:17.000Z</time></trkpt>
        <trkpt lat="28.166081" lon="105.795529"><ele>1187.6476</ele><time>2026-08-16T00:48:19.000Z</time></trkpt>
        <trkpt lat="28.166085" lon="105.795508"><ele>1187.2053</ele><time>2026-08-16T00:48:21.000Z</time></trkpt>
        <trkpt lat="28.166087" lon="105.795484"><ele>1187.6486</ele><time>2026-08-16T00:48:23.000Z</time></trkpt>
        <trkpt lat="28.16609" lon="105.795455"><ele>1187.6381</ele><time>2026-08-16T00:48:25.000Z</time></trkpt>
        <trkpt lat="28.166093" lon="105.79543"><ele>1187.505</ele><time>2026-08-16T00:48:27.000Z</time></trkpt>
        <trkpt lat="28.166095" lon="105.795407"><ele>1187.0399</ele><time>2026-08-16T00:48:29.000Z</time></trkpt>
        <trkpt lat="28.166097" lon="105.795383"><ele>1187.2578</ele><time>2026-08-16T00:48:31.000Z</time></trkpt>
        <trkpt lat="28.166099" lon="105.795359"><ele>1187.5375</ele><time>2026-08-16T00:48:33.000Z</time></trkpt>
        <trkpt lat="28.166102" lon="105.795336"><ele>1187.5908</ele><time>2026-08-16T00:48:35.000Z</time></trkpt>
        <trkpt lat="28.166105" lon="105.795312"><ele>1187.8763</ele><time>2026-08-16T00:48:37.000Z</time></trkpt>
        <trkpt lat="28.166108" lon="105.795287"><ele>1188.8058</ele><time>2026-08-16T00:48:39.000Z</time></trkpt>
        <trkpt lat="28.166112" lon="105.795263"><ele>1189.3253</ele><time>2026-08-16T00:48:41.000Z</time></trkpt>
        <trkpt lat="28.166119" lon="105.795241"><ele>1189.5688</ele><time>2026-08-16T00:48:43.000Z</time></trkpt>
        <trkpt lat="28.166125" lon="105.795219"><ele>1189.8793</ele><time>2026-08-16T00:48:45.000Z</time></trkpt>
        <trkpt lat="28.166132" lon="105.795199"><ele>1190.153</ele><time>2026-08-16T00:48:47.000Z</time></trkpt>
        <trkpt lat="28.166139" lon="105.79518"><ele>1190.392</ele><time>2026-08-16T00:48:49.000Z</time></trkpt>
        <trkpt lat="28.166146" lon="105.795164"><ele>1190.4316</ele><time>2026-08-16T00:48:51.000Z</time></trkpt>
        <trkpt lat="28.166151" lon="105.795153"><ele>1190.8079</ele><time>2026-08-16T00:48:53.000Z</time></trkpt>
        <trkpt lat="28.166159" lon="105.795138"><ele>1190.9241</ele><time>2026-08-16T00:48:55.000Z</time></trkpt>
        <trkpt lat="28.166167" lon="105.795121"><ele>1190.8271</ele><time>2026-08-16T00:48:57.000Z</time></trkpt>
        <trkpt lat="28.166178" lon="105.795103"><ele>1190.755</ele><time>2026-08-16T00:48:59.000Z</time></trkpt>
        <trkpt lat="28.166189" lon="105.795084"><ele>1190.8829</ele><time>2026-08-16T00:49:01.000Z</time></trkpt>
        <trkpt lat="28.166202" lon="105.795064"><ele>1191.3231</ele><time>2026-08-16T00:49:03.000Z</time></trkpt>
        <trkpt lat="28.166213" lon="105.795043"><ele>1191.3157</ele><time>2026-08-16T00:49:05.000Z</time></trkpt>
        <trkpt lat="28.166225" lon="105.795021"><ele>1191.6635</ele><time>2026-08-16T00:49:07.000Z</time></trkpt>
        <trkpt lat="28.166234" lon="105.795"><ele>1191.7493</ele><time>2026-08-16T00:49:09.000Z</time></trkpt>
        <trkpt lat="28.16624" lon="105.794981"><ele>1191.3789</ele><time>2026-08-16T00:49:11.000Z</time></trkpt>
        <trkpt lat="28.166243" lon="105.79496"><ele>1190.4902</ele><time>2026-08-16T00:49:13.000Z</time></trkpt>
        <trkpt lat="28.166246" lon="105.794941"><ele>1190.7646</ele><time>2026-08-16T00:49:15.000Z</time></trkpt>
        <trkpt lat="28.166249" lon="105.794919"><ele>1190.5331</ele><time>2026-08-16T00:49:17.000Z</time></trkpt>
        <trkpt lat="28.166253" lon="105.794897"><ele>1190.7571</ele><time>2026-08-16T00:49:19.000Z</time></trkpt>
        <trkpt lat="28.166258" lon="105.794876"><ele>1190.4227</ele><time>2026-08-16T00:49:21.000Z</time></trkpt>
        <trkpt lat="28.166265" lon="105.794856"><ele>1190.906</ele><time>2026-08-16T00:49:23.000Z</time></trkpt>
        <trkpt lat="28.166274" lon="105.794834"><ele>1191.6897</ele><time>2026-08-16T00:49:25.000Z</time></trkpt>
        <trkpt lat="28.166286" lon="105.794815"><ele>1191.7588</ele><time>2026-08-16T00:49:27.000Z</time></trkpt>
        <trkpt lat="28.166299" lon="105.794796"><ele>1192.2727</ele><time>2026-08-16T00:49:29.000Z</time></trkpt>
        <trkpt lat="28.166312" lon="105.794775"><ele>1193.3599</ele><time>2026-08-16T00:49:31.000Z</time></trkpt>
        <trkpt lat="28.166322" lon="105.794754"><ele>1194.0366</ele><time>2026-08-16T00:49:33.000Z</time></trkpt>
        <trkpt lat="28.166327" lon="105.794738"><ele>1193.5546</ele><time>2026-08-16T00:49:35.000Z</time></trkpt>
        <trkpt lat="28.166329" lon="105.794727"><ele>1193.3104</ele><time>2026-08-16T00:49:37.000Z</time></trkpt>
        <trkpt lat="28.166331" lon="105.794712"><ele>1192.3795</ele><time>2026-08-16T00:49:39.000Z</time></trkpt>
        <trkpt lat="28.166335" lon="105.794697"><ele>1191.6979</ele><time>2026-08-16T00:49:41.000Z</time></trkpt>
        <trkpt lat="28.166344" lon="105.794681"><ele>1192.4927</ele><time>2026-08-16T00:49:43.000Z</time></trkpt>
        <trkpt lat="28.166356" lon="105.794662"><ele>1192.3536</ele><time>2026-08-16T00:49:45.000Z</time></trkpt>
        <trkpt lat="28.16637" lon="105.794642"><ele>1193.2424</ele><time>2026-08-16T00:49:47.000Z</time></trkpt>
        <trkpt lat="28.166386" lon="105.794623"><ele>1192.8236</ele><time>2026-08-16T00:49:49.000Z</time></trkpt>
        <trkpt lat="28.166398" lon="105.794608"><ele>1193.1046</ele><time>2026-08-16T00:49:51.000Z</time></trkpt>
        <trkpt lat="28.166405" lon="105.794597"><ele>1193.2626</ele><time>2026-08-16T00:49:53.000Z</time></trkpt>
        <trkpt lat="28.166404" lon="105.794594"><ele>1192.7743</ele><time>2026-08-16T00:49:55.000Z</time></trkpt>
        <trkpt lat="28.166396" lon="105.79457"><ele>1192.3248</ele><time>2026-08-16T00:49:58.000Z</time></trkpt>
        <trkpt lat="28.166387" lon="105.794543"><ele>1192.285</ele><time>2026-08-16T00:50:02.000Z</time></trkpt>
        <trkpt lat="28.166387" lon="105.794543"><ele>1192.8079</ele><time>2026-08-16T00:50:04.000Z</time></trkpt>
        <trkpt lat="28.1664" lon="105.794525"><ele>1193.7522</ele><time>2026-08-16T00:50:08.000Z</time></trkpt>
        <trkpt lat="28.166417" lon="105.794499"><ele>1194.7094</ele><time>2026-08-16T00:50:10.000Z</time></trkpt>
        <trkpt lat="28.166433" lon="105.794471"><ele>1194.7543</ele><time>2026-08-16T00:50:12.000Z</time></trkpt>
        <trkpt lat="28.166444" lon="105.794444"><ele>1195.3541</ele><time>2026-08-16T00:50:14.000Z</time></trkpt>
        <trkpt lat="28.166451" lon="105.794417"><ele>1194.499</ele><time>2026-08-16T00:50:16.000Z</time></trkpt>
        <trkpt lat="28.166455" lon="105.794392"><ele>1195.2587</ele><time>2026-08-16T00:50:18.000Z</time></trkpt>
        <trkpt lat="28.166455" lon="105.794369"><ele>1194.8807</ele><time>2026-08-16T00:50:20.000Z</time></trkpt>
        <trkpt lat="28.166452" lon="105.794351"><ele>1195.147</ele><time>2026-08-16T00:50:22.000Z</time></trkpt>
        <trkpt lat="28.166451" lon="105.79433"><ele>1195.4966</ele><time>2026-08-16T00:50:24.000Z</time></trkpt>
        <trkpt lat="28.166454" lon="105.794313"><ele>1195.8478</ele><time>2026-08-16T00:50:26.000Z</time></trkpt>
        <trkpt lat="28.166456" lon="105.794297"><ele>1197.4652</ele><time>2026-08-16T00:50:28.000Z</time></trkpt>
        <trkpt lat="28.166458" lon="105.794283"><ele>1197.6201</ele><time>2026-08-16T00:50:30.000Z</time></trkpt>
        <trkpt lat="28.16646" lon="105.794268"><ele>1197.6332</ele><time>2026-08-16T00:50:32.000Z</time></trkpt>
        <trkpt lat="28.166461" lon="105.794253"><ele>1197.9442</ele><time>2026-08-16T00:50:34.000Z</time></trkpt>
        <trkpt lat="28.16646" lon="105.794236"><ele>1198.6427</ele><time>2026-08-16T00:50:36.000Z</time></trkpt>
        <trkpt lat="28.166459" lon="105.794218"><ele>1198.4464</ele><time>2026-08-16T00:50:38.000Z</time></trkpt>
        <trkpt lat="28.166458" lon="105.794199"><ele>1199.52</ele><time>2026-08-16T00:50:40.000Z</time></trkpt>
        <trkpt lat="28.166458" lon="105.794175"><ele>1199.3285</ele><time>2026-08-16T00:50:42.000Z</time></trkpt>
        <trkpt lat="28.166457" lon="105.79415"><ele>1200.0579</ele><time>2026-08-16T00:50:44.000Z</time></trkpt>
        <trkpt lat="28.16645" lon="105.794127"><ele>1200.537</ele><time>2026-08-16T00:50:46.000Z</time></trkpt>
        <trkpt lat="28.166442" lon="105.794103"><ele>1201.2579</ele><time>2026-08-16T00:50:48.000Z</time></trkpt>
        <trkpt lat="28.166437" lon="105.794081"><ele>1200.5049</ele><time>2026-08-16T00:50:50.000Z</time></trkpt>
        <trkpt lat="28.166435" lon="105.794057"><ele>1200.4587</ele><time>2026-08-16T00:50:52.000Z</time></trkpt>
        <trkpt lat="28.166437" lon="105.794041"><ele>1200.6666</ele><time>2026-08-16T00:50:54.000Z</time></trkpt>
        <trkpt lat="28.166441" lon="105.794029"><ele>1200.539</ele><time>2026-08-16T00:50:56.000Z</time></trkpt>
        <trkpt lat="28.166447" lon="105.794012"><ele>1201.2208</ele><time>2026-08-16T00:50:58.000Z</time></trkpt>
        <trkpt lat="28.166456" lon="105.793992"><ele>1200.9883</ele><time>2026-08-16T00:51:00.000Z</time></trkpt>
        <trkpt lat="28.166466" lon="105.793967"><ele>1201.8939</ele><time>2026-08-16T00:51:02.000Z</time></trkpt>
        <trkpt lat="28.166475" lon="105.793942"><ele>1202.1279</ele><time>2026-08-16T00:51:04.000Z</time></trkpt>
        <trkpt lat="28.166482" lon="105.793918"><ele>1202.0137</ele><time>2026-08-16T00:51:06.000Z</time></trkpt>
        <trkpt lat="28.166488" lon="105.793896"><ele>1202.2545</ele><time>2026-08-16T00:51:08.000Z</time></trkpt>
        <trkpt lat="28.166492" lon="105.793876"><ele>1202.2843</ele><time>2026-08-16T00:51:10.000Z</time></trkpt>
        <trkpt lat="28.166495" lon="105.793857"><ele>1202.0677</ele><time>2026-08-16T00:51:12.000Z</time></trkpt>
        <trkpt lat="28.166497" lon="105.793838"><ele>1202.4554</ele><time>2026-08-16T00:51:14.000Z</time></trkpt>
        <trkpt lat="28.166499" lon="105.793816"><ele>1203.2343</ele><time>2026-08-16T00:51:16.000Z</time></trkpt>
        <trkpt lat="28.166503" lon="105.793792"><ele>1203.2274</ele><time>2026-08-16T00:51:18.000Z</time></trkpt>
        <trkpt lat="28.166509" lon="105.793769"><ele>1203.5956</ele><time>2026-08-16T00:51:20.000Z</time></trkpt>
        <trkpt lat="28.166516" lon="105.793744"><ele>1204.1038</ele><time>2026-08-16T00:51:22.000Z</time></trkpt>
        <trkpt lat="28.166524" lon="105.793718"><ele>1204.3096</ele><time>2026-08-16T00:51:24.000Z</time></trkpt>
        <trkpt lat="28.166532" lon="105.793698"><ele>1204.6824</ele><time>2026-08-16T00:51:26.000Z</time></trkpt>
        <trkpt lat="28.166542" lon="105.79368"><ele>1205.456</ele><time>2026-08-16T00:51:28.000Z</time></trkpt>
        <trkpt lat="28.166552" lon="105.793662"><ele>1205.067</ele><time>2026-08-16T00:51:30.000Z</time></trkpt>
        <trkpt lat="28.166566" lon="105.793643"><ele>1205.644</ele><time>2026-08-16T00:51:32.000Z</time></trkpt>
        <trkpt lat="28.166581" lon="105.793621"><ele>1205.2849</ele><time>2026-08-16T00:51:34.000Z</time></trkpt>
        <trkpt lat="28.166596" lon="105.793601"><ele>1205.6304</ele><time>2026-08-16T00:51:36.000Z</time></trkpt>
        <trkpt lat="28.166609" lon="105.793583"><ele>1205.966</ele><time>2026-08-16T00:51:38.000Z</time></trkpt>
        <trkpt lat="28.16662" lon="105.793568"><ele>1207.0002</ele><time>2026-08-16T00:51:40.000Z</time></trkpt>
        <trkpt lat="28.166635" lon="105.793556"><ele>1206.9174</ele><time>2026-08-16T00:51:42.000Z</time></trkpt>
        <trkpt lat="28.166648" lon="105.793549"><ele>1206.5814</ele><time>2026-08-16T00:51:44.000Z</time></trkpt>
        <trkpt lat="28.166663" lon="105.793543"><ele>1206.8556</ele><time>2026-08-16T00:51:46.000Z</time></trkpt>
        <trkpt lat="28.16668" lon="105.793536"><ele>1206.8892</ele><time>2026-08-16T00:51:48.000Z</time></trkpt>
        <trkpt lat="28.166696" lon="105.793526"><ele>1206.9535</ele><time>2026-08-16T00:51:50.000Z</time></trkpt>
        <trkpt lat="28.16671" lon="105.793514"><ele>1207.009</ele><time>2026-08-16T00:51:52.000Z</time></trkpt>
        <trkpt lat="28.166722" lon="105.793501"><ele>1206.8976</ele><time>2026-08-16T00:51:54.000Z</time></trkpt>
        <trkpt lat="28.166736" lon="105.793486"><ele>1207.6562</ele><time>2026-08-16T00:51:56.000Z</time></trkpt>
        <trkpt lat="28.166751" lon="105.793474"><ele>1207.791</ele><time>2026-08-16T00:51:58.000Z</time></trkpt>
        <trkpt lat="28.16677" lon="105.793462"><ele>1208.0106</ele><time>2026-08-16T00:52:00.000Z</time></trkpt>
        <trkpt lat="28.166788" lon="105.793451"><ele>1208.5718</ele><time>2026-08-16T00:52:02.000Z</time></trkpt>
        <trkpt lat="28.166802" lon="105.79344"><ele>1208.4187</ele><time>2026-08-16T00:52:04.000Z</time></trkpt>
        <trkpt lat="28.166816" lon="105.793427"><ele>1208.6781</ele><time>2026-08-16T00:52:06.000Z</time></trkpt>
        <trkpt lat="28.166828" lon="105.793412"><ele>1209.0488</ele><time>2026-08-16T00:52:08.000Z</time></trkpt>
        <trkpt lat="28.166841" lon="105.793394"><ele>1209.4438</ele><time>2026-08-16T00:52:10.000Z</time></trkpt>
        <trkpt lat="28.166857" lon="105.79337"><ele>1208.9635</ele><time>2026-08-16T00:52:12.000Z</time></trkpt>
        <trkpt lat="28.166871" lon="105.793347"><ele>1209.2751</ele><time>2026-08-16T00:52:14.000Z</time></trkpt>
        <trkpt lat="28.166886" lon="105.793327"><ele>1209.4669</ele><time>2026-08-16T00:52:16.000Z</time></trkpt>
        <trkpt lat="28.166902" lon="105.793313"><ele>1209.2999</ele><time>2026-08-16T00:52:18.000Z</time></trkpt>
        <trkpt lat="28.166923" lon="105.793301"><ele>1207.8828</ele><time>2026-08-16T00:52:20.000Z</time></trkpt>
        <trkpt lat="28.166942" lon="105.793294"><ele>1208.1151</ele><time>2026-08-16T00:52:22.000Z</time></trkpt>
        <trkpt lat="28.166958" lon="105.793289"><ele>1207.3395</ele><time>2026-08-16T00:52:24.000Z</time></trkpt>
        <trkpt lat="28.166975" lon="105.793282"><ele>1207.1602</ele><time>2026-08-16T00:52:26.000Z</time></trkpt>
        <trkpt lat="28.166989" lon="105.793273"><ele>1207.1483</ele><time>2026-08-16T00:52:28.000Z</time></trkpt>
        <trkpt lat="28.166998" lon="105.793264"><ele>1207.1959</ele><time>2026-08-16T00:52:30.000Z</time></trkpt>
        <trkpt lat="28.167008" lon="105.793254"><ele>1207.0668</ele><time>2026-08-16T00:52:32.000Z</time></trkpt>
        <trkpt lat="28.167019" lon="105.793241"><ele>1206.819</ele><time>2026-08-16T00:52:34.000Z</time></trkpt>
        <trkpt lat="28.16703" lon="105.793229"><ele>1206.9249</ele><time>2026-08-16T00:52:36.000Z</time></trkpt>
        <trkpt lat="28.167041" lon="105.793216"><ele>1207.061</ele><time>2026-08-16T00:52:38.000Z</time></trkpt>
        <trkpt lat="28.167052" lon="105.793204"><ele>1207.076</ele><time>2026-08-16T00:52:40.000Z</time></trkpt>
        <trkpt lat="28.167063" lon="105.79319"><ele>1206.6976</ele><time>2026-08-16T00:52:42.000Z</time></trkpt>
        <trkpt lat="28.167075" lon="105.793177"><ele>1206.4917</ele><time>2026-08-16T00:52:44.000Z</time></trkpt>
        <trkpt lat="28.167085" lon="105.793166"><ele>1206.2426</ele><time>2026-08-16T00:52:46.000Z</time></trkpt>
        <trkpt lat="28.167092" lon="105.793154"><ele>1205.952</ele><time>2026-08-16T00:52:48.000Z</time></trkpt>
        <trkpt lat="28.167094" lon="105.793146"><ele>1206.7305</ele><time>2026-08-16T00:52:50.000Z</time></trkpt>
        <trkpt lat="28.167095" lon="105.793124"><ele>1207.2128</ele><time>2026-08-16T00:52:54.000Z</time></trkpt>
        <trkpt lat="28.167093" lon="105.793113"><ele>1207.459</ele><time>2026-08-16T00:52:56.000Z</time></trkpt>
        <trkpt lat="28.167087" lon="105.793097"><ele>1207.4192</ele><time>2026-08-16T00:52:58.000Z</time></trkpt>
        <trkpt lat="28.167079" lon="105.793082"><ele>1208.5854</ele><time>2026-08-16T00:53:00.000Z</time></trkpt>
        <trkpt lat="28.167066" lon="105.793069"><ele>1208.8489</ele><time>2026-08-16T00:53:02.000Z</time></trkpt>
        <trkpt lat="28.167052" lon="105.793057"><ele>1209.631</ele><time>2026-08-16T00:53:04.000Z</time></trkpt>
        <trkpt lat="28.167037" lon="105.793046"><ele>1209.2568</ele><time>2026-08-16T00:53:06.000Z</time></trkpt>
        <trkpt lat="28.167023" lon="105.793034"><ele>1209.3323</ele><time>2026-08-16T00:53:08.000Z</time></trkpt>
        <trkpt lat="28.167007" lon="105.793021"><ele>1208.6329</ele><time>2026-08-16T00:53:10.000Z</time></trkpt>
        <trkpt lat="28.166991" lon="105.79301"><ele>1208.9175</ele><time>2026-08-16T00:53:12.000Z</time></trkpt>
        <trkpt lat="28.166975" lon="105.793"><ele>1209.1942</ele><time>2026-08-16T00:53:14.000Z</time></trkpt>
        <trkpt lat="28.166958" lon="105.792991"><ele>1209.444</ele><time>2026-08-16T00:53:16.000Z</time></trkpt>
        <trkpt lat="28.166942" lon="105.792983"><ele>1210.0697</ele><time>2026-08-16T00:53:18.000Z</time></trkpt>
        <trkpt lat="28.166925" lon="105.792975"><ele>1210.3896</ele><time>2026-08-16T00:53:20.000Z</time></trkpt>
        <trkpt lat="28.166908" lon="105.792967"><ele>1210.597</ele><time>2026-08-16T00:53:22.000Z</time></trkpt>
        <trkpt lat="28.166892" lon="105.792959"><ele>1210.9851</ele><time>2026-08-16T00:53:24.000Z</time></trkpt>
        <trkpt lat="28.166874" lon="105.79295"><ele>1211.3522</ele><time>2026-08-16T00:53:26.000Z</time></trkpt>
        <trkpt lat="28.166858" lon="105.79294"><ele>1210.8055</ele><time>2026-08-16T00:53:28.000Z</time></trkpt>
        <trkpt lat="28.166837" lon="105.792929"><ele>1211.1248</ele><time>2026-08-16T00:53:30.000Z</time></trkpt>
        <trkpt lat="28.166817" lon="105.792919"><ele>1210.0972</ele><time>2026-08-16T00:53:32.000Z</time></trkpt>
        <trkpt lat="28.166797" lon="105.792911"><ele>1210.2203</ele><time>2026-08-16T00:53:34.000Z</time></trkpt>
        <trkpt lat="28.166778" lon="105.792903"><ele>1209.9396</ele><time>2026-08-16T00:53:36.000Z</time></trkpt>
        <trkpt lat="28.166756" lon="105.792894"><ele>1210.2075</ele><time>2026-08-16T00:53:38.000Z</time></trkpt>
        <trkpt lat="28.166736" lon="105.792888"><ele>1210.2554</ele><time>2026-08-16T00:53:40.000Z</time></trkpt>
        <trkpt lat="28.166715" lon="105.792885"><ele>1210.1208</ele><time>2026-08-16T00:53:42.000Z</time></trkpt>
        <trkpt lat="28.166693" lon="105.792885"><ele>1210.4955</ele><time>2026-08-16T00:53:44.000Z</time></trkpt>
        <trkpt lat="28.166669" lon="105.792888"><ele>1210.8896</ele><time>2026-08-16T00:53:46.000Z</time></trkpt>
        <trkpt lat="28.166645" lon="105.792893"><ele>1210.8129</ele><time>2026-08-16T00:53:48.000Z</time></trkpt>
        <trkpt lat="28.166624" lon="105.792901"><ele>1211.4916</ele><time>2026-08-16T00:53:50.000Z</time></trkpt>
        <trkpt lat="28.166601" lon="105.792912"><ele>1211.801</ele><time>2026-08-16T00:53:52.000Z</time></trkpt>
        <trkpt lat="28.166579" lon="105.792924"><ele>1212.5514</ele><time>2026-08-16T00:53:54.000Z</time></trkpt>
        <trkpt lat="28.166557" lon="105.792935"><ele>1212.742</ele><time>2026-08-16T00:53:56.000Z</time></trkpt>
        <trkpt lat="28.166533" lon="105.792943"><ele>1212.8241</ele><time>2026-08-16T00:53:58.000Z</time></trkpt>
        <trkpt lat="28.166511" lon="105.792951"><ele>1212.1761</ele><time>2026-08-16T00:54:00.000Z</time></trkpt>
        <trkpt lat="28.16649" lon="105.792961"><ele>1212.4147</ele><time>2026-08-16T00:54:02.000Z</time></trkpt>
        <trkpt lat="28.16647" lon="105.792969"><ele>1213.05</ele><time>2026-08-16T00:54:04.000Z</time></trkpt>
        <trkpt lat="28.166451" lon="105.792975"><ele>1213.6388</ele><time>2026-08-16T00:54:06.000Z</time></trkpt>
        <trkpt lat="28.166432" lon="105.792982"><ele>1213.9658</ele><time>2026-08-16T00:54:08.000Z</time></trkpt>
        <trkpt lat="28.166413" lon="105.792992"><ele>1213.589</ele><time>2026-08-16T00:54:10.000Z</time></trkpt>
        <trkpt lat="28.166396" lon="105.793001"><ele>1213.5247</ele><time>2026-08-16T00:54:12.000Z</time></trkpt>
        <trkpt lat="28.16638" lon="105.793012"><ele>1213.617</ele><time>2026-08-16T00:54:14.000Z</time></trkpt>
        <trkpt lat="28.166363" lon="105.793024"><ele>1213.8699</ele><time>2026-08-16T00:54:16.000Z</time></trkpt>
        <trkpt lat="28.166342" lon="105.793038"><ele>1213.7635</ele><time>2026-08-16T00:54:18.000Z</time></trkpt>
        <trkpt lat="28.166323" lon="105.79305"><ele>1213.6454</ele><time>2026-08-16T00:54:20.000Z</time></trkpt>
        <trkpt lat="28.166304" lon="105.793059"><ele>1214.0985</ele><time>2026-08-16T00:54:22.000Z</time></trkpt>
        <trkpt lat="28.166282" lon="105.793069"><ele>1214.319</ele><time>2026-08-16T00:54:24.000Z</time></trkpt>
        <trkpt lat="28.166263" lon="105.793076"><ele>1213.9266</ele><time>2026-08-16T00:54:26.000Z</time></trkpt>
        <trkpt lat="28.166247" lon="105.793084"><ele>1213.6481</ele><time>2026-08-16T00:54:28.000Z</time></trkpt>
        <trkpt lat="28.166232" lon="105.793088"><ele>1213.7319</ele><time>2026-08-16T00:54:30.000Z</time></trkpt>
        <trkpt lat="28.166218" lon="105.793087"><ele>1213.0115</ele><time>2026-08-16T00:54:32.000Z</time></trkpt>
        <trkpt lat="28.166207" lon="105.79308"><ele>1212.5024</ele><time>2026-08-16T00:54:34.000Z</time></trkpt>
        <trkpt lat="28.166195" lon="105.793067"><ele>1212.154</ele><time>2026-08-16T00:54:36.000Z</time></trkpt>
        <trkpt lat="28.166182" lon="105.793052"><ele>1212.0095</ele><time>2026-08-16T00:54:38.000Z</time></trkpt>
        <trkpt lat="28.16617" lon="105.793034"><ele>1212.2593</ele><time>2026-08-16T00:54:40.000Z</time></trkpt>
        <trkpt lat="28.166156" lon="105.793016"><ele>1212.4141</ele><time>2026-08-16T00:54:42.000Z</time></trkpt>
        <trkpt lat="28.166141" lon="105.792999"><ele>1212.643</ele><time>2026-08-16T00:54:44.000Z</time></trkpt>
        <trkpt lat="28.166124" lon="105.792982"><ele>1213.4142</ele><time>2026-08-16T00:54:46.000Z</time></trkpt>
        <trkpt lat="28.166105" lon="105.792965"><ele>1213.71</ele><time>2026-08-16T00:54:48.000Z</time></trkpt>
        <trkpt lat="28.166086" lon="105.792948"><ele>1213.8923</ele><time>2026-08-16T00:54:50.000Z</time></trkpt>
        <trkpt lat="28.166068" lon="105.792934"><ele>1213.3582</ele><time>2026-08-16T00:54:52.000Z</time></trkpt>
        <trkpt lat="28.166051" lon="105.792919"><ele>1212.3102</ele><time>2026-08-16T00:54:54.000Z</time></trkpt>
        <trkpt lat="28.166035" lon="105.792904"><ele>1211.6149</ele><time>2026-08-16T00:54:56.000Z</time></trkpt>
        <trkpt lat="28.166019" lon="105.792889"><ele>1212.3011</ele><time>2026-08-16T00:54:58.000Z</time></trkpt>
        <trkpt lat="28.166006" lon="105.792872"><ele>1212.6869</ele><time>2026-08-16T00:55:00.000Z</time></trkpt>
        <trkpt lat="28.165994" lon="105.792851"><ele>1212.0986</ele><time>2026-08-16T00:55:02.000Z</time></trkpt>
        <trkpt lat="28.165982" lon="105.792832"><ele>1211.5504</ele><time>2026-08-16T00:55:04.000Z</time></trkpt>
        <trkpt lat="28.16597" lon="105.792814"><ele>1212.138</ele><time>2026-08-16T00:55:06.000Z</time></trkpt>
        <trkpt lat="28.165957" lon="105.792795"><ele>1211.8097</ele><time>2026-08-16T00:55:08.000Z</time></trkpt>
        <trkpt lat="28.165947" lon="105.792776"><ele>1211.7515</ele><time>2026-08-16T00:55:10.000Z</time></trkpt>
        <trkpt lat="28.165936" lon="105.792756"><ele>1212.0717</ele><time>2026-08-16T00:55:12.000Z</time></trkpt>
        <trkpt lat="28.165925" lon="105.792737"><ele>1213.0414</ele><time>2026-08-16T00:55:14.000Z</time></trkpt>
        <trkpt lat="28.165914" lon="105.792717"><ele>1212.5132</ele><time>2026-08-16T00:55:16.000Z</time></trkpt>
        <trkpt lat="28.165901" lon="105.792696"><ele>1212.8788</ele><time>2026-08-16T00:55:18.000Z</time></trkpt>
        <trkpt lat="28.165888" lon="105.792675"><ele>1213.0939</ele><time>2026-08-16T00:55:20.000Z</time></trkpt>
        <trkpt lat="28.165877" lon="105.792658"><ele>1212.5637</ele><time>2026-08-16T00:55:22.000Z</time></trkpt>
        <trkpt lat="28.165865" lon="105.792638"><ele>1212.687</ele><time>2026-08-16T00:55:24.000Z</time></trkpt>
        <trkpt lat="28.165851" lon="105.792617"><ele>1212.123</ele><time>2026-08-16T00:55:26.000Z</time></trkpt>
        <trkpt lat="28.165835" lon="105.792595"><ele>1212.3046</ele><time>2026-08-16T00:55:28.000Z</time></trkpt>
        <trkpt lat="28.165821" lon="105.792576"><ele>1212.461</ele><time>2026-08-16T00:55:30.000Z</time></trkpt>
        <trkpt lat="28.165808" lon="105.792556"><ele>1212.0444</ele><time>2026-08-16T00:55:32.000Z</time></trkpt>
        <trkpt lat="28.165798" lon="105.792535"><ele>1213.0403</ele><time>2026-08-16T00:55:34.000Z</time></trkpt>
        <trkpt lat="28.16579" lon="105.792514"><ele>1213.0297</ele><time>2026-08-16T00:55:36.000Z</time></trkpt>
        <trkpt lat="28.16578" lon="105.792489"><ele>1212.6292</ele><time>2026-08-16T00:55:38.000Z</time></trkpt>
        <trkpt lat="28.165769" lon="105.792463"><ele>1213.0729</ele><time>2026-08-16T00:55:40.000Z</time></trkpt>
        <trkpt lat="28.165759" lon="105.79244"><ele>1213.7178</ele><time>2026-08-16T00:55:42.000Z</time></trkpt>
        <trkpt lat="28.165749" lon="105.792416"><ele>1213.4845</ele><time>2026-08-16T00:55:44.000Z</time></trkpt>
        <trkpt lat="28.165739" lon="105.792394"><ele>1213.0242</ele><time>2026-08-16T00:55:46.000Z</time></trkpt>
        <trkpt lat="28.165729" lon="105.792372"><ele>1212.2794</ele><time>2026-08-16T00:55:48.000Z</time></trkpt>
        <trkpt lat="28.165718" lon="105.792348"><ele>1212.8127</ele><time>2026-08-16T00:55:50.000Z</time></trkpt>
        <trkpt lat="28.165706" lon="105.792324"><ele>1213.3289</ele><time>2026-08-16T00:55:52.000Z</time></trkpt>
        <trkpt lat="28.165696" lon="105.792304"><ele>1212.96</ele><time>2026-08-16T00:55:54.000Z</time></trkpt>
        <trkpt lat="28.165686" lon="105.792285"><ele>1213.6178</ele><time>2026-08-16T00:55:56.000Z</time></trkpt>
        <trkpt lat="28.165674" lon="105.792262"><ele>1214.1194</ele><time>2026-08-16T00:55:58.000Z</time></trkpt>
        <trkpt lat="28.165662" lon="105.792237"><ele>1214.297</ele><time>2026-08-16T00:56:00.000Z</time></trkpt>
        <trkpt lat="28.165654" lon="105.79221"><ele>1214.0521</ele><time>2026-08-16T00:56:02.000Z</time></trkpt>
        <trkpt lat="28.165647" lon="105.792183"><ele>1213.62</ele><time>2026-08-16T00:56:04.000Z</time></trkpt>
        <trkpt lat="28.165641" lon="105.792158"><ele>1212.6177</ele><time>2026-08-16T00:56:06.000Z</time></trkpt>
        <trkpt lat="28.165634" lon="105.792134"><ele>1213.4246</ele><time>2026-08-16T00:56:08.000Z</time></trkpt>
        <trkpt lat="28.165626" lon="105.792113"><ele>1214.4164</ele><time>2026-08-16T00:56:10.000Z</time></trkpt>
        <trkpt lat="28.165615" lon="105.792092"><ele>1214.1176</ele><time>2026-08-16T00:56:12.000Z</time></trkpt>
        <trkpt lat="28.1656" lon="105.79207"><ele>1215.0061</ele><time>2026-08-16T00:56:14.000Z</time></trkpt>
        <trkpt lat="28.165587" lon="105.792049"><ele>1215.4283</ele><time>2026-08-16T00:56:16.000Z</time></trkpt>
        <trkpt lat="28.165574" lon="105.792025"><ele>1215.1028</ele><time>2026-08-16T00:56:18.000Z</time></trkpt>
        <trkpt lat="28.165562" lon="105.792"><ele>1215.5643</ele><time>2026-08-16T00:56:20.000Z</time></trkpt>
        <trkpt lat="28.165552" lon="105.791977"><ele>1214.7222</ele><time>2026-08-16T00:56:22.000Z</time></trkpt>
        <trkpt lat="28.165543" lon="105.791956"><ele>1214.1448</ele><time>2026-08-16T00:56:24.000Z</time></trkpt>
        <trkpt lat="28.165531" lon="105.791934"><ele>1213.8641</ele><time>2026-08-16T00:56:26.000Z</time></trkpt>
        <trkpt lat="28.165518" lon="105.791912"><ele>1213.5951</ele><time>2026-08-16T00:56:28.000Z</time></trkpt>
        <trkpt lat="28.165505" lon="105.791891"><ele>1213.1445</ele><time>2026-08-16T00:56:30.000Z</time></trkpt>
        <trkpt lat="28.165491" lon="105.791871"><ele>1212.2145</ele><time>2026-08-16T00:56:32.000Z</time></trkpt>
        <trkpt lat="28.165477" lon="105.791856"><ele>1211.5342</ele><time>2026-08-16T00:56:34.000Z</time></trkpt>
        <trkpt lat="28.165464" lon="105.791842"><ele>1213.0072</ele><time>2026-08-16T00:56:36.000Z</time></trkpt>
        <trkpt lat="28.165449" lon="105.791826"><ele>1214.3207</ele><time>2026-08-16T00:56:38.000Z</time></trkpt>
        <trkpt lat="28.165438" lon="105.791809"><ele>1213.1096</ele><time>2026-08-16T00:56:40.000Z</time></trkpt>
        <trkpt lat="28.165427" lon="105.79179"><ele>1212.1385</ele><time>2026-08-16T00:56:42.000Z</time></trkpt>
        <trkpt lat="28.165416" lon="105.791767"><ele>1211.6609</ele><time>2026-08-16T00:56:44.000Z</time></trkpt>
        <trkpt lat="28.165404" lon="105.791744"><ele>1211.1208</ele><time>2026-08-16T00:56:46.000Z</time></trkpt>
        <trkpt lat="28.165392" lon="105.791723"><ele>1210.1951</ele><time>2026-08-16T00:56:48.000Z</time></trkpt>
        <trkpt lat="28.165381" lon="105.791706"><ele>1211.8323</ele><time>2026-08-16T00:56:50.000Z</time></trkpt>
        <trkpt lat="28.16537" lon="105.79169"><ele>1212.6636</ele><time>2026-08-16T00:56:52.000Z</time></trkpt>
        <trkpt lat="28.165361" lon="105.791671"><ele>1210.7509</ele><time>2026-08-16T00:56:54.000Z</time></trkpt>
        <trkpt lat="28.165359" lon="105.791656"><ele>1209.7017</ele><time>2026-08-16T00:56:56.000Z</time></trkpt>
        <trkpt lat="28.165362" lon="105.791647"><ele>1207.4651</ele><time>2026-08-16T00:56:58.000Z</time></trkpt>
        <trkpt lat="28.165366" lon="105.791637"><ele>1205.0012</ele><time>2026-08-16T00:57:12.000Z</time></trkpt>
        <trkpt lat="28.165375" lon="105.79163"><ele>1203.9458</ele><time>2026-08-16T00:57:20.000Z</time></trkpt>
        <trkpt lat="28.165378" lon="105.791632"><ele>1199.9978</ele><time>2026-08-16T00:58:03.000Z</time></trkpt>
        <trkpt lat="28.165353" lon="105.791601"><ele>1200.8773</ele><time>2026-08-16T00:58:11.000Z</time></trkpt>
        <trkpt lat="28.165341" lon="105.791584"><ele>1201.9806</ele><time>2026-08-16T00:58:13.000Z</time></trkpt>
        <trkpt lat="28.16534" lon="105.791584"><ele>1201.3644</ele><time>2026-08-16T00:58:15.000Z</time></trkpt>
        <trkpt lat="28.165324" lon="105.79158"><ele>1204.2611</ele><time>2026-08-16T00:58:19.000Z</time></trkpt>
        <trkpt lat="28.1653" lon="105.791571"><ele>1207.4258</ele><time>2026-08-16T00:58:21.000Z</time></trkpt>
        <trkpt lat="28.165277" lon="105.791559"><ele>1206.7084</ele><time>2026-08-16T00:58:23.000Z</time></trkpt>
        <trkpt lat="28.165257" lon="105.791546"><ele>1207.279</ele><time>2026-08-16T00:58:25.000Z</time></trkpt>
        <trkpt lat="28.165237" lon="105.791535"><ele>1206.9374</ele><time>2026-08-16T00:58:27.000Z</time></trkpt>
        <trkpt lat="28.165214" lon="105.791525"><ele>1210.3018</ele><time>2026-08-16T00:58:29.000Z</time></trkpt>
        <trkpt lat="28.165191" lon="105.791517"><ele>1212.7374</ele><time>2026-08-16T00:58:31.000Z</time></trkpt>
        <trkpt lat="28.16517" lon="105.791509"><ele>1213.903</ele><time>2026-08-16T00:58:33.000Z</time></trkpt>
        <trkpt lat="28.165152" lon="105.791499"><ele>1214.8292</ele><time>2026-08-16T00:58:35.000Z</time></trkpt>
        <trkpt lat="28.165132" lon="105.79149"><ele>1214.2961</ele><time>2026-08-16T00:58:37.000Z</time></trkpt>
        <trkpt lat="28.165113" lon="105.791478"><ele>1213.9819</ele><time>2026-08-16T00:58:39.000Z</time></trkpt>
        <trkpt lat="28.165091" lon="105.791465"><ele>1213.7662</ele><time>2026-08-16T00:58:41.000Z</time></trkpt>
        <trkpt lat="28.165074" lon="105.791453"><ele>1214.3776</ele><time>2026-08-16T00:58:43.000Z</time></trkpt>
        <trkpt lat="28.165058" lon="105.791437"><ele>1213.9458</ele><time>2026-08-16T00:58:45.000Z</time></trkpt>
        <trkpt lat="28.165041" lon="105.791419"><ele>1212.2365</ele><time>2026-08-16T00:58:47.000Z</time></trkpt>
        <trkpt lat="28.165023" lon="105.791402"><ele>1211.606</ele><time>2026-08-16T00:58:49.000Z</time></trkpt>
        <trkpt lat="28.165006" lon="105.791387"><ele>1210.1936</ele><time>2026-08-16T00:58:51.000Z</time></trkpt>
        <trkpt lat="28.164987" lon="105.791371"><ele>1208.8699</ele><time>2026-08-16T00:58:53.000Z</time></trkpt>
        <trkpt lat="28.164968" lon="105.791359"><ele>1208.0006</ele><time>2026-08-16T00:58:55.000Z</time></trkpt>
        <trkpt lat="28.164951" lon="105.79135"><ele>1207.3807</ele><time>2026-08-16T00:58:57.000Z</time></trkpt>
        <trkpt lat="28.164932" lon="105.79134"><ele>1206.5457</ele><time>2026-08-16T00:58:59.000Z</time></trkpt>
        <trkpt lat="28.16491" lon="105.791328"><ele>1206.6643</ele><time>2026-08-16T00:59:01.000Z</time></trkpt>
        <trkpt lat="28.164889" lon="105.791316"><ele>1206.5011</ele><time>2026-08-16T00:59:03.000Z</time></trkpt>
        <trkpt lat="28.164865" lon="105.791304"><ele>1206.503</ele><time>2026-08-16T00:59:05.000Z</time></trkpt>
        <trkpt lat="28.164842" lon="105.791296"><ele>1206.6464</ele><time>2026-08-16T00:59:07.000Z</time></trkpt>
        <trkpt lat="28.164823" lon="105.791289"><ele>1206.7545</ele><time>2026-08-16T00:59:09.000Z</time></trkpt>
        <trkpt lat="28.164802" lon="105.791282"><ele>1205.8506</ele><time>2026-08-16T00:59:11.000Z</time></trkpt>
        <trkpt lat="28.16478" lon="105.791278"><ele>1205.2122</ele><time>2026-08-16T00:59:13.000Z</time></trkpt>
        <trkpt lat="28.164756" lon="105.791277"><ele>1204.5967</ele><time>2026-08-16T00:59:15.000Z</time></trkpt>
        <trkpt lat="28.164733" lon="105.791278"><ele>1204.1061</ele><time>2026-08-16T00:59:17.000Z</time></trkpt>
        <trkpt lat="28.164709" lon="105.791281"><ele>1204.1128</ele><time>2026-08-16T00:59:19.000Z</time></trkpt>
        <trkpt lat="28.164686" lon="105.791287"><ele>1204.3965</ele><time>2026-08-16T00:59:21.000Z</time></trkpt>
        <trkpt lat="28.164662" lon="105.791294"><ele>1204.9865</ele><time>2026-08-16T00:59:23.000Z</time></trkpt>
        <trkpt lat="28.164637" lon="105.791303"><ele>1203.8381</ele><time>2026-08-16T00:59:25.000Z</time></trkpt>
        <trkpt lat="28.164612" lon="105.791317"><ele>1203.5524</ele><time>2026-08-16T00:59:27.000Z</time></trkpt>
        <trkpt lat="28.164591" lon="105.791335"><ele>1203.1963</ele><time>2026-08-16T00:59:29.000Z</time></trkpt>
        <trkpt lat="28.164568" lon="105.791359"><ele>1204.1724</ele><time>2026-08-16T00:59:31.000Z</time></trkpt>
        <trkpt lat="28.164548" lon="105.791382"><ele>1203.4075</ele><time>2026-08-16T00:59:33.000Z</time></trkpt>
        <trkpt lat="28.16453" lon="105.791404"><ele>1203.3102</ele><time>2026-08-16T00:59:35.000Z</time></trkpt>
        <trkpt lat="28.164517" lon="105.791422"><ele>1202.9841</ele><time>2026-08-16T00:59:37.000Z</time></trkpt>
        <trkpt lat="28.164507" lon="105.791441"><ele>1202.6073</ele><time>2026-08-16T00:59:39.000Z</time></trkpt>
        <trkpt lat="28.164497" lon="105.791462"><ele>1202.406</ele><time>2026-08-16T00:59:41.000Z</time></trkpt>
        <trkpt lat="28.164487" lon="105.791484"><ele>1202.2554</ele><time>2026-08-16T00:59:43.000Z</time></trkpt>
        <trkpt lat="28.164477" lon="105.791506"><ele>1202.1683</ele><time>2026-08-16T00:59:45.000Z</time></trkpt>
        <trkpt lat="28.164467" lon="105.791529"><ele>1202.1528</ele><time>2026-08-16T00:59:47.000Z</time></trkpt>
        <trkpt lat="28.164455" lon="105.791554"><ele>1201.5227</ele><time>2026-08-16T00:59:49.000Z</time></trkpt>
        <trkpt lat="28.164444" lon="105.79158"><ele>1201.7769</ele><time>2026-08-16T00:59:51.000Z</time></trkpt>
        <trkpt lat="28.164433" lon="105.791603"><ele>1201.9673</ele><time>2026-08-16T00:59:53.000Z</time></trkpt>
        <trkpt lat="28.164422" lon="105.791627"><ele>1201.6971</ele><time>2026-08-16T00:59:55.000Z</time></trkpt>
        <trkpt lat="28.164409" lon="105.79165"><ele>1201.1975</ele><time>2026-08-16T00:59:57.000Z</time></trkpt>
        <trkpt lat="28.164395" lon="105.791675"><ele>1203.5759</ele><time>2026-08-16T00:59:59.000Z</time></trkpt>
        <trkpt lat="28.164381" lon="105.7917"><ele>1204.231</ele><time>2026-08-16T01:00:01.000Z</time></trkpt>
        <trkpt lat="28.164367" lon="105.791726"><ele>1205.3192</ele><time>2026-08-16T01:00:03.000Z</time></trkpt>
        <trkpt lat="28.164353" lon="105.791751"><ele>1205.8473</ele><time>2026-08-16T01:00:05.000Z</time></trkpt>
        <trkpt lat="28.164338" lon="105.791778"><ele>1206.5712</ele><time>2026-08-16T01:00:07.000Z</time></trkpt>
        <trkpt lat="28.164324" lon="105.791801"><ele>1207.3358</ele><time>2026-08-16T01:00:09.000Z</time></trkpt>
        <trkpt lat="28.16431" lon="105.791822"><ele>1207.0923</ele><time>2026-08-16T01:00:11.000Z</time></trkpt>
        <trkpt lat="28.164297" lon="105.791841"><ele>1208.2644</ele><time>2026-08-16T01:00:13.000Z</time></trkpt>
        <trkpt lat="28.164284" lon="105.791859"><ele>1208.5203</ele><time>2026-08-16T01:00:15.000Z</time></trkpt>
        <trkpt lat="28.164272" lon="105.791878"><ele>1207.9331</ele><time>2026-08-16T01:00:17.000Z</time></trkpt>
        <trkpt lat="28.164261" lon="105.791898"><ele>1209.125</ele><time>2026-08-16T01:00:19.000Z</time></trkpt>
        <trkpt lat="28.164249" lon="105.79192"><ele>1209.3767</ele><time>2026-08-16T01:00:21.000Z</time></trkpt>
        <trkpt lat="28.164238" lon="105.79194"><ele>1210.02</ele><time>2026-08-16T01:00:23.000Z</time></trkpt>
        <trkpt lat="28.164226" lon="105.79196"><ele>1209.7437</ele><time>2026-08-16T01:00:25.000Z</time></trkpt>
        <trkpt lat="28.164213" lon="105.791978"><ele>1210.0604</ele><time>2026-08-16T01:00:27.000Z</time></trkpt>
        <trkpt lat="28.1642" lon="105.791995"><ele>1210.9568</ele><time>2026-08-16T01:00:29.000Z</time></trkpt>
        <trkpt lat="28.164184" lon="105.792012"><ele>1211.0101</ele><time>2026-08-16T01:00:31.000Z</time></trkpt>
        <trkpt lat="28.164165" lon="105.79203"><ele>1211.7083</ele><time>2026-08-16T01:00:33.000Z</time></trkpt>
        <trkpt lat="28.164146" lon="105.79205"><ele>1212.0034</ele><time>2026-08-16T01:00:35.000Z</time></trkpt>
        <trkpt lat="28.16413" lon="105.792068"><ele>1212.4033</ele><time>2026-08-16T01:00:37.000Z</time></trkpt>
        <trkpt lat="28.164116" lon="105.792084"><ele>1212.9348</ele><time>2026-08-16T01:00:39.000Z</time></trkpt>
        <trkpt lat="28.1641" lon="105.7921"><ele>1213.314</ele><time>2026-08-16T01:00:41.000Z</time></trkpt>
        <trkpt lat="28.164082" lon="105.792117"><ele>1213.4832</ele><time>2026-08-16T01:00:43.000Z</time></trkpt>
        <trkpt lat="28.164064" lon="105.79213"><ele>1214.0662</ele><time>2026-08-16T01:00:45.000Z</time></trkpt>
        <trkpt lat="28.164046" lon="105.792139"><ele>1214.2944</ele><time>2026-08-16T01:00:47.000Z</time></trkpt>
        <trkpt lat="28.164025" lon="105.792149"><ele>1214.53</ele><time>2026-08-16T01:00:49.000Z</time></trkpt>
        <trkpt lat="28.164002" lon="105.79216"><ele>1215.2985</ele><time>2026-08-16T01:00:51.000Z</time></trkpt>
        <trkpt lat="28.163979" lon="105.79217"><ele>1216.5172</ele><time>2026-08-16T01:00:53.000Z</time></trkpt>
        <trkpt lat="28.163956" lon="105.792179"><ele>1216.9839</ele><time>2026-08-16T01:00:55.000Z</time></trkpt>
        <trkpt lat="28.163933" lon="105.792191"><ele>1218.0122</ele><time>2026-08-16T01:00:57.000Z</time></trkpt>
        <trkpt lat="28.163914" lon="105.792202"><ele>1218.1393</ele><time>2026-08-16T01:00:59.000Z</time></trkpt>
        <trkpt lat="28.163893" lon="105.792214"><ele>1218.8264</ele><time>2026-08-16T01:01:01.000Z</time></trkpt>
        <trkpt lat="28.163873" lon="105.792226"><ele>1219.0837</ele><time>2026-08-16T01:01:03.000Z</time></trkpt>
        <trkpt lat="28.163853" lon="105.792237"><ele>1218.8164</ele><time>2026-08-16T01:01:05.000Z</time></trkpt>
        <trkpt lat="28.163832" lon="105.792244"><ele>1218.5549</ele><time>2026-08-16T01:01:07.000Z</time></trkpt>
        <trkpt lat="28.163807" lon="105.79225"><ele>1218.5663</ele><time>2026-08-16T01:01:09.000Z</time></trkpt>
        <trkpt lat="28.163783" lon="105.792254"><ele>1218.319</ele><time>2026-08-16T01:01:11.000Z</time></trkpt>
        <trkpt lat="28.163758" lon="105.792258"><ele>1218.3464</ele><time>2026-08-16T01:01:13.000Z</time></trkpt>
        <trkpt lat="28.163735" lon="105.792261"><ele>1217.9016</ele><time>2026-08-16T01:01:15.000Z</time></trkpt>
        <trkpt lat="28.163712" lon="105.792264"><ele>1218.0876</ele><time>2026-08-16T01:01:17.000Z</time></trkpt>
        <trkpt lat="28.163691" lon="105.792267"><ele>1218.1173</ele><time>2026-08-16T01:01:19.000Z</time></trkpt>
        <trkpt lat="28.16367" lon="105.792271"><ele>1218.7767</ele><time>2026-08-16T01:01:21.000Z</time></trkpt>
        <trkpt lat="28.163649" lon="105.792275"><ele>1219.1389</ele><time>2026-08-16T01:01:23.000Z</time></trkpt>
        <trkpt lat="28.163625" lon="105.792278"><ele>1220.0251</ele><time>2026-08-16T01:01:25.000Z</time></trkpt>
        <trkpt lat="28.1636" lon="105.792279"><ele>1220.5077</ele><time>2026-08-16T01:01:27.000Z</time></trkpt>
        <trkpt lat="28.163576" lon="105.792277"><ele>1220.7964</ele><time>2026-08-16T01:01:29.000Z</time></trkpt>
        <trkpt lat="28.163553" lon="105.792272"><ele>1220.7644</ele><time>2026-08-16T01:01:31.000Z</time></trkpt>
        <trkpt lat="28.163531" lon="105.792265"><ele>1221.1196</ele><time>2026-08-16T01:01:33.000Z</time></trkpt>
        <trkpt lat="28.163512" lon="105.792255"><ele>1220.5518</ele><time>2026-08-16T01:01:35.000Z</time></trkpt>
        <trkpt lat="28.163497" lon="105.792243"><ele>1220.6055</ele><time>2026-08-16T01:01:37.000Z</time></trkpt>
        <trkpt lat="28.163481" lon="105.792227"><ele>1221.0043</ele><time>2026-08-16T01:01:39.000Z</time></trkpt>
        <trkpt lat="28.16347" lon="105.79221"><ele>1220.3247</ele><time>2026-08-16T01:01:41.000Z</time></trkpt>
        <trkpt lat="28.16346" lon="105.792191"><ele>1220.1746</ele><time>2026-08-16T01:01:43.000Z</time></trkpt>
        <trkpt lat="28.163452" lon="105.792176"><ele>1219.5638</ele><time>2026-08-16T01:01:45.000Z</time></trkpt>
        <trkpt lat="28.163443" lon="105.79216"><ele>1220.0422</ele><time>2026-08-16T01:01:47.000Z</time></trkpt>
        <trkpt lat="28.163432" lon="105.792142"><ele>1220.2112</ele><time>2026-08-16T01:01:49.000Z</time></trkpt>
        <trkpt lat="28.163424" lon="105.792124"><ele>1219.6514</ele><time>2026-08-16T01:01:51.000Z</time></trkpt>
        <trkpt lat="28.163417" lon="105.792102"><ele>1218.5624</ele><time>2026-08-16T01:01:53.000Z</time></trkpt>
        <trkpt lat="28.16341" lon="105.792076"><ele>1219.0264</ele><time>2026-08-16T01:01:55.000Z</time></trkpt>
        <trkpt lat="28.163407" lon="105.79205"><ele>1217.8752</ele><time>2026-08-16T01:01:57.000Z</time></trkpt>
        <trkpt lat="28.163404" lon="105.792024"><ele>1217.577</ele><time>2026-08-16T01:01:59.000Z</time></trkpt>
        <trkpt lat="28.1634" lon="105.791998"><ele>1217.5128</ele><time>2026-08-16T01:02:01.000Z</time></trkpt>
        <trkpt lat="28.163397" lon="105.791972"><ele>1217.5009</ele><time>2026-08-16T01:02:03.000Z</time></trkpt>
        <trkpt lat="28.163391" lon="105.791951"><ele>1216.5498</ele><time>2026-08-16T01:02:05.000Z</time></trkpt>
        <trkpt lat="28.163384" lon="105.79193"><ele>1216.8445</ele><time>2026-08-16T01:02:07.000Z</time></trkpt>
        <trkpt lat="28.163378" lon="105.791909"><ele>1216.444</ele><time>2026-08-16T01:02:09.000Z</time></trkpt>
        <trkpt lat="28.163372" lon="105.791889"><ele>1216.2076</ele><time>2026-08-16T01:02:11.000Z</time></trkpt>
        <trkpt lat="28.163369" lon="105.791868"><ele>1216.263</ele><time>2026-08-16T01:02:13.000Z</time></trkpt>
        <trkpt lat="28.163365" lon="105.791845"><ele>1216.8252</ele><time>2026-08-16T01:02:15.000Z</time></trkpt>
        <trkpt lat="28.163362" lon="105.791821"><ele>1217.4037</ele><time>2026-08-16T01:02:17.000Z</time></trkpt>
        <trkpt lat="28.163357" lon="105.791797"><ele>1217.2155</ele><time>2026-08-16T01:02:19.000Z</time></trkpt>
        <trkpt lat="28.163353" lon="105.791779"><ele>1217.1211</ele><time>2026-08-16T01:02:21.000Z</time></trkpt>
        <trkpt lat="28.163349" lon="105.791761"><ele>1216.6896</ele><time>2026-08-16T01:02:23.000Z</time></trkpt>
        <trkpt lat="28.163346" lon="105.791742"><ele>1217.5939</ele><time>2026-08-16T01:02:25.000Z</time></trkpt>
        <trkpt lat="28.163342" lon="105.791719"><ele>1215.9199</ele><time>2026-08-16T01:02:27.000Z</time></trkpt>
        <trkpt lat="28.163337" lon="105.791695"><ele>1215.5176</ele><time>2026-08-16T01:02:29.000Z</time></trkpt>
        <trkpt lat="28.163335" lon="105.791671"><ele>1213.9884</ele><time>2026-08-16T01:02:31.000Z</time></trkpt>
        <trkpt lat="28.163333" lon="105.791645"><ele>1214.1613</ele><time>2026-08-16T01:02:33.000Z</time></trkpt>
        <trkpt lat="28.163333" lon="105.79162"><ele>1212.7095</ele><time>2026-08-16T01:02:35.000Z</time></trkpt>
        <trkpt lat="28.163333" lon="105.791597"><ele>1214.3</ele><time>2026-08-16T01:02:37.000Z</time></trkpt>
        <trkpt lat="28.163334" lon="105.791575"><ele>1214.6776</ele><time>2026-08-16T01:02:39.000Z</time></trkpt>
        <trkpt lat="28.163335" lon="105.791553"><ele>1214.9802</ele><time>2026-08-16T01:02:41.000Z</time></trkpt>
        <trkpt lat="28.163336" lon="105.791528"><ele>1214.2584</ele><time>2026-08-16T01:02:43.000Z</time></trkpt>
        <trkpt lat="28.163335" lon="105.791501"><ele>1213.578</ele><time>2026-08-16T01:02:45.000Z</time></trkpt>
        <trkpt lat="28.163332" lon="105.791473"><ele>1213.9508</ele><time>2026-08-16T01:02:47.000Z</time></trkpt>
        <trkpt lat="28.163329" lon="105.791445"><ele>1214.4291</ele><time>2026-08-16T01:02:49.000Z</time></trkpt>
        <trkpt lat="28.163325" lon="105.791418"><ele>1214.9283</ele><time>2026-08-16T01:02:51.000Z</time></trkpt>
        <trkpt lat="28.163319" lon="105.79139"><ele>1215.9465</ele><time>2026-08-16T01:02:53.000Z</time></trkpt>
        <trkpt lat="28.163314" lon="105.791365"><ele>1216.281</ele><time>2026-08-16T01:02:55.000Z</time></trkpt>
        <trkpt lat="28.163309" lon="105.791342"><ele>1216.8542</ele><time>2026-08-16T01:02:57.000Z</time></trkpt>
        <trkpt lat="28.163305" lon="105.79132"><ele>1217.11</ele><time>2026-08-16T01:02:59.000Z</time></trkpt>
        <trkpt lat="28.163303" lon="105.7913"><ele>1217.8091</ele><time>2026-08-16T01:03:01.000Z</time></trkpt>
        <trkpt lat="28.163303" lon="105.791279"><ele>1218.4493</ele><time>2026-08-16T01:03:03.000Z</time></trkpt>
        <trkpt lat="28.163303" lon="105.791259"><ele>1218.6124</ele><time>2026-08-16T01:03:05.000Z</time></trkpt>
        <trkpt lat="28.163303" lon="105.791243"><ele>1219.5688</ele><time>2026-08-16T01:03:07.000Z</time></trkpt>
        <trkpt lat="28.163303" lon="105.791228"><ele>1219.822</ele><time>2026-08-16T01:03:09.000Z</time></trkpt>
        <trkpt lat="28.163303" lon="105.791213"><ele>1219.6663</ele><time>2026-08-16T01:03:11.000Z</time></trkpt>
        <trkpt lat="28.163304" lon="105.791197"><ele>1221.1207</ele><time>2026-08-16T01:03:13.000Z</time></trkpt>
        <trkpt lat="28.163304" lon="105.791179"><ele>1220.9928</ele><time>2026-08-16T01:03:15.000Z</time></trkpt>
        <trkpt lat="28.163304" lon="105.791161"><ele>1220.6215</ele><time>2026-08-16T01:03:17.000Z</time></trkpt>
        <trkpt lat="28.163304" lon="105.791143"><ele>1220.4259</ele><time>2026-08-16T01:03:19.000Z</time></trkpt>
        <trkpt lat="28.163302" lon="105.791122"><ele>1221.0801</ele><time>2026-08-16T01:03:21.000Z</time></trkpt>
        <trkpt lat="28.163299" lon="105.791103"><ele>1221.56</ele><time>2026-08-16T01:03:23.000Z</time></trkpt>
        <trkpt lat="28.163296" lon="105.791085"><ele>1221.7861</ele><time>2026-08-16T01:03:25.000Z</time></trkpt>
        <trkpt lat="28.163291" lon="105.791066"><ele>1221.4918</ele><time>2026-08-16T01:03:27.000Z</time></trkpt>
        <trkpt lat="28.163286" lon="105.79105"><ele>1222.174</ele><time>2026-08-16T01:03:29.000Z</time></trkpt>
        <trkpt lat="28.163283" lon="105.791032"><ele>1222.5344</ele><time>2026-08-16T01:03:31.000Z</time></trkpt>
        <trkpt lat="28.16328" lon="105.79101"><ele>1222.945</ele><time>2026-08-16T01:03:33.000Z</time></trkpt>
        <trkpt lat="28.163277" lon="105.790989"><ele>1222.0726</ele><time>2026-08-16T01:03:35.000Z</time></trkpt>
        <trkpt lat="28.163275" lon="105.790965"><ele>1221.9772</ele><time>2026-08-16T01:03:37.000Z</time></trkpt>
        <trkpt lat="28.163275" lon="105.790944"><ele>1221.8645</ele><time>2026-08-16T01:03:39.000Z</time></trkpt>
        <trkpt lat="28.163274" lon="105.790922"><ele>1221.7495</ele><time>2026-08-16T01:03:41.000Z</time></trkpt>
        <trkpt lat="28.163268" lon="105.790898"><ele>1221.94</ele><time>2026-08-16T01:03:43.000Z</time></trkpt>
        <trkpt lat="28.16326" lon="105.790867"><ele>1222.7823</ele><time>2026-08-16T01:03:45.000Z</time></trkpt>
        <trkpt lat="28.163249" lon="105.790835"><ele>1222.9949</ele><time>2026-08-16T01:03:47.000Z</time></trkpt>
        <trkpt lat="28.163236" lon="105.790803"><ele>1223.8555</ele><time>2026-08-16T01:03:49.000Z</time></trkpt>
        <trkpt lat="28.163223" lon="105.790776"><ele>1225.6776</ele><time>2026-08-16T01:03:51.000Z</time></trkpt>
        <trkpt lat="28.163207" lon="105.790755"><ele>1227.0466</ele><time>2026-08-16T01:03:53.000Z</time></trkpt>
        <trkpt lat="28.163188" lon="105.790733"><ele>1228.8594</ele><time>2026-08-16T01:03:55.000Z</time></trkpt>
        <trkpt lat="28.163172" lon="105.790714"><ele>1229.6759</ele><time>2026-08-16T01:03:57.000Z</time></trkpt>
        <trkpt lat="28.163157" lon="105.790694"><ele>1230.6135</ele><time>2026-08-16T01:03:59.000Z</time></trkpt>
        <trkpt lat="28.163143" lon="105.790675"><ele>1231.0071</ele><time>2026-08-16T01:04:01.000Z</time></trkpt>
        <trkpt lat="28.16313" lon="105.790655"><ele>1231.733</ele><time>2026-08-16T01:04:03.000Z</time></trkpt>
        <trkpt lat="28.163118" lon="105.790636"><ele>1231.801</ele><time>2026-08-16T01:04:05.000Z</time></trkpt>
        <trkpt lat="28.163106" lon="105.79062"><ele>1231.267</ele><time>2026-08-16T01:04:07.000Z</time></trkpt>
        <trkpt lat="28.163091" lon="105.790595"><ele>1232.9547</ele><time>2026-08-16T01:04:09.000Z</time></trkpt>
        <trkpt lat="28.163077" lon="105.79057"><ele>1233.3855</ele><time>2026-08-16T01:04:11.000Z</time></trkpt>
        <trkpt lat="28.163065" lon="105.790544"><ele>1233.034</ele><time>2026-08-16T01:04:13.000Z</time></trkpt>
        <trkpt lat="28.163052" lon="105.790516"><ele>1233.0392</ele><time>2026-08-16T01:04:15.000Z</time></trkpt>
        <trkpt lat="28.163036" lon="105.790489"><ele>1232.9413</ele><time>2026-08-16T01:04:17.000Z</time></trkpt>
        <trkpt lat="28.163023" lon="105.790471"><ele>1232.5787</ele><time>2026-08-16T01:04:19.000Z</time></trkpt>
        <trkpt lat="28.163012" lon="105.790455"><ele>1233.4537</ele><time>2026-08-16T01:04:21.000Z</time></trkpt>
        <trkpt lat="28.163003" lon="105.790448"><ele>1234.2646</ele><time>2026-08-16T01:04:23.000Z</time></trkpt>
        <trkpt lat="28.162992" lon="105.790451"><ele>1233.5281</ele><time>2026-08-16T01:04:25.000Z</time></trkpt>
        <trkpt lat="28.163042" lon="105.790436"><ele>1227.7668</ele><time>2026-08-16T01:04:41.000Z</time></trkpt>
        <trkpt lat="28.163043" lon="105.790436"><ele>1227.9524</ele><time>2026-08-16T01:04:43.000Z</time></trkpt>
        <trkpt lat="28.163045" lon="105.790437"><ele>1227.6838</ele><time>2026-08-16T01:04:45.000Z</time></trkpt>
        <trkpt lat="28.163013" lon="105.790415"><ele>1226.0468</ele><time>2026-08-16T01:04:59.000Z</time></trkpt>
        <trkpt lat="28.162993" lon="105.790401"><ele>1226.1122</ele><time>2026-08-16T01:05:01.000Z</time></trkpt>
        <trkpt lat="28.162992" lon="105.790399"><ele>1226.7501</ele><time>2026-08-16T01:05:03.000Z</time></trkpt>
        <trkpt lat="28.162977" lon="105.790384"><ele>1227.2753</ele><time>2026-08-16T01:05:07.000Z</time></trkpt>
        <trkpt lat="28.16296" lon="105.790363"><ele>1226.8624</ele><time>2026-08-16T01:05:09.000Z</time></trkpt>
        <trkpt lat="28.162935" lon="105.790336"><ele>1224.8251</ele><time>2026-08-16T01:05:11.000Z</time></trkpt>
        <trkpt lat="28.162913" lon="105.790314"><ele>1224.4152</ele><time>2026-08-16T01:05:13.000Z</time></trkpt>
        <trkpt lat="28.162894" lon="105.790296"><ele>1224.2386</ele><time>2026-08-16T01:05:15.000Z</time></trkpt>
        <trkpt lat="28.162876" lon="105.790278"><ele>1223.3453</ele><time>2026-08-16T01:05:17.000Z</time></trkpt>
        <trkpt lat="28.162858" lon="105.790262"><ele>1222.7744</ele><time>2026-08-16T01:05:19.000Z</time></trkpt>
        <trkpt lat="28.162841" lon="105.790247"><ele>1221.96</ele><time>2026-08-16T01:05:21.000Z</time></trkpt>
        <trkpt lat="28.162824" lon="105.790233"><ele>1222.0854</ele><time>2026-08-16T01:05:23.000Z</time></trkpt>
        <trkpt lat="28.162808" lon="105.790222"><ele>1220.792</ele><time>2026-08-16T01:05:25.000Z</time></trkpt>
        <trkpt lat="28.162792" lon="105.790212"><ele>1220.1984</ele><time>2026-08-16T01:05:27.000Z</time></trkpt>
        <trkpt lat="28.162772" lon="105.790202"><ele>1220.0907</ele><time>2026-08-16T01:05:29.000Z</time></trkpt>
        <trkpt lat="28.16275" lon="105.790193"><ele>1218.9065</ele><time>2026-08-16T01:05:31.000Z</time></trkpt>
        <trkpt lat="28.162726" lon="105.790185"><ele>1218.168</ele><time>2026-08-16T01:05:33.000Z</time></trkpt>
        <trkpt lat="28.162702" lon="105.790178"><ele>1217.745</ele><time>2026-08-16T01:05:35.000Z</time></trkpt>
        <trkpt lat="28.16268" lon="105.790169"><ele>1217.1029</ele><time>2026-08-16T01:05:37.000Z</time></trkpt>
        <trkpt lat="28.162658" lon="105.790159"><ele>1217.4646</ele><time>2026-08-16T01:05:39.000Z</time></trkpt>
        <trkpt lat="28.162636" lon="105.790149"><ele>1218.0776</ele><time>2026-08-16T01:05:41.000Z</time></trkpt>
        <trkpt lat="28.162614" lon="105.79014"><ele>1216.9867</ele><time>2026-08-16T01:05:43.000Z</time></trkpt>
        <trkpt lat="28.162594" lon="105.790131"><ele>1217.0371</ele><time>2026-08-16T01:05:45.000Z</time></trkpt>
        <trkpt lat="28.162573" lon="105.790122"><ele>1218.2255</ele><time>2026-08-16T01:05:47.000Z</time></trkpt>
        <trkpt lat="28.16255" lon="105.790114"><ele>1217.3715</ele><time>2026-08-16T01:05:49.000Z</time></trkpt>
        <trkpt lat="28.16253" lon="105.790106"><ele>1217.7378</ele><time>2026-08-16T01:05:51.000Z</time></trkpt>
        <trkpt lat="28.162509" lon="105.790099"><ele>1216.9877</ele><time>2026-08-16T01:05:53.000Z</time></trkpt>
        <trkpt lat="28.162491" lon="105.790091"><ele>1216.5908</ele><time>2026-08-16T01:05:55.000Z</time></trkpt>
        <trkpt lat="28.162472" lon="105.790083"><ele>1216.9921</ele><time>2026-08-16T01:05:57.000Z</time></trkpt>
        <trkpt lat="28.162454" lon="105.790075"><ele>1216.4946</ele><time>2026-08-16T01:05:59.000Z</time></trkpt>
        <trkpt lat="28.162434" lon="105.790067"><ele>1216.911</ele><time>2026-08-16T01:06:01.000Z</time></trkpt>
        <trkpt lat="28.162414" lon="105.790058"><ele>1216.7552</ele><time>2026-08-16T01:06:03.000Z</time></trkpt>
        <trkpt lat="28.162395" lon="105.790049"><ele>1217.613</ele><time>2026-08-16T01:06:05.000Z</time></trkpt>
        <trkpt lat="28.162379" lon="105.790039"><ele>1218.1313</ele><time>2026-08-16T01:06:07.000Z</time></trkpt>
        <trkpt lat="28.162362" lon="105.79003"><ele>1218.3116</ele><time>2026-08-16T01:06:09.000Z</time></trkpt>
        <trkpt lat="28.162346" lon="105.790024"><ele>1218.3833</ele><time>2026-08-16T01:06:11.000Z</time></trkpt>
        <trkpt lat="28.162329" lon="105.790021"><ele>1219.0446</ele><time>2026-08-16T01:06:13.000Z</time></trkpt>
        <trkpt lat="28.162311" lon="105.790021"><ele>1219.177</ele><time>2026-08-16T01:06:15.000Z</time></trkpt>
        <trkpt lat="28.162298" lon="105.790019"><ele>1220.3634</ele><time>2026-08-16T01:06:17.000Z</time></trkpt>
        <trkpt lat="28.162285" lon="105.790015"><ele>1220.7661</ele><time>2026-08-16T01:06:19.000Z</time></trkpt>
        <trkpt lat="28.162273" lon="105.79001"><ele>1220.7207</ele><time>2026-08-16T01:06:21.000Z</time></trkpt>
        <trkpt lat="28.162259" lon="105.790002"><ele>1222.9987</ele><time>2026-08-16T01:06:23.000Z</time></trkpt>
        <trkpt lat="28.162244" lon="105.789992"><ele>1222.6442</ele><time>2026-08-16T01:06:25.000Z</time></trkpt>
        <trkpt lat="28.162226" lon="105.789978"><ele>1222.3318</ele><time>2026-08-16T01:06:27.000Z</time></trkpt>
        <trkpt lat="28.162206" lon="105.789961"><ele>1222.2166</ele><time>2026-08-16T01:06:29.000Z</time></trkpt>
        <trkpt lat="28.162188" lon="105.78994"><ele>1221.6106</ele><time>2026-08-16T01:06:31.000Z</time></trkpt>
        <trkpt lat="28.162177" lon="105.789918"><ele>1220.4088</ele><time>2026-08-16T01:06:33.000Z</time></trkpt>
        <trkpt lat="28.162169" lon="105.789889"><ele>1218.7554</ele><time>2026-08-16T01:06:35.000Z</time></trkpt>
        <trkpt lat="28.162165" lon="105.78986"><ele>1219.1056</ele><time>2026-08-16T01:06:37.000Z</time></trkpt>
        <trkpt lat="28.162164" lon="105.789834"><ele>1219.0719</ele><time>2026-08-16T01:06:39.000Z</time></trkpt>
        <trkpt lat="28.162166" lon="105.789809"><ele>1219.0723</ele><time>2026-08-16T01:06:41.000Z</time></trkpt>
        <trkpt lat="28.162168" lon="105.789781"><ele>1218.7906</ele><time>2026-08-16T01:06:43.000Z</time></trkpt>
        <trkpt lat="28.162168" lon="105.789754"><ele>1219.3218</ele><time>2026-08-16T01:06:45.000Z</time></trkpt>
        <trkpt lat="28.162166" lon="105.78973"><ele>1219.3542</ele><time>2026-08-16T01:06:47.000Z</time></trkpt>
        <trkpt lat="28.162165" lon="105.789706"><ele>1219.6665</ele><time>2026-08-16T01:06:49.000Z</time></trkpt>
        <trkpt lat="28.162165" lon="105.789685"><ele>1219.782</ele><time>2026-08-16T01:06:51.000Z</time></trkpt>
        <trkpt lat="28.162167" lon="105.789663"><ele>1220.4282</ele><time>2026-08-16T01:06:53.000Z</time></trkpt>
        <trkpt lat="28.162169" lon="105.789642"><ele>1220.2705</ele><time>2026-08-16T01:06:55.000Z</time></trkpt>
        <trkpt lat="28.162171" lon="105.789618"><ele>1221.358</ele><time>2026-08-16T01:06:57.000Z</time></trkpt>
        <trkpt lat="28.162174" lon="105.789596"><ele>1221.586</ele><time>2026-08-16T01:06:59.000Z</time></trkpt>
        <trkpt lat="28.162177" lon="105.789578"><ele>1221.4332</ele><time>2026-08-16T01:07:01.000Z</time></trkpt>
        <trkpt lat="28.162179" lon="105.789554"><ele>1220.9713</ele><time>2026-08-16T01:07:03.000Z</time></trkpt>
        <trkpt lat="28.162181" lon="105.789529"><ele>1221.0801</ele><time>2026-08-16T01:07:05.000Z</time></trkpt>
        <trkpt lat="28.162182" lon="105.789507"><ele>1221.0161</ele><time>2026-08-16T01:07:07.000Z</time></trkpt>
        <trkpt lat="28.162182" lon="105.789482"><ele>1221.9856</ele><time>2026-08-16T01:07:09.000Z</time></trkpt>
        <trkpt lat="28.162182" lon="105.789461"><ele>1222.7202</ele><time>2026-08-16T01:07:11.000Z</time></trkpt>
        <trkpt lat="28.162181" lon="105.789439"><ele>1223.4448</ele><time>2026-08-16T01:07:13.000Z</time></trkpt>
        <trkpt lat="28.162179" lon="105.789414"><ele>1222.6918</ele><time>2026-08-16T01:07:15.000Z</time></trkpt>
        <trkpt lat="28.162179" lon="105.789391"><ele>1223.595</ele><time>2026-08-16T01:07:17.000Z</time></trkpt>
        <trkpt lat="28.162178" lon="105.789367"><ele>1222.8982</ele><time>2026-08-16T01:07:19.000Z</time></trkpt>
        <trkpt lat="28.162177" lon="105.789349"><ele>1224.3871</ele><time>2026-08-16T01:07:21.000Z</time></trkpt>
        <trkpt lat="28.162175" lon="105.789329"><ele>1225.6772</ele><time>2026-08-16T01:07:23.000Z</time></trkpt>
        <trkpt lat="28.162173" lon="105.789311"><ele>1227.2559</ele><time>2026-08-16T01:07:25.000Z</time></trkpt>
        <trkpt lat="28.16217" lon="105.789292"><ele>1227.0913</ele><time>2026-08-16T01:07:27.000Z</time></trkpt>
        <trkpt lat="28.162167" lon="105.789275"><ele>1228.6846</ele><time>2026-08-16T01:07:29.000Z</time></trkpt>
        <trkpt lat="28.162165" lon="105.789256"><ele>1229.6305</ele><time>2026-08-16T01:07:31.000Z</time></trkpt>
        <trkpt lat="28.162162" lon="105.789236"><ele>1229.7269</ele><time>2026-08-16T01:07:33.000Z</time></trkpt>
        <trkpt lat="28.162158" lon="105.78922"><ele>1230.367</ele><time>2026-08-16T01:07:35.000Z</time></trkpt>
        <trkpt lat="28.162151" lon="105.789202"><ele>1230.27</ele><time>2026-08-16T01:07:37.000Z</time></trkpt>
        <trkpt lat="28.162141" lon="105.789179"><ele>1230.5116</ele><time>2026-08-16T01:07:39.000Z</time></trkpt>
        <trkpt lat="28.16213" lon="105.789154"><ele>1231.1267</ele><time>2026-08-16T01:07:41.000Z</time></trkpt>
        <trkpt lat="28.16212" lon="105.789129"><ele>1231.3003</ele><time>2026-08-16T01:07:43.000Z</time></trkpt>
        <trkpt lat="28.162112" lon="105.789103"><ele>1231.874</ele><time>2026-08-16T01:07:45.000Z</time></trkpt>
        <trkpt lat="28.162104" lon="105.789079"><ele>1230.9553</ele><time>2026-08-16T01:07:47.000Z</time></trkpt>
        <trkpt lat="28.162098" lon="105.789055"><ele>1230.5715</ele><time>2026-08-16T01:07:49.000Z</time></trkpt>
        <trkpt lat="28.162093" lon="105.789033"><ele>1230.3864</ele><time>2026-08-16T01:07:51.000Z</time></trkpt>
        <trkpt lat="28.162088" lon="105.789012"><ele>1230.3566</ele><time>2026-08-16T01:07:53.000Z</time></trkpt>
        <trkpt lat="28.162082" lon="105.78899"><ele>1230.2214</ele><time>2026-08-16T01:07:55.000Z</time></trkpt>
        <trkpt lat="28.162076" lon="105.788964"><ele>1229.6116</ele><time>2026-08-16T01:07:57.000Z</time></trkpt>
        <trkpt lat="28.162071" lon="105.788942"><ele>1229.0017</ele><time>2026-08-16T01:07:59.000Z</time></trkpt>
        <trkpt lat="28.162065" lon="105.788922"><ele>1228.5437</ele><time>2026-08-16T01:08:01.000Z</time></trkpt>
        <trkpt lat="28.162062" lon="105.788908"><ele>1228.1736</ele><time>2026-08-16T01:08:03.000Z</time></trkpt>
        <trkpt lat="28.162059" lon="105.788896"><ele>1229.0234</ele><time>2026-08-16T01:08:05.000Z</time></trkpt>
        <trkpt lat="28.162056" lon="105.788881"><ele>1228.6694</ele><time>2026-08-16T01:08:07.000Z</time></trkpt>
        <trkpt lat="28.162053" lon="105.788863"><ele>1228.7354</ele><time>2026-08-16T01:08:09.000Z</time></trkpt>
        <trkpt lat="28.162049" lon="105.788838"><ele>1228.7175</ele><time>2026-08-16T01:08:11.000Z</time></trkpt>
        <trkpt lat="28.162044" lon="105.788812"><ele>1229.1918</ele><time>2026-08-16T01:08:13.000Z</time></trkpt>
        <trkpt lat="28.162037" lon="105.788788"><ele>1228.9403</ele><time>2026-08-16T01:08:15.000Z</time></trkpt>
        <trkpt lat="28.162034" lon="105.788774"><ele>1229.3682</ele><time>2026-08-16T01:08:17.000Z</time></trkpt>
        <trkpt lat="28.162034" lon="105.788765"><ele>1230.3695</ele><time>2026-08-16T01:08:19.000Z</time></trkpt>
        <trkpt lat="28.162035" lon="105.788765"><ele>1227.8667</ele><time>2026-08-16T01:08:37.000Z</time></trkpt>
        <trkpt lat="28.161997" lon="105.788758"><ele>1227.4434</ele><time>2026-08-16T01:08:56.000Z</time></trkpt>
        <trkpt lat="28.161986" lon="105.788749"><ele>1227.6758</ele><time>2026-08-16T01:08:58.000Z</time></trkpt>
        <trkpt lat="28.161968" lon="105.788733"><ele>1227.6316</ele><time>2026-08-16T01:09:00.000Z</time></trkpt>
        <trkpt lat="28.161967" lon="105.788731"><ele>1228.1082</ele><time>2026-08-16T01:09:02.000Z</time></trkpt>
        <trkpt lat="28.161959" lon="105.788719"><ele>1229.2815</ele><time>2026-08-16T01:09:06.000Z</time></trkpt>
        <trkpt lat="28.161949" lon="105.788701"><ele>1230.1343</ele><time>2026-08-16T01:09:08.000Z</time></trkpt>
        <trkpt lat="28.161935" lon="105.788677"><ele>1230.0818</ele><time>2026-08-16T01:09:10.000Z</time></trkpt>
        <trkpt lat="28.161921" lon="105.788651"><ele>1230.2407</ele><time>2026-08-16T01:09:12.000Z</time></trkpt>
        <trkpt lat="28.161908" lon="105.78863"><ele>1229.8224</ele><time>2026-08-16T01:09:14.000Z</time></trkpt>
        <trkpt lat="28.161898" lon="105.788609"><ele>1229.8589</ele><time>2026-08-16T01:09:16.000Z</time></trkpt>
        <trkpt lat="28.161888" lon="105.788587"><ele>1229.3611</ele><time>2026-08-16T01:09:18.000Z</time></trkpt>
        <trkpt lat="28.161881" lon="105.788566"><ele>1230.0664</ele><time>2026-08-16T01:09:20.000Z</time></trkpt>
        <trkpt lat="28.161875" lon="105.788547"><ele>1230.012</ele><time>2026-08-16T01:09:22.000Z</time></trkpt>
        <trkpt lat="28.161869" lon="105.788526"><ele>1230.6461</ele><time>2026-08-16T01:09:24.000Z</time></trkpt>
        <trkpt lat="28.161862" lon="105.788506"><ele>1230.8389</ele><time>2026-08-16T01:09:26.000Z</time></trkpt>
        <trkpt lat="28.161852" lon="105.788488"><ele>1230.7274</ele><time>2026-08-16T01:09:28.000Z</time></trkpt>
        <trkpt lat="28.161839" lon="105.788472"><ele>1230.417</ele><time>2026-08-16T01:09:30.000Z</time></trkpt>
        <trkpt lat="28.161823" lon="105.788455"><ele>1231.1443</ele><time>2026-08-16T01:09:32.000Z</time></trkpt>
        <trkpt lat="28.161809" lon="105.788436"><ele>1229.4319</ele><time>2026-08-16T01:09:34.000Z</time></trkpt>
        <trkpt lat="28.161796" lon="105.788413"><ele>1227.0414</ele><time>2026-08-16T01:09:36.000Z</time></trkpt>
        <trkpt lat="28.161783" lon="105.788389"><ele>1227.5498</ele><time>2026-08-16T01:09:38.000Z</time></trkpt>
        <trkpt lat="28.161772" lon="105.78837"><ele>1227.0082</ele><time>2026-08-16T01:09:40.000Z</time></trkpt>
        <trkpt lat="28.16176" lon="105.78835"><ele>1226.0016</ele><time>2026-08-16T01:09:42.000Z</time></trkpt>
        <trkpt lat="28.161745" lon="105.788329"><ele>1225.7487</ele><time>2026-08-16T01:09:44.000Z</time></trkpt>
        <trkpt lat="28.161732" lon="105.78831"><ele>1225.8672</ele><time>2026-08-16T01:09:46.000Z</time></trkpt>
        <trkpt lat="28.16172" lon="105.788293"><ele>1225.1718</ele><time>2026-08-16T01:09:48.000Z</time></trkpt>
        <trkpt lat="28.161708" lon="105.788277"><ele>1224.9747</ele><time>2026-08-16T01:09:50.000Z</time></trkpt>
        <trkpt lat="28.161695" lon="105.788263"><ele>1224.9343</ele><time>2026-08-16T01:09:52.000Z</time></trkpt>
        <trkpt lat="28.161685" lon="105.788252"><ele>1224.7391</ele><time>2026-08-16T01:09:54.000Z</time></trkpt>
        <trkpt lat="28.161676" lon="105.788238"><ele>1224.3323</ele><time>2026-08-16T01:09:56.000Z</time></trkpt>
        <trkpt lat="28.161666" lon="105.788219"><ele>1225.4023</ele><time>2026-08-16T01:09:58.000Z</time></trkpt>
        <trkpt lat="28.16166" lon="105.7882"><ele>1224.6382</ele><time>2026-08-16T01:10:00.000Z</time></trkpt>
        <trkpt lat="28.161652" lon="105.788174"><ele>1223.7637</ele><time>2026-08-16T01:10:02.000Z</time></trkpt>
        <trkpt lat="28.161644" lon="105.788149"><ele>1223.3826</ele><time>2026-08-16T01:10:04.000Z</time></trkpt>
        <trkpt lat="28.161635" lon="105.788122"><ele>1224.008</ele><time>2026-08-16T01:10:06.000Z</time></trkpt>
        <trkpt lat="28.161626" lon="105.788097"><ele>1223.8993</ele><time>2026-08-16T01:10:08.000Z</time></trkpt>
        <trkpt lat="28.161619" lon="105.788073"><ele>1223.9097</ele><time>2026-08-16T01:10:10.000Z</time></trkpt>
        <trkpt lat="28.161613" lon="105.788049"><ele>1224.1409</ele><time>2026-08-16T01:10:12.000Z</time></trkpt>
        <trkpt lat="28.161606" lon="105.788026"><ele>1224.4924</ele><time>2026-08-16T01:10:14.000Z</time></trkpt>
        <trkpt lat="28.161599" lon="105.788006"><ele>1225.5399</ele><time>2026-08-16T01:10:16.000Z</time></trkpt>
        <trkpt lat="28.161592" lon="105.787986"><ele>1225.4167</ele><time>2026-08-16T01:10:18.000Z</time></trkpt>
        <trkpt lat="28.161585" lon="105.787965"><ele>1225.2166</ele><time>2026-08-16T01:10:20.000Z</time></trkpt>
        <trkpt lat="28.161578" lon="105.787945"><ele>1225.4016</ele><time>2026-08-16T01:10:22.000Z</time></trkpt>
        <trkpt lat="28.16157" lon="105.787927"><ele>1226.05</ele><time>2026-08-16T01:10:24.000Z</time></trkpt>
        <trkpt lat="28.161563" lon="105.787907"><ele>1226.7079</ele><time>2026-08-16T01:10:26.000Z</time></trkpt>
        <trkpt lat="28.161556" lon="105.787887"><ele>1226.2987</ele><time>2026-08-16T01:10:28.000Z</time></trkpt>
        <trkpt lat="28.161549" lon="105.787866"><ele>1226.8138</ele><time>2026-08-16T01:10:30.000Z</time></trkpt>
        <trkpt lat="28.161543" lon="105.787844"><ele>1226.2057</ele><time>2026-08-16T01:10:32.000Z</time></trkpt>
        <trkpt lat="28.161536" lon="105.787821"><ele>1225.6908</ele><time>2026-08-16T01:10:34.000Z</time></trkpt>
        <trkpt lat="28.16153" lon="105.787797"><ele>1226.1053</ele><time>2026-08-16T01:10:36.000Z</time></trkpt>
        <trkpt lat="28.161528" lon="105.787783"><ele>1225.8405</ele><time>2026-08-16T01:10:38.000Z</time></trkpt>
        <trkpt lat="28.161527" lon="105.787775"><ele>1225.5686</ele><time>2026-08-16T01:10:40.000Z</time></trkpt>
        <trkpt lat="28.161525" lon="105.787764"><ele>1226.1691</ele><time>2026-08-16T01:10:44.000Z</time></trkpt>
        <trkpt lat="28.16152" lon="105.787748"><ele>1226.8066</ele><time>2026-08-16T01:10:46.000Z</time></trkpt>
        <trkpt lat="28.161513" lon="105.787728"><ele>1227.214</ele><time>2026-08-16T01:10:52.000Z</time></trkpt>
        <trkpt lat="28.161507" lon="105.787701"><ele>1227.4722</ele><time>2026-08-16T01:10:54.000Z</time></trkpt>
        <trkpt lat="28.161501" lon="105.787669"><ele>1227.5778</ele><time>2026-08-16T01:10:56.000Z</time></trkpt>
        <trkpt lat="28.161497" lon="105.78764"><ele>1227.6417</ele><time>2026-08-16T01:10:58.000Z</time></trkpt>
        <trkpt lat="28.161493" lon="105.787613"><ele>1229.0651</ele><time>2026-08-16T01:11:00.000Z</time></trkpt>
        <trkpt lat="28.161489" lon="105.78759"><ele>1229.3517</ele><time>2026-08-16T01:11:02.000Z</time></trkpt>
        <trkpt lat="28.161484" lon="105.787571"><ele>1229.642</ele><time>2026-08-16T01:11:04.000Z</time></trkpt>
        <trkpt lat="28.161479" lon="105.787553"><ele>1229.9181</ele><time>2026-08-16T01:11:06.000Z</time></trkpt>
        <trkpt lat="28.161474" lon="105.787532"><ele>1230.1198</ele><time>2026-08-16T01:11:08.000Z</time></trkpt>
        <trkpt lat="28.161471" lon="105.787507"><ele>1230.8363</ele><time>2026-08-16T01:11:10.000Z</time></trkpt>
        <trkpt lat="28.161469" lon="105.787484"><ele>1230.2977</ele><time>2026-08-16T01:11:12.000Z</time></trkpt>
        <trkpt lat="28.161468" lon="105.787463"><ele>1230.7947</ele><time>2026-08-16T01:11:14.000Z</time></trkpt>
        <trkpt lat="28.161467" lon="105.787441"><ele>1231.4745</ele><time>2026-08-16T01:11:16.000Z</time></trkpt>
        <trkpt lat="28.161465" lon="105.787419"><ele>1231.0718</ele><time>2026-08-16T01:11:18.000Z</time></trkpt>
        <trkpt lat="28.161463" lon="105.787402"><ele>1231.224</ele><time>2026-08-16T01:11:20.000Z</time></trkpt>
        <trkpt lat="28.161462" lon="105.787392"><ele>1231.9111</ele><time>2026-08-16T01:11:22.000Z</time></trkpt>
        <trkpt lat="28.161458" lon="105.787385"><ele>1232.5326</ele><time>2026-08-16T01:11:26.000Z</time></trkpt>
        <trkpt lat="28.161442" lon="105.787358"><ele>1232.5818</ele><time>2026-08-16T01:11:32.000Z</time></trkpt>
        <trkpt lat="28.161442" lon="105.787358"><ele>1231.1404</ele><time>2026-08-16T01:11:34.000Z</time></trkpt>
        <trkpt lat="28.161441" lon="105.787356"><ele>1231.2513</ele><time>2026-08-16T01:11:36.000Z</time></trkpt>
        <trkpt lat="28.161431" lon="105.787313"><ele>1231.8125</ele><time>2026-08-16T01:11:40.000Z</time></trkpt>
        <trkpt lat="28.161424" lon="105.787285"><ele>1230.9032</ele><time>2026-08-16T01:11:42.000Z</time></trkpt>
        <trkpt lat="28.161417" lon="105.787255"><ele>1231.5679</ele><time>2026-08-16T01:11:44.000Z</time></trkpt>
        <trkpt lat="28.161409" lon="105.787226"><ele>1231.6814</ele><time>2026-08-16T01:11:46.000Z</time></trkpt>
        <trkpt lat="28.161402" lon="105.787198"><ele>1232.0425</ele><time>2026-08-16T01:11:48.000Z</time></trkpt>
        <trkpt lat="28.161394" lon="105.787175"><ele>1231.6178</ele><time>2026-08-16T01:11:50.000Z</time></trkpt>
        <trkpt lat="28.161385" lon="105.787153"><ele>1231.7181</ele><time>2026-08-16T01:11:52.000Z</time></trkpt>
        <trkpt lat="28.161377" lon="105.787132"><ele>1232.6849</ele><time>2026-08-16T01:11:54.000Z</time></trkpt>
        <trkpt lat="28.161367" lon="105.787113"><ele>1232.1844</ele><time>2026-08-16T01:11:56.000Z</time></trkpt>
        <trkpt lat="28.161357" lon="105.787094"><ele>1232.8684</ele><time>2026-08-16T01:11:58.000Z</time></trkpt>
        <trkpt lat="28.161346" lon="105.787074"><ele>1233.0258</ele><time>2026-08-16T01:12:00.000Z</time></trkpt>
        <trkpt lat="28.161335" lon="105.787054"><ele>1233.2014</ele><time>2026-08-16T01:12:02.000Z</time></trkpt>
        <trkpt lat="28.161324" lon="105.787034"><ele>1232.8043</ele><time>2026-08-16T01:12:04.000Z</time></trkpt>
        <trkpt lat="28.161312" lon="105.787016"><ele>1233.0969</ele><time>2026-08-16T01:12:06.000Z</time></trkpt>
        <trkpt lat="28.161298" lon="105.786996"><ele>1232.5614</ele><time>2026-08-16T01:12:08.000Z</time></trkpt>
        <trkpt lat="28.161286" lon="105.786979"><ele>1232.9657</ele><time>2026-08-16T01:12:10.000Z</time></trkpt>
        <trkpt lat="28.161273" lon="105.786961"><ele>1233.0416</ele><time>2026-08-16T01:12:12.000Z</time></trkpt>
        <trkpt lat="28.161258" lon="105.78694"><ele>1233.521</ele><time>2026-08-16T01:12:14.000Z</time></trkpt>
        <trkpt lat="28.161242" lon="105.786921"><ele>1233.8937</ele><time>2026-08-16T01:12:16.000Z</time></trkpt>
        <trkpt lat="28.161226" lon="105.786899"><ele>1234.2191</ele><time>2026-08-16T01:12:18.000Z</time></trkpt>
        <trkpt lat="28.161212" lon="105.786879"><ele>1234.103</ele><time>2026-08-16T01:12:20.000Z</time></trkpt>
        <trkpt lat="28.161199" lon="105.78686"><ele>1233.902</ele><time>2026-08-16T01:12:22.000Z</time></trkpt>
        <trkpt lat="28.161186" lon="105.786842"><ele>1234.5254</ele><time>2026-08-16T01:12:24.000Z</time></trkpt>
        <trkpt lat="28.161169" lon="105.786822"><ele>1234.1484</ele><time>2026-08-16T01:12:26.000Z</time></trkpt>
        <trkpt lat="28.161152" lon="105.786803"><ele>1234.3939</ele><time>2026-08-16T01:12:28.000Z</time></trkpt>
        <trkpt lat="28.161134" lon="105.786786"><ele>1234.5497</ele><time>2026-08-16T01:12:30.000Z</time></trkpt>
        <trkpt lat="28.161118" lon="105.786771"><ele>1236.6127</ele><time>2026-08-16T01:12:32.000Z</time></trkpt>
        <trkpt lat="28.161101" lon="105.786755"><ele>1237.0698</ele><time>2026-08-16T01:12:34.000Z</time></trkpt>
        <trkpt lat="28.161082" lon="105.78674"><ele>1238.2385</ele><time>2026-08-16T01:12:36.000Z</time></trkpt>
        <trkpt lat="28.161061" lon="105.786724"><ele>1239.0999</ele><time>2026-08-16T01:12:38.000Z</time></trkpt>
        <trkpt lat="28.161041" lon="105.786709"><ele>1238.017</ele><time>2026-08-16T01:12:40.000Z</time></trkpt>
        <trkpt lat="28.161021" lon="105.786694"><ele>1237.208</ele><time>2026-08-16T01:12:42.000Z</time></trkpt>
        <trkpt lat="28.161001" lon="105.786681"><ele>1236.2246</ele><time>2026-08-16T01:12:44.000Z</time></trkpt>
        <trkpt lat="28.160978" lon="105.786668"><ele>1235.213</ele><time>2026-08-16T01:12:46.000Z</time></trkpt>
        <trkpt lat="28.160955" lon="105.786656"><ele>1234.6055</ele><time>2026-08-16T01:12:48.000Z</time></trkpt>
        <trkpt lat="28.160932" lon="105.786643"><ele>1234.1211</ele><time>2026-08-16T01:12:50.000Z</time></trkpt>
        <trkpt lat="28.160909" lon="105.786629"><ele>1233.1625</ele><time>2026-08-16T01:12:52.000Z</time></trkpt>
        <trkpt lat="28.160887" lon="105.786617"><ele>1232.6584</ele><time>2026-08-16T01:12:54.000Z</time></trkpt>
        <trkpt lat="28.160866" lon="105.786605"><ele>1232.2258</ele><time>2026-08-16T01:12:56.000Z</time></trkpt>
        <trkpt lat="28.160844" lon="105.786593"><ele>1232.0977</ele><time>2026-08-16T01:12:58.000Z</time></trkpt>
        <trkpt lat="28.160822" lon="105.786581"><ele>1231.878</ele><time>2026-08-16T01:13:00.000Z</time></trkpt>
        <trkpt lat="28.160803" lon="105.786569"><ele>1231.5116</ele><time>2026-08-16T01:13:02.000Z</time></trkpt>
        <trkpt lat="28.160785" lon="105.786556"><ele>1231.0612</ele><time>2026-08-16T01:13:04.000Z</time></trkpt>
        <trkpt lat="28.160768" lon="105.786541"><ele>1231.1168</ele><time>2026-08-16T01:13:06.000Z</time></trkpt>
        <trkpt lat="28.16075" lon="105.786525"><ele>1230.79</ele><time>2026-08-16T01:13:08.000Z</time></trkpt>
        <trkpt lat="28.160733" lon="105.786508"><ele>1230.2705</ele><time>2026-08-16T01:13:10.000Z</time></trkpt>
        <trkpt lat="28.160717" lon="105.786489"><ele>1230.9722</ele><time>2026-08-16T01:13:12.000Z</time></trkpt>
        <trkpt lat="28.160705" lon="105.786472"><ele>1230.685</ele><time>2026-08-16T01:13:14.000Z</time></trkpt>
        <trkpt lat="28.160691" lon="105.786451"><ele>1230.678</ele><time>2026-08-16T01:13:16.000Z</time></trkpt>
        <trkpt lat="28.160679" lon="105.786431"><ele>1230.8817</ele><time>2026-08-16T01:13:18.000Z</time></trkpt>
        <trkpt lat="28.160665" lon="105.786406"><ele>1231.2711</ele><time>2026-08-16T01:13:20.000Z</time></trkpt>
        <trkpt lat="28.160654" lon="105.78638"><ele>1230.7238</ele><time>2026-08-16T01:13:22.000Z</time></trkpt>
        <trkpt lat="28.160647" lon="105.786355"><ele>1230.1144</ele><time>2026-08-16T01:13:24.000Z</time></trkpt>
        <trkpt lat="28.160643" lon="105.786331"><ele>1229.0424</ele><time>2026-08-16T01:13:26.000Z</time></trkpt>
        <trkpt lat="28.160639" lon="105.786305"><ele>1229.2423</ele><time>2026-08-16T01:13:28.000Z</time></trkpt>
        <trkpt lat="28.160637" lon="105.786281"><ele>1229.7661</ele><time>2026-08-16T01:13:30.000Z</time></trkpt>
        <trkpt lat="28.160636" lon="105.786255"><ele>1229.6644</ele><time>2026-08-16T01:13:32.000Z</time></trkpt>
        <trkpt lat="28.160637" lon="105.786226"><ele>1230.4375</ele><time>2026-08-16T01:13:34.000Z</time></trkpt>
        <trkpt lat="28.160639" lon="105.786198"><ele>1229.6553</ele><time>2026-08-16T01:13:36.000Z</time></trkpt>
        <trkpt lat="28.160642" lon="105.786171"><ele>1229.271</ele><time>2026-08-16T01:13:38.000Z</time></trkpt>
        <trkpt lat="28.160643" lon="105.786146"><ele>1229.1873</ele><time>2026-08-16T01:13:40.000Z</time></trkpt>
        <trkpt lat="28.160641" lon="105.786124"><ele>1229.5089</ele><time>2026-08-16T01:13:42.000Z</time></trkpt>
        <trkpt lat="28.160638" lon="105.786099"><ele>1229.7764</ele><time>2026-08-16T01:13:44.000Z</time></trkpt>
        <trkpt lat="28.160635" lon="105.786074"><ele>1229.9446</ele><time>2026-08-16T01:13:46.000Z</time></trkpt>
        <trkpt lat="28.160631" lon="105.786051"><ele>1230.2258</ele><time>2026-08-16T01:13:48.000Z</time></trkpt>
        <trkpt lat="28.160628" lon="105.786025"><ele>1230.5532</ele><time>2026-08-16T01:13:50.000Z</time></trkpt>
        <trkpt lat="28.160625" lon="105.786"><ele>1231.0151</ele><time>2026-08-16T01:13:52.000Z</time></trkpt>
        <trkpt lat="28.160622" lon="105.785976"><ele>1230.8859</ele><time>2026-08-16T01:13:54.000Z</time></trkpt>
        <trkpt lat="28.16062" lon="105.785956"><ele>1230.5072</ele><time>2026-08-16T01:13:56.000Z</time></trkpt>
        <trkpt lat="28.160619" lon="105.78593"><ele>1230.4191</ele><time>2026-08-16T01:13:58.000Z</time></trkpt>
        <trkpt lat="28.160615" lon="105.785904"><ele>1230.0355</ele><time>2026-08-16T01:14:00.000Z</time></trkpt>
        <trkpt lat="28.16061" lon="105.785878"><ele>1230.1256</ele><time>2026-08-16T01:14:02.000Z</time></trkpt>
        <trkpt lat="28.1606" lon="105.785852"><ele>1230.6617</ele><time>2026-08-16T01:14:04.000Z</time></trkpt>
        <trkpt lat="28.16059" lon="105.785828"><ele>1231.9723</ele><time>2026-08-16T01:14:06.000Z</time></trkpt>
        <trkpt lat="28.160579" lon="105.785806"><ele>1231.6495</ele><time>2026-08-16T01:14:08.000Z</time></trkpt>
        <trkpt lat="28.160566" lon="105.785783"><ele>1231.4594</ele><time>2026-08-16T01:14:10.000Z</time></trkpt>
        <trkpt lat="28.160551" lon="105.785762"><ele>1231.7683</ele><time>2026-08-16T01:14:12.000Z</time></trkpt>
        <trkpt lat="28.160534" lon="105.78574"><ele>1231.7454</ele><time>2026-08-16T01:14:14.000Z</time></trkpt>
        <trkpt lat="28.160519" lon="105.785722"><ele>1232.125</ele><time>2026-08-16T01:14:16.000Z</time></trkpt>
        <trkpt lat="28.160505" lon="105.785704"><ele>1233.3622</ele><time>2026-08-16T01:14:18.000Z</time></trkpt>
        <trkpt lat="28.160493" lon="105.785685"><ele>1233.8658</ele><time>2026-08-16T01:14:20.000Z</time></trkpt>
        <trkpt lat="28.160482" lon="105.785664"><ele>1233.2604</ele><time>2026-08-16T01:14:22.000Z</time></trkpt>
        <trkpt lat="28.160474" lon="105.785642"><ele>1232.5183</ele><time>2026-08-16T01:14:24.000Z</time></trkpt>
        <trkpt lat="28.160465" lon="105.78562"><ele>1232.3103</ele><time>2026-08-16T01:14:26.000Z</time></trkpt>
        <trkpt lat="28.160456" lon="105.785594"><ele>1232.614</ele><time>2026-08-16T01:14:28.000Z</time></trkpt>
        <trkpt lat="28.160448" lon="105.785569"><ele>1232.7618</ele><time>2026-08-16T01:14:30.000Z</time></trkpt>
        <trkpt lat="28.160444" lon="105.785541"><ele>1232.717</ele><time>2026-08-16T01:14:32.000Z</time></trkpt>
        <trkpt lat="28.160443" lon="105.785515"><ele>1233.0258</ele><time>2026-08-16T01:14:34.000Z</time></trkpt>
        <trkpt lat="28.160442" lon="105.785489"><ele>1233.0167</ele><time>2026-08-16T01:14:36.000Z</time></trkpt>
        <trkpt lat="28.160439" lon="105.785464"><ele>1232.954</ele><time>2026-08-16T01:14:38.000Z</time></trkpt>
        <trkpt lat="28.160439" lon="105.785439"><ele>1233.1748</ele><time>2026-08-16T01:14:40.000Z</time></trkpt>
        <trkpt lat="28.160438" lon="105.785411"><ele>1233.8708</ele><time>2026-08-16T01:14:42.000Z</time></trkpt>
        <trkpt lat="28.160438" lon="105.785384"><ele>1233.3079</ele><time>2026-08-16T01:14:44.000Z</time></trkpt>
        <trkpt lat="28.160438" lon="105.785358"><ele>1233.6461</ele><time>2026-08-16T01:14:46.000Z</time></trkpt>
        <trkpt lat="28.160436" lon="105.785333"><ele>1233.8461</ele><time>2026-08-16T01:14:48.000Z</time></trkpt>
        <trkpt lat="28.160435" lon="105.785307"><ele>1233.9727</ele><time>2026-08-16T01:14:50.000Z</time></trkpt>
        <trkpt lat="28.160435" lon="105.785281"><ele>1233.344</ele><time>2026-08-16T01:14:52.000Z</time></trkpt>
        <trkpt lat="28.160436" lon="105.785257"><ele>1232.9442</ele><time>2026-08-16T01:14:54.000Z</time></trkpt>
        <trkpt lat="28.160437" lon="105.785232"><ele>1233.2795</ele><time>2026-08-16T01:14:56.000Z</time></trkpt>
        <trkpt lat="28.160437" lon="105.785207"><ele>1233.7317</ele><time>2026-08-16T01:14:58.000Z</time></trkpt>
        <trkpt lat="28.160435" lon="105.785183"><ele>1233.8926</ele><time>2026-08-16T01:15:00.000Z</time></trkpt>
        <trkpt lat="28.160433" lon="105.785158"><ele>1233.7784</ele><time>2026-08-16T01:15:02.000Z</time></trkpt>
        <trkpt lat="28.160429" lon="105.785133"><ele>1234.1124</ele><time>2026-08-16T01:15:04.000Z</time></trkpt>
        <trkpt lat="28.160424" lon="105.78511"><ele>1234.1123</ele><time>2026-08-16T01:15:06.000Z</time></trkpt>
        <trkpt lat="28.160422" lon="105.785086"><ele>1234.0514</ele><time>2026-08-16T01:15:08.000Z</time></trkpt>
        <trkpt lat="28.160422" lon="105.785062"><ele>1234.0079</ele><time>2026-08-16T01:15:10.000Z</time></trkpt>
        <trkpt lat="28.160422" lon="105.785037"><ele>1234.2902</ele><time>2026-08-16T01:15:12.000Z</time></trkpt>
        <trkpt lat="28.160421" lon="105.785016"><ele>1233.7479</ele><time>2026-08-16T01:15:14.000Z</time></trkpt>
        <trkpt lat="28.16042" lon="105.784994"><ele>1233.5604</ele><time>2026-08-16T01:15:16.000Z</time></trkpt>
        <trkpt lat="28.160422" lon="105.784971"><ele>1233.6744</ele><time>2026-08-16T01:15:18.000Z</time></trkpt>
        <trkpt lat="28.160425" lon="105.784948"><ele>1233.8877</ele><time>2026-08-16T01:15:20.000Z</time></trkpt>
        <trkpt lat="28.160429" lon="105.784922"><ele>1234.3579</ele><time>2026-08-16T01:15:22.000Z</time></trkpt>
        <trkpt lat="28.160435" lon="105.784896"><ele>1234.2391</ele><time>2026-08-16T01:15:24.000Z</time></trkpt>
        <trkpt lat="28.16044" lon="105.784871"><ele>1233.6836</ele><time>2026-08-16T01:15:26.000Z</time></trkpt>
        <trkpt lat="28.160445" lon="105.784849"><ele>1233.5377</ele><time>2026-08-16T01:15:28.000Z</time></trkpt>
        <trkpt lat="28.160452" lon="105.784825"><ele>1233.5558</ele><time>2026-08-16T01:15:30.000Z</time></trkpt>
        <trkpt lat="28.160459" lon="105.784799"><ele>1232.5388</ele><time>2026-08-16T01:15:32.000Z</time></trkpt>
        <trkpt lat="28.160467" lon="105.784773"><ele>1232.8177</ele><time>2026-08-16T01:15:34.000Z</time></trkpt>
        <trkpt lat="28.160474" lon="105.784746"><ele>1232.8579</ele><time>2026-08-16T01:15:36.000Z</time></trkpt>
        <trkpt lat="28.16048" lon="105.784717"><ele>1232.9215</ele><time>2026-08-16T01:15:38.000Z</time></trkpt>
        <trkpt lat="28.160488" lon="105.78469"><ele>1234.1305</ele><time>2026-08-16T01:15:40.000Z</time></trkpt>
        <trkpt lat="28.160497" lon="105.784669"><ele>1234.0472</ele><time>2026-08-16T01:15:42.000Z</time></trkpt>
        <trkpt lat="28.160505" lon="105.78465"><ele>1234.7195</ele><time>2026-08-16T01:15:44.000Z</time></trkpt>
        <trkpt lat="28.16051" lon="105.784633"><ele>1234.6486</ele><time>2026-08-16T01:15:46.000Z</time></trkpt>
        <trkpt lat="28.160514" lon="105.78461"><ele>1235.1354</ele><time>2026-08-16T01:15:48.000Z</time></trkpt>
        <trkpt lat="28.160516" lon="105.784584"><ele>1235.7686</ele><time>2026-08-16T01:15:50.000Z</time></trkpt>
        <trkpt lat="28.160519" lon="105.784556"><ele>1236.4502</ele><time>2026-08-16T01:15:52.000Z</time></trkpt>
        <trkpt lat="28.16052" lon="105.784531"><ele>1235.674</ele><time>2026-08-16T01:15:54.000Z</time></trkpt>
        <trkpt lat="28.16052" lon="105.784507"><ele>1235.8455</ele><time>2026-08-16T01:15:56.000Z</time></trkpt>
        <trkpt lat="28.160518" lon="105.784483"><ele>1236.4147</ele><time>2026-08-16T01:15:58.000Z</time></trkpt>
        <trkpt lat="28.160516" lon="105.784459"><ele>1236.6295</ele><time>2026-08-16T01:16:00.000Z</time></trkpt>
        <trkpt lat="28.160514" lon="105.784434"><ele>1236.398</ele><time>2026-08-16T01:16:02.000Z</time></trkpt>
        <trkpt lat="28.160513" lon="105.784411"><ele>1236.6681</ele><time>2026-08-16T01:16:04.000Z</time></trkpt>
        <trkpt lat="28.160512" lon="105.784388"><ele>1237.1416</ele><time>2026-08-16T01:16:06.000Z</time></trkpt>
        <trkpt lat="28.160513" lon="105.784361"><ele>1237.8829</ele><time>2026-08-16T01:16:08.000Z</time></trkpt>
        <trkpt lat="28.160513" lon="105.784337"><ele>1237.4032</ele><time>2026-08-16T01:16:10.000Z</time></trkpt>
        <trkpt lat="28.160511" lon="105.784315"><ele>1237.5012</ele><time>2026-08-16T01:16:12.000Z</time></trkpt>
        <trkpt lat="28.160511" lon="105.784292"><ele>1237.7218</ele><time>2026-08-16T01:16:14.000Z</time></trkpt>
        <trkpt lat="28.160511" lon="105.78427"><ele>1237.8729</ele><time>2026-08-16T01:16:16.000Z</time></trkpt>
        <trkpt lat="28.16051" lon="105.78425"><ele>1237.3186</ele><time>2026-08-16T01:16:18.000Z</time></trkpt>
        <trkpt lat="28.160511" lon="105.784226"><ele>1237.258</ele><time>2026-08-16T01:16:20.000Z</time></trkpt>
        <trkpt lat="28.16051" lon="105.784202"><ele>1236.7944</ele><time>2026-08-16T01:16:22.000Z</time></trkpt>
        <trkpt lat="28.160509" lon="105.784178"><ele>1237.4724</ele><time>2026-08-16T01:16:24.000Z</time></trkpt>
        <trkpt lat="28.160508" lon="105.784154"><ele>1237.4738</ele><time>2026-08-16T01:16:26.000Z</time></trkpt>
        <trkpt lat="28.160507" lon="105.784127"><ele>1237.917</ele><time>2026-08-16T01:16:28.000Z</time></trkpt>
        <trkpt lat="28.160507" lon="105.784103"><ele>1237.4531</ele><time>2026-08-16T01:16:30.000Z</time></trkpt>
        <trkpt lat="28.160509" lon="105.784081"><ele>1236.7723</ele><time>2026-08-16T01:16:32.000Z</time></trkpt>
        <trkpt lat="28.16051" lon="105.784057"><ele>1236.561</ele><time>2026-08-16T01:16:34.000Z</time></trkpt>
        <trkpt lat="28.160508" lon="105.784034"><ele>1236.7473</ele><time>2026-08-16T01:16:36.000Z</time></trkpt>
        <trkpt lat="28.160504" lon="105.784014"><ele>1236.0118</ele><time>2026-08-16T01:16:38.000Z</time></trkpt>
        <trkpt lat="28.160501" lon="105.783988"><ele>1235.4292</ele><time>2026-08-16T01:16:40.000Z</time></trkpt>
        <trkpt lat="28.160499" lon="105.78396"><ele>1236.3804</ele><time>2026-08-16T01:16:42.000Z</time></trkpt>
        <trkpt lat="28.160498" lon="105.783934"><ele>1235.5458</ele><time>2026-08-16T01:16:44.000Z</time></trkpt>
        <trkpt lat="28.160499" lon="105.783909"><ele>1235.5353</ele><time>2026-08-16T01:16:46.000Z</time></trkpt>
        <trkpt lat="28.160501" lon="105.783884"><ele>1236.2035</ele><time>2026-08-16T01:16:48.000Z</time></trkpt>
        <trkpt lat="28.160504" lon="105.783857"><ele>1236.4379</ele><time>2026-08-16T01:16:50.000Z</time></trkpt>
        <trkpt lat="28.160506" lon="105.783833"><ele>1236.3014</ele><time>2026-08-16T01:16:52.000Z</time></trkpt>
        <trkpt lat="28.160507" lon="105.783809"><ele>1236.7954</ele><time>2026-08-16T01:16:54.000Z</time></trkpt>
        <trkpt lat="28.160507" lon="105.783788"><ele>1237.0493</ele><time>2026-08-16T01:16:56.000Z</time></trkpt>
        <trkpt lat="28.160506" lon="105.783766"><ele>1237.408</ele><time>2026-08-16T01:16:58.000Z</time></trkpt>
        <trkpt lat="28.160504" lon="105.783745"><ele>1237.2908</ele><time>2026-08-16T01:17:00.000Z</time></trkpt>
        <trkpt lat="28.160502" lon="105.783725"><ele>1237.7008</ele><time>2026-08-16T01:17:02.000Z</time></trkpt>
        <trkpt lat="28.1605" lon="105.783704"><ele>1237.8336</ele><time>2026-08-16T01:17:04.000Z</time></trkpt>
        <trkpt lat="28.160499" lon="105.783684"><ele>1237.736</ele><time>2026-08-16T01:17:06.000Z</time></trkpt>
        <trkpt lat="28.160498" lon="105.783668"><ele>1238.1394</ele><time>2026-08-16T01:17:08.000Z</time></trkpt>
        <trkpt lat="28.160495" lon="105.783653"><ele>1238.668</ele><time>2026-08-16T01:17:10.000Z</time></trkpt>
        <trkpt lat="28.160491" lon="105.783637"><ele>1238.515</ele><time>2026-08-16T01:17:12.000Z</time></trkpt>
        <trkpt lat="28.160487" lon="105.783619"><ele>1238.1925</ele><time>2026-08-16T01:17:14.000Z</time></trkpt>
        <trkpt lat="28.160484" lon="105.783601"><ele>1238.9412</ele><time>2026-08-16T01:17:16.000Z</time></trkpt>
        <trkpt lat="28.160479" lon="105.783582"><ele>1239.6117</ele><time>2026-08-16T01:17:18.000Z</time></trkpt>
        <trkpt lat="28.160475" lon="105.783561"><ele>1240.5045</ele><time>2026-08-16T01:17:20.000Z</time></trkpt>
        <trkpt lat="28.160471" lon="105.783541"><ele>1241.1785</ele><time>2026-08-16T01:17:22.000Z</time></trkpt>
        <trkpt lat="28.160467" lon="105.783519"><ele>1241.618</ele><time>2026-08-16T01:17:24.000Z</time></trkpt>
        <trkpt lat="28.160464" lon="105.783497"><ele>1241.7471</ele><time>2026-08-16T01:17:25.000Z</time></trkpt>
        <trkpt lat="28.160462" lon="105.783474"><ele>1241.4652</ele><time>2026-08-16T01:17:27.000Z</time></trkpt>
        <trkpt lat="28.16046" lon="105.78345"><ele>1242.1581</ele><time>2026-08-16T01:17:29.000Z</time></trkpt>
        <trkpt lat="28.160459" lon="105.783429"><ele>1241.2039</ele><time>2026-08-16T01:17:31.000Z</time></trkpt>
        <trkpt lat="28.160459" lon="105.783408"><ele>1241.274</ele><time>2026-08-16T01:17:33.000Z</time></trkpt>
        <trkpt lat="28.160459" lon="105.783386"><ele>1242.1051</ele><time>2026-08-16T01:17:35.000Z</time></trkpt>
        <trkpt lat="28.160461" lon="105.783364"><ele>1242.0061</ele><time>2026-08-16T01:17:37.000Z</time></trkpt>
        <trkpt lat="28.160464" lon="105.783341"><ele>1242.2264</ele><time>2026-08-16T01:17:39.000Z</time></trkpt>
        <trkpt lat="28.160466" lon="105.783316"><ele>1242.4755</ele><time>2026-08-16T01:17:41.000Z</time></trkpt>
        <trkpt lat="28.160468" lon="105.783295"><ele>1242.7783</ele><time>2026-08-16T01:17:43.000Z</time></trkpt>
        <trkpt lat="28.160471" lon="105.783274"><ele>1242.0093</ele><time>2026-08-16T01:17:45.000Z</time></trkpt>
        <trkpt lat="28.160475" lon="105.783252"><ele>1242.1846</ele><time>2026-08-16T01:17:47.000Z</time></trkpt>
        <trkpt lat="28.160479" lon="105.783227"><ele>1242.94</ele><time>2026-08-16T01:17:49.000Z</time></trkpt>
        <trkpt lat="28.160484" lon="105.783204"><ele>1242.143</ele><time>2026-08-16T01:17:51.000Z</time></trkpt>
        <trkpt lat="28.160488" lon="105.783179"><ele>1242.8492</ele><time>2026-08-16T01:17:53.000Z</time></trkpt>
        <trkpt lat="28.160491" lon="105.783155"><ele>1243.0844</ele><time>2026-08-16T01:17:55.000Z</time></trkpt>
        <trkpt lat="28.160491" lon="105.78313"><ele>1242.7332</ele><time>2026-08-16T01:17:57.000Z</time></trkpt>
        <trkpt lat="28.160491" lon="105.783105"><ele>1242.9833</ele><time>2026-08-16T01:17:59.000Z</time></trkpt>
        <trkpt lat="28.160489" lon="105.783081"><ele>1242.7548</ele><time>2026-08-16T01:18:02.000Z</time></trkpt>
        <trkpt lat="28.160488" lon="105.783059"><ele>1242.8075</ele><time>2026-08-16T01:18:04.000Z</time></trkpt>
        <trkpt lat="28.160484" lon="105.783034"><ele>1242.5875</ele><time>2026-08-16T01:18:06.000Z</time></trkpt>
        <trkpt lat="28.160479" lon="105.783008"><ele>1243.2235</ele><time>2026-08-16T01:18:08.000Z</time></trkpt>
        <trkpt lat="28.160473" lon="105.782984"><ele>1243.3599</ele><time>2026-08-16T01:18:10.000Z</time></trkpt>
        <trkpt lat="28.160465" lon="105.78296"><ele>1243.2582</ele><time>2026-08-16T01:18:12.000Z</time></trkpt>
        <trkpt lat="28.160458" lon="105.782933"><ele>1243.1514</ele><time>2026-08-16T01:18:14.000Z</time></trkpt>
        <trkpt lat="28.160453" lon="105.782906"><ele>1242.7521</ele><time>2026-08-16T01:18:16.000Z</time></trkpt>
        <trkpt lat="28.160446" lon="105.782879"><ele>1242.8623</ele><time>2026-08-16T01:18:18.000Z</time></trkpt>
        <trkpt lat="28.160441" lon="105.782853"><ele>1242.2528</ele><time>2026-08-16T01:18:20.000Z</time></trkpt>
        <trkpt lat="28.160437" lon="105.782829"><ele>1242.1865</ele><time>2026-08-16T01:18:22.000Z</time></trkpt>
        <trkpt lat="28.160434" lon="105.782804"><ele>1242.5118</ele><time>2026-08-16T01:18:24.000Z</time></trkpt>
        <trkpt lat="28.160432" lon="105.78278"><ele>1242.1516</ele><time>2026-08-16T01:18:26.000Z</time></trkpt>
        <trkpt lat="28.160429" lon="105.782753"><ele>1243.0427</ele><time>2026-08-16T01:18:28.000Z</time></trkpt>
        <trkpt lat="28.160426" lon="105.782727"><ele>1242.7784</ele><time>2026-08-16T01:18:30.000Z</time></trkpt>
        <trkpt lat="28.160423" lon="105.782699"><ele>1243.4946</ele><time>2026-08-16T01:18:32.000Z</time></trkpt>
        <trkpt lat="28.16042" lon="105.782671"><ele>1244.1553</ele><time>2026-08-16T01:18:34.000Z</time></trkpt>
        <trkpt lat="28.160419" lon="105.782643"><ele>1243.8323</ele><time>2026-08-16T01:18:36.000Z</time></trkpt>
        <trkpt lat="28.160416" lon="105.782613"><ele>1244.0133</ele><time>2026-08-16T01:18:38.000Z</time></trkpt>
        <trkpt lat="28.160412" lon="105.782586"><ele>1243.9862</ele><time>2026-08-16T01:18:40.000Z</time></trkpt>
        <trkpt lat="28.160408" lon="105.78256"><ele>1243.4382</ele><time>2026-08-16T01:18:42.000Z</time></trkpt>
        <trkpt lat="28.160404" lon="105.782536"><ele>1242.8796</ele><time>2026-08-16T01:18:44.000Z</time></trkpt>
        <trkpt lat="28.160398" lon="105.782513"><ele>1243.2462</ele><time>2026-08-16T01:18:46.000Z</time></trkpt>
        <trkpt lat="28.160392" lon="105.782491"><ele>1242.3127</ele><time>2026-08-16T01:18:48.000Z</time></trkpt>
        <trkpt lat="28.160384" lon="105.782467"><ele>1242.491</ele><time>2026-08-16T01:18:50.000Z</time></trkpt>
        <trkpt lat="28.160377" lon="105.782442"><ele>1243.5022</ele><time>2026-08-16T01:18:52.000Z</time></trkpt>
        <trkpt lat="28.160369" lon="105.782422"><ele>1243.0269</ele><time>2026-08-16T01:18:54.000Z</time></trkpt>
        <trkpt lat="28.16036" lon="105.782397"><ele>1243.5822</ele><time>2026-08-16T01:18:56.000Z</time></trkpt>
        <trkpt lat="28.160352" lon="105.782374"><ele>1244.4735</ele><time>2026-08-16T01:18:58.000Z</time></trkpt>
        <trkpt lat="28.160344" lon="105.782348"><ele>1244.629</ele><time>2026-08-16T01:19:00.000Z</time></trkpt>
        <trkpt lat="28.160335" lon="105.782324"><ele>1243.9457</ele><time>2026-08-16T01:19:02.000Z</time></trkpt>
        <trkpt lat="28.160324" lon="105.782299"><ele>1244.9526</ele><time>2026-08-16T01:19:04.000Z</time></trkpt>
        <trkpt lat="28.160312" lon="105.782276"><ele>1244.2389</ele><time>2026-08-16T01:19:06.000Z</time></trkpt>
        <trkpt lat="28.1603" lon="105.782254"><ele>1244.2158</ele><time>2026-08-16T01:19:08.000Z</time></trkpt>
        <trkpt lat="28.160289" lon="105.782234"><ele>1244.7551</ele><time>2026-08-16T01:19:10.000Z</time></trkpt>
        <trkpt lat="28.160278" lon="105.782214"><ele>1244.7117</ele><time>2026-08-16T01:19:12.000Z</time></trkpt>
        <trkpt lat="28.160267" lon="105.782194"><ele>1244.7251</ele><time>2026-08-16T01:19:14.000Z</time></trkpt>
        <trkpt lat="28.160254" lon="105.782171"><ele>1245.3966</ele><time>2026-08-16T01:19:16.000Z</time></trkpt>
        <trkpt lat="28.160244" lon="105.78215"><ele>1244.5033</ele><time>2026-08-16T01:19:18.000Z</time></trkpt>
        <trkpt lat="28.160232" lon="105.782128"><ele>1245.3132</ele><time>2026-08-16T01:19:20.000Z</time></trkpt>
        <trkpt lat="28.16022" lon="105.782103"><ele>1245.1188</ele><time>2026-08-16T01:19:22.000Z</time></trkpt>
        <trkpt lat="28.16021" lon="105.782079"><ele>1245.1643</ele><time>2026-08-16T01:19:24.000Z</time></trkpt>
        <trkpt lat="28.160202" lon="105.782058"><ele>1244.4663</ele><time>2026-08-16T01:19:26.000Z</time></trkpt>
        <trkpt lat="28.160195" lon="105.782035"><ele>1244.8171</ele><time>2026-08-16T01:19:28.000Z</time></trkpt>
        <trkpt lat="28.160187" lon="105.782007"><ele>1244.7417</ele><time>2026-08-16T01:19:30.000Z</time></trkpt>
        <trkpt lat="28.160178" lon="105.781977"><ele>1244.6133</ele><time>2026-08-16T01:19:31.000Z</time></trkpt>
        <trkpt lat="28.160171" lon="105.781946"><ele>1243.7202</ele><time>2026-08-16T01:19:33.000Z</time></trkpt>
        <trkpt lat="28.160163" lon="105.781915"><ele>1243.6726</ele><time>2026-08-16T01:19:35.000Z</time></trkpt>
        <trkpt lat="28.160155" lon="105.781885"><ele>1243.5848</ele><time>2026-08-16T01:19:37.000Z</time></trkpt>
        <trkpt lat="28.160147" lon="105.78186"><ele>1243.8456</ele><time>2026-08-16T01:19:39.000Z</time></trkpt>
        <trkpt lat="28.160138" lon="105.781835"><ele>1244.4944</ele><time>2026-08-16T01:19:41.000Z</time></trkpt>
        <trkpt lat="28.16013" lon="105.781815"><ele>1244.5671</ele><time>2026-08-16T01:19:43.000Z</time></trkpt>
        <trkpt lat="28.160122" lon="105.781794"><ele>1244.929</ele><time>2026-08-16T01:19:45.000Z</time></trkpt>
        <trkpt lat="28.160115" lon="105.781775"><ele>1245.0016</ele><time>2026-08-16T01:19:48.000Z</time></trkpt>
        <trkpt lat="28.160109" lon="105.781754"><ele>1245.408</ele><time>2026-08-16T01:19:50.000Z</time></trkpt>
        <trkpt lat="28.160103" lon="105.781732"><ele>1244.7358</ele><time>2026-08-16T01:19:52.000Z</time></trkpt>
        <trkpt lat="28.160095" lon="105.78171"><ele>1245.2819</ele><time>2026-08-16T01:19:54.000Z</time></trkpt>
        <trkpt lat="28.160087" lon="105.781687"><ele>1245.5125</ele><time>2026-08-16T01:19:56.000Z</time></trkpt>
        <trkpt lat="28.16008" lon="105.781667"><ele>1246.3884</ele><time>2026-08-16T01:19:58.000Z</time></trkpt>
        <trkpt lat="28.160071" lon="105.781645"><ele>1244.7507</ele><time>2026-08-16T01:20:00.000Z</time></trkpt>
        <trkpt lat="28.160064" lon="105.781622"><ele>1244.5319</ele><time>2026-08-16T01:20:02.000Z</time></trkpt>
        <trkpt lat="28.160057" lon="105.781603"><ele>1243.9457</ele><time>2026-08-16T01:20:04.000Z</time></trkpt>
        <trkpt lat="28.160051" lon="105.781581"><ele>1244.9921</ele><time>2026-08-16T01:20:06.000Z</time></trkpt>
        <trkpt lat="28.160043" lon="105.781556"><ele>1245.483</ele><time>2026-08-16T01:20:08.000Z</time></trkpt>
        <trkpt lat="28.160036" lon="105.781533"><ele>1245.3965</ele><time>2026-08-16T01:20:10.000Z</time></trkpt>
        <trkpt lat="28.160029" lon="105.781508"><ele>1245.4741</ele><time>2026-08-16T01:20:12.000Z</time></trkpt>
        <trkpt lat="28.160023" lon="105.781484"><ele>1245.4811</ele><time>2026-08-16T01:20:14.000Z</time></trkpt>
        <trkpt lat="28.160018" lon="105.78146"><ele>1245.4531</ele><time>2026-08-16T01:20:16.000Z</time></trkpt>
        <trkpt lat="28.160015" lon="105.781437"><ele>1246.6073</ele><time>2026-08-16T01:20:18.000Z</time></trkpt>
        <trkpt lat="28.160012" lon="105.781412"><ele>1247.757</ele><time>2026-08-16T01:20:20.000Z</time></trkpt>
        <trkpt lat="28.160006" lon="105.781388"><ele>1247.3563</ele><time>2026-08-16T01:20:22.000Z</time></trkpt>
        <trkpt lat="28.160001" lon="105.781362"><ele>1247.9955</ele><time>2026-08-16T01:20:24.000Z</time></trkpt>
        <trkpt lat="28.159998" lon="105.781337"><ele>1248.0221</ele><time>2026-08-16T01:20:26.000Z</time></trkpt>
        <trkpt lat="28.159996" lon="105.781309"><ele>1248.1177</ele><time>2026-08-16T01:20:28.000Z</time></trkpt>
        <trkpt lat="28.159994" lon="105.781283"><ele>1248.5793</ele><time>2026-08-16T01:20:30.000Z</time></trkpt>
        <trkpt lat="28.159992" lon="105.781257"><ele>1248.7711</ele><time>2026-08-16T01:20:32.000Z</time></trkpt>
        <trkpt lat="28.15999" lon="105.781232"><ele>1249.3185</ele><time>2026-08-16T01:20:34.000Z</time></trkpt>
        <trkpt lat="28.159986" lon="105.781208"><ele>1249.8135</ele><time>2026-08-16T01:20:36.000Z</time></trkpt>
        <trkpt lat="28.159981" lon="105.781188"><ele>1250.2645</ele><time>2026-08-16T01:20:38.000Z</time></trkpt>
        <trkpt lat="28.159976" lon="105.781166"><ele>1249.4951</ele><time>2026-08-16T01:20:40.000Z</time></trkpt>
        <trkpt lat="28.15997" lon="105.781141"><ele>1248.7455</ele><time>2026-08-16T01:20:42.000Z</time></trkpt>
        <trkpt lat="28.159965" lon="105.781115"><ele>1249.9373</ele><time>2026-08-16T01:20:44.000Z</time></trkpt>
        <trkpt lat="28.159959" lon="105.78109"><ele>1249.5651</ele><time>2026-08-16T01:20:46.000Z</time></trkpt>
        <trkpt lat="28.159955" lon="105.781065"><ele>1250.8167</ele><time>2026-08-16T01:20:48.000Z</time></trkpt>
        <trkpt lat="28.15995" lon="105.781041"><ele>1251.1709</ele><time>2026-08-16T01:20:50.000Z</time></trkpt>
        <trkpt lat="28.159946" lon="105.781018"><ele>1251.8778</ele><time>2026-08-16T01:20:52.000Z</time></trkpt>
        <trkpt lat="28.159941" lon="105.780997"><ele>1252.2886</ele><time>2026-08-16T01:20:54.000Z</time></trkpt>
        <trkpt lat="28.159935" lon="105.780978"><ele>1253.1052</ele><time>2026-08-16T01:20:56.000Z</time></trkpt>
        <trkpt lat="28.159927" lon="105.780957"><ele>1253.7631</ele><time>2026-08-16T01:20:58.000Z</time></trkpt>
        <trkpt lat="28.159919" lon="105.780937"><ele>1254.1808</ele><time>2026-08-16T01:21:00.000Z</time></trkpt>
        <trkpt lat="28.15991" lon="105.780915"><ele>1253.918</ele><time>2026-08-16T01:21:02.000Z</time></trkpt>
        <trkpt lat="28.159903" lon="105.780896"><ele>1254.0303</ele><time>2026-08-16T01:21:04.000Z</time></trkpt>
        <trkpt lat="28.1599" lon="105.780874"><ele>1254.7231</ele><time>2026-08-16T01:21:06.000Z</time></trkpt>
        <trkpt lat="28.159897" lon="105.780849"><ele>1255.8109</ele><time>2026-08-16T01:21:08.000Z</time></trkpt>
        <trkpt lat="28.159897" lon="105.780827"><ele>1256.044</ele><time>2026-08-16T01:21:10.000Z</time></trkpt>
        <trkpt lat="28.159899" lon="105.780805"><ele>1256.0992</ele><time>2026-08-16T01:21:12.000Z</time></trkpt>
        <trkpt lat="28.1599" lon="105.780787"><ele>1255.774</ele><time>2026-08-16T01:21:14.000Z</time></trkpt>
        <trkpt lat="28.159902" lon="105.780766"><ele>1256.64</ele><time>2026-08-16T01:21:16.000Z</time></trkpt>
        <trkpt lat="28.159907" lon="105.780741"><ele>1257.7029</ele><time>2026-08-16T01:21:18.000Z</time></trkpt>
        <trkpt lat="28.159915" lon="105.780718"><ele>1259.1241</ele><time>2026-08-16T01:21:20.000Z</time></trkpt>
        <trkpt lat="28.159925" lon="105.780695"><ele>1260.2362</ele><time>2026-08-16T01:21:22.000Z</time></trkpt>
        <trkpt lat="28.159935" lon="105.78067"><ele>1261.4126</ele><time>2026-08-16T01:21:24.000Z</time></trkpt>
        <trkpt lat="28.159946" lon="105.780645"><ele>1261.8811</ele><time>2026-08-16T01:21:26.000Z</time></trkpt>
        <trkpt lat="28.159958" lon="105.780616"><ele>1262.0303</ele><time>2026-08-16T01:21:28.000Z</time></trkpt>
        <trkpt lat="28.159971" lon="105.780585"><ele>1262.5127</ele><time>2026-08-16T01:21:30.000Z</time></trkpt>
        <trkpt lat="28.159987" lon="105.780554"><ele>1261.6703</ele><time>2026-08-16T01:21:32.000Z</time></trkpt>
        <trkpt lat="28.160004" lon="105.780529"><ele>1260.8503</ele><time>2026-08-16T01:21:34.000Z</time></trkpt>
        <trkpt lat="28.160022" lon="105.780507"><ele>1259.2444</ele><time>2026-08-16T01:21:36.000Z</time></trkpt>
        <trkpt lat="28.16004" lon="105.780487"><ele>1257.495</ele><time>2026-08-16T01:21:37.000Z</time></trkpt>
        <trkpt lat="28.160059" lon="105.780466"><ele>1255.3433</ele><time>2026-08-16T01:21:39.000Z</time></trkpt>
        <trkpt lat="28.160078" lon="105.780444"><ele>1253.348</ele><time>2026-08-16T01:21:41.000Z</time></trkpt>
        <trkpt lat="28.160094" lon="105.780422"><ele>1251.9106</ele><time>2026-08-16T01:21:43.000Z</time></trkpt>
        <trkpt lat="28.160108" lon="105.780401"><ele>1250.619</ele><time>2026-08-16T01:21:45.000Z</time></trkpt>
        <trkpt lat="28.160122" lon="105.780379"><ele>1249.717</ele><time>2026-08-16T01:21:47.000Z</time></trkpt>
        <trkpt lat="28.160135" lon="105.780359"><ele>1248.8589</ele><time>2026-08-16T01:21:49.000Z</time></trkpt>
        <trkpt lat="28.160145" lon="105.780338"><ele>1248.6431</ele><time>2026-08-16T01:21:51.000Z</time></trkpt>
        <trkpt lat="28.160155" lon="105.780317"><ele>1249.4927</ele><time>2026-08-16T01:21:53.000Z</time></trkpt>
        <trkpt lat="28.160166" lon="105.780294"><ele>1249.815</ele><time>2026-08-16T01:21:55.000Z</time></trkpt>
        <trkpt lat="28.160177" lon="105.780269"><ele>1250.5027</ele><time>2026-08-16T01:21:57.000Z</time></trkpt>
        <trkpt lat="28.160187" lon="105.780244"><ele>1251.9088</ele><time>2026-08-16T01:21:59.000Z</time></trkpt>
        <trkpt lat="28.160199" lon="105.780218"><ele>1251.9852</ele><time>2026-08-16T01:22:01.000Z</time></trkpt>
        <trkpt lat="28.160214" lon="105.780194"><ele>1251.7197</ele><time>2026-08-16T01:22:04.000Z</time></trkpt>
        <trkpt lat="28.160228" lon="105.780171"><ele>1251.6116</ele><time>2026-08-16T01:22:06.000Z</time></trkpt>
        <trkpt lat="28.160244" lon="105.780151"><ele>1251.0432</ele><time>2026-08-16T01:22:08.000Z</time></trkpt>
        <trkpt lat="28.16026" lon="105.78013"><ele>1251.4679</ele><time>2026-08-16T01:22:10.000Z</time></trkpt>
        <trkpt lat="28.160276" lon="105.78011"><ele>1251.8906</ele><time>2026-08-16T01:22:12.000Z</time></trkpt>
        <trkpt lat="28.160292" lon="105.78009"><ele>1252.0942</ele><time>2026-08-16T01:22:14.000Z</time></trkpt>
        <trkpt lat="28.16031" lon="105.78007"><ele>1252.4225</ele><time>2026-08-16T01:22:16.000Z</time></trkpt>
        <trkpt lat="28.160327" lon="105.780049"><ele>1253.3064</ele><time>2026-08-16T01:22:18.000Z</time></trkpt>
        <trkpt lat="28.160344" lon="105.780027"><ele>1254.1493</ele><time>2026-08-16T01:22:20.000Z</time></trkpt>
        <trkpt lat="28.160361" lon="105.780008"><ele>1254.4314</ele><time>2026-08-16T01:22:22.000Z</time></trkpt>
        <trkpt lat="28.160377" lon="105.779991"><ele>1254.4214</ele><time>2026-08-16T01:22:24.000Z</time></trkpt>
        <trkpt lat="28.160393" lon="105.779975"><ele>1254.8964</ele><time>2026-08-16T01:22:26.000Z</time></trkpt>
        <trkpt lat="28.160412" lon="105.779959"><ele>1255.0704</ele><time>2026-08-16T01:22:28.000Z</time></trkpt>
        <trkpt lat="28.160429" lon="105.779945"><ele>1255.6632</ele><time>2026-08-16T01:22:30.000Z</time></trkpt>
        <trkpt lat="28.160448" lon="105.779932"><ele>1256.0476</ele><time>2026-08-16T01:22:32.000Z</time></trkpt>
        <trkpt lat="28.160464" lon="105.779918"><ele>1255.8508</ele><time>2026-08-16T01:22:34.000Z</time></trkpt>
        <trkpt lat="28.16048" lon="105.779904"><ele>1255.2668</ele><time>2026-08-16T01:22:36.000Z</time></trkpt>
        <trkpt lat="28.160497" lon="105.779886"><ele>1255.2864</ele><time>2026-08-16T01:22:38.000Z</time></trkpt>
        <trkpt lat="28.160516" lon="105.779864"><ele>1256.6274</ele><time>2026-08-16T01:22:40.000Z</time></trkpt>
        <trkpt lat="28.160534" lon="105.779844"><ele>1256.9897</ele><time>2026-08-16T01:22:42.000Z</time></trkpt>
        <trkpt lat="28.160549" lon="105.779828"><ele>1257.8776</ele><time>2026-08-16T01:22:44.000Z</time></trkpt>
        <trkpt lat="28.160568" lon="105.779812"><ele>1257.738</ele><time>2026-08-16T01:22:46.000Z</time></trkpt>
        <trkpt lat="28.160587" lon="105.779796"><ele>1257.5779</ele><time>2026-08-16T01:22:48.000Z</time></trkpt>
        <trkpt lat="28.160606" lon="105.779782"><ele>1257.7617</ele><time>2026-08-16T01:22:50.000Z</time></trkpt>
        <trkpt lat="28.160627" lon="105.779767"><ele>1257.9602</ele><time>2026-08-16T01:22:52.000Z</time></trkpt>
        <trkpt lat="28.160647" lon="105.779755"><ele>1258.0858</ele><time>2026-08-16T01:22:54.000Z</time></trkpt>
        <trkpt lat="28.160667" lon="105.779742"><ele>1257.8175</ele><time>2026-08-16T01:22:56.000Z</time></trkpt>
        <trkpt lat="28.160683" lon="105.77973"><ele>1257.3007</ele><time>2026-08-16T01:22:58.000Z</time></trkpt>
        <trkpt lat="28.1607" lon="105.779716"><ele>1256.6057</ele><time>2026-08-16T01:23:00.000Z</time></trkpt>
        <trkpt lat="28.160715" lon="105.779701"><ele>1258.0969</ele><time>2026-08-16T01:23:02.000Z</time></trkpt>
        <trkpt lat="28.160731" lon="105.779684"><ele>1258.9285</ele><time>2026-08-16T01:23:04.000Z</time></trkpt>
        <trkpt lat="28.160745" lon="105.779666"><ele>1259.4893</ele><time>2026-08-16T01:23:06.000Z</time></trkpt>
        <trkpt lat="28.160759" lon="105.779648"><ele>1260.474</ele><time>2026-08-16T01:23:08.000Z</time></trkpt>
        <trkpt lat="28.160776" lon="105.779628"><ele>1259.7996</ele><time>2026-08-16T01:23:10.000Z</time></trkpt>
        <trkpt lat="28.160791" lon="105.779611"><ele>1260.6273</ele><time>2026-08-16T01:23:12.000Z</time></trkpt>
        <trkpt lat="28.160808" lon="105.779589"><ele>1260.715</ele><time>2026-08-16T01:23:14.000Z</time></trkpt>
        <trkpt lat="28.160823" lon="105.779569"><ele>1260.1788</ele><time>2026-08-16T01:23:16.000Z</time></trkpt>
        <trkpt lat="28.160838" lon="105.779551"><ele>1260.3911</ele><time>2026-08-16T01:23:18.000Z</time></trkpt>
        <trkpt lat="28.160856" lon="105.779531"><ele>1260.179</ele><time>2026-08-16T01:23:20.000Z</time></trkpt>
        <trkpt lat="28.160876" lon="105.779509"><ele>1260.4171</ele><time>2026-08-16T01:23:22.000Z</time></trkpt>
        <trkpt lat="28.160893" lon="105.77949"><ele>1261.5278</ele><time>2026-08-16T01:23:24.000Z</time></trkpt>
        <trkpt lat="28.160911" lon="105.779468"><ele>1262.3617</ele><time>2026-08-16T01:23:26.000Z</time></trkpt>
        <trkpt lat="28.160925" lon="105.779449"><ele>1263.1478</ele><time>2026-08-16T01:23:28.000Z</time></trkpt>
        <trkpt lat="28.160937" lon="105.779427"><ele>1264.3434</ele><time>2026-08-16T01:23:30.000Z</time></trkpt>
        <trkpt lat="28.160949" lon="105.779406"><ele>1263.5035</ele><time>2026-08-16T01:23:32.000Z</time></trkpt>
        <trkpt lat="28.160963" lon="105.779381"><ele>1263.8728</ele><time>2026-08-16T01:23:34.000Z</time></trkpt>
        <trkpt lat="28.160975" lon="105.779355"><ele>1265.7692</ele><time>2026-08-16T01:23:36.000Z</time></trkpt>
        <trkpt lat="28.160983" lon="105.779334"><ele>1265.7823</ele><time>2026-08-16T01:23:38.000Z</time></trkpt>
        <trkpt lat="28.16099" lon="105.77931"><ele>1264.1597</ele><time>2026-08-16T01:23:40.000Z</time></trkpt>
        <trkpt lat="28.160997" lon="105.779284"><ele>1264.1162</ele><time>2026-08-16T01:23:42.000Z</time></trkpt>
        <trkpt lat="28.161004" lon="105.779261"><ele>1265.0665</ele><time>2026-08-16T01:23:43.000Z</time></trkpt>
        <trkpt lat="28.161011" lon="105.779239"><ele>1265.6522</ele><time>2026-08-16T01:23:45.000Z</time></trkpt>
        <trkpt lat="28.16102" lon="105.779219"><ele>1264.6696</ele><time>2026-08-16T01:23:47.000Z</time></trkpt>
        <trkpt lat="28.161031" lon="105.779199"><ele>1263.4384</ele><time>2026-08-16T01:23:49.000Z</time></trkpt>
        <trkpt lat="28.161041" lon="105.77918"><ele>1263.202</ele><time>2026-08-16T01:23:51.000Z</time></trkpt>
        <trkpt lat="28.161051" lon="105.779161"><ele>1262.962</ele><time>2026-08-16T01:23:53.000Z</time></trkpt>
        <trkpt lat="28.161062" lon="105.779143"><ele>1262.4325</ele><time>2026-08-16T01:23:55.000Z</time></trkpt>
        <trkpt lat="28.161069" lon="105.779127"><ele>1261.202</ele><time>2026-08-16T01:23:57.000Z</time></trkpt>
        <trkpt lat="28.161077" lon="105.779108"><ele>1261.4861</ele><time>2026-08-16T01:24:00.000Z</time></trkpt>
        <trkpt lat="28.161084" lon="105.77909"><ele>1260.4153</ele><time>2026-08-16T01:24:02.000Z</time></trkpt>
        <trkpt lat="28.161095" lon="105.779069"><ele>1260.2034</ele><time>2026-08-16T01:24:04.000Z</time></trkpt>
        <trkpt lat="28.161108" lon="105.77905"><ele>1259.9613</ele><time>2026-08-16T01:24:06.000Z</time></trkpt>
        <trkpt lat="28.161121" lon="105.779032"><ele>1260.6193</ele><time>2026-08-16T01:24:08.000Z</time></trkpt>
        <trkpt lat="28.161134" lon="105.779013"><ele>1260.8411</ele><time>2026-08-16T01:24:10.000Z</time></trkpt>
        <trkpt lat="28.161145" lon="105.778992"><ele>1261.2699</ele><time>2026-08-16T01:24:12.000Z</time></trkpt>
        <trkpt lat="28.161157" lon="105.778969"><ele>1261.8313</ele><time>2026-08-16T01:24:14.000Z</time></trkpt>
        <trkpt lat="28.16117" lon="105.778939"><ele>1261.5065</ele><time>2026-08-16T01:24:16.000Z</time></trkpt>
        <trkpt lat="28.161182" lon="105.778912"><ele>1261.7103</ele><time>2026-08-16T01:24:18.000Z</time></trkpt>
        <trkpt lat="28.161193" lon="105.778887"><ele>1260.5009</ele><time>2026-08-16T01:24:20.000Z</time></trkpt>
        <trkpt lat="28.161201" lon="105.778863"><ele>1260.7584</ele><time>2026-08-16T01:24:22.000Z</time></trkpt>
        <trkpt lat="28.161208" lon="105.778836"><ele>1260.3208</ele><time>2026-08-16T01:24:24.000Z</time></trkpt>
        <trkpt lat="28.161214" lon="105.778809"><ele>1260.4775</ele><time>2026-08-16T01:24:26.000Z</time></trkpt>
        <trkpt lat="28.16122" lon="105.778786"><ele>1259.8699</ele><time>2026-08-16T01:24:28.000Z</time></trkpt>
        <trkpt lat="28.161228" lon="105.778762"><ele>1259.0157</ele><time>2026-08-16T01:24:30.000Z</time></trkpt>
        <trkpt lat="28.161237" lon="105.778739"><ele>1258.3634</ele><time>2026-08-16T01:24:32.000Z</time></trkpt>
        <trkpt lat="28.161245" lon="105.778718"><ele>1258.8207</ele><time>2026-08-16T01:24:34.000Z</time></trkpt>
        <trkpt lat="28.161254" lon="105.778696"><ele>1258.7922</ele><time>2026-08-16T01:24:36.000Z</time></trkpt>
        <trkpt lat="28.161264" lon="105.778673"><ele>1258.5255</ele><time>2026-08-16T01:24:38.000Z</time></trkpt>
        <trkpt lat="28.161274" lon="105.778649"><ele>1258.019</ele><time>2026-08-16T01:24:40.000Z</time></trkpt>
        <trkpt lat="28.161283" lon="105.778623"><ele>1257.459</ele><time>2026-08-16T01:24:42.000Z</time></trkpt>
        <trkpt lat="28.161289" lon="105.7786"><ele>1258.4197</ele><time>2026-08-16T01:24:44.000Z</time></trkpt>
        <trkpt lat="28.161293" lon="105.778575"><ele>1259.395</ele><time>2026-08-16T01:24:46.000Z</time></trkpt>
        <trkpt lat="28.161296" lon="105.778548"><ele>1260.2579</ele><time>2026-08-16T01:24:48.000Z</time></trkpt>
        <trkpt lat="28.161298" lon="105.778523"><ele>1260.6749</ele><time>2026-08-16T01:24:50.000Z</time></trkpt>
        <trkpt lat="28.161304" lon="105.778496"><ele>1259.8307</ele><time>2026-08-16T01:24:52.000Z</time></trkpt>
        <trkpt lat="28.161308" lon="105.778476"><ele>1260.3184</ele><time>2026-08-16T01:24:54.000Z</time></trkpt>
        <trkpt lat="28.16131" lon="105.778461"><ele>1260.8066</ele><time>2026-08-16T01:24:56.000Z</time></trkpt>
        <trkpt lat="28.161314" lon="105.778445"><ele>1261.6721</ele><time>2026-08-16T01:24:58.000Z</time></trkpt>
        <trkpt lat="28.161316" lon="105.778425"><ele>1261.5533</ele><time>2026-08-16T01:25:00.000Z</time></trkpt>
        <trkpt lat="28.161317" lon="105.778402"><ele>1261.962</ele><time>2026-08-16T01:25:02.000Z</time></trkpt>
        <trkpt lat="28.161316" lon="105.778377"><ele>1261.928</ele><time>2026-08-16T01:25:04.000Z</time></trkpt>
        <trkpt lat="28.161314" lon="105.778348"><ele>1261.7689</ele><time>2026-08-16T01:25:06.000Z</time></trkpt>
        <trkpt lat="28.161313" lon="105.778322"><ele>1261.6951</ele><time>2026-08-16T01:25:08.000Z</time></trkpt>
        <trkpt lat="28.161311" lon="105.778296"><ele>1262.2866</ele><time>2026-08-16T01:25:10.000Z</time></trkpt>
        <trkpt lat="28.161311" lon="105.778266"><ele>1262.7314</ele><time>2026-08-16T01:25:12.000Z</time></trkpt>
        <trkpt lat="28.161313" lon="105.778235"><ele>1262.7153</ele><time>2026-08-16T01:25:14.000Z</time></trkpt>
        <trkpt lat="28.161317" lon="105.778205"><ele>1262.5928</ele><time>2026-08-16T01:25:16.000Z</time></trkpt>
        <trkpt lat="28.161323" lon="105.778177"><ele>1262.264</ele><time>2026-08-16T01:25:18.000Z</time></trkpt>
        <trkpt lat="28.161329" lon="105.778151"><ele>1261.8895</ele><time>2026-08-16T01:25:20.000Z</time></trkpt>
        <trkpt lat="28.161335" lon="105.778123"><ele>1261.7728</ele><time>2026-08-16T01:25:22.000Z</time></trkpt>
        <trkpt lat="28.161343" lon="105.778098"><ele>1262.5149</ele><time>2026-08-16T01:25:24.000Z</time></trkpt>
        <trkpt lat="28.16135" lon="105.778068"><ele>1260.9984</ele><time>2026-08-16T01:25:26.000Z</time></trkpt>
        <trkpt lat="28.161356" lon="105.778039"><ele>1259.9897</ele><time>2026-08-16T01:25:28.000Z</time></trkpt>
        <trkpt lat="28.161363" lon="105.778013"><ele>1259.6814</ele><time>2026-08-16T01:25:30.000Z</time></trkpt>
        <trkpt lat="28.161371" lon="105.77799"><ele>1259.7355</ele><time>2026-08-16T01:25:32.000Z</time></trkpt>
        <trkpt lat="28.161381" lon="105.77797"><ele>1259.0417</ele><time>2026-08-16T01:25:34.000Z</time></trkpt>
        <trkpt lat="28.161391" lon="105.77795"><ele>1259.672</ele><time>2026-08-16T01:25:36.000Z</time></trkpt>
        <trkpt lat="28.161403" lon="105.777934"><ele>1259.7336</ele><time>2026-08-16T01:25:38.000Z</time></trkpt>
        <trkpt lat="28.161417" lon="105.777916"><ele>1259.6666</ele><time>2026-08-16T01:25:40.000Z</time></trkpt>
        <trkpt lat="28.161431" lon="105.7779"><ele>1259.29</ele><time>2026-08-16T01:25:42.000Z</time></trkpt>
        <trkpt lat="28.161444" lon="105.777883"><ele>1259.7251</ele><time>2026-08-16T01:25:44.000Z</time></trkpt>
        <trkpt lat="28.161454" lon="105.777863"><ele>1259.5796</ele><time>2026-08-16T01:25:46.000Z</time></trkpt>
        <trkpt lat="28.161463" lon="105.777841"><ele>1260.6066</ele><time>2026-08-16T01:25:48.000Z</time></trkpt>
        <trkpt lat="28.161471" lon="105.777817"><ele>1260.9926</ele><time>2026-08-16T01:25:50.000Z</time></trkpt>
        <trkpt lat="28.161481" lon="105.777789"><ele>1260.9808</ele><time>2026-08-16T01:25:52.000Z</time></trkpt>
        <trkpt lat="28.16149" lon="105.777762"><ele>1261.2196</ele><time>2026-08-16T01:25:54.000Z</time></trkpt>
        <trkpt lat="28.161498" lon="105.777735"><ele>1261.4028</ele><time>2026-08-16T01:25:56.000Z</time></trkpt>
        <trkpt lat="28.161506" lon="105.777709"><ele>1261.0499</ele><time>2026-08-16T01:25:58.000Z</time></trkpt>
        <trkpt lat="28.161513" lon="105.777683"><ele>1260.8882</ele><time>2026-08-16T01:26:00.000Z</time></trkpt>
        <trkpt lat="28.16152" lon="105.777657"><ele>1260.1112</ele><time>2026-08-16T01:26:02.000Z</time></trkpt>
        <trkpt lat="28.161527" lon="105.777634"><ele>1260.5651</ele><time>2026-08-16T01:26:04.000Z</time></trkpt>
        <trkpt lat="28.161535" lon="105.777609"><ele>1260.1841</ele><time>2026-08-16T01:26:06.000Z</time></trkpt>
        <trkpt lat="28.161543" lon="105.777585"><ele>1260.307</ele><time>2026-08-16T01:26:08.000Z</time></trkpt>
        <trkpt lat="28.161552" lon="105.777561"><ele>1260.2625</ele><time>2026-08-16T01:26:10.000Z</time></trkpt>
        <trkpt lat="28.161561" lon="105.777536"><ele>1260.5435</ele><time>2026-08-16T01:26:12.000Z</time></trkpt>
        <trkpt lat="28.161569" lon="105.777514"><ele>1260.219</ele><time>2026-08-16T01:26:14.000Z</time></trkpt>
        <trkpt lat="28.161578" lon="105.777487"><ele>1259.6631</ele><time>2026-08-16T01:26:16.000Z</time></trkpt>
        <trkpt lat="28.161584" lon="105.77746"><ele>1259.3597</ele><time>2026-08-16T01:26:18.000Z</time></trkpt>
        <trkpt lat="28.161592" lon="105.777432"><ele>1259.6698</ele><time>2026-08-16T01:26:20.000Z</time></trkpt>
        <trkpt lat="28.161601" lon="105.777405"><ele>1258.7642</ele><time>2026-08-16T01:26:22.000Z</time></trkpt>
        <trkpt lat="28.161612" lon="105.777374"><ele>1258.1442</ele><time>2026-08-16T01:26:24.000Z</time></trkpt>
        <trkpt lat="28.16162" lon="105.777348"><ele>1258.6376</ele><time>2026-08-16T01:26:26.000Z</time></trkpt>
        <trkpt lat="28.161624" lon="105.777324"><ele>1259.1609</ele><time>2026-08-16T01:26:28.000Z</time></trkpt>
        <trkpt lat="28.161626" lon="105.7773"><ele>1258.9003</ele><time>2026-08-16T01:26:30.000Z</time></trkpt>
        <trkpt lat="28.161629" lon="105.777275"><ele>1259.9312</ele><time>2026-08-16T01:26:32.000Z</time></trkpt>
        <trkpt lat="28.161632" lon="105.777247"><ele>1260.1533</ele><time>2026-08-16T01:26:34.000Z</time></trkpt>
        <trkpt lat="28.161636" lon="105.777215"><ele>1259.9525</ele><time>2026-08-16T01:26:36.000Z</time></trkpt>
        <trkpt lat="28.161642" lon="105.777188"><ele>1260.4598</ele><time>2026-08-16T01:26:38.000Z</time></trkpt>
        <trkpt lat="28.161649" lon="105.777162"><ele>1259.675</ele><time>2026-08-16T01:26:40.000Z</time></trkpt>
        <trkpt lat="28.161657" lon="105.777136"><ele>1259.9775</ele><time>2026-08-16T01:26:42.000Z</time></trkpt>
        <trkpt lat="28.161667" lon="105.77711"><ele>1260.134</ele><time>2026-08-16T01:26:44.000Z</time></trkpt>
        <trkpt lat="28.161677" lon="105.777089"><ele>1260.6339</ele><time>2026-08-16T01:26:46.000Z</time></trkpt>
        <trkpt lat="28.161686" lon="105.777071"><ele>1261.0566</ele><time>2026-08-16T01:26:48.000Z</time></trkpt>
        <trkpt lat="28.161694" lon="105.777052"><ele>1261.3285</ele><time>2026-08-16T01:26:50.000Z</time></trkpt>
        <trkpt lat="28.161704" lon="105.777033"><ele>1261.9559</ele><time>2026-08-16T01:26:52.000Z</time></trkpt>
        <trkpt lat="28.161713" lon="105.777015"><ele>1263.957</ele><time>2026-08-16T01:26:54.000Z</time></trkpt>
        <trkpt lat="28.161718" lon="105.777004"><ele>1263.8121</ele><time>2026-08-16T01:26:56.000Z</time></trkpt>
        <trkpt lat="28.161723" lon="105.776992"><ele>1263.7025</ele><time>2026-08-16T01:26:58.000Z</time></trkpt>
        <trkpt lat="28.161731" lon="105.776977"><ele>1263.8757</ele><time>2026-08-16T01:27:00.000Z</time></trkpt>
        <trkpt lat="28.161741" lon="105.776958"><ele>1264.1022</ele><time>2026-08-16T01:27:02.000Z</time></trkpt>
        <trkpt lat="28.161754" lon="105.776936"><ele>1264.0005</ele><time>2026-08-16T01:27:04.000Z</time></trkpt>
        <trkpt lat="28.161768" lon="105.776913"><ele>1263.1736</ele><time>2026-08-16T01:27:06.000Z</time></trkpt>
        <trkpt lat="28.161781" lon="105.77689"><ele>1262.8835</ele><time>2026-08-16T01:27:08.000Z</time></trkpt>
        <trkpt lat="28.161796" lon="105.776866"><ele>1262.5652</ele><time>2026-08-16T01:27:10.000Z</time></trkpt>
        <trkpt lat="28.161808" lon="105.776845"><ele>1262.2083</ele><time>2026-08-16T01:27:12.000Z</time></trkpt>
        <trkpt lat="28.161822" lon="105.776825"><ele>1262.3251</ele><time>2026-08-16T01:27:14.000Z</time></trkpt>
        <trkpt lat="28.161835" lon="105.776805"><ele>1262.2858</ele><time>2026-08-16T01:27:16.000Z</time></trkpt>
        <trkpt lat="28.161847" lon="105.776782"><ele>1262.9565</ele><time>2026-08-16T01:27:18.000Z</time></trkpt>
        <trkpt lat="28.16186" lon="105.776758"><ele>1263.7333</ele><time>2026-08-16T01:27:20.000Z</time></trkpt>
        <trkpt lat="28.161871" lon="105.776734"><ele>1264.0144</ele><time>2026-08-16T01:27:22.000Z</time></trkpt>
        <trkpt lat="28.161882" lon="105.77671"><ele>1264.6914</ele><time>2026-08-16T01:27:24.000Z</time></trkpt>
        <trkpt lat="28.161895" lon="105.776686"><ele>1265.1519</ele><time>2026-08-16T01:27:26.000Z</time></trkpt>
        <trkpt lat="28.161908" lon="105.776667"><ele>1264.9343</ele><time>2026-08-16T01:27:28.000Z</time></trkpt>
        <trkpt lat="28.161924" lon="105.776652"><ele>1265.2062</ele><time>2026-08-16T01:27:30.000Z</time></trkpt>
        <trkpt lat="28.161944" lon="105.776637"><ele>1265.9254</ele><time>2026-08-16T01:27:32.000Z</time></trkpt>
        <trkpt lat="28.161964" lon="105.776625"><ele>1266.0106</ele><time>2026-08-16T01:27:34.000Z</time></trkpt>
        <trkpt lat="28.161983" lon="105.776615"><ele>1265.7983</ele><time>2026-08-16T01:27:36.000Z</time></trkpt>
        <trkpt lat="28.162005" lon="105.776605"><ele>1266.8013</ele><time>2026-08-16T01:27:38.000Z</time></trkpt>
        <trkpt lat="28.162027" lon="105.776596"><ele>1267.0199</ele><time>2026-08-16T01:27:40.000Z</time></trkpt>
        <trkpt lat="28.162048" lon="105.776587"><ele>1267.0708</ele><time>2026-08-16T01:27:42.000Z</time></trkpt>
        <trkpt lat="28.16207" lon="105.776578"><ele>1267.0359</ele><time>2026-08-16T01:27:44.000Z</time></trkpt>
        <trkpt lat="28.162092" lon="105.776567"><ele>1266.0784</ele><time>2026-08-16T01:27:46.000Z</time></trkpt>
        <trkpt lat="28.162114" lon="105.776555"><ele>1266.1415</ele><time>2026-08-16T01:27:48.000Z</time></trkpt>
        <trkpt lat="28.162128" lon="105.776548"><ele>1265.8157</ele><time>2026-08-16T01:27:50.000Z</time></trkpt>
        <trkpt lat="28.162132" lon="105.776546"><ele>1264.556</ele><time>2026-08-16T01:27:52.000Z</time></trkpt>
        <trkpt lat="28.162146" lon="105.776538"><ele>1264.1064</ele><time>2026-08-16T01:28:09.000Z</time></trkpt>
        <trkpt lat="28.162164" lon="105.776526"><ele>1263.7345</ele><time>2026-08-16T01:28:15.000Z</time></trkpt>
        <trkpt lat="28.162186" lon="105.776507"><ele>1263.3435</ele><time>2026-08-16T01:28:17.000Z</time></trkpt>
        <trkpt lat="28.16221" lon="105.77648"><ele>1262.6625</ele><time>2026-08-16T01:28:19.000Z</time></trkpt>
        <trkpt lat="28.16225" lon="105.776436"><ele>1263.1635</ele><time>2026-08-16T01:28:21.000Z</time></trkpt>
        <trkpt lat="28.162253" lon="105.776433"><ele>1264.2656</ele><time>2026-08-16T01:28:23.000Z</time></trkpt>
        <trkpt lat="28.162256" lon="105.77643"><ele>1265.0774</ele><time>2026-08-16T01:28:25.000Z</time></trkpt>
        <trkpt lat="28.162302" lon="105.776384"><ele>1267.0503</ele><time>2026-08-16T01:28:29.000Z</time></trkpt>
        <trkpt lat="28.162333" lon="105.776351"><ele>1268.3513</ele><time>2026-08-16T01:28:31.000Z</time></trkpt>
        <trkpt lat="28.162364" lon="105.776318"><ele>1269.2722</ele><time>2026-08-16T01:28:33.000Z</time></trkpt>
        <trkpt lat="28.162393" lon="105.77629"><ele>1269.7737</ele><time>2026-08-16T01:28:35.000Z</time></trkpt>
        <trkpt lat="28.162416" lon="105.776263"><ele>1270.7205</ele><time>2026-08-16T01:28:37.000Z</time></trkpt>
        <trkpt lat="28.162432" lon="105.776236"><ele>1271.844</ele><time>2026-08-16T01:28:39.000Z</time></trkpt>
        <trkpt lat="28.16245" lon="105.776205"><ele>1273.1921</ele><time>2026-08-16T01:28:41.000Z</time></trkpt>
        <trkpt lat="28.162465" lon="105.77618"><ele>1273.3108</ele><time>2026-08-16T01:28:43.000Z</time></trkpt>
        <trkpt lat="28.162477" lon="105.776155"><ele>1274.0493</ele><time>2026-08-16T01:28:45.000Z</time></trkpt>
        <trkpt lat="28.162488" lon="105.776129"><ele>1274.0306</ele><time>2026-08-16T01:28:47.000Z</time></trkpt>
        <trkpt lat="28.1625" lon="105.7761"><ele>1274.4686</ele><time>2026-08-16T01:28:49.000Z</time></trkpt>
        <trkpt lat="28.16251" lon="105.776072"><ele>1274.4956</ele><time>2026-08-16T01:28:51.000Z</time></trkpt>
        <trkpt lat="28.162521" lon="105.776044"><ele>1275.0769</ele><time>2026-08-16T01:28:53.000Z</time></trkpt>
        <trkpt lat="28.162532" lon="105.776016"><ele>1275.6615</ele><time>2026-08-16T01:28:55.000Z</time></trkpt>
        <trkpt lat="28.162547" lon="105.775987"><ele>1276.1215</ele><time>2026-08-16T01:28:57.000Z</time></trkpt>
        <trkpt lat="28.162562" lon="105.775962"><ele>1276.3998</ele><time>2026-08-16T01:28:59.000Z</time></trkpt>
        <trkpt lat="28.16258" lon="105.775942"><ele>1276.0477</ele><time>2026-08-16T01:29:01.000Z</time></trkpt>
        <trkpt lat="28.162595" lon="105.775927"><ele>1276.4891</ele><time>2026-08-16T01:29:03.000Z</time></trkpt>
        <trkpt lat="28.162608" lon="105.775913"><ele>1277.0817</ele><time>2026-08-16T01:29:05.000Z</time></trkpt>
        <trkpt lat="28.162618" lon="105.775897"><ele>1276.934</ele><time>2026-08-16T01:29:07.000Z</time></trkpt>
        <trkpt lat="28.162628" lon="105.775877"><ele>1275.7075</ele><time>2026-08-16T01:29:09.000Z</time></trkpt>
        <trkpt lat="28.162639" lon="105.775853"><ele>1274.9993</ele><time>2026-08-16T01:29:11.000Z</time></trkpt>
        <trkpt lat="28.162651" lon="105.775831"><ele>1275.2097</ele><time>2026-08-16T01:29:13.000Z</time></trkpt>
        <trkpt lat="28.162664" lon="105.77581"><ele>1274.8207</ele><time>2026-08-16T01:29:15.000Z</time></trkpt>
        <trkpt lat="28.162677" lon="105.775792"><ele>1274.6802</ele><time>2026-08-16T01:29:17.000Z</time></trkpt>
        <trkpt lat="28.162686" lon="105.775777"><ele>1275.2595</ele><time>2026-08-16T01:29:19.000Z</time></trkpt>
        <trkpt lat="28.162695" lon="105.775758"><ele>1275.3516</ele><time>2026-08-16T01:29:21.000Z</time></trkpt>
        <trkpt lat="28.162704" lon="105.775736"><ele>1274.7855</ele><time>2026-08-16T01:29:23.000Z</time></trkpt>
        <trkpt lat="28.162713" lon="105.775715"><ele>1274.7972</ele><time>2026-08-16T01:29:25.000Z</time></trkpt>
        <trkpt lat="28.16272" lon="105.775697"><ele>1275.2518</ele><time>2026-08-16T01:29:27.000Z</time></trkpt>
        <trkpt lat="28.162726" lon="105.775683"><ele>1275.2784</ele><time>2026-08-16T01:29:29.000Z</time></trkpt>
        <trkpt lat="28.162731" lon="105.775671"><ele>1275.0095</ele><time>2026-08-16T01:29:31.000Z</time></trkpt>
        <trkpt lat="28.162736" lon="105.775656"><ele>1275.4863</ele><time>2026-08-16T01:29:33.000Z</time></trkpt>
        <trkpt lat="28.162741" lon="105.775638"><ele>1275.5673</ele><time>2026-08-16T01:29:35.000Z</time></trkpt>
        <trkpt lat="28.162747" lon="105.775613"><ele>1275.3055</ele><time>2026-08-16T01:29:37.000Z</time></trkpt>
        <trkpt lat="28.162753" lon="105.775585"><ele>1273.9799</ele><time>2026-08-16T01:29:39.000Z</time></trkpt>
        <trkpt lat="28.162757" lon="105.775555"><ele>1274.1742</ele><time>2026-08-16T01:29:41.000Z</time></trkpt>
        <trkpt lat="28.162759" lon="105.775526"><ele>1274.7501</ele><time>2026-08-16T01:29:43.000Z</time></trkpt>
        <trkpt lat="28.162761" lon="105.775501"><ele>1275.5967</ele><time>2026-08-16T01:29:45.000Z</time></trkpt>
        <trkpt lat="28.162763" lon="105.775479"><ele>1276.3871</ele><time>2026-08-16T01:29:47.000Z</time></trkpt>
        <trkpt lat="28.162763" lon="105.775458"><ele>1276.7985</ele><time>2026-08-16T01:29:49.000Z</time></trkpt>
        <trkpt lat="28.162763" lon="105.775436"><ele>1277.499</ele><time>2026-08-16T01:29:51.000Z</time></trkpt>
        <trkpt lat="28.162764" lon="105.775412"><ele>1278.1211</ele><time>2026-08-16T01:29:53.000Z</time></trkpt>
        <trkpt lat="28.162763" lon="105.775385"><ele>1276.9427</ele><time>2026-08-16T01:29:55.000Z</time></trkpt>
        <trkpt lat="28.162763" lon="105.775354"><ele>1277.2922</ele><time>2026-08-16T01:29:57.000Z</time></trkpt>
        <trkpt lat="28.162763" lon="105.775318"><ele>1277.1829</ele><time>2026-08-16T01:29:59.000Z</time></trkpt>
        <trkpt lat="28.162766" lon="105.775281"><ele>1276.7146</ele><time>2026-08-16T01:30:01.000Z</time></trkpt>
        <trkpt lat="28.162769" lon="105.775253"><ele>1274.8634</ele><time>2026-08-16T01:30:03.000Z</time></trkpt>
        <trkpt lat="28.162771" lon="105.775227"><ele>1275.1741</ele><time>2026-08-16T01:30:05.000Z</time></trkpt>
        <trkpt lat="28.162775" lon="105.775201"><ele>1274.9683</ele><time>2026-08-16T01:30:07.000Z</time></trkpt>
        <trkpt lat="28.162778" lon="105.775174"><ele>1275.123</ele><time>2026-08-16T01:30:09.000Z</time></trkpt>
        <trkpt lat="28.162782" lon="105.775145"><ele>1274.6943</ele><time>2026-08-16T01:30:11.000Z</time></trkpt>
        <trkpt lat="28.162785" lon="105.775118"><ele>1274.5077</ele><time>2026-08-16T01:30:13.000Z</time></trkpt>
        <trkpt lat="28.16279" lon="105.775083"><ele>1272.7142</ele><time>2026-08-16T01:30:15.000Z</time></trkpt>
        <trkpt lat="28.162794" lon="105.775054"><ele>1271.6156</ele><time>2026-08-16T01:30:17.000Z</time></trkpt>
        <trkpt lat="28.162798" lon="105.775026"><ele>1271.0835</ele><time>2026-08-16T01:30:19.000Z</time></trkpt>
        <trkpt lat="28.162798" lon="105.775"><ele>1271.25</ele><time>2026-08-16T01:30:21.000Z</time></trkpt>
        <trkpt lat="28.162795" lon="105.774975"><ele>1271.282</ele><time>2026-08-16T01:30:23.000Z</time></trkpt>
        <trkpt lat="28.162792" lon="105.774952"><ele>1271.511</ele><time>2026-08-16T01:30:25.000Z</time></trkpt>
        <trkpt lat="28.162788" lon="105.774927"><ele>1270.8129</ele><time>2026-08-16T01:30:27.000Z</time></trkpt>
        <trkpt lat="28.162782" lon="105.774899"><ele>1269.6375</ele><time>2026-08-16T01:30:29.000Z</time></trkpt>
        <trkpt lat="28.162775" lon="105.774874"><ele>1269.5773</ele><time>2026-08-16T01:30:31.000Z</time></trkpt>
        <trkpt lat="28.162767" lon="105.774849"><ele>1269.0759</ele><time>2026-08-16T01:30:33.000Z</time></trkpt>
        <trkpt lat="28.162759" lon="105.774821"><ele>1268.7031</ele><time>2026-08-16T01:30:35.000Z</time></trkpt>
        <trkpt lat="28.162752" lon="105.774792"><ele>1269.6724</ele><time>2026-08-16T01:30:37.000Z</time></trkpt>
        <trkpt lat="28.162748" lon="105.774766"><ele>1269.9678</ele><time>2026-08-16T01:30:39.000Z</time></trkpt>
        <trkpt lat="28.162749" lon="105.774742"><ele>1269.9902</ele><time>2026-08-16T01:30:41.000Z</time></trkpt>
        <trkpt lat="28.162753" lon="105.774718"><ele>1269.8295</ele><time>2026-08-16T01:30:43.000Z</time></trkpt>
        <trkpt lat="28.162761" lon="105.774699"><ele>1269.9799</ele><time>2026-08-16T01:30:45.000Z</time></trkpt>
        <trkpt lat="28.162769" lon="105.774682"><ele>1270.8713</ele><time>2026-08-16T01:30:47.000Z</time></trkpt>
        <trkpt lat="28.162778" lon="105.774666"><ele>1270.2365</ele><time>2026-08-16T01:30:49.000Z</time></trkpt>
        <trkpt lat="28.162786" lon="105.774655"><ele>1270.1768</ele><time>2026-08-16T01:30:51.000Z</time></trkpt>
        <trkpt lat="28.162794" lon="105.774647"><ele>1269.7195</ele><time>2026-08-16T01:30:53.000Z</time></trkpt>
        <trkpt lat="28.162802" lon="105.774637"><ele>1270.1605</ele><time>2026-08-16T01:30:55.000Z</time></trkpt>
        <trkpt lat="28.16281" lon="105.774624"><ele>1270.0471</ele><time>2026-08-16T01:30:57.000Z</time></trkpt>
        <trkpt lat="28.162819" lon="105.774609"><ele>1269.8387</ele><time>2026-08-16T01:30:59.000Z</time></trkpt>
        <trkpt lat="28.16283" lon="105.774588"><ele>1270.2345</ele><time>2026-08-16T01:31:01.000Z</time></trkpt>
        <trkpt lat="28.162841" lon="105.774566"><ele>1271.2144</ele><time>2026-08-16T01:31:03.000Z</time></trkpt>
        <trkpt lat="28.162853" lon="105.774542"><ele>1271.7623</ele><time>2026-08-16T01:31:05.000Z</time></trkpt>
        <trkpt lat="28.162863" lon="105.774519"><ele>1271.6418</ele><time>2026-08-16T01:31:07.000Z</time></trkpt>
        <trkpt lat="28.162873" lon="105.774497"><ele>1271.6454</ele><time>2026-08-16T01:31:09.000Z</time></trkpt>
        <trkpt lat="28.162882" lon="105.774475"><ele>1272.36</ele><time>2026-08-16T01:31:11.000Z</time></trkpt>
        <trkpt lat="28.162894" lon="105.774451"><ele>1273.2145</ele><time>2026-08-16T01:31:13.000Z</time></trkpt>
        <trkpt lat="28.162905" lon="105.774429"><ele>1273.8049</ele><time>2026-08-16T01:31:15.000Z</time></trkpt>
        <trkpt lat="28.162916" lon="105.774406"><ele>1273.6234</ele><time>2026-08-16T01:31:17.000Z</time></trkpt>
        <trkpt lat="28.162926" lon="105.774384"><ele>1274.7686</ele><time>2026-08-16T01:31:19.000Z</time></trkpt>
        <trkpt lat="28.162934" lon="105.774362"><ele>1275.6299</ele><time>2026-08-16T01:31:21.000Z</time></trkpt>
        <trkpt lat="28.162942" lon="105.774342"><ele>1275.796</ele><time>2026-08-16T01:31:23.000Z</time></trkpt>
        <trkpt lat="28.162948" lon="105.774322"><ele>1276.3988</ele><time>2026-08-16T01:31:25.000Z</time></trkpt>
        <trkpt lat="28.162955" lon="105.774301"><ele>1276.7004</ele><time>2026-08-16T01:31:27.000Z</time></trkpt>
        <trkpt lat="28.16296" lon="105.774276"><ele>1277.4377</ele><time>2026-08-16T01:31:29.000Z</time></trkpt>
        <trkpt lat="28.162964" lon="105.774249"><ele>1276.7872</ele><time>2026-08-16T01:31:31.000Z</time></trkpt>
        <trkpt lat="28.162965" lon="105.774221"><ele>1277.7748</ele><time>2026-08-16T01:31:33.000Z</time></trkpt>
        <trkpt lat="28.162965" lon="105.774194"><ele>1278.5702</ele><time>2026-08-16T01:31:35.000Z</time></trkpt>
        <trkpt lat="28.162967" lon="105.774168"><ele>1278.8367</ele><time>2026-08-16T01:31:37.000Z</time></trkpt>
        <trkpt lat="28.16297" lon="105.774147"><ele>1279.4004</ele><time>2026-08-16T01:31:39.000Z</time></trkpt>
        <trkpt lat="28.162972" lon="105.774122"><ele>1279.2535</ele><time>2026-08-16T01:31:41.000Z</time></trkpt>
        <trkpt lat="28.162975" lon="105.774094"><ele>1278.042</ele><time>2026-08-16T01:31:43.000Z</time></trkpt>
        <trkpt lat="28.162977" lon="105.774064"><ele>1278.171</ele><time>2026-08-16T01:31:45.000Z</time></trkpt>
        <trkpt lat="28.162977" lon="105.774038"><ele>1277.4159</ele><time>2026-08-16T01:31:47.000Z</time></trkpt>
        <trkpt lat="28.162976" lon="105.774013"><ele>1277.2128</ele><time>2026-08-16T01:31:49.000Z</time></trkpt>
        <trkpt lat="28.162976" lon="105.773987"><ele>1276.6123</ele><time>2026-08-16T01:31:51.000Z</time></trkpt>
        <trkpt lat="28.162976" lon="105.77396"><ele>1276.0509</ele><time>2026-08-16T01:31:53.000Z</time></trkpt>
        <trkpt lat="28.162977" lon="105.773934"><ele>1275.6749</ele><time>2026-08-16T01:31:55.000Z</time></trkpt>
        <trkpt lat="28.162979" lon="105.773911"><ele>1276.0596</ele><time>2026-08-16T01:31:57.000Z</time></trkpt>
        <trkpt lat="28.162984" lon="105.773886"><ele>1276.5103</ele><time>2026-08-16T01:31:59.000Z</time></trkpt>
        <trkpt lat="28.162988" lon="105.773861"><ele>1277.036</ele><time>2026-08-16T01:32:01.000Z</time></trkpt>
        <trkpt lat="28.162994" lon="105.773838"><ele>1277.4202</ele><time>2026-08-16T01:32:03.000Z</time></trkpt>
        <trkpt lat="28.163" lon="105.773815"><ele>1277.6356</ele><time>2026-08-16T01:32:05.000Z</time></trkpt>
        <trkpt lat="28.163008" lon="105.773796"><ele>1277.4082</ele><time>2026-08-16T01:32:07.000Z</time></trkpt>
        <trkpt lat="28.163018" lon="105.773774"><ele>1277.7957</ele><time>2026-08-16T01:32:09.000Z</time></trkpt>
        <trkpt lat="28.163029" lon="105.773753"><ele>1278.35</ele><time>2026-08-16T01:32:11.000Z</time></trkpt>
        <trkpt lat="28.163041" lon="105.773734"><ele>1278.5685</ele><time>2026-08-16T01:32:13.000Z</time></trkpt>
        <trkpt lat="28.163055" lon="105.773716"><ele>1278.537</ele><time>2026-08-16T01:32:15.000Z</time></trkpt>
        <trkpt lat="28.16307" lon="105.773698"><ele>1278.701</ele><time>2026-08-16T01:32:17.000Z</time></trkpt>
        <trkpt lat="28.163084" lon="105.77368"><ele>1278.4409</ele><time>2026-08-16T01:32:19.000Z</time></trkpt>
        <trkpt lat="28.163096" lon="105.773662"><ele>1278.7262</ele><time>2026-08-16T01:32:21.000Z</time></trkpt>
        <trkpt lat="28.163111" lon="105.773641"><ele>1279.4624</ele><time>2026-08-16T01:32:23.000Z</time></trkpt>
        <trkpt lat="28.163121" lon="105.773619"><ele>1279.6611</ele><time>2026-08-16T01:32:25.000Z</time></trkpt>
        <trkpt lat="28.163128" lon="105.773616"><ele>1279.7384</ele><time>2026-08-16T01:32:27.000Z</time></trkpt>
        <trkpt lat="28.163056" lon="105.77365"><ele>1278.578</ele><time>2026-08-16T01:32:37.000Z</time></trkpt>
        <trkpt lat="28.163056" lon="105.77365"><ele>1278.7423</ele><time>2026-08-16T01:32:39.000Z</time></trkpt>
        <trkpt lat="28.163056" lon="105.773651"><ele>1278.9557</ele><time>2026-08-16T01:32:41.000Z</time></trkpt>
        <trkpt lat="28.163076" lon="105.773676"><ele>1279.7041</ele><time>2026-08-16T01:33:31.000Z</time></trkpt>
        <trkpt lat="28.163077" lon="105.773677"><ele>1279.0929</ele><time>2026-08-16T01:33:33.000Z</time></trkpt>
        <trkpt lat="28.163077" lon="105.773678"><ele>1279.0929</ele><time>2026-08-16T01:33:35.000Z</time></trkpt>
        <trkpt lat="28.163045" lon="105.773662"><ele>1278.502</ele><time>2026-08-16T01:36:40.000Z</time></trkpt>
        <trkpt lat="28.163113" lon="105.77367"><ele>1278.3302</ele><time>2026-08-16T01:37:21.000Z</time></trkpt>
        <trkpt lat="28.163131" lon="105.773672"><ele>1278.4069</ele><time>2026-08-16T01:37:23.000Z</time></trkpt>
        <trkpt lat="28.163132" lon="105.773673"><ele>1278.5991</ele><time>2026-08-16T01:37:25.000Z</time></trkpt>
        <trkpt lat="28.163085" lon="105.773652"><ele>1278.2998</ele><time>2026-08-16T01:37:51.000Z</time></trkpt>
        <trkpt lat="28.16308" lon="105.773653"><ele>1278.2046</ele><time>2026-08-16T01:37:53.000Z</time></trkpt>
        <trkpt lat="28.163072" lon="105.773659"><ele>1278.7906</ele><time>2026-08-16T01:38:08.000Z</time></trkpt>
        <trkpt lat="28.163054" lon="105.773667"><ele>1281.3525</ele><time>2026-08-16T01:38:23.000Z</time></trkpt>
        <trkpt lat="28.163053" lon="105.773667"><ele>1281.9723</ele><time>2026-08-16T01:38:39.000Z</time></trkpt>
        <trkpt lat="28.163101" lon="105.773667"><ele>1278.7568</ele><time>2026-08-16T01:40:25.000Z</time></trkpt>
        <trkpt lat="28.1631" lon="105.773651"><ele>1278.5007</ele><time>2026-08-16T01:40:27.000Z</time></trkpt>
        <trkpt lat="28.1631" lon="105.77365"><ele>1278.086</ele><time>2026-08-16T01:40:29.000Z</time></trkpt>
        <trkpt lat="28.163073" lon="105.773634"><ele>1277.3169</ele><time>2026-08-16T01:41:24.000Z</time></trkpt>
        <trkpt lat="28.163073" lon="105.773629"><ele>1278.0134</ele><time>2026-08-16T01:42:09.000Z</time></trkpt>
        <trkpt lat="28.163071" lon="105.773664"><ele>1277.0239</ele><time>2026-08-16T01:42:24.000Z</time></trkpt>
        <trkpt lat="28.163092" lon="105.773674"><ele>1277.1537</ele><time>2026-08-16T01:42:27.000Z</time></trkpt>
        <trkpt lat="28.163092" lon="105.773674"><ele>1277.1064</ele><time>2026-08-16T01:42:29.000Z</time></trkpt>
        <trkpt lat="28.163021" lon="105.773639"><ele>1280.3016</ele><time>2026-08-16T01:43:37.000Z</time></trkpt>
        <trkpt lat="28.163021" lon="105.773639"><ele>1281.0671</ele><time>2026-08-16T01:43:39.000Z</time></trkpt>
        <trkpt lat="28.163019" lon="105.773647"><ele>1281.1542</ele><time>2026-08-16T01:43:41.000Z</time></trkpt>
        <trkpt lat="28.163013" lon="105.773672"><ele>1280.8794</ele><time>2026-08-16T01:43:51.000Z</time></trkpt>
        <trkpt lat="28.163012" lon="105.773672"><ele>1281.3424</ele><time>2026-08-16T01:43:53.000Z</time></trkpt>
        <trkpt lat="28.163007" lon="105.77368"><ele>1281.3749</ele><time>2026-08-16T01:43:57.000Z</time></trkpt>
        <trkpt lat="28.162992" lon="105.773699"><ele>1280.3789</ele><time>2026-08-16T01:43:59.000Z</time></trkpt>
        <trkpt lat="28.162991" lon="105.7737"><ele>1279.1052</ele><time>2026-08-16T01:44:01.000Z</time></trkpt>
        <trkpt lat="28.162988" lon="105.773706"><ele>1278.523</ele><time>2026-08-16T01:44:05.000Z</time></trkpt>
        <trkpt lat="28.162971" lon="105.77374"><ele>1278.5471</ele><time>2026-08-16T01:44:09.000Z</time></trkpt>
        <trkpt lat="28.16296" lon="105.773761"><ele>1278.4956</ele><time>2026-08-16T01:44:11.000Z</time></trkpt>
        <trkpt lat="28.162948" lon="105.773782"><ele>1278.4138</ele><time>2026-08-16T01:44:13.000Z</time></trkpt>
        <trkpt lat="28.162933" lon="105.773798"><ele>1278.8411</ele><time>2026-08-16T01:44:15.000Z</time></trkpt>
        <trkpt lat="28.16292" lon="105.773809"><ele>1279.0084</ele><time>2026-08-16T01:44:17.000Z</time></trkpt>
        <trkpt lat="28.162907" lon="105.773817"><ele>1277.805</ele><time>2026-08-16T01:44:19.000Z</time></trkpt>
        <trkpt lat="28.162898" lon="105.773826"><ele>1278.0581</ele><time>2026-08-16T01:44:21.000Z</time></trkpt>
        <trkpt lat="28.162894" lon="105.773833"><ele>1277.1919</ele><time>2026-08-16T01:44:23.000Z</time></trkpt>
        <trkpt lat="28.162882" lon="105.773852"><ele>1278.6609</ele><time>2026-08-16T01:44:27.000Z</time></trkpt>
        <trkpt lat="28.162873" lon="105.773862"><ele>1279.1353</ele><time>2026-08-16T01:44:29.000Z</time></trkpt>
        <trkpt lat="28.162862" lon="105.773874"><ele>1279.2142</ele><time>2026-08-16T01:44:31.000Z</time></trkpt>
        <trkpt lat="28.16285" lon="105.773888"><ele>1279.714</ele><time>2026-08-16T01:44:33.000Z</time></trkpt>
        <trkpt lat="28.162837" lon="105.773897"><ele>1280.5182</ele><time>2026-08-16T01:44:35.000Z</time></trkpt>
        <trkpt lat="28.162822" lon="105.773904"><ele>1280.4143</ele><time>2026-08-16T01:44:37.000Z</time></trkpt>
        <trkpt lat="28.162806" lon="105.773909"><ele>1281.2494</ele><time>2026-08-16T01:44:39.000Z</time></trkpt>
        <trkpt lat="28.162786" lon="105.773914"><ele>1281.2465</ele><time>2026-08-16T01:44:41.000Z</time></trkpt>
        <trkpt lat="28.162766" lon="105.773916"><ele>1281.4581</ele><time>2026-08-16T01:44:43.000Z</time></trkpt>
        <trkpt lat="28.162746" lon="105.773916"><ele>1282.3352</ele><time>2026-08-16T01:44:45.000Z</time></trkpt>
        <trkpt lat="28.162723" lon="105.773917"><ele>1283.8022</ele><time>2026-08-16T01:44:47.000Z</time></trkpt>
        <trkpt lat="28.162704" lon="105.773919"><ele>1285.7169</ele><time>2026-08-16T01:44:49.000Z</time></trkpt>
        <trkpt lat="28.162688" lon="105.773922"><ele>1285.4008</ele><time>2026-08-16T01:44:51.000Z</time></trkpt>
        <trkpt lat="28.162676" lon="105.773927"><ele>1286.4136</ele><time>2026-08-16T01:44:53.000Z</time></trkpt>
        <trkpt lat="28.162665" lon="105.773932"><ele>1287.4756</ele><time>2026-08-16T01:44:55.000Z</time></trkpt>
        <trkpt lat="28.162652" lon="105.773939"><ele>1288.9075</ele><time>2026-08-16T01:44:57.000Z</time></trkpt>
        <trkpt lat="28.162639" lon="105.773947"><ele>1288.8745</ele><time>2026-08-16T01:44:59.000Z</time></trkpt>
        <trkpt lat="28.162626" lon="105.773956"><ele>1289.1376</ele><time>2026-08-16T01:45:01.000Z</time></trkpt>
        <trkpt lat="28.162612" lon="105.773971"><ele>1291.1635</ele><time>2026-08-16T01:45:03.000Z</time></trkpt>
        <trkpt lat="28.162603" lon="105.773984"><ele>1291.3982</ele><time>2026-08-16T01:45:05.000Z</time></trkpt>
        <trkpt lat="28.162595" lon="105.773994"><ele>1291.395</ele><time>2026-08-16T01:45:07.000Z</time></trkpt>
        <trkpt lat="28.162586" lon="105.774003"><ele>1290.7843</ele><time>2026-08-16T01:45:09.000Z</time></trkpt>
        <trkpt lat="28.162578" lon="105.774009"><ele>1291.2269</ele><time>2026-08-16T01:45:11.000Z</time></trkpt>
        <trkpt lat="28.162571" lon="105.774014"><ele>1290.7524</ele><time>2026-08-16T01:45:13.000Z</time></trkpt>
        <trkpt lat="28.162557" lon="105.774022"><ele>1291.2874</ele><time>2026-08-16T01:45:17.000Z</time></trkpt>
        <trkpt lat="28.162547" lon="105.774025"><ele>1291.1584</ele><time>2026-08-16T01:45:19.000Z</time></trkpt>
        <trkpt lat="28.162538" lon="105.774025"><ele>1291.4313</ele><time>2026-08-16T01:45:25.000Z</time></trkpt>
        <trkpt lat="28.162526" lon="105.774026"><ele>1290.984</ele><time>2026-08-16T01:45:27.000Z</time></trkpt>
        <trkpt lat="28.162513" lon="105.77403"><ele>1291.4082</ele><time>2026-08-16T01:45:29.000Z</time></trkpt>
        <trkpt lat="28.162504" lon="105.774034"><ele>1291.4845</ele><time>2026-08-16T01:45:31.000Z</time></trkpt>
        <trkpt lat="28.162496" lon="105.774039"><ele>1291.296</ele><time>2026-08-16T01:45:33.000Z</time></trkpt>
        <trkpt lat="28.162487" lon="105.774046"><ele>1292.1587</ele><time>2026-08-16T01:45:35.000Z</time></trkpt>
        <trkpt lat="28.162477" lon="105.774054"><ele>1292.0594</ele><time>2026-08-16T01:45:37.000Z</time></trkpt>
        <trkpt lat="28.162466" lon="105.774063"><ele>1292.7609</ele><time>2026-08-16T01:45:39.000Z</time></trkpt>
        <trkpt lat="28.162452" lon="105.774074"><ele>1292.7721</ele><time>2026-08-16T01:45:41.000Z</time></trkpt>
        <trkpt lat="28.162444" lon="105.774079"><ele>1291.9635</ele><time>2026-08-16T01:45:43.000Z</time></trkpt>
        <trkpt lat="28.162436" lon="105.774082"><ele>1292.3279</ele><time>2026-08-16T01:45:45.000Z</time></trkpt>
        <trkpt lat="28.162414" lon="105.77409"><ele>1293.7988</ele><time>2026-08-16T01:45:49.000Z</time></trkpt>
        <trkpt lat="28.162407" lon="105.774094"><ele>1293.5535</ele><time>2026-08-16T01:45:51.000Z</time></trkpt>
        <trkpt lat="28.162399" lon="105.774099"><ele>1294.8966</ele><time>2026-08-16T01:45:53.000Z</time></trkpt>
        <trkpt lat="28.162385" lon="105.774105"><ele>1295.5717</ele><time>2026-08-16T01:45:55.000Z</time></trkpt>
        <trkpt lat="28.162371" lon="105.774109"><ele>1295.7582</ele><time>2026-08-16T01:45:57.000Z</time></trkpt>
        <trkpt lat="28.16236" lon="105.774109"><ele>1294.8973</ele><time>2026-08-16T01:45:59.000Z</time></trkpt>
        <trkpt lat="28.162358" lon="105.774106"><ele>1294.3359</ele><time>2026-08-16T01:46:01.000Z</time></trkpt>
        <trkpt lat="28.162342" lon="105.774086"><ele>1293.2214</ele><time>2026-08-16T01:46:15.000Z</time></trkpt>
        <trkpt lat="28.16233" lon="105.774073"><ele>1293.3356</ele><time>2026-08-16T01:46:17.000Z</time></trkpt>
        <trkpt lat="28.162329" lon="105.774072"><ele>1293.5477</ele><time>2026-08-16T01:46:19.000Z</time></trkpt>
        <trkpt lat="28.162316" lon="105.774065"><ele>1295.0791</ele><time>2026-08-16T01:46:25.000Z</time></trkpt>
        <trkpt lat="28.162281" lon="105.774044"><ele>1295.3036</ele><time>2026-08-16T01:46:29.000Z</time></trkpt>
        <trkpt lat="28.162281" lon="105.774044"><ele>1296.2102</ele><time>2026-08-16T01:46:31.000Z</time></trkpt>
        <trkpt lat="28.162279" lon="105.774043"><ele>1296.7947</ele><time>2026-08-16T01:46:33.000Z</time></trkpt>
        <trkpt lat="28.162251" lon="105.77403"><ele>1297.8763</ele><time>2026-08-16T01:46:37.000Z</time></trkpt>
        <trkpt lat="28.162233" lon="105.774019"><ele>1298.0582</ele><time>2026-08-16T01:46:39.000Z</time></trkpt>
        <trkpt lat="28.162218" lon="105.774006"><ele>1298.0741</ele><time>2026-08-16T01:46:41.000Z</time></trkpt>
        <trkpt lat="28.162205" lon="105.773992"><ele>1297.9482</ele><time>2026-08-16T01:46:43.000Z</time></trkpt>
        <trkpt lat="28.162193" lon="105.773979"><ele>1298.1982</ele><time>2026-08-16T01:46:45.000Z</time></trkpt>
        <trkpt lat="28.162179" lon="105.773969"><ele>1298.7327</ele><time>2026-08-16T01:46:46.000Z</time></trkpt>
        <trkpt lat="28.162165" lon="105.773962"><ele>1299.3136</ele><time>2026-08-16T01:46:48.000Z</time></trkpt>
        <trkpt lat="28.162151" lon="105.773955"><ele>1299.6968</ele><time>2026-08-16T01:46:50.000Z</time></trkpt>
        <trkpt lat="28.162135" lon="105.773949"><ele>1299.8142</ele><time>2026-08-16T01:46:52.000Z</time></trkpt>
        <trkpt lat="28.162119" lon="105.773944"><ele>1300.5415</ele><time>2026-08-16T01:46:54.000Z</time></trkpt>
        <trkpt lat="28.162105" lon="105.773936"><ele>1300.2145</ele><time>2026-08-16T01:46:56.000Z</time></trkpt>
        <trkpt lat="28.162092" lon="105.773927"><ele>1300.5946</ele><time>2026-08-16T01:46:58.000Z</time></trkpt>
        <trkpt lat="28.162078" lon="105.773916"><ele>1301.2815</ele><time>2026-08-16T01:47:00.000Z</time></trkpt>
        <trkpt lat="28.162064" lon="105.773904"><ele>1301.2108</ele><time>2026-08-16T01:47:02.000Z</time></trkpt>
        <trkpt lat="28.162049" lon="105.773891"><ele>1300.9261</ele><time>2026-08-16T01:47:04.000Z</time></trkpt>
        <trkpt lat="28.162033" lon="105.773877"><ele>1300.9662</ele><time>2026-08-16T01:47:06.000Z</time></trkpt>
        <trkpt lat="28.162017" lon="105.773865"><ele>1301.6141</ele><time>2026-08-16T01:47:08.000Z</time></trkpt>
        <trkpt lat="28.162003" lon="105.773855"><ele>1301.6361</ele><time>2026-08-16T01:47:10.000Z</time></trkpt>
        <trkpt lat="28.161988" lon="105.773847"><ele>1302.1116</ele><time>2026-08-16T01:47:12.000Z</time></trkpt>
        <trkpt lat="28.161973" lon="105.773841"><ele>1302.2328</ele><time>2026-08-16T01:47:14.000Z</time></trkpt>
        <trkpt lat="28.161957" lon="105.773837"><ele>1302.2106</ele><time>2026-08-16T01:47:16.000Z</time></trkpt>
        <trkpt lat="28.161942" lon="105.773834"><ele>1303.0706</ele><time>2026-08-16T01:47:18.000Z</time></trkpt>
        <trkpt lat="28.161929" lon="105.773832"><ele>1302.5232</ele><time>2026-08-16T01:47:20.000Z</time></trkpt>
        <trkpt lat="28.161914" lon="105.773826"><ele>1302.6669</ele><time>2026-08-16T01:47:23.000Z</time></trkpt>
        <trkpt lat="28.161903" lon="105.773819"><ele>1303.4896</ele><time>2026-08-16T01:47:25.000Z</time></trkpt>
        <trkpt lat="28.161887" lon="105.773809"><ele>1304.1509</ele><time>2026-08-16T01:47:27.000Z</time></trkpt>
        <trkpt lat="28.161874" lon="105.773802"><ele>1304.6733</ele><time>2026-08-16T01:47:29.000Z</time></trkpt>
        <trkpt lat="28.161863" lon="105.773796"><ele>1304.7185</ele><time>2026-08-16T01:47:31.000Z</time></trkpt>
        <trkpt lat="28.161851" lon="105.77379"><ele>1304.5736</ele><time>2026-08-16T01:47:33.000Z</time></trkpt>
        <trkpt lat="28.161838" lon="105.773784"><ele>1304.3699</ele><time>2026-08-16T01:47:35.000Z</time></trkpt>
        <trkpt lat="28.161823" lon="105.773776"><ele>1304.7268</ele><time>2026-08-16T01:47:37.000Z</time></trkpt>
        <trkpt lat="28.16181" lon="105.773767"><ele>1304.7314</ele><time>2026-08-16T01:47:39.000Z</time></trkpt>
        <trkpt lat="28.161796" lon="105.773754"><ele>1304.2655</ele><time>2026-08-16T01:47:41.000Z</time></trkpt>
        <trkpt lat="28.161782" lon="105.773738"><ele>1304.2866</ele><time>2026-08-16T01:47:43.000Z</time></trkpt>
        <trkpt lat="28.161771" lon="105.773725"><ele>1304.1257</ele><time>2026-08-16T01:47:45.000Z</time></trkpt>
        <trkpt lat="28.161764" lon="105.773711"><ele>1304.5529</ele><time>2026-08-16T01:47:47.000Z</time></trkpt>
        <trkpt lat="28.161756" lon="105.773692"><ele>1305.1636</ele><time>2026-08-16T01:47:49.000Z</time></trkpt>
        <trkpt lat="28.161747" lon="105.773671"><ele>1306.1764</ele><time>2026-08-16T01:47:51.000Z</time></trkpt>
        <trkpt lat="28.16174" lon="105.773655"><ele>1307.241</ele><time>2026-08-16T01:47:53.000Z</time></trkpt>
        <trkpt lat="28.161733" lon="105.773638"><ele>1307.401</ele><time>2026-08-16T01:47:55.000Z</time></trkpt>
        <trkpt lat="28.161727" lon="105.77362"><ele>1308.4442</ele><time>2026-08-16T01:47:57.000Z</time></trkpt>
        <trkpt lat="28.161722" lon="105.773607"><ele>1309.2908</ele><time>2026-08-16T01:47:59.000Z</time></trkpt>
        <trkpt lat="28.161718" lon="105.773596"><ele>1310.5137</ele><time>2026-08-16T01:48:01.000Z</time></trkpt>
        <trkpt lat="28.161715" lon="105.77358"><ele>1310.4596</ele><time>2026-08-16T01:48:03.000Z</time></trkpt>
        <trkpt lat="28.161711" lon="105.773563"><ele>1310.3209</ele><time>2026-08-16T01:48:05.000Z</time></trkpt>
        <trkpt lat="28.161709" lon="105.773548"><ele>1311.1558</ele><time>2026-08-16T01:48:07.000Z</time></trkpt>
        <trkpt lat="28.161705" lon="105.773528"><ele>1310.7816</ele><time>2026-08-16T01:48:09.000Z</time></trkpt>
        <trkpt lat="28.161702" lon="105.773509"><ele>1310.2651</ele><time>2026-08-16T01:48:11.000Z</time></trkpt>
        <trkpt lat="28.161699" lon="105.773488"><ele>1310.8951</ele><time>2026-08-16T01:48:13.000Z</time></trkpt>
        <trkpt lat="28.161695" lon="105.773467"><ele>1311.3516</ele><time>2026-08-16T01:48:15.000Z</time></trkpt>
        <trkpt lat="28.161691" lon="105.773449"><ele>1311.4716</ele><time>2026-08-16T01:48:17.000Z</time></trkpt>
        <trkpt lat="28.161686" lon="105.77343"><ele>1311.6901</ele><time>2026-08-16T01:48:19.000Z</time></trkpt>
        <trkpt lat="28.161682" lon="105.773414"><ele>1312.5625</ele><time>2026-08-16T01:48:21.000Z</time></trkpt>
        <trkpt lat="28.161678" lon="105.773401"><ele>1313.0094</ele><time>2026-08-16T01:48:23.000Z</time></trkpt>
        <trkpt lat="28.161676" lon="105.77339"><ele>1314.2273</ele><time>2026-08-16T01:48:25.000Z</time></trkpt>
        <trkpt lat="28.16167" lon="105.773378"><ele>1314.0092</ele><time>2026-08-16T01:48:27.000Z</time></trkpt>
        <trkpt lat="28.161662" lon="105.773367"><ele>1315.0546</ele><time>2026-08-16T01:48:29.000Z</time></trkpt>
        <trkpt lat="28.16165" lon="105.773354"><ele>1315.373</ele><time>2026-08-16T01:48:31.000Z</time></trkpt>
        <trkpt lat="28.161642" lon="105.773344"><ele>1314.7393</ele><time>2026-08-16T01:48:33.000Z</time></trkpt>
        <trkpt lat="28.161633" lon="105.773333"><ele>1314.7539</ele><time>2026-08-16T01:48:35.000Z</time></trkpt>
        <trkpt lat="28.161623" lon="105.773321"><ele>1314.5316</ele><time>2026-08-16T01:48:37.000Z</time></trkpt>
        <trkpt lat="28.16161" lon="105.773308"><ele>1314.6951</ele><time>2026-08-16T01:48:39.000Z</time></trkpt>
        <trkpt lat="28.161594" lon="105.773295"><ele>1314.5717</ele><time>2026-08-16T01:48:41.000Z</time></trkpt>
        <trkpt lat="28.161579" lon="105.773281"><ele>1314.2439</ele><time>2026-08-16T01:48:43.000Z</time></trkpt>
        <trkpt lat="28.161566" lon="105.773271"><ele>1313.6693</ele><time>2026-08-16T01:48:45.000Z</time></trkpt>
        <trkpt lat="28.161552" lon="105.773262"><ele>1313.9277</ele><time>2026-08-16T01:48:47.000Z</time></trkpt>
        <trkpt lat="28.161537" lon="105.773252"><ele>1314.7343</ele><time>2026-08-16T01:48:49.000Z</time></trkpt>
        <trkpt lat="28.161525" lon="105.773244"><ele>1313.8367</ele><time>2026-08-16T01:48:51.000Z</time></trkpt>
        <trkpt lat="28.161514" lon="105.773238"><ele>1313.5557</ele><time>2026-08-16T01:48:53.000Z</time></trkpt>
        <trkpt lat="28.161497" lon="105.773231"><ele>1314.1665</ele><time>2026-08-16T01:48:55.000Z</time></trkpt>
        <trkpt lat="28.161479" lon="105.773222"><ele>1315.2744</ele><time>2026-08-16T01:48:57.000Z</time></trkpt>
        <trkpt lat="28.161463" lon="105.773215"><ele>1314.779</ele><time>2026-08-16T01:48:59.000Z</time></trkpt>
        <trkpt lat="28.161446" lon="105.773207"><ele>1314.846</ele><time>2026-08-16T01:49:01.000Z</time></trkpt>
        <trkpt lat="28.161429" lon="105.773198"><ele>1315.2434</ele><time>2026-08-16T01:49:03.000Z</time></trkpt>
        <trkpt lat="28.161413" lon="105.773186"><ele>1314.8121</ele><time>2026-08-16T01:49:05.000Z</time></trkpt>
        <trkpt lat="28.161397" lon="105.773172"><ele>1314.4517</ele><time>2026-08-16T01:49:07.000Z</time></trkpt>
        <trkpt lat="28.161382" lon="105.773158"><ele>1314.5769</ele><time>2026-08-16T01:49:09.000Z</time></trkpt>
        <trkpt lat="28.161367" lon="105.773144"><ele>1314.922</ele><time>2026-08-16T01:49:11.000Z</time></trkpt>
        <trkpt lat="28.161351" lon="105.773129"><ele>1314.8406</ele><time>2026-08-16T01:49:13.000Z</time></trkpt>
        <trkpt lat="28.161337" lon="105.773118"><ele>1314.8014</ele><time>2026-08-16T01:49:15.000Z</time></trkpt>
        <trkpt lat="28.161331" lon="105.773117"><ele>1315.0502</ele><time>2026-08-16T01:49:17.000Z</time></trkpt>
        <trkpt lat="28.161323" lon="105.773104"><ele>1315.236</ele><time>2026-08-16T01:49:22.000Z</time></trkpt>
        <trkpt lat="28.161292" lon="105.773056"><ele>1315.4438</ele><time>2026-08-16T01:49:26.000Z</time></trkpt>
        <trkpt lat="28.161292" lon="105.773056"><ele>1315.0928</ele><time>2026-08-16T01:49:28.000Z</time></trkpt>
        <trkpt lat="28.161291" lon="105.773054"><ele>1314.5612</ele><time>2026-08-16T01:49:30.000Z</time></trkpt>
        <trkpt lat="28.161273" lon="105.773019"><ele>1313.7054</ele><time>2026-08-16T01:49:34.000Z</time></trkpt>
        <trkpt lat="28.161258" lon="105.772989"><ele>1314.2905</ele><time>2026-08-16T01:49:36.000Z</time></trkpt>
        <trkpt lat="28.161245" lon="105.772962"><ele>1314.8087</ele><time>2026-08-16T01:49:38.000Z</time></trkpt>
        <trkpt lat="28.161232" lon="105.772936"><ele>1315.8558</ele><time>2026-08-16T01:49:40.000Z</time></trkpt>
        <trkpt lat="28.16122" lon="105.772915"><ele>1316.6722</ele><time>2026-08-16T01:49:42.000Z</time></trkpt>
        <trkpt lat="28.161211" lon="105.772897"><ele>1317.3148</ele><time>2026-08-16T01:49:44.000Z</time></trkpt>
        <trkpt lat="28.161202" lon="105.772881"><ele>1318.1527</ele><time>2026-08-16T01:49:46.000Z</time></trkpt>
        <trkpt lat="28.1612" lon="105.77287"><ele>1319.6569</ele><time>2026-08-16T01:49:48.000Z</time></trkpt>
        <trkpt lat="28.161198" lon="105.772868"><ele>1320.1709</ele><time>2026-08-16T01:49:50.000Z</time></trkpt>
        <trkpt lat="28.161242" lon="105.772921"><ele>1319.889</ele><time>2026-08-16T01:49:58.000Z</time></trkpt>
        <trkpt lat="28.161242" lon="105.772921"><ele>1319.4291</ele><time>2026-08-16T01:50:00.000Z</time></trkpt>
        <trkpt lat="28.161244" lon="105.772924"><ele>1318.5509</ele><time>2026-08-16T01:50:02.000Z</time></trkpt>
        <trkpt lat="28.161274" lon="105.772967"><ele>1319.8491</ele><time>2026-08-16T01:50:06.000Z</time></trkpt>
        <trkpt lat="28.161293" lon="105.772994"><ele>1318.2267</ele><time>2026-08-16T01:50:08.000Z</time></trkpt>
        <trkpt lat="28.16131" lon="105.773021"><ele>1318.3625</ele><time>2026-08-16T01:50:10.000Z</time></trkpt>
        <trkpt lat="28.161328" lon="105.773048"><ele>1317.4014</ele><time>2026-08-16T01:50:12.000Z</time></trkpt>
        <trkpt lat="28.161343" lon="105.77307"><ele>1316.495</ele><time>2026-08-16T01:50:14.000Z</time></trkpt>
        <trkpt lat="28.161355" lon="105.773086"><ele>1317.6063</ele><time>2026-08-16T01:50:16.000Z</time></trkpt>
        <trkpt lat="28.161369" lon="105.773103"><ele>1317.5366</ele><time>2026-08-16T01:50:18.000Z</time></trkpt>
        <trkpt lat="28.161381" lon="105.773119"><ele>1317.7583</ele><time>2026-08-16T01:50:20.000Z</time></trkpt>
        <trkpt lat="28.161392" lon="105.773131"><ele>1317.1898</ele><time>2026-08-16T01:50:22.000Z</time></trkpt>
        <trkpt lat="28.161401" lon="105.77314"><ele>1315.8577</ele><time>2026-08-16T01:50:24.000Z</time></trkpt>
        <trkpt lat="28.161413" lon="105.773147"><ele>1315.494</ele><time>2026-08-16T01:50:26.000Z</time></trkpt>
        <trkpt lat="28.161421" lon="105.77315"><ele>1314.6508</ele><time>2026-08-16T01:50:28.000Z</time></trkpt>
        <trkpt lat="28.161434" lon="105.773155"><ele>1314.5851</ele><time>2026-08-16T01:50:30.000Z</time></trkpt>
        <trkpt lat="28.161451" lon="105.773163"><ele>1314.6676</ele><time>2026-08-16T01:50:32.000Z</time></trkpt>
        <trkpt lat="28.161468" lon="105.773171"><ele>1315.1519</ele><time>2026-08-16T01:50:34.000Z</time></trkpt>
        <trkpt lat="28.161487" lon="105.773181"><ele>1315.8997</ele><time>2026-08-16T01:50:36.000Z</time></trkpt>
        <trkpt lat="28.161509" lon="105.773192"><ele>1316.4424</ele><time>2026-08-16T01:50:38.000Z</time></trkpt>
        <trkpt lat="28.161527" lon="105.7732"><ele>1316.7966</ele><time>2026-08-16T01:50:40.000Z</time></trkpt>
        <trkpt lat="28.161544" lon="105.773208"><ele>1316.3646</ele><time>2026-08-16T01:50:42.000Z</time></trkpt>
        <trkpt lat="28.161561" lon="105.773217"><ele>1316.1384</ele><time>2026-08-16T01:50:44.000Z</time></trkpt>
        <trkpt lat="28.161578" lon="105.773226"><ele>1314.4937</ele><time>2026-08-16T01:50:46.000Z</time></trkpt>
        <trkpt lat="28.161595" lon="105.773234"><ele>1314.3451</ele><time>2026-08-16T01:50:48.000Z</time></trkpt>
        <trkpt lat="28.161606" lon="105.773239"><ele>1313.0995</ele><time>2026-08-16T01:50:50.000Z</time></trkpt>
        <trkpt lat="28.161619" lon="105.773249"><ele>1313.0448</ele><time>2026-08-16T01:50:52.000Z</time></trkpt>
        <trkpt lat="28.161631" lon="105.773263"><ele>1313.2445</ele><time>2026-08-16T01:50:54.000Z</time></trkpt>
        <trkpt lat="28.161646" lon="105.773281"><ele>1313.9175</ele><time>2026-08-16T01:50:56.000Z</time></trkpt>
        <trkpt lat="28.161663" lon="105.773298"><ele>1314.531</ele><time>2026-08-16T01:50:58.000Z</time></trkpt>
        <trkpt lat="28.161678" lon="105.773317"><ele>1314.8765</ele><time>2026-08-16T01:51:00.000Z</time></trkpt>
        <trkpt lat="28.161692" lon="105.773336"><ele>1314.8098</ele><time>2026-08-16T01:51:02.000Z</time></trkpt>
        <trkpt lat="28.161705" lon="105.773352"><ele>1314.6342</ele><time>2026-08-16T01:51:04.000Z</time></trkpt>
        <trkpt lat="28.161716" lon="105.77337"><ele>1314.3798</ele><time>2026-08-16T01:51:06.000Z</time></trkpt>
        <trkpt lat="28.161725" lon="105.773387"><ele>1313.4312</ele><time>2026-08-16T01:51:08.000Z</time></trkpt>
        <trkpt lat="28.161733" lon="105.773409"><ele>1314.5032</ele><time>2026-08-16T01:51:10.000Z</time></trkpt>
        <trkpt lat="28.161741" lon="105.773432"><ele>1315.4856</ele><time>2026-08-16T01:51:12.000Z</time></trkpt>
        <trkpt lat="28.161747" lon="105.773455"><ele>1315.5901</ele><time>2026-08-16T01:51:14.000Z</time></trkpt>
        <trkpt lat="28.161753" lon="105.773478"><ele>1314.7941</ele><time>2026-08-16T01:51:16.000Z</time></trkpt>
        <trkpt lat="28.161759" lon="105.773496"><ele>1313.6775</ele><time>2026-08-16T01:51:18.000Z</time></trkpt>
        <trkpt lat="28.161766" lon="105.773515"><ele>1313.7891</ele><time>2026-08-16T01:51:20.000Z</time></trkpt>
        <trkpt lat="28.16177" lon="105.773533"><ele>1313.3655</ele><time>2026-08-16T01:51:22.000Z</time></trkpt>
        <trkpt lat="28.161772" lon="105.773547"><ele>1313.4244</ele><time>2026-08-16T01:51:24.000Z</time></trkpt>
        <trkpt lat="28.161774" lon="105.773566"><ele>1314.0453</ele><time>2026-08-16T01:51:26.000Z</time></trkpt>
        <trkpt lat="28.161775" lon="105.773587"><ele>1313.5072</ele><time>2026-08-16T01:51:28.000Z</time></trkpt>
        <trkpt lat="28.161777" lon="105.773609"><ele>1313.5155</ele><time>2026-08-16T01:51:30.000Z</time></trkpt>
        <trkpt lat="28.161779" lon="105.773632"><ele>1313.3561</ele><time>2026-08-16T01:51:32.000Z</time></trkpt>
        <trkpt lat="28.161777" lon="105.773653"><ele>1313.3617</ele><time>2026-08-16T01:51:34.000Z</time></trkpt>
        <trkpt lat="28.161769" lon="105.773662"><ele>1311.964</ele><time>2026-08-16T01:51:36.000Z</time></trkpt>
        <trkpt lat="28.16176" lon="105.773663"><ele>1310.3969</ele><time>2026-08-16T01:51:38.000Z</time></trkpt>
        <trkpt lat="28.161744" lon="105.773658"><ele>1309.1686</ele><time>2026-08-16T01:51:40.000Z</time></trkpt>
        <trkpt lat="28.161724" lon="105.773647"><ele>1308.2794</ele><time>2026-08-16T01:51:42.000Z</time></trkpt>
        <trkpt lat="28.161705" lon="105.773633"><ele>1307.6108</ele><time>2026-08-16T01:51:44.000Z</time></trkpt>
        <trkpt lat="28.161688" lon="105.773619"><ele>1307.702</ele><time>2026-08-16T01:51:46.000Z</time></trkpt>
        <trkpt lat="28.161676" lon="105.773606"><ele>1307.2053</ele><time>2026-08-16T01:51:48.000Z</time></trkpt>
        <trkpt lat="28.161667" lon="105.773594"><ele>1305.917</ele><time>2026-08-16T01:51:50.000Z</time></trkpt>
        <trkpt lat="28.161656" lon="105.773581"><ele>1306.0221</ele><time>2026-08-16T01:51:52.000Z</time></trkpt>
        <trkpt lat="28.161644" lon="105.773569"><ele>1306.4873</ele><time>2026-08-16T01:51:54.000Z</time></trkpt>
        <trkpt lat="28.161632" lon="105.773557"><ele>1306.5577</ele><time>2026-08-16T01:51:56.000Z</time></trkpt>
        <trkpt lat="28.161617" lon="105.773544"><ele>1306.3413</ele><time>2026-08-16T01:51:58.000Z</time></trkpt>
        <trkpt lat="28.161601" lon="105.773529"><ele>1306.1488</ele><time>2026-08-16T01:52:00.000Z</time></trkpt>
        <trkpt lat="28.161584" lon="105.773515"><ele>1305.9073</ele><time>2026-08-16T01:52:02.000Z</time></trkpt>
        <trkpt lat="28.161564" lon="105.773501"><ele>1305.882</ele><time>2026-08-16T01:52:04.000Z</time></trkpt>
        <trkpt lat="28.161546" lon="105.773489"><ele>1306.6118</ele><time>2026-08-16T01:52:06.000Z</time></trkpt>
        <trkpt lat="28.161527" lon="105.773477"><ele>1306.8008</ele><time>2026-08-16T01:52:08.000Z</time></trkpt>
        <trkpt lat="28.16151" lon="105.773464"><ele>1306.7399</ele><time>2026-08-16T01:52:10.000Z</time></trkpt>
        <trkpt lat="28.161492" lon="105.773451"><ele>1306.7</ele><time>2026-08-16T01:52:12.000Z</time></trkpt>
        <trkpt lat="28.161475" lon="105.773439"><ele>1306.6854</ele><time>2026-08-16T01:52:14.000Z</time></trkpt>
        <trkpt lat="28.161456" lon="105.773426"><ele>1307.1072</ele><time>2026-08-16T01:52:16.000Z</time></trkpt>
        <trkpt lat="28.161439" lon="105.773414"><ele>1307.1019</ele><time>2026-08-16T01:52:18.000Z</time></trkpt>
        <trkpt lat="28.161422" lon="105.773401"><ele>1307.2762</ele><time>2026-08-16T01:52:20.000Z</time></trkpt>
        <trkpt lat="28.161405" lon="105.773389"><ele>1307.365</ele><time>2026-08-16T01:52:22.000Z</time></trkpt>
        <trkpt lat="28.161389" lon="105.773377"><ele>1306.9525</ele><time>2026-08-16T01:52:24.000Z</time></trkpt>
        <trkpt lat="28.161375" lon="105.773365"><ele>1306.8723</ele><time>2026-08-16T01:52:26.000Z</time></trkpt>
        <trkpt lat="28.161359" lon="105.773352"><ele>1306.9072</ele><time>2026-08-16T01:52:28.000Z</time></trkpt>
        <trkpt lat="28.161345" lon="105.773341"><ele>1307.1929</ele><time>2026-08-16T01:52:30.000Z</time></trkpt>
        <trkpt lat="28.161331" lon="105.773331"><ele>1307.4972</ele><time>2026-08-16T01:52:32.000Z</time></trkpt>
        <trkpt lat="28.161315" lon="105.77332"><ele>1307.6864</ele><time>2026-08-16T01:52:34.000Z</time></trkpt>
        <trkpt lat="28.161298" lon="105.773309"><ele>1306.8198</ele><time>2026-08-16T01:52:36.000Z</time></trkpt>
        <trkpt lat="28.161284" lon="105.773297"><ele>1307.4508</ele><time>2026-08-16T01:52:38.000Z</time></trkpt>
        <trkpt lat="28.16127" lon="105.773281"><ele>1307.2997</ele><time>2026-08-16T01:52:40.000Z</time></trkpt>
        <trkpt lat="28.161257" lon="105.773265"><ele>1307.2375</ele><time>2026-08-16T01:52:42.000Z</time></trkpt>
        <trkpt lat="28.161244" lon="105.773247"><ele>1307.3452</ele><time>2026-08-16T01:52:44.000Z</time></trkpt>
        <trkpt lat="28.161233" lon="105.773229"><ele>1306.976</ele><time>2026-08-16T01:52:46.000Z</time></trkpt>
        <trkpt lat="28.161219" lon="105.773207"><ele>1307.158</ele><time>2026-08-16T01:52:48.000Z</time></trkpt>
        <trkpt lat="28.161206" lon="105.773183"><ele>1306.4705</ele><time>2026-08-16T01:52:50.000Z</time></trkpt>
        <trkpt lat="28.161191" lon="105.773163"><ele>1306.9235</ele><time>2026-08-16T01:52:52.000Z</time></trkpt>
        <trkpt lat="28.161176" lon="105.773148"><ele>1306.962</ele><time>2026-08-16T01:52:54.000Z</time></trkpt>
        <trkpt lat="28.16116" lon="105.773135"><ele>1307.6047</ele><time>2026-08-16T01:52:56.000Z</time></trkpt>
        <trkpt lat="28.161142" lon="105.773125"><ele>1307.6365</ele><time>2026-08-16T01:52:58.000Z</time></trkpt>
        <trkpt lat="28.161124" lon="105.773116"><ele>1307.124</ele><time>2026-08-16T01:53:00.000Z</time></trkpt>
        <trkpt lat="28.161104" lon="105.773104"><ele>1307.3792</ele><time>2026-08-16T01:53:02.000Z</time></trkpt>
        <trkpt lat="28.161086" lon="105.77309"><ele>1308.0256</ele><time>2026-08-16T01:53:04.000Z</time></trkpt>
        <trkpt lat="28.161067" lon="105.773076"><ele>1308.3153</ele><time>2026-08-16T01:53:06.000Z</time></trkpt>
        <trkpt lat="28.161048" lon="105.773065"><ele>1308.6218</ele><time>2026-08-16T01:53:08.000Z</time></trkpt>
        <trkpt lat="28.161031" lon="105.773053"><ele>1309.2466</ele><time>2026-08-16T01:53:10.000Z</time></trkpt>
        <trkpt lat="28.161018" lon="105.773041"><ele>1308.6763</ele><time>2026-08-16T01:53:12.000Z</time></trkpt>
        <trkpt lat="28.161006" lon="105.773027"><ele>1309.1451</ele><time>2026-08-16T01:53:14.000Z</time></trkpt>
        <trkpt lat="28.160998" lon="105.773014"><ele>1309.6681</ele><time>2026-08-16T01:53:16.000Z</time></trkpt>
        <trkpt lat="28.160988" lon="105.772997"><ele>1310.0986</ele><time>2026-08-16T01:53:18.000Z</time></trkpt>
        <trkpt lat="28.16098" lon="105.77298"><ele>1309.7513</ele><time>2026-08-16T01:53:20.000Z</time></trkpt>
        <trkpt lat="28.160971" lon="105.772962"><ele>1310.1534</ele><time>2026-08-16T01:53:22.000Z</time></trkpt>
        <trkpt lat="28.160959" lon="105.772944"><ele>1310.9265</ele><time>2026-08-16T01:53:24.000Z</time></trkpt>
        <trkpt lat="28.160945" lon="105.772926"><ele>1311.2368</ele><time>2026-08-16T01:53:26.000Z</time></trkpt>
        <trkpt lat="28.16093" lon="105.772905"><ele>1311.5168</ele><time>2026-08-16T01:53:28.000Z</time></trkpt>
        <trkpt lat="28.160918" lon="105.772884"><ele>1310.774</ele><time>2026-08-16T01:53:30.000Z</time></trkpt>
        <trkpt lat="28.160909" lon="105.772862"><ele>1310.1974</ele><time>2026-08-16T01:53:32.000Z</time></trkpt>
        <trkpt lat="28.160904" lon="105.772839"><ele>1310.0972</ele><time>2026-08-16T01:53:34.000Z</time></trkpt>
        <trkpt lat="28.1609" lon="105.772814"><ele>1309.8938</ele><time>2026-08-16T01:53:36.000Z</time></trkpt>
        <trkpt lat="28.160895" lon="105.77279"><ele>1309.3489</ele><time>2026-08-16T01:53:38.000Z</time></trkpt>
        <trkpt lat="28.160889" lon="105.772768"><ele>1310.3228</ele><time>2026-08-16T01:53:40.000Z</time></trkpt>
        <trkpt lat="28.160883" lon="105.77275"><ele>1311.5819</ele><time>2026-08-16T01:53:42.000Z</time></trkpt>
        <trkpt lat="28.160875" lon="105.772732"><ele>1311.9305</ele><time>2026-08-16T01:53:44.000Z</time></trkpt>
        <trkpt lat="28.160867" lon="105.772715"><ele>1311.9014</ele><time>2026-08-16T01:53:46.000Z</time></trkpt>
        <trkpt lat="28.160862" lon="105.772696"><ele>1311.7755</ele><time>2026-08-16T01:53:48.000Z</time></trkpt>
        <trkpt lat="28.16086" lon="105.772684"><ele>1312.519</ele><time>2026-08-16T01:53:50.000Z</time></trkpt>
        <trkpt lat="28.160859" lon="105.772676"><ele>1313.6364</ele><time>2026-08-16T01:53:52.000Z</time></trkpt>
        <trkpt lat="28.160853" lon="105.772652"><ele>1313.845</ele><time>2026-08-16T01:53:56.000Z</time></trkpt>
        <trkpt lat="28.160846" lon="105.772636"><ele>1314.2719</ele><time>2026-08-16T01:53:58.000Z</time></trkpt>
        <trkpt lat="28.160837" lon="105.772615"><ele>1314.6858</ele><time>2026-08-16T01:54:00.000Z</time></trkpt>
        <trkpt lat="28.160828" lon="105.77259"><ele>1315.2958</ele><time>2026-08-16T01:54:02.000Z</time></trkpt>
        <trkpt lat="28.160822" lon="105.772565"><ele>1315.0968</ele><time>2026-08-16T01:54:04.000Z</time></trkpt>
        <trkpt lat="28.160818" lon="105.77254"><ele>1315.2395</ele><time>2026-08-16T01:54:06.000Z</time></trkpt>
        <trkpt lat="28.160812" lon="105.772509"><ele>1316.1473</ele><time>2026-08-16T01:54:08.000Z</time></trkpt>
        <trkpt lat="28.160806" lon="105.772486"><ele>1316.0406</ele><time>2026-08-16T01:54:10.000Z</time></trkpt>
        <trkpt lat="28.160798" lon="105.772466"><ele>1315.8792</ele><time>2026-08-16T01:54:12.000Z</time></trkpt>
        <trkpt lat="28.160788" lon="105.772449"><ele>1315.9236</ele><time>2026-08-16T01:54:14.000Z</time></trkpt>
        <trkpt lat="28.160777" lon="105.77243"><ele>1315.6951</ele><time>2026-08-16T01:54:16.000Z</time></trkpt>
        <trkpt lat="28.160765" lon="105.772407"><ele>1315.6002</ele><time>2026-08-16T01:54:18.000Z</time></trkpt>
        <trkpt lat="28.160753" lon="105.772382"><ele>1315.9951</ele><time>2026-08-16T01:54:20.000Z</time></trkpt>
        <trkpt lat="28.160742" lon="105.772361"><ele>1316.3093</ele><time>2026-08-16T01:54:22.000Z</time></trkpt>
        <trkpt lat="28.16073" lon="105.772343"><ele>1316.4644</ele><time>2026-08-16T01:54:24.000Z</time></trkpt>
        <trkpt lat="28.160717" lon="105.772325"><ele>1316.1088</ele><time>2026-08-16T01:54:26.000Z</time></trkpt>
        <trkpt lat="28.160703" lon="105.772313"><ele>1316.7133</ele><time>2026-08-16T01:54:28.000Z</time></trkpt>
        <trkpt lat="28.160687" lon="105.772297"><ele>1317.0509</ele><time>2026-08-16T01:54:30.000Z</time></trkpt>
        <trkpt lat="28.160669" lon="105.772283"><ele>1316.7102</ele><time>2026-08-16T01:54:32.000Z</time></trkpt>
        <trkpt lat="28.16065" lon="105.772268"><ele>1316.66</ele><time>2026-08-16T01:54:34.000Z</time></trkpt>
        <trkpt lat="28.16063" lon="105.77225"><ele>1316.9244</ele><time>2026-08-16T01:54:36.000Z</time></trkpt>
        <trkpt lat="28.160611" lon="105.772232"><ele>1317.4358</ele><time>2026-08-16T01:54:38.000Z</time></trkpt>
        <trkpt lat="28.160594" lon="105.772214"><ele>1317.4056</ele><time>2026-08-16T01:54:40.000Z</time></trkpt>
        <trkpt lat="28.160576" lon="105.772195"><ele>1318.062</ele><time>2026-08-16T01:54:42.000Z</time></trkpt>
        <trkpt lat="28.16056" lon="105.772175"><ele>1317.622</ele><time>2026-08-16T01:54:44.000Z</time></trkpt>
        <trkpt lat="28.160545" lon="105.772158"><ele>1316.214</ele><time>2026-08-16T01:54:46.000Z</time></trkpt>
        <trkpt lat="28.16053" lon="105.77214"><ele>1316.5386</ele><time>2026-08-16T01:54:48.000Z</time></trkpt>
        <trkpt lat="28.160513" lon="105.77212"><ele>1316.219</ele><time>2026-08-16T01:54:50.000Z</time></trkpt>
        <trkpt lat="28.160502" lon="105.772103"><ele>1316.2794</ele><time>2026-08-16T01:54:52.000Z</time></trkpt>
        <trkpt lat="28.16049" lon="105.772086"><ele>1317.0638</ele><time>2026-08-16T01:54:54.000Z</time></trkpt>
        <trkpt lat="28.160478" lon="105.772067"><ele>1317.8604</ele><time>2026-08-16T01:54:56.000Z</time></trkpt>
        <trkpt lat="28.160464" lon="105.772042"><ele>1318.3033</ele><time>2026-08-16T01:54:58.000Z</time></trkpt>
        <trkpt lat="28.160452" lon="105.772018"><ele>1318.7057</ele><time>2026-08-16T01:55:00.000Z</time></trkpt>
        <trkpt lat="28.16044" lon="105.771991"><ele>1318.9268</ele><time>2026-08-16T01:55:02.000Z</time></trkpt>
        <trkpt lat="28.160429" lon="105.771966"><ele>1319.6802</ele><time>2026-08-16T01:55:04.000Z</time></trkpt>
        <trkpt lat="28.160417" lon="105.771946"><ele>1319.2548</ele><time>2026-08-16T01:55:06.000Z</time></trkpt>
        <trkpt lat="28.160401" lon="105.771924"><ele>1319.6122</ele><time>2026-08-16T01:55:08.000Z</time></trkpt>
        <trkpt lat="28.160386" lon="105.771904"><ele>1319.3995</ele><time>2026-08-16T01:55:10.000Z</time></trkpt>
        <trkpt lat="28.160373" lon="105.771888"><ele>1320.3868</ele><time>2026-08-16T01:55:11.000Z</time></trkpt>
        <trkpt lat="28.160361" lon="105.771873"><ele>1320.1154</ele><time>2026-08-16T01:55:13.000Z</time></trkpt>
        <trkpt lat="28.160351" lon="105.771856"><ele>1319.2294</ele><time>2026-08-16T01:55:15.000Z</time></trkpt>
        <trkpt lat="28.160341" lon="105.771838"><ele>1319.6072</ele><time>2026-08-16T01:55:17.000Z</time></trkpt>
        <trkpt lat="28.160332" lon="105.771818"><ele>1319.4719</ele><time>2026-08-16T01:55:19.000Z</time></trkpt>
        <trkpt lat="28.160323" lon="105.771795"><ele>1319.9684</ele><time>2026-08-16T01:55:21.000Z</time></trkpt>
        <trkpt lat="28.160315" lon="105.77177"><ele>1320.7767</ele><time>2026-08-16T01:55:23.000Z</time></trkpt>
        <trkpt lat="28.160308" lon="105.771743"><ele>1320.7627</ele><time>2026-08-16T01:55:26.000Z</time></trkpt>
        <trkpt lat="28.160302" lon="105.771719"><ele>1321.5509</ele><time>2026-08-16T01:55:28.000Z</time></trkpt>
        <trkpt lat="28.160296" lon="105.771693"><ele>1321.7114</ele><time>2026-08-16T01:55:30.000Z</time></trkpt>
        <trkpt lat="28.160291" lon="105.771669"><ele>1322.2083</ele><time>2026-08-16T01:55:32.000Z</time></trkpt>
        <trkpt lat="28.160287" lon="105.771645"><ele>1321.4253</ele><time>2026-08-16T01:55:34.000Z</time></trkpt>
        <trkpt lat="28.160284" lon="105.771622"><ele>1321.6287</ele><time>2026-08-16T01:55:36.000Z</time></trkpt>
        <trkpt lat="28.160284" lon="105.771598"><ele>1321.003</ele><time>2026-08-16T01:55:38.000Z</time></trkpt>
        <trkpt lat="28.160285" lon="105.771573"><ele>1320.78</ele><time>2026-08-16T01:55:40.000Z</time></trkpt>
        <trkpt lat="28.160286" lon="105.771549"><ele>1321.0037</ele><time>2026-08-16T01:55:42.000Z</time></trkpt>
        <trkpt lat="28.160287" lon="105.77152"><ele>1321.49</ele><time>2026-08-16T01:55:44.000Z</time></trkpt>
        <trkpt lat="28.160287" lon="105.771494"><ele>1321.6311</ele><time>2026-08-16T01:55:46.000Z</time></trkpt>
        <trkpt lat="28.160285" lon="105.771467"><ele>1321.2114</ele><time>2026-08-16T01:55:48.000Z</time></trkpt>
        <trkpt lat="28.160283" lon="105.771442"><ele>1320.751</ele><time>2026-08-16T01:55:50.000Z</time></trkpt>
        <trkpt lat="28.16028" lon="105.771417"><ele>1321.1625</ele><time>2026-08-16T01:55:52.000Z</time></trkpt>
        <trkpt lat="28.160276" lon="105.771392"><ele>1321.4575</ele><time>2026-08-16T01:55:54.000Z</time></trkpt>
        <trkpt lat="28.160273" lon="105.771369"><ele>1322.3915</ele><time>2026-08-16T01:55:56.000Z</time></trkpt>
        <trkpt lat="28.160267" lon="105.771342"><ele>1322.838</ele><time>2026-08-16T01:55:58.000Z</time></trkpt>
        <trkpt lat="28.160259" lon="105.771318"><ele>1323.6628</ele><time>2026-08-16T01:56:00.000Z</time></trkpt>
        <trkpt lat="28.160256" lon="105.771297"><ele>1323.9867</ele><time>2026-08-16T01:56:02.000Z</time></trkpt>
        <trkpt lat="28.160254" lon="105.771274"><ele>1323.0022</ele><time>2026-08-16T01:56:04.000Z</time></trkpt>
        <trkpt lat="28.160252" lon="105.771249"><ele>1322.4291</ele><time>2026-08-16T01:56:06.000Z</time></trkpt>
        <trkpt lat="28.160253" lon="105.771227"><ele>1322.4589</ele><time>2026-08-16T01:56:08.000Z</time></trkpt>
        <trkpt lat="28.160256" lon="105.771198"><ele>1322.529</ele><time>2026-08-16T01:56:10.000Z</time></trkpt>
        <trkpt lat="28.160258" lon="105.771172"><ele>1323.204</ele><time>2026-08-16T01:56:12.000Z</time></trkpt>
        <trkpt lat="28.160258" lon="105.771147"><ele>1322.4229</ele><time>2026-08-16T01:56:14.000Z</time></trkpt>
        <trkpt lat="28.160256" lon="105.771116"><ele>1322.4014</ele><time>2026-08-16T01:56:16.000Z</time></trkpt>
        <trkpt lat="28.160251" lon="105.771088"><ele>1321.8207</ele><time>2026-08-16T01:56:18.000Z</time></trkpt>
        <trkpt lat="28.160244" lon="105.771067"><ele>1322.1371</ele><time>2026-08-16T01:56:20.000Z</time></trkpt>
        <trkpt lat="28.160234" lon="105.771044"><ele>1322.6791</ele><time>2026-08-16T01:56:22.000Z</time></trkpt>
        <trkpt lat="28.160225" lon="105.771021"><ele>1322.3683</ele><time>2026-08-16T01:56:24.000Z</time></trkpt>
        <trkpt lat="28.16022" lon="105.770997"><ele>1321.7233</ele><time>2026-08-16T01:56:26.000Z</time></trkpt>
        <trkpt lat="28.160217" lon="105.770974"><ele>1321.9246</ele><time>2026-08-16T01:56:28.000Z</time></trkpt>
        <trkpt lat="28.160217" lon="105.77095"><ele>1321.0817</ele><time>2026-08-16T01:56:30.000Z</time></trkpt>
        <trkpt lat="28.160219" lon="105.770923"><ele>1322.0092</ele><time>2026-08-16T01:56:32.000Z</time></trkpt>
        <trkpt lat="28.16022" lon="105.770901"><ele>1322.5175</ele><time>2026-08-16T01:56:34.000Z</time></trkpt>
        <trkpt lat="28.160221" lon="105.770876"><ele>1322.297</ele><time>2026-08-16T01:56:36.000Z</time></trkpt>
        <trkpt lat="28.160224" lon="105.770849"><ele>1321.6838</ele><time>2026-08-16T01:56:38.000Z</time></trkpt>
        <trkpt lat="28.160226" lon="105.770822"><ele>1321.3073</ele><time>2026-08-16T01:56:40.000Z</time></trkpt>
        <trkpt lat="28.160228" lon="105.770795"><ele>1322.361</ele><time>2026-08-16T01:56:42.000Z</time></trkpt>
        <trkpt lat="28.160229" lon="105.770768"><ele>1324.3207</ele><time>2026-08-16T01:56:44.000Z</time></trkpt>
        <trkpt lat="28.160229" lon="105.770739"><ele>1324.4474</ele><time>2026-08-16T01:56:46.000Z</time></trkpt>
        <trkpt lat="28.160225" lon="105.770716"><ele>1324.2058</ele><time>2026-08-16T01:56:48.000Z</time></trkpt>
        <trkpt lat="28.160219" lon="105.770696"><ele>1324.8987</ele><time>2026-08-16T01:56:50.000Z</time></trkpt>
        <trkpt lat="28.160214" lon="105.770681"><ele>1325.987</ele><time>2026-08-16T01:56:52.000Z</time></trkpt>
        <trkpt lat="28.160207" lon="105.770663"><ele>1325.6545</ele><time>2026-08-16T01:56:54.000Z</time></trkpt>
        <trkpt lat="28.160202" lon="105.770648"><ele>1325.6945</ele><time>2026-08-16T01:56:56.000Z</time></trkpt>
        <trkpt lat="28.160199" lon="105.770632"><ele>1325.9124</ele><time>2026-08-16T01:56:58.000Z</time></trkpt>
        <trkpt lat="28.160197" lon="105.770608"><ele>1326.0928</ele><time>2026-08-16T01:57:00.000Z</time></trkpt>
        <trkpt lat="28.160196" lon="105.770583"><ele>1326.0193</ele><time>2026-08-16T01:57:02.000Z</time></trkpt>
        <trkpt lat="28.160196" lon="105.770553"><ele>1325.3383</ele><time>2026-08-16T01:57:04.000Z</time></trkpt>
        <trkpt lat="28.160197" lon="105.770528"><ele>1325.1188</ele><time>2026-08-16T01:57:06.000Z</time></trkpt>
        <trkpt lat="28.160199" lon="105.770506"><ele>1324.381</ele><time>2026-08-16T01:57:08.000Z</time></trkpt>
        <trkpt lat="28.1602" lon="105.770489"><ele>1324.6168</ele><time>2026-08-16T01:57:10.000Z</time></trkpt>
        <trkpt lat="28.160203" lon="105.770468"><ele>1324.8484</ele><time>2026-08-16T01:57:12.000Z</time></trkpt>
        <trkpt lat="28.160205" lon="105.770453"><ele>1324.4115</ele><time>2026-08-16T01:57:14.000Z</time></trkpt>
        <trkpt lat="28.160209" lon="105.770436"><ele>1325.6699</ele><time>2026-08-16T01:57:16.000Z</time></trkpt>
        <trkpt lat="28.160211" lon="105.770421"><ele>1326.233</ele><time>2026-08-16T01:57:18.000Z</time></trkpt>
        <trkpt lat="28.160212" lon="105.770401"><ele>1325.9136</ele><time>2026-08-16T01:57:20.000Z</time></trkpt>
        <trkpt lat="28.160213" lon="105.770381"><ele>1326.575</ele><time>2026-08-16T01:57:22.000Z</time></trkpt>
        <trkpt lat="28.160214" lon="105.770358"><ele>1326.6593</ele><time>2026-08-16T01:57:24.000Z</time></trkpt>
        <trkpt lat="28.160213" lon="105.770333"><ele>1326.9028</ele><time>2026-08-16T01:57:26.000Z</time></trkpt>
        <trkpt lat="28.160212" lon="105.770306"><ele>1326.7749</ele><time>2026-08-16T01:57:28.000Z</time></trkpt>
        <trkpt lat="28.160211" lon="105.77028"><ele>1326.9655</ele><time>2026-08-16T01:57:30.000Z</time></trkpt>
        <trkpt lat="28.160209" lon="105.770257"><ele>1327.652</ele><time>2026-08-16T01:57:32.000Z</time></trkpt>
        <trkpt lat="28.160204" lon="105.770236"><ele>1327.8461</ele><time>2026-08-16T01:57:34.000Z</time></trkpt>
        <trkpt lat="28.160199" lon="105.770218"><ele>1328.5154</ele><time>2026-08-16T01:57:36.000Z</time></trkpt>
        <trkpt lat="28.160193" lon="105.770198"><ele>1329.9628</ele><time>2026-08-16T01:57:38.000Z</time></trkpt>
        <trkpt lat="28.160189" lon="105.77018"><ele>1330.8464</ele><time>2026-08-16T01:57:40.000Z</time></trkpt>
        <trkpt lat="28.160187" lon="105.770161"><ele>1332.7178</ele><time>2026-08-16T01:57:42.000Z</time></trkpt>
        <trkpt lat="28.160188" lon="105.770143"><ele>1333.5831</ele><time>2026-08-16T01:57:44.000Z</time></trkpt>
        <trkpt lat="28.160192" lon="105.770121"><ele>1334.2698</ele><time>2026-08-16T01:57:46.000Z</time></trkpt>
        <trkpt lat="28.160198" lon="105.770099"><ele>1334.1589</ele><time>2026-08-16T01:57:48.000Z</time></trkpt>
        <trkpt lat="28.160204" lon="105.770079"><ele>1334.2385</ele><time>2026-08-16T01:57:50.000Z</time></trkpt>
        <trkpt lat="28.16021" lon="105.770063"><ele>1333.103</ele><time>2026-08-16T01:57:52.000Z</time></trkpt>
        <trkpt lat="28.160216" lon="105.770046"><ele>1332.5743</ele><time>2026-08-16T01:57:54.000Z</time></trkpt>
        <trkpt lat="28.160222" lon="105.770028"><ele>1332.1427</ele><time>2026-08-16T01:57:56.000Z</time></trkpt>
        <trkpt lat="28.160229" lon="105.770005"><ele>1331.2377</ele><time>2026-08-16T01:57:58.000Z</time></trkpt>
        <trkpt lat="28.160236" lon="105.769978"><ele>1330.9856</ele><time>2026-08-16T01:58:00.000Z</time></trkpt>
        <trkpt lat="28.160244" lon="105.769951"><ele>1330.2434</ele><time>2026-08-16T01:58:02.000Z</time></trkpt>
        <trkpt lat="28.160251" lon="105.769924"><ele>1331.4094</ele><time>2026-08-16T01:58:04.000Z</time></trkpt>
        <trkpt lat="28.160254" lon="105.7699"><ele>1331.6954</ele><time>2026-08-16T01:58:06.000Z</time></trkpt>
        <trkpt lat="28.160253" lon="105.769886"><ele>1332.8878</ele><time>2026-08-16T01:58:08.000Z</time></trkpt>
        <trkpt lat="28.160249" lon="105.769876"><ele>1333.8195</ele><time>2026-08-16T01:58:10.000Z</time></trkpt>
        <trkpt lat="28.160238" lon="105.769866"><ele>1334.853</ele><time>2026-08-16T01:58:12.000Z</time></trkpt>
        <trkpt lat="28.160225" lon="105.769859"><ele>1334.944</ele><time>2026-08-16T01:58:14.000Z</time></trkpt>
        <trkpt lat="28.16021" lon="105.769854"><ele>1335.0865</ele><time>2026-08-16T01:58:16.000Z</time></trkpt>
        <trkpt lat="28.160194" lon="105.769851"><ele>1335.7749</ele><time>2026-08-16T01:58:18.000Z</time></trkpt>
        <trkpt lat="28.160179" lon="105.769848"><ele>1335.8068</ele><time>2026-08-16T01:58:20.000Z</time></trkpt>
        <trkpt lat="28.160164" lon="105.769844"><ele>1336.1512</ele><time>2026-08-16T01:58:22.000Z</time></trkpt>
        <trkpt lat="28.160149" lon="105.769839"><ele>1337.027</ele><time>2026-08-16T01:58:24.000Z</time></trkpt>
        <trkpt lat="28.160133" lon="105.769834"><ele>1337.6747</ele><time>2026-08-16T01:58:26.000Z</time></trkpt>
        <trkpt lat="28.160115" lon="105.769827"><ele>1338.206</ele><time>2026-08-16T01:58:28.000Z</time></trkpt>
        <trkpt lat="28.160099" lon="105.769819"><ele>1338.8951</ele><time>2026-08-16T01:58:30.000Z</time></trkpt>
        <trkpt lat="28.160085" lon="105.76981"><ele>1339.292</ele><time>2026-08-16T01:58:32.000Z</time></trkpt>
        <trkpt lat="28.160073" lon="105.769799"><ele>1340.0537</ele><time>2026-08-16T01:58:34.000Z</time></trkpt>
        <trkpt lat="28.160062" lon="105.769786"><ele>1340.2582</ele><time>2026-08-16T01:58:36.000Z</time></trkpt>
        <trkpt lat="28.160052" lon="105.769771"><ele>1339.6017</ele><time>2026-08-16T01:58:38.000Z</time></trkpt>
        <trkpt lat="28.160042" lon="105.769755"><ele>1339.3992</ele><time>2026-08-16T01:58:40.000Z</time></trkpt>
        <trkpt lat="28.160032" lon="105.769736"><ele>1339.305</ele><time>2026-08-16T01:58:42.000Z</time></trkpt>
        <trkpt lat="28.160026" lon="105.769711"><ele>1339.6626</ele><time>2026-08-16T01:58:44.000Z</time></trkpt>
        <trkpt lat="28.160021" lon="105.76968"><ele>1338.3229</ele><time>2026-08-16T01:58:46.000Z</time></trkpt>
        <trkpt lat="28.160018" lon="105.769654"><ele>1338.2626</ele><time>2026-08-16T01:58:48.000Z</time></trkpt>
        <trkpt lat="28.160017" lon="105.76963"><ele>1338.6012</ele><time>2026-08-16T01:58:50.000Z</time></trkpt>
        <trkpt lat="28.160017" lon="105.76961"><ele>1339.6533</ele><time>2026-08-16T01:58:52.000Z</time></trkpt>
        <trkpt lat="28.160016" lon="105.769593"><ele>1339.8097</ele><time>2026-08-16T01:58:54.000Z</time></trkpt>
        <trkpt lat="28.160014" lon="105.76958"><ele>1340.185</ele><time>2026-08-16T01:58:56.000Z</time></trkpt>
        <trkpt lat="28.160007" lon="105.769562"><ele>1339.6957</ele><time>2026-08-16T01:58:58.000Z</time></trkpt>
        <trkpt lat="28.159999" lon="105.769548"><ele>1340.7971</ele><time>2026-08-16T01:59:00.000Z</time></trkpt>
        <trkpt lat="28.159985" lon="105.769531"><ele>1341.5088</ele><time>2026-08-16T01:59:02.000Z</time></trkpt>
        <trkpt lat="28.159969" lon="105.769515"><ele>1341.5906</ele><time>2026-08-16T01:59:04.000Z</time></trkpt>
        <trkpt lat="28.159954" lon="105.769503"><ele>1341.9628</ele><time>2026-08-16T01:59:06.000Z</time></trkpt>
        <trkpt lat="28.159937" lon="105.769488"><ele>1342.3179</ele><time>2026-08-16T01:59:08.000Z</time></trkpt>
        <trkpt lat="28.159921" lon="105.769472"><ele>1342.0425</ele><time>2026-08-16T01:59:10.000Z</time></trkpt>
        <trkpt lat="28.159904" lon="105.769455"><ele>1341.8721</ele><time>2026-08-16T01:59:12.000Z</time></trkpt>
        <trkpt lat="28.159886" lon="105.769441"><ele>1342.504</ele><time>2026-08-16T01:59:14.000Z</time></trkpt>
        <trkpt lat="28.159867" lon="105.769426"><ele>1342.8514</ele><time>2026-08-16T01:59:16.000Z</time></trkpt>
        <trkpt lat="28.159845" lon="105.76941"><ele>1342.9822</ele><time>2026-08-16T01:59:18.000Z</time></trkpt>
        <trkpt lat="28.159822" lon="105.769395"><ele>1344.239</ele><time>2026-08-16T01:59:20.000Z</time></trkpt>
        <trkpt lat="28.159801" lon="105.76938"><ele>1345.2297</ele><time>2026-08-16T01:59:22.000Z</time></trkpt>
        <trkpt lat="28.159783" lon="105.769364"><ele>1345.3217</ele><time>2026-08-16T01:59:24.000Z</time></trkpt>
        <trkpt lat="28.159765" lon="105.769346"><ele>1345.9933</ele><time>2026-08-16T01:59:26.000Z</time></trkpt>
        <trkpt lat="28.159745" lon="105.769325"><ele>1346.7743</ele><time>2026-08-16T01:59:28.000Z</time></trkpt>
        <trkpt lat="28.15973" lon="105.769305"><ele>1347.2367</ele><time>2026-08-16T01:59:30.000Z</time></trkpt>
        <trkpt lat="28.159717" lon="105.769288"><ele>1346.0404</ele><time>2026-08-16T01:59:32.000Z</time></trkpt>
        <trkpt lat="28.159706" lon="105.769274"><ele>1345.9811</ele><time>2026-08-16T01:59:34.000Z</time></trkpt>
        <trkpt lat="28.159692" lon="105.769257"><ele>1346.2139</ele><time>2026-08-16T01:59:36.000Z</time></trkpt>
        <trkpt lat="28.159681" lon="105.769241"><ele>1346.5905</ele><time>2026-08-16T01:59:38.000Z</time></trkpt>
        <trkpt lat="28.159667" lon="105.769222"><ele>1346.6633</ele><time>2026-08-16T01:59:40.000Z</time></trkpt>
        <trkpt lat="28.159653" lon="105.769205"><ele>1347.0422</ele><time>2026-08-16T01:59:42.000Z</time></trkpt>
        <trkpt lat="28.159637" lon="105.769191"><ele>1346.7339</ele><time>2026-08-16T01:59:44.000Z</time></trkpt>
        <trkpt lat="28.15962" lon="105.76918"><ele>1345.8353</ele><time>2026-08-16T01:59:46.000Z</time></trkpt>
        <trkpt lat="28.159597" lon="105.769173"><ele>1346.7988</ele><time>2026-08-16T01:59:48.000Z</time></trkpt>
        <trkpt lat="28.159577" lon="105.769171"><ele>1346.1791</ele><time>2026-08-16T01:59:50.000Z</time></trkpt>
        <trkpt lat="28.159559" lon="105.769176"><ele>1346.7931</ele><time>2026-08-16T01:59:52.000Z</time></trkpt>
        <trkpt lat="28.159543" lon="105.769187"><ele>1346.7958</ele><time>2026-08-16T01:59:54.000Z</time></trkpt>
        <trkpt lat="28.159527" lon="105.769204"><ele>1347.4336</ele><time>2026-08-16T01:59:56.000Z</time></trkpt>
        <trkpt lat="28.159509" lon="105.769223"><ele>1348.8688</ele><time>2026-08-16T01:59:58.000Z</time></trkpt>
        <trkpt lat="28.159493" lon="105.769236"><ele>1348.1533</ele><time>2026-08-16T02:00:00.000Z</time></trkpt>
        <trkpt lat="28.159476" lon="105.769243"><ele>1347.6482</ele><time>2026-08-16T02:00:02.000Z</time></trkpt>
        <trkpt lat="28.159458" lon="105.769245"><ele>1348.5973</ele><time>2026-08-16T02:00:04.000Z</time></trkpt>
        <trkpt lat="28.159441" lon="105.769245"><ele>1348.649</ele><time>2026-08-16T02:00:06.000Z</time></trkpt>
        <trkpt lat="28.159423" lon="105.769245"><ele>1348.6105</ele><time>2026-08-16T02:00:08.000Z</time></trkpt>
        <trkpt lat="28.159404" lon="105.769246"><ele>1349.7229</ele><time>2026-08-16T02:00:10.000Z</time></trkpt>
        <trkpt lat="28.159384" lon="105.769247"><ele>1350.1864</ele><time>2026-08-16T02:00:12.000Z</time></trkpt>
        <trkpt lat="28.159364" lon="105.769247"><ele>1350.0907</ele><time>2026-08-16T02:00:14.000Z</time></trkpt>
        <trkpt lat="28.159349" lon="105.769246"><ele>1349.9435</ele><time>2026-08-16T02:00:16.000Z</time></trkpt>
        <trkpt lat="28.159332" lon="105.769244"><ele>1349.8088</ele><time>2026-08-16T02:00:18.000Z</time></trkpt>
        <trkpt lat="28.159313" lon="105.769241"><ele>1349.6351</ele><time>2026-08-16T02:00:20.000Z</time></trkpt>
        <trkpt lat="28.159294" lon="105.769239"><ele>1348.9156</ele><time>2026-08-16T02:00:22.000Z</time></trkpt>
        <trkpt lat="28.159274" lon="105.769236"><ele>1348.7456</ele><time>2026-08-16T02:00:24.000Z</time></trkpt>
        <trkpt lat="28.159255" lon="105.769234"><ele>1348.8304</ele><time>2026-08-16T02:00:26.000Z</time></trkpt>
        <trkpt lat="28.159235" lon="105.769232"><ele>1348.7834</ele><time>2026-08-16T02:00:28.000Z</time></trkpt>
        <trkpt lat="28.159213" lon="105.769228"><ele>1349.0437</ele><time>2026-08-16T02:00:30.000Z</time></trkpt>
        <trkpt lat="28.159192" lon="105.769224"><ele>1349.269</ele><time>2026-08-16T02:00:32.000Z</time></trkpt>
        <trkpt lat="28.159173" lon="105.76922"><ele>1348.4303</ele><time>2026-08-16T02:00:34.000Z</time></trkpt>
        <trkpt lat="28.159154" lon="105.769214"><ele>1349.1464</ele><time>2026-08-16T02:00:36.000Z</time></trkpt>
        <trkpt lat="28.159135" lon="105.769207"><ele>1349.4087</ele><time>2026-08-16T02:00:38.000Z</time></trkpt>
        <trkpt lat="28.159115" lon="105.769198"><ele>1350.1937</ele><time>2026-08-16T02:00:40.000Z</time></trkpt>
        <trkpt lat="28.159093" lon="105.769189"><ele>1350.274</ele><time>2026-08-16T02:00:42.000Z</time></trkpt>
        <trkpt lat="28.159071" lon="105.769179"><ele>1350.5441</ele><time>2026-08-16T02:00:44.000Z</time></trkpt>
        <trkpt lat="28.159048" lon="105.769169"><ele>1350.5265</ele><time>2026-08-16T02:00:46.000Z</time></trkpt>
        <trkpt lat="28.159026" lon="105.76916"><ele>1350.7301</ele><time>2026-08-16T02:00:48.000Z</time></trkpt>
        <trkpt lat="28.159005" lon="105.769154"><ele>1350.5798</ele><time>2026-08-16T02:00:50.000Z</time></trkpt>
        <trkpt lat="28.158984" lon="105.76915"><ele>1350.9539</ele><time>2026-08-16T02:00:52.000Z</time></trkpt>
        <trkpt lat="28.158969" lon="105.769146"><ele>1350.1644</ele><time>2026-08-16T02:00:54.000Z</time></trkpt>
        <trkpt lat="28.158953" lon="105.769143"><ele>1350.0962</ele><time>2026-08-16T02:00:56.000Z</time></trkpt>
        <trkpt lat="28.158938" lon="105.76914"><ele>1349.9143</ele><time>2026-08-16T02:00:58.000Z</time></trkpt>
        <trkpt lat="28.15892" lon="105.769137"><ele>1349.2942</ele><time>2026-08-16T02:01:00.000Z</time></trkpt>
        <trkpt lat="28.158905" lon="105.769133"><ele>1349.9148</ele><time>2026-08-16T02:01:02.000Z</time></trkpt>
        <trkpt lat="28.158892" lon="105.769129"><ele>1349.2157</ele><time>2026-08-16T02:01:04.000Z</time></trkpt>
        <trkpt lat="28.158875" lon="105.769121"><ele>1349.599</ele><time>2026-08-16T02:01:06.000Z</time></trkpt>
        <trkpt lat="28.158856" lon="105.769111"><ele>1349.4056</ele><time>2026-08-16T02:01:08.000Z</time></trkpt>
        <trkpt lat="28.158835" lon="105.769097"><ele>1348.8901</ele><time>2026-08-16T02:01:10.000Z</time></trkpt>
        <trkpt lat="28.158814" lon="105.769082"><ele>1348.6191</ele><time>2026-08-16T02:01:12.000Z</time></trkpt>
        <trkpt lat="28.15879" lon="105.769064"><ele>1348.2605</ele><time>2026-08-16T02:01:14.000Z</time></trkpt>
        <trkpt lat="28.158767" lon="105.769047"><ele>1348.3435</ele><time>2026-08-16T02:01:16.000Z</time></trkpt>
        <trkpt lat="28.158745" lon="105.769032"><ele>1347.5045</ele><time>2026-08-16T02:01:18.000Z</time></trkpt>
        <trkpt lat="28.158726" lon="105.769023"><ele>1347.4478</ele><time>2026-08-16T02:01:20.000Z</time></trkpt>
        <trkpt lat="28.158708" lon="105.769016"><ele>1347.5319</ele><time>2026-08-16T02:01:22.000Z</time></trkpt>
        <trkpt lat="28.158694" lon="105.769013"><ele>1345.9403</ele><time>2026-08-16T02:01:24.000Z</time></trkpt>
        <trkpt lat="28.158681" lon="105.769012"><ele>1345.7565</ele><time>2026-08-16T02:01:26.000Z</time></trkpt>
        <trkpt lat="28.158668" lon="105.76901"><ele>1345.4747</ele><time>2026-08-16T02:01:28.000Z</time></trkpt>
        <trkpt lat="28.158655" lon="105.769007"><ele>1345.0101</ele><time>2026-08-16T02:01:30.000Z</time></trkpt>
        <trkpt lat="28.15864" lon="105.769001"><ele>1344.7991</ele><time>2026-08-16T02:01:32.000Z</time></trkpt>
        <trkpt lat="28.158621" lon="105.768991"><ele>1343.7443</ele><time>2026-08-16T02:01:34.000Z</time></trkpt>
        <trkpt lat="28.158602" lon="105.768978"><ele>1344.6473</ele><time>2026-08-16T02:01:36.000Z</time></trkpt>
        <trkpt lat="28.158584" lon="105.768961"><ele>1343.386</ele><time>2026-08-16T02:01:38.000Z</time></trkpt>
        <trkpt lat="28.158569" lon="105.768941"><ele>1344.1324</ele><time>2026-08-16T02:01:40.000Z</time></trkpt>
        <trkpt lat="28.158557" lon="105.768917"><ele>1344.4677</ele><time>2026-08-16T02:01:42.000Z</time></trkpt>
        <trkpt lat="28.158552" lon="105.768895"><ele>1343.6439</ele><time>2026-08-16T02:01:44.000Z</time></trkpt>
        <trkpt lat="28.15855" lon="105.768871"><ele>1344.4678</ele><time>2026-08-16T02:01:46.000Z</time></trkpt>
        <trkpt lat="28.158551" lon="105.768846"><ele>1345.1493</ele><time>2026-08-16T02:01:48.000Z</time></trkpt>
        <trkpt lat="28.158557" lon="105.768828"><ele>1345.5261</ele><time>2026-08-16T02:01:50.000Z</time></trkpt>
        <trkpt lat="28.158564" lon="105.768816"><ele>1346.3495</ele><time>2026-08-16T02:01:52.000Z</time></trkpt>
        <trkpt lat="28.158572" lon="105.768805"><ele>1346.0372</ele><time>2026-08-16T02:01:54.000Z</time></trkpt>
        <trkpt lat="28.158578" lon="105.768792"><ele>1345.0836</ele><time>2026-08-16T02:01:56.000Z</time></trkpt>
        <trkpt lat="28.158586" lon="105.768778"><ele>1344.7654</ele><time>2026-08-16T02:01:58.000Z</time></trkpt>
        <trkpt lat="28.158592" lon="105.768764"><ele>1343.9526</ele><time>2026-08-16T02:02:00.000Z</time></trkpt>
        <trkpt lat="28.158598" lon="105.76875"><ele>1343.4742</ele><time>2026-08-16T02:02:02.000Z</time></trkpt>
        <trkpt lat="28.158604" lon="105.768732"><ele>1343.6879</ele><time>2026-08-16T02:02:04.000Z</time></trkpt>
        <trkpt lat="28.158611" lon="105.768714"><ele>1343.3079</ele><time>2026-08-16T02:02:06.000Z</time></trkpt>
        <trkpt lat="28.158617" lon="105.768694"><ele>1342.8972</ele><time>2026-08-16T02:02:08.000Z</time></trkpt>
        <trkpt lat="28.158623" lon="105.76867"><ele>1343.4462</ele><time>2026-08-16T02:02:10.000Z</time></trkpt>
        <trkpt lat="28.158628" lon="105.768647"><ele>1343.4379</ele><time>2026-08-16T02:02:12.000Z</time></trkpt>
        <trkpt lat="28.158633" lon="105.768625"><ele>1343.9183</ele><time>2026-08-16T02:02:14.000Z</time></trkpt>
        <trkpt lat="28.158636" lon="105.768609"><ele>1344.6224</ele><time>2026-08-16T02:02:16.000Z</time></trkpt>
        <trkpt lat="28.15864" lon="105.7686"><ele>1344.9545</ele><time>2026-08-16T02:02:18.000Z</time></trkpt>
        <trkpt lat="28.158643" lon="105.768593"><ele>1344.6531</ele><time>2026-08-16T02:02:20.000Z</time></trkpt>
        <trkpt lat="28.158651" lon="105.768579"><ele>1343.99</ele><time>2026-08-16T02:02:22.000Z</time></trkpt>
        <trkpt lat="28.15866" lon="105.768571"><ele>1343.9907</ele><time>2026-08-16T02:02:24.000Z</time></trkpt>
        <trkpt lat="28.158665" lon="105.768571"><ele>1343.3228</ele><time>2026-08-16T02:02:26.000Z</time></trkpt>
        <trkpt lat="28.158682" lon="105.768572"><ele>1345.273</ele><time>2026-08-16T02:02:32.000Z</time></trkpt>
        <trkpt lat="28.158693" lon="105.768574"><ele>1344.6293</ele><time>2026-08-16T02:02:36.000Z</time></trkpt>
        <trkpt lat="28.158695" lon="105.768572"><ele>1344.2656</ele><time>2026-08-16T02:02:38.000Z</time></trkpt>
        <trkpt lat="28.15871" lon="105.768548"><ele>1343.7257</ele><time>2026-08-16T02:02:42.000Z</time></trkpt>
        <trkpt lat="28.15869" lon="105.768539"><ele>1347.6727</ele><time>2026-08-16T02:03:04.000Z</time></trkpt>
        <trkpt lat="28.15869" lon="105.768539"><ele>1348.2516</ele><time>2026-08-16T02:03:08.000Z</time></trkpt>
        <trkpt lat="28.158699" lon="105.768505"><ele>1350.2578</ele><time>2026-08-16T02:03:18.000Z</time></trkpt>
        <trkpt lat="28.158704" lon="105.768488"><ele>1350.2507</ele><time>2026-08-16T02:03:20.000Z</time></trkpt>
        <trkpt lat="28.158704" lon="105.768486"><ele>1351.02</ele><time>2026-08-16T02:03:22.000Z</time></trkpt>
        <trkpt lat="28.158707" lon="105.768463"><ele>1350.9409</ele><time>2026-08-16T02:03:28.000Z</time></trkpt>
        <trkpt lat="28.158707" lon="105.76845"><ele>1351.4166</ele><time>2026-08-16T02:03:30.000Z</time></trkpt>
        <trkpt lat="28.158709" lon="105.768432"><ele>1351.7877</ele><time>2026-08-16T02:03:32.000Z</time></trkpt>
        <trkpt lat="28.158713" lon="105.768413"><ele>1350.8896</ele><time>2026-08-16T02:03:34.000Z</time></trkpt>
        <trkpt lat="28.158714" lon="105.768394"><ele>1350.986</ele><time>2026-08-16T02:03:36.000Z</time></trkpt>
        <trkpt lat="28.158713" lon="105.768378"><ele>1351.0338</ele><time>2026-08-16T02:03:38.000Z</time></trkpt>
        <trkpt lat="28.15871" lon="105.768358"><ele>1350.893</ele><time>2026-08-16T02:03:40.000Z</time></trkpt>
        <trkpt lat="28.158707" lon="105.768338"><ele>1351.3878</ele><time>2026-08-16T02:03:42.000Z</time></trkpt>
        <trkpt lat="28.158703" lon="105.768314"><ele>1351.1849</ele><time>2026-08-16T02:03:44.000Z</time></trkpt>
        <trkpt lat="28.1587" lon="105.768294"><ele>1350.9932</ele><time>2026-08-16T02:03:46.000Z</time></trkpt>
        <trkpt lat="28.158698" lon="105.768277"><ele>1351.0847</ele><time>2026-08-16T02:03:48.000Z</time></trkpt>
        <trkpt lat="28.158693" lon="105.768256"><ele>1350.8436</ele><time>2026-08-16T02:03:50.000Z</time></trkpt>
        <trkpt lat="28.158688" lon="105.768237"><ele>1350.8038</ele><time>2026-08-16T02:03:52.000Z</time></trkpt>
        <trkpt lat="28.158683" lon="105.768221"><ele>1350.589</ele><time>2026-08-16T02:03:54.000Z</time></trkpt>
        <trkpt lat="28.158678" lon="105.768209"><ele>1351.1559</ele><time>2026-08-16T02:03:56.000Z</time></trkpt>
        <trkpt lat="28.158673" lon="105.768196"><ele>1351.2344</ele><time>2026-08-16T02:03:58.000Z</time></trkpt>
        <trkpt lat="28.158671" lon="105.768189"><ele>1350.1064</ele><time>2026-08-16T02:04:00.000Z</time></trkpt>
        <trkpt lat="28.158667" lon="105.768174"><ele>1349.6454</ele><time>2026-08-16T02:04:04.000Z</time></trkpt>
        <trkpt lat="28.158663" lon="105.768157"><ele>1350.0989</ele><time>2026-08-16T02:04:12.000Z</time></trkpt>
        <trkpt lat="28.158662" lon="105.768152"><ele>1350.1826</ele><time>2026-08-16T02:04:14.000Z</time></trkpt>
        <trkpt lat="28.158659" lon="105.768135"><ele>1351.5637</ele><time>2026-08-16T02:04:18.000Z</time></trkpt>
        <trkpt lat="28.158651" lon="105.768124"><ele>1351.5775</ele><time>2026-08-16T02:04:22.000Z</time></trkpt>
        <trkpt lat="28.158641" lon="105.768111"><ele>1351.1929</ele><time>2026-08-16T02:04:24.000Z</time></trkpt>
        <trkpt lat="28.15864" lon="105.768109"><ele>1349.7153</ele><time>2026-08-16T02:04:28.000Z</time></trkpt>
        <trkpt lat="28.158633" lon="105.768095"><ele>1349.2096</ele><time>2026-08-16T02:04:32.000Z</time></trkpt>
        <trkpt lat="28.158615" lon="105.768061"><ele>1348.9817</ele><time>2026-08-16T02:04:36.000Z</time></trkpt>
        <trkpt lat="28.158615" lon="105.768061"><ele>1348.9061</ele><time>2026-08-16T02:04:38.000Z</time></trkpt>
        <trkpt lat="28.158614" lon="105.768059"><ele>1349.0387</ele><time>2026-08-16T02:04:40.000Z</time></trkpt>
        <trkpt lat="28.158596" lon="105.768028"><ele>1349.7239</ele><time>2026-08-16T02:04:44.000Z</time></trkpt>
        <trkpt lat="28.158582" lon="105.768004"><ele>1349.2714</ele><time>2026-08-16T02:04:46.000Z</time></trkpt>
        <trkpt lat="28.158567" lon="105.767979"><ele>1348.6699</ele><time>2026-08-16T02:04:48.000Z</time></trkpt>
        <trkpt lat="28.158555" lon="105.767955"><ele>1348.6119</ele><time>2026-08-16T02:04:50.000Z</time></trkpt>
        <trkpt lat="28.158543" lon="105.767933"><ele>1349.5808</ele><time>2026-08-16T02:04:52.000Z</time></trkpt>
        <trkpt lat="28.158532" lon="105.767918"><ele>1349.5608</ele><time>2026-08-16T02:04:54.000Z</time></trkpt>
        <trkpt lat="28.158514" lon="105.767899"><ele>1349.7151</ele><time>2026-08-16T02:04:56.000Z</time></trkpt>
        <trkpt lat="28.158496" lon="105.767881"><ele>1349.386</ele><time>2026-08-16T02:04:58.000Z</time></trkpt>
        <trkpt lat="28.158479" lon="105.767865"><ele>1349.1543</ele><time>2026-08-16T02:05:00.000Z</time></trkpt>
        <trkpt lat="28.158462" lon="105.76785"><ele>1349.0925</ele><time>2026-08-16T02:05:02.000Z</time></trkpt>
        <trkpt lat="28.158448" lon="105.767836"><ele>1349.0488</ele><time>2026-08-16T02:05:04.000Z</time></trkpt>
        <trkpt lat="28.158433" lon="105.767817"><ele>1348.8403</ele><time>2026-08-16T02:05:06.000Z</time></trkpt>
        <trkpt lat="28.15842" lon="105.767801"><ele>1348.2985</ele><time>2026-08-16T02:05:08.000Z</time></trkpt>
        <trkpt lat="28.158407" lon="105.767787"><ele>1349.3075</ele><time>2026-08-16T02:05:10.000Z</time></trkpt>
        <trkpt lat="28.158393" lon="105.767775"><ele>1348.6378</ele><time>2026-08-16T02:05:12.000Z</time></trkpt>
        <trkpt lat="28.158379" lon="105.767765"><ele>1349.2063</ele><time>2026-08-16T02:05:14.000Z</time></trkpt>
        <trkpt lat="28.15836" lon="105.767753"><ele>1349.3865</ele><time>2026-08-16T02:05:16.000Z</time></trkpt>
        <trkpt lat="28.158344" lon="105.76774"><ele>1349.4619</ele><time>2026-08-16T02:05:18.000Z</time></trkpt>
        <trkpt lat="28.15833" lon="105.767729"><ele>1349.4257</ele><time>2026-08-16T02:05:20.000Z</time></trkpt>
        <trkpt lat="28.158317" lon="105.767718"><ele>1349.8728</ele><time>2026-08-16T02:05:22.000Z</time></trkpt>
        <trkpt lat="28.158303" lon="105.767707"><ele>1348.9124</ele><time>2026-08-16T02:05:24.000Z</time></trkpt>
        <trkpt lat="28.158291" lon="105.7677"><ele>1348.2073</ele><time>2026-08-16T02:05:26.000Z</time></trkpt>
        <trkpt lat="28.158275" lon="105.76769"><ele>1348.3447</ele><time>2026-08-16T02:05:28.000Z</time></trkpt>
        <trkpt lat="28.15826" lon="105.767681"><ele>1348.302</ele><time>2026-08-16T02:05:30.000Z</time></trkpt>
        <trkpt lat="28.158246" lon="105.767671"><ele>1347.9537</ele><time>2026-08-16T02:05:32.000Z</time></trkpt>
        <trkpt lat="28.158227" lon="105.767655"><ele>1347.5984</ele><time>2026-08-16T02:05:34.000Z</time></trkpt>
        <trkpt lat="28.158214" lon="105.767638"><ele>1347.476</ele><time>2026-08-16T02:05:36.000Z</time></trkpt>
        <trkpt lat="28.15821" lon="105.767622"><ele>1347.8364</ele><time>2026-08-16T02:05:38.000Z</time></trkpt>
        <trkpt lat="28.158212" lon="105.767611"><ele>1346.5017</ele><time>2026-08-16T02:05:40.000Z</time></trkpt>
        <trkpt lat="28.158217" lon="105.767599"><ele>1346.0878</ele><time>2026-08-16T02:05:42.000Z</time></trkpt>
        <trkpt lat="28.158223" lon="105.767582"><ele>1345.5829</ele><time>2026-08-16T02:05:44.000Z</time></trkpt>
        <trkpt lat="28.158229" lon="105.767559"><ele>1345.6865</ele><time>2026-08-16T02:05:46.000Z</time></trkpt>
        <trkpt lat="28.158234" lon="105.767537"><ele>1346.7393</ele><time>2026-08-16T02:05:48.000Z</time></trkpt>
        <trkpt lat="28.158238" lon="105.767516"><ele>1347.5718</ele><time>2026-08-16T02:05:50.000Z</time></trkpt>
        <trkpt lat="28.158242" lon="105.767496"><ele>1346.7886</ele><time>2026-08-16T02:05:52.000Z</time></trkpt>
        <trkpt lat="28.158243" lon="105.767488"><ele>1347.3792</ele><time>2026-08-16T02:05:54.000Z</time></trkpt>
        <trkpt lat="28.158247" lon="105.767473"><ele>1348.4213</ele><time>2026-08-16T02:05:56.000Z</time></trkpt>
        <trkpt lat="28.158253" lon="105.767445"><ele>1347.2139</ele><time>2026-08-16T02:05:58.000Z</time></trkpt>
        <trkpt lat="28.158258" lon="105.767421"><ele>1347.7814</ele><time>2026-08-16T02:06:00.000Z</time></trkpt>
        <trkpt lat="28.158266" lon="105.767396"><ele>1347.229</ele><time>2026-08-16T02:06:02.000Z</time></trkpt>
        <trkpt lat="28.158275" lon="105.767369"><ele>1347.0276</ele><time>2026-08-16T02:06:04.000Z</time></trkpt>
        <trkpt lat="28.158284" lon="105.767344"><ele>1347.0371</ele><time>2026-08-16T02:06:06.000Z</time></trkpt>
        <trkpt lat="28.15829" lon="105.767323"><ele>1346.3618</ele><time>2026-08-16T02:06:08.000Z</time></trkpt>
        <trkpt lat="28.158299" lon="105.767302"><ele>1346.9667</ele><time>2026-08-16T02:06:10.000Z</time></trkpt>
        <trkpt lat="28.158306" lon="105.767284"><ele>1347.7029</ele><time>2026-08-16T02:06:12.000Z</time></trkpt>
        <trkpt lat="28.158311" lon="105.767266"><ele>1347.0116</ele><time>2026-08-16T02:06:14.000Z</time></trkpt>
        <trkpt lat="28.158312" lon="105.767245"><ele>1347.466</ele><time>2026-08-16T02:06:16.000Z</time></trkpt>
        <trkpt lat="28.158311" lon="105.767221"><ele>1347.4824</ele><time>2026-08-16T02:06:18.000Z</time></trkpt>
        <trkpt lat="28.15831" lon="105.767202"><ele>1348.219</ele><time>2026-08-16T02:06:20.000Z</time></trkpt>
        <trkpt lat="28.158309" lon="105.767184"><ele>1348.6274</ele><time>2026-08-16T02:06:22.000Z</time></trkpt>
        <trkpt lat="28.158311" lon="105.767166"><ele>1347.7181</ele><time>2026-08-16T02:06:24.000Z</time></trkpt>
        <trkpt lat="28.158316" lon="105.767141"><ele>1348.2002</ele><time>2026-08-16T02:06:26.000Z</time></trkpt>
        <trkpt lat="28.158322" lon="105.767115"><ele>1348.5662</ele><time>2026-08-16T02:06:28.000Z</time></trkpt>
        <trkpt lat="28.158328" lon="105.767086"><ele>1349.0674</ele><time>2026-08-16T02:06:30.000Z</time></trkpt>
        <trkpt lat="28.158331" lon="105.767061"><ele>1349.0287</ele><time>2026-08-16T02:06:32.000Z</time></trkpt>
        <trkpt lat="28.158331" lon="105.767038"><ele>1349.2268</ele><time>2026-08-16T02:06:34.000Z</time></trkpt>
        <trkpt lat="28.15833" lon="105.767018"><ele>1348.389</ele><time>2026-08-16T02:06:36.000Z</time></trkpt>
        <trkpt lat="28.158329" lon="105.767003"><ele>1348.4314</ele><time>2026-08-16T02:06:38.000Z</time></trkpt>
        <trkpt lat="28.158325" lon="105.766982"><ele>1348.3861</ele><time>2026-08-16T02:06:40.000Z</time></trkpt>
        <trkpt lat="28.158317" lon="105.766959"><ele>1348.6832</ele><time>2026-08-16T02:06:42.000Z</time></trkpt>
        <trkpt lat="28.158313" lon="105.766939"><ele>1348.7372</ele><time>2026-08-16T02:06:44.000Z</time></trkpt>
        <trkpt lat="28.158312" lon="105.766923"><ele>1346.6324</ele><time>2026-08-16T02:06:46.000Z</time></trkpt>
        <trkpt lat="28.15831" lon="105.766908"><ele>1346.924</ele><time>2026-08-16T02:06:48.000Z</time></trkpt>
        <trkpt lat="28.158304" lon="105.766888"><ele>1347.6143</ele><time>2026-08-16T02:06:50.000Z</time></trkpt>
        <trkpt lat="28.158297" lon="105.766871"><ele>1348.9735</ele><time>2026-08-16T02:06:52.000Z</time></trkpt>
        <trkpt lat="28.158292" lon="105.766857"><ele>1348.8511</ele><time>2026-08-16T02:06:54.000Z</time></trkpt>
        <trkpt lat="28.15829" lon="105.766846"><ele>1348.5</ele><time>2026-08-16T02:06:56.000Z</time></trkpt>
        <trkpt lat="28.158292" lon="105.766838"><ele>1348.5234</ele><time>2026-08-16T02:06:58.000Z</time></trkpt>
        <trkpt lat="28.158296" lon="105.766811"><ele>1347.0721</ele><time>2026-08-16T02:07:00.000Z</time></trkpt>
        <trkpt lat="28.158305" lon="105.766776"><ele>1346.6682</ele><time>2026-08-16T02:07:02.000Z</time></trkpt>
        <trkpt lat="28.158324" lon="105.766694"><ele>1346.0452</ele><time>2026-08-16T02:07:04.000Z</time></trkpt>
        <trkpt lat="28.158326" lon="105.766688"><ele>1344.4945</ele><time>2026-08-16T02:07:06.000Z</time></trkpt>
        <trkpt lat="28.158328" lon="105.766682"><ele>1344.651</ele><time>2026-08-16T02:07:08.000Z</time></trkpt>
        <trkpt lat="28.158348" lon="105.766621"><ele>1345.4203</ele><time>2026-08-16T02:07:12.000Z</time></trkpt>
        <trkpt lat="28.158357" lon="105.766577"><ele>1344.4333</ele><time>2026-08-16T02:07:14.000Z</time></trkpt>
        <trkpt lat="28.158365" lon="105.76653"><ele>1345.7804</ele><time>2026-08-16T02:07:16.000Z</time></trkpt>
        <trkpt lat="28.158375" lon="105.766486"><ele>1345.062</ele><time>2026-08-16T02:07:18.000Z</time></trkpt>
        <trkpt lat="28.158389" lon="105.766451"><ele>1344.9056</ele><time>2026-08-16T02:07:20.000Z</time></trkpt>
        <trkpt lat="28.158403" lon="105.766433"><ele>1343.3208</ele><time>2026-08-16T02:07:22.000Z</time></trkpt>
        <trkpt lat="28.158418" lon="105.766421"><ele>1342.4689</ele><time>2026-08-16T02:07:24.000Z</time></trkpt>
        <trkpt lat="28.15843" lon="105.766413"><ele>1343.1045</ele><time>2026-08-16T02:07:26.000Z</time></trkpt>
        <trkpt lat="28.15843" lon="105.766411"><ele>1343.447</ele><time>2026-08-16T02:07:28.000Z</time></trkpt>
        <trkpt lat="28.158426" lon="105.766374"><ele>1343.5459</ele><time>2026-08-16T02:07:32.000Z</time></trkpt>
        <trkpt lat="28.158426" lon="105.766374"><ele>1344.2806</ele><time>2026-08-16T02:07:34.000Z</time></trkpt>
        <trkpt lat="28.158426" lon="105.766372"><ele>1344.2451</ele><time>2026-08-16T02:07:36.000Z</time></trkpt>
        <trkpt lat="28.158438" lon="105.766318"><ele>1344.3818</ele><time>2026-08-16T02:07:42.000Z</time></trkpt>
        <trkpt lat="28.158446" lon="105.766299"><ele>1344.9573</ele><time>2026-08-16T02:07:44.000Z</time></trkpt>
        <trkpt lat="28.158456" lon="105.766283"><ele>1345.2794</ele><time>2026-08-16T02:07:46.000Z</time></trkpt>
        <trkpt lat="28.158465" lon="105.766271"><ele>1345.4382</ele><time>2026-08-16T02:07:48.000Z</time></trkpt>
        <trkpt lat="28.15847" lon="105.766259"><ele>1346.5032</ele><time>2026-08-16T02:07:50.000Z</time></trkpt>
        <trkpt lat="28.15847" lon="105.766247"><ele>1346.9304</ele><time>2026-08-16T02:07:52.000Z</time></trkpt>
        <trkpt lat="28.158467" lon="105.766241"><ele>1346.8853</ele><time>2026-08-16T02:07:54.000Z</time></trkpt>
        <trkpt lat="28.158443" lon="105.766208"><ele>1347.414</ele><time>2026-08-16T02:07:58.000Z</time></trkpt>
        <trkpt lat="28.158443" lon="105.766208"><ele>1347.5087</ele><time>2026-08-16T02:08:00.000Z</time></trkpt>
        <trkpt lat="28.158443" lon="105.766207"><ele>1347.5443</ele><time>2026-08-16T02:08:02.000Z</time></trkpt>
        <trkpt lat="28.158447" lon="105.766166"><ele>1346.1187</ele><time>2026-08-16T02:08:08.000Z</time></trkpt>
        <trkpt lat="28.158448" lon="105.766152"><ele>1346.6427</ele><time>2026-08-16T02:08:10.000Z</time></trkpt>
        <trkpt lat="28.158449" lon="105.766138"><ele>1346.0908</ele><time>2026-08-16T02:08:12.000Z</time></trkpt>
        <trkpt lat="28.158451" lon="105.766126"><ele>1346.632</ele><time>2026-08-16T02:08:14.000Z</time></trkpt>
        <trkpt lat="28.158452" lon="105.766109"><ele>1346.262</ele><time>2026-08-16T02:08:16.000Z</time></trkpt>
        <trkpt lat="28.158454" lon="105.766087"><ele>1346.2822</ele><time>2026-08-16T02:08:18.000Z</time></trkpt>
        <trkpt lat="28.158456" lon="105.766067"><ele>1346.8926</ele><time>2026-08-16T02:08:20.000Z</time></trkpt>
        <trkpt lat="28.15846" lon="105.766048"><ele>1347.1671</ele><time>2026-08-16T02:08:22.000Z</time></trkpt>
        <trkpt lat="28.158466" lon="105.766031"><ele>1346.1636</ele><time>2026-08-16T02:08:24.000Z</time></trkpt>
        <trkpt lat="28.158473" lon="105.766013"><ele>1346.5251</ele><time>2026-08-16T02:08:26.000Z</time></trkpt>
        <trkpt lat="28.158481" lon="105.765997"><ele>1347.4014</ele><time>2026-08-16T02:08:28.000Z</time></trkpt>
        <trkpt lat="28.158489" lon="105.765982"><ele>1346.1602</ele><time>2026-08-16T02:08:30.000Z</time></trkpt>
        <trkpt lat="28.158497" lon="105.765967"><ele>1346.3976</ele><time>2026-08-16T02:08:32.000Z</time></trkpt>
        <trkpt lat="28.158504" lon="105.765951"><ele>1346.2437</ele><time>2026-08-16T02:08:34.000Z</time></trkpt>
        <trkpt lat="28.158508" lon="105.765939"><ele>1346.3335</ele><time>2026-08-16T02:08:36.000Z</time></trkpt>
        <trkpt lat="28.158511" lon="105.765927"><ele>1346.7493</ele><time>2026-08-16T02:08:38.000Z</time></trkpt>
        <trkpt lat="28.158515" lon="105.765916"><ele>1346.663</ele><time>2026-08-16T02:08:40.000Z</time></trkpt>
        <trkpt lat="28.15852" lon="105.765904"><ele>1346.8516</ele><time>2026-08-16T02:08:42.000Z</time></trkpt>
        <trkpt lat="28.158523" lon="105.765893"><ele>1347.3153</ele><time>2026-08-16T02:08:44.000Z</time></trkpt>
        <trkpt lat="28.158526" lon="105.765882"><ele>1346.8381</ele><time>2026-08-16T02:08:46.000Z</time></trkpt>
        <trkpt lat="28.15853" lon="105.765872"><ele>1346.6381</ele><time>2026-08-16T02:08:48.000Z</time></trkpt>
        <trkpt lat="28.158538" lon="105.765861"><ele>1346.7305</ele><time>2026-08-16T02:08:52.000Z</time></trkpt>
        <trkpt lat="28.158545" lon="105.76585"><ele>1348.1494</ele><time>2026-08-16T02:08:56.000Z</time></trkpt>
        <trkpt lat="28.158548" lon="105.765846"><ele>1348.0029</ele><time>2026-08-16T02:08:58.000Z</time></trkpt>
        <trkpt lat="28.158561" lon="105.765835"><ele>1349.5153</ele><time>2026-08-16T02:09:02.000Z</time></trkpt>
        <trkpt lat="28.158565" lon="105.765822"><ele>1350.5297</ele><time>2026-08-16T02:09:06.000Z</time></trkpt>
        <trkpt lat="28.158572" lon="105.765801"><ele>1350.9749</ele><time>2026-08-16T02:09:08.000Z</time></trkpt>
        <trkpt lat="28.158573" lon="105.7658"><ele>1351.9556</ele><time>2026-08-16T02:09:10.000Z</time></trkpt>
        <trkpt lat="28.158576" lon="105.76579"><ele>1351.4398</ele><time>2026-08-16T02:09:14.000Z</time></trkpt>
        <trkpt lat="28.158585" lon="105.765764"><ele>1351.3688</ele><time>2026-08-16T02:09:18.000Z</time></trkpt>
        <trkpt lat="28.158588" lon="105.765756"><ele>1351.9</ele><time>2026-08-16T02:09:20.000Z</time></trkpt>
        <trkpt lat="28.158591" lon="105.765748"><ele>1352.4526</ele><time>2026-08-16T02:09:22.000Z</time></trkpt>
        <trkpt lat="28.158596" lon="105.765733"><ele>1352.7646</ele><time>2026-08-16T02:09:26.000Z</time></trkpt>
        <trkpt lat="28.158601" lon="105.765718"><ele>1353.7399</ele><time>2026-08-16T02:09:30.000Z</time></trkpt>
        <trkpt lat="28.158603" lon="105.765712"><ele>1353.5267</ele><time>2026-08-16T02:09:32.000Z</time></trkpt>
        <trkpt lat="28.158613" lon="105.765701"><ele>1354.8998</ele><time>2026-08-16T02:09:36.000Z</time></trkpt>
        <trkpt lat="28.158626" lon="105.765689"><ele>1355.1852</ele><time>2026-08-16T02:09:40.000Z</time></trkpt>
        <trkpt lat="28.158629" lon="105.765684"><ele>1354.832</ele><time>2026-08-16T02:09:42.000Z</time></trkpt>
        <trkpt lat="28.158643" lon="105.765657"><ele>1354.6886</ele><time>2026-08-16T02:09:49.000Z</time></trkpt>
        <trkpt lat="28.158645" lon="105.765651"><ele>1354.8922</ele><time>2026-08-16T02:09:51.000Z</time></trkpt>
        <trkpt lat="28.15865" lon="105.765645"><ele>1355.5443</ele><time>2026-08-16T02:09:53.000Z</time></trkpt>
        <trkpt lat="28.158658" lon="105.765628"><ele>1357.2291</ele><time>2026-08-16T02:09:57.000Z</time></trkpt>
        <trkpt lat="28.158666" lon="105.76561"><ele>1356.7048</ele><time>2026-08-16T02:09:59.000Z</time></trkpt>
        <trkpt lat="28.158667" lon="105.765609"><ele>1356.6794</ele><time>2026-08-16T02:10:01.000Z</time></trkpt>
        <trkpt lat="28.158679" lon="105.765587"><ele>1358.1642</ele><time>2026-08-16T02:10:07.000Z</time></trkpt>
        <trkpt lat="28.158687" lon="105.765571"><ele>1357.8723</ele><time>2026-08-16T02:10:09.000Z</time></trkpt>
        <trkpt lat="28.158694" lon="105.765557"><ele>1358.0697</ele><time>2026-08-16T02:10:11.000Z</time></trkpt>
        <trkpt lat="28.158698" lon="105.765544"><ele>1357.8892</ele><time>2026-08-16T02:10:13.000Z</time></trkpt>
        <trkpt lat="28.158702" lon="105.765535"><ele>1357.9899</ele><time>2026-08-16T02:10:15.000Z</time></trkpt>
        <trkpt lat="28.15871" lon="105.765524"><ele>1357.211</ele><time>2026-08-16T02:10:19.000Z</time></trkpt>
        <trkpt lat="28.158718" lon="105.765514"><ele>1355.3861</ele><time>2026-08-16T02:10:21.000Z</time></trkpt>
        <trkpt lat="28.158724" lon="105.765503"><ele>1358.1437</ele><time>2026-08-16T02:10:27.000Z</time></trkpt>
        <trkpt lat="28.15873" lon="105.765489"><ele>1358.6163</ele><time>2026-08-16T02:10:29.000Z</time></trkpt>
        <trkpt lat="28.158741" lon="105.765469"><ele>1359.2228</ele><time>2026-08-16T02:10:31.000Z</time></trkpt>
        <trkpt lat="28.15875" lon="105.765455"><ele>1358.4736</ele><time>2026-08-16T02:10:33.000Z</time></trkpt>
        <trkpt lat="28.158759" lon="105.765444"><ele>1358.8846</ele><time>2026-08-16T02:10:35.000Z</time></trkpt>
        <trkpt lat="28.158769" lon="105.765434"><ele>1359.6276</ele><time>2026-08-16T02:10:37.000Z</time></trkpt>
        <trkpt lat="28.158779" lon="105.765426"><ele>1359.638</ele><time>2026-08-16T02:10:39.000Z</time></trkpt>
        <trkpt lat="28.158786" lon="105.76542"><ele>1359.9287</ele><time>2026-08-16T02:10:41.000Z</time></trkpt>
        <trkpt lat="28.158791" lon="105.765411"><ele>1360.5725</ele><time>2026-08-16T02:10:45.000Z</time></trkpt>
        <trkpt lat="28.158802" lon="105.765405"><ele>1359.8552</ele><time>2026-08-16T02:10:49.000Z</time></trkpt>
        <trkpt lat="28.158819" lon="105.765394"><ele>1360.246</ele><time>2026-08-16T02:10:53.000Z</time></trkpt>
        <trkpt lat="28.158819" lon="105.765394"><ele>1359.7279</ele><time>2026-08-16T02:10:55.000Z</time></trkpt>
        <trkpt lat="28.158819" lon="105.765373"><ele>1361.8671</ele><time>2026-08-16T02:11:01.000Z</time></trkpt>
        <trkpt lat="28.15882" lon="105.765344"><ele>1362.2903</ele><time>2026-08-16T02:11:03.000Z</time></trkpt>
        <trkpt lat="28.158821" lon="105.765343"><ele>1362.4335</ele><time>2026-08-16T02:11:05.000Z</time></trkpt>
        <trkpt lat="28.158824" lon="105.765338"><ele>1362.6072</ele><time>2026-08-16T02:11:09.000Z</time></trkpt>
        <trkpt lat="28.158841" lon="105.765316"><ele>1362.6608</ele><time>2026-08-16T02:11:17.000Z</time></trkpt>
        <trkpt lat="28.158846" lon="105.765312"><ele>1362.7437</ele><time>2026-08-16T02:11:19.000Z</time></trkpt>
        <trkpt lat="28.158851" lon="105.765306"><ele>1364.2612</ele><time>2026-08-16T02:11:21.000Z</time></trkpt>
        <trkpt lat="28.158862" lon="105.765291"><ele>1366.0441</ele><time>2026-08-16T02:11:27.000Z</time></trkpt>
        <trkpt lat="28.158863" lon="105.765292"><ele>1364.9543</ele><time>2026-08-16T02:11:29.000Z</time></trkpt>
        <trkpt lat="28.158899" lon="105.765317"><ele>1365.6306</ele><time>2026-08-16T02:11:33.000Z</time></trkpt>
        <trkpt lat="28.158899" lon="105.765317"><ele>1365.9237</ele><time>2026-08-16T02:11:35.000Z</time></trkpt>
        <trkpt lat="28.1589" lon="105.765315"><ele>1366.5417</ele><time>2026-08-16T02:11:37.000Z</time></trkpt>
        <trkpt lat="28.158915" lon="105.765287"><ele>1366.603</ele><time>2026-08-16T02:11:41.000Z</time></trkpt>
        <trkpt lat="28.158924" lon="105.765273"><ele>1366.3241</ele><time>2026-08-16T02:11:43.000Z</time></trkpt>
        <trkpt lat="28.158938" lon="105.765255"><ele>1367.6372</ele><time>2026-08-16T02:11:45.000Z</time></trkpt>
        <trkpt lat="28.15895" lon="105.765239"><ele>1368.2201</ele><time>2026-08-16T02:11:47.000Z</time></trkpt>
        <trkpt lat="28.158959" lon="105.765226"><ele>1368.4417</ele><time>2026-08-16T02:11:49.000Z</time></trkpt>
        <trkpt lat="28.158967" lon="105.765216"><ele>1368.2772</ele><time>2026-08-16T02:11:51.000Z</time></trkpt>
        <trkpt lat="28.158971" lon="105.765211"><ele>1367.4257</ele><time>2026-08-16T02:11:53.000Z</time></trkpt>
        <trkpt lat="28.158984" lon="105.765196"><ele>1367.094</ele><time>2026-08-16T02:11:57.000Z</time></trkpt>
        <trkpt lat="28.158989" lon="105.76519"><ele>1367.345</ele><time>2026-08-16T02:11:59.000Z</time></trkpt>
        <trkpt lat="28.158989" lon="105.765184"><ele>1367.0222</ele><time>2026-08-16T02:12:01.000Z</time></trkpt>
        <trkpt lat="28.158987" lon="105.765162"><ele>1367.2462</ele><time>2026-08-16T02:12:09.000Z</time></trkpt>
        <trkpt lat="28.158985" lon="105.765152"><ele>1366.5975</ele><time>2026-08-16T02:12:13.000Z</time></trkpt>
        <trkpt lat="28.158986" lon="105.765148"><ele>1366.1504</ele><time>2026-08-16T02:12:15.000Z</time></trkpt>
        <trkpt lat="28.158995" lon="105.765122"><ele>1365.2877</ele><time>2026-08-16T02:12:23.000Z</time></trkpt>
        <trkpt lat="28.158994" lon="105.765116"><ele>1365.0994</ele><time>2026-08-16T02:12:25.000Z</time></trkpt>
        <trkpt lat="28.158991" lon="105.765098"><ele>1365.8611</ele><time>2026-08-16T02:12:27.000Z</time></trkpt>
        <trkpt lat="28.158986" lon="105.765083"><ele>1366.218</ele><time>2026-08-16T02:12:35.000Z</time></trkpt>
        <trkpt lat="28.15898" lon="105.765064"><ele>1366.757</ele><time>2026-08-16T02:12:37.000Z</time></trkpt>
        <trkpt lat="28.15898" lon="105.765063"><ele>1366.8867</ele><time>2026-08-16T02:12:39.000Z</time></trkpt>
        <trkpt lat="28.158979" lon="105.765046"><ele>1367.9305</ele><time>2026-08-16T02:12:45.000Z</time></trkpt>
        <trkpt lat="28.158977" lon="105.765028"><ele>1369.4064</ele><time>2026-08-16T02:12:51.000Z</time></trkpt>
        <trkpt lat="28.158941" lon="105.765037"><ele>1369.9247</ele><time>2026-08-16T02:13:51.000Z</time></trkpt>
        <trkpt lat="28.158926" lon="105.76504"><ele>1370.27</ele><time>2026-08-16T02:13:53.000Z</time></trkpt>
        <trkpt lat="28.158926" lon="105.765041"><ele>1371.4082</ele><time>2026-08-16T02:13:55.000Z</time></trkpt>
        <trkpt lat="28.158919" lon="105.76508"><ele>1371.9811</ele><time>2026-08-16T02:14:01.000Z</time></trkpt>
        <trkpt lat="28.158915" lon="105.765103"><ele>1371.5422</ele><time>2026-08-16T02:14:03.000Z</time></trkpt>
        <trkpt lat="28.158909" lon="105.765124"><ele>1371.9236</ele><time>2026-08-16T02:14:05.000Z</time></trkpt>
        <trkpt lat="28.158902" lon="105.765145"><ele>1372.3928</ele><time>2026-08-16T02:14:07.000Z</time></trkpt>
        <trkpt lat="28.158893" lon="105.765161"><ele>1372.9061</ele><time>2026-08-16T02:14:09.000Z</time></trkpt>
        <trkpt lat="28.158884" lon="105.76517"><ele>1372.2714</ele><time>2026-08-16T02:14:11.000Z</time></trkpt>
        <trkpt lat="28.158876" lon="105.765171"><ele>1372.5054</ele><time>2026-08-16T02:14:13.000Z</time></trkpt>
        <trkpt lat="28.158874" lon="105.765167"><ele>1372.092</ele><time>2026-08-16T02:14:15.000Z</time></trkpt>
        <trkpt lat="28.158872" lon="105.765144"><ele>1371.484</ele><time>2026-08-16T02:14:21.000Z</time></trkpt>
        <trkpt lat="28.158871" lon="105.765127"><ele>1372.4789</ele><time>2026-08-16T02:14:23.000Z</time></trkpt>
        <trkpt lat="28.15887" lon="105.765126"><ele>1372.8864</ele><time>2026-08-16T02:14:25.000Z</time></trkpt>
        <trkpt lat="28.158866" lon="105.765107"><ele>1374.3529</ele><time>2026-08-16T02:14:31.000Z</time></trkpt>
        <trkpt lat="28.158858" lon="105.765069"><ele>1372.7721</ele><time>2026-08-16T02:14:35.000Z</time></trkpt>
        <trkpt lat="28.158858" lon="105.765069"><ele>1371.229</ele><time>2026-08-16T02:14:37.000Z</time></trkpt>
        <trkpt lat="28.158859" lon="105.765069"><ele>1372.1555</ele><time>2026-08-16T02:14:39.000Z</time></trkpt>
        <trkpt lat="28.158827" lon="105.765059"><ele>1380.8314</ele><time>2026-08-16T02:14:59.000Z</time></trkpt>
        <trkpt lat="28.15881" lon="105.765053"><ele>1380.1146</ele><time>2026-08-16T02:15:01.000Z</time></trkpt>
        <trkpt lat="28.15881" lon="105.765053"><ele>1379.9673</ele><time>2026-08-16T02:15:03.000Z</time></trkpt>
        <trkpt lat="28.158794" lon="105.765079"><ele>1380.3953</ele><time>2026-08-16T02:15:11.000Z</time></trkpt>
        <trkpt lat="28.158785" lon="105.765094"><ele>1380.23</ele><time>2026-08-16T02:15:13.000Z</time></trkpt>
        <trkpt lat="28.158784" lon="105.765094"><ele>1380.9001</ele><time>2026-08-16T02:15:15.000Z</time></trkpt>
        <trkpt lat="28.158769" lon="105.765098"><ele>1381.6703</ele><time>2026-08-16T02:15:25.000Z</time></trkpt>
        <trkpt lat="28.158739" lon="105.765106"><ele>1382.9313</ele><time>2026-08-16T02:15:29.000Z</time></trkpt>
        <trkpt lat="28.158739" lon="105.765106"><ele>1383.1156</ele><time>2026-08-16T02:15:31.000Z</time></trkpt>
        <trkpt lat="28.158739" lon="105.765106"><ele>1383.3945</ele><time>2026-08-16T02:15:33.000Z</time></trkpt>
        <trkpt lat="28.158772" lon="105.765087"><ele>1385.2404</ele><time>2026-08-16T02:15:47.000Z</time></trkpt>
        <trkpt lat="28.158775" lon="105.765085"><ele>1385.8182</ele><time>2026-08-16T02:15:49.000Z</time></trkpt>
        <trkpt lat="28.158777" lon="105.765085"><ele>1386.2086</ele><time>2026-08-16T02:15:51.000Z</time></trkpt>
        <trkpt lat="28.158722" lon="105.765086"><ele>1387.4651</ele><time>2026-08-16T02:15:59.000Z</time></trkpt>
        <trkpt lat="28.158722" lon="105.765086"><ele>1387.8446</ele><time>2026-08-16T02:16:01.000Z</time></trkpt>
        <trkpt lat="28.158722" lon="105.765086"><ele>1387.9714</ele><time>2026-08-16T02:16:03.000Z</time></trkpt>
        <trkpt lat="28.158678" lon="105.765067"><ele>1386.2424</ele><time>2026-08-16T02:16:11.000Z</time></trkpt>
        <trkpt lat="28.158678" lon="105.765067"><ele>1386.2943</ele><time>2026-08-16T02:16:13.000Z</time></trkpt>
        <trkpt lat="28.158678" lon="105.765068"><ele>1385.9462</ele><time>2026-08-16T02:16:15.000Z</time></trkpt>
        <trkpt lat="28.158637" lon="105.765081"><ele>1387.1348</ele><time>2026-08-16T02:16:23.000Z</time></trkpt>
        <trkpt lat="28.158628" lon="105.765085"><ele>1387.5613</ele><time>2026-08-16T02:16:25.000Z</time></trkpt>
        <trkpt lat="28.158618" lon="105.765089"><ele>1387.7521</ele><time>2026-08-16T02:16:27.000Z</time></trkpt>
        <trkpt lat="28.1586" lon="105.765094"><ele>1388.2394</ele><time>2026-08-16T02:16:31.000Z</time></trkpt>
        <trkpt lat="28.158596" lon="105.765097"><ele>1387.8944</ele><time>2026-08-16T02:16:33.000Z</time></trkpt>
        <trkpt lat="28.158595" lon="105.765103"><ele>1387.8466</ele><time>2026-08-16T02:16:37.000Z</time></trkpt>
        <trkpt lat="28.158589" lon="105.765141"><ele>1387.5497</ele><time>2026-08-16T02:16:43.000Z</time></trkpt>
        <trkpt lat="28.158589" lon="105.765141"><ele>1386.8658</ele><time>2026-08-16T02:16:45.000Z</time></trkpt>
        <trkpt lat="28.158588" lon="105.765141"><ele>1386.1442</ele><time>2026-08-16T02:16:47.000Z</time></trkpt>
        <trkpt lat="28.158558" lon="105.765129"><ele>1384.41</ele><time>2026-08-16T02:16:53.000Z</time></trkpt>
        <trkpt lat="28.158545" lon="105.765123"><ele>1383.6212</ele><time>2026-08-16T02:16:55.000Z</time></trkpt>
        <trkpt lat="28.158531" lon="105.765121"><ele>1383.172</ele><time>2026-08-16T02:16:57.000Z</time></trkpt>
        <trkpt lat="28.158523" lon="105.76512"><ele>1383.3182</ele><time>2026-08-16T02:16:59.000Z</time></trkpt>
        <trkpt lat="28.15851" lon="105.765119"><ele>1382.6669</ele><time>2026-08-16T02:17:05.000Z</time></trkpt>
        <trkpt lat="28.158491" lon="105.765117"><ele>1382.5922</ele><time>2026-08-16T02:17:07.000Z</time></trkpt>
        <trkpt lat="28.15849" lon="105.765118"><ele>1382.8954</ele><time>2026-08-16T02:17:09.000Z</time></trkpt>
        <trkpt lat="28.158457" lon="105.765137"><ele>1384.3058</ele><time>2026-08-16T02:17:13.000Z</time></trkpt>
        <trkpt lat="28.158457" lon="105.765137"><ele>1384.2034</ele><time>2026-08-16T02:17:15.000Z</time></trkpt>
        <trkpt lat="28.158456" lon="105.765137"><ele>1385.3469</ele><time>2026-08-16T02:17:17.000Z</time></trkpt>
        <trkpt lat="28.158427" lon="105.765143"><ele>1385.6638</ele><time>2026-08-16T02:17:27.000Z</time></trkpt>
        <trkpt lat="28.158424" lon="105.765141"><ele>1385.9526</ele><time>2026-08-16T02:17:29.000Z</time></trkpt>
        <trkpt lat="28.158408" lon="105.765134"><ele>1386.2664</ele><time>2026-08-16T02:17:31.000Z</time></trkpt>
        <trkpt lat="28.158401" lon="105.76512"><ele>1387.3563</ele><time>2026-08-16T02:17:41.000Z</time></trkpt>
        <trkpt lat="28.158388" lon="105.765093"><ele>1388.2463</ele><time>2026-08-16T02:17:43.000Z</time></trkpt>
        <trkpt lat="28.158388" lon="105.765091"><ele>1388.6273</ele><time>2026-08-16T02:17:45.000Z</time></trkpt>
        <trkpt lat="28.158381" lon="105.765151"><ele>1387.49</ele><time>2026-08-16T02:18:03.000Z</time></trkpt>
        <trkpt lat="28.15838" lon="105.765149"><ele>1388.2898</ele><time>2026-08-16T02:18:05.000Z</time></trkpt>
        <trkpt lat="28.158361" lon="105.76512"><ele>1387.9187</ele><time>2026-08-16T02:18:07.000Z</time></trkpt>
        <trkpt lat="28.158345" lon="105.765095"><ele>1388.8895</ele><time>2026-08-16T02:18:10.000Z</time></trkpt>
        <trkpt lat="28.158345" lon="105.765095"><ele>1389.3096</ele><time>2026-08-16T02:18:12.000Z</time></trkpt>
        <trkpt lat="28.158339" lon="105.765086"><ele>1389.2631</ele><time>2026-08-16T02:18:16.000Z</time></trkpt>
        <trkpt lat="28.15832" lon="105.765049"><ele>1389.1488</ele><time>2026-08-16T02:18:22.000Z</time></trkpt>
        <trkpt lat="28.158313" lon="105.765036"><ele>1390.0989</ele><time>2026-08-16T02:18:24.000Z</time></trkpt>
        <trkpt lat="28.15831" lon="105.765027"><ele>1391.1273</ele><time>2026-08-16T02:18:26.000Z</time></trkpt>
        <trkpt lat="28.158313" lon="105.765021"><ele>1393.7545</ele><time>2026-08-16T02:18:30.000Z</time></trkpt>
        <trkpt lat="28.158325" lon="105.765002"><ele>1393.1592</ele><time>2026-08-16T02:18:45.000Z</time></trkpt>
        <trkpt lat="28.158338" lon="105.764981"><ele>1393.9508</ele><time>2026-08-16T02:18:47.000Z</time></trkpt>
        <trkpt lat="28.158338" lon="105.76498"><ele>1394.1917</ele><time>2026-08-16T02:18:49.000Z</time></trkpt>
        <trkpt lat="28.158334" lon="105.764938"><ele>1395.0674</ele><time>2026-08-16T02:18:52.000Z</time></trkpt>
        <trkpt lat="28.158334" lon="105.764936"><ele>1394.9957</ele><time>2026-08-16T02:18:54.000Z</time></trkpt>
        <trkpt lat="28.158334" lon="105.764935"><ele>1395.2192</ele><time>2026-08-16T02:18:56.000Z</time></trkpt>
        <trkpt lat="28.158352" lon="105.76491"><ele>1392.9689</ele><time>2026-08-16T02:19:06.000Z</time></trkpt>
        <trkpt lat="28.158353" lon="105.764909"><ele>1393.0151</ele><time>2026-08-16T02:19:08.000Z</time></trkpt>
        <trkpt lat="28.158353" lon="105.764905"><ele>1393.5463</ele><time>2026-08-16T02:19:10.000Z</time></trkpt>
        <trkpt lat="28.158354" lon="105.764864"><ele>1395.2422</ele><time>2026-08-16T02:19:16.000Z</time></trkpt>
        <trkpt lat="28.158354" lon="105.764864"><ele>1394.6991</ele><time>2026-08-16T02:19:18.000Z</time></trkpt>
        <trkpt lat="28.158355" lon="105.764862"><ele>1395.4097</ele><time>2026-08-16T02:19:20.000Z</time></trkpt>
        <trkpt lat="28.158374" lon="105.764827"><ele>1395.7521</ele><time>2026-08-16T02:19:26.000Z</time></trkpt>
        <trkpt lat="28.158383" lon="105.76481"><ele>1396.5</ele><time>2026-08-16T02:19:28.000Z</time></trkpt>
        <trkpt lat="28.15839" lon="105.764794"><ele>1396.5464</ele><time>2026-08-16T02:19:30.000Z</time></trkpt>
        <trkpt lat="28.158393" lon="105.764778"><ele>1397.3134</ele><time>2026-08-16T02:19:32.000Z</time></trkpt>
        <trkpt lat="28.158396" lon="105.764764"><ele>1398.1681</ele><time>2026-08-16T02:19:34.000Z</time></trkpt>
        <trkpt lat="28.158398" lon="105.764753"><ele>1398.9299</ele><time>2026-08-16T02:19:36.000Z</time></trkpt>
        <trkpt lat="28.158399" lon="105.764742"><ele>1399.1323</ele><time>2026-08-16T02:19:38.000Z</time></trkpt>
        <trkpt lat="28.158401" lon="105.764731"><ele>1399.5319</ele><time>2026-08-16T02:19:40.000Z</time></trkpt>
        <trkpt lat="28.158403" lon="105.764719"><ele>1400.2023</ele><time>2026-08-16T02:19:42.000Z</time></trkpt>
        <trkpt lat="28.158406" lon="105.764704"><ele>1399.9641</ele><time>2026-08-16T02:19:44.000Z</time></trkpt>
        <trkpt lat="28.158409" lon="105.764694"><ele>1400.4008</ele><time>2026-08-16T02:19:46.000Z</time></trkpt>
        <trkpt lat="28.15841" lon="105.764684"><ele>1400.2585</ele><time>2026-08-16T02:19:48.000Z</time></trkpt>
        <trkpt lat="28.158413" lon="105.764667"><ele>1401.4889</ele><time>2026-08-16T02:19:52.000Z</time></trkpt>
        <trkpt lat="28.158415" lon="105.764654"><ele>1402.6504</ele><time>2026-08-16T02:19:56.000Z</time></trkpt>
        <trkpt lat="28.15842" lon="105.764625"><ele>1403.2152</ele><time>2026-08-16T02:19:58.000Z</time></trkpt>
        <trkpt lat="28.15842" lon="105.764623"><ele>1403.7386</ele><time>2026-08-16T02:20:00.000Z</time></trkpt>
        <trkpt lat="28.15842" lon="105.76462"><ele>1405.2322</ele><time>2026-08-16T02:20:02.000Z</time></trkpt>
        <trkpt lat="28.158418" lon="105.764588"><ele>1406.9475</ele><time>2026-08-16T02:20:06.000Z</time></trkpt>
        <trkpt lat="28.158418" lon="105.764569"><ele>1407.8698</ele><time>2026-08-16T02:20:08.000Z</time></trkpt>
        <trkpt lat="28.158422" lon="105.76456"><ele>1409.3478</ele><time>2026-08-16T02:20:10.000Z</time></trkpt>
        <trkpt lat="28.158425" lon="105.764551"><ele>1410.426</ele><time>2026-08-16T02:20:12.000Z</time></trkpt>
        <trkpt lat="28.158438" lon="105.764528"><ele>1411.7843</ele><time>2026-08-16T02:20:16.000Z</time></trkpt>
        <trkpt lat="28.158447" lon="105.764513"><ele>1413.0674</ele><time>2026-08-16T02:20:18.000Z</time></trkpt>
        <trkpt lat="28.158455" lon="105.764498"><ele>1413.648</ele><time>2026-08-16T02:20:20.000Z</time></trkpt>
        <trkpt lat="28.158462" lon="105.764481"><ele>1413.785</ele><time>2026-08-16T02:20:22.000Z</time></trkpt>
        <trkpt lat="28.158469" lon="105.764465"><ele>1415.2385</ele><time>2026-08-16T02:20:24.000Z</time></trkpt>
        <trkpt lat="28.158478" lon="105.764448"><ele>1415.1188</ele><time>2026-08-16T02:20:26.000Z</time></trkpt>
        <trkpt lat="28.158489" lon="105.764436"><ele>1415.3896</ele><time>2026-08-16T02:20:28.000Z</time></trkpt>
        <trkpt lat="28.158495" lon="105.764432"><ele>1414.1256</ele><time>2026-08-16T02:20:30.000Z</time></trkpt>
        <trkpt lat="28.158501" lon="105.764425"><ele>1414.004</ele><time>2026-08-16T02:20:32.000Z</time></trkpt>
        <trkpt lat="28.158514" lon="105.764402"><ele>1416.4904</ele><time>2026-08-16T02:20:36.000Z</time></trkpt>
        <trkpt lat="28.158518" lon="105.76439"><ele>1416.8741</ele><time>2026-08-16T02:20:38.000Z</time></trkpt>
        <trkpt lat="28.158517" lon="105.764389"><ele>1416.9636</ele><time>2026-08-16T02:20:40.000Z</time></trkpt>
        <trkpt lat="28.158488" lon="105.764365"><ele>1420.0261</ele><time>2026-08-16T02:21:04.000Z</time></trkpt>
        <trkpt lat="28.158485" lon="105.764362"><ele>1420.108</ele><time>2026-08-16T02:21:06.000Z</time></trkpt>
        <trkpt lat="28.158479" lon="105.764357"><ele>1420.0737</ele><time>2026-08-16T02:21:08.000Z</time></trkpt>
        <trkpt lat="28.158457" lon="105.764338"><ele>1422.5938</ele><time>2026-08-16T02:21:14.000Z</time></trkpt>
        <trkpt lat="28.158451" lon="105.764333"><ele>1423.6278</ele><time>2026-08-16T02:21:16.000Z</time></trkpt>
        <trkpt lat="28.158443" lon="105.764329"><ele>1424.0262</ele><time>2026-08-16T02:21:18.000Z</time></trkpt>
        <trkpt lat="28.158429" lon="105.764322"><ele>1423.2444</ele><time>2026-08-16T02:21:22.000Z</time></trkpt>
        <trkpt lat="28.158458" lon="105.764299"><ele>1424.2295</ele><time>2026-08-16T02:21:32.000Z</time></trkpt>
        <trkpt lat="28.158478" lon="105.764284"><ele>1424.6512</ele><time>2026-08-16T02:21:34.000Z</time></trkpt>
        <trkpt lat="28.158478" lon="105.764283"><ele>1425.2065</ele><time>2026-08-16T02:21:36.000Z</time></trkpt>
        <trkpt lat="28.158481" lon="105.764274"><ele>1425.6543</ele><time>2026-08-16T02:21:40.000Z</time></trkpt>
        <trkpt lat="28.158487" lon="105.764246"><ele>1425.969</ele><time>2026-08-16T02:21:44.000Z</time></trkpt>
        <trkpt lat="28.158486" lon="105.764236"><ele>1426.7639</ele><time>2026-08-16T02:21:46.000Z</time></trkpt>
        <trkpt lat="28.158484" lon="105.764235"><ele>1427.0378</ele><time>2026-08-16T02:21:48.000Z</time></trkpt>
        <trkpt lat="28.158454" lon="105.764229"><ele>1431.0669</ele><time>2026-08-16T02:21:56.000Z</time></trkpt>
        <trkpt lat="28.158441" lon="105.764227"><ele>1431.1847</ele><time>2026-08-16T02:21:58.000Z</time></trkpt>
        <trkpt lat="28.158441" lon="105.764227"><ele>1431.2444</ele><time>2026-08-16T02:22:00.000Z</time></trkpt>
        <trkpt lat="28.158427" lon="105.764213"><ele>1432.7102</ele><time>2026-08-16T02:22:06.000Z</time></trkpt>
        <trkpt lat="28.158416" lon="105.764203"><ele>1433.5322</ele><time>2026-08-16T02:22:08.000Z</time></trkpt>
        <trkpt lat="28.158377" lon="105.764169"><ele>1434.5232</ele><time>2026-08-16T02:22:16.000Z</time></trkpt>
        <trkpt lat="28.158369" lon="105.764161"><ele>1435.0474</ele><time>2026-08-16T02:22:18.000Z</time></trkpt>
        <trkpt lat="28.158363" lon="105.764152"><ele>1434.7281</ele><time>2026-08-16T02:22:20.000Z</time></trkpt>
        <trkpt lat="28.158356" lon="105.764142"><ele>1434.6375</ele><time>2026-08-16T02:22:22.000Z</time></trkpt>
        <trkpt lat="28.158347" lon="105.764132"><ele>1434.9867</ele><time>2026-08-16T02:22:24.000Z</time></trkpt>
        <trkpt lat="28.158339" lon="105.764126"><ele>1436.1451</ele><time>2026-08-16T02:22:26.000Z</time></trkpt>
        <trkpt lat="28.158333" lon="105.76412"><ele>1437.1256</ele><time>2026-08-16T02:22:28.000Z</time></trkpt>
        <trkpt lat="28.158321" lon="105.764104"><ele>1438.461</ele><time>2026-08-16T02:22:32.000Z</time></trkpt>
        <trkpt lat="28.158318" lon="105.764093"><ele>1439.3617</ele><time>2026-08-16T02:22:34.000Z</time></trkpt>
        <trkpt lat="28.158315" lon="105.764081"><ele>1439.1127</ele><time>2026-08-16T02:22:36.000Z</time></trkpt>
        <trkpt lat="28.15831" lon="105.76407"><ele>1439.2478</ele><time>2026-08-16T02:22:38.000Z</time></trkpt>
        <trkpt lat="28.158303" lon="105.764061"><ele>1439.936</ele><time>2026-08-16T02:22:40.000Z</time></trkpt>
        <trkpt lat="28.158294" lon="105.764051"><ele>1440.521</ele><time>2026-08-16T02:22:42.000Z</time></trkpt>
        <trkpt lat="28.158287" lon="105.76404"><ele>1440.7246</ele><time>2026-08-16T02:22:44.000Z</time></trkpt>
        <trkpt lat="28.158283" lon="105.764029"><ele>1438.5654</ele><time>2026-08-16T02:22:46.000Z</time></trkpt>
        <trkpt lat="28.158278" lon="105.764021"><ele>1439.4792</ele><time>2026-08-16T02:22:48.000Z</time></trkpt>
        <trkpt lat="28.158271" lon="105.76401"><ele>1441.2029</ele><time>2026-08-16T02:22:52.000Z</time></trkpt>
        <trkpt lat="28.158267" lon="105.764011"><ele>1442.9805</ele><time>2026-08-16T02:22:56.000Z</time></trkpt>
        <trkpt lat="28.15836" lon="105.764002"><ele>1443.1534</ele><time>2026-08-16T02:23:11.000Z</time></trkpt>
        <trkpt lat="28.158446" lon="105.763994"><ele>1444.0876</ele><time>2026-08-16T02:23:26.000Z</time></trkpt>
        <trkpt lat="28.158466" lon="105.763942"><ele>1445.4948</ele><time>2026-08-16T02:23:41.000Z</time></trkpt>
        <trkpt lat="28.158454" lon="105.763926"><ele>1445.1163</ele><time>2026-08-16T02:23:56.000Z</time></trkpt>
        <trkpt lat="28.15847" lon="105.763923"><ele>1446.8259</ele><time>2026-08-16T02:24:03.000Z</time></trkpt>
        <trkpt lat="28.158493" lon="105.763918"><ele>1447.3632</ele><time>2026-08-16T02:24:07.000Z</time></trkpt>
        <trkpt lat="28.158493" lon="105.763918"><ele>1447.8141</ele><time>2026-08-16T02:24:09.000Z</time></trkpt>
        <trkpt lat="28.158501" lon="105.763904"><ele>1449.0718</ele><time>2026-08-16T02:24:15.000Z</time></trkpt>
        <trkpt lat="28.158518" lon="105.763878"><ele>1449.8406</ele><time>2026-08-16T02:24:19.000Z</time></trkpt>
        <trkpt lat="28.158518" lon="105.763878"><ele>1449.4807</ele><time>2026-08-16T02:24:21.000Z</time></trkpt>
        <trkpt lat="28.158519" lon="105.763876"><ele>1449.2925</ele><time>2026-08-16T02:24:25.000Z</time></trkpt>
        <trkpt lat="28.158543" lon="105.763847"><ele>1450.6144</ele><time>2026-08-16T02:24:31.000Z</time></trkpt>
        <trkpt lat="28.158543" lon="105.763847"><ele>1450.9938</ele><time>2026-08-16T02:24:33.000Z</time></trkpt>
        <trkpt lat="28.158564" lon="105.763826"><ele>1451.4355</ele><time>2026-08-16T02:24:42.000Z</time></trkpt>
        <trkpt lat="28.158576" lon="105.763813"><ele>1452.2255</ele><time>2026-08-16T02:24:44.000Z</time></trkpt>
        <trkpt lat="28.158577" lon="105.763812"><ele>1453.2177</ele><time>2026-08-16T02:24:46.000Z</time></trkpt>
        <trkpt lat="28.158582" lon="105.763795"><ele>1452.9111</ele><time>2026-08-16T02:24:52.000Z</time></trkpt>
        <trkpt lat="28.158584" lon="105.763778"><ele>1454.9794</ele><time>2026-08-16T02:24:58.000Z</time></trkpt>
        <trkpt lat="28.158583" lon="105.763778"><ele>1455.1697</ele><time>2026-08-16T02:25:00.000Z</time></trkpt>
        <trkpt lat="28.158565" lon="105.763757"><ele>1455.2501</ele><time>2026-08-16T02:25:06.000Z</time></trkpt>
        <trkpt lat="28.158552" lon="105.763743"><ele>1455.2366</ele><time>2026-08-16T02:25:08.000Z</time></trkpt>
        <trkpt lat="28.158551" lon="105.763743"><ele>1455.263</ele><time>2026-08-16T02:25:10.000Z</time></trkpt>
        <trkpt lat="28.158545" lon="105.763731"><ele>1457.8281</ele><time>2026-08-16T02:25:18.000Z</time></trkpt>
        <trkpt lat="28.158535" lon="105.763711"><ele>1457.267</ele><time>2026-08-16T02:25:24.000Z</time></trkpt>
        <trkpt lat="28.158526" lon="105.763693"><ele>1457.909</ele><time>2026-08-16T02:25:26.000Z</time></trkpt>
        <trkpt lat="28.158525" lon="105.763692"><ele>1458.5371</ele><time>2026-08-16T02:25:28.000Z</time></trkpt>
        <trkpt lat="28.158515" lon="105.763684"><ele>1460.2646</ele><time>2026-08-16T02:25:36.000Z</time></trkpt>
        <trkpt lat="28.158497" lon="105.76367"><ele>1462.4393</ele><time>2026-08-16T02:25:42.000Z</time></trkpt>
        <trkpt lat="28.158492" lon="105.763666"><ele>1462.8221</ele><time>2026-08-16T02:25:44.000Z</time></trkpt>
        <trkpt lat="28.158489" lon="105.763659"><ele>1463.1855</ele><time>2026-08-16T02:25:46.000Z</time></trkpt>
        <trkpt lat="28.158474" lon="105.763631"><ele>1462.1736</ele><time>2026-08-16T02:25:50.000Z</time></trkpt>
        <trkpt lat="28.158474" lon="105.763631"><ele>1462.136</ele><time>2026-08-16T02:25:52.000Z</time></trkpt>
        <trkpt lat="28.15847" lon="105.763626"><ele>1463.1965</ele><time>2026-08-16T02:25:56.000Z</time></trkpt>
        <trkpt lat="28.158446" lon="105.763598"><ele>1463.3776</ele><time>2026-08-16T02:26:02.000Z</time></trkpt>
        <trkpt lat="28.158446" lon="105.763598"><ele>1464.0419</ele><time>2026-08-16T02:26:04.000Z</time></trkpt>
        <trkpt lat="28.158438" lon="105.763579"><ele>1464.7921</ele><time>2026-08-16T02:26:06.000Z</time></trkpt>
        <trkpt lat="28.158439" lon="105.763564"><ele>1467.1461</ele><time>2026-08-16T02:26:18.000Z</time></trkpt>
        <trkpt lat="28.158442" lon="105.763543"><ele>1467.1365</ele><time>2026-08-16T02:26:20.000Z</time></trkpt>
        <trkpt lat="28.158443" lon="105.763541"><ele>1468.0446</ele><time>2026-08-16T02:26:22.000Z</time></trkpt>
        <trkpt lat="28.158442" lon="105.763531"><ele>1468.2058</ele><time>2026-08-16T02:26:26.000Z</time></trkpt>
        <trkpt lat="28.158438" lon="105.763502"><ele>1469.299</ele><time>2026-08-16T02:26:30.000Z</time></trkpt>
        <trkpt lat="28.158435" lon="105.763489"><ele>1468.4861</ele><time>2026-08-16T02:26:32.000Z</time></trkpt>
        <trkpt lat="28.158432" lon="105.763475"><ele>1467.0979</ele><time>2026-08-16T02:26:34.000Z</time></trkpt>
        <trkpt lat="28.15843" lon="105.763464"><ele>1467.4095</ele><time>2026-08-16T02:26:36.000Z</time></trkpt>
        <trkpt lat="28.158426" lon="105.763421"><ele>1468.2609</ele><time>2026-08-16T02:26:50.000Z</time></trkpt>
        <trkpt lat="28.158426" lon="105.76342"><ele>1468.7834</ele><time>2026-08-16T02:26:52.000Z</time></trkpt>
        <trkpt lat="28.158424" lon="105.763419"><ele>1470.2795</ele><time>2026-08-16T02:26:54.000Z</time></trkpt>
        <trkpt lat="28.158398" lon="105.763404"><ele>1471.814</ele><time>2026-08-16T02:27:12.000Z</time></trkpt>
        <trkpt lat="28.158397" lon="105.763404"><ele>1471.814</ele><time>2026-08-16T02:27:14.000Z</time></trkpt>
        <trkpt lat="28.158397" lon="105.763404"><ele>1471.814</ele><time>2026-08-16T02:27:16.000Z</time></trkpt>
        <trkpt lat="28.158408" lon="105.763372"><ele>1473.8411</ele><time>2026-08-16T02:27:35.000Z</time></trkpt>
        <trkpt lat="28.158413" lon="105.763332"><ele>1474.8749</ele><time>2026-08-16T02:27:50.000Z</time></trkpt>
        <trkpt lat="28.158411" lon="105.763322"><ele>1476.1244</ele><time>2026-08-16T02:27:53.000Z</time></trkpt>
        <trkpt lat="28.158408" lon="105.76332"><ele>1475.8276</ele><time>2026-08-16T02:27:55.000Z</time></trkpt>
        <trkpt lat="28.158381" lon="105.7633"><ele>1473.9188</ele><time>2026-08-16T02:27:59.000Z</time></trkpt>
        <trkpt lat="28.158381" lon="105.7633"><ele>1474.3903</ele><time>2026-08-16T02:28:01.000Z</time></trkpt>
        <trkpt lat="28.158382" lon="105.763299"><ele>1474.9297</ele><time>2026-08-16T02:28:03.000Z</time></trkpt>
        <trkpt lat="28.158399" lon="105.763257"><ele>1477.6497</ele><time>2026-08-16T02:28:11.000Z</time></trkpt>
        <trkpt lat="28.158399" lon="105.763257"><ele>1477.9778</ele><time>2026-08-16T02:28:13.000Z</time></trkpt>
        <trkpt lat="28.158399" lon="105.763256"><ele>1478.0547</ele><time>2026-08-16T02:28:15.000Z</time></trkpt>
        <trkpt lat="28.15839" lon="105.763221"><ele>1478.7585</ele><time>2026-08-16T02:28:23.000Z</time></trkpt>
        <trkpt lat="28.158378" lon="105.763156"><ele>1481.1995</ele><time>2026-08-16T02:28:37.000Z</time></trkpt>
        <trkpt lat="28.158378" lon="105.763157"><ele>1481.604</ele><time>2026-08-16T02:28:39.000Z</time></trkpt>
        <trkpt lat="28.158379" lon="105.763151"><ele>1482.1963</ele><time>2026-08-16T02:28:41.000Z</time></trkpt>
        <trkpt lat="28.158378" lon="105.763117"><ele>1484.1736</ele><time>2026-08-16T02:28:49.000Z</time></trkpt>
        <trkpt lat="28.158377" lon="105.763097"><ele>1483.9788</ele><time>2026-08-16T02:28:51.000Z</time></trkpt>
        <trkpt lat="28.158377" lon="105.763095"><ele>1484.6058</ele><time>2026-08-16T02:28:53.000Z</time></trkpt>
        <trkpt lat="28.158378" lon="105.763073"><ele>1485.4548</ele><time>2026-08-16T02:28:59.000Z</time></trkpt>
        <trkpt lat="28.158377" lon="105.763057"><ele>1486.2137</ele><time>2026-08-16T02:29:01.000Z</time></trkpt>
        <trkpt lat="28.158375" lon="105.763042"><ele>1486.4436</ele><time>2026-08-16T02:29:03.000Z</time></trkpt>
        <trkpt lat="28.158371" lon="105.763024"><ele>1486.6233</ele><time>2026-08-16T02:29:05.000Z</time></trkpt>
        <trkpt lat="28.158367" lon="105.763008"><ele>1487.0593</ele><time>2026-08-16T02:29:07.000Z</time></trkpt>
        <trkpt lat="28.158368" lon="105.762995"><ele>1487.1096</ele><time>2026-08-16T02:29:09.000Z</time></trkpt>
        <trkpt lat="28.15837" lon="105.762986"><ele>1487.3628</ele><time>2026-08-16T02:29:11.000Z</time></trkpt>
        <trkpt lat="28.158374" lon="105.762973"><ele>1487.6019</ele><time>2026-08-16T02:29:13.000Z</time></trkpt>
        <trkpt lat="28.158377" lon="105.762964"><ele>1488.1603</ele><time>2026-08-16T02:29:15.000Z</time></trkpt>
        <trkpt lat="28.158377" lon="105.762952"><ele>1487.7504</ele><time>2026-08-16T02:29:19.000Z</time></trkpt>
        <trkpt lat="28.158376" lon="105.762934"><ele>1488.2576</ele><time>2026-08-16T02:29:21.000Z</time></trkpt>
        <trkpt lat="28.158375" lon="105.76293"><ele>1488.48</ele><time>2026-08-16T02:29:25.000Z</time></trkpt>
        <trkpt lat="28.158372" lon="105.762901"><ele>1488.7703</ele><time>2026-08-16T02:29:29.000Z</time></trkpt>
        <trkpt lat="28.15837" lon="105.762885"><ele>1488.236</ele><time>2026-08-16T02:29:31.000Z</time></trkpt>
        <trkpt lat="28.158368" lon="105.762881"><ele>1488.692</ele><time>2026-08-16T02:29:33.000Z</time></trkpt>
        <trkpt lat="28.158359" lon="105.762872"><ele>1489.5862</ele><time>2026-08-16T02:29:39.000Z</time></trkpt>
        <trkpt lat="28.15835" lon="105.762858"><ele>1489.3832</ele><time>2026-08-16T02:29:45.000Z</time></trkpt>
        <trkpt lat="28.158339" lon="105.762843"><ele>1490.1956</ele><time>2026-08-16T02:29:47.000Z</time></trkpt>
        <trkpt lat="28.158338" lon="105.762842"><ele>1490.2622</ele><time>2026-08-16T02:29:49.000Z</time></trkpt>
        <trkpt lat="28.158329" lon="105.762824"><ele>1492.9315</ele><time>2026-08-16T02:29:57.000Z</time></trkpt>
        <trkpt lat="28.158309" lon="105.762784"><ele>1492.692</ele><time>2026-08-16T02:29:59.000Z</time></trkpt>
        <trkpt lat="28.158308" lon="105.762781"><ele>1493.8405</ele><time>2026-08-16T02:30:01.000Z</time></trkpt>
        <trkpt lat="28.158307" lon="105.762778"><ele>1494.9594</ele><time>2026-08-16T02:30:03.000Z</time></trkpt>
        <trkpt lat="28.158299" lon="105.762742"><ele>1495.5897</ele><time>2026-08-16T02:30:07.000Z</time></trkpt>
        <trkpt lat="28.158295" lon="105.762717"><ele>1496.1803</ele><time>2026-08-16T02:30:09.000Z</time></trkpt>
        <trkpt lat="28.158291" lon="105.762695"><ele>1496.4604</ele><time>2026-08-16T02:30:11.000Z</time></trkpt>
        <trkpt lat="28.158288" lon="105.762675"><ele>1496.8065</ele><time>2026-08-16T02:30:13.000Z</time></trkpt>
        <trkpt lat="28.158284" lon="105.762656"><ele>1497.7762</ele><time>2026-08-16T02:30:15.000Z</time></trkpt>
        <trkpt lat="28.15828" lon="105.762634"><ele>1497.809</ele><time>2026-08-16T02:30:17.000Z</time></trkpt>
        <trkpt lat="28.158279" lon="105.762615"><ele>1498.0458</ele><time>2026-08-16T02:30:19.000Z</time></trkpt>
        <trkpt lat="28.158281" lon="105.762597"><ele>1498.0303</ele><time>2026-08-16T02:30:21.000Z</time></trkpt>
        <trkpt lat="28.158281" lon="105.76258"><ele>1498.5677</ele><time>2026-08-16T02:30:23.000Z</time></trkpt>
        <trkpt lat="28.158283" lon="105.762565"><ele>1497.9894</ele><time>2026-08-16T02:30:25.000Z</time></trkpt>
        <trkpt lat="28.158284" lon="105.762551"><ele>1498.5225</ele><time>2026-08-16T02:30:27.000Z</time></trkpt>
        <trkpt lat="28.158283" lon="105.76254"><ele>1498.9565</ele><time>2026-08-16T02:30:29.000Z</time></trkpt>
        <trkpt lat="28.158281" lon="105.762529"><ele>1499.4512</ele><time>2026-08-16T02:30:33.000Z</time></trkpt>
        <trkpt lat="28.158278" lon="105.762518"><ele>1499.9265</ele><time>2026-08-16T02:30:39.000Z</time></trkpt>
        <trkpt lat="28.158279" lon="105.762502"><ele>1499.6649</ele><time>2026-08-16T02:30:43.000Z</time></trkpt>
        <trkpt lat="28.158282" lon="105.762471"><ele>1499.8154</ele><time>2026-08-16T02:30:45.000Z</time></trkpt>
        <trkpt lat="28.158282" lon="105.762469"><ele>1500.2736</ele><time>2026-08-16T02:30:47.000Z</time></trkpt>
        <trkpt lat="28.158286" lon="105.76244"><ele>1500.6094</ele><time>2026-08-16T02:30:54.000Z</time></trkpt>
        <trkpt lat="28.158288" lon="105.762432"><ele>1503.0648</ele><time>2026-08-16T02:31:00.000Z</time></trkpt>
        <trkpt lat="28.1583" lon="105.762392"><ele>1503.467</ele><time>2026-08-16T02:31:02.000Z</time></trkpt>
        <trkpt lat="28.1583" lon="105.762389"><ele>1502.7833</ele><time>2026-08-16T02:31:04.000Z</time></trkpt>
        <trkpt lat="28.1583" lon="105.762387"><ele>1503.1869</ele><time>2026-08-16T02:31:06.000Z</time></trkpt>
        <trkpt lat="28.158301" lon="105.762348"><ele>1503.5972</ele><time>2026-08-16T02:31:12.000Z</time></trkpt>
        <trkpt lat="28.1583" lon="105.762334"><ele>1503.5287</ele><time>2026-08-16T02:31:14.000Z</time></trkpt>
        <trkpt lat="28.1583" lon="105.762317"><ele>1504.1763</ele><time>2026-08-16T02:31:16.000Z</time></trkpt>
        <trkpt lat="28.158302" lon="105.762302"><ele>1504.7708</ele><time>2026-08-16T02:31:18.000Z</time></trkpt>
        <trkpt lat="28.158305" lon="105.76229"><ele>1505.1881</ele><time>2026-08-16T02:31:20.000Z</time></trkpt>
        <trkpt lat="28.158303" lon="105.76228"><ele>1504.8109</ele><time>2026-08-16T02:31:22.000Z</time></trkpt>
        <trkpt lat="28.158298" lon="105.762258"><ele>1505.5887</ele><time>2026-08-16T02:31:26.000Z</time></trkpt>
        <trkpt lat="28.158297" lon="105.762247"><ele>1505.7856</ele><time>2026-08-16T02:31:28.000Z</time></trkpt>
        <trkpt lat="28.158298" lon="105.762234"><ele>1506.6034</ele><time>2026-08-16T02:31:30.000Z</time></trkpt>
        <trkpt lat="28.158296" lon="105.762223"><ele>1506.7644</ele><time>2026-08-16T02:31:32.000Z</time></trkpt>
        <trkpt lat="28.158286" lon="105.762178"><ele>1508.8146</ele><time>2026-08-16T02:31:40.000Z</time></trkpt>
        <trkpt lat="28.158281" lon="105.762166"><ele>1509.5017</ele><time>2026-08-16T02:31:42.000Z</time></trkpt>
        <trkpt lat="28.158279" lon="105.762155"><ele>1509.7994</ele><time>2026-08-16T02:31:44.000Z</time></trkpt>
        <trkpt lat="28.15828" lon="105.762141"><ele>1510.6555</ele><time>2026-08-16T02:31:46.000Z</time></trkpt>
        <trkpt lat="28.158286" lon="105.762127"><ele>1511.1713</ele><time>2026-08-16T02:31:48.000Z</time></trkpt>
        <trkpt lat="28.158297" lon="105.762108"><ele>1512.043</ele><time>2026-08-16T02:31:50.000Z</time></trkpt>
        <trkpt lat="28.15831" lon="105.762093"><ele>1512.1528</ele><time>2026-08-16T02:31:52.000Z</time></trkpt>
        <trkpt lat="28.158325" lon="105.762078"><ele>1512.2303</ele><time>2026-08-16T02:31:54.000Z</time></trkpt>
        <trkpt lat="28.158339" lon="105.762063"><ele>1510.959</ele><time>2026-08-16T02:31:56.000Z</time></trkpt>
        <trkpt lat="28.158353" lon="105.762046"><ele>1510.9963</ele><time>2026-08-16T02:31:58.000Z</time></trkpt>
        <trkpt lat="28.158364" lon="105.762029"><ele>1511.7587</ele><time>2026-08-16T02:32:00.000Z</time></trkpt>
        <trkpt lat="28.15837" lon="105.762014"><ele>1511.0822</ele><time>2026-08-16T02:32:02.000Z</time></trkpt>
        <trkpt lat="28.158369" lon="105.762001"><ele>1511.6133</ele><time>2026-08-16T02:32:04.000Z</time></trkpt>
        <trkpt lat="28.158363" lon="105.761986"><ele>1511.377</ele><time>2026-08-16T02:32:06.000Z</time></trkpt>
        <trkpt lat="28.158354" lon="105.761969"><ele>1510.6583</ele><time>2026-08-16T02:32:08.000Z</time></trkpt>
        <trkpt lat="28.158341" lon="105.761945"><ele>1510.6632</ele><time>2026-08-16T02:32:10.000Z</time></trkpt>
        <trkpt lat="28.158331" lon="105.76192"><ele>1510.3417</ele><time>2026-08-16T02:32:12.000Z</time></trkpt>
        <trkpt lat="28.158327" lon="105.761901"><ele>1512.0422</ele><time>2026-08-16T02:32:14.000Z</time></trkpt>
        <trkpt lat="28.158326" lon="105.761885"><ele>1513.2395</ele><time>2026-08-16T02:32:16.000Z</time></trkpt>
        <trkpt lat="28.158327" lon="105.761867"><ele>1513.9125</ele><time>2026-08-16T02:32:18.000Z</time></trkpt>
        <trkpt lat="28.158327" lon="105.761851"><ele>1513.4955</ele><time>2026-08-16T02:32:20.000Z</time></trkpt>
        <trkpt lat="28.15833" lon="105.761837"><ele>1513.4086</ele><time>2026-08-16T02:32:22.000Z</time></trkpt>
        <trkpt lat="28.158334" lon="105.761825"><ele>1514.2057</ele><time>2026-08-16T02:32:24.000Z</time></trkpt>
        <trkpt lat="28.158339" lon="105.761812"><ele>1514.7012</ele><time>2026-08-16T02:32:26.000Z</time></trkpt>
        <trkpt lat="28.158344" lon="105.761805"><ele>1516.8434</ele><time>2026-08-16T02:32:28.000Z</time></trkpt>
        <trkpt lat="28.158351" lon="105.761804"><ele>1519.0917</ele><time>2026-08-16T02:32:32.000Z</time></trkpt>
        <trkpt lat="28.158368" lon="105.7618"><ele>1520.8197</ele><time>2026-08-16T02:32:38.000Z</time></trkpt>
        <trkpt lat="28.15839" lon="105.761794"><ele>1522.0961</ele><time>2026-08-16T02:32:40.000Z</time></trkpt>
        <trkpt lat="28.158391" lon="105.761795"><ele>1522.574</ele><time>2026-08-16T02:32:42.000Z</time></trkpt>
        <trkpt lat="28.158319" lon="105.761728"><ele>1525.1893</ele><time>2026-08-16T02:33:09.000Z</time></trkpt>
        <trkpt lat="28.158309" lon="105.761719"><ele>1525.4731</ele><time>2026-08-16T02:33:11.000Z</time></trkpt>
        <trkpt lat="28.158309" lon="105.761718"><ele>1525.3898</ele><time>2026-08-16T02:33:13.000Z</time></trkpt>
        <trkpt lat="28.158321" lon="105.761691"><ele>1526.3098</ele><time>2026-08-16T02:33:19.000Z</time></trkpt>
        <trkpt lat="28.158327" lon="105.761676"><ele>1527.022</ele><time>2026-08-16T02:33:21.000Z</time></trkpt>
        <trkpt lat="28.158332" lon="105.761662"><ele>1527.302</ele><time>2026-08-16T02:33:23.000Z</time></trkpt>
        <trkpt lat="28.158339" lon="105.761647"><ele>1527.5358</ele><time>2026-08-16T02:33:25.000Z</time></trkpt>
        <trkpt lat="28.158342" lon="105.761639"><ele>1527.0345</ele><time>2026-08-16T02:33:27.000Z</time></trkpt>
        <trkpt lat="28.158348" lon="105.761631"><ele>1527.426</ele><time>2026-08-16T02:33:29.000Z</time></trkpt>
        <trkpt lat="28.158354" lon="105.761616"><ele>1528.914</ele><time>2026-08-16T02:33:41.000Z</time></trkpt>
        <trkpt lat="28.158355" lon="105.761607"><ele>1529.7836</ele><time>2026-08-16T02:33:45.000Z</time></trkpt>
        <trkpt lat="28.158355" lon="105.761594"><ele>1528.9432</ele><time>2026-08-16T02:33:51.000Z</time></trkpt>
        <trkpt lat="28.158359" lon="105.761581"><ele>1529.2786</ele><time>2026-08-16T02:33:55.000Z</time></trkpt>
        <trkpt lat="28.158361" lon="105.761572"><ele>1527.9841</ele><time>2026-08-16T02:33:59.000Z</time></trkpt>
        <trkpt lat="28.158362" lon="105.761557"><ele>1528.9387</ele><time>2026-08-16T02:34:03.000Z</time></trkpt>
        <trkpt lat="28.158363" lon="105.761534"><ele>1529.5527</ele><time>2026-08-16T02:34:05.000Z</time></trkpt>
        <trkpt lat="28.158364" lon="105.761534"><ele>1529.5225</ele><time>2026-08-16T02:34:07.000Z</time></trkpt>
        <trkpt lat="28.158398" lon="105.76153"><ele>1532.6385</ele><time>2026-08-16T02:34:13.000Z</time></trkpt>
        <trkpt lat="28.158419" lon="105.76153"><ele>1533.3395</ele><time>2026-08-16T02:34:15.000Z</time></trkpt>
        <trkpt lat="28.158437" lon="105.761531"><ele>1532.4216</ele><time>2026-08-16T02:34:17.000Z</time></trkpt>
        <trkpt lat="28.158452" lon="105.761532"><ele>1531.8224</ele><time>2026-08-16T02:34:19.000Z</time></trkpt>
        <trkpt lat="28.158464" lon="105.761533"><ele>1531.5754</ele><time>2026-08-16T02:34:21.000Z</time></trkpt>
        <trkpt lat="28.158465" lon="105.76153"><ele>1531.8494</ele><time>2026-08-16T02:34:23.000Z</time></trkpt>
        <trkpt lat="28.158472" lon="105.761505"><ele>1533.5298</ele><time>2026-08-16T02:34:31.000Z</time></trkpt>
        <trkpt lat="28.158447" lon="105.761495"><ele>1534.2761</ele><time>2026-08-16T02:34:33.000Z</time></trkpt>
        <trkpt lat="28.158446" lon="105.761494"><ele>1534.4333</ele><time>2026-08-16T02:34:35.000Z</time></trkpt>
        <trkpt lat="28.158444" lon="105.761488"><ele>1534.8209</ele><time>2026-08-16T02:34:39.000Z</time></trkpt>
        <trkpt lat="28.158435" lon="105.761463"><ele>1534.8737</ele><time>2026-08-16T02:34:43.000Z</time></trkpt>
        <trkpt lat="28.158434" lon="105.761463"><ele>1535.2416</ele><time>2026-08-16T02:34:46.000Z</time></trkpt>
        <trkpt lat="28.158462" lon="105.761453"><ele>1535.3479</ele><time>2026-08-16T02:34:48.000Z</time></trkpt>
        <trkpt lat="28.158464" lon="105.761452"><ele>1535.5631</ele><time>2026-08-16T02:34:50.000Z</time></trkpt>
        <trkpt lat="28.158466" lon="105.761452"><ele>1536.6353</ele><time>2026-08-16T02:34:52.000Z</time></trkpt>
        <trkpt lat="28.158496" lon="105.761454"><ele>1538.9075</ele><time>2026-08-16T02:34:56.000Z</time></trkpt>
        <trkpt lat="28.158513" lon="105.761455"><ele>1539.5873</ele><time>2026-08-16T02:34:58.000Z</time></trkpt>
        <trkpt lat="28.158527" lon="105.761455"><ele>1539.3647</ele><time>2026-08-16T02:35:00.000Z</time></trkpt>
        <trkpt lat="28.158541" lon="105.761456"><ele>1539.2496</ele><time>2026-08-16T02:35:02.000Z</time></trkpt>
        <trkpt lat="28.158554" lon="105.761456"><ele>1539.2703</ele><time>2026-08-16T02:35:04.000Z</time></trkpt>
        <trkpt lat="28.158565" lon="105.761456"><ele>1539.7937</ele><time>2026-08-16T02:35:06.000Z</time></trkpt>
        <trkpt lat="28.158579" lon="105.761457"><ele>1539.3801</ele><time>2026-08-16T02:35:08.000Z</time></trkpt>
        <trkpt lat="28.158589" lon="105.761458"><ele>1539.2535</ele><time>2026-08-16T02:35:10.000Z</time></trkpt>
        <trkpt lat="28.158589" lon="105.761457"><ele>1539.7958</ele><time>2026-08-16T02:35:12.000Z</time></trkpt>
        <trkpt lat="28.158582" lon="105.761496"><ele>1540.1996</ele><time>2026-08-16T02:40:55.000Z</time></trkpt>
        <trkpt lat="28.158581" lon="105.761496"><ele>1540.1996</ele><time>2026-08-16T02:41:10.000Z</time></trkpt>
        <trkpt lat="28.158589" lon="105.761485"><ele>1543.6112</ele><time>2026-08-16T02:46:28.000Z</time></trkpt>
        <trkpt lat="28.158606" lon="105.761462"><ele>1544.9664</ele><time>2026-08-16T02:49:32.000Z</time></trkpt>
        <trkpt lat="28.158606" lon="105.761459"><ele>1545.042</ele><time>2026-08-16T02:49:34.000Z</time></trkpt>
        <trkpt lat="28.158606" lon="105.761456"><ele>1547.0114</ele><time>2026-08-16T02:49:38.000Z</time></trkpt>
        <trkpt lat="28.158598" lon="105.761428"><ele>1545.4412</ele><time>2026-08-16T02:49:50.000Z</time></trkpt>
        <trkpt lat="28.158592" lon="105.761403"><ele>1545.1743</ele><time>2026-08-16T02:49:52.000Z</time></trkpt>
        <trkpt lat="28.158592" lon="105.761403"><ele>1545.9243</ele><time>2026-08-16T02:49:54.000Z</time></trkpt>
        <trkpt lat="28.158611" lon="105.761393"><ele>1545.8173</ele><time>2026-08-16T02:50:00.000Z</time></trkpt>
        <trkpt lat="28.15862" lon="105.761385"><ele>1546.2664</ele><time>2026-08-16T02:50:02.000Z</time></trkpt>
        <trkpt lat="28.158621" lon="105.761386"><ele>1546.5754</ele><time>2026-08-16T02:50:04.000Z</time></trkpt>
        <trkpt lat="28.158582" lon="105.761349"><ele>1547.9019</ele><time>2026-08-16T02:50:10.000Z</time></trkpt>
        <trkpt lat="28.158582" lon="105.761349"><ele>1547.433</ele><time>2026-08-16T02:50:12.000Z</time></trkpt>
        <trkpt lat="28.158583" lon="105.761348"><ele>1547.7916</ele><time>2026-08-16T02:50:14.000Z</time></trkpt>
        <trkpt lat="28.158596" lon="105.761311"><ele>1548.7578</ele><time>2026-08-16T02:50:22.000Z</time></trkpt>
        <trkpt lat="28.1586" lon="105.761308"><ele>1548.7512</ele><time>2026-08-16T02:50:24.000Z</time></trkpt>
        <trkpt lat="28.158605" lon="105.761308"><ele>1548.1283</ele><time>2026-08-16T02:50:26.000Z</time></trkpt>
        <trkpt lat="28.158627" lon="105.761304"><ele>1548.5049</ele><time>2026-08-16T02:50:32.000Z</time></trkpt>
        <trkpt lat="28.158629" lon="105.761305"><ele>1549.0663</ele><time>2026-08-16T02:50:34.000Z</time></trkpt>
        <trkpt lat="28.158581" lon="105.76127"><ele>1551.7605</ele><time>2026-08-16T02:50:44.000Z</time></trkpt>
        <trkpt lat="28.158581" lon="105.76127"><ele>1552.6747</ele><time>2026-08-16T02:50:46.000Z</time></trkpt>
        <trkpt lat="28.158582" lon="105.761269"><ele>1552.6681</ele><time>2026-08-16T02:50:48.000Z</time></trkpt>
        <trkpt lat="28.158629" lon="105.761231"><ele>1554.1959</ele><time>2026-08-16T02:51:02.000Z</time></trkpt>
        <trkpt lat="28.158638" lon="105.761224"><ele>1553.2009</ele><time>2026-08-16T02:51:04.000Z</time></trkpt>
        <trkpt lat="28.158638" lon="105.761223"><ele>1553.6576</ele><time>2026-08-16T02:51:06.000Z</time></trkpt>
        <trkpt lat="28.158641" lon="105.761189"><ele>1557.0485</ele><time>2026-08-16T02:51:16.000Z</time></trkpt>
        <trkpt lat="28.158643" lon="105.761168"><ele>1558.1398</ele><time>2026-08-16T02:51:18.000Z</time></trkpt>
        <trkpt lat="28.158644" lon="105.761167"><ele>1558.6945</ele><time>2026-08-16T02:51:20.000Z</time></trkpt>
        <trkpt lat="28.158651" lon="105.761147"><ele>1560.8798</ele><time>2026-08-16T02:51:26.000Z</time></trkpt>
        <trkpt lat="28.158656" lon="105.761138"><ele>1560.7908</ele><time>2026-08-16T02:51:28.000Z</time></trkpt>
        <trkpt lat="28.158662" lon="105.761132"><ele>1560.4297</ele><time>2026-08-16T02:51:30.000Z</time></trkpt>
        <trkpt lat="28.158679" lon="105.761113"><ele>1560.7986</ele><time>2026-08-16T02:51:32.000Z</time></trkpt>
        <trkpt lat="28.15868" lon="105.761112"><ele>1561.8253</ele><time>2026-08-16T02:51:34.000Z</time></trkpt>
        <trkpt lat="28.158681" lon="105.761106"><ele>1561.7145</ele><time>2026-08-16T02:51:38.000Z</time></trkpt>
        <trkpt lat="28.158688" lon="105.761052"><ele>1563.444</ele><time>2026-08-16T02:51:44.000Z</time></trkpt>
        <trkpt lat="28.158688" lon="105.761052"><ele>1563.8452</ele><time>2026-08-16T02:51:46.000Z</time></trkpt>
        <trkpt lat="28.158689" lon="105.761051"><ele>1565.3768</ele><time>2026-08-16T02:51:48.000Z</time></trkpt>
        <trkpt lat="28.158716" lon="105.761024"><ele>1567.0072</ele><time>2026-08-16T02:51:54.000Z</time></trkpt>
        <trkpt lat="28.158724" lon="105.761011"><ele>1567.9785</ele><time>2026-08-16T02:51:56.000Z</time></trkpt>
        <trkpt lat="28.158729" lon="105.761"><ele>1568.5859</ele><time>2026-08-16T02:51:58.000Z</time></trkpt>
        <trkpt lat="28.158729" lon="105.760991"><ele>1568.7246</ele><time>2026-08-16T02:52:00.000Z</time></trkpt>
        <trkpt lat="28.158731" lon="105.760972"><ele>1568.5082</ele><time>2026-08-16T02:52:04.000Z</time></trkpt>
        <trkpt lat="28.158733" lon="105.760953"><ele>1568.7076</ele><time>2026-08-16T02:52:06.000Z</time></trkpt>
        <trkpt lat="28.158733" lon="105.760952"><ele>1569.4426</ele><time>2026-08-16T02:52:08.000Z</time></trkpt>
        <trkpt lat="28.158741" lon="105.760926"><ele>1570.948</ele><time>2026-08-16T02:52:14.000Z</time></trkpt>
        <trkpt lat="28.158747" lon="105.760909"><ele>1571.5269</ele><time>2026-08-16T02:52:16.000Z</time></trkpt>
        <trkpt lat="28.158753" lon="105.760894"><ele>1570.8927</ele><time>2026-08-16T02:52:18.000Z</time></trkpt>
        <trkpt lat="28.158762" lon="105.760876"><ele>1571.6099</ele><time>2026-08-16T02:52:20.000Z</time></trkpt>
        <trkpt lat="28.158769" lon="105.760859"><ele>1572.8416</ele><time>2026-08-16T02:52:22.000Z</time></trkpt>
        <trkpt lat="28.158777" lon="105.760846"><ele>1573.8048</ele><time>2026-08-16T02:52:24.000Z</time></trkpt>
        <trkpt lat="28.158785" lon="105.76083"><ele>1574.5386</ele><time>2026-08-16T02:52:26.000Z</time></trkpt>
        <trkpt lat="28.158794" lon="105.760815"><ele>1574.8826</ele><time>2026-08-16T02:52:28.000Z</time></trkpt>
        <trkpt lat="28.158802" lon="105.760796"><ele>1574.3389</ele><time>2026-08-16T02:52:30.000Z</time></trkpt>
        <trkpt lat="28.15881" lon="105.76078"><ele>1575.0128</ele><time>2026-08-16T02:52:32.000Z</time></trkpt>
        <trkpt lat="28.158816" lon="105.760767"><ele>1576.1565</ele><time>2026-08-16T02:52:34.000Z</time></trkpt>
        <trkpt lat="28.158819" lon="105.760763"><ele>1576.3169</ele><time>2026-08-16T02:52:36.000Z</time></trkpt>
        <trkpt lat="28.158829" lon="105.760751"><ele>1578.0078</ele><time>2026-08-16T02:52:42.000Z</time></trkpt>
        <trkpt lat="28.158852" lon="105.760723"><ele>1580.7313</ele><time>2026-08-16T02:52:46.000Z</time></trkpt>
        <trkpt lat="28.158852" lon="105.760723"><ele>1581.777</ele><time>2026-08-16T02:52:48.000Z</time></trkpt>
        <trkpt lat="28.158853" lon="105.760722"><ele>1581.765</ele><time>2026-08-16T02:52:50.000Z</time></trkpt>
        <trkpt lat="28.158881" lon="105.760688"><ele>1581.9885</ele><time>2026-08-16T02:52:56.000Z</time></trkpt>
        <trkpt lat="28.158891" lon="105.760676"><ele>1582.9064</ele><time>2026-08-16T02:52:58.000Z</time></trkpt>
        <trkpt lat="28.1589" lon="105.760667"><ele>1582.944</ele><time>2026-08-16T02:53:00.000Z</time></trkpt>
        <trkpt lat="28.1589" lon="105.760667"><ele>1584.2003</ele><time>2026-08-16T02:53:02.000Z</time></trkpt>
        <trkpt lat="28.15888" lon="105.760645"><ele>1585.4672</ele><time>2026-08-16T02:53:23.000Z</time></trkpt>
        <trkpt lat="28.158896" lon="105.760629"><ele>1585.8811</ele><time>2026-08-16T02:53:29.000Z</time></trkpt>
        <trkpt lat="28.158901" lon="105.760624"><ele>1585.9434</ele><time>2026-08-16T02:53:31.000Z</time></trkpt>
        <trkpt lat="28.158912" lon="105.760609"><ele>1585.6764</ele><time>2026-08-16T02:53:33.000Z</time></trkpt>
        <trkpt lat="28.158913" lon="105.760603"><ele>1585.7664</ele><time>2026-08-16T02:53:39.000Z</time></trkpt>
        <trkpt lat="28.15892" lon="105.760578"><ele>1585.3436</ele><time>2026-08-16T02:53:41.000Z</time></trkpt>
        <trkpt lat="28.15892" lon="105.760576"><ele>1585.7588</ele><time>2026-08-16T02:53:43.000Z</time></trkpt>
        <trkpt lat="28.158923" lon="105.760565"><ele>1586.032</ele><time>2026-08-16T02:53:47.000Z</time></trkpt>
        <trkpt lat="28.158929" lon="105.760533"><ele>1587.4618</ele><time>2026-08-16T02:53:51.000Z</time></trkpt>
        <trkpt lat="28.158932" lon="105.760517"><ele>1588.122</ele><time>2026-08-16T02:53:53.000Z</time></trkpt>
        <trkpt lat="28.158935" lon="105.760501"><ele>1588.3865</ele><time>2026-08-16T02:53:55.000Z</time></trkpt>
        <trkpt lat="28.15894" lon="105.76049"><ele>1589.674</ele><time>2026-08-16T02:53:57.000Z</time></trkpt>
        <trkpt lat="28.158947" lon="105.760483"><ele>1589.203</ele><time>2026-08-16T02:53:59.000Z</time></trkpt>
        <trkpt lat="28.158964" lon="105.760467"><ele>1589.0586</ele><time>2026-08-16T02:54:03.000Z</time></trkpt>
        <trkpt lat="28.158971" lon="105.760456"><ele>1589.1151</ele><time>2026-08-16T02:54:05.000Z</time></trkpt>
        <trkpt lat="28.158977" lon="105.760444"><ele>1589.0895</ele><time>2026-08-16T02:54:07.000Z</time></trkpt>
        <trkpt lat="28.158981" lon="105.760433"><ele>1589.8815</ele><time>2026-08-16T02:54:09.000Z</time></trkpt>
        <trkpt lat="28.158986" lon="105.76042"><ele>1589.5846</ele><time>2026-08-16T02:54:11.000Z</time></trkpt>
        <trkpt lat="28.158994" lon="105.760405"><ele>1590.1104</ele><time>2026-08-16T02:54:13.000Z</time></trkpt>
        <trkpt lat="28.159002" lon="105.760393"><ele>1590.546</ele><time>2026-08-16T02:54:15.000Z</time></trkpt>
        <trkpt lat="28.159008" lon="105.760383"><ele>1590.7856</ele><time>2026-08-16T02:54:17.000Z</time></trkpt>
        <trkpt lat="28.159015" lon="105.760373"><ele>1592.9832</ele><time>2026-08-16T02:54:19.000Z</time></trkpt>
        <trkpt lat="28.159027" lon="105.76036"><ele>1594.925</ele><time>2026-08-16T02:54:21.000Z</time></trkpt>
        <trkpt lat="28.159041" lon="105.760347"><ele>1596.066</ele><time>2026-08-16T02:54:23.000Z</time></trkpt>
        <trkpt lat="28.159052" lon="105.76034"><ele>1597.3079</ele><time>2026-08-16T02:54:25.000Z</time></trkpt>
        <trkpt lat="28.159063" lon="105.760334"><ele>1598.3895</ele><time>2026-08-16T02:54:27.000Z</time></trkpt>
        <trkpt lat="28.159068" lon="105.760328"><ele>1598.978</ele><time>2026-08-16T02:54:29.000Z</time></trkpt>
        <trkpt lat="28.159068" lon="105.760315"><ele>1600.0394</ele><time>2026-08-16T02:54:35.000Z</time></trkpt>
        <trkpt lat="28.15907" lon="105.760284"><ele>1600.0242</ele><time>2026-08-16T02:54:39.000Z</time></trkpt>
        <trkpt lat="28.15907" lon="105.760284"><ele>1599.5808</ele><time>2026-08-16T02:54:41.000Z</time></trkpt>
        <trkpt lat="28.159071" lon="105.76028"><ele>1599.995</ele><time>2026-08-16T02:54:45.000Z</time></trkpt>
        <trkpt lat="28.159083" lon="105.760247"><ele>1600.7637</ele><time>2026-08-16T02:54:53.000Z</time></trkpt>
        <trkpt lat="28.159088" lon="105.760232"><ele>1600.7974</ele><time>2026-08-16T02:54:55.000Z</time></trkpt>
        <trkpt lat="28.159088" lon="105.76023"><ele>1601.2744</ele><time>2026-08-16T02:54:57.000Z</time></trkpt>
        <trkpt lat="28.159092" lon="105.760213"><ele>1602.0536</ele><time>2026-08-16T02:55:01.000Z</time></trkpt>
        <trkpt lat="28.159099" lon="105.760191"><ele>1602.7894</ele><time>2026-08-16T02:55:03.000Z</time></trkpt>
        <trkpt lat="28.159107" lon="105.760165"><ele>1603.3917</ele><time>2026-08-16T02:55:05.000Z</time></trkpt>
        <trkpt lat="28.159112" lon="105.760143"><ele>1603.208</ele><time>2026-08-16T02:55:07.000Z</time></trkpt>
        <trkpt lat="28.159114" lon="105.760123"><ele>1603.0665</ele><time>2026-08-16T02:55:09.000Z</time></trkpt>
        <trkpt lat="28.159112" lon="105.760106"><ele>1604.2888</ele><time>2026-08-16T02:55:11.000Z</time></trkpt>
        <trkpt lat="28.159108" lon="105.760092"><ele>1604.5687</ele><time>2026-08-16T02:55:13.000Z</time></trkpt>
        <trkpt lat="28.159105" lon="105.76008"><ele>1605.0557</ele><time>2026-08-16T02:55:15.000Z</time></trkpt>
        <trkpt lat="28.159102" lon="105.760065"><ele>1605.0677</ele><time>2026-08-16T02:55:17.000Z</time></trkpt>
        <trkpt lat="28.159102" lon="105.76005"><ele>1605.205</ele><time>2026-08-16T02:55:19.000Z</time></trkpt>
        <trkpt lat="28.159105" lon="105.760032"><ele>1605.9143</ele><time>2026-08-16T02:55:21.000Z</time></trkpt>
        <trkpt lat="28.159108" lon="105.760015"><ele>1606.3986</ele><time>2026-08-16T02:55:23.000Z</time></trkpt>
        <trkpt lat="28.159112" lon="105.759998"><ele>1606.4741</ele><time>2026-08-16T02:55:25.000Z</time></trkpt>
        <trkpt lat="28.159114" lon="105.75998"><ele>1607.0356</ele><time>2026-08-16T02:55:27.000Z</time></trkpt>
        <trkpt lat="28.159117" lon="105.759965"><ele>1608.3348</ele><time>2026-08-16T02:55:29.000Z</time></trkpt>
        <trkpt lat="28.15912" lon="105.759954"><ele>1607.5209</ele><time>2026-08-16T02:55:31.000Z</time></trkpt>
        <trkpt lat="28.159125" lon="105.759941"><ele>1606.87</ele><time>2026-08-16T02:55:33.000Z</time></trkpt>
        <trkpt lat="28.159132" lon="105.759924"><ele>1606.0636</ele><time>2026-08-16T02:55:35.000Z</time></trkpt>
        <trkpt lat="28.159135" lon="105.759912"><ele>1605.4298</ele><time>2026-08-16T02:55:37.000Z</time></trkpt>
        <trkpt lat="28.159137" lon="105.759902"><ele>1605.6266</ele><time>2026-08-16T02:55:39.000Z</time></trkpt>
        <trkpt lat="28.159138" lon="105.759891"><ele>1605.469</ele><time>2026-08-16T02:55:41.000Z</time></trkpt>
        <trkpt lat="28.159137" lon="105.759879"><ele>1605.7817</ele><time>2026-08-16T02:55:43.000Z</time></trkpt>
        <trkpt lat="28.159134" lon="105.759868"><ele>1606.4979</ele><time>2026-08-16T02:55:45.000Z</time></trkpt>
        <trkpt lat="28.159137" lon="105.75986"><ele>1606.364</ele><time>2026-08-16T02:55:47.000Z</time></trkpt>
        <trkpt lat="28.159146" lon="105.759829"><ele>1607.2166</ele><time>2026-08-16T02:55:51.000Z</time></trkpt>
        <trkpt lat="28.159146" lon="105.759829"><ele>1608.038</ele><time>2026-08-16T02:55:53.000Z</time></trkpt>
        <trkpt lat="28.159146" lon="105.759826"><ele>1608.6069</ele><time>2026-08-16T02:55:55.000Z</time></trkpt>
        <trkpt lat="28.159162" lon="105.759779"><ele>1611.5282</ele><time>2026-08-16T02:56:01.000Z</time></trkpt>
        <trkpt lat="28.159167" lon="105.759762"><ele>1612.6625</ele><time>2026-08-16T02:56:03.000Z</time></trkpt>
        <trkpt lat="28.159173" lon="105.759744"><ele>1612.7378</ele><time>2026-08-16T02:56:05.000Z</time></trkpt>
        <trkpt lat="28.15918" lon="105.759731"><ele>1613.2782</ele><time>2026-08-16T02:56:07.000Z</time></trkpt>
        <trkpt lat="28.159187" lon="105.759722"><ele>1612.4332</ele><time>2026-08-16T02:56:09.000Z</time></trkpt>
        <trkpt lat="28.159193" lon="105.759715"><ele>1611.9993</ele><time>2026-08-16T02:56:11.000Z</time></trkpt>
        <trkpt lat="28.159205" lon="105.7597"><ele>1611.3511</ele><time>2026-08-16T02:56:15.000Z</time></trkpt>
        <trkpt lat="28.159209" lon="105.759691"><ele>1612.8605</ele><time>2026-08-16T02:56:17.000Z</time></trkpt>
        <trkpt lat="28.159208" lon="105.759686"><ele>1612.891</ele><time>2026-08-16T02:56:19.000Z</time></trkpt>
        <trkpt lat="28.159205" lon="105.759663"><ele>1611.2937</ele><time>2026-08-16T02:56:25.000Z</time></trkpt>
        <trkpt lat="28.159201" lon="105.759637"><ele>1610.7787</ele><time>2026-08-16T02:56:27.000Z</time></trkpt>
        <trkpt lat="28.159201" lon="105.759635"><ele>1611.4994</ele><time>2026-08-16T02:56:29.000Z</time></trkpt>
        <trkpt lat="28.1592" lon="105.75962"><ele>1612.2695</ele><time>2026-08-16T02:56:33.000Z</time></trkpt>
        <trkpt lat="28.159198" lon="105.759595"><ele>1612.8053</ele><time>2026-08-16T02:56:35.000Z</time></trkpt>
        <trkpt lat="28.159195" lon="105.759569"><ele>1613.3959</ele><time>2026-08-16T02:56:37.000Z</time></trkpt>
        <trkpt lat="28.159192" lon="105.759547"><ele>1614.9774</ele><time>2026-08-16T02:56:39.000Z</time></trkpt>
        <trkpt lat="28.159189" lon="105.759528"><ele>1616.8363</ele><time>2026-08-16T02:56:41.000Z</time></trkpt>
        <trkpt lat="28.159186" lon="105.759514"><ele>1617.3138</ele><time>2026-08-16T02:56:43.000Z</time></trkpt>
        <trkpt lat="28.159184" lon="105.759505"><ele>1618.1682</ele><time>2026-08-16T02:56:45.000Z</time></trkpt>
        <trkpt lat="28.159183" lon="105.759487"><ele>1619.6765</ele><time>2026-08-16T02:56:49.000Z</time></trkpt>
        <trkpt lat="28.159186" lon="105.759481"><ele>1619.6655</ele><time>2026-08-16T02:56:51.000Z</time></trkpt>
        <trkpt lat="28.159188" lon="105.759465"><ele>1620.2792</ele><time>2026-08-16T02:56:53.000Z</time></trkpt>
        <trkpt lat="28.159189" lon="105.759451"><ele>1620.1248</ele><time>2026-08-16T02:56:59.000Z</time></trkpt>
        <trkpt lat="28.15919" lon="105.759434"><ele>1620.2716</ele><time>2026-08-16T02:57:01.000Z</time></trkpt>
        <trkpt lat="28.15919" lon="105.759413"><ele>1620.5558</ele><time>2026-08-16T02:57:03.000Z</time></trkpt>
        <trkpt lat="28.159191" lon="105.759393"><ele>1621.3792</ele><time>2026-08-16T02:57:05.000Z</time></trkpt>
        <trkpt lat="28.159193" lon="105.759373"><ele>1622.2826</ele><time>2026-08-16T02:57:07.000Z</time></trkpt>
        <trkpt lat="28.159195" lon="105.759352"><ele>1623.0095</ele><time>2026-08-16T02:57:09.000Z</time></trkpt>
        <trkpt lat="28.159199" lon="105.759336"><ele>1624.0017</ele><time>2026-08-16T02:57:11.000Z</time></trkpt>
        <trkpt lat="28.159203" lon="105.759321"><ele>1624.438</ele><time>2026-08-16T02:57:13.000Z</time></trkpt>
        <trkpt lat="28.159209" lon="105.759308"><ele>1625.5328</ele><time>2026-08-16T02:57:15.000Z</time></trkpt>
        <trkpt lat="28.159215" lon="105.75929"><ele>1627.1086</ele><time>2026-08-16T02:57:17.000Z</time></trkpt>
        <trkpt lat="28.159221" lon="105.759273"><ele>1627.7473</ele><time>2026-08-16T02:57:19.000Z</time></trkpt>
        <trkpt lat="28.159227" lon="105.759256"><ele>1627.9167</ele><time>2026-08-16T02:57:21.000Z</time></trkpt>
        <trkpt lat="28.159233" lon="105.759245"><ele>1628.1078</ele><time>2026-08-16T02:57:23.000Z</time></trkpt>
        <trkpt lat="28.159237" lon="105.759235"><ele>1627.617</ele><time>2026-08-16T02:57:25.000Z</time></trkpt>
        <trkpt lat="28.159242" lon="105.759222"><ele>1627.6852</ele><time>2026-08-16T02:57:27.000Z</time></trkpt>
        <trkpt lat="28.159245" lon="105.759209"><ele>1627.7473</ele><time>2026-08-16T02:57:29.000Z</time></trkpt>
        <trkpt lat="28.159249" lon="105.759194"><ele>1627.7599</ele><time>2026-08-16T02:57:31.000Z</time></trkpt>
        <trkpt lat="28.159252" lon="105.759175"><ele>1627.1953</ele><time>2026-08-16T02:57:33.000Z</time></trkpt>
        <trkpt lat="28.159252" lon="105.759152"><ele>1627.5128</ele><time>2026-08-16T02:57:35.000Z</time></trkpt>
        <trkpt lat="28.159249" lon="105.759131"><ele>1628.3542</ele><time>2026-08-16T02:57:37.000Z</time></trkpt>
        <trkpt lat="28.159244" lon="105.759107"><ele>1627.6288</ele><time>2026-08-16T02:57:39.000Z</time></trkpt>
        <trkpt lat="28.159239" lon="105.759082"><ele>1626.5826</ele><time>2026-08-16T02:57:41.000Z</time></trkpt>
        <trkpt lat="28.159236" lon="105.759058"><ele>1626.487</ele><time>2026-08-16T02:57:43.000Z</time></trkpt>
        <trkpt lat="28.159237" lon="105.759036"><ele>1626.0013</ele><time>2026-08-16T02:57:45.000Z</time></trkpt>
        <trkpt lat="28.159239" lon="105.759021"><ele>1626.9669</ele><time>2026-08-16T02:57:47.000Z</time></trkpt>
        <trkpt lat="28.159239" lon="105.759003"><ele>1627.5009</ele><time>2026-08-16T02:57:49.000Z</time></trkpt>
        <trkpt lat="28.159237" lon="105.758981"><ele>1628.3995</ele><time>2026-08-16T02:57:51.000Z</time></trkpt>
        <trkpt lat="28.159234" lon="105.758955"><ele>1627.5391</ele><time>2026-08-16T02:57:53.000Z</time></trkpt>
        <trkpt lat="28.159231" lon="105.758927"><ele>1627.0614</ele><time>2026-08-16T02:57:55.000Z</time></trkpt>
        <trkpt lat="28.159232" lon="105.758901"><ele>1627.3851</ele><time>2026-08-16T02:57:57.000Z</time></trkpt>
        <trkpt lat="28.159236" lon="105.758878"><ele>1628.0767</ele><time>2026-08-16T02:57:59.000Z</time></trkpt>
        <trkpt lat="28.159239" lon="105.758856"><ele>1627.6437</ele><time>2026-08-16T02:58:01.000Z</time></trkpt>
        <trkpt lat="28.159241" lon="105.758825"><ele>1628.7162</ele><time>2026-08-16T02:58:03.000Z</time></trkpt>
        <trkpt lat="28.159241" lon="105.758795"><ele>1629.2234</ele><time>2026-08-16T02:58:05.000Z</time></trkpt>
        <trkpt lat="28.15924" lon="105.758768"><ele>1628.4515</ele><time>2026-08-16T02:58:07.000Z</time></trkpt>
        <trkpt lat="28.159239" lon="105.75875"><ele>1628.306</ele><time>2026-08-16T02:58:09.000Z</time></trkpt>
        <trkpt lat="28.159238" lon="105.758734"><ele>1627.5388</ele><time>2026-08-16T02:58:11.000Z</time></trkpt>
        <trkpt lat="28.159238" lon="105.758726"><ele>1626.8666</ele><time>2026-08-16T02:58:13.000Z</time></trkpt>
        <trkpt lat="28.159232" lon="105.758714"><ele>1625.8619</ele><time>2026-08-16T02:58:19.000Z</time></trkpt>
        <trkpt lat="28.159219" lon="105.758685"><ele>1623.3704</ele><time>2026-08-16T02:58:23.000Z</time></trkpt>
        <trkpt lat="28.159219" lon="105.758685"><ele>1622.6462</ele><time>2026-08-16T02:58:25.000Z</time></trkpt>
        <trkpt lat="28.159218" lon="105.758684"><ele>1622.4088</ele><time>2026-08-16T02:58:27.000Z</time></trkpt>
        <trkpt lat="28.159185" lon="105.758642"><ele>1621.3574</ele><time>2026-08-16T02:58:33.000Z</time></trkpt>
        <trkpt lat="28.159176" lon="105.758623"><ele>1622.6843</ele><time>2026-08-16T02:58:35.000Z</time></trkpt>
        <trkpt lat="28.159169" lon="105.758605"><ele>1623.3654</ele><time>2026-08-16T02:58:37.000Z</time></trkpt>
        <trkpt lat="28.159164" lon="105.75859"><ele>1624.3479</ele><time>2026-08-16T02:58:39.000Z</time></trkpt>
        <trkpt lat="28.159159" lon="105.758571"><ele>1625.1196</ele><time>2026-08-16T02:58:41.000Z</time></trkpt>
        <trkpt lat="28.159154" lon="105.75855"><ele>1625.6133</ele><time>2026-08-16T02:58:43.000Z</time></trkpt>
        <trkpt lat="28.159151" lon="105.75853"><ele>1624.9843</ele><time>2026-08-16T02:58:45.000Z</time></trkpt>
        <trkpt lat="28.159147" lon="105.758514"><ele>1624.7407</ele><time>2026-08-16T02:58:47.000Z</time></trkpt>
        <trkpt lat="28.159141" lon="105.758495"><ele>1626.077</ele><time>2026-08-16T02:58:49.000Z</time></trkpt>
        <trkpt lat="28.159137" lon="105.758478"><ele>1625.6699</ele><time>2026-08-16T02:58:51.000Z</time></trkpt>
        <trkpt lat="28.159134" lon="105.758465"><ele>1624.56</ele><time>2026-08-16T02:58:53.000Z</time></trkpt>
        <trkpt lat="28.159132" lon="105.758453"><ele>1624.0051</ele><time>2026-08-16T02:58:55.000Z</time></trkpt>
        <trkpt lat="28.159127" lon="105.758441"><ele>1623.7827</ele><time>2026-08-16T02:58:57.000Z</time></trkpt>
        <trkpt lat="28.159122" lon="105.758425"><ele>1623.9436</ele><time>2026-08-16T02:58:59.000Z</time></trkpt>
        <trkpt lat="28.159117" lon="105.75841"><ele>1624.0359</ele><time>2026-08-16T02:59:01.000Z</time></trkpt>
        <trkpt lat="28.159112" lon="105.758391"><ele>1624.3978</ele><time>2026-08-16T02:59:03.000Z</time></trkpt>
        <trkpt lat="28.159107" lon="105.758374"><ele>1624.2039</ele><time>2026-08-16T02:59:05.000Z</time></trkpt>
        <trkpt lat="28.159102" lon="105.758357"><ele>1624.8947</ele><time>2026-08-16T02:59:07.000Z</time></trkpt>
        <trkpt lat="28.159098" lon="105.75834"><ele>1624.3633</ele><time>2026-08-16T02:59:09.000Z</time></trkpt>
        <trkpt lat="28.159096" lon="105.758324"><ele>1623.8202</ele><time>2026-08-16T02:59:11.000Z</time></trkpt>
        <trkpt lat="28.159095" lon="105.75831"><ele>1623.6627</ele><time>2026-08-16T02:59:13.000Z</time></trkpt>
        <trkpt lat="28.159092" lon="105.758296"><ele>1622.5634</ele><time>2026-08-16T02:59:15.000Z</time></trkpt>
        <trkpt lat="28.159089" lon="105.758285"><ele>1621.7715</ele><time>2026-08-16T02:59:17.000Z</time></trkpt>
        <trkpt lat="28.159085" lon="105.75827"><ele>1622.0344</ele><time>2026-08-16T02:59:19.000Z</time></trkpt>
        <trkpt lat="28.159081" lon="105.758252"><ele>1622.1637</ele><time>2026-08-16T02:59:21.000Z</time></trkpt>
        <trkpt lat="28.159077" lon="105.758236"><ele>1622.252</ele><time>2026-08-16T02:59:23.000Z</time></trkpt>
        <trkpt lat="28.159076" lon="105.758219"><ele>1622.7501</ele><time>2026-08-16T02:59:25.000Z</time></trkpt>
        <trkpt lat="28.159074" lon="105.758202"><ele>1623.8763</ele><time>2026-08-16T02:59:27.000Z</time></trkpt>
        <trkpt lat="28.159072" lon="105.758186"><ele>1624.5596</ele><time>2026-08-16T02:59:29.000Z</time></trkpt>
        <trkpt lat="28.159068" lon="105.758168"><ele>1625.4642</ele><time>2026-08-16T02:59:31.000Z</time></trkpt>
        <trkpt lat="28.159064" lon="105.758145"><ele>1625.1799</ele><time>2026-08-16T02:59:33.000Z</time></trkpt>
        <trkpt lat="28.159063" lon="105.758124"><ele>1624.9481</ele><time>2026-08-16T02:59:35.000Z</time></trkpt>
        <trkpt lat="28.159063" lon="105.758106"><ele>1623.2981</ele><time>2026-08-16T02:59:37.000Z</time></trkpt>
        <trkpt lat="28.159065" lon="105.758091"><ele>1622.1158</ele><time>2026-08-16T02:59:39.000Z</time></trkpt>
        <trkpt lat="28.159068" lon="105.758071"><ele>1622.5488</ele><time>2026-08-16T02:59:41.000Z</time></trkpt>
        <trkpt lat="28.15907" lon="105.758052"><ele>1622.6122</ele><time>2026-08-16T02:59:43.000Z</time></trkpt>
        <trkpt lat="28.159068" lon="105.758032"><ele>1622.2635</ele><time>2026-08-16T02:59:45.000Z</time></trkpt>
        <trkpt lat="28.159064" lon="105.758012"><ele>1622.7806</ele><time>2026-08-16T02:59:47.000Z</time></trkpt>
        <trkpt lat="28.159057" lon="105.757995"><ele>1622.5381</ele><time>2026-08-16T02:59:49.000Z</time></trkpt>
        <trkpt lat="28.159046" lon="105.757974"><ele>1622.9956</ele><time>2026-08-16T02:59:51.000Z</time></trkpt>
        <trkpt lat="28.159032" lon="105.757947"><ele>1623.1084</ele><time>2026-08-16T02:59:53.000Z</time></trkpt>
        <trkpt lat="28.159024" lon="105.757928"><ele>1623.4913</ele><time>2026-08-16T02:59:55.000Z</time></trkpt>
        <trkpt lat="28.159015" lon="105.757909"><ele>1623.4854</ele><time>2026-08-16T02:59:57.000Z</time></trkpt>
        <trkpt lat="28.159005" lon="105.757888"><ele>1624.3248</ele><time>2026-08-16T02:59:59.000Z</time></trkpt>
        <trkpt lat="28.158995" lon="105.757863"><ele>1624.9993</ele><time>2026-08-16T03:00:01.000Z</time></trkpt>
        <trkpt lat="28.158986" lon="105.757834"><ele>1624.236</ele><time>2026-08-16T03:00:03.000Z</time></trkpt>
        <trkpt lat="28.158979" lon="105.757799"><ele>1623.5312</ele><time>2026-08-16T03:00:05.000Z</time></trkpt>
        <trkpt lat="28.158977" lon="105.75777"><ele>1623.6588</ele><time>2026-08-16T03:00:07.000Z</time></trkpt>
        <trkpt lat="28.158979" lon="105.757752"><ele>1623.96</ele><time>2026-08-16T03:00:09.000Z</time></trkpt>
        <trkpt lat="28.158984" lon="105.757745"><ele>1624.224</ele><time>2026-08-16T03:00:11.000Z</time></trkpt>
        <trkpt lat="28.158992" lon="105.757738"><ele>1624.338</ele><time>2026-08-16T03:00:13.000Z</time></trkpt>
        <trkpt lat="28.159002" lon="105.75773"><ele>1624.7627</ele><time>2026-08-16T03:00:15.000Z</time></trkpt>
        <trkpt lat="28.159009" lon="105.75772"><ele>1626.0914</ele><time>2026-08-16T03:00:17.000Z</time></trkpt>
        <trkpt lat="28.159013" lon="105.757711"><ele>1626.5511</ele><time>2026-08-16T03:00:19.000Z</time></trkpt>
        <trkpt lat="28.159014" lon="105.757699"><ele>1626.9297</ele><time>2026-08-16T03:00:21.000Z</time></trkpt>
        <trkpt lat="28.159017" lon="105.757681"><ele>1627.4197</ele><time>2026-08-16T03:00:23.000Z</time></trkpt>
        <trkpt lat="28.159018" lon="105.757663"><ele>1627.9226</ele><time>2026-08-16T03:00:25.000Z</time></trkpt>
        <trkpt lat="28.159015" lon="105.757642"><ele>1628.0566</ele><time>2026-08-16T03:00:27.000Z</time></trkpt>
        <trkpt lat="28.159008" lon="105.757621"><ele>1628.1415</ele><time>2026-08-16T03:00:29.000Z</time></trkpt>
        <trkpt lat="28.158998" lon="105.757597"><ele>1628.8204</ele><time>2026-08-16T03:00:31.000Z</time></trkpt>
        <trkpt lat="28.158989" lon="105.757571"><ele>1628.8169</ele><time>2026-08-16T03:00:33.000Z</time></trkpt>
        <trkpt lat="28.158983" lon="105.757552"><ele>1629.3148</ele><time>2026-08-16T03:00:35.000Z</time></trkpt>
        <trkpt lat="28.158978" lon="105.757536"><ele>1628.8711</ele><time>2026-08-16T03:00:37.000Z</time></trkpt>
        <trkpt lat="28.158973" lon="105.757521"><ele>1628.6991</ele><time>2026-08-16T03:00:39.000Z</time></trkpt>
        <trkpt lat="28.158965" lon="105.757509"><ele>1629.093</ele><time>2026-08-16T03:00:41.000Z</time></trkpt>
        <trkpt lat="28.158946" lon="105.757488"><ele>1627.6934</ele><time>2026-08-16T03:00:43.000Z</time></trkpt>
        <trkpt lat="28.158935" lon="105.757479"><ele>1628.073</ele><time>2026-08-16T03:00:45.000Z</time></trkpt>
        <trkpt lat="28.15893" lon="105.757475"><ele>1628.6434</ele><time>2026-08-16T03:00:47.000Z</time></trkpt>
        <trkpt lat="28.158921" lon="105.757472"><ele>1628.9775</ele><time>2026-08-16T03:00:49.000Z</time></trkpt>
        <trkpt lat="28.158907" lon="105.757463"><ele>1631.8977</ele><time>2026-08-16T03:00:57.000Z</time></trkpt>
        <trkpt lat="28.158892" lon="105.757455"><ele>1631.6581</ele><time>2026-08-16T03:00:59.000Z</time></trkpt>
        <trkpt lat="28.158891" lon="105.757455"><ele>1632.6725</ele><time>2026-08-16T03:01:01.000Z</time></trkpt>
        <trkpt lat="28.158871" lon="105.757456"><ele>1634.363</ele><time>2026-08-16T03:01:05.000Z</time></trkpt>
        <trkpt lat="28.158851" lon="105.757454"><ele>1635.6714</ele><time>2026-08-16T03:01:07.000Z</time></trkpt>
        <trkpt lat="28.158832" lon="105.757453"><ele>1634.9972</ele><time>2026-08-16T03:01:09.000Z</time></trkpt>
        <trkpt lat="28.158812" lon="105.757453"><ele>1634.2952</ele><time>2026-08-16T03:01:11.000Z</time></trkpt>
        <trkpt lat="28.158795" lon="105.757453"><ele>1635.48</ele><time>2026-08-16T03:01:13.000Z</time></trkpt>
        <trkpt lat="28.158783" lon="105.757452"><ele>1635.7632</ele><time>2026-08-16T03:01:15.000Z</time></trkpt>
        <trkpt lat="28.158774" lon="105.757447"><ele>1635.5391</ele><time>2026-08-16T03:01:17.000Z</time></trkpt>
        <trkpt lat="28.158767" lon="105.757442"><ele>1635.4147</ele><time>2026-08-16T03:01:19.000Z</time></trkpt>
        <trkpt lat="28.158757" lon="105.757436"><ele>1635.7006</ele><time>2026-08-16T03:01:21.000Z</time></trkpt>
        <trkpt lat="28.158747" lon="105.75743"><ele>1636.6323</ele><time>2026-08-16T03:01:23.000Z</time></trkpt>
        <trkpt lat="28.158737" lon="105.757423"><ele>1636.7014</ele><time>2026-08-16T03:01:25.000Z</time></trkpt>
        <trkpt lat="28.158722" lon="105.757415"><ele>1636.423</ele><time>2026-08-16T03:01:27.000Z</time></trkpt>
        <trkpt lat="28.158708" lon="105.757409"><ele>1636.5366</ele><time>2026-08-16T03:01:29.000Z</time></trkpt>
        <trkpt lat="28.158695" lon="105.757404"><ele>1636.3181</ele><time>2026-08-16T03:01:31.000Z</time></trkpt>
        <trkpt lat="28.15868" lon="105.757398"><ele>1636.3251</ele><time>2026-08-16T03:01:33.000Z</time></trkpt>
        <trkpt lat="28.158668" lon="105.757393"><ele>1636.1482</ele><time>2026-08-16T03:01:35.000Z</time></trkpt>
        <trkpt lat="28.158658" lon="105.75739"><ele>1636.0736</ele><time>2026-08-16T03:01:37.000Z</time></trkpt>
        <trkpt lat="28.158647" lon="105.757387"><ele>1636.2825</ele><time>2026-08-16T03:01:39.000Z</time></trkpt>
        <trkpt lat="28.158634" lon="105.757384"><ele>1636.944</ele><time>2026-08-16T03:01:41.000Z</time></trkpt>
        <trkpt lat="28.158623" lon="105.757385"><ele>1637.5162</ele><time>2026-08-16T03:01:43.000Z</time></trkpt>
        <trkpt lat="28.15861" lon="105.757388"><ele>1638.2167</ele><time>2026-08-16T03:01:45.000Z</time></trkpt>
        <trkpt lat="28.158602" lon="105.757388"><ele>1638.1986</ele><time>2026-08-16T03:01:47.000Z</time></trkpt>
        <trkpt lat="28.158589" lon="105.757385"><ele>1638.0488</ele><time>2026-08-16T03:01:49.000Z</time></trkpt>
        <trkpt lat="28.158572" lon="105.757381"><ele>1638.2781</ele><time>2026-08-16T03:01:51.000Z</time></trkpt>
        <trkpt lat="28.158559" lon="105.757376"><ele>1639.1351</ele><time>2026-08-16T03:01:53.000Z</time></trkpt>
        <trkpt lat="28.158551" lon="105.757369"><ele>1638.473</ele><time>2026-08-16T03:01:55.000Z</time></trkpt>
        <trkpt lat="28.158542" lon="105.757361"><ele>1638.686</ele><time>2026-08-16T03:01:57.000Z</time></trkpt>
        <trkpt lat="28.158536" lon="105.757352"><ele>1638.7544</ele><time>2026-08-16T03:01:59.000Z</time></trkpt>
        <trkpt lat="28.158537" lon="105.757341"><ele>1638.8588</ele><time>2026-08-16T03:02:03.000Z</time></trkpt>
        <trkpt lat="28.158535" lon="105.757328"><ele>1641.6243</ele><time>2026-08-16T03:02:07.000Z</time></trkpt>
        <trkpt lat="28.158544" lon="105.757387"><ele>1645.6575</ele><time>2026-08-16T03:02:17.000Z</time></trkpt>
        <trkpt lat="28.158544" lon="105.757387"><ele>1644.2931</ele><time>2026-08-16T03:02:19.000Z</time></trkpt>
        <trkpt lat="28.158544" lon="105.757387"><ele>1644.1521</ele><time>2026-08-16T03:02:21.000Z</time></trkpt>
        <trkpt lat="28.158569" lon="105.757414"><ele>1645.8927</ele><time>2026-08-16T03:03:34.000Z</time></trkpt>
        <trkpt lat="28.158568" lon="105.757414"><ele>1647.076</ele><time>2026-08-16T03:04:35.000Z</time></trkpt>
        <trkpt lat="28.158566" lon="105.757415"><ele>1647.4292</ele><time>2026-08-16T03:04:37.000Z</time></trkpt>
        <trkpt lat="28.1586" lon="105.757404"><ele>1647.84</ele><time>2026-08-16T03:08:26.000Z</time></trkpt>
        <trkpt lat="28.158591" lon="105.757328"><ele>1641.5006</ele><time>2026-08-16T03:08:42.000Z</time></trkpt>
        <trkpt lat="28.158588" lon="105.757355"><ele>1642.8411</ele><time>2026-08-16T03:08:57.000Z</time></trkpt>
        <trkpt lat="28.158584" lon="105.757349"><ele>1647.512</ele><time>2026-08-16T03:09:12.000Z</time></trkpt>
        <trkpt lat="28.158553" lon="105.75731"><ele>1655.2178</ele><time>2026-08-16T03:12:48.000Z</time></trkpt>
        <trkpt lat="28.158553" lon="105.75731"><ele>1654.9161</ele><time>2026-08-16T03:12:50.000Z</time></trkpt>
        <trkpt lat="28.158553" lon="105.75731"><ele>1655.2307</ele><time>2026-08-16T03:12:52.000Z</time></trkpt>
        <trkpt lat="28.158545" lon="105.757278"><ele>1656.0488</ele><time>2026-08-16T03:12:58.000Z</time></trkpt>
        <trkpt lat="28.158538" lon="105.757264"><ele>1656.657</ele><time>2026-08-16T03:13:00.000Z</time></trkpt>
        <trkpt lat="28.158528" lon="105.757252"><ele>1657.6411</ele><time>2026-08-16T03:13:02.000Z</time></trkpt>
        <trkpt lat="28.158519" lon="105.757242"><ele>1658.2551</ele><time>2026-08-16T03:13:04.000Z</time></trkpt>
        <trkpt lat="28.158508" lon="105.757229"><ele>1658.4924</ele><time>2026-08-16T03:13:06.000Z</time></trkpt>
        <trkpt lat="28.158497" lon="105.757214"><ele>1658.7418</ele><time>2026-08-16T03:13:08.000Z</time></trkpt>
        <trkpt lat="28.158485" lon="105.757198"><ele>1658.3091</ele><time>2026-08-16T03:13:10.000Z</time></trkpt>
        <trkpt lat="28.158471" lon="105.757183"><ele>1657.4207</ele><time>2026-08-16T03:13:12.000Z</time></trkpt>
        <trkpt lat="28.158457" lon="105.757171"><ele>1657.6122</ele><time>2026-08-16T03:13:14.000Z</time></trkpt>
        <trkpt lat="28.158441" lon="105.757162"><ele>1657.23</ele><time>2026-08-16T03:13:16.000Z</time></trkpt>
        <trkpt lat="28.158425" lon="105.757155"><ele>1658.0468</ele><time>2026-08-16T03:13:18.000Z</time></trkpt>
        <trkpt lat="28.158409" lon="105.75715"><ele>1657.8555</ele><time>2026-08-16T03:13:20.000Z</time></trkpt>
        <trkpt lat="28.158394" lon="105.75715"><ele>1657.7394</ele><time>2026-08-16T03:13:22.000Z</time></trkpt>
        <trkpt lat="28.15838" lon="105.757151"><ele>1661.3522</ele><time>2026-08-16T03:13:24.000Z</time></trkpt>
        <trkpt lat="28.158366" lon="105.75715"><ele>1660.7275</ele><time>2026-08-16T03:13:26.000Z</time></trkpt>
        <trkpt lat="28.15835" lon="105.757146"><ele>1661.0537</ele><time>2026-08-16T03:13:28.000Z</time></trkpt>
        <trkpt lat="28.15833" lon="105.757139"><ele>1661.446</ele><time>2026-08-16T03:13:30.000Z</time></trkpt>
        <trkpt lat="28.158309" lon="105.757128"><ele>1661.3345</ele><time>2026-08-16T03:13:32.000Z</time></trkpt>
        <trkpt lat="28.158289" lon="105.757116"><ele>1661.6683</ele><time>2026-08-16T03:13:34.000Z</time></trkpt>
        <trkpt lat="28.158275" lon="105.757103"><ele>1661.7141</ele><time>2026-08-16T03:13:36.000Z</time></trkpt>
        <trkpt lat="28.158263" lon="105.757091"><ele>1660.9056</ele><time>2026-08-16T03:13:38.000Z</time></trkpt>
        <trkpt lat="28.158254" lon="105.757079"><ele>1660.771</ele><time>2026-08-16T03:13:40.000Z</time></trkpt>
        <trkpt lat="28.158246" lon="105.757064"><ele>1660.0795</ele><time>2026-08-16T03:13:42.000Z</time></trkpt>
        <trkpt lat="28.15824" lon="105.75704"><ele>1658.5559</ele><time>2026-08-16T03:13:44.000Z</time></trkpt>
        <trkpt lat="28.158221" lon="105.756967"><ele>1655.855</ele><time>2026-08-16T03:13:46.000Z</time></trkpt>
        <trkpt lat="28.15822" lon="105.756962"><ele>1654.8049</ele><time>2026-08-16T03:13:48.000Z</time></trkpt>
        <trkpt lat="28.158219" lon="105.756958"><ele>1654.1844</ele><time>2026-08-16T03:13:50.000Z</time></trkpt>
        <trkpt lat="28.15821" lon="105.756921"><ele>1653.9086</ele><time>2026-08-16T03:13:54.000Z</time></trkpt>
        <trkpt lat="28.158203" lon="105.756901"><ele>1653.7295</ele><time>2026-08-16T03:13:56.000Z</time></trkpt>
        <trkpt lat="28.158194" lon="105.756881"><ele>1653.2513</ele><time>2026-08-16T03:13:58.000Z</time></trkpt>
        <trkpt lat="28.158188" lon="105.756866"><ele>1653.3169</ele><time>2026-08-16T03:14:00.000Z</time></trkpt>
        <trkpt lat="28.158181" lon="105.756852"><ele>1653.5228</ele><time>2026-08-16T03:14:02.000Z</time></trkpt>
        <trkpt lat="28.158176" lon="105.75684"><ele>1653.0323</ele><time>2026-08-16T03:14:04.000Z</time></trkpt>
        <trkpt lat="28.158169" lon="105.756826"><ele>1653.623</ele><time>2026-08-16T03:14:06.000Z</time></trkpt>
        <trkpt lat="28.158161" lon="105.756819"><ele>1653.3776</ele><time>2026-08-16T03:14:08.000Z</time></trkpt>
        <trkpt lat="28.158157" lon="105.756813"><ele>1652.8713</ele><time>2026-08-16T03:14:10.000Z</time></trkpt>
        <trkpt lat="28.158146" lon="105.756799"><ele>1653.8464</ele><time>2026-08-16T03:14:14.000Z</time></trkpt>
        <trkpt lat="28.158139" lon="105.75679"><ele>1653.059</ele><time>2026-08-16T03:14:16.000Z</time></trkpt>
        <trkpt lat="28.158131" lon="105.756778"><ele>1652.8823</ele><time>2026-08-16T03:14:18.000Z</time></trkpt>
        <trkpt lat="28.15813" lon="105.756771"><ele>1653.0156</ele><time>2026-08-16T03:14:20.000Z</time></trkpt>
        <trkpt lat="28.158122" lon="105.756762"><ele>1654.0365</ele><time>2026-08-16T03:14:26.000Z</time></trkpt>
        <trkpt lat="28.158104" lon="105.756741"><ele>1653.9799</ele><time>2026-08-16T03:14:31.000Z</time></trkpt>
        <trkpt lat="28.158104" lon="105.756741"><ele>1654.3123</ele><time>2026-08-16T03:14:33.000Z</time></trkpt>
        <trkpt lat="28.158099" lon="105.756728"><ele>1653.1984</ele><time>2026-08-16T03:14:37.000Z</time></trkpt>
        <trkpt lat="28.158094" lon="105.756704"><ele>1652.5225</ele><time>2026-08-16T03:14:39.000Z</time></trkpt>
        <trkpt lat="28.15809" lon="105.756675"><ele>1652.2112</ele><time>2026-08-16T03:14:41.000Z</time></trkpt>
        <trkpt lat="28.158088" lon="105.756648"><ele>1652.3491</ele><time>2026-08-16T03:14:43.000Z</time></trkpt>
        <trkpt lat="28.158086" lon="105.756629"><ele>1652.0807</ele><time>2026-08-16T03:14:45.000Z</time></trkpt>
        <trkpt lat="28.158084" lon="105.756616"><ele>1652.1211</ele><time>2026-08-16T03:14:47.000Z</time></trkpt>
        <trkpt lat="28.158082" lon="105.756605"><ele>1652.279</ele><time>2026-08-16T03:14:49.000Z</time></trkpt>
        <trkpt lat="28.158081" lon="105.756595"><ele>1651.8395</ele><time>2026-08-16T03:14:51.000Z</time></trkpt>
        <trkpt lat="28.158078" lon="105.756576"><ele>1652.0414</ele><time>2026-08-16T03:14:54.000Z</time></trkpt>
        <trkpt lat="28.158076" lon="105.756575"><ele>1651.7795</ele><time>2026-08-16T03:14:56.000Z</time></trkpt>
        <trkpt lat="28.158054" lon="105.756565"><ele>1652.3083</ele><time>2026-08-16T03:14:58.000Z</time></trkpt>
        <trkpt lat="28.158046" lon="105.756559"><ele>1653.8916</ele><time>2026-08-16T03:15:04.000Z</time></trkpt>
        <trkpt lat="28.158038" lon="105.75655"><ele>1653.9121</ele><time>2026-08-16T03:15:06.000Z</time></trkpt>
        <trkpt lat="28.158029" lon="105.756534"><ele>1653.3981</ele><time>2026-08-16T03:15:08.000Z</time></trkpt>
        <trkpt lat="28.158021" lon="105.756518"><ele>1652.9762</ele><time>2026-08-16T03:15:10.000Z</time></trkpt>
        <trkpt lat="28.158013" lon="105.756502"><ele>1654.34</ele><time>2026-08-16T03:15:13.000Z</time></trkpt>
        <trkpt lat="28.158007" lon="105.756491"><ele>1655.2308</ele><time>2026-08-16T03:15:15.000Z</time></trkpt>
        <trkpt lat="28.158006" lon="105.756483"><ele>1655.4425</ele><time>2026-08-16T03:15:17.000Z</time></trkpt>
        <trkpt lat="28.158005" lon="105.756464"><ele>1656.9354</ele><time>2026-08-16T03:15:23.000Z</time></trkpt>
        <trkpt lat="28.158006" lon="105.756457"><ele>1658.29</ele><time>2026-08-16T03:15:25.000Z</time></trkpt>
        <trkpt lat="28.158007" lon="105.756449"><ele>1659.1526</ele><time>2026-08-16T03:15:27.000Z</time></trkpt>
        <trkpt lat="28.158007" lon="105.756424"><ele>1658.2601</ele><time>2026-08-16T03:15:31.000Z</time></trkpt>
        <trkpt lat="28.158005" lon="105.756408"><ele>1657.9073</ele><time>2026-08-16T03:15:33.000Z</time></trkpt>
        <trkpt lat="28.157999" lon="105.75639"><ele>1658.9955</ele><time>2026-08-16T03:15:35.000Z</time></trkpt>
        <trkpt lat="28.157992" lon="105.75637"><ele>1659.7433</ele><time>2026-08-16T03:15:37.000Z</time></trkpt>
        <trkpt lat="28.157983" lon="105.756357"><ele>1659.9469</ele><time>2026-08-16T03:15:39.000Z</time></trkpt>
        <trkpt lat="28.157975" lon="105.756346"><ele>1661.3561</ele><time>2026-08-16T03:15:41.000Z</time></trkpt>
        <trkpt lat="28.157966" lon="105.756333"><ele>1661.2205</ele><time>2026-08-16T03:15:43.000Z</time></trkpt>
        <trkpt lat="28.157963" lon="105.756326"><ele>1662.0846</ele><time>2026-08-16T03:15:45.000Z</time></trkpt>
        <trkpt lat="28.15795" lon="105.756298"><ele>1661.4307</ele><time>2026-08-16T03:15:49.000Z</time></trkpt>
        <trkpt lat="28.15795" lon="105.756298"><ele>1662.3207</ele><time>2026-08-16T03:15:51.000Z</time></trkpt>
        <trkpt lat="28.157949" lon="105.756289"><ele>1663.724</ele><time>2026-08-16T03:15:55.000Z</time></trkpt>
        <trkpt lat="28.157941" lon="105.756258"><ele>1665.1934</ele><time>2026-08-16T03:15:59.000Z</time></trkpt>
        <trkpt lat="28.157934" lon="105.756242"><ele>1664.7875</ele><time>2026-08-16T03:16:01.000Z</time></trkpt>
        <trkpt lat="28.157928" lon="105.756231"><ele>1665.5088</ele><time>2026-08-16T03:16:03.000Z</time></trkpt>
        <trkpt lat="28.157922" lon="105.75622"><ele>1665.6364</ele><time>2026-08-16T03:16:05.000Z</time></trkpt>
        <trkpt lat="28.157917" lon="105.75621"><ele>1665.613</ele><time>2026-08-16T03:16:07.000Z</time></trkpt>
        <trkpt lat="28.157913" lon="105.756202"><ele>1664.2487</ele><time>2026-08-16T03:16:09.000Z</time></trkpt>
        <trkpt lat="28.157907" lon="105.756183"><ele>1664.4067</ele><time>2026-08-16T03:16:13.000Z</time></trkpt>
        <trkpt lat="28.157906" lon="105.756175"><ele>1665.2809</ele><time>2026-08-16T03:16:15.000Z</time></trkpt>
        <trkpt lat="28.157906" lon="105.756162"><ele>1664.729</ele><time>2026-08-16T03:16:17.000Z</time></trkpt>
        <trkpt lat="28.157906" lon="105.756149"><ele>1665.0575</ele><time>2026-08-16T03:16:19.000Z</time></trkpt>
        <trkpt lat="28.157905" lon="105.756137"><ele>1665.1183</ele><time>2026-08-16T03:16:21.000Z</time></trkpt>
        <trkpt lat="28.157903" lon="105.756127"><ele>1665.3369</ele><time>2026-08-16T03:16:23.000Z</time></trkpt>
        <trkpt lat="28.157901" lon="105.756113"><ele>1666.2628</ele><time>2026-08-16T03:16:25.000Z</time></trkpt>
        <trkpt lat="28.157896" lon="105.7561"><ele>1666.8099</ele><time>2026-08-16T03:16:27.000Z</time></trkpt>
        <trkpt lat="28.157886" lon="105.756088"><ele>1666.8656</ele><time>2026-08-16T03:16:29.000Z</time></trkpt>
        <trkpt lat="28.157874" lon="105.756076"><ele>1667.7933</ele><time>2026-08-16T03:16:31.000Z</time></trkpt>
        <trkpt lat="28.157863" lon="105.756062"><ele>1668.9895</ele><time>2026-08-16T03:16:33.000Z</time></trkpt>
        <trkpt lat="28.157855" lon="105.756046"><ele>1669.0585</ele><time>2026-08-16T03:16:35.000Z</time></trkpt>
        <trkpt lat="28.157848" lon="105.75603"><ele>1670.0953</ele><time>2026-08-16T03:16:37.000Z</time></trkpt>
        <trkpt lat="28.157843" lon="105.756017"><ele>1670.2067</ele><time>2026-08-16T03:16:39.000Z</time></trkpt>
        <trkpt lat="28.157837" lon="105.756001"><ele>1670.1144</ele><time>2026-08-16T03:16:41.000Z</time></trkpt>
        <trkpt lat="28.157831" lon="105.755984"><ele>1670.2915</ele><time>2026-08-16T03:16:43.000Z</time></trkpt>
        <trkpt lat="28.157825" lon="105.755972"><ele>1669.8055</ele><time>2026-08-16T03:16:45.000Z</time></trkpt>
        <trkpt lat="28.157817" lon="105.755964"><ele>1669.3896</ele><time>2026-08-16T03:16:47.000Z</time></trkpt>
        <trkpt lat="28.157807" lon="105.755957"><ele>1668.3187</ele><time>2026-08-16T03:16:49.000Z</time></trkpt>
        <trkpt lat="28.157795" lon="105.755949"><ele>1668.3312</ele><time>2026-08-16T03:16:51.000Z</time></trkpt>
        <trkpt lat="28.157785" lon="105.755941"><ele>1667.6624</ele><time>2026-08-16T03:16:53.000Z</time></trkpt>
        <trkpt lat="28.157774" lon="105.755932"><ele>1666.8668</ele><time>2026-08-16T03:16:55.000Z</time></trkpt>
        <trkpt lat="28.157764" lon="105.755921"><ele>1666.7743</ele><time>2026-08-16T03:16:57.000Z</time></trkpt>
        <trkpt lat="28.157755" lon="105.755909"><ele>1667.1747</ele><time>2026-08-16T03:16:59.000Z</time></trkpt>
        <trkpt lat="28.157746" lon="105.755898"><ele>1666.2716</ele><time>2026-08-16T03:17:01.000Z</time></trkpt>
        <trkpt lat="28.157739" lon="105.755884"><ele>1665.7972</ele><time>2026-08-16T03:17:03.000Z</time></trkpt>
        <trkpt lat="28.157731" lon="105.755868"><ele>1664.9785</ele><time>2026-08-16T03:17:05.000Z</time></trkpt>
        <trkpt lat="28.157725" lon="105.755854"><ele>1665.5674</ele><time>2026-08-16T03:17:07.000Z</time></trkpt>
        <trkpt lat="28.15772" lon="105.755844"><ele>1666.3129</ele><time>2026-08-16T03:17:09.000Z</time></trkpt>
        <trkpt lat="28.157715" lon="105.755836"><ele>1666.5544</ele><time>2026-08-16T03:17:11.000Z</time></trkpt>
        <trkpt lat="28.157696" lon="105.755808"><ele>1667.2178</ele><time>2026-08-16T03:17:15.000Z</time></trkpt>
        <trkpt lat="28.15768" lon="105.755789"><ele>1666.8956</ele><time>2026-08-16T03:17:17.000Z</time></trkpt>
        <trkpt lat="28.157663" lon="105.755769"><ele>1667.8558</ele><time>2026-08-16T03:17:19.000Z</time></trkpt>
        <trkpt lat="28.157646" lon="105.755753"><ele>1668.4906</ele><time>2026-08-16T03:17:21.000Z</time></trkpt>
        <trkpt lat="28.157631" lon="105.755741"><ele>1666.8855</ele><time>2026-08-16T03:17:23.000Z</time></trkpt>
        <trkpt lat="28.157618" lon="105.755732"><ele>1666.9261</ele><time>2026-08-16T03:17:25.000Z</time></trkpt>
        <trkpt lat="28.157602" lon="105.755725"><ele>1667.4413</ele><time>2026-08-16T03:17:27.000Z</time></trkpt>
        <trkpt lat="28.157583" lon="105.755719"><ele>1668.3173</ele><time>2026-08-16T03:17:29.000Z</time></trkpt>
        <trkpt lat="28.157566" lon="105.755716"><ele>1668.2383</ele><time>2026-08-16T03:17:31.000Z</time></trkpt>
        <trkpt lat="28.15755" lon="105.755716"><ele>1667.8989</ele><time>2026-08-16T03:17:33.000Z</time></trkpt>
        <trkpt lat="28.157533" lon="105.755715"><ele>1667.2902</ele><time>2026-08-16T03:17:35.000Z</time></trkpt>
        <trkpt lat="28.157522" lon="105.755711"><ele>1667.0483</ele><time>2026-08-16T03:17:37.000Z</time></trkpt>
        <trkpt lat="28.157512" lon="105.755706"><ele>1666.3732</ele><time>2026-08-16T03:17:39.000Z</time></trkpt>
        <trkpt lat="28.157503" lon="105.7557"><ele>1666.3718</ele><time>2026-08-16T03:17:41.000Z</time></trkpt>
        <trkpt lat="28.157496" lon="105.755694"><ele>1666.522</ele><time>2026-08-16T03:17:43.000Z</time></trkpt>
        <trkpt lat="28.157479" lon="105.755678"><ele>1666.4893</ele><time>2026-08-16T03:17:47.000Z</time></trkpt>
        <trkpt lat="28.157466" lon="105.755667"><ele>1666.354</ele><time>2026-08-16T03:17:49.000Z</time></trkpt>
        <trkpt lat="28.157452" lon="105.75566"><ele>1666.5013</ele><time>2026-08-16T03:17:51.000Z</time></trkpt>
        <trkpt lat="28.157438" lon="105.755657"><ele>1667.7528</ele><time>2026-08-16T03:17:53.000Z</time></trkpt>
        <trkpt lat="28.157422" lon="105.755653"><ele>1668.3202</ele><time>2026-08-16T03:17:55.000Z</time></trkpt>
        <trkpt lat="28.157405" lon="105.755644"><ele>1669.475</ele><time>2026-08-16T03:17:57.000Z</time></trkpt>
        <trkpt lat="28.157389" lon="105.755632"><ele>1669.9385</ele><time>2026-08-16T03:17:59.000Z</time></trkpt>
        <trkpt lat="28.157373" lon="105.755617"><ele>1670.6854</ele><time>2026-08-16T03:18:01.000Z</time></trkpt>
        <trkpt lat="28.157357" lon="105.755604"><ele>1670.4294</ele><time>2026-08-16T03:18:03.000Z</time></trkpt>
        <trkpt lat="28.15734" lon="105.755593"><ele>1670.019</ele><time>2026-08-16T03:18:05.000Z</time></trkpt>
        <trkpt lat="28.157319" lon="105.755583"><ele>1668.6969</ele><time>2026-08-16T03:18:07.000Z</time></trkpt>
        <trkpt lat="28.157303" lon="105.755575"><ele>1668.2133</ele><time>2026-08-16T03:18:09.000Z</time></trkpt>
        <trkpt lat="28.157289" lon="105.755567"><ele>1668.0376</ele><time>2026-08-16T03:18:11.000Z</time></trkpt>
        <trkpt lat="28.157274" lon="105.755556"><ele>1667.9927</ele><time>2026-08-16T03:18:13.000Z</time></trkpt>
        <trkpt lat="28.157265" lon="105.755546"><ele>1669.4843</ele><time>2026-08-16T03:18:15.000Z</time></trkpt>
        <trkpt lat="28.157253" lon="105.755534"><ele>1670.9479</ele><time>2026-08-16T03:18:17.000Z</time></trkpt>
        <trkpt lat="28.157242" lon="105.755525"><ele>1670.6025</ele><time>2026-08-16T03:18:19.000Z</time></trkpt>
        <trkpt lat="28.157232" lon="105.755518"><ele>1670.8568</ele><time>2026-08-16T03:18:21.000Z</time></trkpt>
        <trkpt lat="28.157218" lon="105.755511"><ele>1671.4623</ele><time>2026-08-16T03:18:23.000Z</time></trkpt>
        <trkpt lat="28.157199" lon="105.755504"><ele>1671.1897</ele><time>2026-08-16T03:18:25.000Z</time></trkpt>
        <trkpt lat="28.15718" lon="105.755496"><ele>1671.1453</ele><time>2026-08-16T03:18:27.000Z</time></trkpt>
        <trkpt lat="28.157157" lon="105.755485"><ele>1671.0695</ele><time>2026-08-16T03:18:29.000Z</time></trkpt>
        <trkpt lat="28.157139" lon="105.755473"><ele>1669.6184</ele><time>2026-08-16T03:18:31.000Z</time></trkpt>
        <trkpt lat="28.157123" lon="105.75546"><ele>1668.4312</ele><time>2026-08-16T03:18:33.000Z</time></trkpt>
        <trkpt lat="28.157108" lon="105.755448"><ele>1667.3685</ele><time>2026-08-16T03:18:35.000Z</time></trkpt>
        <trkpt lat="28.157103" lon="105.755445"><ele>1666.1327</ele><time>2026-08-16T03:18:37.000Z</time></trkpt>
        <trkpt lat="28.157095" lon="105.755443"><ele>1664.8694</ele><time>2026-08-16T03:18:39.000Z</time></trkpt>
        <trkpt lat="28.157071" lon="105.755436"><ele>1664.0054</ele><time>2026-08-16T03:18:43.000Z</time></trkpt>
        <trkpt lat="28.15706" lon="105.755432"><ele>1664.119</ele><time>2026-08-16T03:18:45.000Z</time></trkpt>
        <trkpt lat="28.157042" lon="105.755427"><ele>1663.6527</ele><time>2026-08-16T03:18:47.000Z</time></trkpt>
        <trkpt lat="28.15702" lon="105.755424"><ele>1663.6891</ele><time>2026-08-16T03:18:49.000Z</time></trkpt>
        <trkpt lat="28.157001" lon="105.755422"><ele>1663.2257</ele><time>2026-08-16T03:18:51.000Z</time></trkpt>
        <trkpt lat="28.156986" lon="105.75542"><ele>1663.9395</ele><time>2026-08-16T03:18:53.000Z</time></trkpt>
        <trkpt lat="28.156968" lon="105.755416"><ele>1664.9723</ele><time>2026-08-16T03:18:55.000Z</time></trkpt>
        <trkpt lat="28.156946" lon="105.755411"><ele>1664.4473</ele><time>2026-08-16T03:18:57.000Z</time></trkpt>
        <trkpt lat="28.156925" lon="105.755404"><ele>1665.489</ele><time>2026-08-16T03:18:59.000Z</time></trkpt>
        <trkpt lat="28.15691" lon="105.755397"><ele>1665.6573</ele><time>2026-08-16T03:19:01.000Z</time></trkpt>
        <trkpt lat="28.156898" lon="105.755388"><ele>1665.4159</ele><time>2026-08-16T03:19:03.000Z</time></trkpt>
        <trkpt lat="28.156885" lon="105.755376"><ele>1664.9802</ele><time>2026-08-16T03:19:05.000Z</time></trkpt>
        <trkpt lat="28.15687" lon="105.755366"><ele>1665.3689</ele><time>2026-08-16T03:19:07.000Z</time></trkpt>
        <trkpt lat="28.156856" lon="105.755354"><ele>1664.6409</ele><time>2026-08-16T03:19:09.000Z</time></trkpt>
        <trkpt lat="28.156845" lon="105.755343"><ele>1664.5388</ele><time>2026-08-16T03:19:11.000Z</time></trkpt>
        <trkpt lat="28.156828" lon="105.755332"><ele>1665.2059</ele><time>2026-08-16T03:19:13.000Z</time></trkpt>
        <trkpt lat="28.156807" lon="105.755325"><ele>1664.8564</ele><time>2026-08-16T03:19:15.000Z</time></trkpt>
        <trkpt lat="28.156787" lon="105.755323"><ele>1665.2517</ele><time>2026-08-16T03:19:17.000Z</time></trkpt>
        <trkpt lat="28.156765" lon="105.755322"><ele>1665.3842</ele><time>2026-08-16T03:19:19.000Z</time></trkpt>
        <trkpt lat="28.156742" lon="105.755319"><ele>1665.3335</ele><time>2026-08-16T03:19:21.000Z</time></trkpt>
        <trkpt lat="28.156721" lon="105.755314"><ele>1665.3567</ele><time>2026-08-16T03:19:23.000Z</time></trkpt>
        <trkpt lat="28.156704" lon="105.75531"><ele>1664.768</ele><time>2026-08-16T03:19:25.000Z</time></trkpt>
        <trkpt lat="28.156693" lon="105.755305"><ele>1664.8448</ele><time>2026-08-16T03:19:27.000Z</time></trkpt>
        <trkpt lat="28.156693" lon="105.755305"><ele>1665.0656</ele><time>2026-08-16T03:19:29.000Z</time></trkpt>
        <trkpt lat="28.156663" lon="105.755385"><ele>1671.738</ele><time>2026-08-16T03:19:43.000Z</time></trkpt>
        <trkpt lat="28.156663" lon="105.755385"><ele>1671.8649</ele><time>2026-08-16T03:19:45.000Z</time></trkpt>
        <trkpt lat="28.156662" lon="105.755385"><ele>1671.6263</ele><time>2026-08-16T03:19:47.000Z</time></trkpt>
        <trkpt lat="28.156618" lon="105.755387"><ele>1672.9474</ele><time>2026-08-16T03:19:53.000Z</time></trkpt>
        <trkpt lat="28.156595" lon="105.755385"><ele>1672.2008</ele><time>2026-08-16T03:19:55.000Z</time></trkpt>
        <trkpt lat="28.156575" lon="105.755382"><ele>1672.7556</ele><time>2026-08-16T03:19:57.000Z</time></trkpt>
        <trkpt lat="28.15655" lon="105.75538"><ele>1673.2758</ele><time>2026-08-16T03:19:59.000Z</time></trkpt>
        <trkpt lat="28.156526" lon="105.755383"><ele>1672.5613</ele><time>2026-08-16T03:20:01.000Z</time></trkpt>
        <trkpt lat="28.156504" lon="105.755391"><ele>1673.2712</ele><time>2026-08-16T03:20:03.000Z</time></trkpt>
        <trkpt lat="28.156484" lon="105.7554"><ele>1674.0461</ele><time>2026-08-16T03:20:05.000Z</time></trkpt>
        <trkpt lat="28.156466" lon="105.755409"><ele>1674.5656</ele><time>2026-08-16T03:20:07.000Z</time></trkpt>
        <trkpt lat="28.156447" lon="105.755421"><ele>1675.2872</ele><time>2026-08-16T03:20:09.000Z</time></trkpt>
        <trkpt lat="28.15643" lon="105.755432"><ele>1675.5626</ele><time>2026-08-16T03:20:11.000Z</time></trkpt>
        <trkpt lat="28.156416" lon="105.755441"><ele>1675.8702</ele><time>2026-08-16T03:20:13.000Z</time></trkpt>
        <trkpt lat="28.156403" lon="105.75545"><ele>1675.8876</ele><time>2026-08-16T03:20:15.000Z</time></trkpt>
        <trkpt lat="28.156389" lon="105.75546"><ele>1675.2607</ele><time>2026-08-16T03:20:17.000Z</time></trkpt>
        <trkpt lat="28.156373" lon="105.755467"><ele>1674.9583</ele><time>2026-08-16T03:20:19.000Z</time></trkpt>
        <trkpt lat="28.156358" lon="105.755473"><ele>1675.6079</ele><time>2026-08-16T03:20:21.000Z</time></trkpt>
        <trkpt lat="28.156342" lon="105.755479"><ele>1676.568</ele><time>2026-08-16T03:20:23.000Z</time></trkpt>
        <trkpt lat="28.156332" lon="105.755481"><ele>1676.3612</ele><time>2026-08-16T03:20:25.000Z</time></trkpt>
        <trkpt lat="28.156327" lon="105.75548"><ele>1676.2018</ele><time>2026-08-16T03:20:27.000Z</time></trkpt>
        <trkpt lat="28.156307" lon="105.755475"><ele>1676.4261</ele><time>2026-08-16T03:20:31.000Z</time></trkpt>
        <trkpt lat="28.156299" lon="105.755473"><ele>1675.8704</ele><time>2026-08-16T03:20:33.000Z</time></trkpt>
        <trkpt lat="28.15629" lon="105.75547"><ele>1675.6946</ele><time>2026-08-16T03:20:35.000Z</time></trkpt>
        <trkpt lat="28.156278" lon="105.755467"><ele>1674.9655</ele><time>2026-08-16T03:20:37.000Z</time></trkpt>
        <trkpt lat="28.156271" lon="105.75547"><ele>1674.9713</ele><time>2026-08-16T03:20:39.000Z</time></trkpt>
        <trkpt lat="28.156256" lon="105.755478"><ele>1676.9464</ele><time>2026-08-16T03:20:45.000Z</time></trkpt>
        <trkpt lat="28.156237" lon="105.755489"><ele>1678.0653</ele><time>2026-08-16T03:20:47.000Z</time></trkpt>
        <trkpt lat="28.156236" lon="105.755489"><ele>1678.9696</ele><time>2026-08-16T03:20:49.000Z</time></trkpt>
        <trkpt lat="28.156224" lon="105.755491"><ele>1677.8558</ele><time>2026-08-16T03:20:55.000Z</time></trkpt>
        <trkpt lat="28.156186" lon="105.755499"><ele>1678.4474</ele><time>2026-08-16T03:20:59.000Z</time></trkpt>
        <trkpt lat="28.156186" lon="105.755499"><ele>1678.1359</ele><time>2026-08-16T03:21:01.000Z</time></trkpt>
        <trkpt lat="28.156184" lon="105.755499"><ele>1678.6646</ele><time>2026-08-16T03:21:03.000Z</time></trkpt>
        <trkpt lat="28.156144" lon="105.755485"><ele>1679.1284</ele><time>2026-08-16T03:21:09.000Z</time></trkpt>
        <trkpt lat="28.156133" lon="105.755479"><ele>1679.6576</ele><time>2026-08-16T03:21:11.000Z</time></trkpt>
        <trkpt lat="28.156123" lon="105.755474"><ele>1680.9503</ele><time>2026-08-16T03:21:13.000Z</time></trkpt>
        <trkpt lat="28.156113" lon="105.755469"><ele>1682.1559</ele><time>2026-08-16T03:21:15.000Z</time></trkpt>
        <trkpt lat="28.1561" lon="105.755464"><ele>1682.078</ele><time>2026-08-16T03:21:17.000Z</time></trkpt>
        <trkpt lat="28.156091" lon="105.75546"><ele>1682.307</ele><time>2026-08-16T03:21:19.000Z</time></trkpt>
        <trkpt lat="28.156088" lon="105.755455"><ele>1682.9664</ele><time>2026-08-16T03:21:21.000Z</time></trkpt>
        <trkpt lat="28.15608" lon="105.755438"><ele>1683.5217</ele><time>2026-08-16T03:21:29.000Z</time></trkpt>
        <trkpt lat="28.156074" lon="105.755422"><ele>1683.0812</ele><time>2026-08-16T03:21:31.000Z</time></trkpt>
        <trkpt lat="28.156073" lon="105.755422"><ele>1683.4142</ele><time>2026-08-16T03:21:33.000Z</time></trkpt>
        <trkpt lat="28.156047" lon="105.755404"><ele>1683.9935</ele><time>2026-08-16T03:21:35.000Z</time></trkpt>
        <trkpt lat="28.156045" lon="105.755402"><ele>1684.3287</ele><time>2026-08-16T03:21:37.000Z</time></trkpt>
        <trkpt lat="28.156043" lon="105.7554"><ele>1683.8407</ele><time>2026-08-16T03:21:39.000Z</time></trkpt>
        <trkpt lat="28.156015" lon="105.755378"><ele>1683.9</ele><time>2026-08-16T03:21:43.000Z</time></trkpt>
        <trkpt lat="28.155999" lon="105.755366"><ele>1683.9227</ele><time>2026-08-16T03:21:45.000Z</time></trkpt>
        <trkpt lat="28.155979" lon="105.755353"><ele>1683.5569</ele><time>2026-08-16T03:21:47.000Z</time></trkpt>
        <trkpt lat="28.155964" lon="105.755344"><ele>1683.1433</ele><time>2026-08-16T03:21:49.000Z</time></trkpt>
        <trkpt lat="28.155951" lon="105.755338"><ele>1683.0243</ele><time>2026-08-16T03:21:51.000Z</time></trkpt>
        <trkpt lat="28.155937" lon="105.755331"><ele>1683.3148</ele><time>2026-08-16T03:21:53.000Z</time></trkpt>
        <trkpt lat="28.155929" lon="105.755322"><ele>1683.8566</ele><time>2026-08-16T03:21:55.000Z</time></trkpt>
        <trkpt lat="28.155919" lon="105.75531"><ele>1683.4058</ele><time>2026-08-16T03:21:57.000Z</time></trkpt>
        <trkpt lat="28.155909" lon="105.755292"><ele>1683.7866</ele><time>2026-08-16T03:21:59.000Z</time></trkpt>
        <trkpt lat="28.155897" lon="105.755272"><ele>1683.9784</ele><time>2026-08-16T03:22:01.000Z</time></trkpt>
        <trkpt lat="28.155883" lon="105.755248"><ele>1684.7404</ele><time>2026-08-16T03:22:03.000Z</time></trkpt>
        <trkpt lat="28.155868" lon="105.755226"><ele>1685.2603</ele><time>2026-08-16T03:22:05.000Z</time></trkpt>
        <trkpt lat="28.155857" lon="105.755212"><ele>1686.9393</ele><time>2026-08-16T03:22:07.000Z</time></trkpt>
        <trkpt lat="28.155849" lon="105.755202"><ele>1687.1992</ele><time>2026-08-16T03:22:09.000Z</time></trkpt>
        <trkpt lat="28.155845" lon="105.755192"><ele>1687.5262</ele><time>2026-08-16T03:22:11.000Z</time></trkpt>
        <trkpt lat="28.155838" lon="105.755186"><ele>1690.1309</ele><time>2026-08-16T03:22:15.000Z</time></trkpt>
        <trkpt lat="28.155814" lon="105.755164"><ele>1688.5597</ele><time>2026-08-16T03:22:19.000Z</time></trkpt>
        <trkpt lat="28.155814" lon="105.755164"><ele>1688.1787</ele><time>2026-08-16T03:22:21.000Z</time></trkpt>
        <trkpt lat="28.155813" lon="105.755164"><ele>1689.6252</ele><time>2026-08-16T03:22:23.000Z</time></trkpt>
        <trkpt lat="28.155772" lon="105.755137"><ele>1689.5458</ele><time>2026-08-16T03:22:29.000Z</time></trkpt>
        <trkpt lat="28.155759" lon="105.755127"><ele>1690.8663</ele><time>2026-08-16T03:22:31.000Z</time></trkpt>
        <trkpt lat="28.155748" lon="105.755124"><ele>1692.7849</ele><time>2026-08-16T03:22:33.000Z</time></trkpt>
        <trkpt lat="28.155741" lon="105.755118"><ele>1693.5569</ele><time>2026-08-16T03:22:35.000Z</time></trkpt>
        <trkpt lat="28.155735" lon="105.755108"><ele>1692.337</ele><time>2026-08-16T03:22:39.000Z</time></trkpt>
        <trkpt lat="28.155716" lon="105.755087"><ele>1693.5822</ele><time>2026-08-16T03:22:43.000Z</time></trkpt>
        <trkpt lat="28.155704" lon="105.755073"><ele>1693.8252</ele><time>2026-08-16T03:22:45.000Z</time></trkpt>
        <trkpt lat="28.155693" lon="105.755062"><ele>1695.1991</ele><time>2026-08-16T03:22:47.000Z</time></trkpt>
        <trkpt lat="28.155678" lon="105.755046"><ele>1695.8849</ele><time>2026-08-16T03:22:49.000Z</time></trkpt>
        <trkpt lat="28.155663" lon="105.755033"><ele>1696.3773</ele><time>2026-08-16T03:22:51.000Z</time></trkpt>
        <trkpt lat="28.155648" lon="105.755024"><ele>1696.2118</ele><time>2026-08-16T03:22:53.000Z</time></trkpt>
        <trkpt lat="28.155635" lon="105.755017"><ele>1695.7953</ele><time>2026-08-16T03:22:55.000Z</time></trkpt>
        <trkpt lat="28.155616" lon="105.755009"><ele>1697.0044</ele><time>2026-08-16T03:22:57.000Z</time></trkpt>
        <trkpt lat="28.155597" lon="105.755003"><ele>1697.1213</ele><time>2026-08-16T03:22:59.000Z</time></trkpt>
        <trkpt lat="28.155588" lon="105.755004"><ele>1697.7423</ele><time>2026-08-16T03:23:01.000Z</time></trkpt>
        <trkpt lat="28.155582" lon="105.755005"><ele>1698.1267</ele><time>2026-08-16T03:23:03.000Z</time></trkpt>
        <trkpt lat="28.155569" lon="105.754997"><ele>1698.943</ele><time>2026-08-16T03:23:11.000Z</time></trkpt>
        <trkpt lat="28.155543" lon="105.754981"><ele>1699.0648</ele><time>2026-08-16T03:23:13.000Z</time></trkpt>
        <trkpt lat="28.155543" lon="105.754979"><ele>1699.2694</ele><time>2026-08-16T03:23:15.000Z</time></trkpt>
        <trkpt lat="28.155545" lon="105.754925"><ele>1698.2217</ele><time>2026-08-16T03:23:18.000Z</time></trkpt>
        <trkpt lat="28.155545" lon="105.754922"><ele>1698.6622</ele><time>2026-08-16T03:23:20.000Z</time></trkpt>
        <trkpt lat="28.155545" lon="105.75492"><ele>1698.8484</ele><time>2026-08-16T03:23:22.000Z</time></trkpt>
        <trkpt lat="28.155536" lon="105.754885"><ele>1694.5437</ele><time>2026-08-16T03:23:30.000Z</time></trkpt>
        <trkpt lat="28.155529" lon="105.754861"><ele>1695.1028</ele><time>2026-08-16T03:23:32.000Z</time></trkpt>
        <trkpt lat="28.155528" lon="105.75486"><ele>1693.2246</ele><time>2026-08-16T03:23:34.000Z</time></trkpt>
        <trkpt lat="28.15552" lon="105.754856"><ele>1693.0859</ele><time>2026-08-16T03:23:38.000Z</time></trkpt>
        <trkpt lat="28.155484" lon="105.754838"><ele>1691.8203</ele><time>2026-08-16T03:23:42.000Z</time></trkpt>
        <trkpt lat="28.155468" lon="105.75483"><ele>1692.086</ele><time>2026-08-16T03:23:44.000Z</time></trkpt>
        <trkpt lat="28.155452" lon="105.754822"><ele>1693.7167</ele><time>2026-08-16T03:23:46.000Z</time></trkpt>
        <trkpt lat="28.155432" lon="105.754812"><ele>1693.9836</ele><time>2026-08-16T03:23:48.000Z</time></trkpt>
        <trkpt lat="28.155414" lon="105.754804"><ele>1694.0142</ele><time>2026-08-16T03:23:50.000Z</time></trkpt>
        <trkpt lat="28.1554" lon="105.754798"><ele>1694.2744</ele><time>2026-08-16T03:23:52.000Z</time></trkpt>
        <trkpt lat="28.155398" lon="105.754801"><ele>1694.2744</ele><time>2026-08-16T03:23:54.000Z</time></trkpt>
        <trkpt lat="28.155383" lon="105.754803"><ele>1691.8654</ele><time>2026-08-16T03:24:00.000Z</time></trkpt>
        <trkpt lat="28.155369" lon="105.754804"><ele>1689.0984</ele><time>2026-08-16T03:24:06.000Z</time></trkpt>
        <trkpt lat="28.155368" lon="105.754776"><ele>1691.6223</ele><time>2026-08-16T03:24:20.000Z</time></trkpt>
        <trkpt lat="28.155362" lon="105.754773"><ele>1692.2285</ele><time>2026-08-16T03:24:24.000Z</time></trkpt>
        <trkpt lat="28.155339" lon="105.754762"><ele>1693.6165</ele><time>2026-08-16T03:24:26.000Z</time></trkpt>
        <trkpt lat="28.155337" lon="105.754762"><ele>1693.9011</ele><time>2026-08-16T03:24:28.000Z</time></trkpt>
        <trkpt lat="28.155324" lon="105.75476"><ele>1695.5131</ele><time>2026-08-16T03:24:32.000Z</time></trkpt>
        <trkpt lat="28.155303" lon="105.754758"><ele>1696.3167</ele><time>2026-08-16T03:24:34.000Z</time></trkpt>
        <trkpt lat="28.155274" lon="105.754754"><ele>1696.1859</ele><time>2026-08-16T03:24:36.000Z</time></trkpt>
        <trkpt lat="28.155253" lon="105.754751"><ele>1695.6528</ele><time>2026-08-16T03:24:38.000Z</time></trkpt>
        <trkpt lat="28.155235" lon="105.754748"><ele>1695.329</ele><time>2026-08-16T03:24:40.000Z</time></trkpt>
        <trkpt lat="28.155218" lon="105.754748"><ele>1694.4565</ele><time>2026-08-16T03:24:42.000Z</time></trkpt>
        <trkpt lat="28.1552" lon="105.754749"><ele>1693.881</ele><time>2026-08-16T03:24:44.000Z</time></trkpt>
        <trkpt lat="28.155179" lon="105.75475"><ele>1692.7007</ele><time>2026-08-16T03:24:46.000Z</time></trkpt>
        <trkpt lat="28.155158" lon="105.754749"><ele>1692.1788</ele><time>2026-08-16T03:24:48.000Z</time></trkpt>
        <trkpt lat="28.155137" lon="105.754747"><ele>1691.9452</ele><time>2026-08-16T03:24:50.000Z</time></trkpt>
        <trkpt lat="28.155114" lon="105.754742"><ele>1692.7446</ele><time>2026-08-16T03:24:52.000Z</time></trkpt>
        <trkpt lat="28.155094" lon="105.754735"><ele>1692.2261</ele><time>2026-08-16T03:24:54.000Z</time></trkpt>
        <trkpt lat="28.155071" lon="105.754724"><ele>1692.4431</ele><time>2026-08-16T03:24:56.000Z</time></trkpt>
        <trkpt lat="28.155049" lon="105.754713"><ele>1692.0559</ele><time>2026-08-16T03:24:58.000Z</time></trkpt>
        <trkpt lat="28.155028" lon="105.754702"><ele>1691.8269</ele><time>2026-08-16T03:25:00.000Z</time></trkpt>
        <trkpt lat="28.155004" lon="105.75469"><ele>1691.1494</ele><time>2026-08-16T03:25:02.000Z</time></trkpt>
        <trkpt lat="28.154986" lon="105.754679"><ele>1690.4835</ele><time>2026-08-16T03:25:04.000Z</time></trkpt>
        <trkpt lat="28.15497" lon="105.754669"><ele>1690.1351</ele><time>2026-08-16T03:25:06.000Z</time></trkpt>
        <trkpt lat="28.154958" lon="105.754659"><ele>1689.1953</ele><time>2026-08-16T03:25:08.000Z</time></trkpt>
        <trkpt lat="28.154945" lon="105.754648"><ele>1690.0134</ele><time>2026-08-16T03:25:10.000Z</time></trkpt>
        <trkpt lat="28.154933" lon="105.754634"><ele>1690.0171</ele><time>2026-08-16T03:25:12.000Z</time></trkpt>
        <trkpt lat="28.154927" lon="105.754623"><ele>1689.519</ele><time>2026-08-16T03:25:14.000Z</time></trkpt>
        <trkpt lat="28.154919" lon="105.754611"><ele>1687.5109</ele><time>2026-08-16T03:25:16.000Z</time></trkpt>
        <trkpt lat="28.154911" lon="105.754599"><ele>1688.0206</ele><time>2026-08-16T03:25:18.000Z</time></trkpt>
        <trkpt lat="28.154896" lon="105.754583"><ele>1688.3921</ele><time>2026-08-16T03:25:20.000Z</time></trkpt>
        <trkpt lat="28.154885" lon="105.75457"><ele>1688.9686</ele><time>2026-08-16T03:25:22.000Z</time></trkpt>
        <trkpt lat="28.154874" lon="105.754561"><ele>1689.1395</ele><time>2026-08-16T03:25:24.000Z</time></trkpt>
        <trkpt lat="28.154862" lon="105.75455"><ele>1689.565</ele><time>2026-08-16T03:25:26.000Z</time></trkpt>
        <trkpt lat="28.154853" lon="105.75454"><ele>1689.4194</ele><time>2026-08-16T03:25:28.000Z</time></trkpt>
        <trkpt lat="28.154844" lon="105.754529"><ele>1688.7594</ele><time>2026-08-16T03:25:30.000Z</time></trkpt>
        <trkpt lat="28.154838" lon="105.754518"><ele>1688.6747</ele><time>2026-08-16T03:25:32.000Z</time></trkpt>
        <trkpt lat="28.154831" lon="105.754503"><ele>1688.4515</ele><time>2026-08-16T03:25:34.000Z</time></trkpt>
        <trkpt lat="28.154824" lon="105.754487"><ele>1688.7428</ele><time>2026-08-16T03:25:36.000Z</time></trkpt>
        <trkpt lat="28.154815" lon="105.754468"><ele>1689.0714</ele><time>2026-08-16T03:25:38.000Z</time></trkpt>
        <trkpt lat="28.154805" lon="105.75445"><ele>1689.5842</ele><time>2026-08-16T03:25:40.000Z</time></trkpt>
        <trkpt lat="28.154796" lon="105.754436"><ele>1689.8722</ele><time>2026-08-16T03:25:42.000Z</time></trkpt>
        <trkpt lat="28.154786" lon="105.754423"><ele>1689.4161</ele><time>2026-08-16T03:25:44.000Z</time></trkpt>
        <trkpt lat="28.154774" lon="105.754409"><ele>1689.4133</ele><time>2026-08-16T03:25:46.000Z</time></trkpt>
        <trkpt lat="28.154761" lon="105.754395"><ele>1688.6941</ele><time>2026-08-16T03:25:48.000Z</time></trkpt>
        <trkpt lat="28.154746" lon="105.754379"><ele>1688.695</ele><time>2026-08-16T03:25:50.000Z</time></trkpt>
        <trkpt lat="28.154736" lon="105.754367"><ele>1687.9615</ele><time>2026-08-16T03:25:52.000Z</time></trkpt>
        <trkpt lat="28.154729" lon="105.754357"><ele>1687.6908</ele><time>2026-08-16T03:25:54.000Z</time></trkpt>
        <trkpt lat="28.154724" lon="105.754347"><ele>1687.649</ele><time>2026-08-16T03:25:56.000Z</time></trkpt>
        <trkpt lat="28.154719" lon="105.754339"><ele>1687.372</ele><time>2026-08-16T03:25:58.000Z</time></trkpt>
        <trkpt lat="28.154707" lon="105.754323"><ele>1688.1594</ele><time>2026-08-16T03:26:02.000Z</time></trkpt>
        <trkpt lat="28.154702" lon="105.754318"><ele>1688.3899</ele><time>2026-08-16T03:26:04.000Z</time></trkpt>
        <trkpt lat="28.154698" lon="105.754316"><ele>1688.6663</ele><time>2026-08-16T03:26:06.000Z</time></trkpt>
        <trkpt lat="28.154671" lon="105.754303"><ele>1689.1259</ele><time>2026-08-16T03:26:10.000Z</time></trkpt>
        <trkpt lat="28.154671" lon="105.754303"><ele>1690.0176</ele><time>2026-08-16T03:26:12.000Z</time></trkpt>
        <trkpt lat="28.154668" lon="105.754301"><ele>1689.7642</ele><time>2026-08-16T03:26:14.000Z</time></trkpt>
        <trkpt lat="28.154632" lon="105.75427"><ele>1688.1699</ele><time>2026-08-16T03:26:18.000Z</time></trkpt>
        <trkpt lat="28.154607" lon="105.75425"><ele>1688.1046</ele><time>2026-08-16T03:26:20.000Z</time></trkpt>
        <trkpt lat="28.154583" lon="105.754232"><ele>1687.9503</ele><time>2026-08-16T03:26:22.000Z</time></trkpt>
        <trkpt lat="28.154558" lon="105.754215"><ele>1688.1411</ele><time>2026-08-16T03:26:24.000Z</time></trkpt>
        <trkpt lat="28.154535" lon="105.754202"><ele>1687.8813</ele><time>2026-08-16T03:26:26.000Z</time></trkpt>
        <trkpt lat="28.154516" lon="105.754195"><ele>1687.8992</ele><time>2026-08-16T03:26:28.000Z</time></trkpt>
        <trkpt lat="28.154501" lon="105.754192"><ele>1687.7142</ele><time>2026-08-16T03:26:30.000Z</time></trkpt>
        <trkpt lat="28.154484" lon="105.75419"><ele>1688.0438</ele><time>2026-08-16T03:26:32.000Z</time></trkpt>
        <trkpt lat="28.154464" lon="105.754184"><ele>1688.9783</ele><time>2026-08-16T03:26:34.000Z</time></trkpt>
        <trkpt lat="28.154448" lon="105.754175"><ele>1691.4723</ele><time>2026-08-16T03:26:36.000Z</time></trkpt>
        <trkpt lat="28.154438" lon="105.754163"><ele>1692.3469</ele><time>2026-08-16T03:26:38.000Z</time></trkpt>
        <trkpt lat="28.154431" lon="105.754152"><ele>1692.655</ele><time>2026-08-16T03:26:40.000Z</time></trkpt>
        <trkpt lat="28.154426" lon="105.754142"><ele>1692.4033</ele><time>2026-08-16T03:26:42.000Z</time></trkpt>
        <trkpt lat="28.15442" lon="105.754128"><ele>1691.8887</ele><time>2026-08-16T03:26:46.000Z</time></trkpt>
        <trkpt lat="28.154419" lon="105.754118"><ele>1692.372</ele><time>2026-08-16T03:26:50.000Z</time></trkpt>
        <trkpt lat="28.15442" lon="105.754104"><ele>1694.9929</ele><time>2026-08-16T03:26:56.000Z</time></trkpt>
        <trkpt lat="28.154421" lon="105.754089"><ele>1696.8643</ele><time>2026-08-16T03:27:00.000Z</time></trkpt>
        <trkpt lat="28.154421" lon="105.754089"><ele>1697.4236</ele><time>2026-08-16T03:27:02.000Z</time></trkpt>
        <trkpt lat="28.154373" lon="105.754086"><ele>1696.7491</ele><time>2026-08-16T03:27:28.000Z</time></trkpt>
        <trkpt lat="28.154373" lon="105.754086"><ele>1697.6873</ele><time>2026-08-16T03:27:30.000Z</time></trkpt>
        <trkpt lat="28.154347" lon="105.754073"><ele>1698.1171</ele><time>2026-08-16T03:27:32.000Z</time></trkpt>
        <trkpt lat="28.154345" lon="105.754072"><ele>1698.628</ele><time>2026-08-16T03:27:34.000Z</time></trkpt>
        <trkpt lat="28.154343" lon="105.754072"><ele>1699.4642</ele><time>2026-08-16T03:27:36.000Z</time></trkpt>
        <trkpt lat="28.154313" lon="105.754067"><ele>1699.8973</ele><time>2026-08-16T03:27:40.000Z</time></trkpt>
        <trkpt lat="28.154286" lon="105.754063"><ele>1699.8458</ele><time>2026-08-16T03:27:42.000Z</time></trkpt>
        <trkpt lat="28.15426" lon="105.754056"><ele>1701.0145</ele><time>2026-08-16T03:27:44.000Z</time></trkpt>
        <trkpt lat="28.154235" lon="105.754047"><ele>1701.7303</ele><time>2026-08-16T03:27:46.000Z</time></trkpt>
        <trkpt lat="28.154214" lon="105.754036"><ele>1702.2953</ele><time>2026-08-16T03:27:48.000Z</time></trkpt>
        <trkpt lat="28.154196" lon="105.754026"><ele>1702.639</ele><time>2026-08-16T03:27:50.000Z</time></trkpt>
        <trkpt lat="28.154177" lon="105.754013"><ele>1701.9918</ele><time>2026-08-16T03:27:52.000Z</time></trkpt>
        <trkpt lat="28.15416" lon="105.754001"><ele>1702.2969</ele><time>2026-08-16T03:27:54.000Z</time></trkpt>
        <trkpt lat="28.154139" lon="105.753988"><ele>1702.6552</ele><time>2026-08-16T03:27:56.000Z</time></trkpt>
        <trkpt lat="28.154116" lon="105.753973"><ele>1702.9247</ele><time>2026-08-16T03:27:58.000Z</time></trkpt>
        <trkpt lat="28.154093" lon="105.753957"><ele>1702.5647</ele><time>2026-08-16T03:28:00.000Z</time></trkpt>
        <trkpt lat="28.15407" lon="105.753944"><ele>1702.5018</ele><time>2026-08-16T03:28:02.000Z</time></trkpt>
        <trkpt lat="28.154051" lon="105.75393"><ele>1703.1719</ele><time>2026-08-16T03:28:04.000Z</time></trkpt>
        <trkpt lat="28.154033" lon="105.753918"><ele>1701.525</ele><time>2026-08-16T03:28:06.000Z</time></trkpt>
        <trkpt lat="28.154017" lon="105.753909"><ele>1701.7036</ele><time>2026-08-16T03:28:08.000Z</time></trkpt>
        <trkpt lat="28.154" lon="105.753902"><ele>1702.2014</ele><time>2026-08-16T03:28:10.000Z</time></trkpt>
        <trkpt lat="28.153985" lon="105.7539"><ele>1702.442</ele><time>2026-08-16T03:28:12.000Z</time></trkpt>
        <trkpt lat="28.153972" lon="105.7539"><ele>1702.4233</ele><time>2026-08-16T03:28:14.000Z</time></trkpt>
        <trkpt lat="28.153962" lon="105.7539"><ele>1702.1345</ele><time>2026-08-16T03:28:16.000Z</time></trkpt>
        <trkpt lat="28.15395" lon="105.7539"><ele>1701.3866</ele><time>2026-08-16T03:28:18.000Z</time></trkpt>
        <trkpt lat="28.153939" lon="105.753901"><ele>1702.2787</ele><time>2026-08-16T03:28:20.000Z</time></trkpt>
        <trkpt lat="28.153925" lon="105.753901"><ele>1700.998</ele><time>2026-08-16T03:28:22.000Z</time></trkpt>
        <trkpt lat="28.15391" lon="105.753899"><ele>1699.8654</ele><time>2026-08-16T03:28:24.000Z</time></trkpt>
        <trkpt lat="28.153896" lon="105.753895"><ele>1699.827</ele><time>2026-08-16T03:28:26.000Z</time></trkpt>
        <trkpt lat="28.153881" lon="105.753891"><ele>1700.2087</ele><time>2026-08-16T03:28:28.000Z</time></trkpt>
        <trkpt lat="28.153867" lon="105.753887"><ele>1699.9077</ele><time>2026-08-16T03:28:30.000Z</time></trkpt>
        <trkpt lat="28.15385" lon="105.753884"><ele>1699.7672</ele><time>2026-08-16T03:28:32.000Z</time></trkpt>
        <trkpt lat="28.153831" lon="105.753879"><ele>1699.6488</ele><time>2026-08-16T03:28:34.000Z</time></trkpt>
        <trkpt lat="28.153815" lon="105.753873"><ele>1699.8882</ele><time>2026-08-16T03:28:36.000Z</time></trkpt>
        <trkpt lat="28.153801" lon="105.753866"><ele>1699.9698</ele><time>2026-08-16T03:28:38.000Z</time></trkpt>
        <trkpt lat="28.153787" lon="105.753863"><ele>1700.0681</ele><time>2026-08-16T03:28:40.000Z</time></trkpt>
        <trkpt lat="28.153771" lon="105.753861"><ele>1699.7891</ele><time>2026-08-16T03:28:42.000Z</time></trkpt>
        <trkpt lat="28.153754" lon="105.753858"><ele>1700.1196</ele><time>2026-08-16T03:28:44.000Z</time></trkpt>
        <trkpt lat="28.153737" lon="105.753856"><ele>1699.5791</ele><time>2026-08-16T03:28:46.000Z</time></trkpt>
        <trkpt lat="28.153718" lon="105.753851"><ele>1699.7924</ele><time>2026-08-16T03:28:48.000Z</time></trkpt>
        <trkpt lat="28.153699" lon="105.753844"><ele>1699.9863</ele><time>2026-08-16T03:28:50.000Z</time></trkpt>
        <trkpt lat="28.153687" lon="105.753836"><ele>1699.3289</ele><time>2026-08-16T03:28:52.000Z</time></trkpt>
        <trkpt lat="28.15367" lon="105.753826"><ele>1698.9989</ele><time>2026-08-16T03:28:54.000Z</time></trkpt>
        <trkpt lat="28.15365" lon="105.753817"><ele>1699.4069</ele><time>2026-08-16T03:28:56.000Z</time></trkpt>
        <trkpt lat="28.153632" lon="105.753814"><ele>1700.1056</ele><time>2026-08-16T03:28:58.000Z</time></trkpt>
        <trkpt lat="28.153619" lon="105.753814"><ele>1700.458</ele><time>2026-08-16T03:29:00.000Z</time></trkpt>
        <trkpt lat="28.153605" lon="105.753815"><ele>1701.0364</ele><time>2026-08-16T03:29:02.000Z</time></trkpt>
        <trkpt lat="28.153593" lon="105.753815"><ele>1700.9364</ele><time>2026-08-16T03:29:04.000Z</time></trkpt>
        <trkpt lat="28.153582" lon="105.753813"><ele>1700.6195</ele><time>2026-08-16T03:29:06.000Z</time></trkpt>
        <trkpt lat="28.153568" lon="105.75381"><ele>1701.201</ele><time>2026-08-16T03:29:08.000Z</time></trkpt>
        <trkpt lat="28.153543" lon="105.753803"><ele>1702.1692</ele><time>2026-08-16T03:29:10.000Z</time></trkpt>
        <trkpt lat="28.153519" lon="105.753796"><ele>1702.3132</ele><time>2026-08-16T03:29:12.000Z</time></trkpt>
        <trkpt lat="28.153496" lon="105.753791"><ele>1702.8182</ele><time>2026-08-16T03:29:14.000Z</time></trkpt>
        <trkpt lat="28.153473" lon="105.753785"><ele>1703.0052</ele><time>2026-08-16T03:29:16.000Z</time></trkpt>
        <trkpt lat="28.153448" lon="105.753779"><ele>1703.0416</ele><time>2026-08-16T03:29:18.000Z</time></trkpt>
        <trkpt lat="28.153427" lon="105.753772"><ele>1703.2448</ele><time>2026-08-16T03:29:20.000Z</time></trkpt>
        <trkpt lat="28.153404" lon="105.753764"><ele>1702.5017</ele><time>2026-08-16T03:29:22.000Z</time></trkpt>
        <trkpt lat="28.153384" lon="105.753754"><ele>1703.0209</ele><time>2026-08-16T03:29:24.000Z</time></trkpt>
        <trkpt lat="28.153364" lon="105.753741"><ele>1703.7137</ele><time>2026-08-16T03:29:26.000Z</time></trkpt>
        <trkpt lat="28.15334" lon="105.753723"><ele>1703.9999</ele><time>2026-08-16T03:29:28.000Z</time></trkpt>
        <trkpt lat="28.153313" lon="105.753704"><ele>1703.7015</ele><time>2026-08-16T03:29:30.000Z</time></trkpt>
        <trkpt lat="28.153288" lon="105.753687"><ele>1703.501</ele><time>2026-08-16T03:29:32.000Z</time></trkpt>
        <trkpt lat="28.153269" lon="105.753676"><ele>1703.3607</ele><time>2026-08-16T03:29:34.000Z</time></trkpt>
        <trkpt lat="28.153247" lon="105.753665"><ele>1703.3303</ele><time>2026-08-16T03:29:36.000Z</time></trkpt>
        <trkpt lat="28.153223" lon="105.753655"><ele>1703.9902</ele><time>2026-08-16T03:29:38.000Z</time></trkpt>
        <trkpt lat="28.153199" lon="105.753646"><ele>1703.6244</ele><time>2026-08-16T03:29:40.000Z</time></trkpt>
        <trkpt lat="28.153179" lon="105.75364"><ele>1704.0973</ele><time>2026-08-16T03:29:42.000Z</time></trkpt>
        <trkpt lat="28.153161" lon="105.753635"><ele>1704.3885</ele><time>2026-08-16T03:29:44.000Z</time></trkpt>
        <trkpt lat="28.153147" lon="105.753632"><ele>1704.4843</ele><time>2026-08-16T03:29:46.000Z</time></trkpt>
        <trkpt lat="28.153134" lon="105.753628"><ele>1704.2865</ele><time>2026-08-16T03:29:48.000Z</time></trkpt>
        <trkpt lat="28.153117" lon="105.753623"><ele>1705.4224</ele><time>2026-08-16T03:29:50.000Z</time></trkpt>
        <trkpt lat="28.153096" lon="105.753615"><ele>1705.9205</ele><time>2026-08-16T03:29:52.000Z</time></trkpt>
        <trkpt lat="28.153073" lon="105.753607"><ele>1706.1664</ele><time>2026-08-16T03:29:54.000Z</time></trkpt>
        <trkpt lat="28.153051" lon="105.753602"><ele>1707.2346</ele><time>2026-08-16T03:29:56.000Z</time></trkpt>
        <trkpt lat="28.15303" lon="105.753598"><ele>1707.6736</ele><time>2026-08-16T03:29:58.000Z</time></trkpt>
        <trkpt lat="28.153009" lon="105.753594"><ele>1708.5007</ele><time>2026-08-16T03:30:00.000Z</time></trkpt>
        <trkpt lat="28.15299" lon="105.75359"><ele>1708.4797</ele><time>2026-08-16T03:30:02.000Z</time></trkpt>
        <trkpt lat="28.152971" lon="105.753586"><ele>1708.8291</ele><time>2026-08-16T03:30:04.000Z</time></trkpt>
        <trkpt lat="28.152955" lon="105.753582"><ele>1708.6028</ele><time>2026-08-16T03:30:06.000Z</time></trkpt>
        <trkpt lat="28.152939" lon="105.753578"><ele>1707.0354</ele><time>2026-08-16T03:30:08.000Z</time></trkpt>
        <trkpt lat="28.152926" lon="105.753576"><ele>1706.9031</ele><time>2026-08-16T03:30:10.000Z</time></trkpt>
        <trkpt lat="28.152913" lon="105.753575"><ele>1707.933</ele><time>2026-08-16T03:30:12.000Z</time></trkpt>
        <trkpt lat="28.152897" lon="105.753576"><ele>1707.9094</ele><time>2026-08-16T03:30:14.000Z</time></trkpt>
        <trkpt lat="28.152883" lon="105.753578"><ele>1707.9153</ele><time>2026-08-16T03:30:16.000Z</time></trkpt>
        <trkpt lat="28.152874" lon="105.753579"><ele>1707.8344</ele><time>2026-08-16T03:30:18.000Z</time></trkpt>
        <trkpt lat="28.152861" lon="105.75358"><ele>1708.1884</ele><time>2026-08-16T03:30:20.000Z</time></trkpt>
        <trkpt lat="28.152847" lon="105.75358"><ele>1710.152</ele><time>2026-08-16T03:30:22.000Z</time></trkpt>
        <trkpt lat="28.152829" lon="105.753577"><ele>1712.3024</ele><time>2026-08-16T03:30:24.000Z</time></trkpt>
        <trkpt lat="28.152811" lon="105.753572"><ele>1713.2761</ele><time>2026-08-16T03:30:26.000Z</time></trkpt>
        <trkpt lat="28.15279" lon="105.753565"><ele>1714.4194</ele><time>2026-08-16T03:30:28.000Z</time></trkpt>
        <trkpt lat="28.152768" lon="105.753556"><ele>1715.1176</ele><time>2026-08-16T03:30:30.000Z</time></trkpt>
        <trkpt lat="28.152746" lon="105.753545"><ele>1714.3105</ele><time>2026-08-16T03:30:32.000Z</time></trkpt>
        <trkpt lat="28.152728" lon="105.753537"><ele>1714.418</ele><time>2026-08-16T03:30:34.000Z</time></trkpt>
        <trkpt lat="28.15271" lon="105.75353"><ele>1714.8485</ele><time>2026-08-16T03:30:36.000Z</time></trkpt>
        <trkpt lat="28.152695" lon="105.753526"><ele>1714.9214</ele><time>2026-08-16T03:30:38.000Z</time></trkpt>
        <trkpt lat="28.152679" lon="105.753523"><ele>1714.9487</ele><time>2026-08-16T03:30:40.000Z</time></trkpt>
        <trkpt lat="28.152661" lon="105.753521"><ele>1715.8959</ele><time>2026-08-16T03:30:42.000Z</time></trkpt>
        <trkpt lat="28.152646" lon="105.753517"><ele>1717.2126</ele><time>2026-08-16T03:30:44.000Z</time></trkpt>
        <trkpt lat="28.152628" lon="105.753513"><ele>1718.4838</ele><time>2026-08-16T03:30:46.000Z</time></trkpt>
        <trkpt lat="28.152609" lon="105.753507"><ele>1717.7167</ele><time>2026-08-16T03:30:48.000Z</time></trkpt>
        <trkpt lat="28.152589" lon="105.753502"><ele>1717.8552</ele><time>2026-08-16T03:30:50.000Z</time></trkpt>
        <trkpt lat="28.152568" lon="105.753496"><ele>1716.8738</ele><time>2026-08-16T03:30:52.000Z</time></trkpt>
        <trkpt lat="28.152554" lon="105.75349"><ele>1715.9445</ele><time>2026-08-16T03:30:54.000Z</time></trkpt>
        <trkpt lat="28.152539" lon="105.753485"><ele>1715.1133</ele><time>2026-08-16T03:30:56.000Z</time></trkpt>
        <trkpt lat="28.152523" lon="105.753483"><ele>1714.871</ele><time>2026-08-16T03:30:58.000Z</time></trkpt>
        <trkpt lat="28.152502" lon="105.753481"><ele>1714.8982</ele><time>2026-08-16T03:31:00.000Z</time></trkpt>
        <trkpt lat="28.152474" lon="105.753478"><ele>1713.7808</ele><time>2026-08-16T03:31:02.000Z</time></trkpt>
        <trkpt lat="28.152444" lon="105.753474"><ele>1712.5508</ele><time>2026-08-16T03:31:04.000Z</time></trkpt>
        <trkpt lat="28.152418" lon="105.753469"><ele>1713.1589</ele><time>2026-08-16T03:31:06.000Z</time></trkpt>
        <trkpt lat="28.152394" lon="105.753465"><ele>1712.3108</ele><time>2026-08-16T03:31:08.000Z</time></trkpt>
        <trkpt lat="28.152372" lon="105.753463"><ele>1712.5287</ele><time>2026-08-16T03:31:10.000Z</time></trkpt>
        <trkpt lat="28.152354" lon="105.75346"><ele>1711.758</ele><time>2026-08-16T03:31:12.000Z</time></trkpt>
        <trkpt lat="28.152336" lon="105.753454"><ele>1711.896</ele><time>2026-08-16T03:31:14.000Z</time></trkpt>
        <trkpt lat="28.152321" lon="105.753445"><ele>1712.7302</ele><time>2026-08-16T03:31:16.000Z</time></trkpt>
        <trkpt lat="28.15231" lon="105.753437"><ele>1714.8372</ele><time>2026-08-16T03:31:18.000Z</time></trkpt>
        <trkpt lat="28.152297" lon="105.753423"><ele>1714.9797</ele><time>2026-08-16T03:31:20.000Z</time></trkpt>
        <trkpt lat="28.152289" lon="105.753414"><ele>1716.0635</ele><time>2026-08-16T03:31:22.000Z</time></trkpt>
        <trkpt lat="28.152279" lon="105.753405"><ele>1716.8938</ele><time>2026-08-16T03:31:24.000Z</time></trkpt>
        <trkpt lat="28.152267" lon="105.753398"><ele>1716.7815</ele><time>2026-08-16T03:31:26.000Z</time></trkpt>
        <trkpt lat="28.152253" lon="105.753393"><ele>1717.657</ele><time>2026-08-16T03:31:28.000Z</time></trkpt>
        <trkpt lat="28.152237" lon="105.75339"><ele>1718.4049</ele><time>2026-08-16T03:31:30.000Z</time></trkpt>
        <trkpt lat="28.152218" lon="105.753388"><ele>1718.6317</ele><time>2026-08-16T03:31:32.000Z</time></trkpt>
        <trkpt lat="28.1522" lon="105.753386"><ele>1719.357</ele><time>2026-08-16T03:31:34.000Z</time></trkpt>
        <trkpt lat="28.152181" lon="105.753385"><ele>1719.4442</ele><time>2026-08-16T03:31:36.000Z</time></trkpt>
        <trkpt lat="28.152159" lon="105.753383"><ele>1719.4707</ele><time>2026-08-16T03:31:38.000Z</time></trkpt>
        <trkpt lat="28.152144" lon="105.753382"><ele>1720.1407</ele><time>2026-08-16T03:31:40.000Z</time></trkpt>
        <trkpt lat="28.152134" lon="105.753379"><ele>1721.3058</ele><time>2026-08-16T03:31:42.000Z</time></trkpt>
        <trkpt lat="28.152124" lon="105.753375"><ele>1720.7017</ele><time>2026-08-16T03:31:44.000Z</time></trkpt>
        <trkpt lat="28.152112" lon="105.753371"><ele>1720.0629</ele><time>2026-08-16T03:31:46.000Z</time></trkpt>
        <trkpt lat="28.1521" lon="105.753366"><ele>1720.6309</ele><time>2026-08-16T03:31:48.000Z</time></trkpt>
        <trkpt lat="28.152088" lon="105.753362"><ele>1721.0662</ele><time>2026-08-16T03:31:50.000Z</time></trkpt>
        <trkpt lat="28.152078" lon="105.753356"><ele>1720.9252</ele><time>2026-08-16T03:31:52.000Z</time></trkpt>
        <trkpt lat="28.152071" lon="105.753353"><ele>1719.9087</ele><time>2026-08-16T03:31:54.000Z</time></trkpt>
        <trkpt lat="28.152053" lon="105.753342"><ele>1720.7843</ele><time>2026-08-16T03:32:00.000Z</time></trkpt>
        <trkpt lat="28.152044" lon="105.753335"><ele>1721.6929</ele><time>2026-08-16T03:32:02.000Z</time></trkpt>
        <trkpt lat="28.152033" lon="105.753328"><ele>1722.923</ele><time>2026-08-16T03:32:04.000Z</time></trkpt>
        <trkpt lat="28.152021" lon="105.753321"><ele>1723.5304</ele><time>2026-08-16T03:32:06.000Z</time></trkpt>
        <trkpt lat="28.152006" lon="105.753316"><ele>1724.2998</ele><time>2026-08-16T03:32:08.000Z</time></trkpt>
        <trkpt lat="28.151985" lon="105.75331"><ele>1723.066</ele><time>2026-08-16T03:32:10.000Z</time></trkpt>
        <trkpt lat="28.151964" lon="105.753305"><ele>1723.0079</ele><time>2026-08-16T03:32:12.000Z</time></trkpt>
        <trkpt lat="28.151943" lon="105.7533"><ele>1722.6104</ele><time>2026-08-16T03:32:14.000Z</time></trkpt>
        <trkpt lat="28.151923" lon="105.753297"><ele>1721.4385</ele><time>2026-08-16T03:32:16.000Z</time></trkpt>
        <trkpt lat="28.151906" lon="105.753294"><ele>1722.03</ele><time>2026-08-16T03:32:18.000Z</time></trkpt>
        <trkpt lat="28.151886" lon="105.753292"><ele>1722.2395</ele><time>2026-08-16T03:32:20.000Z</time></trkpt>
        <trkpt lat="28.151868" lon="105.753289"><ele>1722.9</ele><time>2026-08-16T03:32:22.000Z</time></trkpt>
        <trkpt lat="28.151843" lon="105.753286"><ele>1723.7306</ele><time>2026-08-16T03:32:24.000Z</time></trkpt>
        <trkpt lat="28.151819" lon="105.753281"><ele>1723.7084</ele><time>2026-08-16T03:32:26.000Z</time></trkpt>
        <trkpt lat="28.151795" lon="105.753275"><ele>1725.0615</ele><time>2026-08-16T03:32:28.000Z</time></trkpt>
        <trkpt lat="28.151773" lon="105.753267"><ele>1726.2714</ele><time>2026-08-16T03:32:30.000Z</time></trkpt>
        <trkpt lat="28.151748" lon="105.753261"><ele>1725.3865</ele><time>2026-08-16T03:32:32.000Z</time></trkpt>
        <trkpt lat="28.151727" lon="105.753257"><ele>1726.3887</ele><time>2026-08-16T03:32:34.000Z</time></trkpt>
        <trkpt lat="28.151709" lon="105.753254"><ele>1726.4395</ele><time>2026-08-16T03:32:36.000Z</time></trkpt>
        <trkpt lat="28.151693" lon="105.753254"><ele>1725.5907</ele><time>2026-08-16T03:32:38.000Z</time></trkpt>
        <trkpt lat="28.151673" lon="105.753255"><ele>1726.0768</ele><time>2026-08-16T03:32:40.000Z</time></trkpt>
        <trkpt lat="28.151653" lon="105.753255"><ele>1726.6721</ele><time>2026-08-16T03:32:42.000Z</time></trkpt>
        <trkpt lat="28.151629" lon="105.753254"><ele>1726.1122</ele><time>2026-08-16T03:32:44.000Z</time></trkpt>
        <trkpt lat="28.151602" lon="105.753252"><ele>1724.4447</ele><time>2026-08-16T03:32:46.000Z</time></trkpt>
        <trkpt lat="28.151575" lon="105.753251"><ele>1724.4371</ele><time>2026-08-16T03:32:48.000Z</time></trkpt>
        <trkpt lat="28.15155" lon="105.753251"><ele>1724.6328</ele><time>2026-08-16T03:32:50.000Z</time></trkpt>
        <trkpt lat="28.151525" lon="105.753251"><ele>1724.087</ele><time>2026-08-16T03:32:52.000Z</time></trkpt>
        <trkpt lat="28.151496" lon="105.753251"><ele>1723.7655</ele><time>2026-08-16T03:32:54.000Z</time></trkpt>
        <trkpt lat="28.151475" lon="105.753251"><ele>1725.0106</ele><time>2026-08-16T03:32:56.000Z</time></trkpt>
        <trkpt lat="28.151451" lon="105.75325"><ele>1724.916</ele><time>2026-08-16T03:32:58.000Z</time></trkpt>
        <trkpt lat="28.151427" lon="105.75325"><ele>1724.4504</ele><time>2026-08-16T03:33:00.000Z</time></trkpt>
        <trkpt lat="28.151407" lon="105.753249"><ele>1724.2756</ele><time>2026-08-16T03:33:02.000Z</time></trkpt>
        <trkpt lat="28.151385" lon="105.753248"><ele>1724.2352</ele><time>2026-08-16T03:33:04.000Z</time></trkpt>
        <trkpt lat="28.151362" lon="105.753247"><ele>1724.4891</ele><time>2026-08-16T03:33:06.000Z</time></trkpt>
        <trkpt lat="28.15134" lon="105.753244"><ele>1725.0077</ele><time>2026-08-16T03:33:08.000Z</time></trkpt>
        <trkpt lat="28.151321" lon="105.75324"><ele>1724.7056</ele><time>2026-08-16T03:33:10.000Z</time></trkpt>
        <trkpt lat="28.151299" lon="105.753234"><ele>1724.0193</ele><time>2026-08-16T03:33:12.000Z</time></trkpt>
        <trkpt lat="28.151275" lon="105.753229"><ele>1725.9933</ele><time>2026-08-16T03:33:14.000Z</time></trkpt>
        <trkpt lat="28.151254" lon="105.753226"><ele>1726.2799</ele><time>2026-08-16T03:33:16.000Z</time></trkpt>
        <trkpt lat="28.151237" lon="105.753226"><ele>1726.0452</ele><time>2026-08-16T03:33:18.000Z</time></trkpt>
        <trkpt lat="28.151223" lon="105.753225"><ele>1726.3911</ele><time>2026-08-16T03:33:20.000Z</time></trkpt>
        <trkpt lat="28.151211" lon="105.753225"><ele>1726.106</ele><time>2026-08-16T03:33:22.000Z</time></trkpt>
        <trkpt lat="28.1512" lon="105.753225"><ele>1726.5933</ele><time>2026-08-16T03:33:24.000Z</time></trkpt>
        <trkpt lat="28.151187" lon="105.753226"><ele>1727.3253</ele><time>2026-08-16T03:33:26.000Z</time></trkpt>
        <trkpt lat="28.151172" lon="105.753228"><ele>1728.2336</ele><time>2026-08-16T03:33:28.000Z</time></trkpt>
        <trkpt lat="28.151155" lon="105.753232"><ele>1728.6091</ele><time>2026-08-16T03:33:30.000Z</time></trkpt>
        <trkpt lat="28.151135" lon="105.753239"><ele>1728.2834</ele><time>2026-08-16T03:33:32.000Z</time></trkpt>
        <trkpt lat="28.151118" lon="105.753246"><ele>1727.5145</ele><time>2026-08-16T03:33:34.000Z</time></trkpt>
        <trkpt lat="28.151099" lon="105.753255"><ele>1728.7646</ele><time>2026-08-16T03:33:36.000Z</time></trkpt>
        <trkpt lat="28.151079" lon="105.753263"><ele>1728.7899</ele><time>2026-08-16T03:33:38.000Z</time></trkpt>
        <trkpt lat="28.151063" lon="105.753268"><ele>1729.4775</ele><time>2026-08-16T03:33:40.000Z</time></trkpt>
        <trkpt lat="28.15105" lon="105.753271"><ele>1728.2571</ele><time>2026-08-16T03:33:42.000Z</time></trkpt>
        <trkpt lat="28.151032" lon="105.753276"><ele>1727.857</ele><time>2026-08-16T03:33:44.000Z</time></trkpt>
        <trkpt lat="28.151013" lon="105.753281"><ele>1727.6334</ele><time>2026-08-16T03:33:46.000Z</time></trkpt>
        <trkpt lat="28.150996" lon="105.753286"><ele>1727.4423</ele><time>2026-08-16T03:33:48.000Z</time></trkpt>
        <trkpt lat="28.150976" lon="105.753293"><ele>1728.0533</ele><time>2026-08-16T03:33:50.000Z</time></trkpt>
        <trkpt lat="28.150958" lon="105.753302"><ele>1729.7755</ele><time>2026-08-16T03:33:52.000Z</time></trkpt>
        <trkpt lat="28.150939" lon="105.753311"><ele>1730.8575</ele><time>2026-08-16T03:33:54.000Z</time></trkpt>
        <trkpt lat="28.15092" lon="105.753318"><ele>1731.3334</ele><time>2026-08-16T03:33:56.000Z</time></trkpt>
        <trkpt lat="28.150905" lon="105.75332"><ele>1731.4081</ele><time>2026-08-16T03:33:58.000Z</time></trkpt>
        <trkpt lat="28.150888" lon="105.753322"><ele>1731.2218</ele><time>2026-08-16T03:34:00.000Z</time></trkpt>
        <trkpt lat="28.150868" lon="105.753321"><ele>1731.2659</ele><time>2026-08-16T03:34:02.000Z</time></trkpt>
        <trkpt lat="28.150849" lon="105.753319"><ele>1731.5594</ele><time>2026-08-16T03:34:04.000Z</time></trkpt>
        <trkpt lat="28.15083" lon="105.753314"><ele>1731.7709</ele><time>2026-08-16T03:34:06.000Z</time></trkpt>
        <trkpt lat="28.150812" lon="105.753309"><ele>1731.3685</ele><time>2026-08-16T03:34:08.000Z</time></trkpt>
        <trkpt lat="28.150794" lon="105.753302"><ele>1731.5521</ele><time>2026-08-16T03:34:10.000Z</time></trkpt>
        <trkpt lat="28.150774" lon="105.753294"><ele>1730.6595</ele><time>2026-08-16T03:34:12.000Z</time></trkpt>
        <trkpt lat="28.150754" lon="105.753287"><ele>1730.7592</ele><time>2026-08-16T03:34:14.000Z</time></trkpt>
        <trkpt lat="28.150732" lon="105.753279"><ele>1729.7894</ele><time>2026-08-16T03:34:16.000Z</time></trkpt>
        <trkpt lat="28.150709" lon="105.753271"><ele>1729.8766</ele><time>2026-08-16T03:34:18.000Z</time></trkpt>
        <trkpt lat="28.150686" lon="105.753261"><ele>1730.0193</ele><time>2026-08-16T03:34:20.000Z</time></trkpt>
        <trkpt lat="28.150669" lon="105.753251"><ele>1730.7635</ele><time>2026-08-16T03:34:22.000Z</time></trkpt>
        <trkpt lat="28.150652" lon="105.753242"><ele>1730.832</ele><time>2026-08-16T03:34:24.000Z</time></trkpt>
        <trkpt lat="28.150635" lon="105.753235"><ele>1730.6405</ele><time>2026-08-16T03:34:26.000Z</time></trkpt>
        <trkpt lat="28.150618" lon="105.753228"><ele>1730.677</ele><time>2026-08-16T03:34:28.000Z</time></trkpt>
        <trkpt lat="28.150598" lon="105.753223"><ele>1730.5358</ele><time>2026-08-16T03:34:30.000Z</time></trkpt>
        <trkpt lat="28.150579" lon="105.753223"><ele>1727.8832</ele><time>2026-08-16T03:34:32.000Z</time></trkpt>
        <trkpt lat="28.150561" lon="105.753223"><ele>1727.9658</ele><time>2026-08-16T03:34:34.000Z</time></trkpt>
        <trkpt lat="28.150542" lon="105.753222"><ele>1728.0381</ele><time>2026-08-16T03:34:36.000Z</time></trkpt>
        <trkpt lat="28.150524" lon="105.753218"><ele>1727.9697</ele><time>2026-08-16T03:34:38.000Z</time></trkpt>
        <trkpt lat="28.150508" lon="105.753213"><ele>1728.4032</ele><time>2026-08-16T03:34:40.000Z</time></trkpt>
        <trkpt lat="28.150494" lon="105.753208"><ele>1728.3513</ele><time>2026-08-16T03:34:42.000Z</time></trkpt>
        <trkpt lat="28.150477" lon="105.753204"><ele>1728.1644</ele><time>2026-08-16T03:34:44.000Z</time></trkpt>
        <trkpt lat="28.150461" lon="105.753201"><ele>1727.6849</ele><time>2026-08-16T03:34:46.000Z</time></trkpt>
        <trkpt lat="28.150445" lon="105.753199"><ele>1727.4126</ele><time>2026-08-16T03:34:48.000Z</time></trkpt>
        <trkpt lat="28.150429" lon="105.753196"><ele>1727.0017</ele><time>2026-08-16T03:34:50.000Z</time></trkpt>
        <trkpt lat="28.150412" lon="105.753196"><ele>1727.9987</ele><time>2026-08-16T03:34:52.000Z</time></trkpt>
        <trkpt lat="28.150397" lon="105.753199"><ele>1728.2681</ele><time>2026-08-16T03:34:54.000Z</time></trkpt>
        <trkpt lat="28.150382" lon="105.753203"><ele>1727.5771</ele><time>2026-08-16T03:34:56.000Z</time></trkpt>
        <trkpt lat="28.150366" lon="105.753209"><ele>1727.6276</ele><time>2026-08-16T03:34:58.000Z</time></trkpt>
        <trkpt lat="28.150351" lon="105.753215"><ele>1727.8751</ele><time>2026-08-16T03:35:00.000Z</time></trkpt>
        <trkpt lat="28.150339" lon="105.753218"><ele>1728.0912</ele><time>2026-08-16T03:35:02.000Z</time></trkpt>
        <trkpt lat="28.150327" lon="105.753218"><ele>1727.2512</ele><time>2026-08-16T03:35:04.000Z</time></trkpt>
        <trkpt lat="28.150312" lon="105.753214"><ele>1727.0486</ele><time>2026-08-16T03:35:06.000Z</time></trkpt>
        <trkpt lat="28.150298" lon="105.753208"><ele>1726.8516</ele><time>2026-08-16T03:35:08.000Z</time></trkpt>
        <trkpt lat="28.150286" lon="105.753201"><ele>1726.6887</ele><time>2026-08-16T03:35:10.000Z</time></trkpt>
        <trkpt lat="28.150274" lon="105.753192"><ele>1727.1726</ele><time>2026-08-16T03:35:12.000Z</time></trkpt>
        <trkpt lat="28.150262" lon="105.753181"><ele>1728.2032</ele><time>2026-08-16T03:35:14.000Z</time></trkpt>
        <trkpt lat="28.15025" lon="105.753173"><ele>1727.9103</ele><time>2026-08-16T03:35:16.000Z</time></trkpt>
        <trkpt lat="28.150238" lon="105.753166"><ele>1728.0428</ele><time>2026-08-16T03:35:18.000Z</time></trkpt>
        <trkpt lat="28.150228" lon="105.753161"><ele>1728.5812</ele><time>2026-08-16T03:35:20.000Z</time></trkpt>
        <trkpt lat="28.150223" lon="105.753154"><ele>1728.8174</ele><time>2026-08-16T03:35:22.000Z</time></trkpt>
        <trkpt lat="28.150219" lon="105.753139"><ele>1727.9004</ele><time>2026-08-16T03:35:30.000Z</time></trkpt>
        <trkpt lat="28.150211" lon="105.753125"><ele>1724.8862</ele><time>2026-08-16T03:35:44.000Z</time></trkpt>
        <trkpt lat="28.150205" lon="105.753122"><ele>1724.2308</ele><time>2026-08-16T03:35:46.000Z</time></trkpt>
        <trkpt lat="28.15018" lon="105.753114"><ele>1720.9954</ele><time>2026-08-16T03:36:04.000Z</time></trkpt>
        <trkpt lat="28.150155" lon="105.753105"><ele>1717.6394</ele><time>2026-08-16T03:36:14.000Z</time></trkpt>
        <trkpt lat="28.150145" lon="105.753101"><ele>1717.6957</ele><time>2026-08-16T03:36:16.000Z</time></trkpt>
        <trkpt lat="28.150145" lon="105.753101"><ele>1718.0209</ele><time>2026-08-16T03:36:18.000Z</time></trkpt>
        <trkpt lat="28.150157" lon="105.753066"><ele>1713.8501</ele><time>2026-08-16T03:36:34.000Z</time></trkpt>
        <trkpt lat="28.150139" lon="105.753062"><ele>1713.6685</ele><time>2026-08-16T03:36:36.000Z</time></trkpt>
        <trkpt lat="28.150139" lon="105.753061"><ele>1713.0453</ele><time>2026-08-16T03:36:38.000Z</time></trkpt>
        <trkpt lat="28.15013" lon="105.753034"><ele>1711.5845</ele><time>2026-08-16T03:36:44.000Z</time></trkpt>
        <trkpt lat="28.150119" lon="105.753024"><ele>1711.5847</ele><time>2026-08-16T03:36:46.000Z</time></trkpt>
        <trkpt lat="28.150104" lon="105.753017"><ele>1711.4281</ele><time>2026-08-16T03:36:48.000Z</time></trkpt>
        <trkpt lat="28.150084" lon="105.753011"><ele>1710.8408</ele><time>2026-08-16T03:36:50.000Z</time></trkpt>
        <trkpt lat="28.150065" lon="105.753004"><ele>1710.104</ele><time>2026-08-16T03:36:52.000Z</time></trkpt>
        <trkpt lat="28.150053" lon="105.752995"><ele>1710.9132</ele><time>2026-08-16T03:36:54.000Z</time></trkpt>
        <trkpt lat="28.15004" lon="105.752983"><ele>1710.6162</ele><time>2026-08-16T03:36:56.000Z</time></trkpt>
        <trkpt lat="28.150028" lon="105.752971"><ele>1710.8938</ele><time>2026-08-16T03:36:58.000Z</time></trkpt>
        <trkpt lat="28.150016" lon="105.752962"><ele>1710.1261</ele><time>2026-08-16T03:37:00.000Z</time></trkpt>
        <trkpt lat="28.150006" lon="105.752954"><ele>1710.7638</ele><time>2026-08-16T03:37:02.000Z</time></trkpt>
        <trkpt lat="28.150006" lon="105.752953"><ele>1710.6039</ele><time>2026-08-16T03:37:04.000Z</time></trkpt>
        <trkpt lat="28.150036" lon="105.752901"><ele>1709.4047</ele><time>2026-08-16T03:37:12.000Z</time></trkpt>
        <trkpt lat="28.150036" lon="105.752901"><ele>1709.9735</ele><time>2026-08-16T03:37:14.000Z</time></trkpt>
        <trkpt lat="28.150036" lon="105.7529"><ele>1708.3308</ele><time>2026-08-16T03:37:16.000Z</time></trkpt>
        <trkpt lat="28.150036" lon="105.752862"><ele>1706.7537</ele><time>2026-08-16T03:37:26.000Z</time></trkpt>
        <trkpt lat="28.150036" lon="105.752847"><ele>1706.9629</ele><time>2026-08-16T03:37:28.000Z</time></trkpt>
        <trkpt lat="28.150036" lon="105.752846"><ele>1707.4233</ele><time>2026-08-16T03:37:30.000Z</time></trkpt>
        <trkpt lat="28.150037" lon="105.752819"><ele>1708.1414</ele><time>2026-08-16T03:37:36.000Z</time></trkpt>
        <trkpt lat="28.150036" lon="105.752803"><ele>1707.8674</ele><time>2026-08-16T03:37:38.000Z</time></trkpt>
        <trkpt lat="28.150035" lon="105.752786"><ele>1708.7301</ele><time>2026-08-16T03:37:40.000Z</time></trkpt>
        <trkpt lat="28.150036" lon="105.752775"><ele>1708.9517</ele><time>2026-08-16T03:37:42.000Z</time></trkpt>
        <trkpt lat="28.15004" lon="105.752773"><ele>1708.4915</ele><time>2026-08-16T03:37:44.000Z</time></trkpt>
        <trkpt lat="28.150061" lon="105.752757"><ele>1709.6376</ele><time>2026-08-16T03:37:50.000Z</time></trkpt>
        <trkpt lat="28.150066" lon="105.752751"><ele>1709.8589</ele><time>2026-08-16T03:37:52.000Z</time></trkpt>
        <trkpt lat="28.15007" lon="105.752744"><ele>1709.4675</ele><time>2026-08-16T03:37:54.000Z</time></trkpt>
        <trkpt lat="28.150087" lon="105.752707"><ele>1705.7594</ele><time>2026-08-16T03:38:08.000Z</time></trkpt>
        <trkpt lat="28.150095" lon="105.752687"><ele>1705.9813</ele><time>2026-08-16T03:38:10.000Z</time></trkpt>
        <trkpt lat="28.150096" lon="105.752686"><ele>1706.1711</ele><time>2026-08-16T03:38:12.000Z</time></trkpt>
        <trkpt lat="28.150101" lon="105.752675"><ele>1705.5681</ele><time>2026-08-16T03:38:18.000Z</time></trkpt>
        <trkpt lat="28.150108" lon="105.752657"><ele>1704.4109</ele><time>2026-08-16T03:38:22.000Z</time></trkpt>
        <trkpt lat="28.150116" lon="105.752634"><ele>1704.1414</ele><time>2026-08-16T03:38:24.000Z</time></trkpt>
        <trkpt lat="28.150117" lon="105.752634"><ele>1704.3988</ele><time>2026-08-16T03:38:26.000Z</time></trkpt>
        <trkpt lat="28.150093" lon="105.752619"><ele>1698.5668</ele><time>2026-08-16T03:38:38.000Z</time></trkpt>
        <trkpt lat="28.150089" lon="105.752613"><ele>1695.6759</ele><time>2026-08-16T03:38:44.000Z</time></trkpt>
        <trkpt lat="28.15009" lon="105.752609"><ele>1695.1154</ele><time>2026-08-16T03:38:46.000Z</time></trkpt>
        <trkpt lat="28.1501" lon="105.752573"><ele>1695.0426</ele><time>2026-08-16T03:38:50.000Z</time></trkpt>
        <trkpt lat="28.1501" lon="105.752573"><ele>1694.7345</ele><time>2026-08-16T03:38:52.000Z</time></trkpt>
        <trkpt lat="28.1501" lon="105.752573"><ele>1693.9875</ele><time>2026-08-16T03:38:54.000Z</time></trkpt>
        <trkpt lat="28.150089" lon="105.75254"><ele>1692.57</ele><time>2026-08-16T03:39:08.000Z</time></trkpt>
        <trkpt lat="28.150091" lon="105.752534"><ele>1693.3048</ele><time>2026-08-16T03:39:10.000Z</time></trkpt>
        <trkpt lat="28.150095" lon="105.752516"><ele>1694.2343</ele><time>2026-08-16T03:39:12.000Z</time></trkpt>
        <trkpt lat="28.150101" lon="105.752493"><ele>1692.2572</ele><time>2026-08-16T03:39:24.000Z</time></trkpt>
        <trkpt lat="28.150101" lon="105.752493"><ele>1693.4857</ele><time>2026-08-16T03:39:26.000Z</time></trkpt>
        <trkpt lat="28.150077" lon="105.752485"><ele>1691.1426</ele><time>2026-08-16T03:39:42.000Z</time></trkpt>
        <trkpt lat="28.150072" lon="105.752481"><ele>1689.9845</ele><time>2026-08-16T03:39:48.000Z</time></trkpt>
        <trkpt lat="28.150072" lon="105.752479"><ele>1689.5779</ele><time>2026-08-16T03:39:50.000Z</time></trkpt>
        <trkpt lat="28.150086" lon="105.752457"><ele>1687.9409</ele><time>2026-08-16T03:39:56.000Z</time></trkpt>
        <trkpt lat="28.150094" lon="105.752443"><ele>1686.912</ele><time>2026-08-16T03:39:58.000Z</time></trkpt>
        <trkpt lat="28.150094" lon="105.752443"><ele>1686.5312</ele><time>2026-08-16T03:40:00.000Z</time></trkpt>
        <trkpt lat="28.150082" lon="105.752417"><ele>1686.851</ele><time>2026-08-16T03:40:14.000Z</time></trkpt>
        <trkpt lat="28.150082" lon="105.752413"><ele>1687.0175</ele><time>2026-08-16T03:40:16.000Z</time></trkpt>
        <trkpt lat="28.150071" lon="105.752396"><ele>1685.6317</ele><time>2026-08-16T03:40:18.000Z</time></trkpt>
        <trkpt lat="28.15007" lon="105.752381"><ele>1681.7428</ele><time>2026-08-16T03:40:28.000Z</time></trkpt>
        <trkpt lat="28.150069" lon="105.752356"><ele>1682.1532</ele><time>2026-08-16T03:40:30.000Z</time></trkpt>
        <trkpt lat="28.150069" lon="105.752354"><ele>1681.1176</ele><time>2026-08-16T03:40:32.000Z</time></trkpt>
        <trkpt lat="28.150076" lon="105.752341"><ele>1679.1235</ele><time>2026-08-16T03:40:38.000Z</time></trkpt>
        <trkpt lat="28.150091" lon="105.752311"><ele>1677.9056</ele><time>2026-08-16T03:40:42.000Z</time></trkpt>
        <trkpt lat="28.150091" lon="105.752311"><ele>1676.8718</ele><time>2026-08-16T03:40:44.000Z</time></trkpt>
        <trkpt lat="28.15009" lon="105.752311"><ele>1676.0192</ele><time>2026-08-16T03:40:46.000Z</time></trkpt>
        <trkpt lat="28.15005" lon="105.752297"><ele>1675.3215</ele><time>2026-08-16T03:40:52.000Z</time></trkpt>
        <trkpt lat="28.15005" lon="105.752297"><ele>1674.9856</ele><time>2026-08-16T03:40:54.000Z</time></trkpt>
        <trkpt lat="28.15005" lon="105.752296"><ele>1674.5271</ele><time>2026-08-16T03:40:56.000Z</time></trkpt>
        <trkpt lat="28.150018" lon="105.752268"><ele>1670.5187</ele><time>2026-08-16T03:41:13.000Z</time></trkpt>
        <trkpt lat="28.150005" lon="105.752256"><ele>1670.6677</ele><time>2026-08-16T03:41:16.000Z</time></trkpt>
        <trkpt lat="28.150005" lon="105.752256"><ele>1670.6594</ele><time>2026-08-16T03:41:18.000Z</time></trkpt>
        <trkpt lat="28.149998" lon="105.752234"><ele>1669.5714</ele><time>2026-08-16T03:41:26.000Z</time></trkpt>
        <trkpt lat="28.149991" lon="105.752212"><ele>1668.6125</ele><time>2026-08-16T03:41:28.000Z</time></trkpt>
        <trkpt lat="28.14999" lon="105.752211"><ele>1668.6554</ele><time>2026-08-16T03:41:30.000Z</time></trkpt>
        <trkpt lat="28.149981" lon="105.752197"><ele>1668.0308</ele><time>2026-08-16T03:41:34.000Z</time></trkpt>
        <trkpt lat="28.149971" lon="105.752184"><ele>1667.435</ele><time>2026-08-16T03:41:36.000Z</time></trkpt>
        <trkpt lat="28.149959" lon="105.752171"><ele>1667.198</ele><time>2026-08-16T03:41:38.000Z</time></trkpt>
        <trkpt lat="28.149949" lon="105.752161"><ele>1667.0914</ele><time>2026-08-16T03:41:40.000Z</time></trkpt>
        <trkpt lat="28.149943" lon="105.752152"><ele>1667.034</ele><time>2026-08-16T03:41:42.000Z</time></trkpt>
        <trkpt lat="28.149941" lon="105.752145"><ele>1667.04</ele><time>2026-08-16T03:41:46.000Z</time></trkpt>
        <trkpt lat="28.149937" lon="105.752127"><ele>1664.8821</ele><time>2026-08-16T03:41:52.000Z</time></trkpt>
        <trkpt lat="28.149936" lon="105.752114"><ele>1662.654</ele><time>2026-08-16T03:41:56.000Z</time></trkpt>
        <trkpt lat="28.149933" lon="105.752096"><ele>1661.6433</ele><time>2026-08-16T03:41:58.000Z</time></trkpt>
        <trkpt lat="28.149965" lon="105.752109"><ele>1655.079</ele><time>2026-08-16T03:42:35.000Z</time></trkpt>
        <trkpt lat="28.149965" lon="105.752109"><ele>1654.526</ele><time>2026-08-16T03:42:37.000Z</time></trkpt>
        <trkpt lat="28.149965" lon="105.752109"><ele>1653.7212</ele><time>2026-08-16T03:42:39.000Z</time></trkpt>
        <trkpt lat="28.149955" lon="105.75208"><ele>1648.319</ele><time>2026-08-16T03:43:01.000Z</time></trkpt>
        <trkpt lat="28.149944" lon="105.752043"><ele>1648.2979</ele><time>2026-08-16T03:43:03.000Z</time></trkpt>
        <trkpt lat="28.149943" lon="105.75204"><ele>1649.6167</ele><time>2026-08-16T03:43:05.000Z</time></trkpt>
        <trkpt lat="28.149922" lon="105.751964"><ele>1652.1445</ele><time>2026-08-16T03:43:10.000Z</time></trkpt>
        <trkpt lat="28.149922" lon="105.751964"><ele>1652.0979</ele><time>2026-08-16T03:43:12.000Z</time></trkpt>
        <trkpt lat="28.14992" lon="105.751964"><ele>1651.3011</ele><time>2026-08-16T03:43:14.000Z</time></trkpt>
        <trkpt lat="28.149876" lon="105.751961"><ele>1650.4054</ele><time>2026-08-16T03:43:20.000Z</time></trkpt>
        <trkpt lat="28.149868" lon="105.751955"><ele>1650.2484</ele><time>2026-08-16T03:43:22.000Z</time></trkpt>
        <trkpt lat="28.149863" lon="105.751947"><ele>1649.9186</ele><time>2026-08-16T03:43:24.000Z</time></trkpt>
        <trkpt lat="28.149856" lon="105.751932"><ele>1649.705</ele><time>2026-08-16T03:43:26.000Z</time></trkpt>
        <trkpt lat="28.14985" lon="105.751917"><ele>1649.7845</ele><time>2026-08-16T03:43:28.000Z</time></trkpt>
        <trkpt lat="28.149852" lon="105.75191"><ele>1649.4368</ele><time>2026-08-16T03:43:30.000Z</time></trkpt>
        <trkpt lat="28.149834" lon="105.751957"><ele>1648.3331</ele><time>2026-08-16T03:43:42.000Z</time></trkpt>
        <trkpt lat="28.149835" lon="105.751951"><ele>1648.0374</ele><time>2026-08-16T03:43:44.000Z</time></trkpt>
        <trkpt lat="28.149834" lon="105.751946"><ele>1648.6299</ele><time>2026-08-16T03:43:46.000Z</time></trkpt>
        <trkpt lat="28.149823" lon="105.751921"><ele>1647.1036</ele><time>2026-08-16T03:43:54.000Z</time></trkpt>
        <trkpt lat="28.14982" lon="105.751914"><ele>1648.9839</ele><time>2026-08-16T03:43:56.000Z</time></trkpt>
        <trkpt lat="28.149807" lon="105.75188"><ele>1648.4819</ele><time>2026-08-16T03:43:58.000Z</time></trkpt>
        <trkpt lat="28.149806" lon="105.751877"><ele>1646.8376</ele><time>2026-08-16T03:44:00.000Z</time></trkpt>
        <trkpt lat="28.149806" lon="105.751876"><ele>1645.8937</ele><time>2026-08-16T03:44:02.000Z</time></trkpt>
        <trkpt lat="28.149807" lon="105.75184"><ele>1644.1403</ele><time>2026-08-16T03:44:08.000Z</time></trkpt>
        <trkpt lat="28.149805" lon="105.75183"><ele>1643.3314</ele><time>2026-08-16T03:44:10.000Z</time></trkpt>
        <trkpt lat="28.149799" lon="105.751827"><ele>1643.4481</ele><time>2026-08-16T03:44:12.000Z</time></trkpt>
        <trkpt lat="28.149781" lon="105.751815"><ele>1641.2787</ele><time>2026-08-16T03:44:18.000Z</time></trkpt>
        <trkpt lat="28.149762" lon="105.751803"><ele>1640.8038</ele><time>2026-08-16T03:44:20.000Z</time></trkpt>
        <trkpt lat="28.149762" lon="105.751802"><ele>1639.7675</ele><time>2026-08-16T03:44:22.000Z</time></trkpt>
        <trkpt lat="28.149752" lon="105.751785"><ele>1637.9338</ele><time>2026-08-16T03:44:30.000Z</time></trkpt>
        <trkpt lat="28.14974" lon="105.751767"><ele>1638.4124</ele><time>2026-08-16T03:44:32.000Z</time></trkpt>
        <trkpt lat="28.149741" lon="105.751766"><ele>1638.8862</ele><time>2026-08-16T03:44:34.000Z</time></trkpt>
        <trkpt lat="28.149736" lon="105.751756"><ele>1636.5437</ele><time>2026-08-16T03:44:40.000Z</time></trkpt>
        <trkpt lat="28.149716" lon="105.75172"><ele>1634.3207</ele><time>2026-08-16T03:44:44.000Z</time></trkpt>
        <trkpt lat="28.149716" lon="105.75172"><ele>1633.398</ele><time>2026-08-16T03:44:46.000Z</time></trkpt>
        <trkpt lat="28.149716" lon="105.751718"><ele>1633.4413</ele><time>2026-08-16T03:44:48.000Z</time></trkpt>
        <trkpt lat="28.149707" lon="105.751668"><ele>1632.3441</ele><time>2026-08-16T03:44:54.000Z</time></trkpt>
        <trkpt lat="28.149702" lon="105.751645"><ele>1632.4889</ele><time>2026-08-16T03:44:56.000Z</time></trkpt>
        <trkpt lat="28.1497" lon="105.751629"><ele>1631.0588</ele><time>2026-08-16T03:44:58.000Z</time></trkpt>
        <trkpt lat="28.149699" lon="105.751629"><ele>1627.118</ele><time>2026-08-16T03:45:00.000Z</time></trkpt>
        <trkpt lat="28.149731" lon="105.751626"><ele>1621.3022</ele><time>2026-08-16T03:45:14.000Z</time></trkpt>
        <trkpt lat="28.149734" lon="105.751624"><ele>1621.1764</ele><time>2026-08-16T03:45:16.000Z</time></trkpt>
        <trkpt lat="28.14974" lon="105.751619"><ele>1620.5833</ele><time>2026-08-16T03:45:18.000Z</time></trkpt>
        <trkpt lat="28.149763" lon="105.751605"><ele>1619.425</ele><time>2026-08-16T03:45:24.000Z</time></trkpt>
        <trkpt lat="28.149774" lon="105.751598"><ele>1619.0125</ele><time>2026-08-16T03:45:26.000Z</time></trkpt>
        <trkpt lat="28.149774" lon="105.751599"><ele>1619.4327</ele><time>2026-08-16T03:45:28.000Z</time></trkpt>
        <trkpt lat="28.149671" lon="105.751534"><ele>1612.24</ele><time>2026-08-16T03:45:55.000Z</time></trkpt>
        <trkpt lat="28.149675" lon="105.751498"><ele>1611.8232</ele><time>2026-08-16T03:46:10.000Z</time></trkpt>
        <trkpt lat="28.14968" lon="105.751456"><ele>1612.1729</ele><time>2026-08-16T03:46:15.000Z</time></trkpt>
        <trkpt lat="28.14968" lon="105.751456"><ele>1613.1196</ele><time>2026-08-16T03:46:17.000Z</time></trkpt>
        <trkpt lat="28.149679" lon="105.751455"><ele>1612.9342</ele><time>2026-08-16T03:46:19.000Z</time></trkpt>
        <trkpt lat="28.149665" lon="105.751426"><ele>1612.3738</ele><time>2026-08-16T03:46:29.000Z</time></trkpt>
        <trkpt lat="28.14964" lon="105.751378"><ele>1611.6301</ele><time>2026-08-16T03:46:31.000Z</time></trkpt>
        <trkpt lat="28.149638" lon="105.751374"><ele>1611.1096</ele><time>2026-08-16T03:46:33.000Z</time></trkpt>
        <trkpt lat="28.149638" lon="105.751373"><ele>1610.5658</ele><time>2026-08-16T03:46:35.000Z</time></trkpt>
        <trkpt lat="28.149646" lon="105.75134"><ele>1608.4431</ele><time>2026-08-16T03:46:43.000Z</time></trkpt>
        <trkpt lat="28.149647" lon="105.751332"><ele>1607.8679</ele><time>2026-08-16T03:46:45.000Z</time></trkpt>
        <trkpt lat="28.149644" lon="105.751326"><ele>1607.1503</ele><time>2026-08-16T03:46:47.000Z</time></trkpt>
        <trkpt lat="28.149631" lon="105.751312"><ele>1604.9956</ele><time>2026-08-16T03:46:53.000Z</time></trkpt>
        <trkpt lat="28.149624" lon="105.751302"><ele>1602.2574</ele><time>2026-08-16T03:46:57.000Z</time></trkpt>
        <trkpt lat="28.149609" lon="105.751282"><ele>1601.1017</ele><time>2026-08-16T03:46:59.000Z</time></trkpt>
        <trkpt lat="28.149609" lon="105.751281"><ele>1601.6462</ele><time>2026-08-16T03:47:01.000Z</time></trkpt>
        <trkpt lat="28.149605" lon="105.751266"><ele>1602.6511</ele><time>2026-08-16T03:47:07.000Z</time></trkpt>
        <trkpt lat="28.149599" lon="105.751247"><ele>1601.5743</ele><time>2026-08-16T03:47:13.000Z</time></trkpt>
        <trkpt lat="28.149599" lon="105.751247"><ele>1600.9296</ele><time>2026-08-16T03:47:15.000Z</time></trkpt>
        <trkpt lat="28.149623" lon="105.751238"><ele>1599.9573</ele><time>2026-08-16T03:47:19.000Z</time></trkpt>
        <trkpt lat="28.149594" lon="105.751206"><ele>1600.6135</ele><time>2026-08-16T03:47:29.000Z</time></trkpt>
        <trkpt lat="28.149578" lon="105.751189"><ele>1600.5167</ele><time>2026-08-16T03:47:31.000Z</time></trkpt>
        <trkpt lat="28.149577" lon="105.751187"><ele>1599.7207</ele><time>2026-08-16T03:47:33.000Z</time></trkpt>
        <trkpt lat="28.149576" lon="105.75118"><ele>1597.72</ele><time>2026-08-16T03:47:43.000Z</time></trkpt>
        <trkpt lat="28.149571" lon="105.751154"><ele>1594.8616</ele><time>2026-08-16T03:47:49.000Z</time></trkpt>
        <trkpt lat="28.149566" lon="105.75113"><ele>1593.9482</ele><time>2026-08-16T03:47:51.000Z</time></trkpt>
        <trkpt lat="28.149565" lon="105.751129"><ele>1593.8934</ele><time>2026-08-16T03:47:53.000Z</time></trkpt>
        <trkpt lat="28.14956" lon="105.75112"><ele>1592.9342</ele><time>2026-08-16T03:47:57.000Z</time></trkpt>
        <trkpt lat="28.149543" lon="105.751085"><ele>1592.7432</ele><time>2026-08-16T03:48:01.000Z</time></trkpt>
        <trkpt lat="28.149539" lon="105.751073"><ele>1592.4457</ele><time>2026-08-16T03:48:03.000Z</time></trkpt>
        <trkpt lat="28.149536" lon="105.751062"><ele>1591.4729</ele><time>2026-08-16T03:48:05.000Z</time></trkpt>
        <trkpt lat="28.149535" lon="105.751049"><ele>1591.4104</ele><time>2026-08-16T03:48:07.000Z</time></trkpt>
        <trkpt lat="28.149538" lon="105.751046"><ele>1590.8496</ele><time>2026-08-16T03:48:09.000Z</time></trkpt>
        <trkpt lat="28.149509" lon="105.751077"><ele>1586.7015</ele><time>2026-08-16T03:48:19.000Z</time></trkpt>
        <trkpt lat="28.149514" lon="105.751102"><ele>1585.3326</ele><time>2026-08-16T03:48:21.000Z</time></trkpt>
        <trkpt lat="28.149514" lon="105.751104"><ele>1585.8077</ele><time>2026-08-16T03:48:23.000Z</time></trkpt>
        <trkpt lat="28.149517" lon="105.751111"><ele>1584.7122</ele><time>2026-08-16T03:48:27.000Z</time></trkpt>
        <trkpt lat="28.1495" lon="105.751062"><ele>1586.0216</ele><time>2026-08-16T03:48:41.000Z</time></trkpt>
        <trkpt lat="28.1495" lon="105.751055"><ele>1585.4746</ele><time>2026-08-16T03:48:43.000Z</time></trkpt>
        <trkpt lat="28.1495" lon="105.751053"><ele>1584.1808</ele><time>2026-08-16T03:48:45.000Z</time></trkpt>
        <trkpt lat="28.1495" lon="105.751027"><ele>1583.34</ele><time>2026-08-16T03:48:55.000Z</time></trkpt>
        <trkpt lat="28.1495" lon="105.75101"><ele>1584.3275</ele><time>2026-08-16T03:48:57.000Z</time></trkpt>
        <trkpt lat="28.1495" lon="105.751009"><ele>1585.0333</ele><time>2026-08-16T03:48:59.000Z</time></trkpt>
        <trkpt lat="28.1495" lon="105.750988"><ele>1584.0012</ele><time>2026-08-16T03:49:07.000Z</time></trkpt>
        <trkpt lat="28.149497" lon="105.750975"><ele>1583.028</ele><time>2026-08-16T03:49:13.000Z</time></trkpt>
        <trkpt lat="28.149496" lon="105.750972"><ele>1582.3682</ele><time>2026-08-16T03:49:17.000Z</time></trkpt>
        <trkpt lat="28.149491" lon="105.750954"><ele>1576.9696</ele><time>2026-08-16T03:49:28.000Z</time></trkpt>
        <trkpt lat="28.149484" lon="105.75092"><ele>1576.2589</ele><time>2026-08-16T03:49:32.000Z</time></trkpt>
        <trkpt lat="28.149484" lon="105.75092"><ele>1575.4882</ele><time>2026-08-16T03:49:34.000Z</time></trkpt>
        <trkpt lat="28.149484" lon="105.750919"><ele>1575.6025</ele><time>2026-08-16T03:49:36.000Z</time></trkpt>
        <trkpt lat="28.149485" lon="105.750871"><ele>1573.9945</ele><time>2026-08-16T03:49:42.000Z</time></trkpt>
        <trkpt lat="28.149486" lon="105.750854"><ele>1573.0397</ele><time>2026-08-16T03:49:44.000Z</time></trkpt>
        <trkpt lat="28.149486" lon="105.75084"><ele>1571.756</ele><time>2026-08-16T03:49:46.000Z</time></trkpt>
        <trkpt lat="28.149486" lon="105.750826"><ele>1570.8947</ele><time>2026-08-16T03:49:48.000Z</time></trkpt>
        <trkpt lat="28.149485" lon="105.750808"><ele>1570.7876</ele><time>2026-08-16T03:49:50.000Z</time></trkpt>
        <trkpt lat="28.149484" lon="105.750797"><ele>1570.3962</ele><time>2026-08-16T03:49:52.000Z</time></trkpt>
        <trkpt lat="28.149482" lon="105.750788"><ele>1570.8378</ele><time>2026-08-16T03:49:54.000Z</time></trkpt>
        <trkpt lat="28.149473" lon="105.750771"><ele>1570.8363</ele><time>2026-08-16T03:49:58.000Z</time></trkpt>
        <trkpt lat="28.149472" lon="105.750764"><ele>1570.0953</ele><time>2026-08-16T03:50:02.000Z</time></trkpt>
        <trkpt lat="28.149469" lon="105.750754"><ele>1567.689</ele><time>2026-08-16T03:50:14.000Z</time></trkpt>
        <trkpt lat="28.149464" lon="105.750738"><ele>1567.768</ele><time>2026-08-16T03:50:18.000Z</time></trkpt>
        <trkpt lat="28.149457" lon="105.750717"><ele>1567.745</ele><time>2026-08-16T03:50:20.000Z</time></trkpt>
        <trkpt lat="28.149457" lon="105.750715"><ele>1567.0739</ele><time>2026-08-16T03:50:22.000Z</time></trkpt>
        <trkpt lat="28.149451" lon="105.750695"><ele>1565.1985</ele><time>2026-08-16T03:50:28.000Z</time></trkpt>
        <trkpt lat="28.149444" lon="105.75068"><ele>1564.1855</ele><time>2026-08-16T03:50:30.000Z</time></trkpt>
        <trkpt lat="28.149433" lon="105.750666"><ele>1563.5608</ele><time>2026-08-16T03:50:32.000Z</time></trkpt>
        <trkpt lat="28.149422" lon="105.750655"><ele>1562.4331</ele><time>2026-08-16T03:50:34.000Z</time></trkpt>
        <trkpt lat="28.149412" lon="105.75065"><ele>1560.86</ele><time>2026-08-16T03:50:36.000Z</time></trkpt>
        <trkpt lat="28.149405" lon="105.75065"><ele>1559.822</ele><time>2026-08-16T03:50:38.000Z</time></trkpt>
        <trkpt lat="28.149392" lon="105.750654"><ele>1559.0228</ele><time>2026-08-16T03:50:40.000Z</time></trkpt>
        <trkpt lat="28.14938" lon="105.750664"><ele>1557.9434</ele><time>2026-08-16T03:50:42.000Z</time></trkpt>
        <trkpt lat="28.149373" lon="105.750676"><ele>1557.1777</ele><time>2026-08-16T03:50:44.000Z</time></trkpt>
        <trkpt lat="28.149369" lon="105.750688"><ele>1555.8994</ele><time>2026-08-16T03:50:46.000Z</time></trkpt>
        <trkpt lat="28.149367" lon="105.750704"><ele>1556.4381</ele><time>2026-08-16T03:50:48.000Z</time></trkpt>
        <trkpt lat="28.149364" lon="105.750726"><ele>1557.0564</ele><time>2026-08-16T03:50:50.000Z</time></trkpt>
        <trkpt lat="28.14936" lon="105.750744"><ele>1556.8384</ele><time>2026-08-16T03:50:52.000Z</time></trkpt>
        <trkpt lat="28.149355" lon="105.750765"><ele>1556.8373</ele><time>2026-08-16T03:50:54.000Z</time></trkpt>
        <trkpt lat="28.14935" lon="105.750784"><ele>1556.2294</ele><time>2026-08-16T03:50:56.000Z</time></trkpt>
        <trkpt lat="28.149347" lon="105.7508"><ele>1556.8099</ele><time>2026-08-16T03:50:58.000Z</time></trkpt>
        <trkpt lat="28.149343" lon="105.750818"><ele>1556.8895</ele><time>2026-08-16T03:51:00.000Z</time></trkpt>
        <trkpt lat="28.149338" lon="105.750829"><ele>1556.3041</ele><time>2026-08-16T03:51:02.000Z</time></trkpt>
        <trkpt lat="28.149329" lon="105.750843"><ele>1554.6208</ele><time>2026-08-16T03:51:04.000Z</time></trkpt>
        <trkpt lat="28.149315" lon="105.75086"><ele>1555.054</ele><time>2026-08-16T03:51:06.000Z</time></trkpt>
        <trkpt lat="28.1493" lon="105.750875"><ele>1554.7517</ele><time>2026-08-16T03:51:08.000Z</time></trkpt>
        <trkpt lat="28.14929" lon="105.750887"><ele>1554.3983</ele><time>2026-08-16T03:51:10.000Z</time></trkpt>
        <trkpt lat="28.149283" lon="105.750895"><ele>1553.1201</ele><time>2026-08-16T03:51:12.000Z</time></trkpt>
        <trkpt lat="28.149276" lon="105.750899"><ele>1552.5623</ele><time>2026-08-16T03:51:14.000Z</time></trkpt>
        <trkpt lat="28.149255" lon="105.750906"><ele>1551.1356</ele><time>2026-08-16T03:51:18.000Z</time></trkpt>
        <trkpt lat="28.149245" lon="105.750905"><ele>1550.8422</ele><time>2026-08-16T03:51:20.000Z</time></trkpt>
        <trkpt lat="28.149234" lon="105.750901"><ele>1551.1227</ele><time>2026-08-16T03:51:22.000Z</time></trkpt>
        <trkpt lat="28.149222" lon="105.750896"><ele>1551.5413</ele><time>2026-08-16T03:51:24.000Z</time></trkpt>
        <trkpt lat="28.149222" lon="105.750897"><ele>1550.5652</ele><time>2026-08-16T03:51:26.000Z</time></trkpt>
        <trkpt lat="28.149218" lon="105.750922"><ele>1548.7654</ele><time>2026-08-16T03:51:36.000Z</time></trkpt>
        <trkpt lat="28.14921" lon="105.750973"><ele>1547.82</ele><time>2026-08-16T03:51:40.000Z</time></trkpt>
        <trkpt lat="28.14921" lon="105.750973"><ele>1548.0697</ele><time>2026-08-16T03:51:42.000Z</time></trkpt>
        <trkpt lat="28.149208" lon="105.750974"><ele>1547.9478</ele><time>2026-08-16T03:51:44.000Z</time></trkpt>
        <trkpt lat="28.149176" lon="105.750981"><ele>1547.4232</ele><time>2026-08-16T03:51:48.000Z</time></trkpt>
        <trkpt lat="28.149157" lon="105.750984"><ele>1548.3436</ele><time>2026-08-16T03:51:50.000Z</time></trkpt>
        <trkpt lat="28.149155" lon="105.750981"><ele>1548.743</ele><time>2026-08-16T03:51:52.000Z</time></trkpt>
        <trkpt lat="28.149143" lon="105.75097"><ele>1550.6774</ele><time>2026-08-16T03:52:04.000Z</time></trkpt>
        <trkpt lat="28.149122" lon="105.750952"><ele>1550.6335</ele><time>2026-08-16T03:52:06.000Z</time></trkpt>
        <trkpt lat="28.149121" lon="105.750951"><ele>1550.8336</ele><time>2026-08-16T03:52:08.000Z</time></trkpt>
        <trkpt lat="28.149111" lon="105.750946"><ele>1551.2924</ele><time>2026-08-16T03:52:16.000Z</time></trkpt>
        <trkpt lat="28.149074" lon="105.750928"><ele>1550.6727</ele><time>2026-08-16T03:52:20.000Z</time></trkpt>
        <trkpt lat="28.149074" lon="105.750928"><ele>1548.2538</ele><time>2026-08-16T03:52:22.000Z</time></trkpt>
        <trkpt lat="28.149074" lon="105.750928"><ele>1547.3342</ele><time>2026-08-16T03:52:24.000Z</time></trkpt>
        <trkpt lat="28.149066" lon="105.750882"><ele>1546.7478</ele><time>2026-08-16T03:52:27.000Z</time></trkpt>
        <trkpt lat="28.149066" lon="105.750882"><ele>1547.6266</ele><time>2026-08-16T03:52:29.000Z</time></trkpt>
        <trkpt lat="28.149066" lon="105.75088"><ele>1546.5634</ele><time>2026-08-16T03:52:31.000Z</time></trkpt>
        <trkpt lat="28.149063" lon="105.750846"><ele>1545.123</ele><time>2026-08-16T03:52:35.000Z</time></trkpt>
        <trkpt lat="28.149058" lon="105.750821"><ele>1544.9769</ele><time>2026-08-16T03:52:37.000Z</time></trkpt>
        <trkpt lat="28.149053" lon="105.750791"><ele>1545.4124</ele><time>2026-08-16T03:52:39.000Z</time></trkpt>
        <trkpt lat="28.14905" lon="105.750769"><ele>1545.9503</ele><time>2026-08-16T03:52:41.000Z</time></trkpt>
        <trkpt lat="28.149048" lon="105.750756"><ele>1545.6599</ele><time>2026-08-16T03:52:43.000Z</time></trkpt>
        <trkpt lat="28.149048" lon="105.750744"><ele>1545.5895</ele><time>2026-08-16T03:52:45.000Z</time></trkpt>
        <trkpt lat="28.149046" lon="105.750732"><ele>1543.8191</ele><time>2026-08-16T03:52:47.000Z</time></trkpt>
        <trkpt lat="28.149044" lon="105.75072"><ele>1542.7379</ele><time>2026-08-16T03:52:49.000Z</time></trkpt>
        <trkpt lat="28.149041" lon="105.750702"><ele>1542.2167</ele><time>2026-08-16T03:52:51.000Z</time></trkpt>
        <trkpt lat="28.149037" lon="105.750684"><ele>1542.2396</ele><time>2026-08-16T03:52:53.000Z</time></trkpt>
        <trkpt lat="28.149031" lon="105.750665"><ele>1542.1594</ele><time>2026-08-16T03:52:55.000Z</time></trkpt>
        <trkpt lat="28.149023" lon="105.75065"><ele>1541.9137</ele><time>2026-08-16T03:52:57.000Z</time></trkpt>
        <trkpt lat="28.149014" lon="105.750636"><ele>1542.0199</ele><time>2026-08-16T03:52:59.000Z</time></trkpt>
        <trkpt lat="28.149009" lon="105.750626"><ele>1540.9126</ele><time>2026-08-16T03:53:01.000Z</time></trkpt>
        <trkpt lat="28.149009" lon="105.750621"><ele>1539.3242</ele><time>2026-08-16T03:53:03.000Z</time></trkpt>
        <trkpt lat="28.14901" lon="105.750595"><ele>1536.4482</ele><time>2026-08-16T03:53:09.000Z</time></trkpt>
        <trkpt lat="28.149011" lon="105.750575"><ele>1536.8525</ele><time>2026-08-16T03:53:11.000Z</time></trkpt>
        <trkpt lat="28.149011" lon="105.750574"><ele>1536.8483</ele><time>2026-08-16T03:53:13.000Z</time></trkpt>
        <trkpt lat="28.148998" lon="105.750558"><ele>1536.6826</ele><time>2026-08-16T03:53:19.000Z</time></trkpt>
        <trkpt lat="28.148988" lon="105.750546"><ele>1537.5609</ele><time>2026-08-16T03:53:21.000Z</time></trkpt>
        <trkpt lat="28.148975" lon="105.750532"><ele>1536.7147</ele><time>2026-08-16T03:53:23.000Z</time></trkpt>
        <trkpt lat="28.148967" lon="105.750528"><ele>1534.7642</ele><time>2026-08-16T03:53:25.000Z</time></trkpt>
        <trkpt lat="28.148962" lon="105.750528"><ele>1533.2205</ele><time>2026-08-16T03:53:27.000Z</time></trkpt>
        <trkpt lat="28.148934" lon="105.750531"><ele>1534.3507</ele><time>2026-08-16T03:53:31.000Z</time></trkpt>
        <trkpt lat="28.148925" lon="105.750535"><ele>1533.6844</ele><time>2026-08-16T03:53:33.000Z</time></trkpt>
        <trkpt lat="28.148916" lon="105.750542"><ele>1532.2307</ele><time>2026-08-16T03:53:35.000Z</time></trkpt>
        <trkpt lat="28.148907" lon="105.750553"><ele>1531.9739</ele><time>2026-08-16T03:53:37.000Z</time></trkpt>
        <trkpt lat="28.148901" lon="105.750563"><ele>1532.1791</ele><time>2026-08-16T03:53:39.000Z</time></trkpt>
        <trkpt lat="28.148897" lon="105.750572"><ele>1533.0385</ele><time>2026-08-16T03:53:41.000Z</time></trkpt>
        <trkpt lat="28.148895" lon="105.750582"><ele>1533.1191</ele><time>2026-08-16T03:53:43.000Z</time></trkpt>
        <trkpt lat="28.148891" lon="105.750602"><ele>1532.5348</ele><time>2026-08-16T03:53:47.000Z</time></trkpt>
        <trkpt lat="28.148888" lon="105.75061"><ele>1532.0417</ele><time>2026-08-16T03:53:49.000Z</time></trkpt>
        <trkpt lat="28.148884" lon="105.750616"><ele>1532.1993</ele><time>2026-08-16T03:53:51.000Z</time></trkpt>
        <trkpt lat="28.148869" lon="105.750629"><ele>1528.7753</ele><time>2026-08-16T03:53:57.000Z</time></trkpt>
        <trkpt lat="28.148851" lon="105.750643"><ele>1528.4467</ele><time>2026-08-16T03:53:59.000Z</time></trkpt>
        <trkpt lat="28.148851" lon="105.750645"><ele>1528.8473</ele><time>2026-08-16T03:54:01.000Z</time></trkpt>
        <trkpt lat="28.148846" lon="105.750653"><ele>1527.4453</ele><time>2026-08-16T03:54:05.000Z</time></trkpt>
        <trkpt lat="28.148824" lon="105.75068"><ele>1526.6814</ele><time>2026-08-16T03:54:09.000Z</time></trkpt>
        <trkpt lat="28.148808" lon="105.75069"><ele>1527.2195</ele><time>2026-08-16T03:54:11.000Z</time></trkpt>
        <trkpt lat="28.148787" lon="105.750701"><ele>1529.292</ele><time>2026-08-16T03:54:13.000Z</time></trkpt>
        <trkpt lat="28.148765" lon="105.750707"><ele>1528.6233</ele><time>2026-08-16T03:54:15.000Z</time></trkpt>
        <trkpt lat="28.148745" lon="105.750713"><ele>1528.7821</ele><time>2026-08-16T03:54:17.000Z</time></trkpt>
        <trkpt lat="28.14873" lon="105.750719"><ele>1526.855</ele><time>2026-08-16T03:54:19.000Z</time></trkpt>
        <trkpt lat="28.148721" lon="105.75072"><ele>1526.6083</ele><time>2026-08-16T03:54:21.000Z</time></trkpt>
        <trkpt lat="28.148714" lon="105.750719"><ele>1526.0837</ele><time>2026-08-16T03:54:23.000Z</time></trkpt>
        <trkpt lat="28.148702" lon="105.750715"><ele>1526.3975</ele><time>2026-08-16T03:54:25.000Z</time></trkpt>
        <trkpt lat="28.148687" lon="105.750709"><ele>1525.2443</ele><time>2026-08-16T03:54:27.000Z</time></trkpt>
        <trkpt lat="28.148675" lon="105.750705"><ele>1524.3203</ele><time>2026-08-16T03:54:29.000Z</time></trkpt>
        <trkpt lat="28.148669" lon="105.750708"><ele>1522.934</ele><time>2026-08-16T03:54:31.000Z</time></trkpt>
        <trkpt lat="28.148654" lon="105.750718"><ele>1521.2546</ele><time>2026-08-16T03:54:35.000Z</time></trkpt>
        <trkpt lat="28.148647" lon="105.750718"><ele>1519.6117</ele><time>2026-08-16T03:54:39.000Z</time></trkpt>
        <trkpt lat="28.148642" lon="105.750716"><ele>1518.7725</ele><time>2026-08-16T03:54:41.000Z</time></trkpt>
        <trkpt lat="28.148604" lon="105.7507"><ele>1516.4014</ele><time>2026-08-16T03:54:47.000Z</time></trkpt>
        <trkpt lat="28.148604" lon="105.7507"><ele>1517.2776</ele><time>2026-08-16T03:54:49.000Z</time></trkpt>
        <trkpt lat="28.148602" lon="105.7507"><ele>1516.7443</ele><time>2026-08-16T03:54:51.000Z</time></trkpt>
        <trkpt lat="28.14857" lon="105.750693"><ele>1514.933</ele><time>2026-08-16T03:54:55.000Z</time></trkpt>
        <trkpt lat="28.148554" lon="105.75069"><ele>1514.5107</ele><time>2026-08-16T03:54:57.000Z</time></trkpt>
        <trkpt lat="28.148537" lon="105.750687"><ele>1513.8242</ele><time>2026-08-16T03:54:59.000Z</time></trkpt>
        <trkpt lat="28.148525" lon="105.750684"><ele>1512.6376</ele><time>2026-08-16T03:55:01.000Z</time></trkpt>
        <trkpt lat="28.148508" lon="105.750683"><ele>1512.9674</ele><time>2026-08-16T03:55:03.000Z</time></trkpt>
        <trkpt lat="28.148497" lon="105.750685"><ele>1512.0531</ele><time>2026-08-16T03:55:05.000Z</time></trkpt>
        <trkpt lat="28.148487" lon="105.75069"><ele>1511.4073</ele><time>2026-08-16T03:55:07.000Z</time></trkpt>
        <trkpt lat="28.148479" lon="105.750696"><ele>1511.4755</ele><time>2026-08-16T03:55:09.000Z</time></trkpt>
        <trkpt lat="28.148469" lon="105.750706"><ele>1511.5623</ele><time>2026-08-16T03:55:13.000Z</time></trkpt>
        <trkpt lat="28.148464" lon="105.750712"><ele>1510.6187</ele><time>2026-08-16T03:55:15.000Z</time></trkpt>
        <trkpt lat="28.148458" lon="105.750722"><ele>1510.0214</ele><time>2026-08-16T03:55:19.000Z</time></trkpt>
        <trkpt lat="28.148448" lon="105.750737"><ele>1507.3475</ele><time>2026-08-16T03:55:25.000Z</time></trkpt>
        <trkpt lat="28.148436" lon="105.750754"><ele>1506.8451</ele><time>2026-08-16T03:55:27.000Z</time></trkpt>
        <trkpt lat="28.148435" lon="105.750755"><ele>1506.0372</ele><time>2026-08-16T03:55:29.000Z</time></trkpt>
        <trkpt lat="28.14843" lon="105.750763"><ele>1508.4233</ele><time>2026-08-16T03:55:35.000Z</time></trkpt>
        <trkpt lat="28.148428" lon="105.750786"><ele>1509.172</ele><time>2026-08-16T03:55:41.000Z</time></trkpt>
        <trkpt lat="28.148427" lon="105.7508"><ele>1508.409</ele><time>2026-08-16T03:55:43.000Z</time></trkpt>
        <trkpt lat="28.148427" lon="105.750801"><ele>1508.6381</ele><time>2026-08-16T03:55:45.000Z</time></trkpt>
        <trkpt lat="28.148426" lon="105.750824"><ele>1507.8877</ele><time>2026-08-16T03:55:51.000Z</time></trkpt>
        <trkpt lat="28.148425" lon="105.75084"><ele>1507.7279</ele><time>2026-08-16T03:55:53.000Z</time></trkpt>
        <trkpt lat="28.148424" lon="105.750855"><ele>1508.1458</ele><time>2026-08-16T03:55:55.000Z</time></trkpt>
        <trkpt lat="28.148422" lon="105.750855"><ele>1508.3359</ele><time>2026-08-16T03:55:57.000Z</time></trkpt>
        <trkpt lat="28.148338" lon="105.750863"><ele>1508.425</ele><time>2026-08-16T03:56:12.000Z</time></trkpt>
        <trkpt lat="28.148302" lon="105.75086"><ele>1506.781</ele><time>2026-08-16T03:56:27.000Z</time></trkpt>
        <trkpt lat="28.148282" lon="105.750857"><ele>1505.4407</ele><time>2026-08-16T03:56:32.000Z</time></trkpt>
        <trkpt lat="28.148252" lon="105.750853"><ele>1504.6161</ele><time>2026-08-16T03:56:34.000Z</time></trkpt>
        <trkpt lat="28.14825" lon="105.750853"><ele>1502.7878</ele><time>2026-08-16T03:56:36.000Z</time></trkpt>
        <trkpt lat="28.148249" lon="105.750852"><ele>1502.3245</ele><time>2026-08-16T03:56:38.000Z</time></trkpt>
        <trkpt lat="28.148225" lon="105.750839"><ele>1499.9025</ele><time>2026-08-16T03:56:50.000Z</time></trkpt>
        <trkpt lat="28.148208" lon="105.75083"><ele>1499.7721</ele><time>2026-08-16T03:56:52.000Z</time></trkpt>
        <trkpt lat="28.148207" lon="105.75083"><ele>1499.4153</ele><time>2026-08-16T03:56:54.000Z</time></trkpt>
        <trkpt lat="28.148197" lon="105.750834"><ele>1498.6138</ele><time>2026-08-16T03:56:58.000Z</time></trkpt>
        <trkpt lat="28.148175" lon="105.750843"><ele>1497.9263</ele><time>2026-08-16T03:57:02.000Z</time></trkpt>
        <trkpt lat="28.148175" lon="105.750843"><ele>1497.953</ele><time>2026-08-16T03:57:04.000Z</time></trkpt>
        <trkpt lat="28.148169" lon="105.750834"><ele>1497.5771</ele><time>2026-08-16T03:57:14.000Z</time></trkpt>
        <trkpt lat="28.148145" lon="105.7508"><ele>1494.8728</ele><time>2026-08-16T03:57:20.000Z</time></trkpt>
        <trkpt lat="28.148145" lon="105.7508"><ele>1495.258</ele><time>2026-08-16T03:57:22.000Z</time></trkpt>
        <trkpt lat="28.148144" lon="105.750799"><ele>1494.7792</ele><time>2026-08-16T03:57:24.000Z</time></trkpt>
        <trkpt lat="28.148126" lon="105.750771"><ele>1490.8452</ele><time>2026-08-16T03:57:32.000Z</time></trkpt>
        <trkpt lat="28.148115" lon="105.750752"><ele>1489.8466</ele><time>2026-08-16T03:57:34.000Z</time></trkpt>
        <trkpt lat="28.148114" lon="105.750751"><ele>1489.5261</ele><time>2026-08-16T03:57:36.000Z</time></trkpt>
        <trkpt lat="28.148108" lon="105.750737"><ele>1488.3021</ele><time>2026-08-16T03:57:42.000Z</time></trkpt>
        <trkpt lat="28.148098" lon="105.750718"><ele>1487.271</ele><time>2026-08-16T03:57:48.000Z</time></trkpt>
        <trkpt lat="28.148094" lon="105.750714"><ele>1487.2084</ele><time>2026-08-16T03:57:50.000Z</time></trkpt>
        <trkpt lat="28.148083" lon="105.750698"><ele>1487.1886</ele><time>2026-08-16T03:57:52.000Z</time></trkpt>
        <trkpt lat="28.148076" lon="105.750689"><ele>1487.255</ele><time>2026-08-16T03:57:58.000Z</time></trkpt>
        <trkpt lat="28.148068" lon="105.750677"><ele>1487.6095</ele><time>2026-08-16T03:58:00.000Z</time></trkpt>
        <trkpt lat="28.148059" lon="105.750661"><ele>1487.4523</ele><time>2026-08-16T03:58:02.000Z</time></trkpt>
        <trkpt lat="28.14805" lon="105.750645"><ele>1487.1339</ele><time>2026-08-16T03:58:04.000Z</time></trkpt>
        <trkpt lat="28.148048" lon="105.750637"><ele>1485.3849</ele><time>2026-08-16T03:58:06.000Z</time></trkpt>
        <trkpt lat="28.148049" lon="105.750628"><ele>1484.2969</ele><time>2026-08-16T03:58:10.000Z</time></trkpt>
        <trkpt lat="28.148048" lon="105.75061"><ele>1482.407</ele><time>2026-08-16T03:58:16.000Z</time></trkpt>
        <trkpt lat="28.148046" lon="105.750605"><ele>1481.9633</ele><time>2026-08-16T03:58:18.000Z</time></trkpt>
        <trkpt lat="28.148039" lon="105.750595"><ele>1482.591</ele><time>2026-08-16T03:58:22.000Z</time></trkpt>
        <trkpt lat="28.148028" lon="105.750584"><ele>1482.3904</ele><time>2026-08-16T03:58:26.000Z</time></trkpt>
        <trkpt lat="28.148024" lon="105.75058"><ele>1481.0455</ele><time>2026-08-16T03:58:30.000Z</time></trkpt>
        <trkpt lat="28.148016" lon="105.750573"><ele>1479.984</ele><time>2026-08-16T03:58:34.000Z</time></trkpt>
        <trkpt lat="28.148009" lon="105.750556"><ele>1480.1405</ele><time>2026-08-16T03:58:40.000Z</time></trkpt>
        <trkpt lat="28.148001" lon="105.750537"><ele>1479.7982</ele><time>2026-08-16T03:58:42.000Z</time></trkpt>
        <trkpt lat="28.148001" lon="105.750535"><ele>1480.6276</ele><time>2026-08-16T03:58:44.000Z</time></trkpt>
        <trkpt lat="28.148004" lon="105.75052"><ele>1478.9739</ele><time>2026-08-16T03:58:50.000Z</time></trkpt>
        <trkpt lat="28.147997" lon="105.750502"><ele>1478.9266</ele><time>2026-08-16T03:58:56.000Z</time></trkpt>
        <trkpt lat="28.147988" lon="105.750481"><ele>1477.3071</ele><time>2026-08-16T03:58:58.000Z</time></trkpt>
        <trkpt lat="28.147987" lon="105.750479"><ele>1475.7063</ele><time>2026-08-16T03:59:00.000Z</time></trkpt>
        <trkpt lat="28.14798" lon="105.750469"><ele>1476.3116</ele><time>2026-08-16T03:59:04.000Z</time></trkpt>
        <trkpt lat="28.147966" lon="105.750452"><ele>1475.3047</ele><time>2026-08-16T03:59:06.000Z</time></trkpt>
        <trkpt lat="28.147951" lon="105.750435"><ele>1474.6567</ele><time>2026-08-16T03:59:08.000Z</time></trkpt>
        <trkpt lat="28.147941" lon="105.75042"><ele>1474.3566</ele><time>2026-08-16T03:59:10.000Z</time></trkpt>
        <trkpt lat="28.147937" lon="105.750411"><ele>1473.5829</ele><time>2026-08-16T03:59:12.000Z</time></trkpt>
        <trkpt lat="28.147932" lon="105.750403"><ele>1473.3176</ele><time>2026-08-16T03:59:14.000Z</time></trkpt>
        <trkpt lat="28.147921" lon="105.750393"><ele>1474.1368</ele><time>2026-08-16T03:59:20.000Z</time></trkpt>
        <trkpt lat="28.147908" lon="105.750382"><ele>1471.6108</ele><time>2026-08-16T03:59:32.000Z</time></trkpt>
        <trkpt lat="28.147908" lon="105.750382"><ele>1471.357</ele><time>2026-08-16T03:59:34.000Z</time></trkpt>
        <trkpt lat="28.1479" lon="105.750368"><ele>1470.7784</ele><time>2026-08-16T03:59:40.000Z</time></trkpt>
        <trkpt lat="28.147881" lon="105.750329"><ele>1470.6875</ele><time>2026-08-16T03:59:42.000Z</time></trkpt>
        <trkpt lat="28.14788" lon="105.750326"><ele>1470.7389</ele><time>2026-08-16T03:59:44.000Z</time></trkpt>
        <trkpt lat="28.147879" lon="105.750325"><ele>1470.384</ele><time>2026-08-16T03:59:46.000Z</time></trkpt>
        <trkpt lat="28.147865" lon="105.750276"><ele>1470.5243</ele><time>2026-08-16T03:59:52.000Z</time></trkpt>
        <trkpt lat="28.14786" lon="105.75026"><ele>1470.0228</ele><time>2026-08-16T03:59:54.000Z</time></trkpt>
        <trkpt lat="28.147857" lon="105.750248"><ele>1468.8381</ele><time>2026-08-16T03:59:56.000Z</time></trkpt>
        <trkpt lat="28.147852" lon="105.750242"><ele>1468.6455</ele><time>2026-08-16T03:59:58.000Z</time></trkpt>
        <trkpt lat="28.147837" lon="105.750224"><ele>1467.3677</ele><time>2026-08-16T04:00:02.000Z</time></trkpt>
        <trkpt lat="28.147831" lon="105.750214"><ele>1467.8156</ele><time>2026-08-16T04:00:04.000Z</time></trkpt>
        <trkpt lat="28.147822" lon="105.750208"><ele>1468.2103</ele><time>2026-08-16T04:00:06.000Z</time></trkpt>
        <trkpt lat="28.147809" lon="105.7502"><ele>1466.6483</ele><time>2026-08-16T04:00:14.000Z</time></trkpt>
        <trkpt lat="28.147803" lon="105.750196"><ele>1466.106</ele><time>2026-08-16T04:00:16.000Z</time></trkpt>
        <trkpt lat="28.147798" lon="105.75019"><ele>1465.5807</ele><time>2026-08-16T04:00:18.000Z</time></trkpt>
        <trkpt lat="28.147783" lon="105.750172"><ele>1464.4496</ele><time>2026-08-16T04:00:22.000Z</time></trkpt>
        <trkpt lat="28.147775" lon="105.750164"><ele>1464.4858</ele><time>2026-08-16T04:00:24.000Z</time></trkpt>
        <trkpt lat="28.147763" lon="105.750156"><ele>1464.8518</ele><time>2026-08-16T04:00:26.000Z</time></trkpt>
        <trkpt lat="28.147758" lon="105.750151"><ele>1464.3446</ele><time>2026-08-16T04:00:28.000Z</time></trkpt>
        <trkpt lat="28.147751" lon="105.750142"><ele>1463.1227</ele><time>2026-08-16T04:00:30.000Z</time></trkpt>
        <trkpt lat="28.147741" lon="105.75012"><ele>1464.6385</ele><time>2026-08-16T04:00:34.000Z</time></trkpt>
        <trkpt lat="28.14774" lon="105.750112"><ele>1463.6888</ele><time>2026-08-16T04:00:36.000Z</time></trkpt>
        <trkpt lat="28.147737" lon="105.7501"><ele>1463.5272</ele><time>2026-08-16T04:00:38.000Z</time></trkpt>
        <trkpt lat="28.147731" lon="105.750085"><ele>1464.204</ele><time>2026-08-16T04:00:42.000Z</time></trkpt>
        <trkpt lat="28.147726" lon="105.750067"><ele>1463.1687</ele><time>2026-08-16T04:00:44.000Z</time></trkpt>
        <trkpt lat="28.147725" lon="105.750066"><ele>1462.9786</ele><time>2026-08-16T04:00:46.000Z</time></trkpt>
        <trkpt lat="28.147706" lon="105.750054"><ele>1464.0856</ele><time>2026-08-16T04:00:52.000Z</time></trkpt>
        <trkpt lat="28.147693" lon="105.750042"><ele>1463.3264</ele><time>2026-08-16T04:00:54.000Z</time></trkpt>
        <trkpt lat="28.147683" lon="105.750031"><ele>1462.9387</ele><time>2026-08-16T04:00:56.000Z</time></trkpt>
        <trkpt lat="28.147674" lon="105.75002"><ele>1462.8522</ele><time>2026-08-16T04:00:58.000Z</time></trkpt>
        <trkpt lat="28.147664" lon="105.750007"><ele>1462.6667</ele><time>2026-08-16T04:01:00.000Z</time></trkpt>
        <trkpt lat="28.147655" lon="105.749997"><ele>1462.4769</ele><time>2026-08-16T04:01:02.000Z</time></trkpt>
        <trkpt lat="28.147647" lon="105.749989"><ele>1462.277</ele><time>2026-08-16T04:01:04.000Z</time></trkpt>
        <trkpt lat="28.147641" lon="105.749983"><ele>1462.3746</ele><time>2026-08-16T04:01:06.000Z</time></trkpt>
        <trkpt lat="28.14763" lon="105.749974"><ele>1462.5804</ele><time>2026-08-16T04:01:08.000Z</time></trkpt>
        <trkpt lat="28.147617" lon="105.749967"><ele>1461.9275</ele><time>2026-08-16T04:01:10.000Z</time></trkpt>
        <trkpt lat="28.147609" lon="105.749964"><ele>1461.992</ele><time>2026-08-16T04:01:12.000Z</time></trkpt>
        <trkpt lat="28.147603" lon="105.749962"><ele>1461.4655</ele><time>2026-08-16T04:01:14.000Z</time></trkpt>
        <trkpt lat="28.147583" lon="105.74996"><ele>1461.3208</ele><time>2026-08-16T04:01:18.000Z</time></trkpt>
        <trkpt lat="28.147575" lon="105.749958"><ele>1461.1256</ele><time>2026-08-16T04:01:20.000Z</time></trkpt>
        <trkpt lat="28.147567" lon="105.749956"><ele>1460.6427</ele><time>2026-08-16T04:01:22.000Z</time></trkpt>
        <trkpt lat="28.14756" lon="105.749946"><ele>1459.3136</ele><time>2026-08-16T04:01:26.000Z</time></trkpt>
        <trkpt lat="28.14755" lon="105.749934"><ele>1458.6255</ele><time>2026-08-16T04:01:30.000Z</time></trkpt>
        <trkpt lat="28.147538" lon="105.749919"><ele>1458.7928</ele><time>2026-08-16T04:01:32.000Z</time></trkpt>
        <trkpt lat="28.147536" lon="105.749918"><ele>1458.5366</ele><time>2026-08-16T04:01:34.000Z</time></trkpt>
        <trkpt lat="28.147517" lon="105.749905"><ele>1459.8413</ele><time>2026-08-16T04:01:38.000Z</time></trkpt>
        <trkpt lat="28.147495" lon="105.749894"><ele>1459.8481</ele><time>2026-08-16T04:01:40.000Z</time></trkpt>
        <trkpt lat="28.147472" lon="105.749887"><ele>1458.8274</ele><time>2026-08-16T04:01:42.000Z</time></trkpt>
        <trkpt lat="28.147452" lon="105.749886"><ele>1458.8524</ele><time>2026-08-16T04:01:44.000Z</time></trkpt>
        <trkpt lat="28.147436" lon="105.749883"><ele>1457.8761</ele><time>2026-08-16T04:01:46.000Z</time></trkpt>
        <trkpt lat="28.147419" lon="105.749878"><ele>1457.6791</ele><time>2026-08-16T04:01:48.000Z</time></trkpt>
        <trkpt lat="28.147401" lon="105.749871"><ele>1457.0946</ele><time>2026-08-16T04:01:50.000Z</time></trkpt>
        <trkpt lat="28.147384" lon="105.749864"><ele>1456.8828</ele><time>2026-08-16T04:01:52.000Z</time></trkpt>
        <trkpt lat="28.147365" lon="105.749856"><ele>1456.9861</ele><time>2026-08-16T04:01:54.000Z</time></trkpt>
        <trkpt lat="28.14735" lon="105.749847"><ele>1456.7313</ele><time>2026-08-16T04:01:56.000Z</time></trkpt>
        <trkpt lat="28.147338" lon="105.749836"><ele>1457.0002</ele><time>2026-08-16T04:01:58.000Z</time></trkpt>
        <trkpt lat="28.147324" lon="105.749821"><ele>1457.0806</ele><time>2026-08-16T04:02:00.000Z</time></trkpt>
        <trkpt lat="28.147307" lon="105.749801"><ele>1457.2687</ele><time>2026-08-16T04:02:02.000Z</time></trkpt>
        <trkpt lat="28.147288" lon="105.74978"><ele>1457.905</ele><time>2026-08-16T04:02:04.000Z</time></trkpt>
        <trkpt lat="28.147274" lon="105.749768"><ele>1456.4384</ele><time>2026-08-16T04:02:06.000Z</time></trkpt>
        <trkpt lat="28.14726" lon="105.749757"><ele>1454.8744</ele><time>2026-08-16T04:02:08.000Z</time></trkpt>
        <trkpt lat="28.147242" lon="105.749744"><ele>1456.0579</ele><time>2026-08-16T04:02:10.000Z</time></trkpt>
        <trkpt lat="28.14723" lon="105.749739"><ele>1455.3898</ele><time>2026-08-16T04:02:12.000Z</time></trkpt>
        <trkpt lat="28.147222" lon="105.749736"><ele>1453.5637</ele><time>2026-08-16T04:02:14.000Z</time></trkpt>
        <trkpt lat="28.147214" lon="105.74973"><ele>1450.576</ele><time>2026-08-16T04:02:18.000Z</time></trkpt>
        <trkpt lat="28.147187" lon="105.749711"><ele>1448.6589</ele><time>2026-08-16T04:02:22.000Z</time></trkpt>
        <trkpt lat="28.147187" lon="105.749711"><ele>1449.6207</ele><time>2026-08-16T04:02:24.000Z</time></trkpt>
        <trkpt lat="28.147185" lon="105.74971"><ele>1449.3174</ele><time>2026-08-16T04:02:26.000Z</time></trkpt>
        <trkpt lat="28.147159" lon="105.749695"><ele>1450.1224</ele><time>2026-08-16T04:02:30.000Z</time></trkpt>
        <trkpt lat="28.14714" lon="105.749689"><ele>1448.6853</ele><time>2026-08-16T04:02:32.000Z</time></trkpt>
        <trkpt lat="28.147123" lon="105.749689"><ele>1447.731</ele><time>2026-08-16T04:02:34.000Z</time></trkpt>
        <trkpt lat="28.147111" lon="105.749695"><ele>1446.6008</ele><time>2026-08-16T04:02:36.000Z</time></trkpt>
        <trkpt lat="28.147103" lon="105.749704"><ele>1445.452</ele><time>2026-08-16T04:02:38.000Z</time></trkpt>
        <trkpt lat="28.147095" lon="105.749716"><ele>1446.2397</ele><time>2026-08-16T04:02:40.000Z</time></trkpt>
        <trkpt lat="28.147087" lon="105.749723"><ele>1445.8177</ele><time>2026-08-16T04:02:42.000Z</time></trkpt>
        <trkpt lat="28.147083" lon="105.749722"><ele>1445.6151</ele><time>2026-08-16T04:02:44.000Z</time></trkpt>
        <trkpt lat="28.147068" lon="105.74971"><ele>1444.5621</ele><time>2026-08-16T04:02:48.000Z</time></trkpt>
        <trkpt lat="28.14706" lon="105.749699"><ele>1443.72</ele><time>2026-08-16T04:02:50.000Z</time></trkpt>
        <trkpt lat="28.147053" lon="105.749686"><ele>1442.6511</ele><time>2026-08-16T04:02:52.000Z</time></trkpt>
        <trkpt lat="28.147047" lon="105.749674"><ele>1441.1682</ele><time>2026-08-16T04:02:54.000Z</time></trkpt>
        <trkpt lat="28.147044" lon="105.749666"><ele>1440.0071</ele><time>2026-08-16T04:02:56.000Z</time></trkpt>
        <trkpt lat="28.147037" lon="105.749642"><ele>1437.3221</ele><time>2026-08-16T04:03:00.000Z</time></trkpt>
        <trkpt lat="28.147031" lon="105.749624"><ele>1435.7185</ele><time>2026-08-16T04:03:02.000Z</time></trkpt>
        <trkpt lat="28.147024" lon="105.749604"><ele>1434.3582</ele><time>2026-08-16T04:03:04.000Z</time></trkpt>
        <trkpt lat="28.147017" lon="105.749588"><ele>1434.083</ele><time>2026-08-16T04:03:06.000Z</time></trkpt>
        <trkpt lat="28.147009" lon="105.749572"><ele>1433.741</ele><time>2026-08-16T04:03:08.000Z</time></trkpt>
        <trkpt lat="28.146998" lon="105.749554"><ele>1432.7709</ele><time>2026-08-16T04:03:10.000Z</time></trkpt>
        <trkpt lat="28.146989" lon="105.749536"><ele>1432.336</ele><time>2026-08-16T04:03:12.000Z</time></trkpt>
        <trkpt lat="28.146981" lon="105.749521"><ele>1431.8798</ele><time>2026-08-16T04:03:14.000Z</time></trkpt>
        <trkpt lat="28.146972" lon="105.749509"><ele>1432.5856</ele><time>2026-08-16T04:03:16.000Z</time></trkpt>
        <trkpt lat="28.146964" lon="105.749499"><ele>1432.5178</ele><time>2026-08-16T04:03:18.000Z</time></trkpt>
        <trkpt lat="28.146957" lon="105.749488"><ele>1432.5693</ele><time>2026-08-16T04:03:20.000Z</time></trkpt>
        <trkpt lat="28.146953" lon="105.749479"><ele>1432.5637</ele><time>2026-08-16T04:03:22.000Z</time></trkpt>
        <trkpt lat="28.146947" lon="105.749467"><ele>1431.4147</ele><time>2026-08-16T04:03:24.000Z</time></trkpt>
        <trkpt lat="28.146942" lon="105.749455"><ele>1430.229</ele><time>2026-08-16T04:03:26.000Z</time></trkpt>
        <trkpt lat="28.146938" lon="105.749442"><ele>1429.7756</ele><time>2026-08-16T04:03:28.000Z</time></trkpt>
        <trkpt lat="28.146934" lon="105.749429"><ele>1428.8682</ele><time>2026-08-16T04:03:30.000Z</time></trkpt>
        <trkpt lat="28.146929" lon="105.749415"><ele>1426.6824</ele><time>2026-08-16T04:03:32.000Z</time></trkpt>
        <trkpt lat="28.146925" lon="105.749403"><ele>1426.1561</ele><time>2026-08-16T04:03:34.000Z</time></trkpt>
        <trkpt lat="28.146923" lon="105.749394"><ele>1426.5165</ele><time>2026-08-16T04:03:36.000Z</time></trkpt>
        <trkpt lat="28.146921" lon="105.749373"><ele>1425.553</ele><time>2026-08-16T04:03:42.000Z</time></trkpt>
        <trkpt lat="28.146917" lon="105.749365"><ele>1425.4747</ele><time>2026-08-16T04:03:44.000Z</time></trkpt>
        <trkpt lat="28.146912" lon="105.749351"><ele>1425.1995</ele><time>2026-08-16T04:03:46.000Z</time></trkpt>
        <trkpt lat="28.146905" lon="105.749336"><ele>1424.6847</ele><time>2026-08-16T04:03:54.000Z</time></trkpt>
        <trkpt lat="28.146901" lon="105.749328"><ele>1423.2028</ele><time>2026-08-16T04:03:56.000Z</time></trkpt>
        <trkpt lat="28.146892" lon="105.749308"><ele>1422.652</ele><time>2026-08-16T04:03:58.000Z</time></trkpt>
        <trkpt lat="28.146892" lon="105.749306"><ele>1422.5968</ele><time>2026-08-16T04:04:02.000Z</time></trkpt>
        <trkpt lat="28.146892" lon="105.749283"><ele>1422.1189</ele><time>2026-08-16T04:04:06.000Z</time></trkpt>
        <trkpt lat="28.14689" lon="105.749269"><ele>1422.1871</ele><time>2026-08-16T04:04:08.000Z</time></trkpt>
        <trkpt lat="28.146887" lon="105.749259"><ele>1421.8077</ele><time>2026-08-16T04:04:10.000Z</time></trkpt>
        <trkpt lat="28.146885" lon="105.749247"><ele>1420.7722</ele><time>2026-08-16T04:04:14.000Z</time></trkpt>
        <trkpt lat="28.146882" lon="105.749234"><ele>1420.3865</ele><time>2026-08-16T04:04:18.000Z</time></trkpt>
        <trkpt lat="28.146879" lon="105.749226"><ele>1420.972</ele><time>2026-08-16T04:04:20.000Z</time></trkpt>
        <trkpt lat="28.146865" lon="105.749197"><ele>1421.1007</ele><time>2026-08-16T04:04:22.000Z</time></trkpt>
        <trkpt lat="28.146864" lon="105.749194"><ele>1422.0996</ele><time>2026-08-16T04:04:24.000Z</time></trkpt>
        <trkpt lat="28.146864" lon="105.749192"><ele>1422.6122</ele><time>2026-08-16T04:04:26.000Z</time></trkpt>
        <trkpt lat="28.146856" lon="105.749164"><ele>1423.4402</ele><time>2026-08-16T04:04:30.000Z</time></trkpt>
        <trkpt lat="28.146849" lon="105.749146"><ele>1423.2677</ele><time>2026-08-16T04:04:32.000Z</time></trkpt>
        <trkpt lat="28.14684" lon="105.749128"><ele>1422.9672</ele><time>2026-08-16T04:04:34.000Z</time></trkpt>
        <trkpt lat="28.146832" lon="105.749114"><ele>1422.1873</ele><time>2026-08-16T04:04:36.000Z</time></trkpt>
        <trkpt lat="28.146827" lon="105.749103"><ele>1421.9382</ele><time>2026-08-16T04:04:38.000Z</time></trkpt>
        <trkpt lat="28.146823" lon="105.749095"><ele>1420.4279</ele><time>2026-08-16T04:04:42.000Z</time></trkpt>
        <trkpt lat="28.14681" lon="105.749082"><ele>1419.1805</ele><time>2026-08-16T04:04:46.000Z</time></trkpt>
        <trkpt lat="28.146806" lon="105.74908"><ele>1419.0337</ele><time>2026-08-16T04:04:48.000Z</time></trkpt>
        <trkpt lat="28.146792" lon="105.749073"><ele>1417.7919</ele><time>2026-08-16T04:04:52.000Z</time></trkpt>
        <trkpt lat="28.146771" lon="105.749063"><ele>1417.8842</ele><time>2026-08-16T04:04:56.000Z</time></trkpt>
        <trkpt lat="28.146771" lon="105.749063"><ele>1417.5378</ele><time>2026-08-16T04:04:58.000Z</time></trkpt>
        <trkpt lat="28.146738" lon="105.749031"><ele>1416.1261</ele><time>2026-08-16T04:05:04.000Z</time></trkpt>
        <trkpt lat="28.146738" lon="105.749031"><ele>1415.1932</ele><time>2026-08-16T04:05:06.000Z</time></trkpt>
        <trkpt lat="28.146737" lon="105.74903"><ele>1415.1493</ele><time>2026-08-16T04:05:08.000Z</time></trkpt>
        <trkpt lat="28.146706" lon="105.749004"><ele>1413.1345</ele><time>2026-08-16T04:05:22.000Z</time></trkpt>
        <trkpt lat="28.1467" lon="105.748998"><ele>1412.6168</ele><time>2026-08-16T04:05:24.000Z</time></trkpt>
        <trkpt lat="28.146698" lon="105.748991"><ele>1412.4921</ele><time>2026-08-16T04:05:26.000Z</time></trkpt>
        <trkpt lat="28.146692" lon="105.748973"><ele>1413.8206</ele><time>2026-08-16T04:05:30.000Z</time></trkpt>
        <trkpt lat="28.146685" lon="105.748952"><ele>1414.6924</ele><time>2026-08-16T04:05:32.000Z</time></trkpt>
        <trkpt lat="28.146684" lon="105.748951"><ele>1414.6667</ele><time>2026-08-16T04:05:34.000Z</time></trkpt>
        <trkpt lat="28.146669" lon="105.748939"><ele>1414.9344</ele><time>2026-08-16T04:05:40.000Z</time></trkpt>
        <trkpt lat="28.146656" lon="105.748931"><ele>1414.1699</ele><time>2026-08-16T04:05:42.000Z</time></trkpt>
        <trkpt lat="28.14664" lon="105.748924"><ele>1413.9266</ele><time>2026-08-16T04:05:44.000Z</time></trkpt>
        <trkpt lat="28.146626" lon="105.748918"><ele>1413.6263</ele><time>2026-08-16T04:05:46.000Z</time></trkpt>
        <trkpt lat="28.146615" lon="105.748911"><ele>1413.2722</ele><time>2026-08-16T04:05:48.000Z</time></trkpt>
        <trkpt lat="28.146605" lon="105.748903"><ele>1413.0205</ele><time>2026-08-16T04:05:50.000Z</time></trkpt>
        <trkpt lat="28.146594" lon="105.748894"><ele>1412.5541</ele><time>2026-08-16T04:05:52.000Z</time></trkpt>
        <trkpt lat="28.146585" lon="105.748885"><ele>1410.9703</ele><time>2026-08-16T04:05:54.000Z</time></trkpt>
        <trkpt lat="28.146574" lon="105.748874"><ele>1410.2212</ele><time>2026-08-16T04:05:56.000Z</time></trkpt>
        <trkpt lat="28.146565" lon="105.748864"><ele>1409.2329</ele><time>2026-08-16T04:05:58.000Z</time></trkpt>
        <trkpt lat="28.146559" lon="105.748853"><ele>1409.3315</ele><time>2026-08-16T04:06:00.000Z</time></trkpt>
        <trkpt lat="28.146554" lon="105.748841"><ele>1409.5514</ele><time>2026-08-16T04:06:02.000Z</time></trkpt>
        <trkpt lat="28.146552" lon="105.748826"><ele>1410.0692</ele><time>2026-08-16T04:06:04.000Z</time></trkpt>
        <trkpt lat="28.14655" lon="105.748808"><ele>1408.571</ele><time>2026-08-16T04:06:06.000Z</time></trkpt>
        <trkpt lat="28.146546" lon="105.74879"><ele>1407.2</ele><time>2026-08-16T04:06:08.000Z</time></trkpt>
        <trkpt lat="28.14654" lon="105.748769"><ele>1406.5511</ele><time>2026-08-16T04:06:10.000Z</time></trkpt>
        <trkpt lat="28.146534" lon="105.748752"><ele>1405.737</ele><time>2026-08-16T04:06:12.000Z</time></trkpt>
        <trkpt lat="28.146533" lon="105.74874"><ele>1402.895</ele><time>2026-08-16T04:06:14.000Z</time></trkpt>
        <trkpt lat="28.146532" lon="105.748726"><ele>1403.8163</ele><time>2026-08-16T04:06:16.000Z</time></trkpt>
        <trkpt lat="28.14653" lon="105.74871"><ele>1404.1522</ele><time>2026-08-16T04:06:18.000Z</time></trkpt>
        <trkpt lat="28.146528" lon="105.748696"><ele>1404.4774</ele><time>2026-08-16T04:06:20.000Z</time></trkpt>
        <trkpt lat="28.146527" lon="105.748683"><ele>1404.0049</ele><time>2026-08-16T04:06:22.000Z</time></trkpt>
        <trkpt lat="28.146524" lon="105.748676"><ele>1403.7173</ele><time>2026-08-16T04:06:24.000Z</time></trkpt>
        <trkpt lat="28.146513" lon="105.748668"><ele>1403.3928</ele><time>2026-08-16T04:06:28.000Z</time></trkpt>
        <trkpt lat="28.1465" lon="105.74866"><ele>1404.3612</ele><time>2026-08-16T04:06:30.000Z</time></trkpt>
        <trkpt lat="28.146498" lon="105.74866"><ele>1404.5286</ele><time>2026-08-16T04:06:34.000Z</time></trkpt>
        <trkpt lat="28.146481" lon="105.748663"><ele>1403.9729</ele><time>2026-08-16T04:06:38.000Z</time></trkpt>
        <trkpt lat="28.146465" lon="105.748668"><ele>1403.8143</ele><time>2026-08-16T04:06:40.000Z</time></trkpt>
        <trkpt lat="28.146449" lon="105.748674"><ele>1403.8821</ele><time>2026-08-16T04:06:42.000Z</time></trkpt>
        <trkpt lat="28.146435" lon="105.748679"><ele>1403.6293</ele><time>2026-08-16T04:06:44.000Z</time></trkpt>
        <trkpt lat="28.14642" lon="105.748681"><ele>1403.5167</ele><time>2026-08-16T04:06:46.000Z</time></trkpt>
        <trkpt lat="28.146407" lon="105.748681"><ele>1403.6495</ele><time>2026-08-16T04:06:48.000Z</time></trkpt>
        <trkpt lat="28.146395" lon="105.748682"><ele>1403.2284</ele><time>2026-08-16T04:06:50.000Z</time></trkpt>
        <trkpt lat="28.146383" lon="105.74868"><ele>1403.5011</ele><time>2026-08-16T04:06:52.000Z</time></trkpt>
        <trkpt lat="28.14637" lon="105.748676"><ele>1403.5803</ele><time>2026-08-16T04:06:54.000Z</time></trkpt>
        <trkpt lat="28.146355" lon="105.74867"><ele>1402.5668</ele><time>2026-08-16T04:06:56.000Z</time></trkpt>
        <trkpt lat="28.146342" lon="105.748664"><ele>1402.3661</ele><time>2026-08-16T04:06:58.000Z</time></trkpt>
        <trkpt lat="28.146329" lon="105.748658"><ele>1402.3042</ele><time>2026-08-16T04:07:00.000Z</time></trkpt>
        <trkpt lat="28.146314" lon="105.748655"><ele>1402.7573</ele><time>2026-08-16T04:07:02.000Z</time></trkpt>
        <trkpt lat="28.146298" lon="105.748653"><ele>1402.7639</ele><time>2026-08-16T04:07:04.000Z</time></trkpt>
        <trkpt lat="28.146283" lon="105.748653"><ele>1402.0587</ele><time>2026-08-16T04:07:06.000Z</time></trkpt>
        <trkpt lat="28.146268" lon="105.748652"><ele>1402.0162</ele><time>2026-08-16T04:07:08.000Z</time></trkpt>
        <trkpt lat="28.146255" lon="105.748649"><ele>1401.6552</ele><time>2026-08-16T04:07:10.000Z</time></trkpt>
        <trkpt lat="28.146239" lon="105.748643"><ele>1401.8022</ele><time>2026-08-16T04:07:12.000Z</time></trkpt>
        <trkpt lat="28.146224" lon="105.748636"><ele>1401.3666</ele><time>2026-08-16T04:07:14.000Z</time></trkpt>
        <trkpt lat="28.146209" lon="105.748629"><ele>1400.4679</ele><time>2026-08-16T04:07:16.000Z</time></trkpt>
        <trkpt lat="28.146196" lon="105.748621"><ele>1400.244</ele><time>2026-08-16T04:07:18.000Z</time></trkpt>
        <trkpt lat="28.146191" lon="105.748615"><ele>1399.1953</ele><time>2026-08-16T04:07:20.000Z</time></trkpt>
        <trkpt lat="28.14619" lon="105.748608"><ele>1398.7147</ele><time>2026-08-16T04:07:22.000Z</time></trkpt>
        <trkpt lat="28.146184" lon="105.748577"><ele>1397.878</ele><time>2026-08-16T04:07:26.000Z</time></trkpt>
        <trkpt lat="28.146181" lon="105.748563"><ele>1397.1377</ele><time>2026-08-16T04:07:28.000Z</time></trkpt>
        <trkpt lat="28.146176" lon="105.748548"><ele>1397.1556</ele><time>2026-08-16T04:07:30.000Z</time></trkpt>
        <trkpt lat="28.14617" lon="105.748536"><ele>1396.5706</ele><time>2026-08-16T04:07:32.000Z</time></trkpt>
        <trkpt lat="28.146163" lon="105.748528"><ele>1396.5569</ele><time>2026-08-16T04:07:34.000Z</time></trkpt>
        <trkpt lat="28.146154" lon="105.748519"><ele>1395.4025</ele><time>2026-08-16T04:07:36.000Z</time></trkpt>
        <trkpt lat="28.146144" lon="105.748508"><ele>1395.3004</ele><time>2026-08-16T04:07:38.000Z</time></trkpt>
        <trkpt lat="28.146136" lon="105.748497"><ele>1395.226</ele><time>2026-08-16T04:07:40.000Z</time></trkpt>
        <trkpt lat="28.146128" lon="105.748486"><ele>1394.0259</ele><time>2026-08-16T04:07:42.000Z</time></trkpt>
        <trkpt lat="28.146117" lon="105.748475"><ele>1393.727</ele><time>2026-08-16T04:07:44.000Z</time></trkpt>
        <trkpt lat="28.146107" lon="105.748467"><ele>1393.806</ele><time>2026-08-16T04:07:46.000Z</time></trkpt>
        <trkpt lat="28.146097" lon="105.74846"><ele>1394.4412</ele><time>2026-08-16T04:07:48.000Z</time></trkpt>
        <trkpt lat="28.146086" lon="105.748456"><ele>1394.5405</ele><time>2026-08-16T04:07:50.000Z</time></trkpt>
        <trkpt lat="28.146077" lon="105.748456"><ele>1393.5267</ele><time>2026-08-16T04:07:52.000Z</time></trkpt>
        <trkpt lat="28.146068" lon="105.748455"><ele>1393.6124</ele><time>2026-08-16T04:07:54.000Z</time></trkpt>
        <trkpt lat="28.146057" lon="105.748453"><ele>1393.2921</ele><time>2026-08-16T04:07:56.000Z</time></trkpt>
        <trkpt lat="28.146046" lon="105.74845"><ele>1393.4382</ele><time>2026-08-16T04:07:58.000Z</time></trkpt>
        <trkpt lat="28.146033" lon="105.748445"><ele>1393.2678</ele><time>2026-08-16T04:08:00.000Z</time></trkpt>
        <trkpt lat="28.146019" lon="105.748442"><ele>1392.9552</ele><time>2026-08-16T04:08:02.000Z</time></trkpt>
        <trkpt lat="28.146007" lon="105.748439"><ele>1392.411</ele><time>2026-08-16T04:08:04.000Z</time></trkpt>
        <trkpt lat="28.145997" lon="105.748435"><ele>1391.5292</ele><time>2026-08-16T04:08:06.000Z</time></trkpt>
        <trkpt lat="28.145986" lon="105.748426"><ele>1391.0598</ele><time>2026-08-16T04:08:08.000Z</time></trkpt>
        <trkpt lat="28.145978" lon="105.748414"><ele>1390.734</ele><time>2026-08-16T04:08:10.000Z</time></trkpt>
        <trkpt lat="28.145973" lon="105.748398"><ele>1390.2307</ele><time>2026-08-16T04:08:12.000Z</time></trkpt>
        <trkpt lat="28.145971" lon="105.748383"><ele>1389.5358</ele><time>2026-08-16T04:08:14.000Z</time></trkpt>
        <trkpt lat="28.145969" lon="105.748363"><ele>1388.7808</ele><time>2026-08-16T04:08:16.000Z</time></trkpt>
        <trkpt lat="28.145967" lon="105.748344"><ele>1388.9653</ele><time>2026-08-16T04:08:18.000Z</time></trkpt>
        <trkpt lat="28.145963" lon="105.748329"><ele>1389.344</ele><time>2026-08-16T04:08:20.000Z</time></trkpt>
        <trkpt lat="28.145958" lon="105.748318"><ele>1388.8148</ele><time>2026-08-16T04:08:22.000Z</time></trkpt>
        <trkpt lat="28.145948" lon="105.748307"><ele>1388.2789</ele><time>2026-08-16T04:08:24.000Z</time></trkpt>
        <trkpt lat="28.145937" lon="105.748296"><ele>1387.6505</ele><time>2026-08-16T04:08:26.000Z</time></trkpt>
        <trkpt lat="28.145928" lon="105.748284"><ele>1387.1222</ele><time>2026-08-16T04:08:28.000Z</time></trkpt>
        <trkpt lat="28.14592" lon="105.748273"><ele>1386.3748</ele><time>2026-08-16T04:08:30.000Z</time></trkpt>
        <trkpt lat="28.145912" lon="105.748259"><ele>1386.3208</ele><time>2026-08-16T04:08:32.000Z</time></trkpt>
        <trkpt lat="28.145905" lon="105.748243"><ele>1385.963</ele><time>2026-08-16T04:08:34.000Z</time></trkpt>
        <trkpt lat="28.145899" lon="105.748228"><ele>1385.8071</ele><time>2026-08-16T04:08:36.000Z</time></trkpt>
        <trkpt lat="28.145892" lon="105.748212"><ele>1386.015</ele><time>2026-08-16T04:08:38.000Z</time></trkpt>
        <trkpt lat="28.145884" lon="105.7482"><ele>1385.9819</ele><time>2026-08-16T04:08:40.000Z</time></trkpt>
        <trkpt lat="28.145876" lon="105.748188"><ele>1385.1606</ele><time>2026-08-16T04:08:42.000Z</time></trkpt>
        <trkpt lat="28.145868" lon="105.748178"><ele>1384.9694</ele><time>2026-08-16T04:08:44.000Z</time></trkpt>
        <trkpt lat="28.145858" lon="105.74817"><ele>1385.2244</ele><time>2026-08-16T04:08:46.000Z</time></trkpt>
        <trkpt lat="28.145849" lon="105.748164"><ele>1385.0458</ele><time>2026-08-16T04:08:48.000Z</time></trkpt>
        <trkpt lat="28.145835" lon="105.748154"><ele>1385.5161</ele><time>2026-08-16T04:08:50.000Z</time></trkpt>
        <trkpt lat="28.145822" lon="105.748145"><ele>1385.5035</ele><time>2026-08-16T04:08:52.000Z</time></trkpt>
        <trkpt lat="28.14581" lon="105.74814"><ele>1384.4999</ele><time>2026-08-16T04:08:54.000Z</time></trkpt>
        <trkpt lat="28.145801" lon="105.748136"><ele>1383.7943</ele><time>2026-08-16T04:08:56.000Z</time></trkpt>
        <trkpt lat="28.145791" lon="105.748135"><ele>1383.6246</ele><time>2026-08-16T04:08:58.000Z</time></trkpt>
        <trkpt lat="28.145778" lon="105.748135"><ele>1383.0364</ele><time>2026-08-16T04:09:00.000Z</time></trkpt>
        <trkpt lat="28.145766" lon="105.748137"><ele>1382.7896</ele><time>2026-08-16T04:09:02.000Z</time></trkpt>
        <trkpt lat="28.145757" lon="105.74814"><ele>1382.7628</ele><time>2026-08-16T04:09:04.000Z</time></trkpt>
        <trkpt lat="28.14574" lon="105.748145"><ele>1382.1718</ele><time>2026-08-16T04:09:08.000Z</time></trkpt>
        <trkpt lat="28.145732" lon="105.748145"><ele>1380.1583</ele><time>2026-08-16T04:09:10.000Z</time></trkpt>
        <trkpt lat="28.145721" lon="105.748144"><ele>1380.0447</ele><time>2026-08-16T04:09:12.000Z</time></trkpt>
        <trkpt lat="28.145709" lon="105.748142"><ele>1379.6295</ele><time>2026-08-16T04:09:14.000Z</time></trkpt>
        <trkpt lat="28.1457" lon="105.748141"><ele>1379.2365</ele><time>2026-08-16T04:09:16.000Z</time></trkpt>
        <trkpt lat="28.145692" lon="105.748138"><ele>1378.8191</ele><time>2026-08-16T04:09:18.000Z</time></trkpt>
        <trkpt lat="28.145677" lon="105.748131"><ele>1377.9813</ele><time>2026-08-16T04:09:22.000Z</time></trkpt>
        <trkpt lat="28.145673" lon="105.748126"><ele>1377.2216</ele><time>2026-08-16T04:09:24.000Z</time></trkpt>
        <trkpt lat="28.145665" lon="105.748119"><ele>1376.8956</ele><time>2026-08-16T04:09:26.000Z</time></trkpt>
        <trkpt lat="28.145651" lon="105.74811"><ele>1376.5941</ele><time>2026-08-16T04:09:30.000Z</time></trkpt>
        <trkpt lat="28.145647" lon="105.748108"><ele>1376.1454</ele><time>2026-08-16T04:09:32.000Z</time></trkpt>
        <trkpt lat="28.145635" lon="105.7481"><ele>1373.9956</ele><time>2026-08-16T04:09:36.000Z</time></trkpt>
        <trkpt lat="28.145625" lon="105.74809"><ele>1374.371</ele><time>2026-08-16T04:09:40.000Z</time></trkpt>
        <trkpt lat="28.145621" lon="105.748083"><ele>1372.8967</ele><time>2026-08-16T04:09:42.000Z</time></trkpt>
        <trkpt lat="28.145615" lon="105.748068"><ele>1374.4075</ele><time>2026-08-16T04:09:46.000Z</time></trkpt>
        <trkpt lat="28.145614" lon="105.74806"><ele>1374.4893</ele><time>2026-08-16T04:09:48.000Z</time></trkpt>
        <trkpt lat="28.145608" lon="105.748043"><ele>1373.8483</ele><time>2026-08-16T04:09:50.000Z</time></trkpt>
        <trkpt lat="28.145602" lon="105.748036"><ele>1374.4286</ele><time>2026-08-16T04:09:56.000Z</time></trkpt>
        <trkpt lat="28.145593" lon="105.748028"><ele>1374.676</ele><time>2026-08-16T04:09:58.000Z</time></trkpt>
        <trkpt lat="28.145581" lon="105.748019"><ele>1375.6497</ele><time>2026-08-16T04:10:00.000Z</time></trkpt>
        <trkpt lat="28.14557" lon="105.748007"><ele>1375.0144</ele><time>2026-08-16T04:10:02.000Z</time></trkpt>
        <trkpt lat="28.145561" lon="105.747991"><ele>1374.5844</ele><time>2026-08-16T04:10:04.000Z</time></trkpt>
        <trkpt lat="28.145552" lon="105.747974"><ele>1373.959</ele><time>2026-08-16T04:10:06.000Z</time></trkpt>
        <trkpt lat="28.145547" lon="105.747957"><ele>1372.8978</ele><time>2026-08-16T04:10:08.000Z</time></trkpt>
        <trkpt lat="28.145542" lon="105.747936"><ele>1372.8772</ele><time>2026-08-16T04:10:10.000Z</time></trkpt>
        <trkpt lat="28.145537" lon="105.747913"><ele>1372.4922</ele><time>2026-08-16T04:10:12.000Z</time></trkpt>
        <trkpt lat="28.145534" lon="105.747889"><ele>1373.7979</ele><time>2026-08-16T04:10:14.000Z</time></trkpt>
        <trkpt lat="28.145535" lon="105.747867"><ele>1373.1875</ele><time>2026-08-16T04:10:16.000Z</time></trkpt>
        <trkpt lat="28.145537" lon="105.747846"><ele>1372.8578</ele><time>2026-08-16T04:10:18.000Z</time></trkpt>
        <trkpt lat="28.145539" lon="105.747832"><ele>1372.7719</ele><time>2026-08-16T04:10:20.000Z</time></trkpt>
        <trkpt lat="28.145544" lon="105.747821"><ele>1372.3749</ele><time>2026-08-16T04:10:22.000Z</time></trkpt>
        <trkpt lat="28.14555" lon="105.747813"><ele>1371.6812</ele><time>2026-08-16T04:10:24.000Z</time></trkpt>
        <trkpt lat="28.14556" lon="105.74781"><ele>1371.189</ele><time>2026-08-16T04:10:28.000Z</time></trkpt>
        <trkpt lat="28.145576" lon="105.747811"><ele>1370.5532</ele><time>2026-08-16T04:10:34.000Z</time></trkpt>
        <trkpt lat="28.145576" lon="105.747809"><ele>1369.5168</ele><time>2026-08-16T04:10:38.000Z</time></trkpt>
        <trkpt lat="28.145588" lon="105.747778"><ele>1366.7855</ele><time>2026-08-16T04:10:48.000Z</time></trkpt>
        <trkpt lat="28.145588" lon="105.747778"><ele>1366.0369</ele><time>2026-08-16T04:10:50.000Z</time></trkpt>
        <trkpt lat="28.145565" lon="105.747771"><ele>1364.7495</ele><time>2026-08-16T04:10:56.000Z</time></trkpt>
        <trkpt lat="28.14553" lon="105.747761"><ele>1364.2281</ele><time>2026-08-16T04:10:58.000Z</time></trkpt>
        <trkpt lat="28.145528" lon="105.74776"><ele>1364.1188</ele><time>2026-08-16T04:11:00.000Z</time></trkpt>
        <trkpt lat="28.145527" lon="105.747758"><ele>1363.6702</ele><time>2026-08-16T04:11:02.000Z</time></trkpt>
        <trkpt lat="28.145512" lon="105.747715"><ele>1366.0502</ele><time>2026-08-16T04:11:08.000Z</time></trkpt>
        <trkpt lat="28.145513" lon="105.747706"><ele>1364.426</ele><time>2026-08-16T04:11:10.000Z</time></trkpt>
        <trkpt lat="28.145515" lon="105.747705"><ele>1362.7664</ele><time>2026-08-16T04:11:12.000Z</time></trkpt>
        <trkpt lat="28.145535" lon="105.747691"><ele>1364.5265</ele><time>2026-08-16T04:11:22.000Z</time></trkpt>
        <trkpt lat="28.14554" lon="105.747686"><ele>1364.3322</ele><time>2026-08-16T04:11:24.000Z</time></trkpt>
        <trkpt lat="28.14554" lon="105.747686"><ele>1364.7317</ele><time>2026-08-16T04:11:26.000Z</time></trkpt>
        <trkpt lat="28.145521" lon="105.747657"><ele>1370.402</ele><time>2026-08-16T04:11:40.000Z</time></trkpt>
        <trkpt lat="28.145495" lon="105.747614"><ele>1370.9277</ele><time>2026-08-16T04:11:45.000Z</time></trkpt>
        <trkpt lat="28.145495" lon="105.747614"><ele>1371.531</ele><time>2026-08-16T04:11:47.000Z</time></trkpt>
        <trkpt lat="28.145494" lon="105.747614"><ele>1373.268</ele><time>2026-08-16T04:11:49.000Z</time></trkpt>
        <trkpt lat="28.145468" lon="105.747572"><ele>1374.2091</ele><time>2026-08-16T04:11:55.000Z</time></trkpt>
        <trkpt lat="28.145457" lon="105.747552"><ele>1373.853</ele><time>2026-08-16T04:11:57.000Z</time></trkpt>
        <trkpt lat="28.145448" lon="105.747532"><ele>1373.6322</ele><time>2026-08-16T04:11:59.000Z</time></trkpt>
        <trkpt lat="28.145435" lon="105.747507"><ele>1372.9042</ele><time>2026-08-16T04:12:01.000Z</time></trkpt>
        <trkpt lat="28.145423" lon="105.747481"><ele>1372.3442</ele><time>2026-08-16T04:12:03.000Z</time></trkpt>
        <trkpt lat="28.145415" lon="105.747462"><ele>1372.7844</ele><time>2026-08-16T04:12:05.000Z</time></trkpt>
        <trkpt lat="28.145405" lon="105.74744"><ele>1372.819</ele><time>2026-08-16T04:12:07.000Z</time></trkpt>
        <trkpt lat="28.145395" lon="105.747419"><ele>1372.7916</ele><time>2026-08-16T04:12:09.000Z</time></trkpt>
        <trkpt lat="28.145383" lon="105.747399"><ele>1373.2877</ele><time>2026-08-16T04:12:11.000Z</time></trkpt>
        <trkpt lat="28.145371" lon="105.747383"><ele>1373.2236</ele><time>2026-08-16T04:12:13.000Z</time></trkpt>
        <trkpt lat="28.145359" lon="105.747367"><ele>1372.9038</ele><time>2026-08-16T04:12:15.000Z</time></trkpt>
        <trkpt lat="28.145346" lon="105.747349"><ele>1373.6926</ele><time>2026-08-16T04:12:17.000Z</time></trkpt>
        <trkpt lat="28.145334" lon="105.747332"><ele>1375.0758</ele><time>2026-08-16T04:12:19.000Z</time></trkpt>
        <trkpt lat="28.145326" lon="105.747323"><ele>1373.7769</ele><time>2026-08-16T04:12:21.000Z</time></trkpt>
        <trkpt lat="28.145321" lon="105.747315"><ele>1373.1051</ele><time>2026-08-16T04:12:23.000Z</time></trkpt>
        <trkpt lat="28.145314" lon="105.747297"><ele>1370.114</ele><time>2026-08-16T04:12:33.000Z</time></trkpt>
        <trkpt lat="28.145313" lon="105.74729"><ele>1369.5422</ele><time>2026-08-16T04:12:35.000Z</time></trkpt>
        <trkpt lat="28.14531" lon="105.747281"><ele>1369.2421</ele><time>2026-08-16T04:12:37.000Z</time></trkpt>
        <trkpt lat="28.145299" lon="105.747253"><ele>1369.6115</ele><time>2026-08-16T04:12:41.000Z</time></trkpt>
        <trkpt lat="28.14529" lon="105.747235"><ele>1370.0295</ele><time>2026-08-16T04:12:43.000Z</time></trkpt>
        <trkpt lat="28.145283" lon="105.747219"><ele>1370.5308</ele><time>2026-08-16T04:12:45.000Z</time></trkpt>
        <trkpt lat="28.145276" lon="105.747201"><ele>1370.79</ele><time>2026-08-16T04:12:47.000Z</time></trkpt>
        <trkpt lat="28.145272" lon="105.747188"><ele>1370.2698</ele><time>2026-08-16T04:12:49.000Z</time></trkpt>
        <trkpt lat="28.145266" lon="105.747175"><ele>1370.5027</ele><time>2026-08-16T04:12:51.000Z</time></trkpt>
        <trkpt lat="28.145262" lon="105.747165"><ele>1369.898</ele><time>2026-08-16T04:12:53.000Z</time></trkpt>
        <trkpt lat="28.145256" lon="105.747155"><ele>1369.4888</ele><time>2026-08-16T04:12:55.000Z</time></trkpt>
        <trkpt lat="28.145249" lon="105.747145"><ele>1370.402</ele><time>2026-08-16T04:12:57.000Z</time></trkpt>
        <trkpt lat="28.145245" lon="105.747137"><ele>1370.2887</ele><time>2026-08-16T04:12:59.000Z</time></trkpt>
        <trkpt lat="28.14524" lon="105.747125"><ele>1368.6829</ele><time>2026-08-16T04:13:08.000Z</time></trkpt>
        <trkpt lat="28.145233" lon="105.747109"><ele>1368.8436</ele><time>2026-08-16T04:13:12.000Z</time></trkpt>
        <trkpt lat="28.145231" lon="105.747102"><ele>1367.1798</ele><time>2026-08-16T04:13:14.000Z</time></trkpt>
        <trkpt lat="28.145223" lon="105.747072"><ele>1365.9531</ele><time>2026-08-16T04:13:18.000Z</time></trkpt>
        <trkpt lat="28.145223" lon="105.747072"><ele>1365.4712</ele><time>2026-08-16T04:13:20.000Z</time></trkpt>
        <trkpt lat="28.145221" lon="105.74706"><ele>1364.9912</ele><time>2026-08-16T04:13:24.000Z</time></trkpt>
        <trkpt lat="28.145211" lon="105.747024"><ele>1366.1683</ele><time>2026-08-16T04:13:28.000Z</time></trkpt>
        <trkpt lat="28.145204" lon="105.747008"><ele>1366.8228</ele><time>2026-08-16T04:13:30.000Z</time></trkpt>
        <trkpt lat="28.145197" lon="105.746993"><ele>1366.9618</ele><time>2026-08-16T04:13:32.000Z</time></trkpt>
        <trkpt lat="28.145192" lon="105.746983"><ele>1366.4717</ele><time>2026-08-16T04:13:34.000Z</time></trkpt>
        <trkpt lat="28.145188" lon="105.746977"><ele>1365.4811</ele><time>2026-08-16T04:13:36.000Z</time></trkpt>
        <trkpt lat="28.145173" lon="105.746961"><ele>1365.0197</ele><time>2026-08-16T04:13:40.000Z</time></trkpt>
        <trkpt lat="28.145165" lon="105.746952"><ele>1364.7444</ele><time>2026-08-16T04:13:42.000Z</time></trkpt>
        <trkpt lat="28.145157" lon="105.74694"><ele>1364.7974</ele><time>2026-08-16T04:13:44.000Z</time></trkpt>
        <trkpt lat="28.145149" lon="105.746925"><ele>1365.0258</ele><time>2026-08-16T04:13:46.000Z</time></trkpt>
        <trkpt lat="28.145145" lon="105.74691"><ele>1365.0001</ele><time>2026-08-16T04:13:48.000Z</time></trkpt>
        <trkpt lat="28.145141" lon="105.746892"><ele>1364.1627</ele><time>2026-08-16T04:13:50.000Z</time></trkpt>
        <trkpt lat="28.145137" lon="105.746872"><ele>1362.831</ele><time>2026-08-16T04:13:52.000Z</time></trkpt>
        <trkpt lat="28.145136" lon="105.746854"><ele>1362.1167</ele><time>2026-08-16T04:13:54.000Z</time></trkpt>
        <trkpt lat="28.145134" lon="105.746836"><ele>1360.518</ele><time>2026-08-16T04:13:56.000Z</time></trkpt>
        <trkpt lat="28.14513" lon="105.74682"><ele>1359.299</ele><time>2026-08-16T04:13:58.000Z</time></trkpt>
        <trkpt lat="28.145123" lon="105.746799"><ele>1358.9916</ele><time>2026-08-16T04:14:00.000Z</time></trkpt>
        <trkpt lat="28.145116" lon="105.74678"><ele>1358.0587</ele><time>2026-08-16T04:14:02.000Z</time></trkpt>
        <trkpt lat="28.145108" lon="105.74676"><ele>1357.3767</ele><time>2026-08-16T04:14:04.000Z</time></trkpt>
        <trkpt lat="28.145105" lon="105.746742"><ele>1357.5692</ele><time>2026-08-16T04:14:06.000Z</time></trkpt>
        <trkpt lat="28.145103" lon="105.746724"><ele>1356.7557</ele><time>2026-08-16T04:14:08.000Z</time></trkpt>
        <trkpt lat="28.145101" lon="105.746707"><ele>1355.6653</ele><time>2026-08-16T04:14:10.000Z</time></trkpt>
        <trkpt lat="28.145097" lon="105.746695"><ele>1355.1556</ele><time>2026-08-16T04:14:12.000Z</time></trkpt>
        <trkpt lat="28.145091" lon="105.746677"><ele>1353.368</ele><time>2026-08-16T04:14:14.000Z</time></trkpt>
        <trkpt lat="28.145086" lon="105.746658"><ele>1352.2903</ele><time>2026-08-16T04:14:16.000Z</time></trkpt>
        <trkpt lat="28.145085" lon="105.746641"><ele>1351.9146</ele><time>2026-08-16T04:14:18.000Z</time></trkpt>
        <trkpt lat="28.145084" lon="105.746624"><ele>1349.1174</ele><time>2026-08-16T04:14:20.000Z</time></trkpt>
        <trkpt lat="28.145082" lon="105.746607"><ele>1347.8306</ele><time>2026-08-16T04:14:22.000Z</time></trkpt>
        <trkpt lat="28.145079" lon="105.746597"><ele>1346.8982</ele><time>2026-08-16T04:14:24.000Z</time></trkpt>
        <trkpt lat="28.145079" lon="105.746597"><ele>1346.9144</ele><time>2026-08-16T04:14:26.000Z</time></trkpt>
        <trkpt lat="28.145048" lon="105.746605"><ele>1336.7136</ele><time>2026-08-16T04:14:52.000Z</time></trkpt>
        <trkpt lat="28.145042" lon="105.746586"><ele>1335.4974</ele><time>2026-08-16T04:14:54.000Z</time></trkpt>
        <trkpt lat="28.145042" lon="105.746584"><ele>1335.5914</ele><time>2026-08-16T04:14:56.000Z</time></trkpt>
        <trkpt lat="28.145037" lon="105.746555"><ele>1335.1606</ele><time>2026-08-16T04:15:02.000Z</time></trkpt>
        <trkpt lat="28.145033" lon="105.746533"><ele>1334.9406</ele><time>2026-08-16T04:15:04.000Z</time></trkpt>
        <trkpt lat="28.14503" lon="105.746512"><ele>1334.4457</ele><time>2026-08-16T04:15:06.000Z</time></trkpt>
        <trkpt lat="28.145026" lon="105.746489"><ele>1333.6746</ele><time>2026-08-16T04:15:08.000Z</time></trkpt>
        <trkpt lat="28.145022" lon="105.746471"><ele>1333.476</ele><time>2026-08-16T04:15:10.000Z</time></trkpt>
        <trkpt lat="28.145019" lon="105.746455"><ele>1333.8173</ele><time>2026-08-16T04:15:12.000Z</time></trkpt>
        <trkpt lat="28.145018" lon="105.746441"><ele>1334.755</ele><time>2026-08-16T04:15:14.000Z</time></trkpt>
        <trkpt lat="28.145015" lon="105.746427"><ele>1335.2604</ele><time>2026-08-16T04:15:16.000Z</time></trkpt>
        <trkpt lat="28.145012" lon="105.746411"><ele>1334.5919</ele><time>2026-08-16T04:15:18.000Z</time></trkpt>
        <trkpt lat="28.145009" lon="105.746392"><ele>1334.5287</ele><time>2026-08-16T04:15:20.000Z</time></trkpt>
        <trkpt lat="28.145006" lon="105.746375"><ele>1333.5692</ele><time>2026-08-16T04:15:22.000Z</time></trkpt>
        <trkpt lat="28.145003" lon="105.746359"><ele>1332.9457</ele><time>2026-08-16T04:15:24.000Z</time></trkpt>
        <trkpt lat="28.144999" lon="105.746344"><ele>1332.636</ele><time>2026-08-16T04:15:26.000Z</time></trkpt>
        <trkpt lat="28.144993" lon="105.74633"><ele>1331.7943</ele><time>2026-08-16T04:15:28.000Z</time></trkpt>
        <trkpt lat="28.144988" lon="105.746316"><ele>1331.4741</ele><time>2026-08-16T04:15:30.000Z</time></trkpt>
        <trkpt lat="28.144982" lon="105.7463"><ele>1331.7374</ele><time>2026-08-16T04:15:32.000Z</time></trkpt>
        <trkpt lat="28.144974" lon="105.746283"><ele>1331.2445</ele><time>2026-08-16T04:15:34.000Z</time></trkpt>
        <trkpt lat="28.144968" lon="105.746274"><ele>1330.3817</ele><time>2026-08-16T04:15:36.000Z</time></trkpt>
        <trkpt lat="28.144958" lon="105.746263"><ele>1329.2473</ele><time>2026-08-16T04:15:38.000Z</time></trkpt>
        <trkpt lat="28.14495" lon="105.746251"><ele>1328.1125</ele><time>2026-08-16T04:15:40.000Z</time></trkpt>
        <trkpt lat="28.144946" lon="105.746237"><ele>1327.8936</ele><time>2026-08-16T04:15:42.000Z</time></trkpt>
        <trkpt lat="28.144944" lon="105.746219"><ele>1327.256</ele><time>2026-08-16T04:15:44.000Z</time></trkpt>
        <trkpt lat="28.144943" lon="105.7462"><ele>1326.7157</ele><time>2026-08-16T04:15:46.000Z</time></trkpt>
        <trkpt lat="28.144944" lon="105.746182"><ele>1326.2457</ele><time>2026-08-16T04:15:48.000Z</time></trkpt>
        <trkpt lat="28.144945" lon="105.746164"><ele>1326.4639</ele><time>2026-08-16T04:15:50.000Z</time></trkpt>
        <trkpt lat="28.144943" lon="105.746145"><ele>1326.3314</ele><time>2026-08-16T04:15:52.000Z</time></trkpt>
        <trkpt lat="28.144941" lon="105.746126"><ele>1325.9525</ele><time>2026-08-16T04:15:54.000Z</time></trkpt>
        <trkpt lat="28.144937" lon="105.746106"><ele>1325.5898</ele><time>2026-08-16T04:15:56.000Z</time></trkpt>
        <trkpt lat="28.144933" lon="105.74609"><ele>1324.7496</ele><time>2026-08-16T04:15:58.000Z</time></trkpt>
        <trkpt lat="28.144929" lon="105.746075"><ele>1324.838</ele><time>2026-08-16T04:16:00.000Z</time></trkpt>
        <trkpt lat="28.144922" lon="105.74606"><ele>1324.8407</ele><time>2026-08-16T04:16:02.000Z</time></trkpt>
        <trkpt lat="28.144915" lon="105.746045"><ele>1325.509</ele><time>2026-08-16T04:16:04.000Z</time></trkpt>
        <trkpt lat="28.144908" lon="105.746035"><ele>1325.6061</ele><time>2026-08-16T04:16:06.000Z</time></trkpt>
        <trkpt lat="28.144901" lon="105.746025"><ele>1325.3665</ele><time>2026-08-16T04:16:08.000Z</time></trkpt>
        <trkpt lat="28.144897" lon="105.746017"><ele>1325.5314</ele><time>2026-08-16T04:16:10.000Z</time></trkpt>
        <trkpt lat="28.144889" lon="105.746002"><ele>1325.63</ele><time>2026-08-16T04:16:12.000Z</time></trkpt>
        <trkpt lat="28.144882" lon="105.745989"><ele>1326.5455</ele><time>2026-08-16T04:16:14.000Z</time></trkpt>
        <trkpt lat="28.144877" lon="105.745976"><ele>1324.875</ele><time>2026-08-16T04:16:16.000Z</time></trkpt>
        <trkpt lat="28.144872" lon="105.745964"><ele>1323.5225</ele><time>2026-08-16T04:16:18.000Z</time></trkpt>
        <trkpt lat="28.144871" lon="105.745951"><ele>1322.7361</ele><time>2026-08-16T04:16:20.000Z</time></trkpt>
        <trkpt lat="28.144873" lon="105.745936"><ele>1322.4806</ele><time>2026-08-16T04:16:22.000Z</time></trkpt>
        <trkpt lat="28.144877" lon="105.745918"><ele>1322.8259</ele><time>2026-08-16T04:16:24.000Z</time></trkpt>
        <trkpt lat="28.14488" lon="105.745901"><ele>1322.3018</ele><time>2026-08-16T04:16:26.000Z</time></trkpt>
        <trkpt lat="28.144881" lon="105.745884"><ele>1323.2008</ele><time>2026-08-16T04:16:28.000Z</time></trkpt>
        <trkpt lat="28.144881" lon="105.745865"><ele>1323.62</ele><time>2026-08-16T04:16:30.000Z</time></trkpt>
        <trkpt lat="28.144883" lon="105.745845"><ele>1323.3639</ele><time>2026-08-16T04:16:32.000Z</time></trkpt>
        <trkpt lat="28.144884" lon="105.74583"><ele>1323.2557</ele><time>2026-08-16T04:16:34.000Z</time></trkpt>
        <trkpt lat="28.144884" lon="105.745818"><ele>1322.3832</ele><time>2026-08-16T04:16:36.000Z</time></trkpt>
        <trkpt lat="28.144884" lon="105.745804"><ele>1321.7532</ele><time>2026-08-16T04:16:38.000Z</time></trkpt>
        <trkpt lat="28.144884" lon="105.745787"><ele>1321.4366</ele><time>2026-08-16T04:16:40.000Z</time></trkpt>
        <trkpt lat="28.144881" lon="105.745771"><ele>1321.061</ele><time>2026-08-16T04:16:42.000Z</time></trkpt>
        <trkpt lat="28.144876" lon="105.745754"><ele>1321.5929</ele><time>2026-08-16T04:16:44.000Z</time></trkpt>
        <trkpt lat="28.14487" lon="105.745736"><ele>1322.2909</ele><time>2026-08-16T04:16:46.000Z</time></trkpt>
        <trkpt lat="28.144864" lon="105.745716"><ele>1321.5696</ele><time>2026-08-16T04:16:48.000Z</time></trkpt>
        <trkpt lat="28.144861" lon="105.745701"><ele>1322.0013</ele><time>2026-08-16T04:16:50.000Z</time></trkpt>
        <trkpt lat="28.144862" lon="105.745683"><ele>1321.9423</ele><time>2026-08-16T04:16:52.000Z</time></trkpt>
        <trkpt lat="28.144864" lon="105.745669"><ele>1321.9791</ele><time>2026-08-16T04:16:54.000Z</time></trkpt>
        <trkpt lat="28.144867" lon="105.745653"><ele>1321.5403</ele><time>2026-08-16T04:16:56.000Z</time></trkpt>
        <trkpt lat="28.144867" lon="105.745638"><ele>1322.0582</ele><time>2026-08-16T04:16:58.000Z</time></trkpt>
        <trkpt lat="28.144864" lon="105.745622"><ele>1321.1885</ele><time>2026-08-16T04:17:00.000Z</time></trkpt>
        <trkpt lat="28.144858" lon="105.745603"><ele>1321.2703</ele><time>2026-08-16T04:17:02.000Z</time></trkpt>
        <trkpt lat="28.144852" lon="105.745585"><ele>1320.3278</ele><time>2026-08-16T04:17:04.000Z</time></trkpt>
        <trkpt lat="28.144848" lon="105.745565"><ele>1320.4113</ele><time>2026-08-16T04:17:06.000Z</time></trkpt>
        <trkpt lat="28.144844" lon="105.745546"><ele>1320.9005</ele><time>2026-08-16T04:17:08.000Z</time></trkpt>
        <trkpt lat="28.14484" lon="105.745527"><ele>1320.3789</ele><time>2026-08-16T04:17:10.000Z</time></trkpt>
        <trkpt lat="28.144837" lon="105.745511"><ele>1318.31</ele><time>2026-08-16T04:17:12.000Z</time></trkpt>
        <trkpt lat="28.144834" lon="105.745496"><ele>1318.0814</ele><time>2026-08-16T04:17:14.000Z</time></trkpt>
        <trkpt lat="28.144833" lon="105.74548"><ele>1317.517</ele><time>2026-08-16T04:17:16.000Z</time></trkpt>
        <trkpt lat="28.144832" lon="105.745464"><ele>1317.3173</ele><time>2026-08-16T04:17:18.000Z</time></trkpt>
        <trkpt lat="28.144831" lon="105.745445"><ele>1316.2916</ele><time>2026-08-16T04:17:20.000Z</time></trkpt>
        <trkpt lat="28.144829" lon="105.745429"><ele>1315.3577</ele><time>2026-08-16T04:17:22.000Z</time></trkpt>
        <trkpt lat="28.144824" lon="105.745413"><ele>1314.8147</ele><time>2026-08-16T04:17:24.000Z</time></trkpt>
        <trkpt lat="28.144818" lon="105.745399"><ele>1314.6213</ele><time>2026-08-16T04:17:26.000Z</time></trkpt>
        <trkpt lat="28.144809" lon="105.745382"><ele>1314.7456</ele><time>2026-08-16T04:17:28.000Z</time></trkpt>
        <trkpt lat="28.144802" lon="105.745365"><ele>1314.8015</ele><time>2026-08-16T04:17:30.000Z</time></trkpt>
        <trkpt lat="28.144798" lon="105.745353"><ele>1314.7382</ele><time>2026-08-16T04:17:32.000Z</time></trkpt>
        <trkpt lat="28.144795" lon="105.745339"><ele>1314.5333</ele><time>2026-08-16T04:17:34.000Z</time></trkpt>
        <trkpt lat="28.144791" lon="105.745321"><ele>1314.5541</ele><time>2026-08-16T04:17:36.000Z</time></trkpt>
        <trkpt lat="28.144784" lon="105.745304"><ele>1315.0399</ele><time>2026-08-16T04:17:38.000Z</time></trkpt>
        <trkpt lat="28.144779" lon="105.745288"><ele>1315.3861</ele><time>2026-08-16T04:17:40.000Z</time></trkpt>
        <trkpt lat="28.144772" lon="105.745273"><ele>1315.1924</ele><time>2026-08-16T04:17:42.000Z</time></trkpt>
        <trkpt lat="28.144761" lon="105.745258"><ele>1315.5088</ele><time>2026-08-16T04:17:44.000Z</time></trkpt>
        <trkpt lat="28.14475" lon="105.745242"><ele>1315.0834</ele><time>2026-08-16T04:17:46.000Z</time></trkpt>
        <trkpt lat="28.144741" lon="105.745226"><ele>1314.854</ele><time>2026-08-16T04:17:48.000Z</time></trkpt>
        <trkpt lat="28.14473" lon="105.745209"><ele>1315.0098</ele><time>2026-08-16T04:17:50.000Z</time></trkpt>
        <trkpt lat="28.144719" lon="105.745188"><ele>1314.396</ele><time>2026-08-16T04:17:52.000Z</time></trkpt>
        <trkpt lat="28.14471" lon="105.745168"><ele>1313.9165</ele><time>2026-08-16T04:17:54.000Z</time></trkpt>
        <trkpt lat="28.144701" lon="105.745145"><ele>1313.7662</ele><time>2026-08-16T04:17:56.000Z</time></trkpt>
        <trkpt lat="28.144688" lon="105.745125"><ele>1314.387</ele><time>2026-08-16T04:17:58.000Z</time></trkpt>
        <trkpt lat="28.144676" lon="105.745106"><ele>1314.1791</ele><time>2026-08-16T04:18:00.000Z</time></trkpt>
        <trkpt lat="28.144664" lon="105.745089"><ele>1313.2596</ele><time>2026-08-16T04:18:02.000Z</time></trkpt>
        <trkpt lat="28.144651" lon="105.74507"><ele>1312.17</ele><time>2026-08-16T04:18:04.000Z</time></trkpt>
        <trkpt lat="28.144636" lon="105.74505"><ele>1312.2922</ele><time>2026-08-16T04:18:06.000Z</time></trkpt>
        <trkpt lat="28.144625" lon="105.745033"><ele>1310.9988</ele><time>2026-08-16T04:18:08.000Z</time></trkpt>
        <trkpt lat="28.144616" lon="105.745016"><ele>1311.1067</ele><time>2026-08-16T04:18:10.000Z</time></trkpt>
        <trkpt lat="28.14461" lon="105.745"><ele>1310.9962</ele><time>2026-08-16T04:18:12.000Z</time></trkpt>
        <trkpt lat="28.144606" lon="105.744986"><ele>1310.2892</ele><time>2026-08-16T04:18:14.000Z</time></trkpt>
        <trkpt lat="28.144601" lon="105.744971"><ele>1309.8502</ele><time>2026-08-16T04:18:16.000Z</time></trkpt>
        <trkpt lat="28.144594" lon="105.744953"><ele>1308.9904</ele><time>2026-08-16T04:18:18.000Z</time></trkpt>
        <trkpt lat="28.144584" lon="105.744934"><ele>1309.5679</ele><time>2026-08-16T04:18:20.000Z</time></trkpt>
        <trkpt lat="28.144574" lon="105.744917"><ele>1309.6001</ele><time>2026-08-16T04:18:22.000Z</time></trkpt>
        <trkpt lat="28.14456" lon="105.744897"><ele>1308.8932</ele><time>2026-08-16T04:18:24.000Z</time></trkpt>
        <trkpt lat="28.144546" lon="105.744875"><ele>1309.0964</ele><time>2026-08-16T04:18:26.000Z</time></trkpt>
        <trkpt lat="28.144533" lon="105.744854"><ele>1308.8489</ele><time>2026-08-16T04:18:28.000Z</time></trkpt>
        <trkpt lat="28.144524" lon="105.744832"><ele>1308.0388</ele><time>2026-08-16T04:18:30.000Z</time></trkpt>
        <trkpt lat="28.144516" lon="105.744809"><ele>1307.9838</ele><time>2026-08-16T04:18:32.000Z</time></trkpt>
        <trkpt lat="28.14451" lon="105.74479"><ele>1307.18</ele><time>2026-08-16T04:18:34.000Z</time></trkpt>
        <trkpt lat="28.144503" lon="105.744773"><ele>1305.9486</ele><time>2026-08-16T04:18:36.000Z</time></trkpt>
        <trkpt lat="28.144497" lon="105.744756"><ele>1305.621</ele><time>2026-08-16T04:18:38.000Z</time></trkpt>
        <trkpt lat="28.14449" lon="105.744739"><ele>1305.4021</ele><time>2026-08-16T04:18:40.000Z</time></trkpt>
        <trkpt lat="28.144483" lon="105.744718"><ele>1305.4401</ele><time>2026-08-16T04:18:42.000Z</time></trkpt>
        <trkpt lat="28.144478" lon="105.744697"><ele>1304.104</ele><time>2026-08-16T04:18:44.000Z</time></trkpt>
        <trkpt lat="28.144473" lon="105.744673"><ele>1304.2498</ele><time>2026-08-16T04:18:46.000Z</time></trkpt>
        <trkpt lat="28.144468" lon="105.744647"><ele>1303.976</ele><time>2026-08-16T04:18:48.000Z</time></trkpt>
        <trkpt lat="28.144461" lon="105.74462"><ele>1303.5854</ele><time>2026-08-16T04:18:50.000Z</time></trkpt>
        <trkpt lat="28.144454" lon="105.744598"><ele>1302.8623</ele><time>2026-08-16T04:18:52.000Z</time></trkpt>
        <trkpt lat="28.144445" lon="105.744576"><ele>1302.1641</ele><time>2026-08-16T04:18:54.000Z</time></trkpt>
        <trkpt lat="28.144436" lon="105.744556"><ele>1302.2103</ele><time>2026-08-16T04:18:56.000Z</time></trkpt>
        <trkpt lat="28.144425" lon="105.744541"><ele>1301.3202</ele><time>2026-08-16T04:18:58.000Z</time></trkpt>
        <trkpt lat="28.144412" lon="105.744525"><ele>1301.5054</ele><time>2026-08-16T04:19:00.000Z</time></trkpt>
        <trkpt lat="28.144401" lon="105.744509"><ele>1299.8151</ele><time>2026-08-16T04:19:02.000Z</time></trkpt>
        <trkpt lat="28.14439" lon="105.744494"><ele>1299.7977</ele><time>2026-08-16T04:19:04.000Z</time></trkpt>
        <trkpt lat="28.144378" lon="105.744479"><ele>1299.2169</ele><time>2026-08-16T04:19:06.000Z</time></trkpt>
        <trkpt lat="28.144366" lon="105.744463"><ele>1298.9689</ele><time>2026-08-16T04:19:08.000Z</time></trkpt>
        <trkpt lat="28.144357" lon="105.744448"><ele>1299.3235</ele><time>2026-08-16T04:19:10.000Z</time></trkpt>
        <trkpt lat="28.14435" lon="105.744435"><ele>1299.2902</ele><time>2026-08-16T04:19:12.000Z</time></trkpt>
        <trkpt lat="28.144344" lon="105.74442"><ele>1299.5587</ele><time>2026-08-16T04:19:14.000Z</time></trkpt>
        <trkpt lat="28.144341" lon="105.744406"><ele>1299.837</ele><time>2026-08-16T04:19:16.000Z</time></trkpt>
        <trkpt lat="28.144336" lon="105.744391"><ele>1299.5779</ele><time>2026-08-16T04:19:18.000Z</time></trkpt>
        <trkpt lat="28.144331" lon="105.744376"><ele>1299.8529</ele><time>2026-08-16T04:19:20.000Z</time></trkpt>
        <trkpt lat="28.144326" lon="105.744363"><ele>1300.0468</ele><time>2026-08-16T04:19:22.000Z</time></trkpt>
        <trkpt lat="28.144321" lon="105.744349"><ele>1300.2592</ele><time>2026-08-16T04:19:24.000Z</time></trkpt>
        <trkpt lat="28.144313" lon="105.74433"><ele>1301.2463</ele><time>2026-08-16T04:19:26.000Z</time></trkpt>
        <trkpt lat="28.144307" lon="105.744311"><ele>1302.4487</ele><time>2026-08-16T04:19:28.000Z</time></trkpt>
        <trkpt lat="28.144303" lon="105.744291"><ele>1302.0028</ele><time>2026-08-16T04:19:30.000Z</time></trkpt>
        <trkpt lat="28.144299" lon="105.744269"><ele>1302.4524</ele><time>2026-08-16T04:19:32.000Z</time></trkpt>
        <trkpt lat="28.144294" lon="105.744248"><ele>1302.5829</ele><time>2026-08-16T04:19:34.000Z</time></trkpt>
        <trkpt lat="28.144289" lon="105.744224"><ele>1302.9948</ele><time>2026-08-16T04:19:36.000Z</time></trkpt>
        <trkpt lat="28.144283" lon="105.744199"><ele>1303.1193</ele><time>2026-08-16T04:19:38.000Z</time></trkpt>
        <trkpt lat="28.144276" lon="105.744179"><ele>1303.1414</ele><time>2026-08-16T04:19:40.000Z</time></trkpt>
        <trkpt lat="28.144267" lon="105.74416"><ele>1303.303</ele><time>2026-08-16T04:19:42.000Z</time></trkpt>
        <trkpt lat="28.144259" lon="105.744139"><ele>1304.6655</ele><time>2026-08-16T04:19:44.000Z</time></trkpt>
        <trkpt lat="28.144251" lon="105.744115"><ele>1305.2699</ele><time>2026-08-16T04:19:46.000Z</time></trkpt>
        <trkpt lat="28.144243" lon="105.744093"><ele>1306.192</ele><time>2026-08-16T04:19:48.000Z</time></trkpt>
        <trkpt lat="28.144234" lon="105.744067"><ele>1307.1853</ele><time>2026-08-16T04:19:50.000Z</time></trkpt>
        <trkpt lat="28.144226" lon="105.744042"><ele>1308.4736</ele><time>2026-08-16T04:19:52.000Z</time></trkpt>
        <trkpt lat="28.144215" lon="105.744015"><ele>1308.1398</ele><time>2026-08-16T04:19:54.000Z</time></trkpt>
        <trkpt lat="28.144206" lon="105.743989"><ele>1308.1866</ele><time>2026-08-16T04:19:56.000Z</time></trkpt>
        <trkpt lat="28.144198" lon="105.743967"><ele>1308.6194</ele><time>2026-08-16T04:19:58.000Z</time></trkpt>
        <trkpt lat="28.144189" lon="105.743947"><ele>1308.3151</ele><time>2026-08-16T04:20:00.000Z</time></trkpt>
        <trkpt lat="28.144178" lon="105.743929"><ele>1308.2135</ele><time>2026-08-16T04:20:02.000Z</time></trkpt>
        <trkpt lat="28.144167" lon="105.743913"><ele>1307.5677</ele><time>2026-08-16T04:20:04.000Z</time></trkpt>
        <trkpt lat="28.144156" lon="105.743897"><ele>1307.3754</ele><time>2026-08-16T04:20:06.000Z</time></trkpt>
        <trkpt lat="28.144145" lon="105.74388"><ele>1307.652</ele><time>2026-08-16T04:20:08.000Z</time></trkpt>
        <trkpt lat="28.144134" lon="105.743861"><ele>1306.5042</ele><time>2026-08-16T04:20:10.000Z</time></trkpt>
        <trkpt lat="28.144126" lon="105.74384"><ele>1305.612</ele><time>2026-08-16T04:20:12.000Z</time></trkpt>
        <trkpt lat="28.144118" lon="105.743817"><ele>1305.7421</ele><time>2026-08-16T04:20:14.000Z</time></trkpt>
        <trkpt lat="28.14411" lon="105.743795"><ele>1304.4937</ele><time>2026-08-16T04:20:16.000Z</time></trkpt>
        <trkpt lat="28.144103" lon="105.743772"><ele>1304.44</ele><time>2026-08-16T04:20:18.000Z</time></trkpt>
        <trkpt lat="28.144094" lon="105.743748"><ele>1304.4846</ele><time>2026-08-16T04:20:20.000Z</time></trkpt>
        <trkpt lat="28.144084" lon="105.743724"><ele>1304.4125</ele><time>2026-08-16T04:20:22.000Z</time></trkpt>
        <trkpt lat="28.144072" lon="105.743705"><ele>1304.0112</ele><time>2026-08-16T04:20:24.000Z</time></trkpt>
        <trkpt lat="28.144058" lon="105.743687"><ele>1303.454</ele><time>2026-08-16T04:20:26.000Z</time></trkpt>
        <trkpt lat="28.144046" lon="105.743672"><ele>1302.6434</ele><time>2026-08-16T04:20:28.000Z</time></trkpt>
        <trkpt lat="28.144032" lon="105.743657"><ele>1301.9951</ele><time>2026-08-16T04:20:30.000Z</time></trkpt>
        <trkpt lat="28.144019" lon="105.743639"><ele>1301.4392</ele><time>2026-08-16T04:20:32.000Z</time></trkpt>
        <trkpt lat="28.144007" lon="105.743623"><ele>1300.5369</ele><time>2026-08-16T04:20:34.000Z</time></trkpt>
        <trkpt lat="28.143992" lon="105.743607"><ele>1300.1014</ele><time>2026-08-16T04:20:36.000Z</time></trkpt>
        <trkpt lat="28.14398" lon="105.743594"><ele>1299.9993</ele><time>2026-08-16T04:20:38.000Z</time></trkpt>
        <trkpt lat="28.143965" lon="105.743581"><ele>1299.511</ele><time>2026-08-16T04:20:40.000Z</time></trkpt>
        <trkpt lat="28.143951" lon="105.743572"><ele>1298.8129</ele><time>2026-08-16T04:20:42.000Z</time></trkpt>
        <trkpt lat="28.143938" lon="105.743567"><ele>1298.174</ele><time>2026-08-16T04:20:44.000Z</time></trkpt>
        <trkpt lat="28.143923" lon="105.74356"><ele>1297.731</ele><time>2026-08-16T04:20:46.000Z</time></trkpt>
        <trkpt lat="28.14391" lon="105.743552"><ele>1297.6235</ele><time>2026-08-16T04:20:48.000Z</time></trkpt>
        <trkpt lat="28.143899" lon="105.743542"><ele>1296.9128</ele><time>2026-08-16T04:20:50.000Z</time></trkpt>
        <trkpt lat="28.143894" lon="105.743533"><ele>1296.1173</ele><time>2026-08-16T04:20:52.000Z</time></trkpt>
        <trkpt lat="28.143887" lon="105.743521"><ele>1295.1973</ele><time>2026-08-16T04:20:54.000Z</time></trkpt>
        <trkpt lat="28.14388" lon="105.743509"><ele>1295.1664</ele><time>2026-08-16T04:20:56.000Z</time></trkpt>
        <trkpt lat="28.143869" lon="105.743495"><ele>1295.4146</ele><time>2026-08-16T04:20:58.000Z</time></trkpt>
        <trkpt lat="28.143857" lon="105.743481"><ele>1295.7582</ele><time>2026-08-16T04:21:00.000Z</time></trkpt>
        <trkpt lat="28.143848" lon="105.743471"><ele>1294.4625</ele><time>2026-08-16T04:21:02.000Z</time></trkpt>
        <trkpt lat="28.143839" lon="105.743461"><ele>1293.2181</ele><time>2026-08-16T04:21:04.000Z</time></trkpt>
        <trkpt lat="28.14383" lon="105.743448"><ele>1291.7985</ele><time>2026-08-16T04:21:06.000Z</time></trkpt>
        <trkpt lat="28.143822" lon="105.743436"><ele>1292.1729</ele><time>2026-08-16T04:21:08.000Z</time></trkpt>
        <trkpt lat="28.143811" lon="105.743417"><ele>1292.5151</ele><time>2026-08-16T04:21:10.000Z</time></trkpt>
        <trkpt lat="28.1438" lon="105.7434"><ele>1291.3025</ele><time>2026-08-16T04:21:12.000Z</time></trkpt>
        <trkpt lat="28.143791" lon="105.743385"><ele>1290.8297</ele><time>2026-08-16T04:21:14.000Z</time></trkpt>
        <trkpt lat="28.143784" lon="105.743371"><ele>1290.5603</ele><time>2026-08-16T04:21:16.000Z</time></trkpt>
        <trkpt lat="28.14378" lon="105.743358"><ele>1289.4949</ele><time>2026-08-16T04:21:18.000Z</time></trkpt>
        <trkpt lat="28.143776" lon="105.743345"><ele>1288.4893</ele><time>2026-08-16T04:21:20.000Z</time></trkpt>
        <trkpt lat="28.14377" lon="105.743332"><ele>1287.8693</ele><time>2026-08-16T04:21:22.000Z</time></trkpt>
        <trkpt lat="28.143762" lon="105.743319"><ele>1288.2366</ele><time>2026-08-16T04:21:24.000Z</time></trkpt>
        <trkpt lat="28.143753" lon="105.743305"><ele>1287.9661</ele><time>2026-08-16T04:21:26.000Z</time></trkpt>
        <trkpt lat="28.143746" lon="105.743292"><ele>1287.1881</ele><time>2026-08-16T04:21:28.000Z</time></trkpt>
        <trkpt lat="28.143739" lon="105.743278"><ele>1286.7095</ele><time>2026-08-16T04:21:30.000Z</time></trkpt>
        <trkpt lat="28.143734" lon="105.743263"><ele>1286.9553</ele><time>2026-08-16T04:21:32.000Z</time></trkpt>
        <trkpt lat="28.143729" lon="105.743246"><ele>1287.1833</ele><time>2026-08-16T04:21:34.000Z</time></trkpt>
        <trkpt lat="28.143722" lon="105.743228"><ele>1285.3528</ele><time>2026-08-16T04:21:36.000Z</time></trkpt>
        <trkpt lat="28.143714" lon="105.74321"><ele>1284.4917</ele><time>2026-08-16T04:21:38.000Z</time></trkpt>
        <trkpt lat="28.143703" lon="105.743193"><ele>1284.3457</ele><time>2026-08-16T04:21:40.000Z</time></trkpt>
        <trkpt lat="28.14369" lon="105.743176"><ele>1283.2875</ele><time>2026-08-16T04:21:42.000Z</time></trkpt>
        <trkpt lat="28.143676" lon="105.743159"><ele>1282.0746</ele><time>2026-08-16T04:21:44.000Z</time></trkpt>
        <trkpt lat="28.143664" lon="105.743145"><ele>1281.1882</ele><time>2026-08-16T04:21:46.000Z</time></trkpt>
        <trkpt lat="28.143652" lon="105.743129"><ele>1279.8533</ele><time>2026-08-16T04:21:48.000Z</time></trkpt>
        <trkpt lat="28.143641" lon="105.743112"><ele>1279.4598</ele><time>2026-08-16T04:21:50.000Z</time></trkpt>
        <trkpt lat="28.143627" lon="105.743093"><ele>1279.2848</ele><time>2026-08-16T04:21:52.000Z</time></trkpt>
        <trkpt lat="28.143614" lon="105.743072"><ele>1277.9282</ele><time>2026-08-16T04:21:54.000Z</time></trkpt>
        <trkpt lat="28.143603" lon="105.743049"><ele>1277.868</ele><time>2026-08-16T04:21:56.000Z</time></trkpt>
        <trkpt lat="28.143594" lon="105.743025"><ele>1277.4814</ele><time>2026-08-16T04:21:58.000Z</time></trkpt>
        <trkpt lat="28.143587" lon="105.743002"><ele>1276.9357</ele><time>2026-08-16T04:22:00.000Z</time></trkpt>
        <trkpt lat="28.143583" lon="105.742977"><ele>1277.0544</ele><time>2026-08-16T04:22:02.000Z</time></trkpt>
        <trkpt lat="28.143582" lon="105.742956"><ele>1277.0845</ele><time>2026-08-16T04:22:04.000Z</time></trkpt>
        <trkpt lat="28.143579" lon="105.742935"><ele>1277.1066</ele><time>2026-08-16T04:22:06.000Z</time></trkpt>
        <trkpt lat="28.143573" lon="105.742912"><ele>1276.2357</ele><time>2026-08-16T04:22:08.000Z</time></trkpt>
        <trkpt lat="28.143565" lon="105.742889"><ele>1275.2051</ele><time>2026-08-16T04:22:10.000Z</time></trkpt>
        <trkpt lat="28.143556" lon="105.742868"><ele>1275.2047</ele><time>2026-08-16T04:22:12.000Z</time></trkpt>
        <trkpt lat="28.143548" lon="105.742846"><ele>1275.4382</ele><time>2026-08-16T04:22:14.000Z</time></trkpt>
        <trkpt lat="28.143544" lon="105.742827"><ele>1275.3097</ele><time>2026-08-16T04:22:16.000Z</time></trkpt>
        <trkpt lat="28.143542" lon="105.742805"><ele>1275.7007</ele><time>2026-08-16T04:22:18.000Z</time></trkpt>
        <trkpt lat="28.143539" lon="105.742782"><ele>1274.9523</ele><time>2026-08-16T04:22:20.000Z</time></trkpt>
        <trkpt lat="28.143537" lon="105.742757"><ele>1275.7231</ele><time>2026-08-16T04:22:22.000Z</time></trkpt>
        <trkpt lat="28.143536" lon="105.742733"><ele>1275.6144</ele><time>2026-08-16T04:22:24.000Z</time></trkpt>
        <trkpt lat="28.143537" lon="105.742709"><ele>1276.3525</ele><time>2026-08-16T04:22:26.000Z</time></trkpt>
        <trkpt lat="28.14354" lon="105.742688"><ele>1275.5302</ele><time>2026-08-16T04:22:28.000Z</time></trkpt>
        <trkpt lat="28.143542" lon="105.742667"><ele>1275.1705</ele><time>2026-08-16T04:22:30.000Z</time></trkpt>
        <trkpt lat="28.143544" lon="105.742644"><ele>1275.0902</ele><time>2026-08-16T04:22:32.000Z</time></trkpt>
        <trkpt lat="28.143545" lon="105.742622"><ele>1274.797</ele><time>2026-08-16T04:22:34.000Z</time></trkpt>
        <trkpt lat="28.143544" lon="105.742602"><ele>1274.1246</ele><time>2026-08-16T04:22:36.000Z</time></trkpt>
        <trkpt lat="28.143542" lon="105.742583"><ele>1274.4304</ele><time>2026-08-16T04:22:38.000Z</time></trkpt>
        <trkpt lat="28.143538" lon="105.742563"><ele>1274.2538</ele><time>2026-08-16T04:22:40.000Z</time></trkpt>
        <trkpt lat="28.143533" lon="105.742543"><ele>1274.482</ele><time>2026-08-16T04:22:42.000Z</time></trkpt>
        <trkpt lat="28.143528" lon="105.742525"><ele>1274.1267</ele><time>2026-08-16T04:22:44.000Z</time></trkpt>
        <trkpt lat="28.143523" lon="105.742503"><ele>1273.7349</ele><time>2026-08-16T04:22:46.000Z</time></trkpt>
        <trkpt lat="28.143522" lon="105.742481"><ele>1273.7767</ele><time>2026-08-16T04:22:48.000Z</time></trkpt>
        <trkpt lat="28.143524" lon="105.742458"><ele>1273.6101</ele><time>2026-08-16T04:22:50.000Z</time></trkpt>
        <trkpt lat="28.143528" lon="105.742434"><ele>1273.0837</ele><time>2026-08-16T04:22:52.000Z</time></trkpt>
        <trkpt lat="28.14353" lon="105.74241"><ele>1272.069</ele><time>2026-08-16T04:22:54.000Z</time></trkpt>
        <trkpt lat="28.14353" lon="105.742386"><ele>1271.5472</ele><time>2026-08-16T04:22:56.000Z</time></trkpt>
        <trkpt lat="28.143527" lon="105.742361"><ele>1270.9581</ele><time>2026-08-16T04:22:58.000Z</time></trkpt>
        <trkpt lat="28.143523" lon="105.742336"><ele>1270.7775</ele><time>2026-08-16T04:23:00.000Z</time></trkpt>
        <trkpt lat="28.143518" lon="105.742316"><ele>1269.2255</ele><time>2026-08-16T04:23:02.000Z</time></trkpt>
        <trkpt lat="28.143513" lon="105.742293"><ele>1269.0629</ele><time>2026-08-16T04:23:04.000Z</time></trkpt>
        <trkpt lat="28.143508" lon="105.742268"><ele>1268.6462</ele><time>2026-08-16T04:23:06.000Z</time></trkpt>
        <trkpt lat="28.143504" lon="105.742242"><ele>1268.038</ele><time>2026-08-16T04:23:08.000Z</time></trkpt>
        <trkpt lat="28.143502" lon="105.742214"><ele>1267.6738</ele><time>2026-08-16T04:23:10.000Z</time></trkpt>
        <trkpt lat="28.143502" lon="105.742183"><ele>1266.974</ele><time>2026-08-16T04:23:12.000Z</time></trkpt>
        <trkpt lat="28.143503" lon="105.742153"><ele>1266.7789</ele><time>2026-08-16T04:23:14.000Z</time></trkpt>
        <trkpt lat="28.143505" lon="105.742122"><ele>1265.7887</ele><time>2026-08-16T04:23:16.000Z</time></trkpt>
        <trkpt lat="28.143506" lon="105.74209"><ele>1265.2222</ele><time>2026-08-16T04:23:18.000Z</time></trkpt>
        <trkpt lat="28.143507" lon="105.742058"><ele>1265.1642</ele><time>2026-08-16T04:23:20.000Z</time></trkpt>
        <trkpt lat="28.143508" lon="105.742031"><ele>1265.0695</ele><time>2026-08-16T04:23:22.000Z</time></trkpt>
        <trkpt lat="28.143509" lon="105.742008"><ele>1264.4393</ele><time>2026-08-16T04:23:24.000Z</time></trkpt>
        <trkpt lat="28.143512" lon="105.741984"><ele>1264.1106</ele><time>2026-08-16T04:23:26.000Z</time></trkpt>
        <trkpt lat="28.143515" lon="105.74196"><ele>1264.98</ele><time>2026-08-16T04:23:28.000Z</time></trkpt>
        <trkpt lat="28.143518" lon="105.741937"><ele>1264.3552</ele><time>2026-08-16T04:23:30.000Z</time></trkpt>
        <trkpt lat="28.143522" lon="105.741914"><ele>1263.755</ele><time>2026-08-16T04:23:32.000Z</time></trkpt>
        <trkpt lat="28.143527" lon="105.741885"><ele>1263.5768</ele><time>2026-08-16T04:23:34.000Z</time></trkpt>
        <trkpt lat="28.143529" lon="105.741854"><ele>1263.4835</ele><time>2026-08-16T04:23:36.000Z</time></trkpt>
        <trkpt lat="28.143531" lon="105.741822"><ele>1264.0033</ele><time>2026-08-16T04:23:38.000Z</time></trkpt>
        <trkpt lat="28.14353" lon="105.74179"><ele>1264.0808</ele><time>2026-08-16T04:23:40.000Z</time></trkpt>
        <trkpt lat="28.143525" lon="105.741762"><ele>1263.6526</ele><time>2026-08-16T04:23:42.000Z</time></trkpt>
        <trkpt lat="28.143517" lon="105.741736"><ele>1263.8496</ele><time>2026-08-16T04:23:44.000Z</time></trkpt>
        <trkpt lat="28.143509" lon="105.74171"><ele>1263.2511</ele><time>2026-08-16T04:23:46.000Z</time></trkpt>
        <trkpt lat="28.143503" lon="105.741683"><ele>1264.0592</ele><time>2026-08-16T04:23:48.000Z</time></trkpt>
        <trkpt lat="28.143501" lon="105.741658"><ele>1263.2402</ele><time>2026-08-16T04:23:50.000Z</time></trkpt>
        <trkpt lat="28.143505" lon="105.741633"><ele>1263.021</ele><time>2026-08-16T04:23:52.000Z</time></trkpt>
        <trkpt lat="28.143512" lon="105.74161"><ele>1263.4072</ele><time>2026-08-16T04:23:54.000Z</time></trkpt>
        <trkpt lat="28.143515" lon="105.741595"><ele>1262.1935</ele><time>2026-08-16T04:23:56.000Z</time></trkpt>
        <trkpt lat="28.143518" lon="105.741582"><ele>1261.4194</ele><time>2026-08-16T04:23:58.000Z</time></trkpt>
        <trkpt lat="28.143519" lon="105.741571"><ele>1261.3639</ele><time>2026-08-16T04:24:00.000Z</time></trkpt>
        <trkpt lat="28.143521" lon="105.741557"><ele>1260.4865</ele><time>2026-08-16T04:24:02.000Z</time></trkpt>
        <trkpt lat="28.143523" lon="105.741537"><ele>1260.9572</ele><time>2026-08-16T04:24:04.000Z</time></trkpt>
        <trkpt lat="28.143524" lon="105.741523"><ele>1260.0774</ele><time>2026-08-16T04:24:06.000Z</time></trkpt>
        <trkpt lat="28.143523" lon="105.741507"><ele>1259.0018</ele><time>2026-08-16T04:24:08.000Z</time></trkpt>
        <trkpt lat="28.143521" lon="105.741483"><ele>1258.289</ele><time>2026-08-16T04:24:10.000Z</time></trkpt>
        <trkpt lat="28.14352" lon="105.741459"><ele>1258.2559</ele><time>2026-08-16T04:24:12.000Z</time></trkpt>
        <trkpt lat="28.14352" lon="105.741434"><ele>1257.7513</ele><time>2026-08-16T04:24:14.000Z</time></trkpt>
        <trkpt lat="28.14352" lon="105.74141"><ele>1257.9529</ele><time>2026-08-16T04:24:16.000Z</time></trkpt>
        <trkpt lat="28.143519" lon="105.741386"><ele>1257.4165</ele><time>2026-08-16T04:24:18.000Z</time></trkpt>
        <trkpt lat="28.143518" lon="105.74136"><ele>1257.21</ele><time>2026-08-16T04:24:20.000Z</time></trkpt>
        <trkpt lat="28.143517" lon="105.741335"><ele>1257.0283</ele><time>2026-08-16T04:24:22.000Z</time></trkpt>
        <trkpt lat="28.143517" lon="105.741307"><ele>1256.7848</ele><time>2026-08-16T04:24:24.000Z</time></trkpt>
        <trkpt lat="28.14352" lon="105.741282"><ele>1256.2137</ele><time>2026-08-16T04:24:26.000Z</time></trkpt>
        <trkpt lat="28.143523" lon="105.741258"><ele>1256.6292</ele><time>2026-08-16T04:24:28.000Z</time></trkpt>
        <trkpt lat="28.143526" lon="105.741239"><ele>1255.6365</ele><time>2026-08-16T04:24:30.000Z</time></trkpt>
        <trkpt lat="28.143528" lon="105.741219"><ele>1256.0256</ele><time>2026-08-16T04:24:32.000Z</time></trkpt>
        <trkpt lat="28.143529" lon="105.741198"><ele>1255.5607</ele><time>2026-08-16T04:24:34.000Z</time></trkpt>
        <trkpt lat="28.143531" lon="105.741178"><ele>1255.1797</ele><time>2026-08-16T04:24:36.000Z</time></trkpt>
        <trkpt lat="28.143536" lon="105.741158"><ele>1255.3562</ele><time>2026-08-16T04:24:38.000Z</time></trkpt>
        <trkpt lat="28.143541" lon="105.741138"><ele>1254.3557</ele><time>2026-08-16T04:24:40.000Z</time></trkpt>
        <trkpt lat="28.143547" lon="105.741117"><ele>1254.2513</ele><time>2026-08-16T04:24:42.000Z</time></trkpt>
        <trkpt lat="28.143549" lon="105.741094"><ele>1254.5245</ele><time>2026-08-16T04:24:44.000Z</time></trkpt>
        <trkpt lat="28.143547" lon="105.741075"><ele>1254.7908</ele><time>2026-08-16T04:24:46.000Z</time></trkpt>
        <trkpt lat="28.143541" lon="105.741057"><ele>1254.681</ele><time>2026-08-16T04:24:48.000Z</time></trkpt>
        <trkpt lat="28.143533" lon="105.741034"><ele>1254.7242</ele><time>2026-08-16T04:24:50.000Z</time></trkpt>
        <trkpt lat="28.143524" lon="105.741013"><ele>1254.6477</ele><time>2026-08-16T04:24:52.000Z</time></trkpt>
        <trkpt lat="28.143516" lon="105.740993"><ele>1253.4586</ele><time>2026-08-16T04:24:54.000Z</time></trkpt>
        <trkpt lat="28.143508" lon="105.740971"><ele>1252.6183</ele><time>2026-08-16T04:24:56.000Z</time></trkpt>
        <trkpt lat="28.1435" lon="105.74095"><ele>1251.826</ele><time>2026-08-16T04:24:58.000Z</time></trkpt>
        <trkpt lat="28.143493" lon="105.740928"><ele>1251.2732</ele><time>2026-08-16T04:25:00.000Z</time></trkpt>
        <trkpt lat="28.143486" lon="105.740902"><ele>1251.6672</ele><time>2026-08-16T04:25:02.000Z</time></trkpt>
        <trkpt lat="28.143479" lon="105.740878"><ele>1251.2794</ele><time>2026-08-16T04:25:04.000Z</time></trkpt>
        <trkpt lat="28.143473" lon="105.740853"><ele>1251.0347</ele><time>2026-08-16T04:25:06.000Z</time></trkpt>
        <trkpt lat="28.143469" lon="105.740831"><ele>1250.8335</ele><time>2026-08-16T04:25:08.000Z</time></trkpt>
        <trkpt lat="28.143463" lon="105.740809"><ele>1250.8563</ele><time>2026-08-16T04:25:10.000Z</time></trkpt>
        <trkpt lat="28.143459" lon="105.740789"><ele>1250.7258</ele><time>2026-08-16T04:25:12.000Z</time></trkpt>
        <trkpt lat="28.143455" lon="105.74077"><ele>1250.7988</ele><time>2026-08-16T04:25:14.000Z</time></trkpt>
        <trkpt lat="28.14345" lon="105.740751"><ele>1250.8619</ele><time>2026-08-16T04:25:16.000Z</time></trkpt>
        <trkpt lat="28.143445" lon="105.740732"><ele>1251.397</ele><time>2026-08-16T04:25:18.000Z</time></trkpt>
        <trkpt lat="28.143441" lon="105.740715"><ele>1251.1539</ele><time>2026-08-16T04:25:20.000Z</time></trkpt>
        <trkpt lat="28.143435" lon="105.740698"><ele>1251.9745</ele><time>2026-08-16T04:25:22.000Z</time></trkpt>
        <trkpt lat="28.143428" lon="105.740687"><ele>1252.6482</ele><time>2026-08-16T04:25:24.000Z</time></trkpt>
        <trkpt lat="28.143419" lon="105.740674"><ele>1253.0454</ele><time>2026-08-16T04:25:26.000Z</time></trkpt>
        <trkpt lat="28.143409" lon="105.74066"><ele>1253.2671</ele><time>2026-08-16T04:25:28.000Z</time></trkpt>
        <trkpt lat="28.143402" lon="105.740645"><ele>1251.7318</ele><time>2026-08-16T04:25:30.000Z</time></trkpt>
        <trkpt lat="28.143402" lon="105.740637"><ele>1251.2279</ele><time>2026-08-16T04:25:32.000Z</time></trkpt>
        <trkpt lat="28.1434" lon="105.740627"><ele>1251.4775</ele><time>2026-08-16T04:25:36.000Z</time></trkpt>
        <trkpt lat="28.143394" lon="105.740601"><ele>1250.9596</ele><time>2026-08-16T04:26:50.000Z</time></trkpt>
        <trkpt lat="28.143394" lon="105.740601"><ele>1251.2095</ele><time>2026-08-16T04:26:52.000Z</time></trkpt>
        <trkpt lat="28.143401" lon="105.740578"><ele>1249.9342</ele><time>2026-08-16T04:33:27.000Z</time></trkpt>
        <trkpt lat="28.143407" lon="105.740559"><ele>1249.2997</ele><time>2026-08-16T04:33:29.000Z</time></trkpt>
        <trkpt lat="28.143408" lon="105.740559"><ele>1248.4515</ele><time>2026-08-16T04:33:31.000Z</time></trkpt>
        <trkpt lat="28.143432" lon="105.740561"><ele>1246.7081</ele><time>2026-08-16T04:33:37.000Z</time></trkpt>
        <trkpt lat="28.143454" lon="105.740567"><ele>1246.3553</ele><time>2026-08-16T04:33:39.000Z</time></trkpt>
        <trkpt lat="28.143479" lon="105.740574"><ele>1246.3757</ele><time>2026-08-16T04:33:41.000Z</time></trkpt>
        <trkpt lat="28.143505" lon="105.74058"><ele>1247.3981</ele><time>2026-08-16T04:33:43.000Z</time></trkpt>
        <trkpt lat="28.143531" lon="105.740582"><ele>1248.0293</ele><time>2026-08-16T04:33:45.000Z</time></trkpt>
        <trkpt lat="28.14355" lon="105.740582"><ele>1248.3649</ele><time>2026-08-16T04:33:47.000Z</time></trkpt>
        <trkpt lat="28.143567" lon="105.74058"><ele>1247.8925</ele><time>2026-08-16T04:33:49.000Z</time></trkpt>
        <trkpt lat="28.143589" lon="105.740576"><ele>1247.1837</ele><time>2026-08-16T04:33:51.000Z</time></trkpt>
        <trkpt lat="28.143613" lon="105.740571"><ele>1247.2543</ele><time>2026-08-16T04:33:53.000Z</time></trkpt>
        <trkpt lat="28.143635" lon="105.740567"><ele>1247.299</ele><time>2026-08-16T04:33:55.000Z</time></trkpt>
        <trkpt lat="28.143651" lon="105.740563"><ele>1246.7848</ele><time>2026-08-16T04:33:57.000Z</time></trkpt>
        <trkpt lat="28.143658" lon="105.740566"><ele>1247.0834</ele><time>2026-08-16T04:33:59.000Z</time></trkpt>
        <trkpt lat="28.14367" lon="105.740582"><ele>1250.3512</ele><time>2026-08-16T04:34:17.000Z</time></trkpt>
        <trkpt lat="28.143692" lon="105.740611"><ele>1250.6398</ele><time>2026-08-16T04:34:19.000Z</time></trkpt>
        <trkpt lat="28.143694" lon="105.74061"><ele>1251.5027</ele><time>2026-08-16T04:34:21.000Z</time></trkpt>
        <trkpt lat="28.14379" lon="105.7406"><ele>1252.2689</ele><time>2026-08-16T04:34:23.000Z</time></trkpt>
        <trkpt lat="28.143795" lon="105.740596"><ele>1252.3457</ele><time>2026-08-16T04:34:25.000Z</time></trkpt>
        <trkpt lat="28.143795" lon="105.740596"><ele>1252.549</ele><time>2026-08-16T04:34:27.000Z</time></trkpt>
        <trkpt lat="28.143776" lon="105.740543"><ele>1253.2694</ele><time>2026-08-16T04:34:33.000Z</time></trkpt>
        <trkpt lat="28.143778" lon="105.740546"><ele>1253.8556</ele><time>2026-08-16T04:34:35.000Z</time></trkpt>
        <trkpt lat="28.143783" lon="105.740546"><ele>1254.5166</ele><time>2026-08-16T04:34:37.000Z</time></trkpt>
        <trkpt lat="28.143703" lon="105.740535"><ele>1254.0107</ele><time>2026-08-16T04:34:51.000Z</time></trkpt>
        <trkpt lat="28.143803" lon="105.740577"><ele>1256.7885</ele><time>2026-08-16T04:34:53.000Z</time></trkpt>
        <trkpt lat="28.143802" lon="105.740579"><ele>1257.1594</ele><time>2026-08-16T04:34:55.000Z</time></trkpt>
        <trkpt lat="28.143806" lon="105.740537"><ele>1257.0035</ele><time>2026-08-16T04:34:58.000Z</time></trkpt>
        <trkpt lat="28.143832" lon="105.74053"><ele>1259.1565</ele><time>2026-08-16T04:35:04.000Z</time></trkpt>
        <trkpt lat="28.14385" lon="105.740515"><ele>1259.6666</ele><time>2026-08-16T04:35:06.000Z</time></trkpt>
        <trkpt lat="28.143862" lon="105.740513"><ele>1260.2902</ele><time>2026-08-16T04:35:08.000Z</time></trkpt>
        <trkpt lat="28.14378" lon="105.74053"><ele>1264.4537</ele><time>2026-08-16T04:35:19.000Z</time></trkpt>
        <trkpt lat="28.143755" lon="105.740536"><ele>1265.2336</ele><time>2026-08-16T04:35:21.000Z</time></trkpt>
        <trkpt lat="28.143722" lon="105.740541"><ele>1266.5526</ele><time>2026-08-16T04:35:23.000Z</time></trkpt>
        <trkpt lat="28.143655" lon="105.740549"><ele>1265.8247</ele><time>2026-08-16T04:35:25.000Z</time></trkpt>
        <trkpt lat="28.14365" lon="105.740551"><ele>1265.6846</ele><time>2026-08-16T04:35:27.000Z</time></trkpt>
        <trkpt lat="28.143647" lon="105.740552"><ele>1265.6327</ele><time>2026-08-16T04:35:29.000Z</time></trkpt>
        <trkpt lat="28.143618" lon="105.740562"><ele>1266.505</ele><time>2026-08-16T04:35:33.000Z</time></trkpt>
        <trkpt lat="28.143596" lon="105.740571"><ele>1268.0668</ele><time>2026-08-16T04:35:35.000Z</time></trkpt>
        <trkpt lat="28.143569" lon="105.740579"><ele>1269.1185</ele><time>2026-08-16T04:35:37.000Z</time></trkpt>
        <trkpt lat="28.143551" lon="105.740586"><ele>1266.305</ele><time>2026-08-16T04:35:39.000Z</time></trkpt>
        <trkpt lat="28.143543" lon="105.740589"><ele>1264.5614</ele><time>2026-08-16T04:35:41.000Z</time></trkpt>
        <trkpt lat="28.14354" lon="105.74059"><ele>1264.6184</ele><time>2026-08-16T04:35:43.000Z</time></trkpt>
        <trkpt lat="28.143512" lon="105.740594"><ele>1259.6354</ele><time>2026-08-16T04:35:51.000Z</time></trkpt>
      </trkseg>
  </trk>
</gpx>